<?xml version="1.0" encoding="UTF-8" standalone="no" ?>
<gpx xmlns="http://www.topografix.com/GPX/1/1" xmlns:xsi="http://www.w3.org/2001/XMLSchema-instance" xsi:schemaLocation="http://www.topografix.com/GPX/1/1 http://www.topografix.com/GPX/1/1/gpx.xsd" version="1.1" creator="VisuGPX - https://www.visugpx.com">
  <metadata>
    <name>ainsa</name>
  </metadata>
  <trk>
    <name><![CDATA[Ainsa 19]]></name>
    <extensions>
      <line xmlns="http://www.topografix.com/GPX/gpx_style/0/2">
        <color>008888</color>
        <width>4</width>
      </line>
    </extensions>
    <trkseg>
      <trkpt lat="42.34519" lon="0.16153">
        <ele>572.2</ele>
        <time>2015-09-22T09:17:49Z</time>
      </trkpt>
      <trkpt lat="42.3451" lon="0.16155">
        <ele>571</ele>
        <time>2015-09-22T09:17:52Z</time>
      </trkpt>
      <trkpt lat="42.34514" lon="0.16156">
        <ele>571.4</ele>
        <time>2015-09-22T09:17:55Z</time>
      </trkpt>
      <trkpt lat="42.34516" lon="0.16153">
        <ele>571.8</ele>
        <time>2015-09-22T09:18:00Z</time>
      </trkpt>
      <trkpt lat="42.34518" lon="0.1615">
        <ele>572.2</ele>
        <time>2015-09-22T09:21:23Z</time>
      </trkpt>
      <trkpt lat="42.34521" lon="0.16146">
        <ele>572.7</ele>
        <time>2015-09-22T09:21:25Z</time>
      </trkpt>
      <trkpt lat="42.34521" lon="0.1614">
        <ele>572.9</ele>
        <time>2015-09-22T09:21:27Z</time>
      </trkpt>
      <trkpt lat="42.34518" lon="0.16135">
        <ele>572.7</ele>
        <time>2015-09-22T09:21:29Z</time>
      </trkpt>
      <trkpt lat="42.34516" lon="0.16132">
        <ele>572.6</ele>
        <time>2015-09-22T09:21:30Z</time>
      </trkpt>
      <trkpt lat="42.34514" lon="0.16129">
        <ele>572.6</ele>
        <time>2015-09-22T09:21:31Z</time>
      </trkpt>
      <trkpt lat="42.34511" lon="0.16124">
        <ele>572.3</ele>
        <time>2015-09-22T09:21:33Z</time>
      </trkpt>
      <trkpt lat="42.3451" lon="0.16118">
        <ele>572.2</ele>
        <time>2015-09-22T09:21:35Z</time>
      </trkpt>
      <trkpt lat="42.34511" lon="0.16114">
        <ele>572.3</ele>
        <time>2015-09-22T09:21:36Z</time>
      </trkpt>
      <trkpt lat="42.34513" lon="0.16111">
        <ele>572.4</ele>
        <time>2015-09-22T09:21:37Z</time>
      </trkpt>
      <trkpt lat="42.34515" lon="0.16108">
        <ele>572.7</ele>
        <time>2015-09-22T09:21:38Z</time>
      </trkpt>
      <trkpt lat="42.34516" lon="0.16104">
        <ele>572.9</ele>
        <time>2015-09-22T09:21:39Z</time>
      </trkpt>
      <trkpt lat="42.34519" lon="0.16102">
        <ele>573.2</ele>
        <time>2015-09-22T09:21:40Z</time>
      </trkpt>
      <trkpt lat="42.34521" lon="0.16099">
        <ele>573.5</ele>
        <time>2015-09-22T09:21:41Z</time>
      </trkpt>
      <trkpt lat="42.34524" lon="0.16097">
        <ele>573.9</ele>
        <time>2015-09-22T09:21:42Z</time>
      </trkpt>
      <trkpt lat="42.34526" lon="0.16095">
        <ele>574.2</ele>
        <time>2015-09-22T09:21:43Z</time>
      </trkpt>
      <trkpt lat="42.34529" lon="0.16092">
        <ele>574.6</ele>
        <time>2015-09-22T09:21:44Z</time>
      </trkpt>
      <trkpt lat="42.34531" lon="0.1609">
        <ele>574.9</ele>
        <time>2015-09-22T09:21:45Z</time>
      </trkpt>
      <trkpt lat="42.34533" lon="0.16087">
        <ele>575.2</ele>
        <time>2015-09-22T09:21:46Z</time>
      </trkpt>
      <trkpt lat="42.34535" lon="0.16084">
        <ele>575.6</ele>
        <time>2015-09-22T09:21:47Z</time>
      </trkpt>
      <trkpt lat="42.34537" lon="0.16082">
        <ele>575.9</ele>
        <time>2015-09-22T09:21:48Z</time>
      </trkpt>
      <trkpt lat="42.3454" lon="0.16079">
        <ele>576.3</ele>
        <time>2015-09-22T09:21:49Z</time>
      </trkpt>
      <trkpt lat="42.34542" lon="0.16076">
        <ele>576.6</ele>
        <time>2015-09-22T09:21:50Z</time>
      </trkpt>
      <trkpt lat="42.34544" lon="0.16073">
        <ele>576.6</ele>
        <time>2015-09-22T09:21:51Z</time>
      </trkpt>
      <trkpt lat="42.34546" lon="0.16071">
        <ele>576.7</ele>
        <time>2015-09-22T09:21:52Z</time>
      </trkpt>
      <trkpt lat="42.34547" lon="0.16068">
        <ele>576.7</ele>
        <time>2015-09-22T09:21:53Z</time>
      </trkpt>
      <trkpt lat="42.34548" lon="0.16064">
        <ele>576.8</ele>
        <time>2015-09-22T09:21:54Z</time>
      </trkpt>
      <trkpt lat="42.34549" lon="0.16061">
        <ele>576.8</ele>
        <time>2015-09-22T09:21:55Z</time>
      </trkpt>
      <trkpt lat="42.34551" lon="0.16058">
        <ele>576.9</ele>
        <time>2015-09-22T09:21:56Z</time>
      </trkpt>
      <trkpt lat="42.34553" lon="0.16055">
        <ele>576.9</ele>
        <time>2015-09-22T09:21:57Z</time>
      </trkpt>
      <trkpt lat="42.34555" lon="0.16053">
        <ele>577</ele>
        <time>2015-09-22T09:21:58Z</time>
      </trkpt>
      <trkpt lat="42.34557" lon="0.1605">
        <ele>577.1</ele>
        <time>2015-09-22T09:21:59Z</time>
      </trkpt>
      <trkpt lat="42.34559" lon="0.16047">
        <ele>577.1</ele>
        <time>2015-09-22T09:22:00Z</time>
      </trkpt>
      <trkpt lat="42.34563" lon="0.16042">
        <ele>577.2</ele>
        <time>2015-09-22T09:22:02Z</time>
      </trkpt>
      <trkpt lat="42.34565" lon="0.16037">
        <ele>577.2</ele>
        <time>2015-09-22T09:22:04Z</time>
      </trkpt>
      <trkpt lat="42.34568" lon="0.16032">
        <ele>577.1</ele>
        <time>2015-09-22T09:22:06Z</time>
      </trkpt>
      <trkpt lat="42.34571" lon="0.16027">
        <ele>577</ele>
        <time>2015-09-22T09:22:08Z</time>
      </trkpt>
      <trkpt lat="42.34573" lon="0.16024">
        <ele>577</ele>
        <time>2015-09-22T09:22:10Z</time>
      </trkpt>
      <trkpt lat="42.34577" lon="0.16025">
        <ele>577.1</ele>
        <time>2015-09-22T09:22:23Z</time>
      </trkpt>
      <trkpt lat="42.34579" lon="0.16021">
        <ele>577</ele>
        <time>2015-09-22T09:22:25Z</time>
      </trkpt>
      <trkpt lat="42.34581" lon="0.16015">
        <ele>577</ele>
        <time>2015-09-22T09:22:27Z</time>
      </trkpt>
      <trkpt lat="42.34582" lon="0.16012">
        <ele>576.9</ele>
        <time>2015-09-22T09:22:28Z</time>
      </trkpt>
      <trkpt lat="42.34582" lon="0.16008">
        <ele>576.9</ele>
        <time>2015-09-22T09:22:29Z</time>
      </trkpt>
      <trkpt lat="42.34583" lon="0.16005">
        <ele>576.8</ele>
        <time>2015-09-22T09:22:30Z</time>
      </trkpt>
      <trkpt lat="42.34583" lon="0.16001">
        <ele>576.8</ele>
        <time>2015-09-22T09:22:31Z</time>
      </trkpt>
      <trkpt lat="42.34583" lon="0.15994">
        <ele>576.6</ele>
        <time>2015-09-22T09:22:33Z</time>
      </trkpt>
      <trkpt lat="42.34582" lon="0.15987">
        <ele>576.5</ele>
        <time>2015-09-22T09:22:35Z</time>
      </trkpt>
      <trkpt lat="42.34581" lon="0.15981">
        <ele>576.3</ele>
        <time>2015-09-22T09:22:37Z</time>
      </trkpt>
      <trkpt lat="42.3458" lon="0.15975">
        <ele>576.1</ele>
        <time>2015-09-22T09:22:39Z</time>
      </trkpt>
      <trkpt lat="42.34579" lon="0.15969">
        <ele>576</ele>
        <time>2015-09-22T09:22:41Z</time>
      </trkpt>
      <trkpt lat="42.34581" lon="0.15964">
        <ele>576</ele>
        <time>2015-09-22T09:22:43Z</time>
      </trkpt>
      <trkpt lat="42.34584" lon="0.15959">
        <ele>576</ele>
        <time>2015-09-22T09:22:45Z</time>
      </trkpt>
      <trkpt lat="42.34586" lon="0.15953">
        <ele>576.2</ele>
        <time>2015-09-22T09:22:47Z</time>
      </trkpt>
      <trkpt lat="42.34586" lon="0.15947">
        <ele>576.3</ele>
        <time>2015-09-22T09:22:49Z</time>
      </trkpt>
      <trkpt lat="42.34583" lon="0.15942">
        <ele>576.2</ele>
        <time>2015-09-22T09:22:51Z</time>
      </trkpt>
      <trkpt lat="42.34579" lon="0.15939">
        <ele>576</ele>
        <time>2015-09-22T09:22:53Z</time>
      </trkpt>
      <trkpt lat="42.34573" lon="0.15937">
        <ele>575.7</ele>
        <time>2015-09-22T09:22:55Z</time>
      </trkpt>
      <trkpt lat="42.34571" lon="0.15936">
        <ele>575.6</ele>
        <time>2015-09-22T09:22:56Z</time>
      </trkpt>
      <trkpt lat="42.34568" lon="0.15935">
        <ele>575.4</ele>
        <time>2015-09-22T09:22:57Z</time>
      </trkpt>
      <trkpt lat="42.34565" lon="0.15933">
        <ele>575.3</ele>
        <time>2015-09-22T09:22:58Z</time>
      </trkpt>
      <trkpt lat="42.34562" lon="0.15931">
        <ele>575.1</ele>
        <time>2015-09-22T09:22:59Z</time>
      </trkpt>
      <trkpt lat="42.34558" lon="0.15928">
        <ele>574.9</ele>
        <time>2015-09-22T09:23:00Z</time>
      </trkpt>
      <trkpt lat="42.34555" lon="0.15925">
        <ele>574.8</ele>
        <time>2015-09-22T09:23:01Z</time>
      </trkpt>
      <trkpt lat="42.34552" lon="0.15922">
        <ele>574.6</ele>
        <time>2015-09-22T09:23:02Z</time>
      </trkpt>
      <trkpt lat="42.34549" lon="0.15918">
        <ele>574.4</ele>
        <time>2015-09-22T09:23:03Z</time>
      </trkpt>
      <trkpt lat="42.34547" lon="0.15915">
        <ele>574.3</ele>
        <time>2015-09-22T09:23:04Z</time>
      </trkpt>
      <trkpt lat="42.34544" lon="0.1591">
        <ele>574.2</ele>
        <time>2015-09-22T09:23:05Z</time>
      </trkpt>
      <trkpt lat="42.34543" lon="0.15906">
        <ele>574.1</ele>
        <time>2015-09-22T09:23:06Z</time>
      </trkpt>
      <trkpt lat="42.34541" lon="0.15901">
        <ele>573.9</ele>
        <time>2015-09-22T09:23:07Z</time>
      </trkpt>
      <trkpt lat="42.3454" lon="0.15897">
        <ele>573.8</ele>
        <time>2015-09-22T09:23:08Z</time>
      </trkpt>
      <trkpt lat="42.34541" lon="0.15891">
        <ele>573.9</ele>
        <time>2015-09-22T09:23:09Z</time>
      </trkpt>
      <trkpt lat="42.34541" lon="0.15886">
        <ele>573.9</ele>
        <time>2015-09-22T09:23:10Z</time>
      </trkpt>
      <trkpt lat="42.34542" lon="0.1588">
        <ele>574</ele>
        <time>2015-09-22T09:23:11Z</time>
      </trkpt>
      <trkpt lat="42.34543" lon="0.15875">
        <ele>574.1</ele>
        <time>2015-09-22T09:23:12Z</time>
      </trkpt>
      <trkpt lat="42.34544" lon="0.1587">
        <ele>573.8</ele>
        <time>2015-09-22T09:23:13Z</time>
      </trkpt>
      <trkpt lat="42.34545" lon="0.15865">
        <ele>573.5</ele>
        <time>2015-09-22T09:23:14Z</time>
      </trkpt>
      <trkpt lat="42.34547" lon="0.1586">
        <ele>573.3</ele>
        <time>2015-09-22T09:23:15Z</time>
      </trkpt>
      <trkpt lat="42.34549" lon="0.15855">
        <ele>573.2</ele>
        <time>2015-09-22T09:23:16Z</time>
      </trkpt>
      <trkpt lat="42.34551" lon="0.1585">
        <ele>573</ele>
        <time>2015-09-22T09:23:17Z</time>
      </trkpt>
      <trkpt lat="42.34553" lon="0.15846">
        <ele>572.9</ele>
        <time>2015-09-22T09:23:18Z</time>
      </trkpt>
      <trkpt lat="42.34555" lon="0.1584">
        <ele>572.7</ele>
        <time>2015-09-22T09:23:19Z</time>
      </trkpt>
      <trkpt lat="42.34557" lon="0.15834">
        <ele>572.5</ele>
        <time>2015-09-22T09:23:20Z</time>
      </trkpt>
      <trkpt lat="42.3456" lon="0.15826">
        <ele>572.3</ele>
        <time>2015-09-22T09:23:21Z</time>
      </trkpt>
      <trkpt lat="42.34562" lon="0.1582">
        <ele>572.1</ele>
        <time>2015-09-22T09:23:22Z</time>
      </trkpt>
      <trkpt lat="42.34563" lon="0.15813">
        <ele>571.9</ele>
        <time>2015-09-22T09:23:23Z</time>
      </trkpt>
      <trkpt lat="42.34565" lon="0.15806">
        <ele>571.7</ele>
        <time>2015-09-22T09:23:24Z</time>
      </trkpt>
      <trkpt lat="42.34567" lon="0.15799">
        <ele>571.5</ele>
        <time>2015-09-22T09:23:25Z</time>
      </trkpt>
      <trkpt lat="42.34569" lon="0.15792">
        <ele>571.4</ele>
        <time>2015-09-22T09:23:26Z</time>
      </trkpt>
      <trkpt lat="42.34572" lon="0.15785">
        <ele>571.6</ele>
        <time>2015-09-22T09:23:27Z</time>
      </trkpt>
      <trkpt lat="42.34573" lon="0.15778">
        <ele>571.9</ele>
        <time>2015-09-22T09:23:28Z</time>
      </trkpt>
      <trkpt lat="42.34574" lon="0.15771">
        <ele>572.1</ele>
        <time>2015-09-22T09:23:29Z</time>
      </trkpt>
      <trkpt lat="42.34576" lon="0.15764">
        <ele>572.3</ele>
        <time>2015-09-22T09:23:30Z</time>
      </trkpt>
      <trkpt lat="42.34576" lon="0.15757">
        <ele>572.4</ele>
        <time>2015-09-22T09:23:31Z</time>
      </trkpt>
      <trkpt lat="42.34577" lon="0.1575">
        <ele>572.5</ele>
        <time>2015-09-22T09:23:32Z</time>
      </trkpt>
      <trkpt lat="42.34578" lon="0.15743">
        <ele>572.7</ele>
        <time>2015-09-22T09:23:33Z</time>
      </trkpt>
      <trkpt lat="42.34579" lon="0.15736">
        <ele>572.9</ele>
        <time>2015-09-22T09:23:34Z</time>
      </trkpt>
      <trkpt lat="42.3458" lon="0.15729">
        <ele>573</ele>
        <time>2015-09-22T09:23:35Z</time>
      </trkpt>
      <trkpt lat="42.34581" lon="0.15722">
        <ele>573.1</ele>
        <time>2015-09-22T09:23:36Z</time>
      </trkpt>
      <trkpt lat="42.34581" lon="0.15714">
        <ele>573.2</ele>
        <time>2015-09-22T09:23:37Z</time>
      </trkpt>
      <trkpt lat="42.34582" lon="0.15708">
        <ele>573.4</ele>
        <time>2015-09-22T09:23:38Z</time>
      </trkpt>
      <trkpt lat="42.34582" lon="0.15702">
        <ele>573.7</ele>
        <time>2015-09-22T09:23:39Z</time>
      </trkpt>
      <trkpt lat="42.34581" lon="0.15696">
        <ele>574.1</ele>
        <time>2015-09-22T09:23:40Z</time>
      </trkpt>
      <trkpt lat="42.34581" lon="0.1569">
        <ele>574.4</ele>
        <time>2015-09-22T09:23:41Z</time>
      </trkpt>
      <trkpt lat="42.3458" lon="0.15684">
        <ele>574.6</ele>
        <time>2015-09-22T09:23:42Z</time>
      </trkpt>
      <trkpt lat="42.3458" lon="0.15678">
        <ele>574.9</ele>
        <time>2015-09-22T09:23:43Z</time>
      </trkpt>
      <trkpt lat="42.3458" lon="0.15673">
        <ele>575.2</ele>
        <time>2015-09-22T09:23:44Z</time>
      </trkpt>
      <trkpt lat="42.34579" lon="0.15667">
        <ele>575.5</ele>
        <time>2015-09-22T09:23:45Z</time>
      </trkpt>
      <trkpt lat="42.34579" lon="0.15662">
        <ele>575.8</ele>
        <time>2015-09-22T09:23:46Z</time>
      </trkpt>
      <trkpt lat="42.34579" lon="0.15657">
        <ele>576.1</ele>
        <time>2015-09-22T09:23:47Z</time>
      </trkpt>
      <trkpt lat="42.34578" lon="0.15653">
        <ele>576.3</ele>
        <time>2015-09-22T09:23:48Z</time>
      </trkpt>
      <trkpt lat="42.34578" lon="0.15647">
        <ele>576.6</ele>
        <time>2015-09-22T09:23:49Z</time>
      </trkpt>
      <trkpt lat="42.34578" lon="0.15642">
        <ele>576.9</ele>
        <time>2015-09-22T09:23:50Z</time>
      </trkpt>
      <trkpt lat="42.34578" lon="0.15637">
        <ele>577.2</ele>
        <time>2015-09-22T09:23:51Z</time>
      </trkpt>
      <trkpt lat="42.34577" lon="0.15631">
        <ele>577.4</ele>
        <time>2015-09-22T09:23:52Z</time>
      </trkpt>
      <trkpt lat="42.34576" lon="0.15626">
        <ele>577.6</ele>
        <time>2015-09-22T09:23:53Z</time>
      </trkpt>
      <trkpt lat="42.34574" lon="0.15622">
        <ele>577.7</ele>
        <time>2015-09-22T09:23:54Z</time>
      </trkpt>
      <trkpt lat="42.34572" lon="0.15617">
        <ele>577.7</ele>
        <time>2015-09-22T09:23:55Z</time>
      </trkpt>
      <trkpt lat="42.3457" lon="0.15613">
        <ele>577.8</ele>
        <time>2015-09-22T09:23:56Z</time>
      </trkpt>
      <trkpt lat="42.34567" lon="0.1561">
        <ele>577.7</ele>
        <time>2015-09-22T09:23:57Z</time>
      </trkpt>
      <trkpt lat="42.34564" lon="0.15607">
        <ele>577.6</ele>
        <time>2015-09-22T09:23:58Z</time>
      </trkpt>
      <trkpt lat="42.34562" lon="0.15604">
        <ele>577.5</ele>
        <time>2015-09-22T09:23:59Z</time>
      </trkpt>
      <trkpt lat="42.34559" lon="0.15601">
        <ele>577.4</ele>
        <time>2015-09-22T09:24:00Z</time>
      </trkpt>
      <trkpt lat="42.34557" lon="0.15598">
        <ele>577.3</ele>
        <time>2015-09-22T09:24:01Z</time>
      </trkpt>
      <trkpt lat="42.34554" lon="0.15595">
        <ele>577.2</ele>
        <time>2015-09-22T09:24:02Z</time>
      </trkpt>
      <trkpt lat="42.34552" lon="0.15592">
        <ele>577.1</ele>
        <time>2015-09-22T09:24:03Z</time>
      </trkpt>
      <trkpt lat="42.3455" lon="0.15589">
        <ele>577.1</ele>
        <time>2015-09-22T09:24:04Z</time>
      </trkpt>
      <trkpt lat="42.34548" lon="0.15586">
        <ele>577.1</ele>
        <time>2015-09-22T09:24:05Z</time>
      </trkpt>
      <trkpt lat="42.34547" lon="0.15582">
        <ele>577.2</ele>
        <time>2015-09-22T09:24:06Z</time>
      </trkpt>
      <trkpt lat="42.34547" lon="0.15577">
        <ele>577.5</ele>
        <time>2015-09-22T09:24:07Z</time>
      </trkpt>
      <trkpt lat="42.34547" lon="0.15573">
        <ele>577.8</ele>
        <time>2015-09-22T09:24:08Z</time>
      </trkpt>
      <trkpt lat="42.34548" lon="0.15568">
        <ele>578.1</ele>
        <time>2015-09-22T09:24:09Z</time>
      </trkpt>
      <trkpt lat="42.34548" lon="0.15564">
        <ele>578.4</ele>
        <time>2015-09-22T09:24:10Z</time>
      </trkpt>
      <trkpt lat="42.34548" lon="0.15558">
        <ele>578.8</ele>
        <time>2015-09-22T09:24:12Z</time>
      </trkpt>
      <trkpt lat="42.34548" lon="0.15552">
        <ele>579.1</ele>
        <time>2015-09-22T09:24:14Z</time>
      </trkpt>
      <trkpt lat="42.34548" lon="0.15546">
        <ele>579.5</ele>
        <time>2015-09-22T09:24:16Z</time>
      </trkpt>
      <trkpt lat="42.34547" lon="0.15539">
        <ele>579.8</ele>
        <time>2015-09-22T09:24:18Z</time>
      </trkpt>
      <trkpt lat="42.34547" lon="0.15535">
        <ele>580</ele>
        <time>2015-09-22T09:24:19Z</time>
      </trkpt>
      <trkpt lat="42.34547" lon="0.15527">
        <ele>580.2</ele>
        <time>2015-09-22T09:24:21Z</time>
      </trkpt>
      <trkpt lat="42.34546" lon="0.1552">
        <ele>580.5</ele>
        <time>2015-09-22T09:24:23Z</time>
      </trkpt>
      <trkpt lat="42.34545" lon="0.15513">
        <ele>580.7</ele>
        <time>2015-09-22T09:24:25Z</time>
      </trkpt>
      <trkpt lat="42.34543" lon="0.15507">
        <ele>580.8</ele>
        <time>2015-09-22T09:24:27Z</time>
      </trkpt>
      <trkpt lat="42.34541" lon="0.155">
        <ele>580.9</ele>
        <time>2015-09-22T09:24:29Z</time>
      </trkpt>
      <trkpt lat="42.34538" lon="0.15494">
        <ele>581</ele>
        <time>2015-09-22T09:24:31Z</time>
      </trkpt>
      <trkpt lat="42.34536" lon="0.1549">
        <ele>581</ele>
        <time>2015-09-22T09:24:33Z</time>
      </trkpt>
      <trkpt lat="42.34536" lon="0.15485">
        <ele>581.2</ele>
        <time>2015-09-22T09:24:35Z</time>
      </trkpt>
      <trkpt lat="42.34536" lon="0.15479">
        <ele>581.5</ele>
        <time>2015-09-22T09:24:37Z</time>
      </trkpt>
      <trkpt lat="42.34535" lon="0.15473">
        <ele>581.7</ele>
        <time>2015-09-22T09:24:39Z</time>
      </trkpt>
      <trkpt lat="42.34536" lon="0.15467">
        <ele>582</ele>
        <time>2015-09-22T09:24:41Z</time>
      </trkpt>
      <trkpt lat="42.34535" lon="0.15461">
        <ele>582.3</ele>
        <time>2015-09-22T09:24:43Z</time>
      </trkpt>
      <trkpt lat="42.34534" lon="0.15455">
        <ele>582.5</ele>
        <time>2015-09-22T09:24:45Z</time>
      </trkpt>
      <trkpt lat="42.34533" lon="0.15449">
        <ele>582.7</ele>
        <time>2015-09-22T09:24:47Z</time>
      </trkpt>
      <trkpt lat="42.34532" lon="0.15443">
        <ele>582.9</ele>
        <time>2015-09-22T09:24:49Z</time>
      </trkpt>
      <trkpt lat="42.34531" lon="0.15438">
        <ele>583</ele>
        <time>2015-09-22T09:24:51Z</time>
      </trkpt>
      <trkpt lat="42.3453" lon="0.15431">
        <ele>583.3</ele>
        <time>2015-09-22T09:24:53Z</time>
      </trkpt>
      <trkpt lat="42.34529" lon="0.15424">
        <ele>583.6</ele>
        <time>2015-09-22T09:24:55Z</time>
      </trkpt>
      <trkpt lat="42.34529" lon="0.15417">
        <ele>583.9</ele>
        <time>2015-09-22T09:24:57Z</time>
      </trkpt>
      <trkpt lat="42.34528" lon="0.1541">
        <ele>584.2</ele>
        <time>2015-09-22T09:24:59Z</time>
      </trkpt>
      <trkpt lat="42.34527" lon="0.15404">
        <ele>584.4</ele>
        <time>2015-09-22T09:25:01Z</time>
      </trkpt>
      <trkpt lat="42.34526" lon="0.15398">
        <ele>584.6</ele>
        <time>2015-09-22T09:25:03Z</time>
      </trkpt>
      <trkpt lat="42.34524" lon="0.15391">
        <ele>584.7</ele>
        <time>2015-09-22T09:25:05Z</time>
      </trkpt>
      <trkpt lat="42.34523" lon="0.15385">
        <ele>584.8</ele>
        <time>2015-09-22T09:25:07Z</time>
      </trkpt>
      <trkpt lat="42.34521" lon="0.15379">
        <ele>584.8</ele>
        <time>2015-09-22T09:25:09Z</time>
      </trkpt>
      <trkpt lat="42.3452" lon="0.15373">
        <ele>585</ele>
        <time>2015-09-22T09:25:11Z</time>
      </trkpt>
      <trkpt lat="42.34518" lon="0.15367">
        <ele>585.2</ele>
        <time>2015-09-22T09:25:13Z</time>
      </trkpt>
      <trkpt lat="42.34517" lon="0.15361">
        <ele>585.4</ele>
        <time>2015-09-22T09:25:15Z</time>
      </trkpt>
      <trkpt lat="42.34515" lon="0.15355">
        <ele>585.6</ele>
        <time>2015-09-22T09:25:17Z</time>
      </trkpt>
      <trkpt lat="42.34514" lon="0.15349">
        <ele>585.8</ele>
        <time>2015-09-22T09:25:19Z</time>
      </trkpt>
      <trkpt lat="42.34513" lon="0.15342">
        <ele>586.2</ele>
        <time>2015-09-22T09:25:21Z</time>
      </trkpt>
      <trkpt lat="42.34512" lon="0.15335">
        <ele>586.6</ele>
        <time>2015-09-22T09:25:23Z</time>
      </trkpt>
      <trkpt lat="42.34511" lon="0.15329">
        <ele>586.8</ele>
        <time>2015-09-22T09:25:25Z</time>
      </trkpt>
      <trkpt lat="42.3451" lon="0.15322">
        <ele>587</ele>
        <time>2015-09-22T09:25:27Z</time>
      </trkpt>
      <trkpt lat="42.34509" lon="0.15316">
        <ele>587.2</ele>
        <time>2015-09-22T09:25:29Z</time>
      </trkpt>
      <trkpt lat="42.34507" lon="0.1531">
        <ele>587.4</ele>
        <time>2015-09-22T09:25:31Z</time>
      </trkpt>
      <trkpt lat="42.34506" lon="0.15303">
        <ele>587.5</ele>
        <time>2015-09-22T09:25:33Z</time>
      </trkpt>
      <trkpt lat="42.34505" lon="0.15297">
        <ele>587.7</ele>
        <time>2015-09-22T09:25:35Z</time>
      </trkpt>
      <trkpt lat="42.34503" lon="0.15292">
        <ele>587.7</ele>
        <time>2015-09-22T09:25:37Z</time>
      </trkpt>
      <trkpt lat="42.34502" lon="0.15287">
        <ele>587.4</ele>
        <time>2015-09-22T09:25:39Z</time>
      </trkpt>
      <trkpt lat="42.345" lon="0.15281">
        <ele>587.2</ele>
        <time>2015-09-22T09:25:41Z</time>
      </trkpt>
      <trkpt lat="42.345" lon="0.15275">
        <ele>587.4</ele>
        <time>2015-09-22T09:25:43Z</time>
      </trkpt>
      <trkpt lat="42.34501" lon="0.15269">
        <ele>587.8</ele>
        <time>2015-09-22T09:25:45Z</time>
      </trkpt>
      <trkpt lat="42.34503" lon="0.15262">
        <ele>588.2</ele>
        <time>2015-09-22T09:25:47Z</time>
      </trkpt>
      <trkpt lat="42.34505" lon="0.15255">
        <ele>588.8</ele>
        <time>2015-09-22T09:25:49Z</time>
      </trkpt>
      <trkpt lat="42.34506" lon="0.15252">
        <ele>589.2</ele>
        <time>2015-09-22T09:25:50Z</time>
      </trkpt>
      <trkpt lat="42.34506" lon="0.15248">
        <ele>589.4</ele>
        <time>2015-09-22T09:25:51Z</time>
      </trkpt>
      <trkpt lat="42.34507" lon="0.15244">
        <ele>589.6</ele>
        <time>2015-09-22T09:25:52Z</time>
      </trkpt>
      <trkpt lat="42.34507" lon="0.1524">
        <ele>589.7</ele>
        <time>2015-09-22T09:25:53Z</time>
      </trkpt>
      <trkpt lat="42.34507" lon="0.15237">
        <ele>589.8</ele>
        <time>2015-09-22T09:25:54Z</time>
      </trkpt>
      <trkpt lat="42.34507" lon="0.15233">
        <ele>590</ele>
        <time>2015-09-22T09:25:55Z</time>
      </trkpt>
      <trkpt lat="42.34507" lon="0.15226">
        <ele>590.2</ele>
        <time>2015-09-22T09:25:57Z</time>
      </trkpt>
      <trkpt lat="42.34508" lon="0.15221">
        <ele>590.5</ele>
        <time>2015-09-22T09:25:59Z</time>
      </trkpt>
      <trkpt lat="42.34511" lon="0.1522">
        <ele>591.1</ele>
        <time>2015-09-22T09:26:07Z</time>
      </trkpt>
      <trkpt lat="42.34508" lon="0.15219">
        <ele>590.4</ele>
        <time>2015-09-22T09:27:34Z</time>
      </trkpt>
      <trkpt lat="42.34506" lon="0.15215">
        <ele>590.2</ele>
        <time>2015-09-22T09:27:40Z</time>
      </trkpt>
      <trkpt lat="42.34506" lon="0.15208">
        <ele>590.2</ele>
        <time>2015-09-22T09:27:42Z</time>
      </trkpt>
      <trkpt lat="42.34506" lon="0.15203">
        <ele>590.7</ele>
        <time>2015-09-22T09:27:43Z</time>
      </trkpt>
      <trkpt lat="42.34506" lon="0.15199">
        <ele>591.3</ele>
        <time>2015-09-22T09:27:44Z</time>
      </trkpt>
      <trkpt lat="42.34507" lon="0.15195">
        <ele>591.8</ele>
        <time>2015-09-22T09:27:45Z</time>
      </trkpt>
      <trkpt lat="42.34507" lon="0.1519">
        <ele>592.2</ele>
        <time>2015-09-22T09:27:46Z</time>
      </trkpt>
      <trkpt lat="42.34506" lon="0.15185">
        <ele>592.6</ele>
        <time>2015-09-22T09:27:47Z</time>
      </trkpt>
      <trkpt lat="42.34506" lon="0.1518">
        <ele>592.9</ele>
        <time>2015-09-22T09:27:48Z</time>
      </trkpt>
      <trkpt lat="42.34505" lon="0.15174">
        <ele>593.3</ele>
        <time>2015-09-22T09:27:49Z</time>
      </trkpt>
      <trkpt lat="42.34505" lon="0.15169">
        <ele>593.7</ele>
        <time>2015-09-22T09:27:50Z</time>
      </trkpt>
      <trkpt lat="42.34504" lon="0.15164">
        <ele>594.1</ele>
        <time>2015-09-22T09:27:51Z</time>
      </trkpt>
      <trkpt lat="42.34503" lon="0.15159">
        <ele>594.4</ele>
        <time>2015-09-22T09:27:52Z</time>
      </trkpt>
      <trkpt lat="42.34502" lon="0.15154">
        <ele>594.6</ele>
        <time>2015-09-22T09:27:53Z</time>
      </trkpt>
      <trkpt lat="42.345" lon="0.15149">
        <ele>594.7</ele>
        <time>2015-09-22T09:27:54Z</time>
      </trkpt>
      <trkpt lat="42.34499" lon="0.15144">
        <ele>594.9</ele>
        <time>2015-09-22T09:27:55Z</time>
      </trkpt>
      <trkpt lat="42.34497" lon="0.1514">
        <ele>595.1</ele>
        <time>2015-09-22T09:27:56Z</time>
      </trkpt>
      <trkpt lat="42.34496" lon="0.15135">
        <ele>595.2</ele>
        <time>2015-09-22T09:27:57Z</time>
      </trkpt>
      <trkpt lat="42.34495" lon="0.1513">
        <ele>595.4</ele>
        <time>2015-09-22T09:27:58Z</time>
      </trkpt>
      <trkpt lat="42.34493" lon="0.15126">
        <ele>595.7</ele>
        <time>2015-09-22T09:27:59Z</time>
      </trkpt>
      <trkpt lat="42.34492" lon="0.15121">
        <ele>595.8</ele>
        <time>2015-09-22T09:28:00Z</time>
      </trkpt>
      <trkpt lat="42.34492" lon="0.15117">
        <ele>596</ele>
        <time>2015-09-22T09:28:01Z</time>
      </trkpt>
      <trkpt lat="42.34491" lon="0.15112">
        <ele>596.1</ele>
        <time>2015-09-22T09:28:02Z</time>
      </trkpt>
      <trkpt lat="42.3449" lon="0.15109">
        <ele>596.2</ele>
        <time>2015-09-22T09:28:03Z</time>
      </trkpt>
      <trkpt lat="42.34489" lon="0.15105">
        <ele>596.3</ele>
        <time>2015-09-22T09:28:04Z</time>
      </trkpt>
      <trkpt lat="42.34488" lon="0.15101">
        <ele>596.4</ele>
        <time>2015-09-22T09:28:05Z</time>
      </trkpt>
      <trkpt lat="42.34487" lon="0.15098">
        <ele>596.4</ele>
        <time>2015-09-22T09:28:06Z</time>
      </trkpt>
      <trkpt lat="42.34486" lon="0.15094">
        <ele>596.5</ele>
        <time>2015-09-22T09:28:07Z</time>
      </trkpt>
      <trkpt lat="42.34485" lon="0.1509">
        <ele>596.6</ele>
        <time>2015-09-22T09:28:08Z</time>
      </trkpt>
      <trkpt lat="42.34484" lon="0.15087">
        <ele>596.7</ele>
        <time>2015-09-22T09:28:09Z</time>
      </trkpt>
      <trkpt lat="42.34483" lon="0.15081">
        <ele>597</ele>
        <time>2015-09-22T09:28:11Z</time>
      </trkpt>
      <trkpt lat="42.34483" lon="0.15075">
        <ele>597.4</ele>
        <time>2015-09-22T09:28:13Z</time>
      </trkpt>
      <trkpt lat="42.34485" lon="0.15069">
        <ele>598.1</ele>
        <time>2015-09-22T09:28:15Z</time>
      </trkpt>
      <trkpt lat="42.34488" lon="0.15064">
        <ele>599.1</ele>
        <time>2015-09-22T09:28:17Z</time>
      </trkpt>
      <trkpt lat="42.34493" lon="0.1506">
        <ele>600.1</ele>
        <time>2015-09-22T09:28:19Z</time>
      </trkpt>
      <trkpt lat="42.34497" lon="0.15055">
        <ele>601.1</ele>
        <time>2015-09-22T09:28:21Z</time>
      </trkpt>
      <trkpt lat="42.34499" lon="0.15053">
        <ele>601.6</ele>
        <time>2015-09-22T09:28:22Z</time>
      </trkpt>
      <trkpt lat="42.34501" lon="0.15051">
        <ele>602.1</ele>
        <time>2015-09-22T09:28:23Z</time>
      </trkpt>
      <trkpt lat="42.34504" lon="0.15048">
        <ele>602.7</ele>
        <time>2015-09-22T09:28:24Z</time>
      </trkpt>
      <trkpt lat="42.34507" lon="0.15045">
        <ele>603.3</ele>
        <time>2015-09-22T09:28:25Z</time>
      </trkpt>
      <trkpt lat="42.3451" lon="0.15043">
        <ele>603.9</ele>
        <time>2015-09-22T09:28:26Z</time>
      </trkpt>
      <trkpt lat="42.34513" lon="0.1504">
        <ele>604.5</ele>
        <time>2015-09-22T09:28:27Z</time>
      </trkpt>
      <trkpt lat="42.34515" lon="0.15036">
        <ele>604.9</ele>
        <time>2015-09-22T09:28:28Z</time>
      </trkpt>
      <trkpt lat="42.34518" lon="0.15033">
        <ele>605.3</ele>
        <time>2015-09-22T09:28:29Z</time>
      </trkpt>
      <trkpt lat="42.34521" lon="0.1503">
        <ele>605.8</ele>
        <time>2015-09-22T09:28:30Z</time>
      </trkpt>
      <trkpt lat="42.34524" lon="0.15026">
        <ele>606.3</ele>
        <time>2015-09-22T09:28:31Z</time>
      </trkpt>
      <trkpt lat="42.34528" lon="0.15023">
        <ele>606.7</ele>
        <time>2015-09-22T09:28:32Z</time>
      </trkpt>
      <trkpt lat="42.34531" lon="0.15019">
        <ele>607.2</ele>
        <time>2015-09-22T09:28:33Z</time>
      </trkpt>
      <trkpt lat="42.34534" lon="0.15016">
        <ele>607.7</ele>
        <time>2015-09-22T09:28:34Z</time>
      </trkpt>
      <trkpt lat="42.34538" lon="0.15013">
        <ele>608.1</ele>
        <time>2015-09-22T09:28:35Z</time>
      </trkpt>
      <trkpt lat="42.34541" lon="0.1501">
        <ele>608.6</ele>
        <time>2015-09-22T09:28:36Z</time>
      </trkpt>
      <trkpt lat="42.34545" lon="0.15007">
        <ele>608.7</ele>
        <time>2015-09-22T09:28:37Z</time>
      </trkpt>
      <trkpt lat="42.34548" lon="0.15003">
        <ele>608.7</ele>
        <time>2015-09-22T09:28:38Z</time>
      </trkpt>
      <trkpt lat="42.34552" lon="0.15">
        <ele>608.8</ele>
        <time>2015-09-22T09:28:39Z</time>
      </trkpt>
      <trkpt lat="42.34555" lon="0.14997">
        <ele>608.9</ele>
        <time>2015-09-22T09:28:40Z</time>
      </trkpt>
      <trkpt lat="42.34558" lon="0.14993">
        <ele>609</ele>
        <time>2015-09-22T09:28:41Z</time>
      </trkpt>
      <trkpt lat="42.34561" lon="0.14991">
        <ele>609.1</ele>
        <time>2015-09-22T09:28:42Z</time>
      </trkpt>
      <trkpt lat="42.34564" lon="0.14988">
        <ele>609.2</ele>
        <time>2015-09-22T09:28:43Z</time>
      </trkpt>
      <trkpt lat="42.34566" lon="0.14984">
        <ele>609.3</ele>
        <time>2015-09-22T09:28:44Z</time>
      </trkpt>
      <trkpt lat="42.34567" lon="0.1498">
        <ele>609.4</ele>
        <time>2015-09-22T09:28:45Z</time>
      </trkpt>
      <trkpt lat="42.34568" lon="0.14976">
        <ele>609.5</ele>
        <time>2015-09-22T09:28:46Z</time>
      </trkpt>
      <trkpt lat="42.34568" lon="0.14971">
        <ele>609.5</ele>
        <time>2015-09-22T09:28:47Z</time>
      </trkpt>
      <trkpt lat="42.34567" lon="0.14967">
        <ele>609.4</ele>
        <time>2015-09-22T09:28:48Z</time>
      </trkpt>
      <trkpt lat="42.34565" lon="0.14963">
        <ele>609.4</ele>
        <time>2015-09-22T09:28:49Z</time>
      </trkpt>
      <trkpt lat="42.34563" lon="0.14959">
        <ele>609.3</ele>
        <time>2015-09-22T09:28:50Z</time>
      </trkpt>
      <trkpt lat="42.34561" lon="0.14956">
        <ele>609.3</ele>
        <time>2015-09-22T09:28:51Z</time>
      </trkpt>
      <trkpt lat="42.34559" lon="0.14952">
        <ele>609.3</ele>
        <time>2015-09-22T09:28:52Z</time>
      </trkpt>
      <trkpt lat="42.34557" lon="0.14949">
        <ele>609.4</ele>
        <time>2015-09-22T09:28:53Z</time>
      </trkpt>
      <trkpt lat="42.34554" lon="0.14946">
        <ele>609.4</ele>
        <time>2015-09-22T09:28:54Z</time>
      </trkpt>
      <trkpt lat="42.34552" lon="0.14943">
        <ele>609.4</ele>
        <time>2015-09-22T09:28:55Z</time>
      </trkpt>
      <trkpt lat="42.3455" lon="0.14941">
        <ele>609.4</ele>
        <time>2015-09-22T09:28:56Z</time>
      </trkpt>
      <trkpt lat="42.34548" lon="0.14938">
        <ele>609.4</ele>
        <time>2015-09-22T09:28:57Z</time>
      </trkpt>
      <trkpt lat="42.34546" lon="0.14934">
        <ele>609.4</ele>
        <time>2015-09-22T09:28:58Z</time>
      </trkpt>
      <trkpt lat="42.34545" lon="0.1493">
        <ele>609.6</ele>
        <time>2015-09-22T09:28:59Z</time>
      </trkpt>
      <trkpt lat="42.34545" lon="0.14926">
        <ele>609.8</ele>
        <time>2015-09-22T09:29:00Z</time>
      </trkpt>
      <trkpt lat="42.34547" lon="0.14922">
        <ele>610.1</ele>
        <time>2015-09-22T09:29:01Z</time>
      </trkpt>
      <trkpt lat="42.3455" lon="0.14919">
        <ele>610.4</ele>
        <time>2015-09-22T09:29:02Z</time>
      </trkpt>
      <trkpt lat="42.34552" lon="0.14916">
        <ele>610.8</ele>
        <time>2015-09-22T09:29:03Z</time>
      </trkpt>
      <trkpt lat="42.34554" lon="0.14913">
        <ele>611.1</ele>
        <time>2015-09-22T09:29:04Z</time>
      </trkpt>
      <trkpt lat="42.34556" lon="0.14909">
        <ele>611.4</ele>
        <time>2015-09-22T09:29:05Z</time>
      </trkpt>
      <trkpt lat="42.34557" lon="0.14905">
        <ele>611.7</ele>
        <time>2015-09-22T09:29:06Z</time>
      </trkpt>
      <trkpt lat="42.34557" lon="0.14901">
        <ele>611.9</ele>
        <time>2015-09-22T09:29:07Z</time>
      </trkpt>
      <trkpt lat="42.34556" lon="0.14897">
        <ele>612</ele>
        <time>2015-09-22T09:29:08Z</time>
      </trkpt>
      <trkpt lat="42.34555" lon="0.14893">
        <ele>612.2</ele>
        <time>2015-09-22T09:29:09Z</time>
      </trkpt>
      <trkpt lat="42.34554" lon="0.14889">
        <ele>612.3</ele>
        <time>2015-09-22T09:29:10Z</time>
      </trkpt>
      <trkpt lat="42.34553" lon="0.14885">
        <ele>612.4</ele>
        <time>2015-09-22T09:29:11Z</time>
      </trkpt>
      <trkpt lat="42.34552" lon="0.14881">
        <ele>612.6</ele>
        <time>2015-09-22T09:29:12Z</time>
      </trkpt>
      <trkpt lat="42.34552" lon="0.14877">
        <ele>612.8</ele>
        <time>2015-09-22T09:29:13Z</time>
      </trkpt>
      <trkpt lat="42.34551" lon="0.14872">
        <ele>613.1</ele>
        <time>2015-09-22T09:29:14Z</time>
      </trkpt>
      <trkpt lat="42.34551" lon="0.14868">
        <ele>613.6</ele>
        <time>2015-09-22T09:29:15Z</time>
      </trkpt>
      <trkpt lat="42.34551" lon="0.14863">
        <ele>614</ele>
        <time>2015-09-22T09:29:16Z</time>
      </trkpt>
      <trkpt lat="42.34548" lon="0.14857">
        <ele>614.4</ele>
        <time>2015-09-22T09:29:17Z</time>
      </trkpt>
      <trkpt lat="42.34543" lon="0.14852">
        <ele>614.7</ele>
        <time>2015-09-22T09:29:18Z</time>
      </trkpt>
      <trkpt lat="42.34541" lon="0.14849">
        <ele>614.7</ele>
        <time>2015-09-22T09:29:19Z</time>
      </trkpt>
      <trkpt lat="42.34537" lon="0.14844">
        <ele>614.8</ele>
        <time>2015-09-22T09:29:21Z</time>
      </trkpt>
      <trkpt lat="42.34536" lon="0.14839">
        <ele>615.3</ele>
        <time>2015-09-22T09:29:23Z</time>
      </trkpt>
      <trkpt lat="42.34536" lon="0.14835">
        <ele>615.7</ele>
        <time>2015-09-22T09:29:25Z</time>
      </trkpt>
      <trkpt lat="42.34535" lon="0.14831">
        <ele>616</ele>
        <time>2015-09-22T09:29:27Z</time>
      </trkpt>
      <trkpt lat="42.34535" lon="0.14827">
        <ele>616.5</ele>
        <time>2015-09-22T09:29:29Z</time>
      </trkpt>
      <trkpt lat="42.34536" lon="0.14823">
        <ele>617</ele>
        <time>2015-09-22T09:29:31Z</time>
      </trkpt>
      <trkpt lat="42.34536" lon="0.14818">
        <ele>617.6</ele>
        <time>2015-09-22T09:29:33Z</time>
      </trkpt>
      <trkpt lat="42.34536" lon="0.14813">
        <ele>618.2</ele>
        <time>2015-09-22T09:29:35Z</time>
      </trkpt>
      <trkpt lat="42.34535" lon="0.14808">
        <ele>618.6</ele>
        <time>2015-09-22T09:29:37Z</time>
      </trkpt>
      <trkpt lat="42.34534" lon="0.14803">
        <ele>619</ele>
        <time>2015-09-22T09:29:39Z</time>
      </trkpt>
      <trkpt lat="42.34533" lon="0.14798">
        <ele>619.5</ele>
        <time>2015-09-22T09:29:41Z</time>
      </trkpt>
      <trkpt lat="42.34533" lon="0.14793">
        <ele>620</ele>
        <time>2015-09-22T09:29:43Z</time>
      </trkpt>
      <trkpt lat="42.34532" lon="0.14789">
        <ele>620.6</ele>
        <time>2015-09-22T09:29:45Z</time>
      </trkpt>
      <trkpt lat="42.34532" lon="0.14784">
        <ele>621.3</ele>
        <time>2015-09-22T09:29:47Z</time>
      </trkpt>
      <trkpt lat="42.3453" lon="0.1478">
        <ele>621.9</ele>
        <time>2015-09-22T09:29:49Z</time>
      </trkpt>
      <trkpt lat="42.3453" lon="0.14775">
        <ele>622.6</ele>
        <time>2015-09-22T09:29:51Z</time>
      </trkpt>
      <trkpt lat="42.3453" lon="0.1477">
        <ele>623.5</ele>
        <time>2015-09-22T09:29:53Z</time>
      </trkpt>
      <trkpt lat="42.3453" lon="0.14765">
        <ele>624.3</ele>
        <time>2015-09-22T09:29:55Z</time>
      </trkpt>
      <trkpt lat="42.34529" lon="0.1476">
        <ele>625.1</ele>
        <time>2015-09-22T09:29:57Z</time>
      </trkpt>
      <trkpt lat="42.3453" lon="0.14754">
        <ele>625.9</ele>
        <time>2015-09-22T09:29:59Z</time>
      </trkpt>
      <trkpt lat="42.34529" lon="0.14749">
        <ele>626.7</ele>
        <time>2015-09-22T09:30:01Z</time>
      </trkpt>
      <trkpt lat="42.34529" lon="0.14745">
        <ele>627.4</ele>
        <time>2015-09-22T09:30:03Z</time>
      </trkpt>
      <trkpt lat="42.34528" lon="0.1474">
        <ele>628.1</ele>
        <time>2015-09-22T09:30:05Z</time>
      </trkpt>
      <trkpt lat="42.34528" lon="0.14735">
        <ele>628.9</ele>
        <time>2015-09-22T09:30:07Z</time>
      </trkpt>
      <trkpt lat="42.34529" lon="0.14731">
        <ele>629.7</ele>
        <time>2015-09-22T09:30:09Z</time>
      </trkpt>
      <trkpt lat="42.34529" lon="0.14726">
        <ele>630.5</ele>
        <time>2015-09-22T09:30:11Z</time>
      </trkpt>
      <trkpt lat="42.34529" lon="0.14721">
        <ele>631.2</ele>
        <time>2015-09-22T09:30:13Z</time>
      </trkpt>
      <trkpt lat="42.34528" lon="0.14717">
        <ele>631.8</ele>
        <time>2015-09-22T09:30:15Z</time>
      </trkpt>
      <trkpt lat="42.34527" lon="0.14712">
        <ele>632.4</ele>
        <time>2015-09-22T09:30:17Z</time>
      </trkpt>
      <trkpt lat="42.34526" lon="0.14708">
        <ele>632.9</ele>
        <time>2015-09-22T09:30:19Z</time>
      </trkpt>
      <trkpt lat="42.34524" lon="0.14703">
        <ele>633.2</ele>
        <time>2015-09-22T09:30:21Z</time>
      </trkpt>
      <trkpt lat="42.34522" lon="0.14699">
        <ele>633.4</ele>
        <time>2015-09-22T09:30:23Z</time>
      </trkpt>
      <trkpt lat="42.34521" lon="0.14695">
        <ele>633.7</ele>
        <time>2015-09-22T09:30:25Z</time>
      </trkpt>
      <trkpt lat="42.3452" lon="0.1469">
        <ele>634.1</ele>
        <time>2015-09-22T09:30:27Z</time>
      </trkpt>
      <trkpt lat="42.34519" lon="0.14685">
        <ele>634.5</ele>
        <time>2015-09-22T09:30:29Z</time>
      </trkpt>
      <trkpt lat="42.34518" lon="0.14681">
        <ele>634.8</ele>
        <time>2015-09-22T09:30:31Z</time>
      </trkpt>
      <trkpt lat="42.34517" lon="0.14676">
        <ele>635.3</ele>
        <time>2015-09-22T09:30:33Z</time>
      </trkpt>
      <trkpt lat="42.34517" lon="0.14671">
        <ele>635.7</ele>
        <time>2015-09-22T09:30:35Z</time>
      </trkpt>
      <trkpt lat="42.34516" lon="0.14667">
        <ele>636.1</ele>
        <time>2015-09-22T09:30:37Z</time>
      </trkpt>
      <trkpt lat="42.34516" lon="0.14663">
        <ele>636.6</ele>
        <time>2015-09-22T09:30:39Z</time>
      </trkpt>
      <trkpt lat="42.34516" lon="0.14657">
        <ele>637.1</ele>
        <time>2015-09-22T09:30:42Z</time>
      </trkpt>
      <trkpt lat="42.34515" lon="0.14652">
        <ele>637.6</ele>
        <time>2015-09-22T09:30:45Z</time>
      </trkpt>
      <trkpt lat="42.34514" lon="0.14648">
        <ele>637.9</ele>
        <time>2015-09-22T09:30:47Z</time>
      </trkpt>
      <trkpt lat="42.34514" lon="0.14644">
        <ele>638.3</ele>
        <time>2015-09-22T09:30:49Z</time>
      </trkpt>
      <trkpt lat="42.34513" lon="0.1464">
        <ele>638.6</ele>
        <time>2015-09-22T09:30:51Z</time>
      </trkpt>
      <trkpt lat="42.34514" lon="0.14636">
        <ele>639.1</ele>
        <time>2015-09-22T09:30:53Z</time>
      </trkpt>
      <trkpt lat="42.34514" lon="0.14631">
        <ele>639.7</ele>
        <time>2015-09-22T09:30:55Z</time>
      </trkpt>
      <trkpt lat="42.34513" lon="0.14627">
        <ele>640</ele>
        <time>2015-09-22T09:30:57Z</time>
      </trkpt>
      <trkpt lat="42.34513" lon="0.14623">
        <ele>640.4</ele>
        <time>2015-09-22T09:30:59Z</time>
      </trkpt>
      <trkpt lat="42.34512" lon="0.14619">
        <ele>640.6</ele>
        <time>2015-09-22T09:31:01Z</time>
      </trkpt>
      <trkpt lat="42.34511" lon="0.14616">
        <ele>640.9</ele>
        <time>2015-09-22T09:31:03Z</time>
      </trkpt>
      <trkpt lat="42.3451" lon="0.14612">
        <ele>641</ele>
        <time>2015-09-22T09:31:05Z</time>
      </trkpt>
      <trkpt lat="42.34508" lon="0.14609">
        <ele>641.2</ele>
        <time>2015-09-22T09:31:07Z</time>
      </trkpt>
      <trkpt lat="42.34507" lon="0.14605">
        <ele>641.3</ele>
        <time>2015-09-22T09:31:09Z</time>
      </trkpt>
      <trkpt lat="42.34505" lon="0.14602">
        <ele>641.4</ele>
        <time>2015-09-22T09:31:11Z</time>
      </trkpt>
      <trkpt lat="42.34504" lon="0.14598">
        <ele>641.7</ele>
        <time>2015-09-22T09:31:13Z</time>
      </trkpt>
      <trkpt lat="42.34503" lon="0.14594">
        <ele>641.9</ele>
        <time>2015-09-22T09:31:15Z</time>
      </trkpt>
      <trkpt lat="42.34502" lon="0.1459">
        <ele>642.1</ele>
        <time>2015-09-22T09:31:17Z</time>
      </trkpt>
      <trkpt lat="42.34501" lon="0.14586">
        <ele>642.3</ele>
        <time>2015-09-22T09:31:19Z</time>
      </trkpt>
      <trkpt lat="42.34499" lon="0.14582">
        <ele>642.6</ele>
        <time>2015-09-22T09:31:21Z</time>
      </trkpt>
      <trkpt lat="42.34498" lon="0.14577">
        <ele>642.9</ele>
        <time>2015-09-22T09:31:23Z</time>
      </trkpt>
      <trkpt lat="42.34498" lon="0.14572">
        <ele>643.3</ele>
        <time>2015-09-22T09:31:25Z</time>
      </trkpt>
      <trkpt lat="42.345" lon="0.14567">
        <ele>644</ele>
        <time>2015-09-22T09:31:27Z</time>
      </trkpt>
      <trkpt lat="42.34503" lon="0.14561">
        <ele>645</ele>
        <time>2015-09-22T09:31:29Z</time>
      </trkpt>
      <trkpt lat="42.34506" lon="0.14557">
        <ele>645.9</ele>
        <time>2015-09-22T09:31:31Z</time>
      </trkpt>
      <trkpt lat="42.34508" lon="0.14552">
        <ele>646.7</ele>
        <time>2015-09-22T09:31:33Z</time>
      </trkpt>
      <trkpt lat="42.3451" lon="0.14547">
        <ele>647.3</ele>
        <time>2015-09-22T09:31:35Z</time>
      </trkpt>
      <trkpt lat="42.34511" lon="0.14542">
        <ele>647.9</ele>
        <time>2015-09-22T09:31:37Z</time>
      </trkpt>
      <trkpt lat="42.34512" lon="0.14537">
        <ele>648.6</ele>
        <time>2015-09-22T09:31:39Z</time>
      </trkpt>
      <trkpt lat="42.34513" lon="0.14533">
        <ele>649.4</ele>
        <time>2015-09-22T09:31:41Z</time>
      </trkpt>
      <trkpt lat="42.34514" lon="0.14528">
        <ele>650.2</ele>
        <time>2015-09-22T09:31:43Z</time>
      </trkpt>
      <trkpt lat="42.34514" lon="0.14523">
        <ele>650.8</ele>
        <time>2015-09-22T09:31:45Z</time>
      </trkpt>
      <trkpt lat="42.34514" lon="0.14519">
        <ele>651.3</ele>
        <time>2015-09-22T09:31:47Z</time>
      </trkpt>
      <trkpt lat="42.34514" lon="0.14515">
        <ele>651.9</ele>
        <time>2015-09-22T09:31:49Z</time>
      </trkpt>
      <trkpt lat="42.34514" lon="0.1451">
        <ele>652.5</ele>
        <time>2015-09-22T09:31:51Z</time>
      </trkpt>
      <trkpt lat="42.34513" lon="0.14506">
        <ele>653</ele>
        <time>2015-09-22T09:31:53Z</time>
      </trkpt>
      <trkpt lat="42.34512" lon="0.14502">
        <ele>653.3</ele>
        <time>2015-09-22T09:31:55Z</time>
      </trkpt>
      <trkpt lat="42.34512" lon="0.14497">
        <ele>654</ele>
        <time>2015-09-22T09:31:58Z</time>
      </trkpt>
      <trkpt lat="42.34513" lon="0.14493">
        <ele>654.5</ele>
        <time>2015-09-22T09:32:00Z</time>
      </trkpt>
      <trkpt lat="42.34512" lon="0.14488">
        <ele>655.1</ele>
        <time>2015-09-22T09:32:03Z</time>
      </trkpt>
      <trkpt lat="42.34512" lon="0.14484">
        <ele>655.7</ele>
        <time>2015-09-22T09:32:05Z</time>
      </trkpt>
      <trkpt lat="42.34512" lon="0.14479">
        <ele>656.3</ele>
        <time>2015-09-22T09:32:08Z</time>
      </trkpt>
      <trkpt lat="42.3451" lon="0.14475">
        <ele>656.7</ele>
        <time>2015-09-22T09:32:11Z</time>
      </trkpt>
      <trkpt lat="42.34509" lon="0.14471">
        <ele>657</ele>
        <time>2015-09-22T09:32:13Z</time>
      </trkpt>
      <trkpt lat="42.34508" lon="0.14468">
        <ele>657.2</ele>
        <time>2015-09-22T09:32:15Z</time>
      </trkpt>
      <trkpt lat="42.34507" lon="0.14464">
        <ele>657.6</ele>
        <time>2015-09-22T09:32:17Z</time>
      </trkpt>
      <trkpt lat="42.34505" lon="0.1446">
        <ele>657.9</ele>
        <time>2015-09-22T09:32:20Z</time>
      </trkpt>
      <trkpt lat="42.34501" lon="0.14458">
        <ele>657.7</ele>
        <time>2015-09-22T09:32:23Z</time>
      </trkpt>
      <trkpt lat="42.34497" lon="0.14456">
        <ele>657.7</ele>
        <time>2015-09-22T09:32:26Z</time>
      </trkpt>
      <trkpt lat="42.34495" lon="0.14454">
        <ele>657.9</ele>
        <time>2015-09-22T09:32:28Z</time>
      </trkpt>
      <trkpt lat="42.34493" lon="0.14452">
        <ele>658.1</ele>
        <time>2015-09-22T09:32:30Z</time>
      </trkpt>
      <trkpt lat="42.34491" lon="0.14449">
        <ele>658.7</ele>
        <time>2015-09-22T09:32:32Z</time>
      </trkpt>
      <trkpt lat="42.34489" lon="0.14445">
        <ele>659.5</ele>
        <time>2015-09-22T09:32:34Z</time>
      </trkpt>
      <trkpt lat="42.34489" lon="0.14438">
        <ele>661</ele>
        <time>2015-09-22T09:32:36Z</time>
      </trkpt>
      <trkpt lat="42.34488" lon="0.14432">
        <ele>662.6</ele>
        <time>2015-09-22T09:32:38Z</time>
      </trkpt>
      <trkpt lat="42.34487" lon="0.14427">
        <ele>663.7</ele>
        <time>2015-09-22T09:32:40Z</time>
      </trkpt>
      <trkpt lat="42.34485" lon="0.14422">
        <ele>664.7</ele>
        <time>2015-09-22T09:32:42Z</time>
      </trkpt>
      <trkpt lat="42.34483" lon="0.14418">
        <ele>665.6</ele>
        <time>2015-09-22T09:32:44Z</time>
      </trkpt>
      <trkpt lat="42.34481" lon="0.14414">
        <ele>666.4</ele>
        <time>2015-09-22T09:32:46Z</time>
      </trkpt>
      <trkpt lat="42.34479" lon="0.1441">
        <ele>667.2</ele>
        <time>2015-09-22T09:32:48Z</time>
      </trkpt>
      <trkpt lat="42.34478" lon="0.14405">
        <ele>668.1</ele>
        <time>2015-09-22T09:32:50Z</time>
      </trkpt>
      <trkpt lat="42.34477" lon="0.14401">
        <ele>669.2</ele>
        <time>2015-09-22T09:32:52Z</time>
      </trkpt>
      <trkpt lat="42.34477" lon="0.14397">
        <ele>670.2</ele>
        <time>2015-09-22T09:32:54Z</time>
      </trkpt>
      <trkpt lat="42.34476" lon="0.14393">
        <ele>671.1</ele>
        <time>2015-09-22T09:32:56Z</time>
      </trkpt>
      <trkpt lat="42.34473" lon="0.1439">
        <ele>671.6</ele>
        <time>2015-09-22T09:32:58Z</time>
      </trkpt>
      <trkpt lat="42.3447" lon="0.14388">
        <ele>671.8</ele>
        <time>2015-09-22T09:33:00Z</time>
      </trkpt>
      <trkpt lat="42.34466" lon="0.14386">
        <ele>671.9</ele>
        <time>2015-09-22T09:33:02Z</time>
      </trkpt>
      <trkpt lat="42.34463" lon="0.14384">
        <ele>672.1</ele>
        <time>2015-09-22T09:33:04Z</time>
      </trkpt>
      <trkpt lat="42.3446" lon="0.14381">
        <ele>672.7</ele>
        <time>2015-09-22T09:33:06Z</time>
      </trkpt>
      <trkpt lat="42.34457" lon="0.14378">
        <ele>673.2</ele>
        <time>2015-09-22T09:33:08Z</time>
      </trkpt>
      <trkpt lat="42.34454" lon="0.14375">
        <ele>673.7</ele>
        <time>2015-09-22T09:33:10Z</time>
      </trkpt>
      <trkpt lat="42.34451" lon="0.14373">
        <ele>673.8</ele>
        <time>2015-09-22T09:33:12Z</time>
      </trkpt>
      <trkpt lat="42.34448" lon="0.14371">
        <ele>673.8</ele>
        <time>2015-09-22T09:33:14Z</time>
      </trkpt>
      <trkpt lat="42.34445" lon="0.1437">
        <ele>673.8</ele>
        <time>2015-09-22T09:33:16Z</time>
      </trkpt>
      <trkpt lat="42.34441" lon="0.1437">
        <ele>673.4</ele>
        <time>2015-09-22T09:33:18Z</time>
      </trkpt>
      <trkpt lat="42.34438" lon="0.14371">
        <ele>673</ele>
        <time>2015-09-22T09:33:20Z</time>
      </trkpt>
      <trkpt lat="42.34434" lon="0.14371">
        <ele>672.5</ele>
        <time>2015-09-22T09:33:22Z</time>
      </trkpt>
      <trkpt lat="42.3443" lon="0.14371">
        <ele>672.1</ele>
        <time>2015-09-22T09:33:24Z</time>
      </trkpt>
      <trkpt lat="42.34425" lon="0.14371">
        <ele>671.8</ele>
        <time>2015-09-22T09:33:26Z</time>
      </trkpt>
      <trkpt lat="42.34422" lon="0.1437">
        <ele>671.7</ele>
        <time>2015-09-22T09:33:27Z</time>
      </trkpt>
      <trkpt lat="42.34419" lon="0.14369">
        <ele>671.6</ele>
        <time>2015-09-22T09:33:28Z</time>
      </trkpt>
      <trkpt lat="42.34416" lon="0.14369">
        <ele>671.4</ele>
        <time>2015-09-22T09:33:29Z</time>
      </trkpt>
      <trkpt lat="42.34413" lon="0.14368">
        <ele>671.3</ele>
        <time>2015-09-22T09:33:30Z</time>
      </trkpt>
      <trkpt lat="42.3441" lon="0.14367">
        <ele>671.3</ele>
        <time>2015-09-22T09:33:31Z</time>
      </trkpt>
      <trkpt lat="42.34408" lon="0.14365">
        <ele>671.4</ele>
        <time>2015-09-22T09:33:32Z</time>
      </trkpt>
      <trkpt lat="42.34405" lon="0.14364">
        <ele>671.5</ele>
        <time>2015-09-22T09:33:33Z</time>
      </trkpt>
      <trkpt lat="42.34402" lon="0.14362">
        <ele>671.7</ele>
        <time>2015-09-22T09:33:34Z</time>
      </trkpt>
      <trkpt lat="42.344" lon="0.1436">
        <ele>672</ele>
        <time>2015-09-22T09:33:35Z</time>
      </trkpt>
      <trkpt lat="42.34396" lon="0.14357">
        <ele>672.2</ele>
        <time>2015-09-22T09:33:37Z</time>
      </trkpt>
      <trkpt lat="42.34392" lon="0.14356">
        <ele>672.2</ele>
        <time>2015-09-22T09:33:39Z</time>
      </trkpt>
      <trkpt lat="42.34389" lon="0.14353">
        <ele>672.5</ele>
        <time>2015-09-22T09:33:41Z</time>
      </trkpt>
      <trkpt lat="42.34386" lon="0.14349">
        <ele>673.3</ele>
        <time>2015-09-22T09:33:43Z</time>
      </trkpt>
      <trkpt lat="42.34385" lon="0.14343">
        <ele>674.7</ele>
        <time>2015-09-22T09:33:45Z</time>
      </trkpt>
      <trkpt lat="42.34384" lon="0.14337">
        <ele>676</ele>
        <time>2015-09-22T09:33:47Z</time>
      </trkpt>
      <trkpt lat="42.34381" lon="0.14331">
        <ele>677.2</ele>
        <time>2015-09-22T09:33:49Z</time>
      </trkpt>
      <trkpt lat="42.34379" lon="0.14325">
        <ele>678.3</ele>
        <time>2015-09-22T09:33:51Z</time>
      </trkpt>
      <trkpt lat="42.34376" lon="0.14319">
        <ele>679.5</ele>
        <time>2015-09-22T09:33:53Z</time>
      </trkpt>
      <trkpt lat="42.34375" lon="0.14313">
        <ele>680.9</ele>
        <time>2015-09-22T09:33:55Z</time>
      </trkpt>
      <trkpt lat="42.34373" lon="0.14307">
        <ele>682.9</ele>
        <time>2015-09-22T09:33:57Z</time>
      </trkpt>
      <trkpt lat="42.34371" lon="0.14301">
        <ele>684.8</ele>
        <time>2015-09-22T09:33:59Z</time>
      </trkpt>
      <trkpt lat="42.3437" lon="0.14295">
        <ele>686.5</ele>
        <time>2015-09-22T09:34:01Z</time>
      </trkpt>
      <trkpt lat="42.34368" lon="0.1429">
        <ele>688.4</ele>
        <time>2015-09-22T09:34:03Z</time>
      </trkpt>
      <trkpt lat="42.34367" lon="0.14284">
        <ele>690.6</ele>
        <time>2015-09-22T09:34:05Z</time>
      </trkpt>
      <trkpt lat="42.34366" lon="0.14278">
        <ele>692.9</ele>
        <time>2015-09-22T09:34:07Z</time>
      </trkpt>
      <trkpt lat="42.34364" lon="0.14272">
        <ele>695.2</ele>
        <time>2015-09-22T09:34:09Z</time>
      </trkpt>
      <trkpt lat="42.34363" lon="0.14267">
        <ele>697</ele>
        <time>2015-09-22T09:34:10Z</time>
      </trkpt>
      <trkpt lat="42.34362" lon="0.14262">
        <ele>699</ele>
        <time>2015-09-22T09:34:11Z</time>
      </trkpt>
      <trkpt lat="42.3436" lon="0.14256">
        <ele>701.1</ele>
        <time>2015-09-22T09:34:12Z</time>
      </trkpt>
      <trkpt lat="42.3436" lon="0.14249">
        <ele>703.3</ele>
        <time>2015-09-22T09:34:13Z</time>
      </trkpt>
      <trkpt lat="42.34357" lon="0.14243">
        <ele>705.5</ele>
        <time>2015-09-22T09:34:14Z</time>
      </trkpt>
      <trkpt lat="42.34354" lon="0.1424">
        <ele>706.8</ele>
        <time>2015-09-22T09:34:15Z</time>
      </trkpt>
      <trkpt lat="42.34351" lon="0.1424">
        <ele>707.4</ele>
        <time>2015-09-22T09:34:16Z</time>
      </trkpt>
      <trkpt lat="42.34348" lon="0.1424">
        <ele>707.8</ele>
        <time>2015-09-22T09:34:17Z</time>
      </trkpt>
      <trkpt lat="42.34345" lon="0.14242">
        <ele>707.8</ele>
        <time>2015-09-22T09:34:19Z</time>
      </trkpt>
      <trkpt lat="42.34341" lon="0.14246">
        <ele>707.2</ele>
        <time>2015-09-22T09:34:21Z</time>
      </trkpt>
      <trkpt lat="42.34338" lon="0.1425">
        <ele>706.5</ele>
        <time>2015-09-22T09:34:23Z</time>
      </trkpt>
      <trkpt lat="42.34336" lon="0.14255">
        <ele>705.6</ele>
        <time>2015-09-22T09:34:25Z</time>
      </trkpt>
      <trkpt lat="42.34333" lon="0.14258">
        <ele>705.1</ele>
        <time>2015-09-22T09:34:27Z</time>
      </trkpt>
      <trkpt lat="42.3433" lon="0.14261">
        <ele>705.2</ele>
        <time>2015-09-22T09:34:29Z</time>
      </trkpt>
      <trkpt lat="42.34327" lon="0.14263">
        <ele>705.1</ele>
        <time>2015-09-22T09:34:31Z</time>
      </trkpt>
      <trkpt lat="42.34324" lon="0.14266">
        <ele>705.2</ele>
        <time>2015-09-22T09:34:33Z</time>
      </trkpt>
      <trkpt lat="42.34321" lon="0.14269">
        <ele>705.1</ele>
        <time>2015-09-22T09:34:35Z</time>
      </trkpt>
      <trkpt lat="42.34318" lon="0.14272">
        <ele>704.9</ele>
        <time>2015-09-22T09:34:37Z</time>
      </trkpt>
      <trkpt lat="42.34316" lon="0.14276">
        <ele>704.4</ele>
        <time>2015-09-22T09:34:39Z</time>
      </trkpt>
      <trkpt lat="42.34314" lon="0.14281">
        <ele>703.7</ele>
        <time>2015-09-22T09:34:41Z</time>
      </trkpt>
      <trkpt lat="42.34312" lon="0.14286">
        <ele>703</ele>
        <time>2015-09-22T09:34:43Z</time>
      </trkpt>
      <trkpt lat="42.3431" lon="0.14291">
        <ele>702.7</ele>
        <time>2015-09-22T09:34:45Z</time>
      </trkpt>
      <trkpt lat="42.34307" lon="0.14294">
        <ele>702.8</ele>
        <time>2015-09-22T09:34:47Z</time>
      </trkpt>
      <trkpt lat="42.34303" lon="0.14297">
        <ele>703.3</ele>
        <time>2015-09-22T09:34:49Z</time>
      </trkpt>
      <trkpt lat="42.343" lon="0.14298">
        <ele>704</ele>
        <time>2015-09-22T09:34:51Z</time>
      </trkpt>
      <trkpt lat="42.34296" lon="0.14299">
        <ele>704.8</ele>
        <time>2015-09-22T09:34:53Z</time>
      </trkpt>
      <trkpt lat="42.34293" lon="0.143">
        <ele>705.5</ele>
        <time>2015-09-22T09:34:55Z</time>
      </trkpt>
      <trkpt lat="42.3429" lon="0.143">
        <ele>705.8</ele>
        <time>2015-09-22T09:34:57Z</time>
      </trkpt>
      <trkpt lat="42.34287" lon="0.143">
        <ele>705.9</ele>
        <time>2015-09-22T09:34:59Z</time>
      </trkpt>
      <trkpt lat="42.34283" lon="0.143">
        <ele>705.8</ele>
        <time>2015-09-22T09:35:01Z</time>
      </trkpt>
      <trkpt lat="42.3428" lon="0.14303">
        <ele>705.5</ele>
        <time>2015-09-22T09:35:03Z</time>
      </trkpt>
      <trkpt lat="42.34278" lon="0.14307">
        <ele>705</ele>
        <time>2015-09-22T09:35:05Z</time>
      </trkpt>
      <trkpt lat="42.34277" lon="0.14312">
        <ele>704.3</ele>
        <time>2015-09-22T09:35:07Z</time>
      </trkpt>
      <trkpt lat="42.34279" lon="0.14318">
        <ele>703.6</ele>
        <time>2015-09-22T09:35:09Z</time>
      </trkpt>
      <trkpt lat="42.34279" lon="0.14323">
        <ele>702.8</ele>
        <time>2015-09-22T09:35:11Z</time>
      </trkpt>
      <trkpt lat="42.34278" lon="0.14328">
        <ele>702.2</ele>
        <time>2015-09-22T09:35:13Z</time>
      </trkpt>
      <trkpt lat="42.34276" lon="0.14333">
        <ele>701.7</ele>
        <time>2015-09-22T09:35:15Z</time>
      </trkpt>
      <trkpt lat="42.34274" lon="0.14337">
        <ele>701.2</ele>
        <time>2015-09-22T09:35:17Z</time>
      </trkpt>
      <trkpt lat="42.34273" lon="0.14342">
        <ele>700.6</ele>
        <time>2015-09-22T09:35:19Z</time>
      </trkpt>
      <trkpt lat="42.34271" lon="0.14346">
        <ele>700.2</ele>
        <time>2015-09-22T09:35:21Z</time>
      </trkpt>
      <trkpt lat="42.34268" lon="0.1435">
        <ele>699.8</ele>
        <time>2015-09-22T09:35:23Z</time>
      </trkpt>
      <trkpt lat="42.34266" lon="0.14353">
        <ele>699.5</ele>
        <time>2015-09-22T09:35:25Z</time>
      </trkpt>
      <trkpt lat="42.34264" lon="0.14357">
        <ele>699.2</ele>
        <time>2015-09-22T09:35:28Z</time>
      </trkpt>
      <trkpt lat="42.34261" lon="0.14361">
        <ele>698.9</ele>
        <time>2015-09-22T09:35:31Z</time>
      </trkpt>
      <trkpt lat="42.34259" lon="0.14365">
        <ele>698.5</ele>
        <time>2015-09-22T09:35:34Z</time>
      </trkpt>
      <trkpt lat="42.34258" lon="0.14368">
        <ele>698.2</ele>
        <time>2015-09-22T09:35:36Z</time>
      </trkpt>
      <trkpt lat="42.34256" lon="0.14371">
        <ele>698</ele>
        <time>2015-09-22T09:35:38Z</time>
      </trkpt>
      <trkpt lat="42.34253" lon="0.14373">
        <ele>698</ele>
        <time>2015-09-22T09:35:40Z</time>
      </trkpt>
      <trkpt lat="42.34251" lon="0.14375">
        <ele>698</ele>
        <time>2015-09-22T09:35:42Z</time>
      </trkpt>
      <trkpt lat="42.34248" lon="0.14376">
        <ele>698.1</ele>
        <time>2015-09-22T09:35:44Z</time>
      </trkpt>
      <trkpt lat="42.34245" lon="0.14376">
        <ele>698.3</ele>
        <time>2015-09-22T09:35:46Z</time>
      </trkpt>
      <trkpt lat="42.34242" lon="0.14377">
        <ele>698.5</ele>
        <time>2015-09-22T09:35:52Z</time>
      </trkpt>
      <trkpt lat="42.34239" lon="0.14379">
        <ele>698.6</ele>
        <time>2015-09-22T09:35:56Z</time>
      </trkpt>
      <trkpt lat="42.34236" lon="0.14379">
        <ele>698.8</ele>
        <time>2015-09-22T09:36:00Z</time>
      </trkpt>
      <trkpt lat="42.34233" lon="0.14381">
        <ele>699</ele>
        <time>2015-09-22T09:36:04Z</time>
      </trkpt>
      <trkpt lat="42.3423" lon="0.14382">
        <ele>699.1</ele>
        <time>2015-09-22T09:36:10Z</time>
      </trkpt>
      <trkpt lat="42.34226" lon="0.14383">
        <ele>699.4</ele>
        <time>2015-09-22T09:36:13Z</time>
      </trkpt>
      <trkpt lat="42.34224" lon="0.14384">
        <ele>699.6</ele>
        <time>2015-09-22T09:36:15Z</time>
      </trkpt>
      <trkpt lat="42.34221" lon="0.14385">
        <ele>699.8</ele>
        <time>2015-09-22T09:36:17Z</time>
      </trkpt>
      <trkpt lat="42.34218" lon="0.14386">
        <ele>700</ele>
        <time>2015-09-22T09:36:19Z</time>
      </trkpt>
      <trkpt lat="42.34215" lon="0.14387">
        <ele>700.1</ele>
        <time>2015-09-22T09:36:21Z</time>
      </trkpt>
      <trkpt lat="42.34212" lon="0.14388">
        <ele>700.3</ele>
        <time>2015-09-22T09:36:23Z</time>
      </trkpt>
      <trkpt lat="42.34209" lon="0.14389">
        <ele>700.6</ele>
        <time>2015-09-22T09:36:25Z</time>
      </trkpt>
      <trkpt lat="42.34205" lon="0.14391">
        <ele>700.1</ele>
        <time>2015-09-22T09:36:27Z</time>
      </trkpt>
      <trkpt lat="42.34201" lon="0.14395">
        <ele>699.5</ele>
        <time>2015-09-22T09:36:29Z</time>
      </trkpt>
      <trkpt lat="42.34199" lon="0.144">
        <ele>699</ele>
        <time>2015-09-22T09:36:31Z</time>
      </trkpt>
      <trkpt lat="42.34197" lon="0.14405">
        <ele>698.5</ele>
        <time>2015-09-22T09:36:33Z</time>
      </trkpt>
      <trkpt lat="42.34195" lon="0.14411">
        <ele>698.2</ele>
        <time>2015-09-22T09:36:35Z</time>
      </trkpt>
      <trkpt lat="42.34193" lon="0.14416">
        <ele>697.8</ele>
        <time>2015-09-22T09:36:37Z</time>
      </trkpt>
      <trkpt lat="42.3419" lon="0.14419">
        <ele>697.3</ele>
        <time>2015-09-22T09:36:39Z</time>
      </trkpt>
      <trkpt lat="42.34187" lon="0.14417">
        <ele>696.8</ele>
        <time>2015-09-22T09:36:42Z</time>
      </trkpt>
      <trkpt lat="42.34185" lon="0.14413">
        <ele>696.6</ele>
        <time>2015-09-22T09:36:44Z</time>
      </trkpt>
      <trkpt lat="42.34183" lon="0.14408">
        <ele>696.4</ele>
        <time>2015-09-22T09:36:47Z</time>
      </trkpt>
      <trkpt lat="42.34182" lon="0.14402">
        <ele>696.5</ele>
        <time>2015-09-22T09:36:49Z</time>
      </trkpt>
      <trkpt lat="42.34184" lon="0.14395">
        <ele>696.9</ele>
        <time>2015-09-22T09:36:51Z</time>
      </trkpt>
      <trkpt lat="42.34185" lon="0.14389">
        <ele>697.3</ele>
        <time>2015-09-22T09:36:53Z</time>
      </trkpt>
      <trkpt lat="42.34186" lon="0.14383">
        <ele>697.6</ele>
        <time>2015-09-22T09:36:55Z</time>
      </trkpt>
      <trkpt lat="42.34187" lon="0.14378">
        <ele>697.8</ele>
        <time>2015-09-22T09:36:57Z</time>
      </trkpt>
      <trkpt lat="42.34187" lon="0.14373">
        <ele>698.1</ele>
        <time>2015-09-22T09:36:59Z</time>
      </trkpt>
      <trkpt lat="42.34188" lon="0.14369">
        <ele>698.5</ele>
        <time>2015-09-22T09:37:01Z</time>
      </trkpt>
      <trkpt lat="42.34189" lon="0.14365">
        <ele>698.9</ele>
        <time>2015-09-22T09:37:03Z</time>
      </trkpt>
      <trkpt lat="42.34191" lon="0.1436">
        <ele>699.5</ele>
        <time>2015-09-22T09:37:06Z</time>
      </trkpt>
      <trkpt lat="42.34194" lon="0.14357">
        <ele>700.1</ele>
        <time>2015-09-22T09:37:08Z</time>
      </trkpt>
      <trkpt lat="42.34196" lon="0.14353">
        <ele>700.8</ele>
        <time>2015-09-22T09:37:10Z</time>
      </trkpt>
      <trkpt lat="42.342" lon="0.14348">
        <ele>701.7</ele>
        <time>2015-09-22T09:37:12Z</time>
      </trkpt>
      <trkpt lat="42.34203" lon="0.14343">
        <ele>702.5</ele>
        <time>2015-09-22T09:37:14Z</time>
      </trkpt>
      <trkpt lat="42.34207" lon="0.14338">
        <ele>703.4</ele>
        <time>2015-09-22T09:37:16Z</time>
      </trkpt>
      <trkpt lat="42.3421" lon="0.14333">
        <ele>704</ele>
        <time>2015-09-22T09:37:18Z</time>
      </trkpt>
      <trkpt lat="42.34213" lon="0.14327">
        <ele>704.3</ele>
        <time>2015-09-22T09:37:20Z</time>
      </trkpt>
      <trkpt lat="42.34215" lon="0.14322">
        <ele>704.7</ele>
        <time>2015-09-22T09:37:22Z</time>
      </trkpt>
      <trkpt lat="42.34217" lon="0.14316">
        <ele>705.1</ele>
        <time>2015-09-22T09:37:24Z</time>
      </trkpt>
      <trkpt lat="42.34217" lon="0.14311">
        <ele>705.4</ele>
        <time>2015-09-22T09:37:26Z</time>
      </trkpt>
      <trkpt lat="42.34218" lon="0.14307">
        <ele>705.8</ele>
        <time>2015-09-22T09:37:28Z</time>
      </trkpt>
      <trkpt lat="42.34219" lon="0.14303">
        <ele>706.1</ele>
        <time>2015-09-22T09:37:30Z</time>
      </trkpt>
      <trkpt lat="42.3422" lon="0.14299">
        <ele>706.4</ele>
        <time>2015-09-22T09:37:32Z</time>
      </trkpt>
      <trkpt lat="42.34221" lon="0.14295">
        <ele>706.7</ele>
        <time>2015-09-22T09:37:34Z</time>
      </trkpt>
      <trkpt lat="42.34221" lon="0.14291">
        <ele>707</ele>
        <time>2015-09-22T09:37:36Z</time>
      </trkpt>
      <trkpt lat="42.34222" lon="0.14287">
        <ele>707.2</ele>
        <time>2015-09-22T09:37:38Z</time>
      </trkpt>
      <trkpt lat="42.34221" lon="0.14283">
        <ele>707.4</ele>
        <time>2015-09-22T09:37:40Z</time>
      </trkpt>
      <trkpt lat="42.34222" lon="0.14279">
        <ele>707.6</ele>
        <time>2015-09-22T09:37:42Z</time>
      </trkpt>
      <trkpt lat="42.34223" lon="0.14275">
        <ele>707.8</ele>
        <time>2015-09-22T09:37:44Z</time>
      </trkpt>
      <trkpt lat="42.34223" lon="0.14271">
        <ele>708</ele>
        <time>2015-09-22T09:37:46Z</time>
      </trkpt>
      <trkpt lat="42.34224" lon="0.14267">
        <ele>708.3</ele>
        <time>2015-09-22T09:37:48Z</time>
      </trkpt>
      <trkpt lat="42.34224" lon="0.14263">
        <ele>708.5</ele>
        <time>2015-09-22T09:37:50Z</time>
      </trkpt>
      <trkpt lat="42.34224" lon="0.14259">
        <ele>708.7</ele>
        <time>2015-09-22T09:37:52Z</time>
      </trkpt>
      <trkpt lat="42.34222" lon="0.14255">
        <ele>708.8</ele>
        <time>2015-09-22T09:37:54Z</time>
      </trkpt>
      <trkpt lat="42.34221" lon="0.14251">
        <ele>708.9</ele>
        <time>2015-09-22T09:37:56Z</time>
      </trkpt>
      <trkpt lat="42.34219" lon="0.14248">
        <ele>708.9</ele>
        <time>2015-09-22T09:37:58Z</time>
      </trkpt>
      <trkpt lat="42.34218" lon="0.14245">
        <ele>708.9</ele>
        <time>2015-09-22T09:38:00Z</time>
      </trkpt>
      <trkpt lat="42.34217" lon="0.14241">
        <ele>708.9</ele>
        <time>2015-09-22T09:38:02Z</time>
      </trkpt>
      <trkpt lat="42.34217" lon="0.14236">
        <ele>709.1</ele>
        <time>2015-09-22T09:38:04Z</time>
      </trkpt>
      <trkpt lat="42.34218" lon="0.14232">
        <ele>709.4</ele>
        <time>2015-09-22T09:38:06Z</time>
      </trkpt>
      <trkpt lat="42.3422" lon="0.14229">
        <ele>709.7</ele>
        <time>2015-09-22T09:38:08Z</time>
      </trkpt>
      <trkpt lat="42.34221" lon="0.14225">
        <ele>710.1</ele>
        <time>2015-09-22T09:38:10Z</time>
      </trkpt>
      <trkpt lat="42.34223" lon="0.14222">
        <ele>710.5</ele>
        <time>2015-09-22T09:38:12Z</time>
      </trkpt>
      <trkpt lat="42.34226" lon="0.1422">
        <ele>710.9</ele>
        <time>2015-09-22T09:38:14Z</time>
      </trkpt>
      <trkpt lat="42.34229" lon="0.14218">
        <ele>711.4</ele>
        <time>2015-09-22T09:38:16Z</time>
      </trkpt>
      <trkpt lat="42.34232" lon="0.14216">
        <ele>711.9</ele>
        <time>2015-09-22T09:38:18Z</time>
      </trkpt>
      <trkpt lat="42.34235" lon="0.14213">
        <ele>712.4</ele>
        <time>2015-09-22T09:38:20Z</time>
      </trkpt>
      <trkpt lat="42.34237" lon="0.1421">
        <ele>713</ele>
        <time>2015-09-22T09:38:22Z</time>
      </trkpt>
      <trkpt lat="42.34239" lon="0.14207">
        <ele>713.4</ele>
        <time>2015-09-22T09:38:24Z</time>
      </trkpt>
      <trkpt lat="42.3424" lon="0.14203">
        <ele>713.7</ele>
        <time>2015-09-22T09:38:26Z</time>
      </trkpt>
      <trkpt lat="42.34242" lon="0.14198">
        <ele>714.1</ele>
        <time>2015-09-22T09:38:28Z</time>
      </trkpt>
      <trkpt lat="42.34244" lon="0.14195">
        <ele>714.5</ele>
        <time>2015-09-22T09:38:30Z</time>
      </trkpt>
      <trkpt lat="42.34247" lon="0.14193">
        <ele>715</ele>
        <time>2015-09-22T09:38:32Z</time>
      </trkpt>
      <trkpt lat="42.34249" lon="0.1419">
        <ele>715.5</ele>
        <time>2015-09-22T09:38:34Z</time>
      </trkpt>
      <trkpt lat="42.34251" lon="0.14187">
        <ele>716</ele>
        <time>2015-09-22T09:38:36Z</time>
      </trkpt>
      <trkpt lat="42.34253" lon="0.14184">
        <ele>716.4</ele>
        <time>2015-09-22T09:38:38Z</time>
      </trkpt>
      <trkpt lat="42.34256" lon="0.1418">
        <ele>716.9</ele>
        <time>2015-09-22T09:38:40Z</time>
      </trkpt>
      <trkpt lat="42.34257" lon="0.14177">
        <ele>717.3</ele>
        <time>2015-09-22T09:38:42Z</time>
      </trkpt>
      <trkpt lat="42.34258" lon="0.14173">
        <ele>717.7</ele>
        <time>2015-09-22T09:38:44Z</time>
      </trkpt>
      <trkpt lat="42.34259" lon="0.14169">
        <ele>718</ele>
        <time>2015-09-22T09:38:46Z</time>
      </trkpt>
      <trkpt lat="42.34259" lon="0.14165">
        <ele>718.1</ele>
        <time>2015-09-22T09:38:48Z</time>
      </trkpt>
      <trkpt lat="42.34259" lon="0.14159">
        <ele>718.3</ele>
        <time>2015-09-22T09:38:50Z</time>
      </trkpt>
      <trkpt lat="42.34259" lon="0.14154">
        <ele>718.4</ele>
        <time>2015-09-22T09:38:51Z</time>
      </trkpt>
      <trkpt lat="42.34258" lon="0.14149">
        <ele>718.6</ele>
        <time>2015-09-22T09:38:52Z</time>
      </trkpt>
      <trkpt lat="42.34257" lon="0.14143">
        <ele>718.7</ele>
        <time>2015-09-22T09:38:53Z</time>
      </trkpt>
      <trkpt lat="42.34256" lon="0.14138">
        <ele>718.6</ele>
        <time>2015-09-22T09:38:54Z</time>
      </trkpt>
      <trkpt lat="42.34255" lon="0.14133">
        <ele>718.6</ele>
        <time>2015-09-22T09:38:55Z</time>
      </trkpt>
      <trkpt lat="42.34254" lon="0.14128">
        <ele>718.6</ele>
        <time>2015-09-22T09:38:56Z</time>
      </trkpt>
      <trkpt lat="42.34253" lon="0.14124">
        <ele>718.6</ele>
        <time>2015-09-22T09:38:57Z</time>
      </trkpt>
      <trkpt lat="42.34253" lon="0.1412">
        <ele>718.8</ele>
        <time>2015-09-22T09:38:58Z</time>
      </trkpt>
      <trkpt lat="42.34252" lon="0.14116">
        <ele>718.9</ele>
        <time>2015-09-22T09:38:59Z</time>
      </trkpt>
      <trkpt lat="42.34252" lon="0.14112">
        <ele>718.9</ele>
        <time>2015-09-22T09:39:00Z</time>
      </trkpt>
      <trkpt lat="42.3425" lon="0.14108">
        <ele>718.8</ele>
        <time>2015-09-22T09:39:01Z</time>
      </trkpt>
      <trkpt lat="42.34249" lon="0.14105">
        <ele>718.6</ele>
        <time>2015-09-22T09:39:02Z</time>
      </trkpt>
      <trkpt lat="42.34247" lon="0.14101">
        <ele>718.5</ele>
        <time>2015-09-22T09:39:03Z</time>
      </trkpt>
      <trkpt lat="42.34246" lon="0.14098">
        <ele>718.4</ele>
        <time>2015-09-22T09:39:04Z</time>
      </trkpt>
      <trkpt lat="42.34245" lon="0.14094">
        <ele>718.3</ele>
        <time>2015-09-22T09:39:05Z</time>
      </trkpt>
      <trkpt lat="42.34244" lon="0.1409">
        <ele>718.2</ele>
        <time>2015-09-22T09:39:06Z</time>
      </trkpt>
      <trkpt lat="42.34244" lon="0.14086">
        <ele>718.4</ele>
        <time>2015-09-22T09:39:07Z</time>
      </trkpt>
      <trkpt lat="42.34245" lon="0.14082">
        <ele>718.7</ele>
        <time>2015-09-22T09:39:08Z</time>
      </trkpt>
      <trkpt lat="42.34246" lon="0.14078">
        <ele>719.1</ele>
        <time>2015-09-22T09:39:09Z</time>
      </trkpt>
      <trkpt lat="42.34248" lon="0.14075">
        <ele>719.7</ele>
        <time>2015-09-22T09:39:10Z</time>
      </trkpt>
      <trkpt lat="42.3425" lon="0.14069">
        <ele>720.4</ele>
        <time>2015-09-22T09:39:11Z</time>
      </trkpt>
      <trkpt lat="42.34251" lon="0.14064">
        <ele>720.9</ele>
        <time>2015-09-22T09:39:12Z</time>
      </trkpt>
      <trkpt lat="42.34251" lon="0.14059">
        <ele>721</ele>
        <time>2015-09-22T09:39:13Z</time>
      </trkpt>
      <trkpt lat="42.3425" lon="0.14055">
        <ele>720.9</ele>
        <time>2015-09-22T09:39:14Z</time>
      </trkpt>
      <trkpt lat="42.34249" lon="0.14051">
        <ele>720.8</ele>
        <time>2015-09-22T09:39:15Z</time>
      </trkpt>
      <trkpt lat="42.34248" lon="0.14048">
        <ele>720.7</ele>
        <time>2015-09-22T09:39:16Z</time>
      </trkpt>
      <trkpt lat="42.34247" lon="0.14041">
        <ele>720.9</ele>
        <time>2015-09-22T09:39:18Z</time>
      </trkpt>
      <trkpt lat="42.34248" lon="0.14037">
        <ele>721.2</ele>
        <time>2015-09-22T09:39:19Z</time>
      </trkpt>
      <trkpt lat="42.34248" lon="0.14033">
        <ele>721.5</ele>
        <time>2015-09-22T09:39:20Z</time>
      </trkpt>
      <trkpt lat="42.34248" lon="0.14029">
        <ele>721.8</ele>
        <time>2015-09-22T09:39:21Z</time>
      </trkpt>
      <trkpt lat="42.34248" lon="0.14025">
        <ele>722.1</ele>
        <time>2015-09-22T09:39:22Z</time>
      </trkpt>
      <trkpt lat="42.34248" lon="0.14021">
        <ele>722.3</ele>
        <time>2015-09-22T09:39:23Z</time>
      </trkpt>
      <trkpt lat="42.34247" lon="0.14018">
        <ele>722.4</ele>
        <time>2015-09-22T09:39:24Z</time>
      </trkpt>
      <trkpt lat="42.34246" lon="0.14014">
        <ele>722.4</ele>
        <time>2015-09-22T09:39:25Z</time>
      </trkpt>
      <trkpt lat="42.34245" lon="0.14011">
        <ele>722.4</ele>
        <time>2015-09-22T09:39:26Z</time>
      </trkpt>
      <trkpt lat="42.34244" lon="0.14007">
        <ele>722.5</ele>
        <time>2015-09-22T09:39:27Z</time>
      </trkpt>
      <trkpt lat="42.34243" lon="0.14002">
        <ele>722.6</ele>
        <time>2015-09-22T09:39:29Z</time>
      </trkpt>
      <trkpt lat="42.3424" lon="0.13996">
        <ele>722.7</ele>
        <time>2015-09-22T09:39:31Z</time>
      </trkpt>
      <trkpt lat="42.34238" lon="0.13992">
        <ele>722.7</ele>
        <time>2015-09-22T09:39:32Z</time>
      </trkpt>
      <trkpt lat="42.34236" lon="0.13988">
        <ele>722.7</ele>
        <time>2015-09-22T09:39:33Z</time>
      </trkpt>
      <trkpt lat="42.34234" lon="0.13984">
        <ele>722.7</ele>
        <time>2015-09-22T09:39:34Z</time>
      </trkpt>
      <trkpt lat="42.34232" lon="0.1398">
        <ele>722.6</ele>
        <time>2015-09-22T09:39:35Z</time>
      </trkpt>
      <trkpt lat="42.34229" lon="0.13976">
        <ele>722.6</ele>
        <time>2015-09-22T09:39:36Z</time>
      </trkpt>
      <trkpt lat="42.34227" lon="0.13974">
        <ele>722.6</ele>
        <time>2015-09-22T09:39:37Z</time>
      </trkpt>
      <trkpt lat="42.34224" lon="0.1397">
        <ele>722.5</ele>
        <time>2015-09-22T09:39:38Z</time>
      </trkpt>
      <trkpt lat="42.34221" lon="0.1397">
        <ele>722.2</ele>
        <time>2015-09-22T09:39:39Z</time>
      </trkpt>
      <trkpt lat="42.34218" lon="0.13969">
        <ele>722</ele>
        <time>2015-09-22T09:39:40Z</time>
      </trkpt>
      <trkpt lat="42.34216" lon="0.13967">
        <ele>721.8</ele>
        <time>2015-09-22T09:39:41Z</time>
      </trkpt>
      <trkpt lat="42.34213" lon="0.13965">
        <ele>721.8</ele>
        <time>2015-09-22T09:39:42Z</time>
      </trkpt>
      <trkpt lat="42.34211" lon="0.13963">
        <ele>721.8</ele>
        <time>2015-09-22T09:39:43Z</time>
      </trkpt>
      <trkpt lat="42.34209" lon="0.1396">
        <ele>721.9</ele>
        <time>2015-09-22T09:39:44Z</time>
      </trkpt>
      <trkpt lat="42.34207" lon="0.13957">
        <ele>721.9</ele>
        <time>2015-09-22T09:39:45Z</time>
      </trkpt>
      <trkpt lat="42.34206" lon="0.13953">
        <ele>721.8</ele>
        <time>2015-09-22T09:39:46Z</time>
      </trkpt>
      <trkpt lat="42.34204" lon="0.1395">
        <ele>721.7</ele>
        <time>2015-09-22T09:39:47Z</time>
      </trkpt>
      <trkpt lat="42.34203" lon="0.13947">
        <ele>721.6</ele>
        <time>2015-09-22T09:39:48Z</time>
      </trkpt>
      <trkpt lat="42.34201" lon="0.13943">
        <ele>721.5</ele>
        <time>2015-09-22T09:39:49Z</time>
      </trkpt>
      <trkpt lat="42.342" lon="0.1394">
        <ele>721.4</ele>
        <time>2015-09-22T09:39:50Z</time>
      </trkpt>
      <trkpt lat="42.34198" lon="0.13934">
        <ele>721.2</ele>
        <time>2015-09-22T09:39:52Z</time>
      </trkpt>
      <trkpt lat="42.34197" lon="0.13929">
        <ele>721.1</ele>
        <time>2015-09-22T09:39:54Z</time>
      </trkpt>
      <trkpt lat="42.34199" lon="0.13924">
        <ele>721.1</ele>
        <time>2015-09-22T09:39:56Z</time>
      </trkpt>
      <trkpt lat="42.34202" lon="0.13919">
        <ele>721.2</ele>
        <time>2015-09-22T09:39:58Z</time>
      </trkpt>
      <trkpt lat="42.34206" lon="0.13916">
        <ele>721.4</ele>
        <time>2015-09-22T09:40:00Z</time>
      </trkpt>
      <trkpt lat="42.34209" lon="0.13913">
        <ele>721.5</ele>
        <time>2015-09-22T09:40:02Z</time>
      </trkpt>
      <trkpt lat="42.34213" lon="0.13909">
        <ele>721.8</ele>
        <time>2015-09-22T09:40:04Z</time>
      </trkpt>
      <trkpt lat="42.34216" lon="0.13906">
        <ele>722.1</ele>
        <time>2015-09-22T09:40:06Z</time>
      </trkpt>
      <trkpt lat="42.34219" lon="0.13903">
        <ele>722.4</ele>
        <time>2015-09-22T09:40:08Z</time>
      </trkpt>
      <trkpt lat="42.34223" lon="0.13901">
        <ele>722.7</ele>
        <time>2015-09-22T09:40:10Z</time>
      </trkpt>
      <trkpt lat="42.34226" lon="0.13897">
        <ele>723</ele>
        <time>2015-09-22T09:40:12Z</time>
      </trkpt>
      <trkpt lat="42.3423" lon="0.13893">
        <ele>723.3</ele>
        <time>2015-09-22T09:40:14Z</time>
      </trkpt>
      <trkpt lat="42.34232" lon="0.13891">
        <ele>723.5</ele>
        <time>2015-09-22T09:40:15Z</time>
      </trkpt>
      <trkpt lat="42.34234" lon="0.13889">
        <ele>723.7</ele>
        <time>2015-09-22T09:40:16Z</time>
      </trkpt>
      <trkpt lat="42.34237" lon="0.13887">
        <ele>723.9</ele>
        <time>2015-09-22T09:40:17Z</time>
      </trkpt>
      <trkpt lat="42.34242" lon="0.13886">
        <ele>724.4</ele>
        <time>2015-09-22T09:40:19Z</time>
      </trkpt>
      <trkpt lat="42.34246" lon="0.13885">
        <ele>724.8</ele>
        <time>2015-09-22T09:40:21Z</time>
      </trkpt>
      <trkpt lat="42.34249" lon="0.13888">
        <ele>725.2</ele>
        <time>2015-09-22T09:40:24Z</time>
      </trkpt>
      <trkpt lat="42.34252" lon="0.13891">
        <ele>725.4</ele>
        <time>2015-09-22T09:40:26Z</time>
      </trkpt>
      <trkpt lat="42.34254" lon="0.13895">
        <ele>725.7</ele>
        <time>2015-09-22T09:40:28Z</time>
      </trkpt>
      <trkpt lat="42.34255" lon="0.13899">
        <ele>725.9</ele>
        <time>2015-09-22T09:40:30Z</time>
      </trkpt>
      <trkpt lat="42.34256" lon="0.13904">
        <ele>726.1</ele>
        <time>2015-09-22T09:40:32Z</time>
      </trkpt>
      <trkpt lat="42.34257" lon="0.13908">
        <ele>726.3</ele>
        <time>2015-09-22T09:40:34Z</time>
      </trkpt>
      <trkpt lat="42.34259" lon="0.13912">
        <ele>726.6</ele>
        <time>2015-09-22T09:40:36Z</time>
      </trkpt>
      <trkpt lat="42.3426" lon="0.13917">
        <ele>726.8</ele>
        <time>2015-09-22T09:40:38Z</time>
      </trkpt>
      <trkpt lat="42.3426" lon="0.13922">
        <ele>726.9</ele>
        <time>2015-09-22T09:40:40Z</time>
      </trkpt>
      <trkpt lat="42.34262" lon="0.13926">
        <ele>727.1</ele>
        <time>2015-09-22T09:40:42Z</time>
      </trkpt>
      <trkpt lat="42.34265" lon="0.1393">
        <ele>727.5</ele>
        <time>2015-09-22T09:40:44Z</time>
      </trkpt>
      <trkpt lat="42.34267" lon="0.13934">
        <ele>727.8</ele>
        <time>2015-09-22T09:40:46Z</time>
      </trkpt>
      <trkpt lat="42.34268" lon="0.13939">
        <ele>728</ele>
        <time>2015-09-22T09:40:48Z</time>
      </trkpt>
      <trkpt lat="42.34269" lon="0.13943">
        <ele>728.2</ele>
        <time>2015-09-22T09:40:50Z</time>
      </trkpt>
      <trkpt lat="42.34271" lon="0.13948">
        <ele>728.5</ele>
        <time>2015-09-22T09:40:52Z</time>
      </trkpt>
      <trkpt lat="42.34274" lon="0.1395">
        <ele>728.9</ele>
        <time>2015-09-22T09:40:54Z</time>
      </trkpt>
      <trkpt lat="42.34277" lon="0.13949">
        <ele>729.2</ele>
        <time>2015-09-22T09:40:56Z</time>
      </trkpt>
      <trkpt lat="42.3428" lon="0.13947">
        <ele>729.5</ele>
        <time>2015-09-22T09:40:58Z</time>
      </trkpt>
      <trkpt lat="42.34283" lon="0.13945">
        <ele>729.8</ele>
        <time>2015-09-22T09:41:00Z</time>
      </trkpt>
      <trkpt lat="42.34286" lon="0.13942">
        <ele>730</ele>
        <time>2015-09-22T09:41:02Z</time>
      </trkpt>
      <trkpt lat="42.34289" lon="0.13942">
        <ele>730.3</ele>
        <time>2015-09-22T09:41:04Z</time>
      </trkpt>
      <trkpt lat="42.34292" lon="0.13943">
        <ele>730.7</ele>
        <time>2015-09-22T09:41:06Z</time>
      </trkpt>
      <trkpt lat="42.34295" lon="0.13945">
        <ele>731.2</ele>
        <time>2015-09-22T09:41:08Z</time>
      </trkpt>
      <trkpt lat="42.34298" lon="0.13945">
        <ele>731.7</ele>
        <time>2015-09-22T09:41:10Z</time>
      </trkpt>
      <trkpt lat="42.343" lon="0.13946">
        <ele>732.1</ele>
        <time>2015-09-22T09:41:12Z</time>
      </trkpt>
      <trkpt lat="42.34304" lon="0.13946">
        <ele>732.8</ele>
        <time>2015-09-22T09:41:15Z</time>
      </trkpt>
      <trkpt lat="42.34308" lon="0.13946">
        <ele>733.4</ele>
        <time>2015-09-22T09:41:19Z</time>
      </trkpt>
      <trkpt lat="42.34311" lon="0.13947">
        <ele>733.9</ele>
        <time>2015-09-22T09:41:22Z</time>
      </trkpt>
      <trkpt lat="42.34314" lon="0.13947">
        <ele>734.4</ele>
        <time>2015-09-22T09:41:25Z</time>
      </trkpt>
      <trkpt lat="42.34317" lon="0.13949">
        <ele>735</ele>
        <time>2015-09-22T09:41:28Z</time>
      </trkpt>
      <trkpt lat="42.3432" lon="0.13952">
        <ele>735.5</ele>
        <time>2015-09-22T09:41:31Z</time>
      </trkpt>
      <trkpt lat="42.34322" lon="0.13955">
        <ele>735.9</ele>
        <time>2015-09-22T09:41:33Z</time>
      </trkpt>
      <trkpt lat="42.34324" lon="0.13957">
        <ele>736.4</ele>
        <time>2015-09-22T09:41:35Z</time>
      </trkpt>
      <trkpt lat="42.34326" lon="0.13959">
        <ele>736.8</ele>
        <time>2015-09-22T09:41:37Z</time>
      </trkpt>
      <trkpt lat="42.34329" lon="0.13961">
        <ele>737.2</ele>
        <time>2015-09-22T09:41:39Z</time>
      </trkpt>
      <trkpt lat="42.34333" lon="0.13962">
        <ele>737.8</ele>
        <time>2015-09-22T09:41:42Z</time>
      </trkpt>
      <trkpt lat="42.34336" lon="0.13962">
        <ele>738.3</ele>
        <time>2015-09-22T09:41:44Z</time>
      </trkpt>
      <trkpt lat="42.34339" lon="0.13961">
        <ele>738.8</ele>
        <time>2015-09-22T09:41:46Z</time>
      </trkpt>
      <trkpt lat="42.34341" lon="0.13959">
        <ele>739.3</ele>
        <time>2015-09-22T09:41:48Z</time>
      </trkpt>
      <trkpt lat="42.34343" lon="0.13956">
        <ele>739.6</ele>
        <time>2015-09-22T09:41:50Z</time>
      </trkpt>
      <trkpt lat="42.34347" lon="0.13952">
        <ele>740</ele>
        <time>2015-09-22T09:41:52Z</time>
      </trkpt>
      <trkpt lat="42.3435" lon="0.13948">
        <ele>740.4</ele>
        <time>2015-09-22T09:41:54Z</time>
      </trkpt>
      <trkpt lat="42.34353" lon="0.13942">
        <ele>740.6</ele>
        <time>2015-09-22T09:41:56Z</time>
      </trkpt>
      <trkpt lat="42.34355" lon="0.13937">
        <ele>740.8</ele>
        <time>2015-09-22T09:41:58Z</time>
      </trkpt>
      <trkpt lat="42.34359" lon="0.13932">
        <ele>741.1</ele>
        <time>2015-09-22T09:42:00Z</time>
      </trkpt>
      <trkpt lat="42.34362" lon="0.13928">
        <ele>741.5</ele>
        <time>2015-09-22T09:42:02Z</time>
      </trkpt>
      <trkpt lat="42.34366" lon="0.13924">
        <ele>741.9</ele>
        <time>2015-09-22T09:42:04Z</time>
      </trkpt>
      <trkpt lat="42.34369" lon="0.13919">
        <ele>742.1</ele>
        <time>2015-09-22T09:42:06Z</time>
      </trkpt>
      <trkpt lat="42.34371" lon="0.13912">
        <ele>742.1</ele>
        <time>2015-09-22T09:42:08Z</time>
      </trkpt>
      <trkpt lat="42.34373" lon="0.13906">
        <ele>742.3</ele>
        <time>2015-09-22T09:42:10Z</time>
      </trkpt>
      <trkpt lat="42.34376" lon="0.13904">
        <ele>742.4</ele>
        <time>2015-09-22T09:42:11Z</time>
      </trkpt>
      <trkpt lat="42.34378" lon="0.13901">
        <ele>742.4</ele>
        <time>2015-09-22T09:42:12Z</time>
      </trkpt>
      <trkpt lat="42.3438" lon="0.13898">
        <ele>742.5</ele>
        <time>2015-09-22T09:42:13Z</time>
      </trkpt>
      <trkpt lat="42.34381" lon="0.13895">
        <ele>742.5</ele>
        <time>2015-09-22T09:42:14Z</time>
      </trkpt>
      <trkpt lat="42.34383" lon="0.13892">
        <ele>742.5</ele>
        <time>2015-09-22T09:42:15Z</time>
      </trkpt>
      <trkpt lat="42.34386" lon="0.13886">
        <ele>742.6</ele>
        <time>2015-09-22T09:42:17Z</time>
      </trkpt>
      <trkpt lat="42.3439" lon="0.13882">
        <ele>742.8</ele>
        <time>2015-09-22T09:42:19Z</time>
      </trkpt>
      <trkpt lat="42.34394" lon="0.13877">
        <ele>743.1</ele>
        <time>2015-09-22T09:42:21Z</time>
      </trkpt>
      <trkpt lat="42.34398" lon="0.13874">
        <ele>743.4</ele>
        <time>2015-09-22T09:42:23Z</time>
      </trkpt>
      <trkpt lat="42.34402" lon="0.13871">
        <ele>743.6</ele>
        <time>2015-09-22T09:42:25Z</time>
      </trkpt>
      <trkpt lat="42.34404" lon="0.13868">
        <ele>743.7</ele>
        <time>2015-09-22T09:42:27Z</time>
      </trkpt>
      <trkpt lat="42.34405" lon="0.13864">
        <ele>743.6</ele>
        <time>2015-09-22T09:42:29Z</time>
      </trkpt>
      <trkpt lat="42.34406" lon="0.13861">
        <ele>743.5</ele>
        <time>2015-09-22T09:42:31Z</time>
      </trkpt>
      <trkpt lat="42.34409" lon="0.13858">
        <ele>743.7</ele>
        <time>2015-09-22T09:42:33Z</time>
      </trkpt>
      <trkpt lat="42.34413" lon="0.13855">
        <ele>744</ele>
        <time>2015-09-22T09:42:35Z</time>
      </trkpt>
      <trkpt lat="42.34417" lon="0.13853">
        <ele>744.5</ele>
        <time>2015-09-22T09:42:37Z</time>
      </trkpt>
      <trkpt lat="42.34421" lon="0.13852">
        <ele>745</ele>
        <time>2015-09-22T09:42:39Z</time>
      </trkpt>
      <trkpt lat="42.34426" lon="0.1385">
        <ele>745.5</ele>
        <time>2015-09-22T09:42:41Z</time>
      </trkpt>
      <trkpt lat="42.3443" lon="0.13849">
        <ele>746</ele>
        <time>2015-09-22T09:42:43Z</time>
      </trkpt>
      <trkpt lat="42.34435" lon="0.13847">
        <ele>746.6</ele>
        <time>2015-09-22T09:42:45Z</time>
      </trkpt>
      <trkpt lat="42.34439" lon="0.13844">
        <ele>747.1</ele>
        <time>2015-09-22T09:42:47Z</time>
      </trkpt>
      <trkpt lat="42.34444" lon="0.13842">
        <ele>747.6</ele>
        <time>2015-09-22T09:42:49Z</time>
      </trkpt>
      <trkpt lat="42.34449" lon="0.13839">
        <ele>748.3</ele>
        <time>2015-09-22T09:42:51Z</time>
      </trkpt>
      <trkpt lat="42.34452" lon="0.13837">
        <ele>748.7</ele>
        <time>2015-09-22T09:42:52Z</time>
      </trkpt>
      <trkpt lat="42.34455" lon="0.13835">
        <ele>749</ele>
        <time>2015-09-22T09:42:53Z</time>
      </trkpt>
      <trkpt lat="42.34458" lon="0.1383">
        <ele>749.4</ele>
        <time>2015-09-22T09:42:55Z</time>
      </trkpt>
      <trkpt lat="42.34462" lon="0.13825">
        <ele>749.8</ele>
        <time>2015-09-22T09:42:57Z</time>
      </trkpt>
      <trkpt lat="42.34465" lon="0.13822">
        <ele>750.1</ele>
        <time>2015-09-22T09:42:59Z</time>
      </trkpt>
      <trkpt lat="42.34469" lon="0.13817">
        <ele>750.4</ele>
        <time>2015-09-22T09:43:01Z</time>
      </trkpt>
      <trkpt lat="42.34472" lon="0.13813">
        <ele>750.8</ele>
        <time>2015-09-22T09:43:03Z</time>
      </trkpt>
      <trkpt lat="42.34477" lon="0.13811">
        <ele>751.3</ele>
        <time>2015-09-22T09:43:05Z</time>
      </trkpt>
      <trkpt lat="42.34481" lon="0.13808">
        <ele>751.8</ele>
        <time>2015-09-22T09:43:07Z</time>
      </trkpt>
      <trkpt lat="42.34485" lon="0.13804">
        <ele>752.3</ele>
        <time>2015-09-22T09:43:09Z</time>
      </trkpt>
      <trkpt lat="42.34487" lon="0.13799">
        <ele>752.5</ele>
        <time>2015-09-22T09:43:11Z</time>
      </trkpt>
      <trkpt lat="42.3449" lon="0.13797">
        <ele>752.8</ele>
        <time>2015-09-22T09:43:37Z</time>
      </trkpt>
      <trkpt lat="42.34492" lon="0.13795">
        <ele>753.1</ele>
        <time>2015-09-22T09:43:38Z</time>
      </trkpt>
      <trkpt lat="42.34497" lon="0.13792">
        <ele>753.6</ele>
        <time>2015-09-22T09:43:40Z</time>
      </trkpt>
      <trkpt lat="42.345" lon="0.13787">
        <ele>754.3</ele>
        <time>2015-09-22T09:43:42Z</time>
      </trkpt>
      <trkpt lat="42.34503" lon="0.13781">
        <ele>755</ele>
        <time>2015-09-22T09:43:44Z</time>
      </trkpt>
      <trkpt lat="42.34507" lon="0.13776">
        <ele>755.8</ele>
        <time>2015-09-22T09:43:46Z</time>
      </trkpt>
      <trkpt lat="42.34511" lon="0.13773">
        <ele>756.4</ele>
        <time>2015-09-22T09:43:47Z</time>
      </trkpt>
      <trkpt lat="42.34514" lon="0.13771">
        <ele>757</ele>
        <time>2015-09-22T09:43:48Z</time>
      </trkpt>
      <trkpt lat="42.34518" lon="0.1377">
        <ele>757.6</ele>
        <time>2015-09-22T09:43:49Z</time>
      </trkpt>
      <trkpt lat="42.34521" lon="0.13769">
        <ele>758.1</ele>
        <time>2015-09-22T09:43:50Z</time>
      </trkpt>
      <trkpt lat="42.34524" lon="0.13767">
        <ele>758.6</ele>
        <time>2015-09-22T09:43:51Z</time>
      </trkpt>
      <trkpt lat="42.34527" lon="0.13766">
        <ele>759</ele>
        <time>2015-09-22T09:43:52Z</time>
      </trkpt>
      <trkpt lat="42.3453" lon="0.13765">
        <ele>759.5</ele>
        <time>2015-09-22T09:43:53Z</time>
      </trkpt>
      <trkpt lat="42.34533" lon="0.13763">
        <ele>759.9</ele>
        <time>2015-09-22T09:43:54Z</time>
      </trkpt>
      <trkpt lat="42.34535" lon="0.13761">
        <ele>760.4</ele>
        <time>2015-09-22T09:43:55Z</time>
      </trkpt>
      <trkpt lat="42.34538" lon="0.13759">
        <ele>760.8</ele>
        <time>2015-09-22T09:43:56Z</time>
      </trkpt>
      <trkpt lat="42.3454" lon="0.13757">
        <ele>761.3</ele>
        <time>2015-09-22T09:43:57Z</time>
      </trkpt>
      <trkpt lat="42.34543" lon="0.13752">
        <ele>761.8</ele>
        <time>2015-09-22T09:43:59Z</time>
      </trkpt>
      <trkpt lat="42.34546" lon="0.13748">
        <ele>762.2</ele>
        <time>2015-09-22T09:44:01Z</time>
      </trkpt>
      <trkpt lat="42.34549" lon="0.13743">
        <ele>762.5</ele>
        <time>2015-09-22T09:44:03Z</time>
      </trkpt>
      <trkpt lat="42.34552" lon="0.13741">
        <ele>762.7</ele>
        <time>2015-09-22T09:44:04Z</time>
      </trkpt>
      <trkpt lat="42.34554" lon="0.13739">
        <ele>762.9</ele>
        <time>2015-09-22T09:44:05Z</time>
      </trkpt>
      <trkpt lat="42.34557" lon="0.13736">
        <ele>763.1</ele>
        <time>2015-09-22T09:44:06Z</time>
      </trkpt>
      <trkpt lat="42.3456" lon="0.13734">
        <ele>763.2</ele>
        <time>2015-09-22T09:44:07Z</time>
      </trkpt>
      <trkpt lat="42.34563" lon="0.13732">
        <ele>763.3</ele>
        <time>2015-09-22T09:44:08Z</time>
      </trkpt>
      <trkpt lat="42.34566" lon="0.13731">
        <ele>763.5</ele>
        <time>2015-09-22T09:44:09Z</time>
      </trkpt>
      <trkpt lat="42.34568" lon="0.13729">
        <ele>763.6</ele>
        <time>2015-09-22T09:44:10Z</time>
      </trkpt>
      <trkpt lat="42.34571" lon="0.13726">
        <ele>763.8</ele>
        <time>2015-09-22T09:44:11Z</time>
      </trkpt>
      <trkpt lat="42.34573" lon="0.13724">
        <ele>764</ele>
        <time>2015-09-22T09:44:12Z</time>
      </trkpt>
      <trkpt lat="42.34575" lon="0.13721">
        <ele>764.2</ele>
        <time>2015-09-22T09:44:13Z</time>
      </trkpt>
      <trkpt lat="42.34577" lon="0.13718">
        <ele>764.4</ele>
        <time>2015-09-22T09:44:14Z</time>
      </trkpt>
      <trkpt lat="42.34578" lon="0.13715">
        <ele>764.6</ele>
        <time>2015-09-22T09:44:15Z</time>
      </trkpt>
      <trkpt lat="42.34582" lon="0.13709">
        <ele>764.9</ele>
        <time>2015-09-22T09:44:17Z</time>
      </trkpt>
      <trkpt lat="42.34584" lon="0.13706">
        <ele>765</ele>
        <time>2015-09-22T09:44:18Z</time>
      </trkpt>
      <trkpt lat="42.34588" lon="0.13702">
        <ele>765</ele>
        <time>2015-09-22T09:44:20Z</time>
      </trkpt>
      <trkpt lat="42.3459" lon="0.13699">
        <ele>764.9</ele>
        <time>2015-09-22T09:44:21Z</time>
      </trkpt>
      <trkpt lat="42.34593" lon="0.13696">
        <ele>764.8</ele>
        <time>2015-09-22T09:44:22Z</time>
      </trkpt>
      <trkpt lat="42.34595" lon="0.13692">
        <ele>764.7</ele>
        <time>2015-09-22T09:44:23Z</time>
      </trkpt>
      <trkpt lat="42.34597" lon="0.13689">
        <ele>764.6</ele>
        <time>2015-09-22T09:44:24Z</time>
      </trkpt>
      <trkpt lat="42.34599" lon="0.13685">
        <ele>764.5</ele>
        <time>2015-09-22T09:44:25Z</time>
      </trkpt>
      <trkpt lat="42.34601" lon="0.13682">
        <ele>764.3</ele>
        <time>2015-09-22T09:44:26Z</time>
      </trkpt>
      <trkpt lat="42.34603" lon="0.13678">
        <ele>764.2</ele>
        <time>2015-09-22T09:44:27Z</time>
      </trkpt>
      <trkpt lat="42.34605" lon="0.13674">
        <ele>763.9</ele>
        <time>2015-09-22T09:44:28Z</time>
      </trkpt>
      <trkpt lat="42.34606" lon="0.1367">
        <ele>763.7</ele>
        <time>2015-09-22T09:44:29Z</time>
      </trkpt>
      <trkpt lat="42.34608" lon="0.13666">
        <ele>763.5</ele>
        <time>2015-09-22T09:44:30Z</time>
      </trkpt>
      <trkpt lat="42.3461" lon="0.13661">
        <ele>763.2</ele>
        <time>2015-09-22T09:44:31Z</time>
      </trkpt>
      <trkpt lat="42.34611" lon="0.13657">
        <ele>762.9</ele>
        <time>2015-09-22T09:44:32Z</time>
      </trkpt>
      <trkpt lat="42.34613" lon="0.13651">
        <ele>762.6</ele>
        <time>2015-09-22T09:44:33Z</time>
      </trkpt>
      <trkpt lat="42.34614" lon="0.13647">
        <ele>762.3</ele>
        <time>2015-09-22T09:44:34Z</time>
      </trkpt>
      <trkpt lat="42.34616" lon="0.1364">
        <ele>761.8</ele>
        <time>2015-09-22T09:44:35Z</time>
      </trkpt>
      <trkpt lat="42.34618" lon="0.13635">
        <ele>761.3</ele>
        <time>2015-09-22T09:44:36Z</time>
      </trkpt>
      <trkpt lat="42.3462" lon="0.13629">
        <ele>760.8</ele>
        <time>2015-09-22T09:44:37Z</time>
      </trkpt>
      <trkpt lat="42.34622" lon="0.13624">
        <ele>760.3</ele>
        <time>2015-09-22T09:44:38Z</time>
      </trkpt>
      <trkpt lat="42.34623" lon="0.13618">
        <ele>759.8</ele>
        <time>2015-09-22T09:44:39Z</time>
      </trkpt>
      <trkpt lat="42.34624" lon="0.13613">
        <ele>759.3</ele>
        <time>2015-09-22T09:44:40Z</time>
      </trkpt>
      <trkpt lat="42.34624" lon="0.13607">
        <ele>758.8</ele>
        <time>2015-09-22T09:44:41Z</time>
      </trkpt>
      <trkpt lat="42.34624" lon="0.13602">
        <ele>758.5</ele>
        <time>2015-09-22T09:44:42Z</time>
      </trkpt>
      <trkpt lat="42.34623" lon="0.13597">
        <ele>758.2</ele>
        <time>2015-09-22T09:44:43Z</time>
      </trkpt>
      <trkpt lat="42.34623" lon="0.13591">
        <ele>757.8</ele>
        <time>2015-09-22T09:44:44Z</time>
      </trkpt>
      <trkpt lat="42.34622" lon="0.13585">
        <ele>757.5</ele>
        <time>2015-09-22T09:44:45Z</time>
      </trkpt>
      <trkpt lat="42.34622" lon="0.13578">
        <ele>757.1</ele>
        <time>2015-09-22T09:44:46Z</time>
      </trkpt>
      <trkpt lat="42.3462" lon="0.13567">
        <ele>756.6</ele>
        <time>2015-09-22T09:44:47Z</time>
      </trkpt>
      <trkpt lat="42.3462" lon="0.13559">
        <ele>756</ele>
        <time>2015-09-22T09:44:48Z</time>
      </trkpt>
      <trkpt lat="42.34621" lon="0.13552">
        <ele>755.3</ele>
        <time>2015-09-22T09:44:49Z</time>
      </trkpt>
      <trkpt lat="42.34621" lon="0.13547">
        <ele>755</ele>
        <time>2015-09-22T09:44:50Z</time>
      </trkpt>
      <trkpt lat="42.34619" lon="0.13542">
        <ele>754.9</ele>
        <time>2015-09-22T09:44:51Z</time>
      </trkpt>
      <trkpt lat="42.34615" lon="0.13535">
        <ele>755.2</ele>
        <time>2015-09-22T09:44:53Z</time>
      </trkpt>
      <trkpt lat="42.34612" lon="0.1353">
        <ele>755.4</ele>
        <time>2015-09-22T09:44:54Z</time>
      </trkpt>
      <trkpt lat="42.34609" lon="0.13525">
        <ele>755.6</ele>
        <time>2015-09-22T09:44:55Z</time>
      </trkpt>
      <trkpt lat="42.34606" lon="0.1352">
        <ele>755.7</ele>
        <time>2015-09-22T09:44:56Z</time>
      </trkpt>
      <trkpt lat="42.34602" lon="0.13513">
        <ele>755.8</ele>
        <time>2015-09-22T09:44:57Z</time>
      </trkpt>
      <trkpt lat="42.34601" lon="0.13507">
        <ele>755.7</ele>
        <time>2015-09-22T09:44:58Z</time>
      </trkpt>
      <trkpt lat="42.346" lon="0.13502">
        <ele>755.5</ele>
        <time>2015-09-22T09:44:59Z</time>
      </trkpt>
      <trkpt lat="42.34597" lon="0.13496">
        <ele>755.5</ele>
        <time>2015-09-22T09:45:00Z</time>
      </trkpt>
      <trkpt lat="42.34593" lon="0.13491">
        <ele>755.7</ele>
        <time>2015-09-22T09:45:01Z</time>
      </trkpt>
      <trkpt lat="42.34591" lon="0.13484">
        <ele>755.4</ele>
        <time>2015-09-22T09:45:02Z</time>
      </trkpt>
      <trkpt lat="42.3459" lon="0.13476">
        <ele>754.9</ele>
        <time>2015-09-22T09:45:03Z</time>
      </trkpt>
      <trkpt lat="42.34589" lon="0.13469">
        <ele>754.7</ele>
        <time>2015-09-22T09:45:04Z</time>
      </trkpt>
      <trkpt lat="42.34587" lon="0.1346">
        <ele>754.3</ele>
        <time>2015-09-22T09:45:05Z</time>
      </trkpt>
      <trkpt lat="42.34586" lon="0.13452">
        <ele>753.9</ele>
        <time>2015-09-22T09:45:06Z</time>
      </trkpt>
      <trkpt lat="42.34586" lon="0.13444">
        <ele>753.5</ele>
        <time>2015-09-22T09:45:07Z</time>
      </trkpt>
      <trkpt lat="42.34586" lon="0.13437">
        <ele>753.2</ele>
        <time>2015-09-22T09:45:08Z</time>
      </trkpt>
      <trkpt lat="42.34586" lon="0.1343">
        <ele>752.9</ele>
        <time>2015-09-22T09:45:09Z</time>
      </trkpt>
      <trkpt lat="42.34586" lon="0.13426">
        <ele>752.7</ele>
        <time>2015-09-22T09:45:10Z</time>
      </trkpt>
      <trkpt lat="42.34586" lon="0.13419">
        <ele>752.4</ele>
        <time>2015-09-22T09:45:11Z</time>
      </trkpt>
      <trkpt lat="42.34587" lon="0.13414">
        <ele>752.1</ele>
        <time>2015-09-22T09:45:12Z</time>
      </trkpt>
      <trkpt lat="42.34587" lon="0.13408">
        <ele>751.8</ele>
        <time>2015-09-22T09:45:13Z</time>
      </trkpt>
      <trkpt lat="42.34585" lon="0.13402">
        <ele>751.7</ele>
        <time>2015-09-22T09:45:14Z</time>
      </trkpt>
      <trkpt lat="42.34582" lon="0.13396">
        <ele>751.6</ele>
        <time>2015-09-22T09:45:15Z</time>
      </trkpt>
      <trkpt lat="42.34583" lon="0.13392">
        <ele>751.4</ele>
        <time>2015-09-22T09:45:16Z</time>
      </trkpt>
      <trkpt lat="42.34581" lon="0.13386">
        <ele>751.2</ele>
        <time>2015-09-22T09:45:17Z</time>
      </trkpt>
      <trkpt lat="42.34579" lon="0.13381">
        <ele>751.1</ele>
        <time>2015-09-22T09:45:18Z</time>
      </trkpt>
      <trkpt lat="42.34578" lon="0.13377">
        <ele>751</ele>
        <time>2015-09-22T09:45:19Z</time>
      </trkpt>
      <trkpt lat="42.34577" lon="0.13369">
        <ele>751</ele>
        <time>2015-09-22T09:45:21Z</time>
      </trkpt>
      <trkpt lat="42.34576" lon="0.13365">
        <ele>751.1</ele>
        <time>2015-09-22T09:45:22Z</time>
      </trkpt>
      <trkpt lat="42.34574" lon="0.13359">
        <ele>751.2</ele>
        <time>2015-09-22T09:45:23Z</time>
      </trkpt>
      <trkpt lat="42.34572" lon="0.13353">
        <ele>751.2</ele>
        <time>2015-09-22T09:45:24Z</time>
      </trkpt>
      <trkpt lat="42.34575" lon="0.13348">
        <ele>751</ele>
        <time>2015-09-22T09:45:25Z</time>
      </trkpt>
      <trkpt lat="42.34577" lon="0.13342">
        <ele>750.9</ele>
        <time>2015-09-22T09:45:26Z</time>
      </trkpt>
      <trkpt lat="42.34579" lon="0.13337">
        <ele>750.8</ele>
        <time>2015-09-22T09:45:27Z</time>
      </trkpt>
      <trkpt lat="42.34581" lon="0.13333">
        <ele>750.8</ele>
        <time>2015-09-22T09:45:28Z</time>
      </trkpt>
      <trkpt lat="42.34585" lon="0.13329">
        <ele>750.8</ele>
        <time>2015-09-22T09:45:29Z</time>
      </trkpt>
      <trkpt lat="42.34588" lon="0.13326">
        <ele>750.8</ele>
        <time>2015-09-22T09:45:30Z</time>
      </trkpt>
      <trkpt lat="42.34591" lon="0.13323">
        <ele>750.8</ele>
        <time>2015-09-22T09:45:31Z</time>
      </trkpt>
      <trkpt lat="42.34594" lon="0.13321">
        <ele>750.8</ele>
        <time>2015-09-22T09:45:32Z</time>
      </trkpt>
      <trkpt lat="42.34598" lon="0.13319">
        <ele>750.9</ele>
        <time>2015-09-22T09:45:33Z</time>
      </trkpt>
      <trkpt lat="42.346" lon="0.13316">
        <ele>751</ele>
        <time>2015-09-22T09:45:34Z</time>
      </trkpt>
      <trkpt lat="42.34603" lon="0.13313">
        <ele>751.1</ele>
        <time>2015-09-22T09:45:35Z</time>
      </trkpt>
      <trkpt lat="42.34605" lon="0.1331">
        <ele>751.3</ele>
        <time>2015-09-22T09:45:36Z</time>
      </trkpt>
      <trkpt lat="42.34608" lon="0.13307">
        <ele>751.5</ele>
        <time>2015-09-22T09:45:37Z</time>
      </trkpt>
      <trkpt lat="42.34611" lon="0.13302">
        <ele>751.8</ele>
        <time>2015-09-22T09:45:39Z</time>
      </trkpt>
      <trkpt lat="42.34614" lon="0.13297">
        <ele>752.2</ele>
        <time>2015-09-22T09:45:41Z</time>
      </trkpt>
      <trkpt lat="42.34616" lon="0.13294">
        <ele>752.4</ele>
        <time>2015-09-22T09:45:42Z</time>
      </trkpt>
      <trkpt lat="42.34617" lon="0.1329">
        <ele>752.8</ele>
        <time>2015-09-22T09:45:43Z</time>
      </trkpt>
      <trkpt lat="42.34619" lon="0.13287">
        <ele>753.2</ele>
        <time>2015-09-22T09:45:44Z</time>
      </trkpt>
      <trkpt lat="42.3462" lon="0.13283">
        <ele>753.6</ele>
        <time>2015-09-22T09:45:45Z</time>
      </trkpt>
      <trkpt lat="42.34624" lon="0.13278">
        <ele>754.4</ele>
        <time>2015-09-22T09:45:47Z</time>
      </trkpt>
      <trkpt lat="42.34626" lon="0.13275">
        <ele>754.7</ele>
        <time>2015-09-22T09:45:48Z</time>
      </trkpt>
      <trkpt lat="42.34628" lon="0.13273">
        <ele>755</ele>
        <time>2015-09-22T09:45:49Z</time>
      </trkpt>
      <trkpt lat="42.34631" lon="0.13271">
        <ele>755.1</ele>
        <time>2015-09-22T09:45:50Z</time>
      </trkpt>
      <trkpt lat="42.34634" lon="0.13269">
        <ele>755.2</ele>
        <time>2015-09-22T09:45:51Z</time>
      </trkpt>
      <trkpt lat="42.34637" lon="0.13268">
        <ele>755.3</ele>
        <time>2015-09-22T09:45:52Z</time>
      </trkpt>
      <trkpt lat="42.3464" lon="0.13267">
        <ele>755.3</ele>
        <time>2015-09-22T09:45:53Z</time>
      </trkpt>
      <trkpt lat="42.34642" lon="0.13266">
        <ele>755.4</ele>
        <time>2015-09-22T09:45:54Z</time>
      </trkpt>
      <trkpt lat="42.34646" lon="0.13264">
        <ele>755.4</ele>
        <time>2015-09-22T09:45:56Z</time>
      </trkpt>
      <trkpt lat="42.3465" lon="0.13265">
        <ele>755.3</ele>
        <time>2015-09-22T09:45:58Z</time>
      </trkpt>
      <trkpt lat="42.34653" lon="0.13263">
        <ele>755.4</ele>
        <time>2015-09-22T09:46:00Z</time>
      </trkpt>
      <trkpt lat="42.34656" lon="0.13261">
        <ele>755.5</ele>
        <time>2015-09-22T09:46:02Z</time>
      </trkpt>
      <trkpt lat="42.34659" lon="0.13259">
        <ele>755.7</ele>
        <time>2015-09-22T09:46:04Z</time>
      </trkpt>
      <trkpt lat="42.34663" lon="0.13257">
        <ele>755.9</ele>
        <time>2015-09-22T09:46:06Z</time>
      </trkpt>
      <trkpt lat="42.34667" lon="0.13255">
        <ele>756</ele>
        <time>2015-09-22T09:46:08Z</time>
      </trkpt>
      <trkpt lat="42.34671" lon="0.13254">
        <ele>756</ele>
        <time>2015-09-22T09:46:10Z</time>
      </trkpt>
      <trkpt lat="42.34675" lon="0.13252">
        <ele>756.1</ele>
        <time>2015-09-22T09:46:12Z</time>
      </trkpt>
      <trkpt lat="42.34679" lon="0.13251">
        <ele>756.1</ele>
        <time>2015-09-22T09:46:14Z</time>
      </trkpt>
      <trkpt lat="42.34682" lon="0.1325">
        <ele>756.1</ele>
        <time>2015-09-22T09:46:16Z</time>
      </trkpt>
      <trkpt lat="42.34686" lon="0.13248">
        <ele>756.2</ele>
        <time>2015-09-22T09:46:18Z</time>
      </trkpt>
      <trkpt lat="42.34689" lon="0.13246">
        <ele>756.3</ele>
        <time>2015-09-22T09:46:20Z</time>
      </trkpt>
      <trkpt lat="42.34693" lon="0.13244">
        <ele>756.5</ele>
        <time>2015-09-22T09:46:22Z</time>
      </trkpt>
      <trkpt lat="42.34696" lon="0.13242">
        <ele>756.7</ele>
        <time>2015-09-22T09:46:24Z</time>
      </trkpt>
      <trkpt lat="42.34699" lon="0.1324">
        <ele>756.8</ele>
        <time>2015-09-22T09:46:26Z</time>
      </trkpt>
      <trkpt lat="42.34702" lon="0.13237">
        <ele>757</ele>
        <time>2015-09-22T09:46:28Z</time>
      </trkpt>
      <trkpt lat="42.34705" lon="0.13234">
        <ele>757.3</ele>
        <time>2015-09-22T09:46:30Z</time>
      </trkpt>
      <trkpt lat="42.34707" lon="0.1323">
        <ele>757.7</ele>
        <time>2015-09-22T09:46:32Z</time>
      </trkpt>
      <trkpt lat="42.34709" lon="0.13225">
        <ele>758.2</ele>
        <time>2015-09-22T09:46:34Z</time>
      </trkpt>
      <trkpt lat="42.34711" lon="0.13221">
        <ele>758.6</ele>
        <time>2015-09-22T09:46:36Z</time>
      </trkpt>
      <trkpt lat="42.34713" lon="0.13216">
        <ele>759</ele>
        <time>2015-09-22T09:46:37Z</time>
      </trkpt>
      <trkpt lat="42.34715" lon="0.13213">
        <ele>759.3</ele>
        <time>2015-09-22T09:46:38Z</time>
      </trkpt>
      <trkpt lat="42.34717" lon="0.1321">
        <ele>759.5</ele>
        <time>2015-09-22T09:46:39Z</time>
      </trkpt>
      <trkpt lat="42.3472" lon="0.13208">
        <ele>759.6</ele>
        <time>2015-09-22T09:46:40Z</time>
      </trkpt>
      <trkpt lat="42.34725" lon="0.13206">
        <ele>759.5</ele>
        <time>2015-09-22T09:46:42Z</time>
      </trkpt>
      <trkpt lat="42.34728" lon="0.13203">
        <ele>759.5</ele>
        <time>2015-09-22T09:46:44Z</time>
      </trkpt>
      <trkpt lat="42.3473" lon="0.13199">
        <ele>759.5</ele>
        <time>2015-09-22T09:46:46Z</time>
      </trkpt>
      <trkpt lat="42.34732" lon="0.13193">
        <ele>759.6</ele>
        <time>2015-09-22T09:46:48Z</time>
      </trkpt>
      <trkpt lat="42.34734" lon="0.13187">
        <ele>759.6</ele>
        <time>2015-09-22T09:46:50Z</time>
      </trkpt>
      <trkpt lat="42.34737" lon="0.13183">
        <ele>759.6</ele>
        <time>2015-09-22T09:46:52Z</time>
      </trkpt>
      <trkpt lat="42.3474" lon="0.13179">
        <ele>759.5</ele>
        <time>2015-09-22T09:46:54Z</time>
      </trkpt>
      <trkpt lat="42.34742" lon="0.13176">
        <ele>759.4</ele>
        <time>2015-09-22T09:46:56Z</time>
      </trkpt>
      <trkpt lat="42.34743" lon="0.13171">
        <ele>759.4</ele>
        <time>2015-09-22T09:46:58Z</time>
      </trkpt>
      <trkpt lat="42.34745" lon="0.13165">
        <ele>759.4</ele>
        <time>2015-09-22T09:47:00Z</time>
      </trkpt>
      <trkpt lat="42.34746" lon="0.13159">
        <ele>759.4</ele>
        <time>2015-09-22T09:47:02Z</time>
      </trkpt>
      <trkpt lat="42.34748" lon="0.13152">
        <ele>759.4</ele>
        <time>2015-09-22T09:47:04Z</time>
      </trkpt>
      <trkpt lat="42.34748" lon="0.13145">
        <ele>759.4</ele>
        <time>2015-09-22T09:47:06Z</time>
      </trkpt>
      <trkpt lat="42.34748" lon="0.13141">
        <ele>759.5</ele>
        <time>2015-09-22T09:47:07Z</time>
      </trkpt>
      <trkpt lat="42.34747" lon="0.13138">
        <ele>759.6</ele>
        <time>2015-09-22T09:47:08Z</time>
      </trkpt>
      <trkpt lat="42.34746" lon="0.13134">
        <ele>759.8</ele>
        <time>2015-09-22T09:47:09Z</time>
      </trkpt>
      <trkpt lat="42.34745" lon="0.1313">
        <ele>760</ele>
        <time>2015-09-22T09:47:10Z</time>
      </trkpt>
      <trkpt lat="42.34744" lon="0.13125">
        <ele>760.2</ele>
        <time>2015-09-22T09:47:11Z</time>
      </trkpt>
      <trkpt lat="42.34743" lon="0.13121">
        <ele>760.6</ele>
        <time>2015-09-22T09:47:12Z</time>
      </trkpt>
      <trkpt lat="42.34742" lon="0.13117">
        <ele>760.9</ele>
        <time>2015-09-22T09:47:13Z</time>
      </trkpt>
      <trkpt lat="42.34742" lon="0.13112">
        <ele>761.3</ele>
        <time>2015-09-22T09:47:14Z</time>
      </trkpt>
      <trkpt lat="42.34742" lon="0.13107">
        <ele>761.6</ele>
        <time>2015-09-22T09:47:15Z</time>
      </trkpt>
      <trkpt lat="42.34741" lon="0.13103">
        <ele>762</ele>
        <time>2015-09-22T09:47:16Z</time>
      </trkpt>
      <trkpt lat="42.34741" lon="0.13098">
        <ele>762.3</ele>
        <time>2015-09-22T09:47:17Z</time>
      </trkpt>
      <trkpt lat="42.34741" lon="0.13093">
        <ele>762.7</ele>
        <time>2015-09-22T09:47:18Z</time>
      </trkpt>
      <trkpt lat="42.34741" lon="0.13087">
        <ele>763.1</ele>
        <time>2015-09-22T09:47:19Z</time>
      </trkpt>
      <trkpt lat="42.34741" lon="0.13081">
        <ele>763.4</ele>
        <time>2015-09-22T09:47:20Z</time>
      </trkpt>
      <trkpt lat="42.34742" lon="0.13075">
        <ele>763.7</ele>
        <time>2015-09-22T09:47:21Z</time>
      </trkpt>
      <trkpt lat="42.34742" lon="0.1307">
        <ele>764</ele>
        <time>2015-09-22T09:47:22Z</time>
      </trkpt>
      <trkpt lat="42.34741" lon="0.13065">
        <ele>764.5</ele>
        <time>2015-09-22T09:47:23Z</time>
      </trkpt>
      <trkpt lat="42.3474" lon="0.1306">
        <ele>765.1</ele>
        <time>2015-09-22T09:47:24Z</time>
      </trkpt>
      <trkpt lat="42.34735" lon="0.13052">
        <ele>766.4</ele>
        <time>2015-09-22T09:47:25Z</time>
      </trkpt>
      <trkpt lat="42.34734" lon="0.13047">
        <ele>767.1</ele>
        <time>2015-09-22T09:47:26Z</time>
      </trkpt>
      <trkpt lat="42.34733" lon="0.13041">
        <ele>767.5</ele>
        <time>2015-09-22T09:47:27Z</time>
      </trkpt>
      <trkpt lat="42.34733" lon="0.13037">
        <ele>767.3</ele>
        <time>2015-09-22T09:47:28Z</time>
      </trkpt>
      <trkpt lat="42.34733" lon="0.13032">
        <ele>767.1</ele>
        <time>2015-09-22T09:47:29Z</time>
      </trkpt>
      <trkpt lat="42.34732" lon="0.13028">
        <ele>767</ele>
        <time>2015-09-22T09:47:30Z</time>
      </trkpt>
      <trkpt lat="42.34733" lon="0.13023">
        <ele>766.8</ele>
        <time>2015-09-22T09:47:31Z</time>
      </trkpt>
      <trkpt lat="42.34733" lon="0.13018">
        <ele>766.5</ele>
        <time>2015-09-22T09:47:32Z</time>
      </trkpt>
      <trkpt lat="42.34735" lon="0.13013">
        <ele>765.9</ele>
        <time>2015-09-22T09:47:33Z</time>
      </trkpt>
      <trkpt lat="42.34736" lon="0.13007">
        <ele>765.4</ele>
        <time>2015-09-22T09:47:34Z</time>
      </trkpt>
      <trkpt lat="42.34738" lon="0.13002">
        <ele>765</ele>
        <time>2015-09-22T09:47:35Z</time>
      </trkpt>
      <trkpt lat="42.3474" lon="0.12997">
        <ele>764.5</ele>
        <time>2015-09-22T09:47:36Z</time>
      </trkpt>
      <trkpt lat="42.34742" lon="0.12993">
        <ele>763.9</ele>
        <time>2015-09-22T09:47:37Z</time>
      </trkpt>
      <trkpt lat="42.34745" lon="0.12989">
        <ele>763.4</ele>
        <time>2015-09-22T09:47:38Z</time>
      </trkpt>
      <trkpt lat="42.34747" lon="0.12984">
        <ele>762.9</ele>
        <time>2015-09-22T09:47:39Z</time>
      </trkpt>
      <trkpt lat="42.34748" lon="0.12981">
        <ele>762.6</ele>
        <time>2015-09-22T09:47:40Z</time>
      </trkpt>
      <trkpt lat="42.34749" lon="0.12977">
        <ele>762.3</ele>
        <time>2015-09-22T09:47:41Z</time>
      </trkpt>
      <trkpt lat="42.34749" lon="0.12972">
        <ele>762.1</ele>
        <time>2015-09-22T09:47:42Z</time>
      </trkpt>
      <trkpt lat="42.3475" lon="0.12968">
        <ele>761.9</ele>
        <time>2015-09-22T09:47:43Z</time>
      </trkpt>
      <trkpt lat="42.3475" lon="0.12964">
        <ele>761.7</ele>
        <time>2015-09-22T09:47:44Z</time>
      </trkpt>
      <trkpt lat="42.3475" lon="0.12959">
        <ele>761.5</ele>
        <time>2015-09-22T09:47:45Z</time>
      </trkpt>
      <trkpt lat="42.3475" lon="0.12954">
        <ele>761.2</ele>
        <time>2015-09-22T09:47:46Z</time>
      </trkpt>
      <trkpt lat="42.3475" lon="0.1295">
        <ele>760.8</ele>
        <time>2015-09-22T09:47:47Z</time>
      </trkpt>
      <trkpt lat="42.3475" lon="0.12946">
        <ele>760.5</ele>
        <time>2015-09-22T09:47:48Z</time>
      </trkpt>
      <trkpt lat="42.3475" lon="0.12942">
        <ele>760.2</ele>
        <time>2015-09-22T09:47:49Z</time>
      </trkpt>
      <trkpt lat="42.34751" lon="0.12934">
        <ele>759.6</ele>
        <time>2015-09-22T09:47:51Z</time>
      </trkpt>
      <trkpt lat="42.34751" lon="0.12929">
        <ele>759.1</ele>
        <time>2015-09-22T09:47:52Z</time>
      </trkpt>
      <trkpt lat="42.34754" lon="0.12922">
        <ele>758.4</ele>
        <time>2015-09-22T09:47:53Z</time>
      </trkpt>
      <trkpt lat="42.34757" lon="0.12919">
        <ele>758</ele>
        <time>2015-09-22T09:47:54Z</time>
      </trkpt>
      <trkpt lat="42.34761" lon="0.12916">
        <ele>757.6</ele>
        <time>2015-09-22T09:47:55Z</time>
      </trkpt>
      <trkpt lat="42.34765" lon="0.12912">
        <ele>757.2</ele>
        <time>2015-09-22T09:47:56Z</time>
      </trkpt>
      <trkpt lat="42.34767" lon="0.12908">
        <ele>756.9</ele>
        <time>2015-09-22T09:47:57Z</time>
      </trkpt>
      <trkpt lat="42.3477" lon="0.12905">
        <ele>756.7</ele>
        <time>2015-09-22T09:47:58Z</time>
      </trkpt>
      <trkpt lat="42.34773" lon="0.12901">
        <ele>756.5</ele>
        <time>2015-09-22T09:47:59Z</time>
      </trkpt>
      <trkpt lat="42.34776" lon="0.12899">
        <ele>756.3</ele>
        <time>2015-09-22T09:48:00Z</time>
      </trkpt>
      <trkpt lat="42.34778" lon="0.12896">
        <ele>756.2</ele>
        <time>2015-09-22T09:48:02Z</time>
      </trkpt>
      <trkpt lat="42.34781" lon="0.12893">
        <ele>756.1</ele>
        <time>2015-09-22T09:48:15Z</time>
      </trkpt>
      <trkpt lat="42.34784" lon="0.12891">
        <ele>756</ele>
        <time>2015-09-22T09:48:18Z</time>
      </trkpt>
      <trkpt lat="42.34787" lon="0.1289">
        <ele>756</ele>
        <time>2015-09-22T09:48:21Z</time>
      </trkpt>
      <trkpt lat="42.34788" lon="0.12885">
        <ele>756</ele>
        <time>2015-09-22T09:48:25Z</time>
      </trkpt>
      <trkpt lat="42.3479" lon="0.12878">
        <ele>756</ele>
        <time>2015-09-22T09:48:28Z</time>
      </trkpt>
      <trkpt lat="42.34791" lon="0.12873">
        <ele>756</ele>
        <time>2015-09-22T09:48:30Z</time>
      </trkpt>
      <trkpt lat="42.34792" lon="0.12868">
        <ele>756</ele>
        <time>2015-09-22T09:48:32Z</time>
      </trkpt>
      <trkpt lat="42.34796" lon="0.12864">
        <ele>755.8</ele>
        <time>2015-09-22T09:48:34Z</time>
      </trkpt>
      <trkpt lat="42.34798" lon="0.12862">
        <ele>755.6</ele>
        <time>2015-09-22T09:48:35Z</time>
      </trkpt>
      <trkpt lat="42.34801" lon="0.1286">
        <ele>755.3</ele>
        <time>2015-09-22T09:48:36Z</time>
      </trkpt>
      <trkpt lat="42.34804" lon="0.12858">
        <ele>755.1</ele>
        <time>2015-09-22T09:48:37Z</time>
      </trkpt>
      <trkpt lat="42.34809" lon="0.12856">
        <ele>754.8</ele>
        <time>2015-09-22T09:48:39Z</time>
      </trkpt>
      <trkpt lat="42.34812" lon="0.12855">
        <ele>754.7</ele>
        <time>2015-09-22T09:48:40Z</time>
      </trkpt>
      <trkpt lat="42.34814" lon="0.12855">
        <ele>754.5</ele>
        <time>2015-09-22T09:48:41Z</time>
      </trkpt>
      <trkpt lat="42.3482" lon="0.12855">
        <ele>754</ele>
        <time>2015-09-22T09:48:43Z</time>
      </trkpt>
      <trkpt lat="42.34825" lon="0.12854">
        <ele>753.7</ele>
        <time>2015-09-22T09:48:45Z</time>
      </trkpt>
      <trkpt lat="42.3483" lon="0.12853">
        <ele>753.4</ele>
        <time>2015-09-22T09:48:47Z</time>
      </trkpt>
      <trkpt lat="42.34832" lon="0.12852">
        <ele>753.3</ele>
        <time>2015-09-22T09:48:48Z</time>
      </trkpt>
      <trkpt lat="42.34835" lon="0.1285">
        <ele>753.3</ele>
        <time>2015-09-22T09:48:49Z</time>
      </trkpt>
      <trkpt lat="42.34838" lon="0.12848">
        <ele>753.3</ele>
        <time>2015-09-22T09:48:50Z</time>
      </trkpt>
      <trkpt lat="42.3484" lon="0.12847">
        <ele>753.3</ele>
        <time>2015-09-22T09:48:51Z</time>
      </trkpt>
      <trkpt lat="42.34843" lon="0.12846">
        <ele>753.2</ele>
        <time>2015-09-22T09:48:52Z</time>
      </trkpt>
      <trkpt lat="42.34846" lon="0.12847">
        <ele>752.9</ele>
        <time>2015-09-22T09:48:53Z</time>
      </trkpt>
      <trkpt lat="42.3485" lon="0.12849">
        <ele>752.4</ele>
        <time>2015-09-22T09:48:54Z</time>
      </trkpt>
      <trkpt lat="42.34854" lon="0.12853">
        <ele>751.6</ele>
        <time>2015-09-22T09:48:55Z</time>
      </trkpt>
      <trkpt lat="42.34857" lon="0.12857">
        <ele>750.7</ele>
        <time>2015-09-22T09:48:56Z</time>
      </trkpt>
      <trkpt lat="42.3486" lon="0.12861">
        <ele>749.8</ele>
        <time>2015-09-22T09:48:57Z</time>
      </trkpt>
      <trkpt lat="42.34863" lon="0.12865">
        <ele>749</ele>
        <time>2015-09-22T09:48:58Z</time>
      </trkpt>
      <trkpt lat="42.34865" lon="0.12869">
        <ele>748.2</ele>
        <time>2015-09-22T09:48:59Z</time>
      </trkpt>
      <trkpt lat="42.34863" lon="0.12875">
        <ele>747.4</ele>
        <time>2015-09-22T09:49:01Z</time>
      </trkpt>
      <trkpt lat="42.34861" lon="0.12881">
        <ele>747.3</ele>
        <time>2015-09-22T09:49:03Z</time>
      </trkpt>
      <trkpt lat="42.34861" lon="0.12885">
        <ele>747</ele>
        <time>2015-09-22T09:49:05Z</time>
      </trkpt>
      <trkpt lat="42.34863" lon="0.12888">
        <ele>746.6</ele>
        <time>2015-09-22T09:49:16Z</time>
      </trkpt>
      <trkpt lat="42.34864" lon="0.12891">
        <ele>746.1</ele>
        <time>2015-09-22T09:49:20Z</time>
      </trkpt>
      <trkpt lat="42.34866" lon="0.12894">
        <ele>745.6</ele>
        <time>2015-09-22T09:49:25Z</time>
      </trkpt>
      <trkpt lat="42.34868" lon="0.12891">
        <ele>745.6</ele>
        <time>2015-09-22T09:49:30Z</time>
      </trkpt>
      <trkpt lat="42.34867" lon="0.12887">
        <ele>746</ele>
        <time>2015-09-22T09:49:35Z</time>
      </trkpt>
      <trkpt lat="42.34867" lon="0.12883">
        <ele>746.3</ele>
        <time>2015-09-22T09:49:40Z</time>
      </trkpt>
      <trkpt lat="42.3487" lon="0.12881">
        <ele>746.2</ele>
        <time>2015-09-22T09:49:45Z</time>
      </trkpt>
      <trkpt lat="42.34873" lon="0.12881">
        <ele>745.7</ele>
        <time>2015-09-22T09:49:49Z</time>
      </trkpt>
      <trkpt lat="42.34876" lon="0.12882">
        <ele>745.5</ele>
        <time>2015-09-22T09:49:53Z</time>
      </trkpt>
      <trkpt lat="42.34882" lon="0.12885">
        <ele>745.7</ele>
        <time>2015-09-22T09:50:12Z</time>
      </trkpt>
      <trkpt lat="42.34885" lon="0.12889">
        <ele>745.7</ele>
        <time>2015-09-22T09:50:15Z</time>
      </trkpt>
      <trkpt lat="42.34887" lon="0.12893">
        <ele>745.7</ele>
        <time>2015-09-22T09:50:17Z</time>
      </trkpt>
      <trkpt lat="42.34888" lon="0.12897">
        <ele>745.5</ele>
        <time>2015-09-22T09:50:19Z</time>
      </trkpt>
      <trkpt lat="42.3489" lon="0.12902">
        <ele>745.3</ele>
        <time>2015-09-22T09:50:21Z</time>
      </trkpt>
      <trkpt lat="42.34891" lon="0.12906">
        <ele>745.2</ele>
        <time>2015-09-22T09:50:23Z</time>
      </trkpt>
      <trkpt lat="42.34893" lon="0.12909">
        <ele>745.2</ele>
        <time>2015-09-22T09:50:25Z</time>
      </trkpt>
      <trkpt lat="42.34896" lon="0.12906">
        <ele>745.7</ele>
        <time>2015-09-22T09:50:33Z</time>
      </trkpt>
      <trkpt lat="42.34897" lon="0.12903">
        <ele>746</ele>
        <time>2015-09-22T09:50:38Z</time>
      </trkpt>
      <trkpt lat="42.34899" lon="0.12899">
        <ele>746.5</ele>
        <time>2015-09-22T09:50:44Z</time>
      </trkpt>
      <trkpt lat="42.34901" lon="0.12896">
        <ele>746.9</ele>
        <time>2015-09-22T09:50:46Z</time>
      </trkpt>
      <trkpt lat="42.34902" lon="0.12892">
        <ele>747.2</ele>
        <time>2015-09-22T09:50:48Z</time>
      </trkpt>
      <trkpt lat="42.34903" lon="0.12888">
        <ele>747.5</ele>
        <time>2015-09-22T09:50:50Z</time>
      </trkpt>
      <trkpt lat="42.34904" lon="0.12885">
        <ele>747.8</ele>
        <time>2015-09-22T09:50:52Z</time>
      </trkpt>
      <trkpt lat="42.34907" lon="0.12883">
        <ele>748.2</ele>
        <time>2015-09-22T09:50:54Z</time>
      </trkpt>
      <trkpt lat="42.34909" lon="0.12882">
        <ele>748.5</ele>
        <time>2015-09-22T09:50:56Z</time>
      </trkpt>
      <trkpt lat="42.34912" lon="0.12882">
        <ele>748.8</ele>
        <time>2015-09-22T09:50:58Z</time>
      </trkpt>
      <trkpt lat="42.34915" lon="0.12883">
        <ele>748.9</ele>
        <time>2015-09-22T09:51:03Z</time>
      </trkpt>
      <trkpt lat="42.34917" lon="0.12886">
        <ele>749</ele>
        <time>2015-09-22T09:51:08Z</time>
      </trkpt>
      <trkpt lat="42.34919" lon="0.1289">
        <ele>749</ele>
        <time>2015-09-22T09:51:12Z</time>
      </trkpt>
      <trkpt lat="42.34922" lon="0.12893">
        <ele>749.1</ele>
        <time>2015-09-22T09:51:16Z</time>
      </trkpt>
      <trkpt lat="42.34924" lon="0.12895">
        <ele>749.3</ele>
        <time>2015-09-22T09:51:20Z</time>
      </trkpt>
      <trkpt lat="42.34926" lon="0.12899">
        <ele>749.3</ele>
        <time>2015-09-22T09:51:25Z</time>
      </trkpt>
      <trkpt lat="42.34929" lon="0.12902">
        <ele>749.5</ele>
        <time>2015-09-22T09:51:39Z</time>
      </trkpt>
      <trkpt lat="42.34932" lon="0.12905">
        <ele>749.8</ele>
        <time>2015-09-22T09:51:42Z</time>
      </trkpt>
      <trkpt lat="42.34936" lon="0.12905">
        <ele>750.2</ele>
        <time>2015-09-22T09:51:45Z</time>
      </trkpt>
      <trkpt lat="42.34939" lon="0.12904">
        <ele>750.6</ele>
        <time>2015-09-22T09:51:48Z</time>
      </trkpt>
      <trkpt lat="42.34943" lon="0.12903">
        <ele>751</ele>
        <time>2015-09-22T09:51:51Z</time>
      </trkpt>
      <trkpt lat="42.34946" lon="0.12902">
        <ele>751.4</ele>
        <time>2015-09-22T09:51:54Z</time>
      </trkpt>
      <trkpt lat="42.34949" lon="0.12902">
        <ele>751.7</ele>
        <time>2015-09-22T09:51:56Z</time>
      </trkpt>
      <trkpt lat="42.34953" lon="0.12902">
        <ele>752.1</ele>
        <time>2015-09-22T09:51:58Z</time>
      </trkpt>
      <trkpt lat="42.34956" lon="0.12902">
        <ele>752.5</ele>
        <time>2015-09-22T09:52:00Z</time>
      </trkpt>
      <trkpt lat="42.3496" lon="0.12904">
        <ele>753</ele>
        <time>2015-09-22T09:52:02Z</time>
      </trkpt>
      <trkpt lat="42.34964" lon="0.12906">
        <ele>753.7</ele>
        <time>2015-09-22T09:52:04Z</time>
      </trkpt>
      <trkpt lat="42.34967" lon="0.12908">
        <ele>754.3</ele>
        <time>2015-09-22T09:52:06Z</time>
      </trkpt>
      <trkpt lat="42.3497" lon="0.1291">
        <ele>754.8</ele>
        <time>2015-09-22T09:52:08Z</time>
      </trkpt>
      <trkpt lat="42.34973" lon="0.12912">
        <ele>755.4</ele>
        <time>2015-09-22T09:52:10Z</time>
      </trkpt>
      <trkpt lat="42.34975" lon="0.12913">
        <ele>755.9</ele>
        <time>2015-09-22T09:52:12Z</time>
      </trkpt>
      <trkpt lat="42.34978" lon="0.12915">
        <ele>756.5</ele>
        <time>2015-09-22T09:52:14Z</time>
      </trkpt>
      <trkpt lat="42.34981" lon="0.12918">
        <ele>757</ele>
        <time>2015-09-22T09:52:16Z</time>
      </trkpt>
      <trkpt lat="42.34985" lon="0.12921">
        <ele>757.6</ele>
        <time>2015-09-22T09:52:18Z</time>
      </trkpt>
      <trkpt lat="42.34989" lon="0.1292">
        <ele>758.4</ele>
        <time>2015-09-22T09:52:20Z</time>
      </trkpt>
      <trkpt lat="42.34992" lon="0.12919">
        <ele>759.2</ele>
        <time>2015-09-22T09:52:22Z</time>
      </trkpt>
      <trkpt lat="42.34996" lon="0.12917">
        <ele>759.9</ele>
        <time>2015-09-22T09:52:24Z</time>
      </trkpt>
      <trkpt lat="42.34999" lon="0.12916">
        <ele>760.6</ele>
        <time>2015-09-22T09:52:26Z</time>
      </trkpt>
      <trkpt lat="42.35003" lon="0.12916">
        <ele>761.3</ele>
        <time>2015-09-22T09:52:28Z</time>
      </trkpt>
      <trkpt lat="42.35006" lon="0.12915">
        <ele>762</ele>
        <time>2015-09-22T09:52:30Z</time>
      </trkpt>
      <trkpt lat="42.3501" lon="0.12914">
        <ele>762.7</ele>
        <time>2015-09-22T09:52:32Z</time>
      </trkpt>
      <trkpt lat="42.35014" lon="0.12913">
        <ele>763.5</ele>
        <time>2015-09-22T09:52:34Z</time>
      </trkpt>
      <trkpt lat="42.35018" lon="0.12911">
        <ele>764.4</ele>
        <time>2015-09-22T09:52:36Z</time>
      </trkpt>
      <trkpt lat="42.35022" lon="0.1291">
        <ele>765.3</ele>
        <time>2015-09-22T09:52:38Z</time>
      </trkpt>
      <trkpt lat="42.35028" lon="0.12908">
        <ele>766.4</ele>
        <time>2015-09-22T09:52:40Z</time>
      </trkpt>
      <trkpt lat="42.3503" lon="0.12908">
        <ele>767</ele>
        <time>2015-09-22T09:52:41Z</time>
      </trkpt>
      <trkpt lat="42.35036" lon="0.12907">
        <ele>768</ele>
        <time>2015-09-22T09:52:43Z</time>
      </trkpt>
      <trkpt lat="42.35041" lon="0.12907">
        <ele>769.1</ele>
        <time>2015-09-22T09:52:45Z</time>
      </trkpt>
      <trkpt lat="42.35046" lon="0.12908">
        <ele>769.8</ele>
        <time>2015-09-22T09:52:47Z</time>
      </trkpt>
      <trkpt lat="42.35051" lon="0.12909">
        <ele>770.3</ele>
        <time>2015-09-22T09:52:49Z</time>
      </trkpt>
      <trkpt lat="42.35055" lon="0.1291">
        <ele>770.8</ele>
        <time>2015-09-22T09:52:51Z</time>
      </trkpt>
      <trkpt lat="42.35059" lon="0.12911">
        <ele>771.3</ele>
        <time>2015-09-22T09:52:53Z</time>
      </trkpt>
      <trkpt lat="42.35063" lon="0.12911">
        <ele>771.8</ele>
        <time>2015-09-22T09:52:56Z</time>
      </trkpt>
      <trkpt lat="42.35067" lon="0.1291">
        <ele>772.3</ele>
        <time>2015-09-22T09:52:59Z</time>
      </trkpt>
      <trkpt lat="42.35069" lon="0.12908">
        <ele>772.7</ele>
        <time>2015-09-22T09:53:01Z</time>
      </trkpt>
      <trkpt lat="42.35072" lon="0.12906">
        <ele>773.1</ele>
        <time>2015-09-22T09:53:03Z</time>
      </trkpt>
      <trkpt lat="42.35074" lon="0.12904">
        <ele>773.4</ele>
        <time>2015-09-22T09:53:05Z</time>
      </trkpt>
      <trkpt lat="42.35078" lon="0.12903">
        <ele>774</ele>
        <time>2015-09-22T09:53:08Z</time>
      </trkpt>
      <trkpt lat="42.35082" lon="0.12903">
        <ele>774.4</ele>
        <time>2015-09-22T09:53:11Z</time>
      </trkpt>
      <trkpt lat="42.35085" lon="0.12903">
        <ele>774.9</ele>
        <time>2015-09-22T09:53:14Z</time>
      </trkpt>
      <trkpt lat="42.35089" lon="0.12902">
        <ele>775.5</ele>
        <time>2015-09-22T09:53:17Z</time>
      </trkpt>
      <trkpt lat="42.35092" lon="0.129">
        <ele>775.9</ele>
        <time>2015-09-22T09:53:19Z</time>
      </trkpt>
      <trkpt lat="42.35094" lon="0.12897">
        <ele>776.2</ele>
        <time>2015-09-22T09:53:21Z</time>
      </trkpt>
      <trkpt lat="42.35096" lon="0.12894">
        <ele>776.6</ele>
        <time>2015-09-22T09:53:23Z</time>
      </trkpt>
      <trkpt lat="42.35098" lon="0.12891">
        <ele>777</ele>
        <time>2015-09-22T09:53:25Z</time>
      </trkpt>
      <trkpt lat="42.35101" lon="0.12888">
        <ele>777.4</ele>
        <time>2015-09-22T09:53:27Z</time>
      </trkpt>
      <trkpt lat="42.35103" lon="0.12887">
        <ele>777.8</ele>
        <time>2015-09-22T09:53:29Z</time>
      </trkpt>
      <trkpt lat="42.35106" lon="0.12887">
        <ele>778.1</ele>
        <time>2015-09-22T09:53:31Z</time>
      </trkpt>
      <trkpt lat="42.35109" lon="0.12887">
        <ele>778.5</ele>
        <time>2015-09-22T09:53:33Z</time>
      </trkpt>
      <trkpt lat="42.35113" lon="0.12888">
        <ele>778.9</ele>
        <time>2015-09-22T09:53:36Z</time>
      </trkpt>
      <trkpt lat="42.35116" lon="0.12887">
        <ele>779.3</ele>
        <time>2015-09-22T09:53:38Z</time>
      </trkpt>
      <trkpt lat="42.35118" lon="0.12885">
        <ele>779.7</ele>
        <time>2015-09-22T09:53:40Z</time>
      </trkpt>
      <trkpt lat="42.3512" lon="0.12882">
        <ele>780.1</ele>
        <time>2015-09-22T09:53:42Z</time>
      </trkpt>
      <trkpt lat="42.35122" lon="0.1288">
        <ele>780.5</ele>
        <time>2015-09-22T09:53:44Z</time>
      </trkpt>
      <trkpt lat="42.35125" lon="0.12877">
        <ele>780.9</ele>
        <time>2015-09-22T09:53:46Z</time>
      </trkpt>
      <trkpt lat="42.35129" lon="0.12874">
        <ele>781.3</ele>
        <time>2015-09-22T09:53:48Z</time>
      </trkpt>
      <trkpt lat="42.35133" lon="0.1287">
        <ele>781.6</ele>
        <time>2015-09-22T09:53:50Z</time>
      </trkpt>
      <trkpt lat="42.35135" lon="0.12865">
        <ele>781.7</ele>
        <time>2015-09-22T09:53:52Z</time>
      </trkpt>
      <trkpt lat="42.35138" lon="0.12861">
        <ele>781.9</ele>
        <time>2015-09-22T09:53:54Z</time>
      </trkpt>
      <trkpt lat="42.35138" lon="0.12857">
        <ele>781.8</ele>
        <time>2015-09-22T09:53:56Z</time>
      </trkpt>
      <trkpt lat="42.35136" lon="0.12853">
        <ele>781.5</ele>
        <time>2015-09-22T09:53:58Z</time>
      </trkpt>
      <trkpt lat="42.35135" lon="0.12849">
        <ele>781.3</ele>
        <time>2015-09-22T09:54:00Z</time>
      </trkpt>
      <trkpt lat="42.35137" lon="0.12846">
        <ele>781.4</ele>
        <time>2015-09-22T09:55:48Z</time>
      </trkpt>
      <trkpt lat="42.3514" lon="0.12843">
        <ele>781.6</ele>
        <time>2015-09-22T09:55:50Z</time>
      </trkpt>
      <trkpt lat="42.35144" lon="0.12841">
        <ele>781.9</ele>
        <time>2015-09-22T09:55:52Z</time>
      </trkpt>
      <trkpt lat="42.35147" lon="0.12839">
        <ele>782.1</ele>
        <time>2015-09-22T09:55:54Z</time>
      </trkpt>
      <trkpt lat="42.35149" lon="0.12836">
        <ele>782.2</ele>
        <time>2015-09-22T09:55:56Z</time>
      </trkpt>
      <trkpt lat="42.35152" lon="0.12834">
        <ele>782.5</ele>
        <time>2015-09-22T09:55:58Z</time>
      </trkpt>
      <trkpt lat="42.35156" lon="0.12834">
        <ele>782.8</ele>
        <time>2015-09-22T09:56:00Z</time>
      </trkpt>
      <trkpt lat="42.3516" lon="0.12834">
        <ele>783.2</ele>
        <time>2015-09-22T09:56:02Z</time>
      </trkpt>
      <trkpt lat="42.35163" lon="0.12834">
        <ele>783.4</ele>
        <time>2015-09-22T09:56:03Z</time>
      </trkpt>
      <trkpt lat="42.35165" lon="0.12834">
        <ele>783.7</ele>
        <time>2015-09-22T09:56:04Z</time>
      </trkpt>
      <trkpt lat="42.3517" lon="0.12833">
        <ele>784.1</ele>
        <time>2015-09-22T09:56:06Z</time>
      </trkpt>
      <trkpt lat="42.35175" lon="0.12832">
        <ele>784.4</ele>
        <time>2015-09-22T09:56:08Z</time>
      </trkpt>
      <trkpt lat="42.35178" lon="0.12829">
        <ele>784.6</ele>
        <time>2015-09-22T09:56:10Z</time>
      </trkpt>
      <trkpt lat="42.35181" lon="0.12825">
        <ele>784.7</ele>
        <time>2015-09-22T09:56:12Z</time>
      </trkpt>
      <trkpt lat="42.35185" lon="0.12825">
        <ele>785.1</ele>
        <time>2015-09-22T09:56:14Z</time>
      </trkpt>
      <trkpt lat="42.35189" lon="0.12826">
        <ele>785.5</ele>
        <time>2015-09-22T09:56:16Z</time>
      </trkpt>
      <trkpt lat="42.35192" lon="0.12827">
        <ele>785.8</ele>
        <time>2015-09-22T09:56:19Z</time>
      </trkpt>
      <trkpt lat="42.35195" lon="0.12828">
        <ele>786.1</ele>
        <time>2015-09-22T09:56:21Z</time>
      </trkpt>
      <trkpt lat="42.35199" lon="0.12827">
        <ele>786.5</ele>
        <time>2015-09-22T09:56:23Z</time>
      </trkpt>
      <trkpt lat="42.35203" lon="0.12826">
        <ele>786.7</ele>
        <time>2015-09-22T09:56:25Z</time>
      </trkpt>
      <trkpt lat="42.35206" lon="0.12824">
        <ele>786.9</ele>
        <time>2015-09-22T09:56:34Z</time>
      </trkpt>
      <trkpt lat="42.35209" lon="0.12821">
        <ele>787.1</ele>
        <time>2015-09-22T09:56:36Z</time>
      </trkpt>
      <trkpt lat="42.35212" lon="0.12817">
        <ele>787.2</ele>
        <time>2015-09-22T09:56:38Z</time>
      </trkpt>
      <trkpt lat="42.35215" lon="0.12812">
        <ele>787.2</ele>
        <time>2015-09-22T09:56:40Z</time>
      </trkpt>
      <trkpt lat="42.35217" lon="0.12808">
        <ele>787.3</ele>
        <time>2015-09-22T09:56:41Z</time>
      </trkpt>
      <trkpt lat="42.35219" lon="0.12805">
        <ele>787.4</ele>
        <time>2015-09-22T09:56:42Z</time>
      </trkpt>
      <trkpt lat="42.35221" lon="0.12801">
        <ele>787.5</ele>
        <time>2015-09-22T09:56:43Z</time>
      </trkpt>
      <trkpt lat="42.35223" lon="0.12799">
        <ele>787.6</ele>
        <time>2015-09-22T09:56:44Z</time>
      </trkpt>
      <trkpt lat="42.35225" lon="0.12796">
        <ele>787.7</ele>
        <time>2015-09-22T09:56:45Z</time>
      </trkpt>
      <trkpt lat="42.35228" lon="0.12794">
        <ele>787.9</ele>
        <time>2015-09-22T09:56:46Z</time>
      </trkpt>
      <trkpt lat="42.3523" lon="0.12791">
        <ele>788.1</ele>
        <time>2015-09-22T09:56:47Z</time>
      </trkpt>
      <trkpt lat="42.35232" lon="0.12788">
        <ele>788.3</ele>
        <time>2015-09-22T09:56:48Z</time>
      </trkpt>
      <trkpt lat="42.35234" lon="0.12785">
        <ele>788.5</ele>
        <time>2015-09-22T09:56:49Z</time>
      </trkpt>
      <trkpt lat="42.35236" lon="0.12782">
        <ele>788.6</ele>
        <time>2015-09-22T09:56:50Z</time>
      </trkpt>
      <trkpt lat="42.35237" lon="0.12779">
        <ele>788.8</ele>
        <time>2015-09-22T09:56:51Z</time>
      </trkpt>
      <trkpt lat="42.35238" lon="0.12775">
        <ele>788.9</ele>
        <time>2015-09-22T09:56:52Z</time>
      </trkpt>
      <trkpt lat="42.3524" lon="0.12772">
        <ele>789.1</ele>
        <time>2015-09-22T09:56:53Z</time>
      </trkpt>
      <trkpt lat="42.35242" lon="0.1277">
        <ele>789.3</ele>
        <time>2015-09-22T09:56:54Z</time>
      </trkpt>
      <trkpt lat="42.35244" lon="0.12767">
        <ele>789.6</ele>
        <time>2015-09-22T09:56:55Z</time>
      </trkpt>
      <trkpt lat="42.35246" lon="0.12764">
        <ele>789.8</ele>
        <time>2015-09-22T09:56:56Z</time>
      </trkpt>
      <trkpt lat="42.35248" lon="0.12761">
        <ele>790.1</ele>
        <time>2015-09-22T09:56:57Z</time>
      </trkpt>
      <trkpt lat="42.3525" lon="0.12758">
        <ele>790.4</ele>
        <time>2015-09-22T09:56:58Z</time>
      </trkpt>
      <trkpt lat="42.35252" lon="0.12754">
        <ele>790.7</ele>
        <time>2015-09-22T09:56:59Z</time>
      </trkpt>
      <trkpt lat="42.35253" lon="0.12751">
        <ele>790.9</ele>
        <time>2015-09-22T09:57:00Z</time>
      </trkpt>
      <trkpt lat="42.35255" lon="0.12748">
        <ele>791.2</ele>
        <time>2015-09-22T09:57:01Z</time>
      </trkpt>
      <trkpt lat="42.35256" lon="0.12744">
        <ele>791.4</ele>
        <time>2015-09-22T09:57:02Z</time>
      </trkpt>
      <trkpt lat="42.35257" lon="0.1274">
        <ele>791.6</ele>
        <time>2015-09-22T09:57:03Z</time>
      </trkpt>
      <trkpt lat="42.35259" lon="0.12737">
        <ele>791.9</ele>
        <time>2015-09-22T09:57:04Z</time>
      </trkpt>
      <trkpt lat="42.3526" lon="0.12734">
        <ele>792.2</ele>
        <time>2015-09-22T09:57:05Z</time>
      </trkpt>
      <trkpt lat="42.35265" lon="0.1273">
        <ele>792.9</ele>
        <time>2015-09-22T09:57:07Z</time>
      </trkpt>
      <trkpt lat="42.35267" lon="0.12728">
        <ele>793.4</ele>
        <time>2015-09-22T09:57:08Z</time>
      </trkpt>
      <trkpt lat="42.35269" lon="0.12725">
        <ele>793.8</ele>
        <time>2015-09-22T09:57:09Z</time>
      </trkpt>
      <trkpt lat="42.35271" lon="0.12722">
        <ele>794.1</ele>
        <time>2015-09-22T09:57:10Z</time>
      </trkpt>
      <trkpt lat="42.35273" lon="0.12718">
        <ele>794.5</ele>
        <time>2015-09-22T09:57:11Z</time>
      </trkpt>
      <trkpt lat="42.35274" lon="0.12713">
        <ele>794.9</ele>
        <time>2015-09-22T09:57:12Z</time>
      </trkpt>
      <trkpt lat="42.35275" lon="0.12708">
        <ele>795.3</ele>
        <time>2015-09-22T09:57:13Z</time>
      </trkpt>
      <trkpt lat="42.35277" lon="0.12704">
        <ele>795.6</ele>
        <time>2015-09-22T09:57:14Z</time>
      </trkpt>
      <trkpt lat="42.35278" lon="0.12699">
        <ele>795.9</ele>
        <time>2015-09-22T09:57:15Z</time>
      </trkpt>
      <trkpt lat="42.3528" lon="0.12695">
        <ele>796.2</ele>
        <time>2015-09-22T09:57:16Z</time>
      </trkpt>
      <trkpt lat="42.35281" lon="0.1269">
        <ele>796.6</ele>
        <time>2015-09-22T09:57:17Z</time>
      </trkpt>
      <trkpt lat="42.35283" lon="0.12686">
        <ele>797</ele>
        <time>2015-09-22T09:57:18Z</time>
      </trkpt>
      <trkpt lat="42.35285" lon="0.12683">
        <ele>797.5</ele>
        <time>2015-09-22T09:57:19Z</time>
      </trkpt>
      <trkpt lat="42.35288" lon="0.12679">
        <ele>798</ele>
        <time>2015-09-22T09:57:20Z</time>
      </trkpt>
      <trkpt lat="42.3529" lon="0.12676">
        <ele>798.5</ele>
        <time>2015-09-22T09:57:21Z</time>
      </trkpt>
      <trkpt lat="42.35293" lon="0.12672">
        <ele>798.9</ele>
        <time>2015-09-22T09:57:22Z</time>
      </trkpt>
      <trkpt lat="42.35296" lon="0.12668">
        <ele>799.2</ele>
        <time>2015-09-22T09:57:23Z</time>
      </trkpt>
      <trkpt lat="42.35299" lon="0.12664">
        <ele>799.5</ele>
        <time>2015-09-22T09:57:24Z</time>
      </trkpt>
      <trkpt lat="42.35302" lon="0.12661">
        <ele>799.9</ele>
        <time>2015-09-22T09:57:25Z</time>
      </trkpt>
      <trkpt lat="42.35305" lon="0.12658">
        <ele>800.2</ele>
        <time>2015-09-22T09:57:26Z</time>
      </trkpt>
      <trkpt lat="42.35308" lon="0.12654">
        <ele>800.6</ele>
        <time>2015-09-22T09:57:27Z</time>
      </trkpt>
      <trkpt lat="42.3531" lon="0.12651">
        <ele>800.9</ele>
        <time>2015-09-22T09:57:28Z</time>
      </trkpt>
      <trkpt lat="42.35313" lon="0.12647">
        <ele>801.3</ele>
        <time>2015-09-22T09:57:29Z</time>
      </trkpt>
      <trkpt lat="42.35315" lon="0.12644">
        <ele>801.6</ele>
        <time>2015-09-22T09:57:30Z</time>
      </trkpt>
      <trkpt lat="42.35317" lon="0.1264">
        <ele>802</ele>
        <time>2015-09-22T09:57:31Z</time>
      </trkpt>
      <trkpt lat="42.35318" lon="0.12636">
        <ele>802.3</ele>
        <time>2015-09-22T09:57:33Z</time>
      </trkpt>
      <trkpt lat="42.35318" lon="0.12631">
        <ele>802.6</ele>
        <time>2015-09-22T09:57:35Z</time>
      </trkpt>
      <trkpt lat="42.3532" lon="0.12627">
        <ele>803</ele>
        <time>2015-09-22T09:57:37Z</time>
      </trkpt>
      <trkpt lat="42.35322" lon="0.12623">
        <ele>803.1</ele>
        <time>2015-09-22T09:57:39Z</time>
      </trkpt>
      <trkpt lat="42.35324" lon="0.12619">
        <ele>803</ele>
        <time>2015-09-22T09:57:41Z</time>
      </trkpt>
      <trkpt lat="42.35327" lon="0.12615">
        <ele>802.9</ele>
        <time>2015-09-22T09:57:43Z</time>
      </trkpt>
      <trkpt lat="42.3533" lon="0.12611">
        <ele>802.9</ele>
        <time>2015-09-22T09:57:45Z</time>
      </trkpt>
      <trkpt lat="42.35333" lon="0.12607">
        <ele>803</ele>
        <time>2015-09-22T09:57:47Z</time>
      </trkpt>
      <trkpt lat="42.35336" lon="0.12603">
        <ele>803</ele>
        <time>2015-09-22T09:57:49Z</time>
      </trkpt>
      <trkpt lat="42.35339" lon="0.12598">
        <ele>802.9</ele>
        <time>2015-09-22T09:57:51Z</time>
      </trkpt>
      <trkpt lat="42.35342" lon="0.12593">
        <ele>802.8</ele>
        <time>2015-09-22T09:57:53Z</time>
      </trkpt>
      <trkpt lat="42.35345" lon="0.12588">
        <ele>802.7</ele>
        <time>2015-09-22T09:57:55Z</time>
      </trkpt>
      <trkpt lat="42.35348" lon="0.12584">
        <ele>802.6</ele>
        <time>2015-09-22T09:57:57Z</time>
      </trkpt>
      <trkpt lat="42.3535" lon="0.12579">
        <ele>802.4</ele>
        <time>2015-09-22T09:57:59Z</time>
      </trkpt>
      <trkpt lat="42.35352" lon="0.12574">
        <ele>802.2</ele>
        <time>2015-09-22T09:58:01Z</time>
      </trkpt>
      <trkpt lat="42.35353" lon="0.12569">
        <ele>801.9</ele>
        <time>2015-09-22T09:58:03Z</time>
      </trkpt>
      <trkpt lat="42.35354" lon="0.12564">
        <ele>801.5</ele>
        <time>2015-09-22T09:58:05Z</time>
      </trkpt>
      <trkpt lat="42.35354" lon="0.1256">
        <ele>801.3</ele>
        <time>2015-09-22T09:58:07Z</time>
      </trkpt>
      <trkpt lat="42.35355" lon="0.12555">
        <ele>800.9</ele>
        <time>2015-09-22T09:58:10Z</time>
      </trkpt>
      <trkpt lat="42.35356" lon="0.12552">
        <ele>800.8</ele>
        <time>2015-09-22T09:58:12Z</time>
      </trkpt>
      <trkpt lat="42.35358" lon="0.12549">
        <ele>800.7</ele>
        <time>2015-09-22T09:58:14Z</time>
      </trkpt>
      <trkpt lat="42.35361" lon="0.12548">
        <ele>801</ele>
        <time>2015-09-22T09:58:16Z</time>
      </trkpt>
      <trkpt lat="42.35364" lon="0.12548">
        <ele>801.4</ele>
        <time>2015-09-22T09:58:18Z</time>
      </trkpt>
      <trkpt lat="42.35367" lon="0.12547">
        <ele>801.6</ele>
        <time>2015-09-22T09:58:20Z</time>
      </trkpt>
      <trkpt lat="42.35371" lon="0.12545">
        <ele>801.8</ele>
        <time>2015-09-22T09:58:22Z</time>
      </trkpt>
      <trkpt lat="42.35375" lon="0.12544">
        <ele>802.2</ele>
        <time>2015-09-22T09:58:24Z</time>
      </trkpt>
      <trkpt lat="42.35378" lon="0.12543">
        <ele>802.4</ele>
        <time>2015-09-22T09:58:25Z</time>
      </trkpt>
      <trkpt lat="42.3538" lon="0.12542">
        <ele>802.6</ele>
        <time>2015-09-22T09:58:26Z</time>
      </trkpt>
      <trkpt lat="42.35383" lon="0.12541">
        <ele>802.7</ele>
        <time>2015-09-22T09:58:27Z</time>
      </trkpt>
      <trkpt lat="42.35386" lon="0.12539">
        <ele>802.9</ele>
        <time>2015-09-22T09:58:28Z</time>
      </trkpt>
      <trkpt lat="42.35388" lon="0.12538">
        <ele>803.1</ele>
        <time>2015-09-22T09:58:29Z</time>
      </trkpt>
      <trkpt lat="42.35391" lon="0.12537">
        <ele>803.3</ele>
        <time>2015-09-22T09:58:30Z</time>
      </trkpt>
      <trkpt lat="42.35394" lon="0.12535">
        <ele>803.5</ele>
        <time>2015-09-22T09:58:31Z</time>
      </trkpt>
      <trkpt lat="42.35396" lon="0.12534">
        <ele>803.6</ele>
        <time>2015-09-22T09:58:32Z</time>
      </trkpt>
      <trkpt lat="42.35399" lon="0.12532">
        <ele>803.8</ele>
        <time>2015-09-22T09:58:33Z</time>
      </trkpt>
      <trkpt lat="42.35402" lon="0.12531">
        <ele>804</ele>
        <time>2015-09-22T09:58:34Z</time>
      </trkpt>
      <trkpt lat="42.35404" lon="0.12528">
        <ele>804.2</ele>
        <time>2015-09-22T09:58:35Z</time>
      </trkpt>
      <trkpt lat="42.35406" lon="0.12526">
        <ele>804.3</ele>
        <time>2015-09-22T09:58:36Z</time>
      </trkpt>
      <trkpt lat="42.35409" lon="0.12523">
        <ele>804.3</ele>
        <time>2015-09-22T09:58:37Z</time>
      </trkpt>
      <trkpt lat="42.3541" lon="0.1252">
        <ele>804.4</ele>
        <time>2015-09-22T09:58:38Z</time>
      </trkpt>
      <trkpt lat="42.35412" lon="0.12517">
        <ele>804.4</ele>
        <time>2015-09-22T09:58:39Z</time>
      </trkpt>
      <trkpt lat="42.35413" lon="0.12514">
        <ele>804.4</ele>
        <time>2015-09-22T09:58:40Z</time>
      </trkpt>
      <trkpt lat="42.35415" lon="0.1251">
        <ele>804.3</ele>
        <time>2015-09-22T09:58:41Z</time>
      </trkpt>
      <trkpt lat="42.35416" lon="0.12507">
        <ele>804.3</ele>
        <time>2015-09-22T09:58:42Z</time>
      </trkpt>
      <trkpt lat="42.35417" lon="0.12503">
        <ele>804.2</ele>
        <time>2015-09-22T09:58:43Z</time>
      </trkpt>
      <trkpt lat="42.35418" lon="0.12499">
        <ele>804.1</ele>
        <time>2015-09-22T09:58:44Z</time>
      </trkpt>
      <trkpt lat="42.35419" lon="0.12493">
        <ele>804</ele>
        <time>2015-09-22T09:58:45Z</time>
      </trkpt>
      <trkpt lat="42.3542" lon="0.12487">
        <ele>803.8</ele>
        <time>2015-09-22T09:58:46Z</time>
      </trkpt>
      <trkpt lat="42.35422" lon="0.12481">
        <ele>803.7</ele>
        <time>2015-09-22T09:58:47Z</time>
      </trkpt>
      <trkpt lat="42.35423" lon="0.12473">
        <ele>803.6</ele>
        <time>2015-09-22T09:58:48Z</time>
      </trkpt>
      <trkpt lat="42.35425" lon="0.12466">
        <ele>803.5</ele>
        <time>2015-09-22T09:58:49Z</time>
      </trkpt>
      <trkpt lat="42.35426" lon="0.1246">
        <ele>803.5</ele>
        <time>2015-09-22T09:58:50Z</time>
      </trkpt>
      <trkpt lat="42.35428" lon="0.12453">
        <ele>804.1</ele>
        <time>2015-09-22T09:58:51Z</time>
      </trkpt>
      <trkpt lat="42.35429" lon="0.12447">
        <ele>804.7</ele>
        <time>2015-09-22T09:58:52Z</time>
      </trkpt>
      <trkpt lat="42.35429" lon="0.12439">
        <ele>805.1</ele>
        <time>2015-09-22T09:58:53Z</time>
      </trkpt>
      <trkpt lat="42.35429" lon="0.12432">
        <ele>805.4</ele>
        <time>2015-09-22T09:58:54Z</time>
      </trkpt>
      <trkpt lat="42.35428" lon="0.12424">
        <ele>805.5</ele>
        <time>2015-09-22T09:58:55Z</time>
      </trkpt>
      <trkpt lat="42.35426" lon="0.12417">
        <ele>805.4</ele>
        <time>2015-09-22T09:58:56Z</time>
      </trkpt>
      <trkpt lat="42.35424" lon="0.1241">
        <ele>805.2</ele>
        <time>2015-09-22T09:58:57Z</time>
      </trkpt>
      <trkpt lat="42.35421" lon="0.12403">
        <ele>805</ele>
        <time>2015-09-22T09:58:58Z</time>
      </trkpt>
      <trkpt lat="42.35417" lon="0.12401">
        <ele>804</ele>
        <time>2015-09-22T09:58:59Z</time>
      </trkpt>
      <trkpt lat="42.35414" lon="0.12398">
        <ele>803.5</ele>
        <time>2015-09-22T09:59:00Z</time>
      </trkpt>
      <trkpt lat="42.35412" lon="0.12394">
        <ele>803.1</ele>
        <time>2015-09-22T09:59:02Z</time>
      </trkpt>
      <trkpt lat="42.3541" lon="0.12389">
        <ele>802.8</ele>
        <time>2015-09-22T09:59:05Z</time>
      </trkpt>
      <trkpt lat="42.35409" lon="0.12386">
        <ele>802.4</ele>
        <time>2015-09-22T09:59:10Z</time>
      </trkpt>
      <trkpt lat="42.35407" lon="0.12383">
        <ele>802.2</ele>
        <time>2015-09-22T09:59:13Z</time>
      </trkpt>
      <trkpt lat="42.35406" lon="0.12378">
        <ele>802.1</ele>
        <time>2015-09-22T09:59:16Z</time>
      </trkpt>
      <trkpt lat="42.35405" lon="0.12374">
        <ele>801.8</ele>
        <time>2015-09-22T09:59:20Z</time>
      </trkpt>
      <trkpt lat="42.35402" lon="0.12371">
        <ele>801.6</ele>
        <time>2015-09-22T09:59:23Z</time>
      </trkpt>
      <trkpt lat="42.35401" lon="0.12367">
        <ele>801.5</ele>
        <time>2015-09-22T09:59:25Z</time>
      </trkpt>
      <trkpt lat="42.354" lon="0.12363">
        <ele>801.8</ele>
        <time>2015-09-22T09:59:27Z</time>
      </trkpt>
      <trkpt lat="42.35399" lon="0.12358">
        <ele>802.2</ele>
        <time>2015-09-22T09:59:29Z</time>
      </trkpt>
      <trkpt lat="42.35399" lon="0.12354">
        <ele>802.5</ele>
        <time>2015-09-22T09:59:31Z</time>
      </trkpt>
      <trkpt lat="42.35398" lon="0.12349">
        <ele>802.8</ele>
        <time>2015-09-22T09:59:33Z</time>
      </trkpt>
      <trkpt lat="42.35398" lon="0.12345">
        <ele>803.1</ele>
        <time>2015-09-22T09:59:35Z</time>
      </trkpt>
      <trkpt lat="42.35399" lon="0.12342">
        <ele>803.6</ele>
        <time>2015-09-22T09:59:41Z</time>
      </trkpt>
      <trkpt lat="42.354" lon="0.12337">
        <ele>804.4</ele>
        <time>2015-09-22T09:59:45Z</time>
      </trkpt>
      <trkpt lat="42.35401" lon="0.12333">
        <ele>805</ele>
        <time>2015-09-22T09:59:49Z</time>
      </trkpt>
      <trkpt lat="42.35402" lon="0.1233">
        <ele>805.7</ele>
        <time>2015-09-22T09:59:57Z</time>
      </trkpt>
      <trkpt lat="42.35403" lon="0.12326">
        <ele>806.2</ele>
        <time>2015-09-22T09:59:59Z</time>
      </trkpt>
      <trkpt lat="42.35404" lon="0.12321">
        <ele>807</ele>
        <time>2015-09-22T10:00:01Z</time>
      </trkpt>
      <trkpt lat="42.35405" lon="0.12317">
        <ele>807.7</ele>
        <time>2015-09-22T10:00:03Z</time>
      </trkpt>
      <trkpt lat="42.35407" lon="0.12312">
        <ele>808.5</ele>
        <time>2015-09-22T10:00:05Z</time>
      </trkpt>
      <trkpt lat="42.35408" lon="0.12308">
        <ele>809.2</ele>
        <time>2015-09-22T10:00:07Z</time>
      </trkpt>
      <trkpt lat="42.3541" lon="0.12304">
        <ele>809.9</ele>
        <time>2015-09-22T10:00:09Z</time>
      </trkpt>
      <trkpt lat="42.35411" lon="0.123">
        <ele>810.5</ele>
        <time>2015-09-22T10:00:11Z</time>
      </trkpt>
      <trkpt lat="42.35412" lon="0.12296">
        <ele>811.1</ele>
        <time>2015-09-22T10:00:13Z</time>
      </trkpt>
      <trkpt lat="42.35412" lon="0.12292">
        <ele>811.5</ele>
        <time>2015-09-22T10:00:15Z</time>
      </trkpt>
      <trkpt lat="42.35412" lon="0.12288">
        <ele>811.9</ele>
        <time>2015-09-22T10:00:18Z</time>
      </trkpt>
      <trkpt lat="42.35413" lon="0.12284">
        <ele>812.6</ele>
        <time>2015-09-22T10:00:23Z</time>
      </trkpt>
      <trkpt lat="42.35415" lon="0.1228">
        <ele>813.3</ele>
        <time>2015-09-22T10:00:27Z</time>
      </trkpt>
      <trkpt lat="42.35416" lon="0.12277">
        <ele>813.9</ele>
        <time>2015-09-22T10:00:32Z</time>
      </trkpt>
      <trkpt lat="42.35416" lon="0.12272">
        <ele>814.4</ele>
        <time>2015-09-22T10:00:38Z</time>
      </trkpt>
      <trkpt lat="42.35417" lon="0.12268">
        <ele>815.1</ele>
        <time>2015-09-22T10:00:46Z</time>
      </trkpt>
      <trkpt lat="42.35417" lon="0.12262">
        <ele>815.6</ele>
        <time>2015-09-22T10:00:49Z</time>
      </trkpt>
      <trkpt lat="42.35415" lon="0.12258">
        <ele>815.6</ele>
        <time>2015-09-22T10:00:52Z</time>
      </trkpt>
      <trkpt lat="42.35415" lon="0.12253">
        <ele>816.1</ele>
        <time>2015-09-22T10:00:55Z</time>
      </trkpt>
      <trkpt lat="42.35414" lon="0.1225">
        <ele>816.3</ele>
        <time>2015-09-22T10:01:02Z</time>
      </trkpt>
      <trkpt lat="42.35415" lon="0.12245">
        <ele>816.8</ele>
        <time>2015-09-22T10:01:07Z</time>
      </trkpt>
      <trkpt lat="42.35415" lon="0.12241">
        <ele>817.3</ele>
        <time>2015-09-22T10:01:11Z</time>
      </trkpt>
      <trkpt lat="42.35417" lon="0.12238">
        <ele>818.1</ele>
        <time>2015-09-22T10:01:21Z</time>
      </trkpt>
      <trkpt lat="42.35419" lon="0.12235">
        <ele>818.8</ele>
        <time>2015-09-22T10:01:23Z</time>
      </trkpt>
      <trkpt lat="42.35421" lon="0.12232">
        <ele>819.5</ele>
        <time>2015-09-22T10:01:25Z</time>
      </trkpt>
      <trkpt lat="42.35422" lon="0.12229">
        <ele>820.2</ele>
        <time>2015-09-22T10:01:27Z</time>
      </trkpt>
      <trkpt lat="42.35423" lon="0.12224">
        <ele>820.8</ele>
        <time>2015-09-22T10:01:30Z</time>
      </trkpt>
      <trkpt lat="42.35424" lon="0.1222">
        <ele>821.4</ele>
        <time>2015-09-22T10:01:36Z</time>
      </trkpt>
      <trkpt lat="42.35425" lon="0.12215">
        <ele>822.4</ele>
        <time>2015-09-22T10:01:39Z</time>
      </trkpt>
      <trkpt lat="42.35426" lon="0.1221">
        <ele>823</ele>
        <time>2015-09-22T10:01:41Z</time>
      </trkpt>
      <trkpt lat="42.35425" lon="0.12206">
        <ele>822.9</ele>
        <time>2015-09-22T10:01:43Z</time>
      </trkpt>
      <trkpt lat="42.35423" lon="0.12202">
        <ele>822.5</ele>
        <time>2015-09-22T10:01:45Z</time>
      </trkpt>
      <trkpt lat="42.35423" lon="0.12199">
        <ele>822.4</ele>
        <time>2015-09-22T10:01:47Z</time>
      </trkpt>
      <trkpt lat="42.35422" lon="0.12195">
        <ele>822.2</ele>
        <time>2015-09-22T10:01:49Z</time>
      </trkpt>
      <trkpt lat="42.35422" lon="0.12191">
        <ele>822.1</ele>
        <time>2015-09-22T10:01:51Z</time>
      </trkpt>
      <trkpt lat="42.35422" lon="0.12187">
        <ele>822</ele>
        <time>2015-09-22T10:01:53Z</time>
      </trkpt>
      <trkpt lat="42.35421" lon="0.12183">
        <ele>821.8</ele>
        <time>2015-09-22T10:01:55Z</time>
      </trkpt>
      <trkpt lat="42.35421" lon="0.12179">
        <ele>821.6</ele>
        <time>2015-09-22T10:01:57Z</time>
      </trkpt>
      <trkpt lat="42.35421" lon="0.12174">
        <ele>821.6</ele>
        <time>2015-09-22T10:01:59Z</time>
      </trkpt>
      <trkpt lat="42.35422" lon="0.1217">
        <ele>821.8</ele>
        <time>2015-09-22T10:02:01Z</time>
      </trkpt>
      <trkpt lat="42.35422" lon="0.12165">
        <ele>821.9</ele>
        <time>2015-09-22T10:02:03Z</time>
      </trkpt>
      <trkpt lat="42.35422" lon="0.12158">
        <ele>821.6</ele>
        <time>2015-09-22T10:02:05Z</time>
      </trkpt>
      <trkpt lat="42.35422" lon="0.12153">
        <ele>821.6</ele>
        <time>2015-09-22T10:02:06Z</time>
      </trkpt>
      <trkpt lat="42.35423" lon="0.12148">
        <ele>821.8</ele>
        <time>2015-09-22T10:02:07Z</time>
      </trkpt>
      <trkpt lat="42.35424" lon="0.12144">
        <ele>822</ele>
        <time>2015-09-22T10:02:08Z</time>
      </trkpt>
      <trkpt lat="42.35424" lon="0.12139">
        <ele>822.2</ele>
        <time>2015-09-22T10:02:09Z</time>
      </trkpt>
      <trkpt lat="42.35425" lon="0.12134">
        <ele>822.5</ele>
        <time>2015-09-22T10:02:10Z</time>
      </trkpt>
      <trkpt lat="42.35427" lon="0.12129">
        <ele>822.9</ele>
        <time>2015-09-22T10:02:11Z</time>
      </trkpt>
      <trkpt lat="42.35428" lon="0.12124">
        <ele>823.4</ele>
        <time>2015-09-22T10:02:12Z</time>
      </trkpt>
      <trkpt lat="42.3543" lon="0.12119">
        <ele>823.6</ele>
        <time>2015-09-22T10:02:13Z</time>
      </trkpt>
      <trkpt lat="42.35431" lon="0.12114">
        <ele>823.8</ele>
        <time>2015-09-22T10:02:14Z</time>
      </trkpt>
      <trkpt lat="42.35432" lon="0.12109">
        <ele>823.9</ele>
        <time>2015-09-22T10:02:15Z</time>
      </trkpt>
      <trkpt lat="42.35434" lon="0.12105">
        <ele>824.2</ele>
        <time>2015-09-22T10:02:16Z</time>
      </trkpt>
      <trkpt lat="42.35436" lon="0.12101">
        <ele>824.5</ele>
        <time>2015-09-22T10:02:17Z</time>
      </trkpt>
      <trkpt lat="42.35437" lon="0.12097">
        <ele>824.8</ele>
        <time>2015-09-22T10:02:18Z</time>
      </trkpt>
      <trkpt lat="42.35439" lon="0.12093">
        <ele>825</ele>
        <time>2015-09-22T10:02:19Z</time>
      </trkpt>
      <trkpt lat="42.3544" lon="0.12089">
        <ele>825.2</ele>
        <time>2015-09-22T10:02:20Z</time>
      </trkpt>
      <trkpt lat="42.35442" lon="0.12086">
        <ele>825.5</ele>
        <time>2015-09-22T10:02:21Z</time>
      </trkpt>
      <trkpt lat="42.35443" lon="0.12083">
        <ele>825.9</ele>
        <time>2015-09-22T10:02:22Z</time>
      </trkpt>
      <trkpt lat="42.35446" lon="0.1208">
        <ele>826.5</ele>
        <time>2015-09-22T10:02:23Z</time>
      </trkpt>
      <trkpt lat="42.35448" lon="0.12078">
        <ele>827</ele>
        <time>2015-09-22T10:02:24Z</time>
      </trkpt>
      <trkpt lat="42.3545" lon="0.12075">
        <ele>827.5</ele>
        <time>2015-09-22T10:02:25Z</time>
      </trkpt>
      <trkpt lat="42.35454" lon="0.12071">
        <ele>828.7</ele>
        <time>2015-09-22T10:02:27Z</time>
      </trkpt>
      <trkpt lat="42.35459" lon="0.12068">
        <ele>829.9</ele>
        <time>2015-09-22T10:02:29Z</time>
      </trkpt>
      <trkpt lat="42.35463" lon="0.12065">
        <ele>830.5</ele>
        <time>2015-09-22T10:02:31Z</time>
      </trkpt>
      <trkpt lat="42.35467" lon="0.12063">
        <ele>831</ele>
        <time>2015-09-22T10:02:33Z</time>
      </trkpt>
      <trkpt lat="42.35471" lon="0.12062">
        <ele>831.7</ele>
        <time>2015-09-22T10:02:35Z</time>
      </trkpt>
      <trkpt lat="42.35475" lon="0.12061">
        <ele>832.5</ele>
        <time>2015-09-22T10:02:37Z</time>
      </trkpt>
      <trkpt lat="42.3548" lon="0.12061">
        <ele>833.4</ele>
        <time>2015-09-22T10:02:39Z</time>
      </trkpt>
      <trkpt lat="42.35485" lon="0.1206">
        <ele>834.3</ele>
        <time>2015-09-22T10:02:41Z</time>
      </trkpt>
      <trkpt lat="42.3549" lon="0.12059">
        <ele>835.2</ele>
        <time>2015-09-22T10:02:43Z</time>
      </trkpt>
      <trkpt lat="42.35495" lon="0.12057">
        <ele>836.2</ele>
        <time>2015-09-22T10:02:45Z</time>
      </trkpt>
      <trkpt lat="42.355" lon="0.12054">
        <ele>837.2</ele>
        <time>2015-09-22T10:02:47Z</time>
      </trkpt>
      <trkpt lat="42.35504" lon="0.1205">
        <ele>838.2</ele>
        <time>2015-09-22T10:02:49Z</time>
      </trkpt>
      <trkpt lat="42.35508" lon="0.12046">
        <ele>839.1</ele>
        <time>2015-09-22T10:02:51Z</time>
      </trkpt>
      <trkpt lat="42.35512" lon="0.12042">
        <ele>840.3</ele>
        <time>2015-09-22T10:02:53Z</time>
      </trkpt>
      <trkpt lat="42.35515" lon="0.12039">
        <ele>840.5</ele>
        <time>2015-09-22T10:02:54Z</time>
      </trkpt>
      <trkpt lat="42.35517" lon="0.12037">
        <ele>840.6</ele>
        <time>2015-09-22T10:02:55Z</time>
      </trkpt>
      <trkpt lat="42.35519" lon="0.12033">
        <ele>840.6</ele>
        <time>2015-09-22T10:02:56Z</time>
      </trkpt>
      <trkpt lat="42.35521" lon="0.1203">
        <ele>840.6</ele>
        <time>2015-09-22T10:02:57Z</time>
      </trkpt>
      <trkpt lat="42.35523" lon="0.12026">
        <ele>840.4</ele>
        <time>2015-09-22T10:02:58Z</time>
      </trkpt>
      <trkpt lat="42.35524" lon="0.12022">
        <ele>840.2</ele>
        <time>2015-09-22T10:02:59Z</time>
      </trkpt>
      <trkpt lat="42.35526" lon="0.12018">
        <ele>840</ele>
        <time>2015-09-22T10:03:00Z</time>
      </trkpt>
      <trkpt lat="42.35528" lon="0.12015">
        <ele>839.8</ele>
        <time>2015-09-22T10:03:01Z</time>
      </trkpt>
      <trkpt lat="42.35529" lon="0.12011">
        <ele>839.6</ele>
        <time>2015-09-22T10:03:02Z</time>
      </trkpt>
      <trkpt lat="42.35531" lon="0.12007">
        <ele>839.4</ele>
        <time>2015-09-22T10:03:03Z</time>
      </trkpt>
      <trkpt lat="42.35533" lon="0.12004">
        <ele>839.2</ele>
        <time>2015-09-22T10:03:04Z</time>
      </trkpt>
      <trkpt lat="42.35535" lon="0.12">
        <ele>839.1</ele>
        <time>2015-09-22T10:03:05Z</time>
      </trkpt>
      <trkpt lat="42.35536" lon="0.11997">
        <ele>838.9</ele>
        <time>2015-09-22T10:03:06Z</time>
      </trkpt>
      <trkpt lat="42.35538" lon="0.11993">
        <ele>838.6</ele>
        <time>2015-09-22T10:03:07Z</time>
      </trkpt>
      <trkpt lat="42.35539" lon="0.11989">
        <ele>838.3</ele>
        <time>2015-09-22T10:03:08Z</time>
      </trkpt>
      <trkpt lat="42.3554" lon="0.11986">
        <ele>838</ele>
        <time>2015-09-22T10:03:09Z</time>
      </trkpt>
      <trkpt lat="42.35541" lon="0.11982">
        <ele>837.7</ele>
        <time>2015-09-22T10:03:10Z</time>
      </trkpt>
      <trkpt lat="42.35543" lon="0.11979">
        <ele>837.2</ele>
        <time>2015-09-22T10:03:11Z</time>
      </trkpt>
      <trkpt lat="42.35544" lon="0.11975">
        <ele>836.8</ele>
        <time>2015-09-22T10:03:12Z</time>
      </trkpt>
      <trkpt lat="42.35545" lon="0.11971">
        <ele>836.3</ele>
        <time>2015-09-22T10:03:13Z</time>
      </trkpt>
      <trkpt lat="42.35547" lon="0.11967">
        <ele>836</ele>
        <time>2015-09-22T10:03:14Z</time>
      </trkpt>
      <trkpt lat="42.35549" lon="0.11963">
        <ele>835.7</ele>
        <time>2015-09-22T10:03:15Z</time>
      </trkpt>
      <trkpt lat="42.35551" lon="0.11959">
        <ele>835.6</ele>
        <time>2015-09-22T10:03:16Z</time>
      </trkpt>
      <trkpt lat="42.35554" lon="0.11955">
        <ele>835.8</ele>
        <time>2015-09-22T10:03:17Z</time>
      </trkpt>
      <trkpt lat="42.35556" lon="0.11951">
        <ele>836</ele>
        <time>2015-09-22T10:03:18Z</time>
      </trkpt>
      <trkpt lat="42.35559" lon="0.11947">
        <ele>836.3</ele>
        <time>2015-09-22T10:03:19Z</time>
      </trkpt>
      <trkpt lat="42.35561" lon="0.11943">
        <ele>836.6</ele>
        <time>2015-09-22T10:03:20Z</time>
      </trkpt>
      <trkpt lat="42.35563" lon="0.11939">
        <ele>836.8</ele>
        <time>2015-09-22T10:03:21Z</time>
      </trkpt>
      <trkpt lat="42.35566" lon="0.11935">
        <ele>837.1</ele>
        <time>2015-09-22T10:03:22Z</time>
      </trkpt>
      <trkpt lat="42.35568" lon="0.11932">
        <ele>837.4</ele>
        <time>2015-09-22T10:03:23Z</time>
      </trkpt>
      <trkpt lat="42.3557" lon="0.11928">
        <ele>837.7</ele>
        <time>2015-09-22T10:03:24Z</time>
      </trkpt>
      <trkpt lat="42.35572" lon="0.11924">
        <ele>838</ele>
        <time>2015-09-22T10:03:25Z</time>
      </trkpt>
      <trkpt lat="42.35574" lon="0.1192">
        <ele>838.3</ele>
        <time>2015-09-22T10:03:26Z</time>
      </trkpt>
      <trkpt lat="42.35576" lon="0.11916">
        <ele>838.5</ele>
        <time>2015-09-22T10:03:27Z</time>
      </trkpt>
      <trkpt lat="42.35577" lon="0.11912">
        <ele>838.7</ele>
        <time>2015-09-22T10:03:29Z</time>
      </trkpt>
      <trkpt lat="42.35578" lon="0.11907">
        <ele>838.8</ele>
        <time>2015-09-22T10:03:31Z</time>
      </trkpt>
      <trkpt lat="42.3558" lon="0.11904">
        <ele>839.1</ele>
        <time>2015-09-22T10:03:33Z</time>
      </trkpt>
      <trkpt lat="42.35582" lon="0.11901">
        <ele>839.5</ele>
        <time>2015-09-22T10:03:35Z</time>
      </trkpt>
      <trkpt lat="42.35583" lon="0.11896">
        <ele>839.7</ele>
        <time>2015-09-22T10:03:37Z</time>
      </trkpt>
      <trkpt lat="42.35584" lon="0.11892">
        <ele>839.8</ele>
        <time>2015-09-22T10:03:39Z</time>
      </trkpt>
      <trkpt lat="42.35585" lon="0.11889">
        <ele>840.1</ele>
        <time>2015-09-22T10:03:41Z</time>
      </trkpt>
      <trkpt lat="42.35588" lon="0.11886">
        <ele>840.6</ele>
        <time>2015-09-22T10:03:43Z</time>
      </trkpt>
      <trkpt lat="42.35591" lon="0.11883">
        <ele>841.2</ele>
        <time>2015-09-22T10:03:45Z</time>
      </trkpt>
      <trkpt lat="42.35594" lon="0.1188">
        <ele>841.9</ele>
        <time>2015-09-22T10:03:47Z</time>
      </trkpt>
      <trkpt lat="42.35597" lon="0.11878">
        <ele>842.6</ele>
        <time>2015-09-22T10:03:49Z</time>
      </trkpt>
      <trkpt lat="42.356" lon="0.11875">
        <ele>843.3</ele>
        <time>2015-09-22T10:03:51Z</time>
      </trkpt>
      <trkpt lat="42.35602" lon="0.1187">
        <ele>843.6</ele>
        <time>2015-09-22T10:03:53Z</time>
      </trkpt>
      <trkpt lat="42.35603" lon="0.11866">
        <ele>843.7</ele>
        <time>2015-09-22T10:03:55Z</time>
      </trkpt>
      <trkpt lat="42.35604" lon="0.11861">
        <ele>843.9</ele>
        <time>2015-09-22T10:03:57Z</time>
      </trkpt>
      <trkpt lat="42.35606" lon="0.11858">
        <ele>844.2</ele>
        <time>2015-09-22T10:03:59Z</time>
      </trkpt>
      <trkpt lat="42.35608" lon="0.11855">
        <ele>844.7</ele>
        <time>2015-09-22T10:04:06Z</time>
      </trkpt>
      <trkpt lat="42.3561" lon="0.11853">
        <ele>845.3</ele>
        <time>2015-09-22T10:04:09Z</time>
      </trkpt>
      <trkpt lat="42.35613" lon="0.11849">
        <ele>845.9</ele>
        <time>2015-09-22T10:04:11Z</time>
      </trkpt>
      <trkpt lat="42.35615" lon="0.11844">
        <ele>846.4</ele>
        <time>2015-09-22T10:04:13Z</time>
      </trkpt>
      <trkpt lat="42.35618" lon="0.11838">
        <ele>847.1</ele>
        <time>2015-09-22T10:04:15Z</time>
      </trkpt>
      <trkpt lat="42.35619" lon="0.11831">
        <ele>847.4</ele>
        <time>2015-09-22T10:04:17Z</time>
      </trkpt>
      <trkpt lat="42.35619" lon="0.11824">
        <ele>847.3</ele>
        <time>2015-09-22T10:04:19Z</time>
      </trkpt>
      <trkpt lat="42.35619" lon="0.11818">
        <ele>847.1</ele>
        <time>2015-09-22T10:04:21Z</time>
      </trkpt>
      <trkpt lat="42.35617" lon="0.11812">
        <ele>846.6</ele>
        <time>2015-09-22T10:04:23Z</time>
      </trkpt>
      <trkpt lat="42.35616" lon="0.11805">
        <ele>846.1</ele>
        <time>2015-09-22T10:04:25Z</time>
      </trkpt>
      <trkpt lat="42.35615" lon="0.11797">
        <ele>845.8</ele>
        <time>2015-09-22T10:04:27Z</time>
      </trkpt>
      <trkpt lat="42.35615" lon="0.11793">
        <ele>845.9</ele>
        <time>2015-09-22T10:04:28Z</time>
      </trkpt>
      <trkpt lat="42.35616" lon="0.11789">
        <ele>846</ele>
        <time>2015-09-22T10:04:29Z</time>
      </trkpt>
      <trkpt lat="42.35618" lon="0.11785">
        <ele>846.1</ele>
        <time>2015-09-22T10:04:30Z</time>
      </trkpt>
      <trkpt lat="42.3562" lon="0.11782">
        <ele>846.6</ele>
        <time>2015-09-22T10:04:31Z</time>
      </trkpt>
      <trkpt lat="42.35622" lon="0.1178">
        <ele>847.3</ele>
        <time>2015-09-22T10:04:32Z</time>
      </trkpt>
      <trkpt lat="42.35625" lon="0.11778">
        <ele>848.1</ele>
        <time>2015-09-22T10:04:33Z</time>
      </trkpt>
      <trkpt lat="42.35627" lon="0.11777">
        <ele>848.4</ele>
        <time>2015-09-22T10:04:34Z</time>
      </trkpt>
      <trkpt lat="42.3563" lon="0.11775">
        <ele>848.6</ele>
        <time>2015-09-22T10:04:35Z</time>
      </trkpt>
      <trkpt lat="42.35632" lon="0.11772">
        <ele>848.7</ele>
        <time>2015-09-22T10:04:36Z</time>
      </trkpt>
      <trkpt lat="42.35634" lon="0.11769">
        <ele>848.9</ele>
        <time>2015-09-22T10:04:37Z</time>
      </trkpt>
      <trkpt lat="42.35636" lon="0.11766">
        <ele>849</ele>
        <time>2015-09-22T10:04:38Z</time>
      </trkpt>
      <trkpt lat="42.35638" lon="0.11763">
        <ele>849.1</ele>
        <time>2015-09-22T10:04:39Z</time>
      </trkpt>
      <trkpt lat="42.35641" lon="0.11758">
        <ele>849.4</ele>
        <time>2015-09-22T10:04:41Z</time>
      </trkpt>
      <trkpt lat="42.35644" lon="0.11754">
        <ele>849.8</ele>
        <time>2015-09-22T10:04:43Z</time>
      </trkpt>
      <trkpt lat="42.35647" lon="0.1175">
        <ele>850.2</ele>
        <time>2015-09-22T10:04:45Z</time>
      </trkpt>
      <trkpt lat="42.3565" lon="0.11746">
        <ele>850.6</ele>
        <time>2015-09-22T10:04:47Z</time>
      </trkpt>
      <trkpt lat="42.35652" lon="0.11742">
        <ele>851</ele>
        <time>2015-09-22T10:04:49Z</time>
      </trkpt>
      <trkpt lat="42.35656" lon="0.11739">
        <ele>851.7</ele>
        <time>2015-09-22T10:04:51Z</time>
      </trkpt>
      <trkpt lat="42.3566" lon="0.11736">
        <ele>852.4</ele>
        <time>2015-09-22T10:04:53Z</time>
      </trkpt>
      <trkpt lat="42.35664" lon="0.11733">
        <ele>853.3</ele>
        <time>2015-09-22T10:04:55Z</time>
      </trkpt>
      <trkpt lat="42.35668" lon="0.1173">
        <ele>854.3</ele>
        <time>2015-09-22T10:04:57Z</time>
      </trkpt>
      <trkpt lat="42.35671" lon="0.11728">
        <ele>854.9</ele>
        <time>2015-09-22T10:04:58Z</time>
      </trkpt>
      <trkpt lat="42.35674" lon="0.11726">
        <ele>855.5</ele>
        <time>2015-09-22T10:04:59Z</time>
      </trkpt>
      <trkpt lat="42.35676" lon="0.11724">
        <ele>856.2</ele>
        <time>2015-09-22T10:05:00Z</time>
      </trkpt>
      <trkpt lat="42.35678" lon="0.11721">
        <ele>856.8</ele>
        <time>2015-09-22T10:05:01Z</time>
      </trkpt>
      <trkpt lat="42.35681" lon="0.11719">
        <ele>857.5</ele>
        <time>2015-09-22T10:05:02Z</time>
      </trkpt>
      <trkpt lat="42.35683" lon="0.11716">
        <ele>858.2</ele>
        <time>2015-09-22T10:05:03Z</time>
      </trkpt>
      <trkpt lat="42.35685" lon="0.11714">
        <ele>858.8</ele>
        <time>2015-09-22T10:05:04Z</time>
      </trkpt>
      <trkpt lat="42.35687" lon="0.11711">
        <ele>859.5</ele>
        <time>2015-09-22T10:05:05Z</time>
      </trkpt>
      <trkpt lat="42.35689" lon="0.11708">
        <ele>860.1</ele>
        <time>2015-09-22T10:05:06Z</time>
      </trkpt>
      <trkpt lat="42.35692" lon="0.11706">
        <ele>860.4</ele>
        <time>2015-09-22T10:05:07Z</time>
      </trkpt>
      <trkpt lat="42.35694" lon="0.11704">
        <ele>860.6</ele>
        <time>2015-09-22T10:05:08Z</time>
      </trkpt>
      <trkpt lat="42.35696" lon="0.11701">
        <ele>860.7</ele>
        <time>2015-09-22T10:05:09Z</time>
      </trkpt>
      <trkpt lat="42.35698" lon="0.11699">
        <ele>860.8</ele>
        <time>2015-09-22T10:05:10Z</time>
      </trkpt>
      <trkpt lat="42.357" lon="0.11695">
        <ele>860.7</ele>
        <time>2015-09-22T10:05:11Z</time>
      </trkpt>
      <trkpt lat="42.35702" lon="0.11692">
        <ele>860.5</ele>
        <time>2015-09-22T10:05:12Z</time>
      </trkpt>
      <trkpt lat="42.35703" lon="0.11688">
        <ele>860.2</ele>
        <time>2015-09-22T10:05:13Z</time>
      </trkpt>
      <trkpt lat="42.35704" lon="0.11685">
        <ele>859.9</ele>
        <time>2015-09-22T10:05:14Z</time>
      </trkpt>
      <trkpt lat="42.35705" lon="0.11681">
        <ele>859.5</ele>
        <time>2015-09-22T10:05:15Z</time>
      </trkpt>
      <trkpt lat="42.35705" lon="0.11677">
        <ele>859</ele>
        <time>2015-09-22T10:05:16Z</time>
      </trkpt>
      <trkpt lat="42.35706" lon="0.11673">
        <ele>858.4</ele>
        <time>2015-09-22T10:05:17Z</time>
      </trkpt>
      <trkpt lat="42.35706" lon="0.1167">
        <ele>857.9</ele>
        <time>2015-09-22T10:05:18Z</time>
      </trkpt>
      <trkpt lat="42.35707" lon="0.11666">
        <ele>857.5</ele>
        <time>2015-09-22T10:05:19Z</time>
      </trkpt>
      <trkpt lat="42.35708" lon="0.11662">
        <ele>857.2</ele>
        <time>2015-09-22T10:05:20Z</time>
      </trkpt>
      <trkpt lat="42.35709" lon="0.11658">
        <ele>856.6</ele>
        <time>2015-09-22T10:05:21Z</time>
      </trkpt>
      <trkpt lat="42.35711" lon="0.11654">
        <ele>855.8</ele>
        <time>2015-09-22T10:05:22Z</time>
      </trkpt>
      <trkpt lat="42.35712" lon="0.1165">
        <ele>855.1</ele>
        <time>2015-09-22T10:05:23Z</time>
      </trkpt>
      <trkpt lat="42.35713" lon="0.11646">
        <ele>854.5</ele>
        <time>2015-09-22T10:05:24Z</time>
      </trkpt>
      <trkpt lat="42.35713" lon="0.11642">
        <ele>853.9</ele>
        <time>2015-09-22T10:05:25Z</time>
      </trkpt>
      <trkpt lat="42.35714" lon="0.11638">
        <ele>853.3</ele>
        <time>2015-09-22T10:05:26Z</time>
      </trkpt>
      <trkpt lat="42.35715" lon="0.11634">
        <ele>852.7</ele>
        <time>2015-09-22T10:05:27Z</time>
      </trkpt>
      <trkpt lat="42.35715" lon="0.1163">
        <ele>852.1</ele>
        <time>2015-09-22T10:05:28Z</time>
      </trkpt>
      <trkpt lat="42.35715" lon="0.11626">
        <ele>851.4</ele>
        <time>2015-09-22T10:05:29Z</time>
      </trkpt>
      <trkpt lat="42.35715" lon="0.11622">
        <ele>851</ele>
        <time>2015-09-22T10:05:30Z</time>
      </trkpt>
      <trkpt lat="42.35715" lon="0.11618">
        <ele>850.6</ele>
        <time>2015-09-22T10:05:31Z</time>
      </trkpt>
      <trkpt lat="42.35715" lon="0.11614">
        <ele>850.3</ele>
        <time>2015-09-22T10:05:32Z</time>
      </trkpt>
      <trkpt lat="42.35716" lon="0.1161">
        <ele>849.9</ele>
        <time>2015-09-22T10:05:33Z</time>
      </trkpt>
      <trkpt lat="42.35716" lon="0.11605">
        <ele>849.6</ele>
        <time>2015-09-22T10:05:34Z</time>
      </trkpt>
      <trkpt lat="42.35717" lon="0.11601">
        <ele>849.2</ele>
        <time>2015-09-22T10:05:35Z</time>
      </trkpt>
      <trkpt lat="42.35718" lon="0.11595">
        <ele>848.9</ele>
        <time>2015-09-22T10:05:36Z</time>
      </trkpt>
      <trkpt lat="42.35719" lon="0.1159">
        <ele>848.6</ele>
        <time>2015-09-22T10:05:37Z</time>
      </trkpt>
      <trkpt lat="42.3572" lon="0.11585">
        <ele>848.4</ele>
        <time>2015-09-22T10:05:38Z</time>
      </trkpt>
      <trkpt lat="42.35722" lon="0.1158">
        <ele>848.2</ele>
        <time>2015-09-22T10:05:39Z</time>
      </trkpt>
      <trkpt lat="42.35723" lon="0.11575">
        <ele>847.9</ele>
        <time>2015-09-22T10:05:40Z</time>
      </trkpt>
      <trkpt lat="42.35724" lon="0.11571">
        <ele>847.8</ele>
        <time>2015-09-22T10:05:41Z</time>
      </trkpt>
      <trkpt lat="42.35725" lon="0.11566">
        <ele>847.8</ele>
        <time>2015-09-22T10:05:42Z</time>
      </trkpt>
      <trkpt lat="42.35727" lon="0.11563">
        <ele>847.8</ele>
        <time>2015-09-22T10:05:43Z</time>
      </trkpt>
      <trkpt lat="42.35728" lon="0.11559">
        <ele>847.8</ele>
        <time>2015-09-22T10:05:44Z</time>
      </trkpt>
      <trkpt lat="42.3573" lon="0.11556">
        <ele>847.9</ele>
        <time>2015-09-22T10:05:45Z</time>
      </trkpt>
      <trkpt lat="42.35731" lon="0.11552">
        <ele>848</ele>
        <time>2015-09-22T10:05:46Z</time>
      </trkpt>
      <trkpt lat="42.35732" lon="0.11548">
        <ele>848.1</ele>
        <time>2015-09-22T10:05:47Z</time>
      </trkpt>
      <trkpt lat="42.35733" lon="0.11545">
        <ele>848.2</ele>
        <time>2015-09-22T10:05:48Z</time>
      </trkpt>
      <trkpt lat="42.35735" lon="0.11541">
        <ele>848.3</ele>
        <time>2015-09-22T10:05:49Z</time>
      </trkpt>
      <trkpt lat="42.35736" lon="0.11538">
        <ele>848.2</ele>
        <time>2015-09-22T10:05:50Z</time>
      </trkpt>
      <trkpt lat="42.35738" lon="0.11535">
        <ele>848.1</ele>
        <time>2015-09-22T10:05:51Z</time>
      </trkpt>
      <trkpt lat="42.35739" lon="0.11531">
        <ele>848</ele>
        <time>2015-09-22T10:05:52Z</time>
      </trkpt>
      <trkpt lat="42.35741" lon="0.11528">
        <ele>848</ele>
        <time>2015-09-22T10:05:53Z</time>
      </trkpt>
      <trkpt lat="42.35742" lon="0.11524">
        <ele>847.9</ele>
        <time>2015-09-22T10:05:54Z</time>
      </trkpt>
      <trkpt lat="42.35744" lon="0.11521">
        <ele>847.8</ele>
        <time>2015-09-22T10:05:55Z</time>
      </trkpt>
      <trkpt lat="42.35745" lon="0.11517">
        <ele>847.7</ele>
        <time>2015-09-22T10:05:56Z</time>
      </trkpt>
      <trkpt lat="42.35747" lon="0.11513">
        <ele>847.5</ele>
        <time>2015-09-22T10:05:57Z</time>
      </trkpt>
      <trkpt lat="42.35748" lon="0.1151">
        <ele>847.4</ele>
        <time>2015-09-22T10:05:58Z</time>
      </trkpt>
      <trkpt lat="42.35749" lon="0.11506">
        <ele>847.3</ele>
        <time>2015-09-22T10:05:59Z</time>
      </trkpt>
      <trkpt lat="42.35751" lon="0.11499">
        <ele>847</ele>
        <time>2015-09-22T10:06:01Z</time>
      </trkpt>
      <trkpt lat="42.35753" lon="0.11496">
        <ele>847</ele>
        <time>2015-09-22T10:06:02Z</time>
      </trkpt>
      <trkpt lat="42.35754" lon="0.11493">
        <ele>847</ele>
        <time>2015-09-22T10:06:03Z</time>
      </trkpt>
      <trkpt lat="42.35756" lon="0.11489">
        <ele>846.9</ele>
        <time>2015-09-22T10:06:04Z</time>
      </trkpt>
      <trkpt lat="42.35757" lon="0.11485">
        <ele>846.9</ele>
        <time>2015-09-22T10:06:05Z</time>
      </trkpt>
      <trkpt lat="42.35758" lon="0.11482">
        <ele>846.8</ele>
        <time>2015-09-22T10:06:06Z</time>
      </trkpt>
      <trkpt lat="42.3576" lon="0.11478">
        <ele>846.8</ele>
        <time>2015-09-22T10:06:07Z</time>
      </trkpt>
      <trkpt lat="42.35762" lon="0.11475">
        <ele>846.9</ele>
        <time>2015-09-22T10:06:08Z</time>
      </trkpt>
      <trkpt lat="42.35763" lon="0.11471">
        <ele>847</ele>
        <time>2015-09-22T10:06:09Z</time>
      </trkpt>
      <trkpt lat="42.35765" lon="0.11468">
        <ele>847</ele>
        <time>2015-09-22T10:06:10Z</time>
      </trkpt>
      <trkpt lat="42.35766" lon="0.11465">
        <ele>847</ele>
        <time>2015-09-22T10:06:11Z</time>
      </trkpt>
      <trkpt lat="42.35767" lon="0.11461">
        <ele>847</ele>
        <time>2015-09-22T10:06:12Z</time>
      </trkpt>
      <trkpt lat="42.35769" lon="0.11458">
        <ele>847.1</ele>
        <time>2015-09-22T10:06:13Z</time>
      </trkpt>
      <trkpt lat="42.3577" lon="0.11454">
        <ele>846.8</ele>
        <time>2015-09-22T10:06:14Z</time>
      </trkpt>
      <trkpt lat="42.35771" lon="0.1145">
        <ele>846.5</ele>
        <time>2015-09-22T10:06:15Z</time>
      </trkpt>
      <trkpt lat="42.35772" lon="0.11446">
        <ele>846.2</ele>
        <time>2015-09-22T10:06:16Z</time>
      </trkpt>
      <trkpt lat="42.35773" lon="0.11442">
        <ele>845.9</ele>
        <time>2015-09-22T10:06:17Z</time>
      </trkpt>
      <trkpt lat="42.35775" lon="0.11438">
        <ele>845.9</ele>
        <time>2015-09-22T10:06:18Z</time>
      </trkpt>
      <trkpt lat="42.35777" lon="0.11434">
        <ele>845.9</ele>
        <time>2015-09-22T10:06:19Z</time>
      </trkpt>
      <trkpt lat="42.3578" lon="0.11431">
        <ele>846.1</ele>
        <time>2015-09-22T10:06:20Z</time>
      </trkpt>
      <trkpt lat="42.35782" lon="0.11427">
        <ele>846.2</ele>
        <time>2015-09-22T10:06:21Z</time>
      </trkpt>
      <trkpt lat="42.35784" lon="0.11424">
        <ele>846.2</ele>
        <time>2015-09-22T10:06:22Z</time>
      </trkpt>
      <trkpt lat="42.35786" lon="0.1142">
        <ele>846.3</ele>
        <time>2015-09-22T10:06:23Z</time>
      </trkpt>
      <trkpt lat="42.35788" lon="0.11416">
        <ele>846.4</ele>
        <time>2015-09-22T10:06:24Z</time>
      </trkpt>
      <trkpt lat="42.3579" lon="0.11413">
        <ele>846.4</ele>
        <time>2015-09-22T10:06:25Z</time>
      </trkpt>
      <trkpt lat="42.35792" lon="0.11409">
        <ele>846.3</ele>
        <time>2015-09-22T10:06:26Z</time>
      </trkpt>
      <trkpt lat="42.35793" lon="0.11405">
        <ele>846</ele>
        <time>2015-09-22T10:06:27Z</time>
      </trkpt>
      <trkpt lat="42.35795" lon="0.11402">
        <ele>845.7</ele>
        <time>2015-09-22T10:06:28Z</time>
      </trkpt>
      <trkpt lat="42.35797" lon="0.11398">
        <ele>845.7</ele>
        <time>2015-09-22T10:06:36Z</time>
      </trkpt>
      <trkpt lat="42.35799" lon="0.11395">
        <ele>845.6</ele>
        <time>2015-09-22T10:06:37Z</time>
      </trkpt>
      <trkpt lat="42.35801" lon="0.11392">
        <ele>845.5</ele>
        <time>2015-09-22T10:06:38Z</time>
      </trkpt>
      <trkpt lat="42.35803" lon="0.11389">
        <ele>845.6</ele>
        <time>2015-09-22T10:06:39Z</time>
      </trkpt>
      <trkpt lat="42.35805" lon="0.11385">
        <ele>845.7</ele>
        <time>2015-09-22T10:06:40Z</time>
      </trkpt>
      <trkpt lat="42.35808" lon="0.11381">
        <ele>845.9</ele>
        <time>2015-09-22T10:06:41Z</time>
      </trkpt>
      <trkpt lat="42.3581" lon="0.11377">
        <ele>846.1</ele>
        <time>2015-09-22T10:06:42Z</time>
      </trkpt>
      <trkpt lat="42.35813" lon="0.11373">
        <ele>846.3</ele>
        <time>2015-09-22T10:06:43Z</time>
      </trkpt>
      <trkpt lat="42.35815" lon="0.11368">
        <ele>846.3</ele>
        <time>2015-09-22T10:06:44Z</time>
      </trkpt>
      <trkpt lat="42.35817" lon="0.11363">
        <ele>846.4</ele>
        <time>2015-09-22T10:06:45Z</time>
      </trkpt>
      <trkpt lat="42.35819" lon="0.11358">
        <ele>846.5</ele>
        <time>2015-09-22T10:06:46Z</time>
      </trkpt>
      <trkpt lat="42.35822" lon="0.11353">
        <ele>846.6</ele>
        <time>2015-09-22T10:06:47Z</time>
      </trkpt>
      <trkpt lat="42.35825" lon="0.11345">
        <ele>846.7</ele>
        <time>2015-09-22T10:06:48Z</time>
      </trkpt>
      <trkpt lat="42.35827" lon="0.11339">
        <ele>846.8</ele>
        <time>2015-09-22T10:06:49Z</time>
      </trkpt>
      <trkpt lat="42.3583" lon="0.11334">
        <ele>846.8</ele>
        <time>2015-09-22T10:06:50Z</time>
      </trkpt>
      <trkpt lat="42.35833" lon="0.11328">
        <ele>847</ele>
        <time>2015-09-22T10:06:51Z</time>
      </trkpt>
      <trkpt lat="42.35835" lon="0.11323">
        <ele>847</ele>
        <time>2015-09-22T10:06:52Z</time>
      </trkpt>
      <trkpt lat="42.35838" lon="0.11317">
        <ele>847.3</ele>
        <time>2015-09-22T10:06:53Z</time>
      </trkpt>
      <trkpt lat="42.35841" lon="0.11311">
        <ele>847.5</ele>
        <time>2015-09-22T10:06:54Z</time>
      </trkpt>
      <trkpt lat="42.35844" lon="0.11306">
        <ele>847.7</ele>
        <time>2015-09-22T10:06:55Z</time>
      </trkpt>
      <trkpt lat="42.35847" lon="0.113">
        <ele>847.9</ele>
        <time>2015-09-22T10:06:56Z</time>
      </trkpt>
      <trkpt lat="42.3585" lon="0.11294">
        <ele>848.4</ele>
        <time>2015-09-22T10:06:57Z</time>
      </trkpt>
      <trkpt lat="42.35854" lon="0.11289">
        <ele>849.2</ele>
        <time>2015-09-22T10:06:58Z</time>
      </trkpt>
      <trkpt lat="42.35858" lon="0.11284">
        <ele>850.1</ele>
        <time>2015-09-22T10:06:59Z</time>
      </trkpt>
      <trkpt lat="42.35861" lon="0.11279">
        <ele>850.6</ele>
        <time>2015-09-22T10:07:00Z</time>
      </trkpt>
      <trkpt lat="42.35865" lon="0.11274">
        <ele>851.1</ele>
        <time>2015-09-22T10:07:01Z</time>
      </trkpt>
      <trkpt lat="42.35868" lon="0.11269">
        <ele>851.6</ele>
        <time>2015-09-22T10:07:02Z</time>
      </trkpt>
      <trkpt lat="42.35871" lon="0.11264">
        <ele>851.8</ele>
        <time>2015-09-22T10:07:03Z</time>
      </trkpt>
      <trkpt lat="42.35873" lon="0.1126">
        <ele>852</ele>
        <time>2015-09-22T10:07:04Z</time>
      </trkpt>
      <trkpt lat="42.35875" lon="0.11255">
        <ele>851.9</ele>
        <time>2015-09-22T10:07:05Z</time>
      </trkpt>
      <trkpt lat="42.35876" lon="0.1125">
        <ele>851.8</ele>
        <time>2015-09-22T10:07:06Z</time>
      </trkpt>
      <trkpt lat="42.35878" lon="0.11246">
        <ele>851.7</ele>
        <time>2015-09-22T10:07:07Z</time>
      </trkpt>
      <trkpt lat="42.35879" lon="0.11241">
        <ele>851.5</ele>
        <time>2015-09-22T10:07:08Z</time>
      </trkpt>
      <trkpt lat="42.3588" lon="0.11235">
        <ele>851.2</ele>
        <time>2015-09-22T10:07:09Z</time>
      </trkpt>
      <trkpt lat="42.35881" lon="0.1123">
        <ele>850.9</ele>
        <time>2015-09-22T10:07:10Z</time>
      </trkpt>
      <trkpt lat="42.35882" lon="0.11226">
        <ele>850.9</ele>
        <time>2015-09-22T10:07:11Z</time>
      </trkpt>
      <trkpt lat="42.35884" lon="0.11221">
        <ele>850.9</ele>
        <time>2015-09-22T10:07:12Z</time>
      </trkpt>
      <trkpt lat="42.35886" lon="0.11217">
        <ele>851</ele>
        <time>2015-09-22T10:07:13Z</time>
      </trkpt>
      <trkpt lat="42.35888" lon="0.11213">
        <ele>851</ele>
        <time>2015-09-22T10:07:14Z</time>
      </trkpt>
      <trkpt lat="42.3589" lon="0.11208">
        <ele>851.1</ele>
        <time>2015-09-22T10:07:15Z</time>
      </trkpt>
      <trkpt lat="42.35892" lon="0.11205">
        <ele>852</ele>
        <time>2015-09-22T10:07:16Z</time>
      </trkpt>
      <trkpt lat="42.35894" lon="0.11201">
        <ele>852.9</ele>
        <time>2015-09-22T10:07:17Z</time>
      </trkpt>
      <trkpt lat="42.35895" lon="0.11197">
        <ele>853.6</ele>
        <time>2015-09-22T10:07:18Z</time>
      </trkpt>
      <trkpt lat="42.35895" lon="0.11193">
        <ele>854.3</ele>
        <time>2015-09-22T10:07:19Z</time>
      </trkpt>
      <trkpt lat="42.35897" lon="0.11189">
        <ele>855</ele>
        <time>2015-09-22T10:07:20Z</time>
      </trkpt>
      <trkpt lat="42.35898" lon="0.11185">
        <ele>855.7</ele>
        <time>2015-09-22T10:07:21Z</time>
      </trkpt>
      <trkpt lat="42.359" lon="0.11182">
        <ele>856.4</ele>
        <time>2015-09-22T10:07:22Z</time>
      </trkpt>
      <trkpt lat="42.35902" lon="0.11177">
        <ele>857.3</ele>
        <time>2015-09-22T10:07:24Z</time>
      </trkpt>
      <trkpt lat="42.35904" lon="0.11173">
        <ele>858.1</ele>
        <time>2015-09-22T10:07:26Z</time>
      </trkpt>
      <trkpt lat="42.35906" lon="0.11168">
        <ele>858.9</ele>
        <time>2015-09-22T10:07:28Z</time>
      </trkpt>
      <trkpt lat="42.35909" lon="0.11163">
        <ele>859.8</ele>
        <time>2015-09-22T10:07:30Z</time>
      </trkpt>
      <trkpt lat="42.35911" lon="0.11159">
        <ele>860.4</ele>
        <time>2015-09-22T10:07:31Z</time>
      </trkpt>
      <trkpt lat="42.35913" lon="0.11156">
        <ele>860.9</ele>
        <time>2015-09-22T10:07:32Z</time>
      </trkpt>
      <trkpt lat="42.35916" lon="0.1115">
        <ele>861.7</ele>
        <time>2015-09-22T10:07:33Z</time>
      </trkpt>
      <trkpt lat="42.35917" lon="0.11144">
        <ele>862.3</ele>
        <time>2015-09-22T10:07:34Z</time>
      </trkpt>
      <trkpt lat="42.35919" lon="0.11139">
        <ele>862.9</ele>
        <time>2015-09-22T10:07:35Z</time>
      </trkpt>
      <trkpt lat="42.35922" lon="0.11134">
        <ele>863.4</ele>
        <time>2015-09-22T10:07:36Z</time>
      </trkpt>
      <trkpt lat="42.35924" lon="0.1113">
        <ele>863.9</ele>
        <time>2015-09-22T10:07:37Z</time>
      </trkpt>
      <trkpt lat="42.35927" lon="0.11126">
        <ele>864.2</ele>
        <time>2015-09-22T10:07:38Z</time>
      </trkpt>
      <trkpt lat="42.35929" lon="0.11122">
        <ele>864.5</ele>
        <time>2015-09-22T10:07:39Z</time>
      </trkpt>
      <trkpt lat="42.3593" lon="0.11118">
        <ele>864.7</ele>
        <time>2015-09-22T10:07:40Z</time>
      </trkpt>
      <trkpt lat="42.35931" lon="0.11113">
        <ele>865</ele>
        <time>2015-09-22T10:07:41Z</time>
      </trkpt>
      <trkpt lat="42.35931" lon="0.11108">
        <ele>865.3</ele>
        <time>2015-09-22T10:07:42Z</time>
      </trkpt>
      <trkpt lat="42.35931" lon="0.11103">
        <ele>865.6</ele>
        <time>2015-09-22T10:07:43Z</time>
      </trkpt>
      <trkpt lat="42.35931" lon="0.11098">
        <ele>865.8</ele>
        <time>2015-09-22T10:07:44Z</time>
      </trkpt>
      <trkpt lat="42.35931" lon="0.11093">
        <ele>866.1</ele>
        <time>2015-09-22T10:07:45Z</time>
      </trkpt>
      <trkpt lat="42.35932" lon="0.11088">
        <ele>866.4</ele>
        <time>2015-09-22T10:07:46Z</time>
      </trkpt>
      <trkpt lat="42.35934" lon="0.11084">
        <ele>866.7</ele>
        <time>2015-09-22T10:07:47Z</time>
      </trkpt>
      <trkpt lat="42.35936" lon="0.1108">
        <ele>866.9</ele>
        <time>2015-09-22T10:07:48Z</time>
      </trkpt>
      <trkpt lat="42.35938" lon="0.11077">
        <ele>867.1</ele>
        <time>2015-09-22T10:07:50Z</time>
      </trkpt>
      <trkpt lat="42.35939" lon="0.11072">
        <ele>867.4</ele>
        <time>2015-09-22T10:08:03Z</time>
      </trkpt>
      <trkpt lat="42.35941" lon="0.11069">
        <ele>867.5</ele>
        <time>2015-09-22T10:08:07Z</time>
      </trkpt>
      <trkpt lat="42.35942" lon="0.11066">
        <ele>867.7</ele>
        <time>2015-09-22T10:08:11Z</time>
      </trkpt>
      <trkpt lat="42.35943" lon="0.11062">
        <ele>867.9</ele>
        <time>2015-09-22T10:08:12Z</time>
      </trkpt>
      <trkpt lat="42.35944" lon="0.11058">
        <ele>868.2</ele>
        <time>2015-09-22T10:08:13Z</time>
      </trkpt>
      <trkpt lat="42.35945" lon="0.11054">
        <ele>868.4</ele>
        <time>2015-09-22T10:08:14Z</time>
      </trkpt>
      <trkpt lat="42.35946" lon="0.11049">
        <ele>868.6</ele>
        <time>2015-09-22T10:08:15Z</time>
      </trkpt>
      <trkpt lat="42.35948" lon="0.11045">
        <ele>868.8</ele>
        <time>2015-09-22T10:08:16Z</time>
      </trkpt>
      <trkpt lat="42.3595" lon="0.11041">
        <ele>869</ele>
        <time>2015-09-22T10:08:17Z</time>
      </trkpt>
      <trkpt lat="42.35952" lon="0.11037">
        <ele>869.2</ele>
        <time>2015-09-22T10:08:18Z</time>
      </trkpt>
      <trkpt lat="42.35955" lon="0.11033">
        <ele>869.4</ele>
        <time>2015-09-22T10:08:19Z</time>
      </trkpt>
      <trkpt lat="42.35957" lon="0.11029">
        <ele>869.6</ele>
        <time>2015-09-22T10:08:20Z</time>
      </trkpt>
      <trkpt lat="42.35959" lon="0.11025">
        <ele>869.8</ele>
        <time>2015-09-22T10:08:21Z</time>
      </trkpt>
      <trkpt lat="42.35962" lon="0.11022">
        <ele>870.1</ele>
        <time>2015-09-22T10:08:22Z</time>
      </trkpt>
      <trkpt lat="42.35966" lon="0.11018">
        <ele>870.5</ele>
        <time>2015-09-22T10:08:23Z</time>
      </trkpt>
      <trkpt lat="42.3597" lon="0.11014">
        <ele>870.8</ele>
        <time>2015-09-22T10:08:24Z</time>
      </trkpt>
      <trkpt lat="42.35974" lon="0.11009">
        <ele>871.2</ele>
        <time>2015-09-22T10:08:25Z</time>
      </trkpt>
      <trkpt lat="42.35975" lon="0.11004">
        <ele>871.4</ele>
        <time>2015-09-22T10:08:26Z</time>
      </trkpt>
      <trkpt lat="42.35977" lon="0.10998">
        <ele>871.7</ele>
        <time>2015-09-22T10:08:27Z</time>
      </trkpt>
      <trkpt lat="42.35979" lon="0.10993">
        <ele>872</ele>
        <time>2015-09-22T10:08:28Z</time>
      </trkpt>
      <trkpt lat="42.35982" lon="0.10989">
        <ele>872.3</ele>
        <time>2015-09-22T10:08:29Z</time>
      </trkpt>
      <trkpt lat="42.35985" lon="0.10985">
        <ele>872.6</ele>
        <time>2015-09-22T10:08:30Z</time>
      </trkpt>
      <trkpt lat="42.35988" lon="0.1098">
        <ele>872.9</ele>
        <time>2015-09-22T10:08:31Z</time>
      </trkpt>
      <trkpt lat="42.3599" lon="0.10975">
        <ele>873.1</ele>
        <time>2015-09-22T10:08:32Z</time>
      </trkpt>
      <trkpt lat="42.35992" lon="0.10969">
        <ele>873.4</ele>
        <time>2015-09-22T10:08:33Z</time>
      </trkpt>
      <trkpt lat="42.35993" lon="0.10964">
        <ele>873.6</ele>
        <time>2015-09-22T10:08:34Z</time>
      </trkpt>
      <trkpt lat="42.35994" lon="0.10959">
        <ele>873.8</ele>
        <time>2015-09-22T10:08:35Z</time>
      </trkpt>
      <trkpt lat="42.35995" lon="0.10955">
        <ele>873.8</ele>
        <time>2015-09-22T10:08:36Z</time>
      </trkpt>
      <trkpt lat="42.35997" lon="0.1095">
        <ele>873.7</ele>
        <time>2015-09-22T10:08:37Z</time>
      </trkpt>
      <trkpt lat="42.35999" lon="0.10945">
        <ele>873.7</ele>
        <time>2015-09-22T10:08:39Z</time>
      </trkpt>
      <trkpt lat="42.36" lon="0.10941">
        <ele>873.7</ele>
        <time>2015-09-22T10:08:41Z</time>
      </trkpt>
      <trkpt lat="42.36004" lon="0.10938">
        <ele>873.8</ele>
        <time>2015-09-22T10:08:43Z</time>
      </trkpt>
      <trkpt lat="42.36008" lon="0.10936">
        <ele>874</ele>
        <time>2015-09-22T10:08:45Z</time>
      </trkpt>
      <trkpt lat="42.36012" lon="0.10931">
        <ele>874.1</ele>
        <time>2015-09-22T10:08:47Z</time>
      </trkpt>
      <trkpt lat="42.36014" lon="0.10925">
        <ele>874.2</ele>
        <time>2015-09-22T10:08:49Z</time>
      </trkpt>
      <trkpt lat="42.36016" lon="0.10921">
        <ele>874.3</ele>
        <time>2015-09-22T10:08:50Z</time>
      </trkpt>
      <trkpt lat="42.36018" lon="0.10917">
        <ele>874.5</ele>
        <time>2015-09-22T10:08:51Z</time>
      </trkpt>
      <trkpt lat="42.3602" lon="0.10914">
        <ele>874.6</ele>
        <time>2015-09-22T10:08:52Z</time>
      </trkpt>
      <trkpt lat="42.36023" lon="0.10911">
        <ele>874.8</ele>
        <time>2015-09-22T10:08:53Z</time>
      </trkpt>
      <trkpt lat="42.36027" lon="0.10907">
        <ele>875.1</ele>
        <time>2015-09-22T10:08:55Z</time>
      </trkpt>
      <trkpt lat="42.36031" lon="0.10904">
        <ele>875.5</ele>
        <time>2015-09-22T10:08:57Z</time>
      </trkpt>
      <trkpt lat="42.36034" lon="0.10901">
        <ele>875.7</ele>
        <time>2015-09-22T10:08:59Z</time>
      </trkpt>
      <trkpt lat="42.36035" lon="0.10898">
        <ele>875.9</ele>
        <time>2015-09-22T10:09:01Z</time>
      </trkpt>
      <trkpt lat="42.36036" lon="0.10894">
        <ele>876</ele>
        <time>2015-09-22T10:09:03Z</time>
      </trkpt>
      <trkpt lat="42.36035" lon="0.1089">
        <ele>876</ele>
        <time>2015-09-22T10:09:05Z</time>
      </trkpt>
      <trkpt lat="42.36034" lon="0.10887">
        <ele>876</ele>
        <time>2015-09-22T10:09:07Z</time>
      </trkpt>
      <trkpt lat="42.36034" lon="0.10882">
        <ele>876.1</ele>
        <time>2015-09-22T10:09:09Z</time>
      </trkpt>
      <trkpt lat="42.36035" lon="0.10877">
        <ele>876.2</ele>
        <time>2015-09-22T10:09:10Z</time>
      </trkpt>
      <trkpt lat="42.36035" lon="0.10873">
        <ele>876.1</ele>
        <time>2015-09-22T10:09:11Z</time>
      </trkpt>
      <trkpt lat="42.36035" lon="0.10869">
        <ele>875.8</ele>
        <time>2015-09-22T10:09:12Z</time>
      </trkpt>
      <trkpt lat="42.36036" lon="0.10865">
        <ele>875.5</ele>
        <time>2015-09-22T10:09:13Z</time>
      </trkpt>
      <trkpt lat="42.36037" lon="0.10861">
        <ele>875.3</ele>
        <time>2015-09-22T10:09:14Z</time>
      </trkpt>
      <trkpt lat="42.36038" lon="0.10858">
        <ele>875.1</ele>
        <time>2015-09-22T10:09:15Z</time>
      </trkpt>
      <trkpt lat="42.36037" lon="0.10853">
        <ele>874.6</ele>
        <time>2015-09-22T10:09:17Z</time>
      </trkpt>
      <trkpt lat="42.36035" lon="0.10848">
        <ele>874</ele>
        <time>2015-09-22T10:09:19Z</time>
      </trkpt>
      <trkpt lat="42.36037" lon="0.10842">
        <ele>873.6</ele>
        <time>2015-09-22T10:09:21Z</time>
      </trkpt>
      <trkpt lat="42.36039" lon="0.10836">
        <ele>873.5</ele>
        <time>2015-09-22T10:09:23Z</time>
      </trkpt>
      <trkpt lat="42.36041" lon="0.1083">
        <ele>873.2</ele>
        <time>2015-09-22T10:09:25Z</time>
      </trkpt>
      <trkpt lat="42.36043" lon="0.10824">
        <ele>872.8</ele>
        <time>2015-09-22T10:09:27Z</time>
      </trkpt>
      <trkpt lat="42.36046" lon="0.10819">
        <ele>872.6</ele>
        <time>2015-09-22T10:09:29Z</time>
      </trkpt>
      <trkpt lat="42.36051" lon="0.10816">
        <ele>872.8</ele>
        <time>2015-09-22T10:09:31Z</time>
      </trkpt>
      <trkpt lat="42.36054" lon="0.10814">
        <ele>872.9</ele>
        <time>2015-09-22T10:09:32Z</time>
      </trkpt>
      <trkpt lat="42.36057" lon="0.10812">
        <ele>873</ele>
        <time>2015-09-22T10:09:33Z</time>
      </trkpt>
      <trkpt lat="42.36059" lon="0.10811">
        <ele>873.1</ele>
        <time>2015-09-22T10:09:34Z</time>
      </trkpt>
      <trkpt lat="42.36062" lon="0.10809">
        <ele>873.2</ele>
        <time>2015-09-22T10:09:35Z</time>
      </trkpt>
      <trkpt lat="42.36065" lon="0.10808">
        <ele>873.4</ele>
        <time>2015-09-22T10:09:36Z</time>
      </trkpt>
      <trkpt lat="42.36068" lon="0.10807">
        <ele>873.6</ele>
        <time>2015-09-22T10:09:37Z</time>
      </trkpt>
      <trkpt lat="42.36071" lon="0.10806">
        <ele>873.8</ele>
        <time>2015-09-22T10:09:38Z</time>
      </trkpt>
      <trkpt lat="42.36074" lon="0.10806">
        <ele>874</ele>
        <time>2015-09-22T10:09:39Z</time>
      </trkpt>
      <trkpt lat="42.36077" lon="0.10805">
        <ele>874.2</ele>
        <time>2015-09-22T10:09:40Z</time>
      </trkpt>
      <trkpt lat="42.36079" lon="0.10804">
        <ele>874.4</ele>
        <time>2015-09-22T10:09:41Z</time>
      </trkpt>
      <trkpt lat="42.36082" lon="0.10803">
        <ele>874.6</ele>
        <time>2015-09-22T10:09:42Z</time>
      </trkpt>
      <trkpt lat="42.36085" lon="0.10803">
        <ele>874.9</ele>
        <time>2015-09-22T10:09:43Z</time>
      </trkpt>
      <trkpt lat="42.36088" lon="0.10803">
        <ele>875.1</ele>
        <time>2015-09-22T10:09:44Z</time>
      </trkpt>
      <trkpt lat="42.36091" lon="0.10803">
        <ele>875.4</ele>
        <time>2015-09-22T10:09:45Z</time>
      </trkpt>
      <trkpt lat="42.36094" lon="0.10804">
        <ele>875.7</ele>
        <time>2015-09-22T10:09:46Z</time>
      </trkpt>
      <trkpt lat="42.36097" lon="0.10805">
        <ele>876</ele>
        <time>2015-09-22T10:09:47Z</time>
      </trkpt>
      <trkpt lat="42.36101" lon="0.10808">
        <ele>876.5</ele>
        <time>2015-09-22T10:09:49Z</time>
      </trkpt>
      <trkpt lat="42.36105" lon="0.1081">
        <ele>877</ele>
        <time>2015-09-22T10:09:51Z</time>
      </trkpt>
      <trkpt lat="42.3611" lon="0.1081">
        <ele>877.4</ele>
        <time>2015-09-22T10:09:53Z</time>
      </trkpt>
      <trkpt lat="42.36114" lon="0.10809">
        <ele>877.7</ele>
        <time>2015-09-22T10:09:55Z</time>
      </trkpt>
      <trkpt lat="42.36118" lon="0.10809">
        <ele>878</ele>
        <time>2015-09-22T10:09:58Z</time>
      </trkpt>
      <trkpt lat="42.3612" lon="0.10811">
        <ele>878.3</ele>
        <time>2015-09-22T10:10:08Z</time>
      </trkpt>
      <trkpt lat="42.36123" lon="0.10813">
        <ele>878.6</ele>
        <time>2015-09-22T10:10:13Z</time>
      </trkpt>
      <trkpt lat="42.36126" lon="0.10814">
        <ele>878.9</ele>
        <time>2015-09-22T10:10:17Z</time>
      </trkpt>
      <trkpt lat="42.36129" lon="0.10814">
        <ele>879.3</ele>
        <time>2015-09-22T10:10:20Z</time>
      </trkpt>
      <trkpt lat="42.36132" lon="0.10814">
        <ele>879.6</ele>
        <time>2015-09-22T10:10:24Z</time>
      </trkpt>
      <trkpt lat="42.36134" lon="0.10812">
        <ele>879.8</ele>
        <time>2015-09-22T10:10:40Z</time>
      </trkpt>
      <trkpt lat="42.36137" lon="0.10809">
        <ele>880</ele>
        <time>2015-09-22T10:11:00Z</time>
      </trkpt>
      <trkpt lat="42.3614" lon="0.10806">
        <ele>880.4</ele>
        <time>2015-09-22T10:11:02Z</time>
      </trkpt>
      <trkpt lat="42.36144" lon="0.10803">
        <ele>880.8</ele>
        <time>2015-09-22T10:11:04Z</time>
      </trkpt>
      <trkpt lat="42.36147" lon="0.10799">
        <ele>881.1</ele>
        <time>2015-09-22T10:11:06Z</time>
      </trkpt>
      <trkpt lat="42.36149" lon="0.10794">
        <ele>881.3</ele>
        <time>2015-09-22T10:11:08Z</time>
      </trkpt>
      <trkpt lat="42.36152" lon="0.10788">
        <ele>881.8</ele>
        <time>2015-09-22T10:11:10Z</time>
      </trkpt>
      <trkpt lat="42.36153" lon="0.10784">
        <ele>882.2</ele>
        <time>2015-09-22T10:11:11Z</time>
      </trkpt>
      <trkpt lat="42.36156" lon="0.10779">
        <ele>882.8</ele>
        <time>2015-09-22T10:11:13Z</time>
      </trkpt>
      <trkpt lat="42.36159" lon="0.10774">
        <ele>883.6</ele>
        <time>2015-09-22T10:11:15Z</time>
      </trkpt>
      <trkpt lat="42.36161" lon="0.10771">
        <ele>884</ele>
        <time>2015-09-22T10:11:16Z</time>
      </trkpt>
      <trkpt lat="42.36163" lon="0.10768">
        <ele>884.5</ele>
        <time>2015-09-22T10:11:17Z</time>
      </trkpt>
      <trkpt lat="42.36165" lon="0.10765">
        <ele>884.8</ele>
        <time>2015-09-22T10:11:18Z</time>
      </trkpt>
      <trkpt lat="42.36166" lon="0.10759">
        <ele>885.4</ele>
        <time>2015-09-22T10:11:20Z</time>
      </trkpt>
      <trkpt lat="42.36169" lon="0.10754">
        <ele>886.1</ele>
        <time>2015-09-22T10:11:22Z</time>
      </trkpt>
      <trkpt lat="42.36171" lon="0.10748">
        <ele>886.6</ele>
        <time>2015-09-22T10:11:24Z</time>
      </trkpt>
      <trkpt lat="42.36171" lon="0.10742">
        <ele>887.1</ele>
        <time>2015-09-22T10:11:26Z</time>
      </trkpt>
      <trkpt lat="42.36172" lon="0.10737">
        <ele>887.5</ele>
        <time>2015-09-22T10:11:28Z</time>
      </trkpt>
      <trkpt lat="42.36173" lon="0.10731">
        <ele>888</ele>
        <time>2015-09-22T10:11:30Z</time>
      </trkpt>
      <trkpt lat="42.36175" lon="0.10726">
        <ele>888.5</ele>
        <time>2015-09-22T10:11:32Z</time>
      </trkpt>
      <trkpt lat="42.36177" lon="0.10721">
        <ele>889.1</ele>
        <time>2015-09-22T10:11:34Z</time>
      </trkpt>
      <trkpt lat="42.36179" lon="0.10715">
        <ele>889.7</ele>
        <time>2015-09-22T10:11:36Z</time>
      </trkpt>
      <trkpt lat="42.36179" lon="0.10709">
        <ele>890.1</ele>
        <time>2015-09-22T10:11:38Z</time>
      </trkpt>
      <trkpt lat="42.3618" lon="0.10704">
        <ele>890.5</ele>
        <time>2015-09-22T10:11:40Z</time>
      </trkpt>
      <trkpt lat="42.36183" lon="0.10706">
        <ele>890.7</ele>
        <time>2015-09-22T10:11:46Z</time>
      </trkpt>
      <trkpt lat="42.36184" lon="0.1071">
        <ele>890.6</ele>
        <time>2015-09-22T10:11:53Z</time>
      </trkpt>
      <trkpt lat="42.36183" lon="0.10714">
        <ele>890.4</ele>
        <time>2015-09-22T10:12:04Z</time>
      </trkpt>
      <trkpt lat="42.36184" lon="0.10718">
        <ele>890.2</ele>
        <time>2015-09-22T10:12:06Z</time>
      </trkpt>
      <trkpt lat="42.36185" lon="0.10722">
        <ele>890</ele>
        <time>2015-09-22T10:12:08Z</time>
      </trkpt>
      <trkpt lat="42.36186" lon="0.10727">
        <ele>889.9</ele>
        <time>2015-09-22T10:12:10Z</time>
      </trkpt>
      <trkpt lat="42.36188" lon="0.10731">
        <ele>889.9</ele>
        <time>2015-09-22T10:12:12Z</time>
      </trkpt>
      <trkpt lat="42.3619" lon="0.10734">
        <ele>890</ele>
        <time>2015-09-22T10:12:14Z</time>
      </trkpt>
      <trkpt lat="42.36192" lon="0.10738">
        <ele>890.1</ele>
        <time>2015-09-22T10:12:16Z</time>
      </trkpt>
      <trkpt lat="42.36196" lon="0.1074">
        <ele>890.5</ele>
        <time>2015-09-22T10:12:18Z</time>
      </trkpt>
      <trkpt lat="42.36201" lon="0.10739">
        <ele>891.2</ele>
        <time>2015-09-22T10:12:20Z</time>
      </trkpt>
      <trkpt lat="42.36205" lon="0.1074">
        <ele>891.7</ele>
        <time>2015-09-22T10:12:22Z</time>
      </trkpt>
      <trkpt lat="42.36211" lon="0.10741">
        <ele>892.2</ele>
        <time>2015-09-22T10:12:24Z</time>
      </trkpt>
      <trkpt lat="42.36214" lon="0.10741">
        <ele>892.5</ele>
        <time>2015-09-22T10:12:25Z</time>
      </trkpt>
      <trkpt lat="42.36219" lon="0.1074">
        <ele>893.1</ele>
        <time>2015-09-22T10:12:27Z</time>
      </trkpt>
      <trkpt lat="42.36224" lon="0.1074">
        <ele>893.6</ele>
        <time>2015-09-22T10:12:29Z</time>
      </trkpt>
      <trkpt lat="42.36229" lon="0.10741">
        <ele>894</ele>
        <time>2015-09-22T10:12:31Z</time>
      </trkpt>
      <trkpt lat="42.36234" lon="0.10743">
        <ele>894.4</ele>
        <time>2015-09-22T10:12:33Z</time>
      </trkpt>
      <trkpt lat="42.36239" lon="0.10746">
        <ele>894.7</ele>
        <time>2015-09-22T10:12:35Z</time>
      </trkpt>
      <trkpt lat="42.36241" lon="0.10747">
        <ele>894.9</ele>
        <time>2015-09-22T10:12:36Z</time>
      </trkpt>
      <trkpt lat="42.36244" lon="0.10748">
        <ele>895.1</ele>
        <time>2015-09-22T10:12:37Z</time>
      </trkpt>
      <trkpt lat="42.36247" lon="0.10748">
        <ele>895.3</ele>
        <time>2015-09-22T10:12:38Z</time>
      </trkpt>
      <trkpt lat="42.3625" lon="0.10749">
        <ele>895.6</ele>
        <time>2015-09-22T10:12:39Z</time>
      </trkpt>
      <trkpt lat="42.36253" lon="0.1075">
        <ele>895.8</ele>
        <time>2015-09-22T10:12:40Z</time>
      </trkpt>
      <trkpt lat="42.36255" lon="0.10751">
        <ele>895.9</ele>
        <time>2015-09-22T10:12:41Z</time>
      </trkpt>
      <trkpt lat="42.36259" lon="0.10756">
        <ele>896.1</ele>
        <time>2015-09-22T10:12:43Z</time>
      </trkpt>
      <trkpt lat="42.36261" lon="0.10759">
        <ele>896.1</ele>
        <time>2015-09-22T10:12:44Z</time>
      </trkpt>
      <trkpt lat="42.36263" lon="0.10762">
        <ele>896</ele>
        <time>2015-09-22T10:12:45Z</time>
      </trkpt>
      <trkpt lat="42.36265" lon="0.10765">
        <ele>896</ele>
        <time>2015-09-22T10:12:46Z</time>
      </trkpt>
      <trkpt lat="42.36266" lon="0.10768">
        <ele>896</ele>
        <time>2015-09-22T10:12:47Z</time>
      </trkpt>
      <trkpt lat="42.36267" lon="0.10773">
        <ele>895.8</ele>
        <time>2015-09-22T10:12:49Z</time>
      </trkpt>
      <trkpt lat="42.36267" lon="0.10777">
        <ele>895.6</ele>
        <time>2015-09-22T10:12:51Z</time>
      </trkpt>
      <trkpt lat="42.36269" lon="0.1078">
        <ele>895.5</ele>
        <time>2015-09-22T10:12:54Z</time>
      </trkpt>
      <trkpt lat="42.36273" lon="0.10779">
        <ele>895.9</ele>
        <time>2015-09-22T10:12:57Z</time>
      </trkpt>
      <trkpt lat="42.36276" lon="0.10778">
        <ele>896.3</ele>
        <time>2015-09-22T10:13:00Z</time>
      </trkpt>
      <trkpt lat="42.3628" lon="0.10779">
        <ele>896.7</ele>
        <time>2015-09-22T10:13:35Z</time>
      </trkpt>
      <trkpt lat="42.36286" lon="0.10779">
        <ele>897.2</ele>
        <time>2015-09-22T10:13:37Z</time>
      </trkpt>
      <trkpt lat="42.36291" lon="0.10779">
        <ele>897.7</ele>
        <time>2015-09-22T10:13:39Z</time>
      </trkpt>
      <trkpt lat="42.36296" lon="0.10778">
        <ele>898.1</ele>
        <time>2015-09-22T10:13:41Z</time>
      </trkpt>
      <trkpt lat="42.36299" lon="0.10778">
        <ele>898.3</ele>
        <time>2015-09-22T10:13:42Z</time>
      </trkpt>
      <trkpt lat="42.36302" lon="0.10779">
        <ele>898.5</ele>
        <time>2015-09-22T10:13:43Z</time>
      </trkpt>
      <trkpt lat="42.36305" lon="0.10778">
        <ele>898.7</ele>
        <time>2015-09-22T10:13:44Z</time>
      </trkpt>
      <trkpt lat="42.36308" lon="0.10778">
        <ele>898.9</ele>
        <time>2015-09-22T10:13:45Z</time>
      </trkpt>
      <trkpt lat="42.3631" lon="0.10777">
        <ele>899.2</ele>
        <time>2015-09-22T10:13:46Z</time>
      </trkpt>
      <trkpt lat="42.36316" lon="0.10776">
        <ele>899.6</ele>
        <time>2015-09-22T10:13:48Z</time>
      </trkpt>
      <trkpt lat="42.36319" lon="0.10776">
        <ele>899.8</ele>
        <time>2015-09-22T10:13:49Z</time>
      </trkpt>
      <trkpt lat="42.36322" lon="0.10777">
        <ele>899.9</ele>
        <time>2015-09-22T10:13:50Z</time>
      </trkpt>
      <trkpt lat="42.36325" lon="0.10779">
        <ele>900</ele>
        <time>2015-09-22T10:13:51Z</time>
      </trkpt>
      <trkpt lat="42.36327" lon="0.1078">
        <ele>900.2</ele>
        <time>2015-09-22T10:13:52Z</time>
      </trkpt>
      <trkpt lat="42.3633" lon="0.10782">
        <ele>900.3</ele>
        <time>2015-09-22T10:13:53Z</time>
      </trkpt>
      <trkpt lat="42.36335" lon="0.10785">
        <ele>900.4</ele>
        <time>2015-09-22T10:13:55Z</time>
      </trkpt>
      <trkpt lat="42.36339" lon="0.10787">
        <ele>900.6</ele>
        <time>2015-09-22T10:13:57Z</time>
      </trkpt>
      <trkpt lat="42.36344" lon="0.10789">
        <ele>900.9</ele>
        <time>2015-09-22T10:13:59Z</time>
      </trkpt>
      <trkpt lat="42.36349" lon="0.10792">
        <ele>901.1</ele>
        <time>2015-09-22T10:14:01Z</time>
      </trkpt>
      <trkpt lat="42.36353" lon="0.10794">
        <ele>901.3</ele>
        <time>2015-09-22T10:14:03Z</time>
      </trkpt>
      <trkpt lat="42.36358" lon="0.10798">
        <ele>901.3</ele>
        <time>2015-09-22T10:14:05Z</time>
      </trkpt>
      <trkpt lat="42.36362" lon="0.10801">
        <ele>901.4</ele>
        <time>2015-09-22T10:14:07Z</time>
      </trkpt>
      <trkpt lat="42.36367" lon="0.10804">
        <ele>901.5</ele>
        <time>2015-09-22T10:14:09Z</time>
      </trkpt>
      <trkpt lat="42.36372" lon="0.10806">
        <ele>901.7</ele>
        <time>2015-09-22T10:14:11Z</time>
      </trkpt>
      <trkpt lat="42.36377" lon="0.10807">
        <ele>902</ele>
        <time>2015-09-22T10:14:13Z</time>
      </trkpt>
      <trkpt lat="42.36383" lon="0.10808">
        <ele>902.2</ele>
        <time>2015-09-22T10:14:15Z</time>
      </trkpt>
      <trkpt lat="42.36385" lon="0.10808">
        <ele>902.4</ele>
        <time>2015-09-22T10:14:16Z</time>
      </trkpt>
      <trkpt lat="42.36388" lon="0.10807">
        <ele>902.5</ele>
        <time>2015-09-22T10:14:17Z</time>
      </trkpt>
      <trkpt lat="42.36394" lon="0.10807">
        <ele>902.8</ele>
        <time>2015-09-22T10:14:19Z</time>
      </trkpt>
      <trkpt lat="42.36396" lon="0.10806">
        <ele>903</ele>
        <time>2015-09-22T10:14:20Z</time>
      </trkpt>
      <trkpt lat="42.36399" lon="0.10805">
        <ele>903.2</ele>
        <time>2015-09-22T10:14:21Z</time>
      </trkpt>
      <trkpt lat="42.36404" lon="0.10803">
        <ele>903.6</ele>
        <time>2015-09-22T10:14:23Z</time>
      </trkpt>
      <trkpt lat="42.36408" lon="0.10801">
        <ele>903.9</ele>
        <time>2015-09-22T10:14:25Z</time>
      </trkpt>
      <trkpt lat="42.36411" lon="0.10801">
        <ele>904.1</ele>
        <time>2015-09-22T10:14:28Z</time>
      </trkpt>
      <trkpt lat="42.36414" lon="0.10799">
        <ele>904.4</ele>
        <time>2015-09-22T10:17:42Z</time>
      </trkpt>
      <trkpt lat="42.36418" lon="0.10796">
        <ele>904.8</ele>
        <time>2015-09-22T10:17:44Z</time>
      </trkpt>
      <trkpt lat="42.36422" lon="0.10792">
        <ele>905.2</ele>
        <time>2015-09-22T10:17:46Z</time>
      </trkpt>
      <trkpt lat="42.36424" lon="0.1079">
        <ele>905.4</ele>
        <time>2015-09-22T10:17:47Z</time>
      </trkpt>
      <trkpt lat="42.36427" lon="0.10789">
        <ele>905.5</ele>
        <time>2015-09-22T10:17:48Z</time>
      </trkpt>
      <trkpt lat="42.3643" lon="0.10788">
        <ele>905.7</ele>
        <time>2015-09-22T10:17:49Z</time>
      </trkpt>
      <trkpt lat="42.36435" lon="0.10786">
        <ele>905.9</ele>
        <time>2015-09-22T10:17:51Z</time>
      </trkpt>
      <trkpt lat="42.36439" lon="0.10785">
        <ele>906.1</ele>
        <time>2015-09-22T10:17:53Z</time>
      </trkpt>
      <trkpt lat="42.36444" lon="0.10782">
        <ele>906.4</ele>
        <time>2015-09-22T10:17:55Z</time>
      </trkpt>
      <trkpt lat="42.36448" lon="0.10779">
        <ele>906.6</ele>
        <time>2015-09-22T10:17:57Z</time>
      </trkpt>
      <trkpt lat="42.36452" lon="0.10776">
        <ele>906.7</ele>
        <time>2015-09-22T10:17:59Z</time>
      </trkpt>
      <trkpt lat="42.36456" lon="0.10773">
        <ele>906.9</ele>
        <time>2015-09-22T10:18:01Z</time>
      </trkpt>
      <trkpt lat="42.36461" lon="0.1077">
        <ele>906.8</ele>
        <time>2015-09-22T10:18:03Z</time>
      </trkpt>
      <trkpt lat="42.36466" lon="0.10768">
        <ele>906.6</ele>
        <time>2015-09-22T10:18:05Z</time>
      </trkpt>
      <trkpt lat="42.36469" lon="0.10767">
        <ele>906.3</ele>
        <time>2015-09-22T10:18:07Z</time>
      </trkpt>
      <trkpt lat="42.36473" lon="0.10768">
        <ele>906.1</ele>
        <time>2015-09-22T10:18:09Z</time>
      </trkpt>
      <trkpt lat="42.36475" lon="0.10773">
        <ele>906</ele>
        <time>2015-09-22T10:18:11Z</time>
      </trkpt>
      <trkpt lat="42.36479" lon="0.10776">
        <ele>905.8</ele>
        <time>2015-09-22T10:18:13Z</time>
      </trkpt>
      <trkpt lat="42.36482" lon="0.10773">
        <ele>905.6</ele>
        <time>2015-09-22T10:18:15Z</time>
      </trkpt>
      <trkpt lat="42.36485" lon="0.10769">
        <ele>905.4</ele>
        <time>2015-09-22T10:18:17Z</time>
      </trkpt>
      <trkpt lat="42.36489" lon="0.10764">
        <ele>905.2</ele>
        <time>2015-09-22T10:18:19Z</time>
      </trkpt>
      <trkpt lat="42.36491" lon="0.1076">
        <ele>905.1</ele>
        <time>2015-09-22T10:18:20Z</time>
      </trkpt>
      <trkpt lat="42.36492" lon="0.10757">
        <ele>905</ele>
        <time>2015-09-22T10:18:21Z</time>
      </trkpt>
      <trkpt lat="42.36495" lon="0.10751">
        <ele>904.8</ele>
        <time>2015-09-22T10:18:23Z</time>
      </trkpt>
      <trkpt lat="42.36496" lon="0.10746">
        <ele>904.7</ele>
        <time>2015-09-22T10:18:25Z</time>
      </trkpt>
      <trkpt lat="42.36497" lon="0.10739">
        <ele>904.7</ele>
        <time>2015-09-22T10:18:27Z</time>
      </trkpt>
      <trkpt lat="42.36497" lon="0.10732">
        <ele>904.7</ele>
        <time>2015-09-22T10:18:29Z</time>
      </trkpt>
      <trkpt lat="42.36497" lon="0.10725">
        <ele>904.7</ele>
        <time>2015-09-22T10:18:31Z</time>
      </trkpt>
      <trkpt lat="42.36498" lon="0.10718">
        <ele>904.6</ele>
        <time>2015-09-22T10:18:33Z</time>
      </trkpt>
      <trkpt lat="42.36499" lon="0.10713">
        <ele>904.6</ele>
        <time>2015-09-22T10:18:34Z</time>
      </trkpt>
      <trkpt lat="42.36499" lon="0.10709">
        <ele>904.6</ele>
        <time>2015-09-22T10:18:35Z</time>
      </trkpt>
      <trkpt lat="42.36499" lon="0.10704">
        <ele>904.6</ele>
        <time>2015-09-22T10:18:36Z</time>
      </trkpt>
      <trkpt lat="42.36498" lon="0.107">
        <ele>904.6</ele>
        <time>2015-09-22T10:18:37Z</time>
      </trkpt>
      <trkpt lat="42.36498" lon="0.10696">
        <ele>904.6</ele>
        <time>2015-09-22T10:18:38Z</time>
      </trkpt>
      <trkpt lat="42.36498" lon="0.10693">
        <ele>904.5</ele>
        <time>2015-09-22T10:18:39Z</time>
      </trkpt>
      <trkpt lat="42.36498" lon="0.10685">
        <ele>904.5</ele>
        <time>2015-09-22T10:18:41Z</time>
      </trkpt>
      <trkpt lat="42.36498" lon="0.10681">
        <ele>904.5</ele>
        <time>2015-09-22T10:18:42Z</time>
      </trkpt>
      <trkpt lat="42.36499" lon="0.10677">
        <ele>904.4</ele>
        <time>2015-09-22T10:18:43Z</time>
      </trkpt>
      <trkpt lat="42.365" lon="0.10674">
        <ele>904.3</ele>
        <time>2015-09-22T10:18:44Z</time>
      </trkpt>
      <trkpt lat="42.36502" lon="0.10671">
        <ele>904.2</ele>
        <time>2015-09-22T10:18:45Z</time>
      </trkpt>
      <trkpt lat="42.36504" lon="0.10668">
        <ele>904</ele>
        <time>2015-09-22T10:18:46Z</time>
      </trkpt>
      <trkpt lat="42.36507" lon="0.10665">
        <ele>903.9</ele>
        <time>2015-09-22T10:18:47Z</time>
      </trkpt>
      <trkpt lat="42.36509" lon="0.10663">
        <ele>903.7</ele>
        <time>2015-09-22T10:18:48Z</time>
      </trkpt>
      <trkpt lat="42.36512" lon="0.10661">
        <ele>903.6</ele>
        <time>2015-09-22T10:18:49Z</time>
      </trkpt>
      <trkpt lat="42.36514" lon="0.10659">
        <ele>903.4</ele>
        <time>2015-09-22T10:18:50Z</time>
      </trkpt>
      <trkpt lat="42.36517" lon="0.10657">
        <ele>903.3</ele>
        <time>2015-09-22T10:18:51Z</time>
      </trkpt>
      <trkpt lat="42.3652" lon="0.10655">
        <ele>903.2</ele>
        <time>2015-09-22T10:18:52Z</time>
      </trkpt>
      <trkpt lat="42.36522" lon="0.10652">
        <ele>903</ele>
        <time>2015-09-22T10:18:53Z</time>
      </trkpt>
      <trkpt lat="42.36526" lon="0.10649">
        <ele>902.8</ele>
        <time>2015-09-22T10:18:54Z</time>
      </trkpt>
      <trkpt lat="42.3653" lon="0.10645">
        <ele>902.6</ele>
        <time>2015-09-22T10:18:55Z</time>
      </trkpt>
      <trkpt lat="42.36534" lon="0.10641">
        <ele>902.4</ele>
        <time>2015-09-22T10:18:56Z</time>
      </trkpt>
      <trkpt lat="42.36539" lon="0.10637">
        <ele>902.1</ele>
        <time>2015-09-22T10:18:57Z</time>
      </trkpt>
      <trkpt lat="42.36543" lon="0.10634">
        <ele>901.9</ele>
        <time>2015-09-22T10:18:58Z</time>
      </trkpt>
      <trkpt lat="42.36548" lon="0.1063">
        <ele>901.5</ele>
        <time>2015-09-22T10:18:59Z</time>
      </trkpt>
      <trkpt lat="42.36552" lon="0.10626">
        <ele>901.1</ele>
        <time>2015-09-22T10:19:00Z</time>
      </trkpt>
      <trkpt lat="42.36556" lon="0.10622">
        <ele>900.7</ele>
        <time>2015-09-22T10:19:01Z</time>
      </trkpt>
      <trkpt lat="42.36559" lon="0.10618">
        <ele>900.3</ele>
        <time>2015-09-22T10:19:02Z</time>
      </trkpt>
      <trkpt lat="42.36563" lon="0.10614">
        <ele>899.8</ele>
        <time>2015-09-22T10:19:03Z</time>
      </trkpt>
      <trkpt lat="42.36567" lon="0.10609">
        <ele>899.3</ele>
        <time>2015-09-22T10:19:04Z</time>
      </trkpt>
      <trkpt lat="42.36571" lon="0.10603">
        <ele>898.7</ele>
        <time>2015-09-22T10:19:05Z</time>
      </trkpt>
      <trkpt lat="42.36575" lon="0.10599">
        <ele>898.3</ele>
        <time>2015-09-22T10:19:06Z</time>
      </trkpt>
      <trkpt lat="42.36578" lon="0.10592">
        <ele>897.8</ele>
        <time>2015-09-22T10:19:07Z</time>
      </trkpt>
      <trkpt lat="42.3658" lon="0.10586">
        <ele>897.4</ele>
        <time>2015-09-22T10:19:08Z</time>
      </trkpt>
      <trkpt lat="42.36583" lon="0.1058">
        <ele>896.9</ele>
        <time>2015-09-22T10:19:09Z</time>
      </trkpt>
      <trkpt lat="42.36585" lon="0.10575">
        <ele>896.6</ele>
        <time>2015-09-22T10:19:10Z</time>
      </trkpt>
      <trkpt lat="42.36588" lon="0.1057">
        <ele>896.1</ele>
        <time>2015-09-22T10:19:11Z</time>
      </trkpt>
      <trkpt lat="42.36591" lon="0.10565">
        <ele>895.7</ele>
        <time>2015-09-22T10:19:12Z</time>
      </trkpt>
      <trkpt lat="42.36593" lon="0.10559">
        <ele>895.3</ele>
        <time>2015-09-22T10:19:13Z</time>
      </trkpt>
      <trkpt lat="42.36596" lon="0.10552">
        <ele>894.8</ele>
        <time>2015-09-22T10:19:14Z</time>
      </trkpt>
      <trkpt lat="42.366" lon="0.10544">
        <ele>894.2</ele>
        <time>2015-09-22T10:19:15Z</time>
      </trkpt>
      <trkpt lat="42.36602" lon="0.10537">
        <ele>893.7</ele>
        <time>2015-09-22T10:19:16Z</time>
      </trkpt>
      <trkpt lat="42.36604" lon="0.10533">
        <ele>893.4</ele>
        <time>2015-09-22T10:19:17Z</time>
      </trkpt>
      <trkpt lat="42.36605" lon="0.10529">
        <ele>893.1</ele>
        <time>2015-09-22T10:19:19Z</time>
      </trkpt>
      <trkpt lat="42.36609" lon="0.10527">
        <ele>892.7</ele>
        <time>2015-09-22T10:19:22Z</time>
      </trkpt>
      <trkpt lat="42.36613" lon="0.10531">
        <ele>892.5</ele>
        <time>2015-09-22T10:19:24Z</time>
      </trkpt>
      <trkpt lat="42.36614" lon="0.10535">
        <ele>892.6</ele>
        <time>2015-09-22T10:19:25Z</time>
      </trkpt>
      <trkpt lat="42.36616" lon="0.1054">
        <ele>892.7</ele>
        <time>2015-09-22T10:19:26Z</time>
      </trkpt>
      <trkpt lat="42.36618" lon="0.10543">
        <ele>892.6</ele>
        <time>2015-09-22T10:19:27Z</time>
      </trkpt>
      <trkpt lat="42.36622" lon="0.10546">
        <ele>892.4</ele>
        <time>2015-09-22T10:19:29Z</time>
      </trkpt>
      <trkpt lat="42.3662" lon="0.10543">
        <ele>892.4</ele>
        <time>2015-09-22T10:19:40Z</time>
      </trkpt>
      <trkpt lat="42.36623" lon="0.10545">
        <ele>892.3</ele>
        <time>2015-09-22T10:19:55Z</time>
      </trkpt>
      <trkpt lat="42.36627" lon="0.10545">
        <ele>892.1</ele>
        <time>2015-09-22T10:19:57Z</time>
      </trkpt>
      <trkpt lat="42.36631" lon="0.10544">
        <ele>892.1</ele>
        <time>2015-09-22T10:19:59Z</time>
      </trkpt>
      <trkpt lat="42.36635" lon="0.10546">
        <ele>892.2</ele>
        <time>2015-09-22T10:20:02Z</time>
      </trkpt>
      <trkpt lat="42.36638" lon="0.10548">
        <ele>892.3</ele>
        <time>2015-09-22T10:20:04Z</time>
      </trkpt>
      <trkpt lat="42.3664" lon="0.10546">
        <ele>892.3</ele>
        <time>2015-09-22T10:20:06Z</time>
      </trkpt>
      <trkpt lat="42.36641" lon="0.10542">
        <ele>892.2</ele>
        <time>2015-09-22T10:20:08Z</time>
      </trkpt>
      <trkpt lat="42.36643" lon="0.10538">
        <ele>892</ele>
        <time>2015-09-22T10:20:10Z</time>
      </trkpt>
      <trkpt lat="42.36645" lon="0.10535">
        <ele>891.9</ele>
        <time>2015-09-22T10:20:11Z</time>
      </trkpt>
      <trkpt lat="42.36647" lon="0.10533">
        <ele>891.8</ele>
        <time>2015-09-22T10:20:12Z</time>
      </trkpt>
      <trkpt lat="42.3665" lon="0.10531">
        <ele>891.7</ele>
        <time>2015-09-22T10:20:13Z</time>
      </trkpt>
      <trkpt lat="42.36653" lon="0.1053">
        <ele>891.7</ele>
        <time>2015-09-22T10:20:14Z</time>
      </trkpt>
      <trkpt lat="42.36657" lon="0.10528">
        <ele>891.6</ele>
        <time>2015-09-22T10:20:15Z</time>
      </trkpt>
      <trkpt lat="42.36661" lon="0.10525">
        <ele>891.5</ele>
        <time>2015-09-22T10:20:16Z</time>
      </trkpt>
      <trkpt lat="42.36664" lon="0.10523">
        <ele>891.3</ele>
        <time>2015-09-22T10:20:17Z</time>
      </trkpt>
      <trkpt lat="42.36668" lon="0.1052">
        <ele>891.2</ele>
        <time>2015-09-22T10:20:18Z</time>
      </trkpt>
      <trkpt lat="42.36671" lon="0.10519">
        <ele>891.2</ele>
        <time>2015-09-22T10:20:19Z</time>
      </trkpt>
      <trkpt lat="42.36674" lon="0.10519">
        <ele>891.2</ele>
        <time>2015-09-22T10:20:20Z</time>
      </trkpt>
      <trkpt lat="42.36677" lon="0.10519">
        <ele>891.2</ele>
        <time>2015-09-22T10:20:21Z</time>
      </trkpt>
      <trkpt lat="42.3668" lon="0.1052">
        <ele>891.3</ele>
        <time>2015-09-22T10:20:22Z</time>
      </trkpt>
      <trkpt lat="42.36683" lon="0.10521">
        <ele>891.3</ele>
        <time>2015-09-22T10:20:23Z</time>
      </trkpt>
      <trkpt lat="42.36686" lon="0.10521">
        <ele>891.4</ele>
        <time>2015-09-22T10:20:24Z</time>
      </trkpt>
      <trkpt lat="42.3669" lon="0.1052">
        <ele>891.3</ele>
        <time>2015-09-22T10:20:25Z</time>
      </trkpt>
      <trkpt lat="42.36693" lon="0.10519">
        <ele>891.3</ele>
        <time>2015-09-22T10:20:26Z</time>
      </trkpt>
      <trkpt lat="42.36696" lon="0.10518">
        <ele>891.2</ele>
        <time>2015-09-22T10:20:27Z</time>
      </trkpt>
      <trkpt lat="42.36698" lon="0.10516">
        <ele>891.1</ele>
        <time>2015-09-22T10:20:28Z</time>
      </trkpt>
      <trkpt lat="42.36701" lon="0.10514">
        <ele>891</ele>
        <time>2015-09-22T10:20:29Z</time>
      </trkpt>
      <trkpt lat="42.36703" lon="0.10511">
        <ele>890.8</ele>
        <time>2015-09-22T10:20:30Z</time>
      </trkpt>
      <trkpt lat="42.36705" lon="0.10507">
        <ele>890.5</ele>
        <time>2015-09-22T10:20:31Z</time>
      </trkpt>
      <trkpt lat="42.36707" lon="0.10503">
        <ele>890.2</ele>
        <time>2015-09-22T10:20:32Z</time>
      </trkpt>
      <trkpt lat="42.36709" lon="0.10498">
        <ele>889.8</ele>
        <time>2015-09-22T10:20:33Z</time>
      </trkpt>
      <trkpt lat="42.36711" lon="0.10494">
        <ele>889.3</ele>
        <time>2015-09-22T10:20:34Z</time>
      </trkpt>
      <trkpt lat="42.36715" lon="0.10489">
        <ele>888.6</ele>
        <time>2015-09-22T10:20:35Z</time>
      </trkpt>
      <trkpt lat="42.36718" lon="0.10486">
        <ele>888.1</ele>
        <time>2015-09-22T10:20:36Z</time>
      </trkpt>
      <trkpt lat="42.36722" lon="0.10483">
        <ele>887.6</ele>
        <time>2015-09-22T10:20:37Z</time>
      </trkpt>
      <trkpt lat="42.36726" lon="0.10481">
        <ele>887.1</ele>
        <time>2015-09-22T10:20:38Z</time>
      </trkpt>
      <trkpt lat="42.3673" lon="0.10478">
        <ele>886.7</ele>
        <time>2015-09-22T10:20:39Z</time>
      </trkpt>
      <trkpt lat="42.36733" lon="0.10476">
        <ele>886.3</ele>
        <time>2015-09-22T10:20:40Z</time>
      </trkpt>
      <trkpt lat="42.36735" lon="0.10473">
        <ele>885.9</ele>
        <time>2015-09-22T10:20:41Z</time>
      </trkpt>
      <trkpt lat="42.36737" lon="0.1047">
        <ele>885.6</ele>
        <time>2015-09-22T10:20:42Z</time>
      </trkpt>
      <trkpt lat="42.36739" lon="0.10466">
        <ele>885.2</ele>
        <time>2015-09-22T10:20:43Z</time>
      </trkpt>
      <trkpt lat="42.3674" lon="0.10462">
        <ele>884.9</ele>
        <time>2015-09-22T10:20:44Z</time>
      </trkpt>
      <trkpt lat="42.36741" lon="0.10457">
        <ele>884.6</ele>
        <time>2015-09-22T10:20:45Z</time>
      </trkpt>
      <trkpt lat="42.36741" lon="0.10452">
        <ele>884.3</ele>
        <time>2015-09-22T10:20:46Z</time>
      </trkpt>
      <trkpt lat="42.36741" lon="0.10447">
        <ele>884</ele>
        <time>2015-09-22T10:20:47Z</time>
      </trkpt>
      <trkpt lat="42.3674" lon="0.10442">
        <ele>883.7</ele>
        <time>2015-09-22T10:20:48Z</time>
      </trkpt>
      <trkpt lat="42.36739" lon="0.10436">
        <ele>883.5</ele>
        <time>2015-09-22T10:20:49Z</time>
      </trkpt>
      <trkpt lat="42.36738" lon="0.10431">
        <ele>883.2</ele>
        <time>2015-09-22T10:20:50Z</time>
      </trkpt>
      <trkpt lat="42.36738" lon="0.10426">
        <ele>882.9</ele>
        <time>2015-09-22T10:20:51Z</time>
      </trkpt>
      <trkpt lat="42.36738" lon="0.10421">
        <ele>882.7</ele>
        <time>2015-09-22T10:20:52Z</time>
      </trkpt>
      <trkpt lat="42.36736" lon="0.10416">
        <ele>882.4</ele>
        <time>2015-09-22T10:20:53Z</time>
      </trkpt>
      <trkpt lat="42.36734" lon="0.10412">
        <ele>882.3</ele>
        <time>2015-09-22T10:20:54Z</time>
      </trkpt>
      <trkpt lat="42.36731" lon="0.10408">
        <ele>882.2</ele>
        <time>2015-09-22T10:20:55Z</time>
      </trkpt>
      <trkpt lat="42.36728" lon="0.10404">
        <ele>882.1</ele>
        <time>2015-09-22T10:20:56Z</time>
      </trkpt>
      <trkpt lat="42.36725" lon="0.104">
        <ele>882</ele>
        <time>2015-09-22T10:20:57Z</time>
      </trkpt>
      <trkpt lat="42.36724" lon="0.10396">
        <ele>881.8</ele>
        <time>2015-09-22T10:20:58Z</time>
      </trkpt>
      <trkpt lat="42.36723" lon="0.10391">
        <ele>881.6</ele>
        <time>2015-09-22T10:20:59Z</time>
      </trkpt>
      <trkpt lat="42.36725" lon="0.10385">
        <ele>881.1</ele>
        <time>2015-09-22T10:21:01Z</time>
      </trkpt>
      <trkpt lat="42.36728" lon="0.1038">
        <ele>880.6</ele>
        <time>2015-09-22T10:21:03Z</time>
      </trkpt>
      <trkpt lat="42.36733" lon="0.10374">
        <ele>880.2</ele>
        <time>2015-09-22T10:21:05Z</time>
      </trkpt>
      <trkpt lat="42.36735" lon="0.10371">
        <ele>880.2</ele>
        <time>2015-09-22T10:21:06Z</time>
      </trkpt>
      <trkpt lat="42.36739" lon="0.10372">
        <ele>880.1</ele>
        <time>2015-09-22T10:21:07Z</time>
      </trkpt>
      <trkpt lat="42.36742" lon="0.10372">
        <ele>879.9</ele>
        <time>2015-09-22T10:21:08Z</time>
      </trkpt>
      <trkpt lat="42.36745" lon="0.10373">
        <ele>879.8</ele>
        <time>2015-09-22T10:21:09Z</time>
      </trkpt>
      <trkpt lat="42.36748" lon="0.10373">
        <ele>879.7</ele>
        <time>2015-09-22T10:21:10Z</time>
      </trkpt>
      <trkpt lat="42.36751" lon="0.10372">
        <ele>879.6</ele>
        <time>2015-09-22T10:21:11Z</time>
      </trkpt>
      <trkpt lat="42.36753" lon="0.10369">
        <ele>879.7</ele>
        <time>2015-09-22T10:21:12Z</time>
      </trkpt>
      <trkpt lat="42.36755" lon="0.10365">
        <ele>879.9</ele>
        <time>2015-09-22T10:21:13Z</time>
      </trkpt>
      <trkpt lat="42.36756" lon="0.10362">
        <ele>880</ele>
        <time>2015-09-22T10:21:14Z</time>
      </trkpt>
      <trkpt lat="42.36758" lon="0.10357">
        <ele>880.2</ele>
        <time>2015-09-22T10:21:15Z</time>
      </trkpt>
      <trkpt lat="42.3676" lon="0.10351">
        <ele>880.5</ele>
        <time>2015-09-22T10:21:16Z</time>
      </trkpt>
      <trkpt lat="42.36761" lon="0.10345">
        <ele>880.8</ele>
        <time>2015-09-22T10:21:17Z</time>
      </trkpt>
      <trkpt lat="42.36761" lon="0.10338">
        <ele>881.2</ele>
        <time>2015-09-22T10:21:18Z</time>
      </trkpt>
      <trkpt lat="42.36763" lon="0.10334">
        <ele>881.4</ele>
        <time>2015-09-22T10:21:19Z</time>
      </trkpt>
      <trkpt lat="42.36765" lon="0.10331">
        <ele>881.4</ele>
        <time>2015-09-22T10:21:21Z</time>
      </trkpt>
      <trkpt lat="42.36768" lon="0.10329">
        <ele>881.4</ele>
        <time>2015-09-22T10:21:23Z</time>
      </trkpt>
      <trkpt lat="42.36773" lon="0.10329">
        <ele>881.3</ele>
        <time>2015-09-22T10:21:25Z</time>
      </trkpt>
      <trkpt lat="42.36775" lon="0.10324">
        <ele>881.5</ele>
        <time>2015-09-22T10:21:27Z</time>
      </trkpt>
      <trkpt lat="42.36775" lon="0.1032">
        <ele>881.8</ele>
        <time>2015-09-22T10:21:29Z</time>
      </trkpt>
      <trkpt lat="42.36777" lon="0.10317">
        <ele>881.9</ele>
        <time>2015-09-22T10:21:31Z</time>
      </trkpt>
      <trkpt lat="42.3678" lon="0.10314">
        <ele>881.9</ele>
        <time>2015-09-22T10:21:33Z</time>
      </trkpt>
      <trkpt lat="42.36783" lon="0.10313">
        <ele>882</ele>
        <time>2015-09-22T10:21:34Z</time>
      </trkpt>
      <trkpt lat="42.36787" lon="0.1031">
        <ele>882.1</ele>
        <time>2015-09-22T10:21:36Z</time>
      </trkpt>
      <trkpt lat="42.36789" lon="0.10305">
        <ele>882.2</ele>
        <time>2015-09-22T10:21:38Z</time>
      </trkpt>
      <trkpt lat="42.36791" lon="0.103">
        <ele>882.5</ele>
        <time>2015-09-22T10:21:40Z</time>
      </trkpt>
      <trkpt lat="42.3679" lon="0.10295">
        <ele>882.9</ele>
        <time>2015-09-22T10:21:42Z</time>
      </trkpt>
      <trkpt lat="42.36789" lon="0.10291">
        <ele>883.1</ele>
        <time>2015-09-22T10:21:44Z</time>
      </trkpt>
      <trkpt lat="42.3679" lon="0.10286">
        <ele>883</ele>
        <time>2015-09-22T10:21:47Z</time>
      </trkpt>
      <trkpt lat="42.36792" lon="0.10281">
        <ele>883</ele>
        <time>2015-09-22T10:21:49Z</time>
      </trkpt>
      <trkpt lat="42.36796" lon="0.10277">
        <ele>882.9</ele>
        <time>2015-09-22T10:21:51Z</time>
      </trkpt>
      <trkpt lat="42.36798" lon="0.10275">
        <ele>882.8</ele>
        <time>2015-09-22T10:21:52Z</time>
      </trkpt>
      <trkpt lat="42.36802" lon="0.10272">
        <ele>882.6</ele>
        <time>2015-09-22T10:21:53Z</time>
      </trkpt>
      <trkpt lat="42.36805" lon="0.1027">
        <ele>882.5</ele>
        <time>2015-09-22T10:21:54Z</time>
      </trkpt>
      <trkpt lat="42.36809" lon="0.10268">
        <ele>882.4</ele>
        <time>2015-09-22T10:21:55Z</time>
      </trkpt>
      <trkpt lat="42.36812" lon="0.10268">
        <ele>882.3</ele>
        <time>2015-09-22T10:21:56Z</time>
      </trkpt>
      <trkpt lat="42.36816" lon="0.10269">
        <ele>882.1</ele>
        <time>2015-09-22T10:21:57Z</time>
      </trkpt>
      <trkpt lat="42.36819" lon="0.10272">
        <ele>882</ele>
        <time>2015-09-22T10:21:59Z</time>
      </trkpt>
      <trkpt lat="42.36823" lon="0.10276">
        <ele>881.9</ele>
        <time>2015-09-22T10:22:01Z</time>
      </trkpt>
      <trkpt lat="42.36827" lon="0.10278">
        <ele>881.7</ele>
        <time>2015-09-22T10:22:03Z</time>
      </trkpt>
      <trkpt lat="42.36831" lon="0.10281">
        <ele>881.6</ele>
        <time>2015-09-22T10:22:05Z</time>
      </trkpt>
      <trkpt lat="42.36834" lon="0.10283">
        <ele>881.5</ele>
        <time>2015-09-22T10:22:07Z</time>
      </trkpt>
      <trkpt lat="42.36838" lon="0.10285">
        <ele>881.3</ele>
        <time>2015-09-22T10:22:09Z</time>
      </trkpt>
      <trkpt lat="42.36843" lon="0.10286">
        <ele>881.2</ele>
        <time>2015-09-22T10:22:11Z</time>
      </trkpt>
      <trkpt lat="42.36848" lon="0.10286">
        <ele>881</ele>
        <time>2015-09-22T10:22:13Z</time>
      </trkpt>
      <trkpt lat="42.36853" lon="0.10285">
        <ele>880.8</ele>
        <time>2015-09-22T10:22:15Z</time>
      </trkpt>
      <trkpt lat="42.36858" lon="0.10281">
        <ele>880.6</ele>
        <time>2015-09-22T10:22:17Z</time>
      </trkpt>
      <trkpt lat="42.3686" lon="0.10278">
        <ele>880.5</ele>
        <time>2015-09-22T10:22:18Z</time>
      </trkpt>
      <trkpt lat="42.36862" lon="0.10274">
        <ele>880.5</ele>
        <time>2015-09-22T10:22:19Z</time>
      </trkpt>
      <trkpt lat="42.36864" lon="0.10269">
        <ele>880.4</ele>
        <time>2015-09-22T10:22:20Z</time>
      </trkpt>
      <trkpt lat="42.36865" lon="0.10264">
        <ele>880.4</ele>
        <time>2015-09-22T10:22:21Z</time>
      </trkpt>
      <trkpt lat="42.36867" lon="0.10259">
        <ele>880.3</ele>
        <time>2015-09-22T10:22:22Z</time>
      </trkpt>
      <trkpt lat="42.36869" lon="0.10253">
        <ele>880.2</ele>
        <time>2015-09-22T10:22:23Z</time>
      </trkpt>
      <trkpt lat="42.3687" lon="0.10247">
        <ele>880.2</ele>
        <time>2015-09-22T10:22:24Z</time>
      </trkpt>
      <trkpt lat="42.36872" lon="0.1024">
        <ele>880.1</ele>
        <time>2015-09-22T10:22:25Z</time>
      </trkpt>
      <trkpt lat="42.36873" lon="0.10234">
        <ele>880.1</ele>
        <time>2015-09-22T10:22:26Z</time>
      </trkpt>
      <trkpt lat="42.36876" lon="0.1023">
        <ele>879.9</ele>
        <time>2015-09-22T10:22:27Z</time>
      </trkpt>
      <trkpt lat="42.36879" lon="0.10227">
        <ele>879.8</ele>
        <time>2015-09-22T10:22:28Z</time>
      </trkpt>
      <trkpt lat="42.36884" lon="0.10228">
        <ele>879.5</ele>
        <time>2015-09-22T10:22:30Z</time>
      </trkpt>
      <trkpt lat="42.36889" lon="0.10228">
        <ele>879.1</ele>
        <time>2015-09-22T10:22:32Z</time>
      </trkpt>
      <trkpt lat="42.36892" lon="0.10227">
        <ele>878.9</ele>
        <time>2015-09-22T10:22:33Z</time>
      </trkpt>
      <trkpt lat="42.36897" lon="0.10225">
        <ele>878.7</ele>
        <time>2015-09-22T10:22:35Z</time>
      </trkpt>
      <trkpt lat="42.36902" lon="0.10224">
        <ele>878.4</ele>
        <time>2015-09-22T10:22:37Z</time>
      </trkpt>
      <trkpt lat="42.36905" lon="0.10224">
        <ele>878.3</ele>
        <time>2015-09-22T10:22:39Z</time>
      </trkpt>
      <trkpt lat="42.36907" lon="0.10224">
        <ele>878.1</ele>
        <time>2015-09-22T10:22:47Z</time>
      </trkpt>
      <trkpt lat="42.3691" lon="0.10224">
        <ele>877.9</ele>
        <time>2015-09-22T10:22:48Z</time>
      </trkpt>
      <trkpt lat="42.36913" lon="0.10224">
        <ele>877.8</ele>
        <time>2015-09-22T10:22:49Z</time>
      </trkpt>
      <trkpt lat="42.36916" lon="0.10223">
        <ele>877.6</ele>
        <time>2015-09-22T10:22:50Z</time>
      </trkpt>
      <trkpt lat="42.36918" lon="0.10221">
        <ele>877.5</ele>
        <time>2015-09-22T10:22:51Z</time>
      </trkpt>
      <trkpt lat="42.36921" lon="0.1022">
        <ele>877.4</ele>
        <time>2015-09-22T10:22:52Z</time>
      </trkpt>
      <trkpt lat="42.36924" lon="0.10219">
        <ele>877.3</ele>
        <time>2015-09-22T10:22:53Z</time>
      </trkpt>
      <trkpt lat="42.36929" lon="0.10218">
        <ele>877.1</ele>
        <time>2015-09-22T10:22:55Z</time>
      </trkpt>
      <trkpt lat="42.36933" lon="0.10215">
        <ele>877</ele>
        <time>2015-09-22T10:22:57Z</time>
      </trkpt>
      <trkpt lat="42.36937" lon="0.10211">
        <ele>876.9</ele>
        <time>2015-09-22T10:22:59Z</time>
      </trkpt>
      <trkpt lat="42.3694" lon="0.10206">
        <ele>876.7</ele>
        <time>2015-09-22T10:23:01Z</time>
      </trkpt>
      <trkpt lat="42.36942" lon="0.102">
        <ele>876.1</ele>
        <time>2015-09-22T10:23:03Z</time>
      </trkpt>
      <trkpt lat="42.36945" lon="0.10196">
        <ele>875.6</ele>
        <time>2015-09-22T10:23:05Z</time>
      </trkpt>
      <trkpt lat="42.36948" lon="0.10191">
        <ele>875</ele>
        <time>2015-09-22T10:23:07Z</time>
      </trkpt>
      <trkpt lat="42.36949" lon="0.10187">
        <ele>874.7</ele>
        <time>2015-09-22T10:23:10Z</time>
      </trkpt>
      <trkpt lat="42.36951" lon="0.10185">
        <ele>874.3</ele>
        <time>2015-09-22T10:23:12Z</time>
      </trkpt>
      <trkpt lat="42.36955" lon="0.1018">
        <ele>873.8</ele>
        <time>2015-09-22T10:23:14Z</time>
      </trkpt>
      <trkpt lat="42.36958" lon="0.10176">
        <ele>873.3</ele>
        <time>2015-09-22T10:23:16Z</time>
      </trkpt>
      <trkpt lat="42.36962" lon="0.10171">
        <ele>871.9</ele>
        <time>2015-09-22T10:23:18Z</time>
      </trkpt>
      <trkpt lat="42.36964" lon="0.10167">
        <ele>871.1</ele>
        <time>2015-09-22T10:23:19Z</time>
      </trkpt>
      <trkpt lat="42.36965" lon="0.10164">
        <ele>870.3</ele>
        <time>2015-09-22T10:23:20Z</time>
      </trkpt>
      <trkpt lat="42.36967" lon="0.1016">
        <ele>869.6</ele>
        <time>2015-09-22T10:23:21Z</time>
      </trkpt>
      <trkpt lat="42.36968" lon="0.10156">
        <ele>868.9</ele>
        <time>2015-09-22T10:23:22Z</time>
      </trkpt>
      <trkpt lat="42.36969" lon="0.10152">
        <ele>868.3</ele>
        <time>2015-09-22T10:23:23Z</time>
      </trkpt>
      <trkpt lat="42.36971" lon="0.10148">
        <ele>867.7</ele>
        <time>2015-09-22T10:23:24Z</time>
      </trkpt>
      <trkpt lat="42.36972" lon="0.10144">
        <ele>867.1</ele>
        <time>2015-09-22T10:23:25Z</time>
      </trkpt>
      <trkpt lat="42.36974" lon="0.10138">
        <ele>866.1</ele>
        <time>2015-09-22T10:23:27Z</time>
      </trkpt>
      <trkpt lat="42.36975" lon="0.10132">
        <ele>865.4</ele>
        <time>2015-09-22T10:23:29Z</time>
      </trkpt>
      <trkpt lat="42.36974" lon="0.10126">
        <ele>865.3</ele>
        <time>2015-09-22T10:34:05Z</time>
      </trkpt>
      <trkpt lat="42.36974" lon="0.10122">
        <ele>865.1</ele>
        <time>2015-09-22T10:34:07Z</time>
      </trkpt>
      <trkpt lat="42.36975" lon="0.10115">
        <ele>864.7</ele>
        <time>2015-09-22T10:34:33Z</time>
      </trkpt>
      <trkpt lat="42.36975" lon="0.10111">
        <ele>864.5</ele>
        <time>2015-09-22T10:34:34Z</time>
      </trkpt>
      <trkpt lat="42.36975" lon="0.10107">
        <ele>864.4</ele>
        <time>2015-09-22T10:34:35Z</time>
      </trkpt>
      <trkpt lat="42.36974" lon="0.10103">
        <ele>864.4</ele>
        <time>2015-09-22T10:34:36Z</time>
      </trkpt>
      <trkpt lat="42.36974" lon="0.10099">
        <ele>864.2</ele>
        <time>2015-09-22T10:34:37Z</time>
      </trkpt>
      <trkpt lat="42.36974" lon="0.10094">
        <ele>864.1</ele>
        <time>2015-09-22T10:34:38Z</time>
      </trkpt>
      <trkpt lat="42.36974" lon="0.1009">
        <ele>863.9</ele>
        <time>2015-09-22T10:34:39Z</time>
      </trkpt>
      <trkpt lat="42.36974" lon="0.10085">
        <ele>863.8</ele>
        <time>2015-09-22T10:34:40Z</time>
      </trkpt>
      <trkpt lat="42.36972" lon="0.10081">
        <ele>863.9</ele>
        <time>2015-09-22T10:34:41Z</time>
      </trkpt>
      <trkpt lat="42.3697" lon="0.10075">
        <ele>864</ele>
        <time>2015-09-22T10:34:42Z</time>
      </trkpt>
      <trkpt lat="42.36967" lon="0.10069">
        <ele>864.3</ele>
        <time>2015-09-22T10:34:43Z</time>
      </trkpt>
      <trkpt lat="42.36964" lon="0.10065">
        <ele>864.5</ele>
        <time>2015-09-22T10:34:44Z</time>
      </trkpt>
      <trkpt lat="42.36962" lon="0.10063">
        <ele>864.8</ele>
        <time>2015-09-22T10:34:45Z</time>
      </trkpt>
      <trkpt lat="42.3696" lon="0.10057">
        <ele>864.8</ele>
        <time>2015-09-22T10:34:47Z</time>
      </trkpt>
      <trkpt lat="42.36958" lon="0.10054">
        <ele>864.7</ele>
        <time>2015-09-22T10:34:48Z</time>
      </trkpt>
      <trkpt lat="42.36957" lon="0.1005">
        <ele>864.6</ele>
        <time>2015-09-22T10:34:49Z</time>
      </trkpt>
      <trkpt lat="42.36956" lon="0.10046">
        <ele>864.5</ele>
        <time>2015-09-22T10:34:50Z</time>
      </trkpt>
      <trkpt lat="42.36954" lon="0.10042">
        <ele>864.4</ele>
        <time>2015-09-22T10:34:51Z</time>
      </trkpt>
      <trkpt lat="42.36952" lon="0.10038">
        <ele>864.8</ele>
        <time>2015-09-22T10:34:52Z</time>
      </trkpt>
      <trkpt lat="42.36949" lon="0.10034">
        <ele>865.3</ele>
        <time>2015-09-22T10:34:53Z</time>
      </trkpt>
      <trkpt lat="42.36947" lon="0.1003">
        <ele>865.7</ele>
        <time>2015-09-22T10:34:54Z</time>
      </trkpt>
      <trkpt lat="42.36944" lon="0.10024">
        <ele>866.2</ele>
        <time>2015-09-22T10:34:55Z</time>
      </trkpt>
      <trkpt lat="42.36942" lon="0.10019">
        <ele>866.6</ele>
        <time>2015-09-22T10:34:56Z</time>
      </trkpt>
      <trkpt lat="42.36943" lon="0.10011">
        <ele>866.9</ele>
        <time>2015-09-22T10:34:57Z</time>
      </trkpt>
      <trkpt lat="42.36943" lon="0.10004">
        <ele>867.3</ele>
        <time>2015-09-22T10:34:58Z</time>
      </trkpt>
      <trkpt lat="42.36944" lon="0.09999">
        <ele>867.5</ele>
        <time>2015-09-22T10:34:59Z</time>
      </trkpt>
      <trkpt lat="42.36944" lon="0.09993">
        <ele>867.7</ele>
        <time>2015-09-22T10:35:00Z</time>
      </trkpt>
      <trkpt lat="42.36948" lon="0.09992">
        <ele>867.5</ele>
        <time>2015-09-22T10:35:02Z</time>
      </trkpt>
      <trkpt lat="42.36953" lon="0.0999">
        <ele>867.4</ele>
        <time>2015-09-22T10:35:04Z</time>
      </trkpt>
      <trkpt lat="42.36956" lon="0.09987">
        <ele>867.4</ele>
        <time>2015-09-22T10:35:06Z</time>
      </trkpt>
      <trkpt lat="42.36957" lon="0.09983">
        <ele>867.5</ele>
        <time>2015-09-22T10:35:08Z</time>
      </trkpt>
      <trkpt lat="42.3696" lon="0.09981">
        <ele>867.5</ele>
        <time>2015-09-22T10:35:10Z</time>
      </trkpt>
      <trkpt lat="42.36962" lon="0.09979">
        <ele>867.4</ele>
        <time>2015-09-22T10:35:12Z</time>
      </trkpt>
      <trkpt lat="42.36965" lon="0.09978">
        <ele>867.3</ele>
        <time>2015-09-22T10:35:14Z</time>
      </trkpt>
      <trkpt lat="42.36968" lon="0.09976">
        <ele>867.2</ele>
        <time>2015-09-22T10:35:16Z</time>
      </trkpt>
      <trkpt lat="42.3697" lon="0.09974">
        <ele>867.1</ele>
        <time>2015-09-22T10:35:18Z</time>
      </trkpt>
      <trkpt lat="42.36973" lon="0.09972">
        <ele>867</ele>
        <time>2015-09-22T10:35:20Z</time>
      </trkpt>
      <trkpt lat="42.36975" lon="0.09969">
        <ele>867.1</ele>
        <time>2015-09-22T10:35:25Z</time>
      </trkpt>
      <trkpt lat="42.36976" lon="0.09966">
        <ele>867.2</ele>
        <time>2015-09-22T10:35:31Z</time>
      </trkpt>
      <trkpt lat="42.36978" lon="0.09963">
        <ele>867.3</ele>
        <time>2015-09-22T10:35:36Z</time>
      </trkpt>
      <trkpt lat="42.36981" lon="0.09961">
        <ele>867.2</ele>
        <time>2015-09-22T10:35:39Z</time>
      </trkpt>
      <trkpt lat="42.36985" lon="0.09959">
        <ele>867</ele>
        <time>2015-09-22T10:35:41Z</time>
      </trkpt>
      <trkpt lat="42.3699" lon="0.09956">
        <ele>866.5</ele>
        <time>2015-09-22T10:35:43Z</time>
      </trkpt>
      <trkpt lat="42.36993" lon="0.09954">
        <ele>866.2</ele>
        <time>2015-09-22T10:35:44Z</time>
      </trkpt>
      <trkpt lat="42.36996" lon="0.09952">
        <ele>865.8</ele>
        <time>2015-09-22T10:35:45Z</time>
      </trkpt>
      <trkpt lat="42.36999" lon="0.09949">
        <ele>865.3</ele>
        <time>2015-09-22T10:35:46Z</time>
      </trkpt>
      <trkpt lat="42.37002" lon="0.09946">
        <ele>864.9</ele>
        <time>2015-09-22T10:35:47Z</time>
      </trkpt>
      <trkpt lat="42.37005" lon="0.09944">
        <ele>864.5</ele>
        <time>2015-09-22T10:35:48Z</time>
      </trkpt>
      <trkpt lat="42.37008" lon="0.09941">
        <ele>864.1</ele>
        <time>2015-09-22T10:35:49Z</time>
      </trkpt>
      <trkpt lat="42.37011" lon="0.09939">
        <ele>863.8</ele>
        <time>2015-09-22T10:35:50Z</time>
      </trkpt>
      <trkpt lat="42.37015" lon="0.09936">
        <ele>863.4</ele>
        <time>2015-09-22T10:35:51Z</time>
      </trkpt>
      <trkpt lat="42.37018" lon="0.09934">
        <ele>863</ele>
        <time>2015-09-22T10:35:52Z</time>
      </trkpt>
      <trkpt lat="42.37022" lon="0.09931">
        <ele>862.6</ele>
        <time>2015-09-22T10:35:53Z</time>
      </trkpt>
      <trkpt lat="42.37026" lon="0.0993">
        <ele>862.2</ele>
        <time>2015-09-22T10:35:54Z</time>
      </trkpt>
      <trkpt lat="42.3703" lon="0.09929">
        <ele>861.9</ele>
        <time>2015-09-22T10:35:55Z</time>
      </trkpt>
      <trkpt lat="42.37033" lon="0.09928">
        <ele>861.7</ele>
        <time>2015-09-22T10:35:56Z</time>
      </trkpt>
      <trkpt lat="42.37036" lon="0.09927">
        <ele>861.5</ele>
        <time>2015-09-22T10:35:57Z</time>
      </trkpt>
      <trkpt lat="42.37038" lon="0.09926">
        <ele>861.2</ele>
        <time>2015-09-22T10:35:58Z</time>
      </trkpt>
      <trkpt lat="42.37041" lon="0.09923">
        <ele>860.9</ele>
        <time>2015-09-22T10:35:59Z</time>
      </trkpt>
      <trkpt lat="42.37043" lon="0.09922">
        <ele>860.7</ele>
        <time>2015-09-22T10:36:00Z</time>
      </trkpt>
      <trkpt lat="42.37046" lon="0.0992">
        <ele>860.4</ele>
        <time>2015-09-22T10:36:01Z</time>
      </trkpt>
      <trkpt lat="42.37048" lon="0.09918">
        <ele>860.1</ele>
        <time>2015-09-22T10:36:02Z</time>
      </trkpt>
      <trkpt lat="42.37051" lon="0.09917">
        <ele>859.9</ele>
        <time>2015-09-22T10:36:03Z</time>
      </trkpt>
      <trkpt lat="42.37054" lon="0.09915">
        <ele>859.7</ele>
        <time>2015-09-22T10:36:04Z</time>
      </trkpt>
      <trkpt lat="42.37057" lon="0.09914">
        <ele>859.5</ele>
        <time>2015-09-22T10:36:05Z</time>
      </trkpt>
      <trkpt lat="42.37059" lon="0.0991">
        <ele>859.2</ele>
        <time>2015-09-22T10:36:07Z</time>
      </trkpt>
      <trkpt lat="42.37059" lon="0.09906">
        <ele>859.2</ele>
        <time>2015-09-22T10:36:09Z</time>
      </trkpt>
      <trkpt lat="42.37058" lon="0.09902">
        <ele>859.1</ele>
        <time>2015-09-22T10:36:11Z</time>
      </trkpt>
      <trkpt lat="42.3706" lon="0.09898">
        <ele>859</ele>
        <time>2015-09-22T10:36:13Z</time>
      </trkpt>
      <trkpt lat="42.37063" lon="0.09896">
        <ele>858.9</ele>
        <time>2015-09-22T10:36:15Z</time>
      </trkpt>
      <trkpt lat="42.37067" lon="0.09893">
        <ele>858.9</ele>
        <time>2015-09-22T10:36:17Z</time>
      </trkpt>
      <trkpt lat="42.37072" lon="0.09888">
        <ele>858.9</ele>
        <time>2015-09-22T10:36:19Z</time>
      </trkpt>
      <trkpt lat="42.37075" lon="0.09885">
        <ele>859</ele>
        <time>2015-09-22T10:36:20Z</time>
      </trkpt>
      <trkpt lat="42.37077" lon="0.09884">
        <ele>859</ele>
        <time>2015-09-22T10:36:21Z</time>
      </trkpt>
      <trkpt lat="42.37082" lon="0.09883">
        <ele>859.1</ele>
        <time>2015-09-22T10:36:29Z</time>
      </trkpt>
      <trkpt lat="42.37085" lon="0.0988">
        <ele>859.3</ele>
        <time>2015-09-22T10:36:31Z</time>
      </trkpt>
      <trkpt lat="42.37089" lon="0.09878">
        <ele>859.6</ele>
        <time>2015-09-22T10:36:33Z</time>
      </trkpt>
      <trkpt lat="42.37094" lon="0.09876">
        <ele>859.8</ele>
        <time>2015-09-22T10:36:35Z</time>
      </trkpt>
      <trkpt lat="42.37098" lon="0.09874">
        <ele>859.8</ele>
        <time>2015-09-22T10:36:37Z</time>
      </trkpt>
      <trkpt lat="42.37101" lon="0.09871">
        <ele>859.5</ele>
        <time>2015-09-22T10:36:39Z</time>
      </trkpt>
      <trkpt lat="42.37105" lon="0.09869">
        <ele>859.2</ele>
        <time>2015-09-22T10:36:41Z</time>
      </trkpt>
      <trkpt lat="42.37108" lon="0.09866">
        <ele>858.8</ele>
        <time>2015-09-22T10:36:43Z</time>
      </trkpt>
      <trkpt lat="42.37111" lon="0.09863">
        <ele>858.4</ele>
        <time>2015-09-22T10:36:45Z</time>
      </trkpt>
      <trkpt lat="42.37114" lon="0.09861">
        <ele>858.2</ele>
        <time>2015-09-22T10:36:46Z</time>
      </trkpt>
      <trkpt lat="42.37117" lon="0.09859">
        <ele>858</ele>
        <time>2015-09-22T10:36:47Z</time>
      </trkpt>
      <trkpt lat="42.37119" lon="0.09858">
        <ele>857.8</ele>
        <time>2015-09-22T10:36:48Z</time>
      </trkpt>
      <trkpt lat="42.37122" lon="0.09857">
        <ele>857.6</ele>
        <time>2015-09-22T10:36:49Z</time>
      </trkpt>
      <trkpt lat="42.37125" lon="0.09855">
        <ele>857.4</ele>
        <time>2015-09-22T10:36:51Z</time>
      </trkpt>
      <trkpt lat="42.37128" lon="0.09853">
        <ele>856.9</ele>
        <time>2015-09-22T10:37:07Z</time>
      </trkpt>
      <trkpt lat="42.37132" lon="0.09851">
        <ele>856.3</ele>
        <time>2015-09-22T10:37:09Z</time>
      </trkpt>
      <trkpt lat="42.37136" lon="0.09849">
        <ele>855.8</ele>
        <time>2015-09-22T10:37:11Z</time>
      </trkpt>
      <trkpt lat="42.3714" lon="0.09848">
        <ele>855.3</ele>
        <time>2015-09-22T10:37:13Z</time>
      </trkpt>
      <trkpt lat="42.37143" lon="0.09847">
        <ele>854.9</ele>
        <time>2015-09-22T10:37:15Z</time>
      </trkpt>
      <trkpt lat="42.37141" lon="0.09848">
        <ele>855.3</ele>
        <time>2015-09-22T10:37:34Z</time>
      </trkpt>
      <trkpt lat="42.37135" lon="0.0985">
        <ele>855.9</ele>
        <time>2015-09-22T10:37:37Z</time>
      </trkpt>
      <trkpt lat="42.37129" lon="0.09852">
        <ele>856.7</ele>
        <time>2015-09-22T10:37:39Z</time>
      </trkpt>
      <trkpt lat="42.37125" lon="0.09854">
        <ele>857.2</ele>
        <time>2015-09-22T10:37:40Z</time>
      </trkpt>
      <trkpt lat="42.37122" lon="0.09856">
        <ele>857.4</ele>
        <time>2015-09-22T10:37:41Z</time>
      </trkpt>
      <trkpt lat="42.37119" lon="0.09857">
        <ele>857.7</ele>
        <time>2015-09-22T10:37:42Z</time>
      </trkpt>
      <trkpt lat="42.37115" lon="0.09859">
        <ele>857.9</ele>
        <time>2015-09-22T10:37:43Z</time>
      </trkpt>
      <trkpt lat="42.37112" lon="0.09862">
        <ele>858.2</ele>
        <time>2015-09-22T10:37:44Z</time>
      </trkpt>
      <trkpt lat="42.37109" lon="0.09864">
        <ele>858.5</ele>
        <time>2015-09-22T10:37:45Z</time>
      </trkpt>
      <trkpt lat="42.37106" lon="0.09866">
        <ele>858.8</ele>
        <time>2015-09-22T10:37:46Z</time>
      </trkpt>
      <trkpt lat="42.37103" lon="0.09868">
        <ele>859.1</ele>
        <time>2015-09-22T10:37:47Z</time>
      </trkpt>
      <trkpt lat="42.371" lon="0.09871">
        <ele>859.4</ele>
        <time>2015-09-22T10:37:48Z</time>
      </trkpt>
      <trkpt lat="42.37098" lon="0.09873">
        <ele>859.7</ele>
        <time>2015-09-22T10:37:49Z</time>
      </trkpt>
      <trkpt lat="42.37095" lon="0.09875">
        <ele>859.9</ele>
        <time>2015-09-22T10:37:50Z</time>
      </trkpt>
      <trkpt lat="42.37092" lon="0.09877">
        <ele>859.7</ele>
        <time>2015-09-22T10:37:51Z</time>
      </trkpt>
      <trkpt lat="42.37089" lon="0.09879">
        <ele>859.5</ele>
        <time>2015-09-22T10:37:52Z</time>
      </trkpt>
      <trkpt lat="42.37086" lon="0.09879">
        <ele>859.4</ele>
        <time>2015-09-22T10:37:53Z</time>
      </trkpt>
      <trkpt lat="42.37082" lon="0.0988">
        <ele>859.3</ele>
        <time>2015-09-22T10:37:54Z</time>
      </trkpt>
      <trkpt lat="42.37077" lon="0.09884">
        <ele>859</ele>
        <time>2015-09-22T10:37:56Z</time>
      </trkpt>
      <trkpt lat="42.37074" lon="0.09886">
        <ele>859</ele>
        <time>2015-09-22T10:37:59Z</time>
      </trkpt>
      <trkpt lat="42.37069" lon="0.09889">
        <ele>858.9</ele>
        <time>2015-09-22T10:38:01Z</time>
      </trkpt>
      <trkpt lat="42.37067" lon="0.09892">
        <ele>858.9</ele>
        <time>2015-09-22T10:38:02Z</time>
      </trkpt>
      <trkpt lat="42.37064" lon="0.09894">
        <ele>858.9</ele>
        <time>2015-09-22T10:38:03Z</time>
      </trkpt>
      <trkpt lat="42.37062" lon="0.09896">
        <ele>859</ele>
        <time>2015-09-22T10:38:04Z</time>
      </trkpt>
      <trkpt lat="42.37058" lon="0.09901">
        <ele>859.1</ele>
        <time>2015-09-22T10:38:06Z</time>
      </trkpt>
      <trkpt lat="42.37055" lon="0.09902">
        <ele>859.2</ele>
        <time>2015-09-22T10:38:08Z</time>
      </trkpt>
      <trkpt lat="42.37055" lon="0.09908">
        <ele>859.4</ele>
        <time>2015-09-22T10:38:10Z</time>
      </trkpt>
      <trkpt lat="42.37055" lon="0.09914">
        <ele>859.5</ele>
        <time>2015-09-22T10:38:12Z</time>
      </trkpt>
      <trkpt lat="42.37053" lon="0.09918">
        <ele>859.8</ele>
        <time>2015-09-22T10:38:14Z</time>
      </trkpt>
      <trkpt lat="42.37048" lon="0.0992">
        <ele>860.2</ele>
        <time>2015-09-22T10:38:16Z</time>
      </trkpt>
      <trkpt lat="42.37045" lon="0.09921">
        <ele>860.5</ele>
        <time>2015-09-22T10:38:17Z</time>
      </trkpt>
      <trkpt lat="42.37042" lon="0.09922">
        <ele>860.8</ele>
        <time>2015-09-22T10:38:18Z</time>
      </trkpt>
      <trkpt lat="42.37039" lon="0.09924">
        <ele>861.1</ele>
        <time>2015-09-22T10:38:19Z</time>
      </trkpt>
      <trkpt lat="42.37037" lon="0.09926">
        <ele>861.3</ele>
        <time>2015-09-22T10:38:20Z</time>
      </trkpt>
      <trkpt lat="42.37034" lon="0.09927">
        <ele>861.6</ele>
        <time>2015-09-22T10:38:21Z</time>
      </trkpt>
      <trkpt lat="42.37038" lon="0.09924">
        <ele>861.1</ele>
        <time>2015-09-22T10:38:31Z</time>
      </trkpt>
      <trkpt lat="42.37041" lon="0.09922">
        <ele>860.9</ele>
        <time>2015-09-22T10:38:32Z</time>
      </trkpt>
      <trkpt lat="42.37043" lon="0.0992">
        <ele>860.6</ele>
        <time>2015-09-22T10:38:33Z</time>
      </trkpt>
      <trkpt lat="42.37046" lon="0.09919">
        <ele>860.3</ele>
        <time>2015-09-22T10:38:34Z</time>
      </trkpt>
      <trkpt lat="42.3705" lon="0.09917">
        <ele>860</ele>
        <time>2015-09-22T10:38:35Z</time>
      </trkpt>
      <trkpt lat="42.37053" lon="0.09915">
        <ele>859.7</ele>
        <time>2015-09-22T10:38:36Z</time>
      </trkpt>
      <trkpt lat="42.37056" lon="0.09914">
        <ele>859.5</ele>
        <time>2015-09-22T10:38:37Z</time>
      </trkpt>
      <trkpt lat="42.37059" lon="0.09909">
        <ele>859.2</ele>
        <time>2015-09-22T10:38:39Z</time>
      </trkpt>
      <trkpt lat="42.37058" lon="0.09906">
        <ele>859.2</ele>
        <time>2015-09-22T10:38:41Z</time>
      </trkpt>
      <trkpt lat="42.37058" lon="0.09901">
        <ele>859.1</ele>
        <time>2015-09-22T10:38:43Z</time>
      </trkpt>
      <trkpt lat="42.3706" lon="0.09897">
        <ele>859</ele>
        <time>2015-09-22T10:38:45Z</time>
      </trkpt>
      <trkpt lat="42.37064" lon="0.09894">
        <ele>858.9</ele>
        <time>2015-09-22T10:38:47Z</time>
      </trkpt>
      <trkpt lat="42.37069" lon="0.09889">
        <ele>858.9</ele>
        <time>2015-09-22T10:38:49Z</time>
      </trkpt>
      <trkpt lat="42.37072" lon="0.09886">
        <ele>858.9</ele>
        <time>2015-09-22T10:38:50Z</time>
      </trkpt>
      <trkpt lat="42.37076" lon="0.09883">
        <ele>859</ele>
        <time>2015-09-22T10:38:51Z</time>
      </trkpt>
      <trkpt lat="42.37079" lon="0.09882">
        <ele>859.1</ele>
        <time>2015-09-22T10:38:52Z</time>
      </trkpt>
      <trkpt lat="42.37082" lon="0.0988">
        <ele>859.3</ele>
        <time>2015-09-22T10:38:53Z</time>
      </trkpt>
      <trkpt lat="42.37085" lon="0.09878">
        <ele>859.4</ele>
        <time>2015-09-22T10:38:54Z</time>
      </trkpt>
      <trkpt lat="42.37089" lon="0.09876">
        <ele>859.6</ele>
        <time>2015-09-22T10:38:56Z</time>
      </trkpt>
      <trkpt lat="42.37093" lon="0.09874">
        <ele>859.8</ele>
        <time>2015-09-22T10:38:58Z</time>
      </trkpt>
      <trkpt lat="42.37098" lon="0.09872">
        <ele>859.6</ele>
        <time>2015-09-22T10:39:00Z</time>
      </trkpt>
      <trkpt lat="42.37102" lon="0.09869">
        <ele>859.2</ele>
        <time>2015-09-22T10:39:02Z</time>
      </trkpt>
      <trkpt lat="42.37107" lon="0.09866">
        <ele>858.8</ele>
        <time>2015-09-22T10:39:04Z</time>
      </trkpt>
      <trkpt lat="42.37111" lon="0.09862">
        <ele>858.3</ele>
        <time>2015-09-22T10:39:06Z</time>
      </trkpt>
      <trkpt lat="42.37115" lon="0.09859">
        <ele>857.9</ele>
        <time>2015-09-22T10:39:08Z</time>
      </trkpt>
      <trkpt lat="42.37118" lon="0.09858">
        <ele>857.7</ele>
        <time>2015-09-22T10:39:09Z</time>
      </trkpt>
      <trkpt lat="42.37121" lon="0.09856">
        <ele>857.5</ele>
        <time>2015-09-22T10:39:10Z</time>
      </trkpt>
      <trkpt lat="42.37124" lon="0.09854">
        <ele>857.2</ele>
        <time>2015-09-22T10:39:11Z</time>
      </trkpt>
      <trkpt lat="42.37126" lon="0.09852">
        <ele>856.8</ele>
        <time>2015-09-22T10:39:12Z</time>
      </trkpt>
      <trkpt lat="42.37129" lon="0.09851">
        <ele>856.4</ele>
        <time>2015-09-22T10:39:13Z</time>
      </trkpt>
      <trkpt lat="42.37132" lon="0.0985">
        <ele>856.1</ele>
        <time>2015-09-22T10:39:14Z</time>
      </trkpt>
      <trkpt lat="42.37135" lon="0.09849">
        <ele>855.8</ele>
        <time>2015-09-22T10:39:15Z</time>
      </trkpt>
      <trkpt lat="42.37137" lon="0.09848">
        <ele>855.5</ele>
        <time>2015-09-22T10:39:17Z</time>
      </trkpt>
      <trkpt lat="42.37134" lon="0.09851">
        <ele>856.1</ele>
        <time>2015-09-22T10:41:54Z</time>
      </trkpt>
      <trkpt lat="42.37131" lon="0.09852">
        <ele>856.5</ele>
        <time>2015-09-22T10:41:55Z</time>
      </trkpt>
      <trkpt lat="42.37128" lon="0.09853">
        <ele>856.9</ele>
        <time>2015-09-22T10:41:56Z</time>
      </trkpt>
      <trkpt lat="42.37125" lon="0.09855">
        <ele>857.4</ele>
        <time>2015-09-22T10:41:57Z</time>
      </trkpt>
      <trkpt lat="42.37122" lon="0.09857">
        <ele>857.6</ele>
        <time>2015-09-22T10:41:58Z</time>
      </trkpt>
      <trkpt lat="42.37118" lon="0.09858">
        <ele>857.8</ele>
        <time>2015-09-22T10:41:59Z</time>
      </trkpt>
      <trkpt lat="42.37115" lon="0.0986">
        <ele>858.1</ele>
        <time>2015-09-22T10:42:00Z</time>
      </trkpt>
      <trkpt lat="42.37112" lon="0.09862">
        <ele>858.3</ele>
        <time>2015-09-22T10:42:01Z</time>
      </trkpt>
      <trkpt lat="42.3711" lon="0.09864">
        <ele>858.5</ele>
        <time>2015-09-22T10:42:02Z</time>
      </trkpt>
      <trkpt lat="42.37107" lon="0.09865">
        <ele>858.6</ele>
        <time>2015-09-22T10:42:03Z</time>
      </trkpt>
      <trkpt lat="42.37104" lon="0.09865">
        <ele>858.5</ele>
        <time>2015-09-22T10:42:04Z</time>
      </trkpt>
      <trkpt lat="42.37101" lon="0.09864">
        <ele>858.3</ele>
        <time>2015-09-22T10:42:05Z</time>
      </trkpt>
      <trkpt lat="42.37098" lon="0.09864">
        <ele>858.2</ele>
        <time>2015-09-22T10:42:06Z</time>
      </trkpt>
      <trkpt lat="42.37095" lon="0.09863">
        <ele>857.9</ele>
        <time>2015-09-22T10:42:07Z</time>
      </trkpt>
      <trkpt lat="42.37092" lon="0.09862">
        <ele>857.8</ele>
        <time>2015-09-22T10:42:08Z</time>
      </trkpt>
      <trkpt lat="42.37089" lon="0.09863">
        <ele>857.8</ele>
        <time>2015-09-22T10:42:09Z</time>
      </trkpt>
      <trkpt lat="42.37086" lon="0.09864">
        <ele>857.8</ele>
        <time>2015-09-22T10:42:10Z</time>
      </trkpt>
      <trkpt lat="42.37083" lon="0.09864">
        <ele>857.9</ele>
        <time>2015-09-22T10:42:11Z</time>
      </trkpt>
      <trkpt lat="42.3708" lon="0.09865">
        <ele>857.9</ele>
        <time>2015-09-22T10:42:12Z</time>
      </trkpt>
      <trkpt lat="42.37084" lon="0.09864">
        <ele>857.9</ele>
        <time>2015-09-22T10:42:15Z</time>
      </trkpt>
      <trkpt lat="42.3708" lon="0.09862">
        <ele>857.5</ele>
        <time>2015-09-22T10:42:23Z</time>
      </trkpt>
      <trkpt lat="42.37075" lon="0.09861">
        <ele>857.2</ele>
        <time>2015-09-22T10:42:25Z</time>
      </trkpt>
      <trkpt lat="42.37071" lon="0.0986">
        <ele>857</ele>
        <time>2015-09-22T10:42:26Z</time>
      </trkpt>
      <trkpt lat="42.37067" lon="0.0986">
        <ele>856.8</ele>
        <time>2015-09-22T10:42:27Z</time>
      </trkpt>
      <trkpt lat="42.37064" lon="0.0986">
        <ele>856.7</ele>
        <time>2015-09-22T10:42:28Z</time>
      </trkpt>
      <trkpt lat="42.3706" lon="0.09861">
        <ele>856.8</ele>
        <time>2015-09-22T10:42:29Z</time>
      </trkpt>
      <trkpt lat="42.37057" lon="0.09863">
        <ele>856.9</ele>
        <time>2015-09-22T10:42:30Z</time>
      </trkpt>
      <trkpt lat="42.37054" lon="0.09865">
        <ele>857.2</ele>
        <time>2015-09-22T10:42:31Z</time>
      </trkpt>
      <trkpt lat="42.37052" lon="0.09868">
        <ele>857.5</ele>
        <time>2015-09-22T10:42:32Z</time>
      </trkpt>
      <trkpt lat="42.37049" lon="0.09873">
        <ele>858</ele>
        <time>2015-09-22T10:42:34Z</time>
      </trkpt>
      <trkpt lat="42.37046" lon="0.09878">
        <ele>858.3</ele>
        <time>2015-09-22T10:42:36Z</time>
      </trkpt>
      <trkpt lat="42.37043" lon="0.09882">
        <ele>858.5</ele>
        <time>2015-09-22T10:42:38Z</time>
      </trkpt>
      <trkpt lat="42.3704" lon="0.09886">
        <ele>858.7</ele>
        <time>2015-09-22T10:42:40Z</time>
      </trkpt>
      <trkpt lat="42.37037" lon="0.09886">
        <ele>858.9</ele>
        <time>2015-09-22T10:42:42Z</time>
      </trkpt>
      <trkpt lat="42.37034" lon="0.09886">
        <ele>859</ele>
        <time>2015-09-22T10:42:44Z</time>
      </trkpt>
      <trkpt lat="42.37029" lon="0.09886">
        <ele>859.2</ele>
        <time>2015-09-22T10:42:46Z</time>
      </trkpt>
      <trkpt lat="42.37024" lon="0.09887">
        <ele>859.5</ele>
        <time>2015-09-22T10:42:47Z</time>
      </trkpt>
      <trkpt lat="42.3702" lon="0.09888">
        <ele>859.7</ele>
        <time>2015-09-22T10:42:48Z</time>
      </trkpt>
      <trkpt lat="42.37016" lon="0.09888">
        <ele>859.8</ele>
        <time>2015-09-22T10:42:49Z</time>
      </trkpt>
      <trkpt lat="42.37012" lon="0.09887">
        <ele>860</ele>
        <time>2015-09-22T10:42:50Z</time>
      </trkpt>
      <trkpt lat="42.37008" lon="0.09886">
        <ele>860</ele>
        <time>2015-09-22T10:42:51Z</time>
      </trkpt>
      <trkpt lat="42.37004" lon="0.09884">
        <ele>860</ele>
        <time>2015-09-22T10:42:52Z</time>
      </trkpt>
      <trkpt lat="42.37001" lon="0.09883">
        <ele>860.1</ele>
        <time>2015-09-22T10:42:53Z</time>
      </trkpt>
      <trkpt lat="42.36998" lon="0.0988">
        <ele>859.9</ele>
        <time>2015-09-22T10:43:01Z</time>
      </trkpt>
      <trkpt lat="42.36994" lon="0.09875">
        <ele>859.7</ele>
        <time>2015-09-22T10:43:03Z</time>
      </trkpt>
      <trkpt lat="42.36992" lon="0.09873">
        <ele>859.5</ele>
        <time>2015-09-22T10:43:04Z</time>
      </trkpt>
      <trkpt lat="42.3699" lon="0.0987">
        <ele>859.2</ele>
        <time>2015-09-22T10:43:05Z</time>
      </trkpt>
      <trkpt lat="42.36988" lon="0.09867">
        <ele>858.9</ele>
        <time>2015-09-22T10:43:06Z</time>
      </trkpt>
      <trkpt lat="42.36987" lon="0.09863">
        <ele>858.5</ele>
        <time>2015-09-22T10:43:07Z</time>
      </trkpt>
      <trkpt lat="42.36986" lon="0.09859">
        <ele>858</ele>
        <time>2015-09-22T10:43:08Z</time>
      </trkpt>
      <trkpt lat="42.36985" lon="0.09855">
        <ele>857.5</ele>
        <time>2015-09-22T10:43:09Z</time>
      </trkpt>
      <trkpt lat="42.36983" lon="0.09852">
        <ele>857.1</ele>
        <time>2015-09-22T10:43:10Z</time>
      </trkpt>
      <trkpt lat="42.36981" lon="0.09848">
        <ele>856.7</ele>
        <time>2015-09-22T10:43:11Z</time>
      </trkpt>
      <trkpt lat="42.36979" lon="0.09845">
        <ele>856.4</ele>
        <time>2015-09-22T10:43:12Z</time>
      </trkpt>
      <trkpt lat="42.36977" lon="0.09842">
        <ele>856.1</ele>
        <time>2015-09-22T10:43:13Z</time>
      </trkpt>
      <trkpt lat="42.36974" lon="0.09839">
        <ele>855.8</ele>
        <time>2015-09-22T10:43:14Z</time>
      </trkpt>
      <trkpt lat="42.36972" lon="0.09837">
        <ele>855.5</ele>
        <time>2015-09-22T10:43:15Z</time>
      </trkpt>
      <trkpt lat="42.36968" lon="0.09834">
        <ele>855.2</ele>
        <time>2015-09-22T10:43:16Z</time>
      </trkpt>
      <trkpt lat="42.36965" lon="0.09832">
        <ele>855</ele>
        <time>2015-09-22T10:43:17Z</time>
      </trkpt>
      <trkpt lat="42.36963" lon="0.0983">
        <ele>854.9</ele>
        <time>2015-09-22T10:43:18Z</time>
      </trkpt>
      <trkpt lat="42.36958" lon="0.09828">
        <ele>854.8</ele>
        <time>2015-09-22T10:43:20Z</time>
      </trkpt>
      <trkpt lat="42.36953" lon="0.09825">
        <ele>854.6</ele>
        <time>2015-09-22T10:43:22Z</time>
      </trkpt>
      <trkpt lat="42.3695" lon="0.09824">
        <ele>854.5</ele>
        <time>2015-09-22T10:43:23Z</time>
      </trkpt>
      <trkpt lat="42.36947" lon="0.09822">
        <ele>854.4</ele>
        <time>2015-09-22T10:43:24Z</time>
      </trkpt>
      <trkpt lat="42.36944" lon="0.09821">
        <ele>854.4</ele>
        <time>2015-09-22T10:43:25Z</time>
      </trkpt>
      <trkpt lat="42.36941" lon="0.0982">
        <ele>854.3</ele>
        <time>2015-09-22T10:43:26Z</time>
      </trkpt>
      <trkpt lat="42.36938" lon="0.09819">
        <ele>854.3</ele>
        <time>2015-09-22T10:43:27Z</time>
      </trkpt>
      <trkpt lat="42.36934" lon="0.09818">
        <ele>854.2</ele>
        <time>2015-09-22T10:43:28Z</time>
      </trkpt>
      <trkpt lat="42.36931" lon="0.09816">
        <ele>854</ele>
        <time>2015-09-22T10:43:29Z</time>
      </trkpt>
      <trkpt lat="42.36927" lon="0.09814">
        <ele>853.8</ele>
        <time>2015-09-22T10:43:30Z</time>
      </trkpt>
      <trkpt lat="42.36923" lon="0.09812">
        <ele>853.7</ele>
        <time>2015-09-22T10:43:31Z</time>
      </trkpt>
      <trkpt lat="42.3692" lon="0.0981">
        <ele>853.5</ele>
        <time>2015-09-22T10:43:32Z</time>
      </trkpt>
      <trkpt lat="42.36916" lon="0.09807">
        <ele>853.3</ele>
        <time>2015-09-22T10:43:33Z</time>
      </trkpt>
      <trkpt lat="42.36913" lon="0.09805">
        <ele>853</ele>
        <time>2015-09-22T10:43:34Z</time>
      </trkpt>
      <trkpt lat="42.36909" lon="0.09803">
        <ele>852.8</ele>
        <time>2015-09-22T10:43:35Z</time>
      </trkpt>
      <trkpt lat="42.36905" lon="0.098">
        <ele>852.5</ele>
        <time>2015-09-22T10:43:36Z</time>
      </trkpt>
      <trkpt lat="42.369" lon="0.09795">
        <ele>852</ele>
        <time>2015-09-22T10:43:37Z</time>
      </trkpt>
      <trkpt lat="42.36896" lon="0.09792">
        <ele>851.6</ele>
        <time>2015-09-22T10:43:38Z</time>
      </trkpt>
      <trkpt lat="42.36891" lon="0.09789">
        <ele>851.7</ele>
        <time>2015-09-22T10:43:39Z</time>
      </trkpt>
      <trkpt lat="42.36886" lon="0.09786">
        <ele>852</ele>
        <time>2015-09-22T10:43:40Z</time>
      </trkpt>
      <trkpt lat="42.36881" lon="0.09782">
        <ele>852.2</ele>
        <time>2015-09-22T10:43:41Z</time>
      </trkpt>
      <trkpt lat="42.36876" lon="0.09778">
        <ele>852.5</ele>
        <time>2015-09-22T10:43:42Z</time>
      </trkpt>
      <trkpt lat="42.3687" lon="0.09773">
        <ele>852.7</ele>
        <time>2015-09-22T10:43:43Z</time>
      </trkpt>
      <trkpt lat="42.36866" lon="0.09768">
        <ele>852.9</ele>
        <time>2015-09-22T10:43:44Z</time>
      </trkpt>
      <trkpt lat="42.36861" lon="0.09764">
        <ele>853</ele>
        <time>2015-09-22T10:43:45Z</time>
      </trkpt>
      <trkpt lat="42.36855" lon="0.0976">
        <ele>853.1</ele>
        <time>2015-09-22T10:43:46Z</time>
      </trkpt>
      <trkpt lat="42.36851" lon="0.09755">
        <ele>853.2</ele>
        <time>2015-09-22T10:43:47Z</time>
      </trkpt>
      <trkpt lat="42.36846" lon="0.09751">
        <ele>853.3</ele>
        <time>2015-09-22T10:43:48Z</time>
      </trkpt>
      <trkpt lat="42.36842" lon="0.09748">
        <ele>853.4</ele>
        <time>2015-09-22T10:43:49Z</time>
      </trkpt>
      <trkpt lat="42.36838" lon="0.09745">
        <ele>853.4</ele>
        <time>2015-09-22T10:43:50Z</time>
      </trkpt>
      <trkpt lat="42.36834" lon="0.09743">
        <ele>853.4</ele>
        <time>2015-09-22T10:43:51Z</time>
      </trkpt>
      <trkpt lat="42.36831" lon="0.09742">
        <ele>853.4</ele>
        <time>2015-09-22T10:43:52Z</time>
      </trkpt>
      <trkpt lat="42.36828" lon="0.0974">
        <ele>853.4</ele>
        <time>2015-09-22T10:43:54Z</time>
      </trkpt>
      <trkpt lat="42.36831" lon="0.09741">
        <ele>853.4</ele>
        <time>2015-09-22T10:44:02Z</time>
      </trkpt>
      <trkpt lat="42.36834" lon="0.09742">
        <ele>853.4</ele>
        <time>2015-09-22T10:44:05Z</time>
      </trkpt>
      <trkpt lat="42.36836" lon="0.09744">
        <ele>853.4</ele>
        <time>2015-09-22T10:44:09Z</time>
      </trkpt>
      <trkpt lat="42.36834" lon="0.09741">
        <ele>853.4</ele>
        <time>2015-09-22T10:44:22Z</time>
      </trkpt>
      <trkpt lat="42.36832" lon="0.09737">
        <ele>853.5</ele>
        <time>2015-09-22T10:44:25Z</time>
      </trkpt>
      <trkpt lat="42.36833" lon="0.09734">
        <ele>853.5</ele>
        <time>2015-09-22T10:44:30Z</time>
      </trkpt>
      <trkpt lat="42.36835" lon="0.09731">
        <ele>853.6</ele>
        <time>2015-09-22T10:44:34Z</time>
      </trkpt>
      <trkpt lat="42.36834" lon="0.09727">
        <ele>853.7</ele>
        <time>2015-09-22T10:44:37Z</time>
      </trkpt>
      <trkpt lat="42.36831" lon="0.09721">
        <ele>853.7</ele>
        <time>2015-09-22T10:44:40Z</time>
      </trkpt>
      <trkpt lat="42.36828" lon="0.09719">
        <ele>853.7</ele>
        <time>2015-09-22T10:44:41Z</time>
      </trkpt>
      <trkpt lat="42.36826" lon="0.09717">
        <ele>853.7</ele>
        <time>2015-09-22T10:44:42Z</time>
      </trkpt>
      <trkpt lat="42.36824" lon="0.09715">
        <ele>853.7</ele>
        <time>2015-09-22T10:44:43Z</time>
      </trkpt>
      <trkpt lat="42.36822" lon="0.09711">
        <ele>853.7</ele>
        <time>2015-09-22T10:44:44Z</time>
      </trkpt>
      <trkpt lat="42.3682" lon="0.09706">
        <ele>853.9</ele>
        <time>2015-09-22T10:44:45Z</time>
      </trkpt>
      <trkpt lat="42.3682" lon="0.09702">
        <ele>854.2</ele>
        <time>2015-09-22T10:44:46Z</time>
      </trkpt>
      <trkpt lat="42.36819" lon="0.09698">
        <ele>854.5</ele>
        <time>2015-09-22T10:44:47Z</time>
      </trkpt>
      <trkpt lat="42.36817" lon="0.09694">
        <ele>854.7</ele>
        <time>2015-09-22T10:44:48Z</time>
      </trkpt>
      <trkpt lat="42.36815" lon="0.09691">
        <ele>854.8</ele>
        <time>2015-09-22T10:44:50Z</time>
      </trkpt>
      <trkpt lat="42.36811" lon="0.0969">
        <ele>854.8</ele>
        <time>2015-09-22T10:44:53Z</time>
      </trkpt>
      <trkpt lat="42.36808" lon="0.0969">
        <ele>854.7</ele>
        <time>2015-09-22T10:44:55Z</time>
      </trkpt>
      <trkpt lat="42.36805" lon="0.0969">
        <ele>854.5</ele>
        <time>2015-09-22T10:44:57Z</time>
      </trkpt>
      <trkpt lat="42.36801" lon="0.09691">
        <ele>854.4</ele>
        <time>2015-09-22T10:44:59Z</time>
      </trkpt>
      <trkpt lat="42.36798" lon="0.09693">
        <ele>854.2</ele>
        <time>2015-09-22T10:45:01Z</time>
      </trkpt>
      <trkpt lat="42.36796" lon="0.09695">
        <ele>853.9</ele>
        <time>2015-09-22T10:45:04Z</time>
      </trkpt>
      <trkpt lat="42.36794" lon="0.09697">
        <ele>853.8</ele>
        <time>2015-09-22T10:45:08Z</time>
      </trkpt>
      <trkpt lat="42.36791" lon="0.09697">
        <ele>853.7</ele>
        <time>2015-09-22T10:45:11Z</time>
      </trkpt>
      <trkpt lat="42.36787" lon="0.09698">
        <ele>853.6</ele>
        <time>2015-09-22T10:45:14Z</time>
      </trkpt>
      <trkpt lat="42.36783" lon="0.097">
        <ele>853.6</ele>
        <time>2015-09-22T10:45:16Z</time>
      </trkpt>
      <trkpt lat="42.3678" lon="0.09698">
        <ele>853.7</ele>
        <time>2015-09-22T10:45:22Z</time>
      </trkpt>
      <trkpt lat="42.36776" lon="0.09697">
        <ele>853.8</ele>
        <time>2015-09-22T10:45:24Z</time>
      </trkpt>
      <trkpt lat="42.36773" lon="0.09695">
        <ele>853.9</ele>
        <time>2015-09-22T10:45:26Z</time>
      </trkpt>
      <trkpt lat="42.3677" lon="0.09693">
        <ele>854</ele>
        <time>2015-09-22T10:45:28Z</time>
      </trkpt>
      <trkpt lat="42.36766" lon="0.09691">
        <ele>854.1</ele>
        <time>2015-09-22T10:45:30Z</time>
      </trkpt>
      <trkpt lat="42.36761" lon="0.0969">
        <ele>854.1</ele>
        <time>2015-09-22T10:45:32Z</time>
      </trkpt>
      <trkpt lat="42.36757" lon="0.09689">
        <ele>854.2</ele>
        <time>2015-09-22T10:45:34Z</time>
      </trkpt>
      <trkpt lat="42.36752" lon="0.09687">
        <ele>854.3</ele>
        <time>2015-09-22T10:45:36Z</time>
      </trkpt>
      <trkpt lat="42.36749" lon="0.09683">
        <ele>854.4</ele>
        <time>2015-09-22T10:45:38Z</time>
      </trkpt>
      <trkpt lat="42.36745" lon="0.0968">
        <ele>854.5</ele>
        <time>2015-09-22T10:45:40Z</time>
      </trkpt>
      <trkpt lat="42.36741" lon="0.09677">
        <ele>854.6</ele>
        <time>2015-09-22T10:45:42Z</time>
      </trkpt>
      <trkpt lat="42.36736" lon="0.09673">
        <ele>854.6</ele>
        <time>2015-09-22T10:45:44Z</time>
      </trkpt>
      <trkpt lat="42.36734" lon="0.09672">
        <ele>854.7</ele>
        <time>2015-09-22T10:45:45Z</time>
      </trkpt>
      <trkpt lat="42.36729" lon="0.09669">
        <ele>854.7</ele>
        <time>2015-09-22T10:45:47Z</time>
      </trkpt>
      <trkpt lat="42.36726" lon="0.09666">
        <ele>854.7</ele>
        <time>2015-09-22T10:45:49Z</time>
      </trkpt>
      <trkpt lat="42.36722" lon="0.09663">
        <ele>854.7</ele>
        <time>2015-09-22T10:45:51Z</time>
      </trkpt>
      <trkpt lat="42.3672" lon="0.09659">
        <ele>854.8</ele>
        <time>2015-09-22T10:45:53Z</time>
      </trkpt>
      <trkpt lat="42.36717" lon="0.09655">
        <ele>854.8</ele>
        <time>2015-09-22T10:45:55Z</time>
      </trkpt>
      <trkpt lat="42.36715" lon="0.09651">
        <ele>854.8</ele>
        <time>2015-09-22T10:45:57Z</time>
      </trkpt>
      <trkpt lat="42.36712" lon="0.09646">
        <ele>854.8</ele>
        <time>2015-09-22T10:45:59Z</time>
      </trkpt>
      <trkpt lat="42.36709" lon="0.0964">
        <ele>854.8</ele>
        <time>2015-09-22T10:46:01Z</time>
      </trkpt>
      <trkpt lat="42.36708" lon="0.09637">
        <ele>854.9</ele>
        <time>2015-09-22T10:46:02Z</time>
      </trkpt>
      <trkpt lat="42.36705" lon="0.09633">
        <ele>854.9</ele>
        <time>2015-09-22T10:46:03Z</time>
      </trkpt>
      <trkpt lat="42.36703" lon="0.0963">
        <ele>855</ele>
        <time>2015-09-22T10:46:04Z</time>
      </trkpt>
      <trkpt lat="42.36701" lon="0.09626">
        <ele>855.1</ele>
        <time>2015-09-22T10:46:05Z</time>
      </trkpt>
      <trkpt lat="42.36699" lon="0.09623">
        <ele>855.2</ele>
        <time>2015-09-22T10:46:06Z</time>
      </trkpt>
      <trkpt lat="42.36697" lon="0.09619">
        <ele>855.4</ele>
        <time>2015-09-22T10:46:07Z</time>
      </trkpt>
      <trkpt lat="42.36696" lon="0.09616">
        <ele>855.6</ele>
        <time>2015-09-22T10:46:08Z</time>
      </trkpt>
      <trkpt lat="42.36694" lon="0.09612">
        <ele>855.8</ele>
        <time>2015-09-22T10:46:09Z</time>
      </trkpt>
      <trkpt lat="42.36692" lon="0.09609">
        <ele>856</ele>
        <time>2015-09-22T10:46:10Z</time>
      </trkpt>
      <trkpt lat="42.3669" lon="0.09606">
        <ele>856.2</ele>
        <time>2015-09-22T10:46:11Z</time>
      </trkpt>
      <trkpt lat="42.36688" lon="0.09603">
        <ele>856.3</ele>
        <time>2015-09-22T10:46:12Z</time>
      </trkpt>
      <trkpt lat="42.36687" lon="0.09599">
        <ele>856.5</ele>
        <time>2015-09-22T10:46:13Z</time>
      </trkpt>
      <trkpt lat="42.36685" lon="0.09596">
        <ele>856.6</ele>
        <time>2015-09-22T10:46:14Z</time>
      </trkpt>
      <trkpt lat="42.36684" lon="0.09593">
        <ele>856.8</ele>
        <time>2015-09-22T10:46:15Z</time>
      </trkpt>
      <trkpt lat="42.36683" lon="0.09589">
        <ele>856.9</ele>
        <time>2015-09-22T10:46:16Z</time>
      </trkpt>
      <trkpt lat="42.36682" lon="0.09586">
        <ele>857.1</ele>
        <time>2015-09-22T10:46:17Z</time>
      </trkpt>
      <trkpt lat="42.3668" lon="0.09579">
        <ele>857.4</ele>
        <time>2015-09-22T10:46:19Z</time>
      </trkpt>
      <trkpt lat="42.36679" lon="0.09575">
        <ele>857.5</ele>
        <time>2015-09-22T10:46:20Z</time>
      </trkpt>
      <trkpt lat="42.36678" lon="0.09568">
        <ele>857.8</ele>
        <time>2015-09-22T10:46:22Z</time>
      </trkpt>
      <trkpt lat="42.36677" lon="0.09564">
        <ele>857.9</ele>
        <time>2015-09-22T10:46:23Z</time>
      </trkpt>
      <trkpt lat="42.36677" lon="0.09561">
        <ele>858.1</ele>
        <time>2015-09-22T10:46:24Z</time>
      </trkpt>
      <trkpt lat="42.36676" lon="0.09557">
        <ele>858.2</ele>
        <time>2015-09-22T10:46:25Z</time>
      </trkpt>
      <trkpt lat="42.36676" lon="0.09553">
        <ele>858.4</ele>
        <time>2015-09-22T10:46:26Z</time>
      </trkpt>
      <trkpt lat="42.36676" lon="0.09549">
        <ele>858.5</ele>
        <time>2015-09-22T10:46:27Z</time>
      </trkpt>
      <trkpt lat="42.36675" lon="0.09545">
        <ele>858.7</ele>
        <time>2015-09-22T10:46:28Z</time>
      </trkpt>
      <trkpt lat="42.36675" lon="0.09541">
        <ele>858.8</ele>
        <time>2015-09-22T10:46:29Z</time>
      </trkpt>
      <trkpt lat="42.36675" lon="0.09537">
        <ele>858.8</ele>
        <time>2015-09-22T10:46:30Z</time>
      </trkpt>
      <trkpt lat="42.36674" lon="0.09533">
        <ele>858.9</ele>
        <time>2015-09-22T10:46:31Z</time>
      </trkpt>
      <trkpt lat="42.36674" lon="0.09529">
        <ele>858.9</ele>
        <time>2015-09-22T10:46:32Z</time>
      </trkpt>
      <trkpt lat="42.36673" lon="0.09525">
        <ele>858.9</ele>
        <time>2015-09-22T10:46:33Z</time>
      </trkpt>
      <trkpt lat="42.36673" lon="0.09521">
        <ele>858.9</ele>
        <time>2015-09-22T10:46:34Z</time>
      </trkpt>
      <trkpt lat="42.36673" lon="0.09517">
        <ele>859</ele>
        <time>2015-09-22T10:46:35Z</time>
      </trkpt>
      <trkpt lat="42.36673" lon="0.09513">
        <ele>859</ele>
        <time>2015-09-22T10:46:36Z</time>
      </trkpt>
      <trkpt lat="42.36673" lon="0.0951">
        <ele>859</ele>
        <time>2015-09-22T10:46:37Z</time>
      </trkpt>
      <trkpt lat="42.36672" lon="0.09506">
        <ele>859.1</ele>
        <time>2015-09-22T10:46:38Z</time>
      </trkpt>
      <trkpt lat="42.36672" lon="0.09502">
        <ele>859.1</ele>
        <time>2015-09-22T10:46:39Z</time>
      </trkpt>
      <trkpt lat="42.36672" lon="0.09498">
        <ele>859.2</ele>
        <time>2015-09-22T10:46:40Z</time>
      </trkpt>
      <trkpt lat="42.36673" lon="0.09494">
        <ele>859.2</ele>
        <time>2015-09-22T10:46:41Z</time>
      </trkpt>
      <trkpt lat="42.36673" lon="0.0949">
        <ele>859.2</ele>
        <time>2015-09-22T10:46:42Z</time>
      </trkpt>
      <trkpt lat="42.36673" lon="0.09486">
        <ele>859.3</ele>
        <time>2015-09-22T10:46:43Z</time>
      </trkpt>
      <trkpt lat="42.36674" lon="0.09482">
        <ele>859.3</ele>
        <time>2015-09-22T10:46:44Z</time>
      </trkpt>
      <trkpt lat="42.36674" lon="0.09479">
        <ele>859.4</ele>
        <time>2015-09-22T10:46:45Z</time>
      </trkpt>
      <trkpt lat="42.36675" lon="0.09472">
        <ele>859.5</ele>
        <time>2015-09-22T10:46:47Z</time>
      </trkpt>
      <trkpt lat="42.36676" lon="0.09468">
        <ele>859.5</ele>
        <time>2015-09-22T10:46:48Z</time>
      </trkpt>
      <trkpt lat="42.36676" lon="0.09465">
        <ele>859.6</ele>
        <time>2015-09-22T10:46:49Z</time>
      </trkpt>
      <trkpt lat="42.36677" lon="0.09461">
        <ele>859.6</ele>
        <time>2015-09-22T10:46:50Z</time>
      </trkpt>
      <trkpt lat="42.36677" lon="0.09457">
        <ele>859.7</ele>
        <time>2015-09-22T10:46:51Z</time>
      </trkpt>
      <trkpt lat="42.36678" lon="0.09453">
        <ele>859.8</ele>
        <time>2015-09-22T10:46:52Z</time>
      </trkpt>
      <trkpt lat="42.36678" lon="0.09449">
        <ele>860</ele>
        <time>2015-09-22T10:46:53Z</time>
      </trkpt>
      <trkpt lat="42.36679" lon="0.09444">
        <ele>860.1</ele>
        <time>2015-09-22T10:46:54Z</time>
      </trkpt>
      <trkpt lat="42.3668" lon="0.0944">
        <ele>860.2</ele>
        <time>2015-09-22T10:46:55Z</time>
      </trkpt>
      <trkpt lat="42.36681" lon="0.09436">
        <ele>860.4</ele>
        <time>2015-09-22T10:46:56Z</time>
      </trkpt>
      <trkpt lat="42.36682" lon="0.09432">
        <ele>860.5</ele>
        <time>2015-09-22T10:46:57Z</time>
      </trkpt>
      <trkpt lat="42.36682" lon="0.09428">
        <ele>860.6</ele>
        <time>2015-09-22T10:46:58Z</time>
      </trkpt>
      <trkpt lat="42.36683" lon="0.09424">
        <ele>860.8</ele>
        <time>2015-09-22T10:46:59Z</time>
      </trkpt>
      <trkpt lat="42.36684" lon="0.0942">
        <ele>860.9</ele>
        <time>2015-09-22T10:47:00Z</time>
      </trkpt>
      <trkpt lat="42.36685" lon="0.09415">
        <ele>861</ele>
        <time>2015-09-22T10:47:01Z</time>
      </trkpt>
      <trkpt lat="42.36686" lon="0.09411">
        <ele>861.2</ele>
        <time>2015-09-22T10:47:02Z</time>
      </trkpt>
      <trkpt lat="42.36686" lon="0.09406">
        <ele>861.3</ele>
        <time>2015-09-22T10:47:03Z</time>
      </trkpt>
      <trkpt lat="42.36687" lon="0.09402">
        <ele>861.4</ele>
        <time>2015-09-22T10:47:04Z</time>
      </trkpt>
      <trkpt lat="42.36687" lon="0.09397">
        <ele>861.6</ele>
        <time>2015-09-22T10:47:05Z</time>
      </trkpt>
      <trkpt lat="42.36688" lon="0.09393">
        <ele>861.7</ele>
        <time>2015-09-22T10:47:06Z</time>
      </trkpt>
      <trkpt lat="42.36689" lon="0.09389">
        <ele>861.8</ele>
        <time>2015-09-22T10:47:07Z</time>
      </trkpt>
      <trkpt lat="42.36689" lon="0.09385">
        <ele>861.9</ele>
        <time>2015-09-22T10:47:08Z</time>
      </trkpt>
      <trkpt lat="42.3669" lon="0.09381">
        <ele>862.1</ele>
        <time>2015-09-22T10:47:09Z</time>
      </trkpt>
      <trkpt lat="42.3669" lon="0.09376">
        <ele>862.2</ele>
        <time>2015-09-22T10:47:10Z</time>
      </trkpt>
      <trkpt lat="42.36691" lon="0.09372">
        <ele>862.3</ele>
        <time>2015-09-22T10:47:11Z</time>
      </trkpt>
      <trkpt lat="42.36691" lon="0.09368">
        <ele>862.4</ele>
        <time>2015-09-22T10:47:12Z</time>
      </trkpt>
      <trkpt lat="42.36691" lon="0.09364">
        <ele>862.6</ele>
        <time>2015-09-22T10:47:13Z</time>
      </trkpt>
      <trkpt lat="42.36691" lon="0.0936">
        <ele>862.7</ele>
        <time>2015-09-22T10:47:14Z</time>
      </trkpt>
      <trkpt lat="42.36691" lon="0.09356">
        <ele>862.8</ele>
        <time>2015-09-22T10:47:15Z</time>
      </trkpt>
      <trkpt lat="42.36691" lon="0.09352">
        <ele>863</ele>
        <time>2015-09-22T10:47:16Z</time>
      </trkpt>
      <trkpt lat="42.3669" lon="0.09346">
        <ele>863.2</ele>
        <time>2015-09-22T10:47:18Z</time>
      </trkpt>
      <trkpt lat="42.36689" lon="0.09339">
        <ele>863.4</ele>
        <time>2015-09-22T10:47:20Z</time>
      </trkpt>
      <trkpt lat="42.36689" lon="0.09335">
        <ele>863.6</ele>
        <time>2015-09-22T10:47:21Z</time>
      </trkpt>
      <trkpt lat="42.36689" lon="0.09331">
        <ele>863.7</ele>
        <time>2015-09-22T10:47:22Z</time>
      </trkpt>
      <trkpt lat="42.36689" lon="0.09327">
        <ele>863.8</ele>
        <time>2015-09-22T10:47:23Z</time>
      </trkpt>
      <trkpt lat="42.36689" lon="0.09323">
        <ele>864</ele>
        <time>2015-09-22T10:47:24Z</time>
      </trkpt>
      <trkpt lat="42.36689" lon="0.09319">
        <ele>864.1</ele>
        <time>2015-09-22T10:47:25Z</time>
      </trkpt>
      <trkpt lat="42.36689" lon="0.09315">
        <ele>864.2</ele>
        <time>2015-09-22T10:47:26Z</time>
      </trkpt>
      <trkpt lat="42.36689" lon="0.09309">
        <ele>864.4</ele>
        <time>2015-09-22T10:47:27Z</time>
      </trkpt>
      <trkpt lat="42.36689" lon="0.09305">
        <ele>864.6</ele>
        <time>2015-09-22T10:47:28Z</time>
      </trkpt>
      <trkpt lat="42.36689" lon="0.09301">
        <ele>864.7</ele>
        <time>2015-09-22T10:47:29Z</time>
      </trkpt>
      <trkpt lat="42.36689" lon="0.09297">
        <ele>864.8</ele>
        <time>2015-09-22T10:47:30Z</time>
      </trkpt>
      <trkpt lat="42.36689" lon="0.09293">
        <ele>865</ele>
        <time>2015-09-22T10:47:31Z</time>
      </trkpt>
      <trkpt lat="42.36689" lon="0.09289">
        <ele>865.2</ele>
        <time>2015-09-22T10:47:32Z</time>
      </trkpt>
      <trkpt lat="42.36689" lon="0.09285">
        <ele>865.5</ele>
        <time>2015-09-22T10:47:33Z</time>
      </trkpt>
      <trkpt lat="42.36689" lon="0.0928">
        <ele>865.9</ele>
        <time>2015-09-22T10:47:34Z</time>
      </trkpt>
      <trkpt lat="42.3669" lon="0.09276">
        <ele>866.2</ele>
        <time>2015-09-22T10:47:35Z</time>
      </trkpt>
      <trkpt lat="42.3669" lon="0.09271">
        <ele>866.5</ele>
        <time>2015-09-22T10:47:36Z</time>
      </trkpt>
      <trkpt lat="42.3669" lon="0.09267">
        <ele>866.9</ele>
        <time>2015-09-22T10:47:37Z</time>
      </trkpt>
      <trkpt lat="42.36691" lon="0.09263">
        <ele>867.2</ele>
        <time>2015-09-22T10:47:38Z</time>
      </trkpt>
      <trkpt lat="42.36692" lon="0.09258">
        <ele>867.6</ele>
        <time>2015-09-22T10:47:39Z</time>
      </trkpt>
      <trkpt lat="42.36692" lon="0.09254">
        <ele>867.9</ele>
        <time>2015-09-22T10:47:40Z</time>
      </trkpt>
      <trkpt lat="42.36693" lon="0.09248">
        <ele>868.4</ele>
        <time>2015-09-22T10:47:42Z</time>
      </trkpt>
      <trkpt lat="42.36694" lon="0.09241">
        <ele>868.9</ele>
        <time>2015-09-22T10:47:44Z</time>
      </trkpt>
      <trkpt lat="42.36694" lon="0.09237">
        <ele>869.2</ele>
        <time>2015-09-22T10:47:45Z</time>
      </trkpt>
      <trkpt lat="42.36695" lon="0.09233">
        <ele>869.6</ele>
        <time>2015-09-22T10:47:46Z</time>
      </trkpt>
      <trkpt lat="42.36695" lon="0.09229">
        <ele>869.9</ele>
        <time>2015-09-22T10:47:47Z</time>
      </trkpt>
      <trkpt lat="42.36695" lon="0.09225">
        <ele>870.2</ele>
        <time>2015-09-22T10:47:48Z</time>
      </trkpt>
      <trkpt lat="42.36695" lon="0.09221">
        <ele>870.5</ele>
        <time>2015-09-22T10:47:49Z</time>
      </trkpt>
      <trkpt lat="42.36695" lon="0.09217">
        <ele>870.9</ele>
        <time>2015-09-22T10:47:50Z</time>
      </trkpt>
      <trkpt lat="42.36695" lon="0.09213">
        <ele>871.2</ele>
        <time>2015-09-22T10:47:51Z</time>
      </trkpt>
      <trkpt lat="42.36695" lon="0.09209">
        <ele>871.5</ele>
        <time>2015-09-22T10:47:52Z</time>
      </trkpt>
      <trkpt lat="42.36695" lon="0.09205">
        <ele>871.9</ele>
        <time>2015-09-22T10:47:53Z</time>
      </trkpt>
      <trkpt lat="42.36695" lon="0.09199">
        <ele>872.6</ele>
        <time>2015-09-22T10:47:55Z</time>
      </trkpt>
      <trkpt lat="42.36695" lon="0.09193">
        <ele>873.4</ele>
        <time>2015-09-22T10:47:57Z</time>
      </trkpt>
      <trkpt lat="42.36694" lon="0.09186">
        <ele>874.1</ele>
        <time>2015-09-22T10:47:59Z</time>
      </trkpt>
      <trkpt lat="42.36693" lon="0.09181">
        <ele>874.7</ele>
        <time>2015-09-22T10:48:01Z</time>
      </trkpt>
      <trkpt lat="42.3669" lon="0.09176">
        <ele>875.1</ele>
        <time>2015-09-22T10:48:03Z</time>
      </trkpt>
      <trkpt lat="42.36685" lon="0.09172">
        <ele>875.3</ele>
        <time>2015-09-22T10:48:05Z</time>
      </trkpt>
      <trkpt lat="42.36683" lon="0.0917">
        <ele>875.3</ele>
        <time>2015-09-22T10:48:06Z</time>
      </trkpt>
      <trkpt lat="42.3668" lon="0.09168">
        <ele>875.4</ele>
        <time>2015-09-22T10:48:07Z</time>
      </trkpt>
      <trkpt lat="42.36678" lon="0.09166">
        <ele>875.4</ele>
        <time>2015-09-22T10:48:08Z</time>
      </trkpt>
      <trkpt lat="42.36674" lon="0.09163">
        <ele>875.4</ele>
        <time>2015-09-22T10:48:10Z</time>
      </trkpt>
      <trkpt lat="42.3667" lon="0.0916">
        <ele>875.4</ele>
        <time>2015-09-22T10:48:12Z</time>
      </trkpt>
      <trkpt lat="42.36666" lon="0.09159">
        <ele>875.2</ele>
        <time>2015-09-22T10:48:14Z</time>
      </trkpt>
      <trkpt lat="42.36662" lon="0.09158">
        <ele>874.9</ele>
        <time>2015-09-22T10:48:16Z</time>
      </trkpt>
      <trkpt lat="42.36657" lon="0.09158">
        <ele>874.6</ele>
        <time>2015-09-22T10:48:18Z</time>
      </trkpt>
      <trkpt lat="42.36654" lon="0.09157">
        <ele>874.4</ele>
        <time>2015-09-22T10:48:19Z</time>
      </trkpt>
      <trkpt lat="42.36651" lon="0.09156">
        <ele>874.3</ele>
        <time>2015-09-22T10:48:20Z</time>
      </trkpt>
      <trkpt lat="42.36649" lon="0.09155">
        <ele>874.1</ele>
        <time>2015-09-22T10:48:21Z</time>
      </trkpt>
      <trkpt lat="42.36646" lon="0.09154">
        <ele>874</ele>
        <time>2015-09-22T10:48:22Z</time>
      </trkpt>
      <trkpt lat="42.36643" lon="0.09153">
        <ele>873.8</ele>
        <time>2015-09-22T10:48:23Z</time>
      </trkpt>
      <trkpt lat="42.3664" lon="0.09152">
        <ele>873.7</ele>
        <time>2015-09-22T10:48:24Z</time>
      </trkpt>
      <trkpt lat="42.36636" lon="0.0915">
        <ele>873.5</ele>
        <time>2015-09-22T10:48:25Z</time>
      </trkpt>
      <trkpt lat="42.36633" lon="0.09148">
        <ele>873.3</ele>
        <time>2015-09-22T10:48:26Z</time>
      </trkpt>
      <trkpt lat="42.36629" lon="0.09147">
        <ele>873.1</ele>
        <time>2015-09-22T10:48:27Z</time>
      </trkpt>
      <trkpt lat="42.36626" lon="0.09145">
        <ele>872.9</ele>
        <time>2015-09-22T10:48:28Z</time>
      </trkpt>
      <trkpt lat="42.36622" lon="0.09143">
        <ele>872.7</ele>
        <time>2015-09-22T10:48:29Z</time>
      </trkpt>
      <trkpt lat="42.36619" lon="0.09141">
        <ele>872.4</ele>
        <time>2015-09-22T10:48:30Z</time>
      </trkpt>
      <trkpt lat="42.36615" lon="0.0914">
        <ele>872.2</ele>
        <time>2015-09-22T10:48:31Z</time>
      </trkpt>
      <trkpt lat="42.36612" lon="0.09138">
        <ele>871.9</ele>
        <time>2015-09-22T10:48:32Z</time>
      </trkpt>
      <trkpt lat="42.36609" lon="0.09137">
        <ele>871.6</ele>
        <time>2015-09-22T10:48:33Z</time>
      </trkpt>
      <trkpt lat="42.36605" lon="0.09136">
        <ele>871.3</ele>
        <time>2015-09-22T10:48:34Z</time>
      </trkpt>
      <trkpt lat="42.36602" lon="0.09136">
        <ele>871</ele>
        <time>2015-09-22T10:48:35Z</time>
      </trkpt>
      <trkpt lat="42.36598" lon="0.09135">
        <ele>870.7</ele>
        <time>2015-09-22T10:48:36Z</time>
      </trkpt>
      <trkpt lat="42.36595" lon="0.09135">
        <ele>870.3</ele>
        <time>2015-09-22T10:48:37Z</time>
      </trkpt>
      <trkpt lat="42.36591" lon="0.09134">
        <ele>870</ele>
        <time>2015-09-22T10:48:38Z</time>
      </trkpt>
      <trkpt lat="42.36588" lon="0.09134">
        <ele>869.7</ele>
        <time>2015-09-22T10:48:39Z</time>
      </trkpt>
      <trkpt lat="42.36584" lon="0.09133">
        <ele>869.4</ele>
        <time>2015-09-22T10:48:40Z</time>
      </trkpt>
      <trkpt lat="42.36581" lon="0.09131">
        <ele>869.1</ele>
        <time>2015-09-22T10:48:41Z</time>
      </trkpt>
      <trkpt lat="42.36578" lon="0.09129">
        <ele>868.8</ele>
        <time>2015-09-22T10:48:42Z</time>
      </trkpt>
      <trkpt lat="42.36575" lon="0.09126">
        <ele>868.6</ele>
        <time>2015-09-22T10:48:43Z</time>
      </trkpt>
      <trkpt lat="42.36573" lon="0.09123">
        <ele>868.3</ele>
        <time>2015-09-22T10:48:44Z</time>
      </trkpt>
      <trkpt lat="42.36569" lon="0.0912">
        <ele>867.8</ele>
        <time>2015-09-22T10:48:46Z</time>
      </trkpt>
      <trkpt lat="42.36566" lon="0.09116">
        <ele>867.2</ele>
        <time>2015-09-22T10:48:48Z</time>
      </trkpt>
      <trkpt lat="42.36564" lon="0.09113">
        <ele>866.9</ele>
        <time>2015-09-22T10:48:50Z</time>
      </trkpt>
      <trkpt lat="42.36562" lon="0.09111">
        <ele>866.5</ele>
        <time>2015-09-22T10:48:54Z</time>
      </trkpt>
      <trkpt lat="42.36557" lon="0.09109">
        <ele>865.9</ele>
        <time>2015-09-22T10:48:57Z</time>
      </trkpt>
      <trkpt lat="42.36553" lon="0.0911">
        <ele>865.6</ele>
        <time>2015-09-22T10:48:58Z</time>
      </trkpt>
      <trkpt lat="42.36549" lon="0.09111">
        <ele>865.2</ele>
        <time>2015-09-22T10:48:59Z</time>
      </trkpt>
      <trkpt lat="42.36545" lon="0.09112">
        <ele>864.8</ele>
        <time>2015-09-22T10:49:00Z</time>
      </trkpt>
      <trkpt lat="42.3654" lon="0.09113">
        <ele>864.3</ele>
        <time>2015-09-22T10:49:01Z</time>
      </trkpt>
      <trkpt lat="42.36535" lon="0.09115">
        <ele>863.9</ele>
        <time>2015-09-22T10:49:02Z</time>
      </trkpt>
      <trkpt lat="42.36531" lon="0.09117">
        <ele>863.5</ele>
        <time>2015-09-22T10:49:03Z</time>
      </trkpt>
      <trkpt lat="42.36527" lon="0.0912">
        <ele>863.3</ele>
        <time>2015-09-22T10:49:04Z</time>
      </trkpt>
      <trkpt lat="42.36523" lon="0.09125">
        <ele>863.2</ele>
        <time>2015-09-22T10:49:05Z</time>
      </trkpt>
      <trkpt lat="42.36521" lon="0.0913">
        <ele>863</ele>
        <time>2015-09-22T10:49:06Z</time>
      </trkpt>
      <trkpt lat="42.36518" lon="0.09135">
        <ele>862.8</ele>
        <time>2015-09-22T10:49:07Z</time>
      </trkpt>
      <trkpt lat="42.36515" lon="0.09142">
        <ele>862.6</ele>
        <time>2015-09-22T10:49:08Z</time>
      </trkpt>
      <trkpt lat="42.36513" lon="0.09148">
        <ele>862.5</ele>
        <time>2015-09-22T10:49:09Z</time>
      </trkpt>
      <trkpt lat="42.3651" lon="0.09154">
        <ele>862.3</ele>
        <time>2015-09-22T10:49:10Z</time>
      </trkpt>
      <trkpt lat="42.36507" lon="0.0916">
        <ele>862.2</ele>
        <time>2015-09-22T10:49:11Z</time>
      </trkpt>
      <trkpt lat="42.36504" lon="0.09167">
        <ele>862.1</ele>
        <time>2015-09-22T10:49:12Z</time>
      </trkpt>
      <trkpt lat="42.36501" lon="0.09174">
        <ele>861.9</ele>
        <time>2015-09-22T10:49:13Z</time>
      </trkpt>
      <trkpt lat="42.36498" lon="0.0918">
        <ele>861.8</ele>
        <time>2015-09-22T10:49:14Z</time>
      </trkpt>
      <trkpt lat="42.36494" lon="0.09186">
        <ele>861.7</ele>
        <time>2015-09-22T10:49:15Z</time>
      </trkpt>
      <trkpt lat="42.36491" lon="0.09192">
        <ele>861.6</ele>
        <time>2015-09-22T10:49:16Z</time>
      </trkpt>
      <trkpt lat="42.36488" lon="0.09198">
        <ele>861.5</ele>
        <time>2015-09-22T10:49:17Z</time>
      </trkpt>
      <trkpt lat="42.36485" lon="0.09203">
        <ele>861.5</ele>
        <time>2015-09-22T10:49:18Z</time>
      </trkpt>
      <trkpt lat="42.36481" lon="0.09208">
        <ele>861.3</ele>
        <time>2015-09-22T10:49:19Z</time>
      </trkpt>
      <trkpt lat="42.36476" lon="0.09212">
        <ele>861.1</ele>
        <time>2015-09-22T10:49:20Z</time>
      </trkpt>
      <trkpt lat="42.36471" lon="0.09216">
        <ele>860.9</ele>
        <time>2015-09-22T10:49:21Z</time>
      </trkpt>
      <trkpt lat="42.36466" lon="0.09219">
        <ele>860.6</ele>
        <time>2015-09-22T10:49:22Z</time>
      </trkpt>
      <trkpt lat="42.3646" lon="0.0922">
        <ele>860.4</ele>
        <time>2015-09-22T10:49:23Z</time>
      </trkpt>
      <trkpt lat="42.36454" lon="0.09222">
        <ele>860.3</ele>
        <time>2015-09-22T10:49:24Z</time>
      </trkpt>
      <trkpt lat="42.36448" lon="0.09223">
        <ele>860.4</ele>
        <time>2015-09-22T10:49:25Z</time>
      </trkpt>
      <trkpt lat="42.36442" lon="0.09223">
        <ele>860.4</ele>
        <time>2015-09-22T10:49:26Z</time>
      </trkpt>
      <trkpt lat="42.36436" lon="0.09223">
        <ele>860.4</ele>
        <time>2015-09-22T10:49:27Z</time>
      </trkpt>
      <trkpt lat="42.3643" lon="0.09222">
        <ele>860.4</ele>
        <time>2015-09-22T10:49:28Z</time>
      </trkpt>
      <trkpt lat="42.36424" lon="0.09222">
        <ele>860.5</ele>
        <time>2015-09-22T10:49:29Z</time>
      </trkpt>
      <trkpt lat="42.36417" lon="0.09223">
        <ele>860.5</ele>
        <time>2015-09-22T10:49:30Z</time>
      </trkpt>
      <trkpt lat="42.36411" lon="0.09224">
        <ele>860.6</ele>
        <time>2015-09-22T10:49:31Z</time>
      </trkpt>
      <trkpt lat="42.36404" lon="0.09224">
        <ele>860.6</ele>
        <time>2015-09-22T10:49:32Z</time>
      </trkpt>
      <trkpt lat="42.36397" lon="0.09226">
        <ele>860.7</ele>
        <time>2015-09-22T10:49:33Z</time>
      </trkpt>
      <trkpt lat="42.3639" lon="0.09228">
        <ele>860.8</ele>
        <time>2015-09-22T10:49:34Z</time>
      </trkpt>
      <trkpt lat="42.36384" lon="0.0923">
        <ele>861</ele>
        <time>2015-09-22T10:49:35Z</time>
      </trkpt>
      <trkpt lat="42.36377" lon="0.09231">
        <ele>861.1</ele>
        <time>2015-09-22T10:49:36Z</time>
      </trkpt>
      <trkpt lat="42.3637" lon="0.09233">
        <ele>861.2</ele>
        <time>2015-09-22T10:49:37Z</time>
      </trkpt>
      <trkpt lat="42.36363" lon="0.09233">
        <ele>861.2</ele>
        <time>2015-09-22T10:49:38Z</time>
      </trkpt>
      <trkpt lat="42.36357" lon="0.09233">
        <ele>861.2</ele>
        <time>2015-09-22T10:49:39Z</time>
      </trkpt>
      <trkpt lat="42.3635" lon="0.09232">
        <ele>861.2</ele>
        <time>2015-09-22T10:49:40Z</time>
      </trkpt>
      <trkpt lat="42.36344" lon="0.0923">
        <ele>861.1</ele>
        <time>2015-09-22T10:49:41Z</time>
      </trkpt>
      <trkpt lat="42.36338" lon="0.09228">
        <ele>861.1</ele>
        <time>2015-09-22T10:49:42Z</time>
      </trkpt>
      <trkpt lat="42.36332" lon="0.09226">
        <ele>861</ele>
        <time>2015-09-22T10:49:43Z</time>
      </trkpt>
      <trkpt lat="42.36327" lon="0.09224">
        <ele>861</ele>
        <time>2015-09-22T10:49:44Z</time>
      </trkpt>
      <trkpt lat="42.36321" lon="0.09222">
        <ele>861</ele>
        <time>2015-09-22T10:49:45Z</time>
      </trkpt>
      <trkpt lat="42.36316" lon="0.0922">
        <ele>861</ele>
        <time>2015-09-22T10:49:46Z</time>
      </trkpt>
      <trkpt lat="42.36311" lon="0.09219">
        <ele>861</ele>
        <time>2015-09-22T10:49:47Z</time>
      </trkpt>
      <trkpt lat="42.36306" lon="0.09217">
        <ele>861</ele>
        <time>2015-09-22T10:49:48Z</time>
      </trkpt>
      <trkpt lat="42.36301" lon="0.09215">
        <ele>861</ele>
        <time>2015-09-22T10:49:49Z</time>
      </trkpt>
      <trkpt lat="42.36298" lon="0.09212">
        <ele>861</ele>
        <time>2015-09-22T10:49:50Z</time>
      </trkpt>
      <trkpt lat="42.36293" lon="0.0921">
        <ele>861</ele>
        <time>2015-09-22T10:49:51Z</time>
      </trkpt>
      <trkpt lat="42.36289" lon="0.09207">
        <ele>860.9</ele>
        <time>2015-09-22T10:49:52Z</time>
      </trkpt>
      <trkpt lat="42.36285" lon="0.09204">
        <ele>860.6</ele>
        <time>2015-09-22T10:49:53Z</time>
      </trkpt>
      <trkpt lat="42.36281" lon="0.092">
        <ele>860.4</ele>
        <time>2015-09-22T10:49:54Z</time>
      </trkpt>
      <trkpt lat="42.36277" lon="0.09197">
        <ele>860.1</ele>
        <time>2015-09-22T10:49:55Z</time>
      </trkpt>
      <trkpt lat="42.36274" lon="0.09194">
        <ele>859.9</ele>
        <time>2015-09-22T10:49:56Z</time>
      </trkpt>
      <trkpt lat="42.36271" lon="0.09191">
        <ele>859.8</ele>
        <time>2015-09-22T10:49:57Z</time>
      </trkpt>
      <trkpt lat="42.36268" lon="0.09186">
        <ele>859.6</ele>
        <time>2015-09-22T10:49:58Z</time>
      </trkpt>
      <trkpt lat="42.36264" lon="0.09182">
        <ele>859.4</ele>
        <time>2015-09-22T10:49:59Z</time>
      </trkpt>
      <trkpt lat="42.36261" lon="0.09178">
        <ele>859.2</ele>
        <time>2015-09-22T10:50:00Z</time>
      </trkpt>
      <trkpt lat="42.36258" lon="0.09173">
        <ele>859</ele>
        <time>2015-09-22T10:50:01Z</time>
      </trkpt>
      <trkpt lat="42.36255" lon="0.09168">
        <ele>858.9</ele>
        <time>2015-09-22T10:50:02Z</time>
      </trkpt>
      <trkpt lat="42.36252" lon="0.09163">
        <ele>858.7</ele>
        <time>2015-09-22T10:50:03Z</time>
      </trkpt>
      <trkpt lat="42.36249" lon="0.09158">
        <ele>858.6</ele>
        <time>2015-09-22T10:50:04Z</time>
      </trkpt>
      <trkpt lat="42.36246" lon="0.09153">
        <ele>858.5</ele>
        <time>2015-09-22T10:50:05Z</time>
      </trkpt>
      <trkpt lat="42.36243" lon="0.09148">
        <ele>858.3</ele>
        <time>2015-09-22T10:50:06Z</time>
      </trkpt>
      <trkpt lat="42.3624" lon="0.09144">
        <ele>858.3</ele>
        <time>2015-09-22T10:50:07Z</time>
      </trkpt>
      <trkpt lat="42.36237" lon="0.09139">
        <ele>858.2</ele>
        <time>2015-09-22T10:50:08Z</time>
      </trkpt>
      <trkpt lat="42.36233" lon="0.09135">
        <ele>858.1</ele>
        <time>2015-09-22T10:50:09Z</time>
      </trkpt>
      <trkpt lat="42.3623" lon="0.09129">
        <ele>858</ele>
        <time>2015-09-22T10:50:10Z</time>
      </trkpt>
      <trkpt lat="42.36226" lon="0.09124">
        <ele>858</ele>
        <time>2015-09-22T10:50:11Z</time>
      </trkpt>
      <trkpt lat="42.36222" lon="0.09118">
        <ele>857.8</ele>
        <time>2015-09-22T10:50:12Z</time>
      </trkpt>
      <trkpt lat="42.36217" lon="0.09114">
        <ele>857.7</ele>
        <time>2015-09-22T10:50:13Z</time>
      </trkpt>
      <trkpt lat="42.36213" lon="0.09109">
        <ele>857.6</ele>
        <time>2015-09-22T10:50:14Z</time>
      </trkpt>
      <trkpt lat="42.36209" lon="0.09103">
        <ele>857.5</ele>
        <time>2015-09-22T10:50:15Z</time>
      </trkpt>
      <trkpt lat="42.36205" lon="0.09098">
        <ele>857.3</ele>
        <time>2015-09-22T10:50:16Z</time>
      </trkpt>
      <trkpt lat="42.36201" lon="0.09093">
        <ele>857.1</ele>
        <time>2015-09-22T10:50:17Z</time>
      </trkpt>
      <trkpt lat="42.36197" lon="0.09089">
        <ele>857</ele>
        <time>2015-09-22T10:50:18Z</time>
      </trkpt>
      <trkpt lat="42.36192" lon="0.09085">
        <ele>856.8</ele>
        <time>2015-09-22T10:50:19Z</time>
      </trkpt>
      <trkpt lat="42.36187" lon="0.09083">
        <ele>856.7</ele>
        <time>2015-09-22T10:50:20Z</time>
      </trkpt>
      <trkpt lat="42.36181" lon="0.09082">
        <ele>856.6</ele>
        <time>2015-09-22T10:50:21Z</time>
      </trkpt>
      <trkpt lat="42.36176" lon="0.09081">
        <ele>856.6</ele>
        <time>2015-09-22T10:50:22Z</time>
      </trkpt>
      <trkpt lat="42.36169" lon="0.0908">
        <ele>856.5</ele>
        <time>2015-09-22T10:50:23Z</time>
      </trkpt>
      <trkpt lat="42.36163" lon="0.09079">
        <ele>856.4</ele>
        <time>2015-09-22T10:50:24Z</time>
      </trkpt>
      <trkpt lat="42.36156" lon="0.09078">
        <ele>856.3</ele>
        <time>2015-09-22T10:50:25Z</time>
      </trkpt>
      <trkpt lat="42.3615" lon="0.09078">
        <ele>856.3</ele>
        <time>2015-09-22T10:50:26Z</time>
      </trkpt>
      <trkpt lat="42.36143" lon="0.09078">
        <ele>856.2</ele>
        <time>2015-09-22T10:50:27Z</time>
      </trkpt>
      <trkpt lat="42.36137" lon="0.09079">
        <ele>856.1</ele>
        <time>2015-09-22T10:50:28Z</time>
      </trkpt>
      <trkpt lat="42.3613" lon="0.09078">
        <ele>856</ele>
        <time>2015-09-22T10:50:29Z</time>
      </trkpt>
      <trkpt lat="42.36123" lon="0.09079">
        <ele>855.9</ele>
        <time>2015-09-22T10:50:30Z</time>
      </trkpt>
      <trkpt lat="42.36116" lon="0.09079">
        <ele>855.7</ele>
        <time>2015-09-22T10:50:31Z</time>
      </trkpt>
      <trkpt lat="42.36109" lon="0.0908">
        <ele>855.4</ele>
        <time>2015-09-22T10:50:32Z</time>
      </trkpt>
      <trkpt lat="42.36102" lon="0.0908">
        <ele>855.2</ele>
        <time>2015-09-22T10:50:33Z</time>
      </trkpt>
      <trkpt lat="42.36094" lon="0.09081">
        <ele>854.9</ele>
        <time>2015-09-22T10:50:34Z</time>
      </trkpt>
      <trkpt lat="42.36087" lon="0.09081">
        <ele>854.6</ele>
        <time>2015-09-22T10:50:35Z</time>
      </trkpt>
      <trkpt lat="42.36079" lon="0.09081">
        <ele>854.4</ele>
        <time>2015-09-22T10:50:36Z</time>
      </trkpt>
      <trkpt lat="42.36071" lon="0.09082">
        <ele>854.1</ele>
        <time>2015-09-22T10:50:37Z</time>
      </trkpt>
      <trkpt lat="42.36064" lon="0.09082">
        <ele>853.8</ele>
        <time>2015-09-22T10:50:38Z</time>
      </trkpt>
      <trkpt lat="42.36056" lon="0.09081">
        <ele>853.5</ele>
        <time>2015-09-22T10:50:39Z</time>
      </trkpt>
      <trkpt lat="42.36049" lon="0.09082">
        <ele>853.3</ele>
        <time>2015-09-22T10:50:40Z</time>
      </trkpt>
      <trkpt lat="42.36041" lon="0.09082">
        <ele>853</ele>
        <time>2015-09-22T10:50:41Z</time>
      </trkpt>
      <trkpt lat="42.36034" lon="0.09082">
        <ele>852.9</ele>
        <time>2015-09-22T10:50:42Z</time>
      </trkpt>
      <trkpt lat="42.36027" lon="0.09082">
        <ele>852.7</ele>
        <time>2015-09-22T10:50:43Z</time>
      </trkpt>
      <trkpt lat="42.3602" lon="0.09082">
        <ele>852.6</ele>
        <time>2015-09-22T10:50:44Z</time>
      </trkpt>
      <trkpt lat="42.36013" lon="0.09082">
        <ele>852.5</ele>
        <time>2015-09-22T10:50:45Z</time>
      </trkpt>
      <trkpt lat="42.36007" lon="0.09081">
        <ele>852.4</ele>
        <time>2015-09-22T10:50:46Z</time>
      </trkpt>
      <trkpt lat="42.36" lon="0.09081">
        <ele>852.2</ele>
        <time>2015-09-22T10:50:47Z</time>
      </trkpt>
      <trkpt lat="42.35993" lon="0.09083">
        <ele>852.1</ele>
        <time>2015-09-22T10:50:48Z</time>
      </trkpt>
      <trkpt lat="42.35986" lon="0.09083">
        <ele>852</ele>
        <time>2015-09-22T10:50:49Z</time>
      </trkpt>
      <trkpt lat="42.3598" lon="0.09082">
        <ele>851.9</ele>
        <time>2015-09-22T10:50:50Z</time>
      </trkpt>
      <trkpt lat="42.35973" lon="0.09083">
        <ele>851.8</ele>
        <time>2015-09-22T10:50:51Z</time>
      </trkpt>
      <trkpt lat="42.35967" lon="0.09083">
        <ele>851.6</ele>
        <time>2015-09-22T10:50:52Z</time>
      </trkpt>
      <trkpt lat="42.3596" lon="0.09083">
        <ele>851.5</ele>
        <time>2015-09-22T10:50:53Z</time>
      </trkpt>
      <trkpt lat="42.35953" lon="0.09083">
        <ele>851.4</ele>
        <time>2015-09-22T10:50:54Z</time>
      </trkpt>
      <trkpt lat="42.35946" lon="0.09083">
        <ele>851.3</ele>
        <time>2015-09-22T10:50:55Z</time>
      </trkpt>
      <trkpt lat="42.3594" lon="0.09083">
        <ele>851.2</ele>
        <time>2015-09-22T10:50:56Z</time>
      </trkpt>
      <trkpt lat="42.35934" lon="0.09083">
        <ele>851.1</ele>
        <time>2015-09-22T10:50:57Z</time>
      </trkpt>
      <trkpt lat="42.35927" lon="0.09083">
        <ele>850.9</ele>
        <time>2015-09-22T10:50:58Z</time>
      </trkpt>
      <trkpt lat="42.35921" lon="0.09084">
        <ele>850.8</ele>
        <time>2015-09-22T10:50:59Z</time>
      </trkpt>
      <trkpt lat="42.35915" lon="0.09083">
        <ele>850.7</ele>
        <time>2015-09-22T10:51:00Z</time>
      </trkpt>
      <trkpt lat="42.35908" lon="0.09083">
        <ele>850.6</ele>
        <time>2015-09-22T10:51:01Z</time>
      </trkpt>
      <trkpt lat="42.35902" lon="0.09082">
        <ele>850.5</ele>
        <time>2015-09-22T10:51:02Z</time>
      </trkpt>
      <trkpt lat="42.35896" lon="0.09083">
        <ele>850.4</ele>
        <time>2015-09-22T10:51:03Z</time>
      </trkpt>
      <trkpt lat="42.35889" lon="0.09082">
        <ele>850.2</ele>
        <time>2015-09-22T10:51:04Z</time>
      </trkpt>
      <trkpt lat="42.35884" lon="0.09083">
        <ele>850.1</ele>
        <time>2015-09-22T10:51:05Z</time>
      </trkpt>
      <trkpt lat="42.35878" lon="0.09083">
        <ele>850</ele>
        <time>2015-09-22T10:51:06Z</time>
      </trkpt>
      <trkpt lat="42.35871" lon="0.09084">
        <ele>850</ele>
        <time>2015-09-22T10:51:07Z</time>
      </trkpt>
      <trkpt lat="42.35865" lon="0.09084">
        <ele>850</ele>
        <time>2015-09-22T10:51:08Z</time>
      </trkpt>
      <trkpt lat="42.3586" lon="0.09084">
        <ele>850</ele>
        <time>2015-09-22T10:51:09Z</time>
      </trkpt>
      <trkpt lat="42.35854" lon="0.09084">
        <ele>850</ele>
        <time>2015-09-22T10:51:10Z</time>
      </trkpt>
      <trkpt lat="42.35847" lon="0.09084">
        <ele>850</ele>
        <time>2015-09-22T10:51:11Z</time>
      </trkpt>
      <trkpt lat="42.35841" lon="0.09084">
        <ele>850</ele>
        <time>2015-09-22T10:51:12Z</time>
      </trkpt>
      <trkpt lat="42.35836" lon="0.09084">
        <ele>850</ele>
        <time>2015-09-22T10:51:13Z</time>
      </trkpt>
      <trkpt lat="42.3583" lon="0.09085">
        <ele>850</ele>
        <time>2015-09-22T10:51:14Z</time>
      </trkpt>
      <trkpt lat="42.35824" lon="0.09086">
        <ele>850.1</ele>
        <time>2015-09-22T10:51:15Z</time>
      </trkpt>
      <trkpt lat="42.35819" lon="0.09089">
        <ele>850.1</ele>
        <time>2015-09-22T10:51:16Z</time>
      </trkpt>
      <trkpt lat="42.35813" lon="0.09092">
        <ele>850.2</ele>
        <time>2015-09-22T10:51:17Z</time>
      </trkpt>
      <trkpt lat="42.35808" lon="0.09094">
        <ele>850.3</ele>
        <time>2015-09-22T10:51:18Z</time>
      </trkpt>
      <trkpt lat="42.35803" lon="0.09097">
        <ele>850.3</ele>
        <time>2015-09-22T10:51:19Z</time>
      </trkpt>
      <trkpt lat="42.35799" lon="0.091">
        <ele>850.4</ele>
        <time>2015-09-22T10:51:20Z</time>
      </trkpt>
      <trkpt lat="42.35794" lon="0.09104">
        <ele>850.5</ele>
        <time>2015-09-22T10:51:21Z</time>
      </trkpt>
      <trkpt lat="42.35789" lon="0.09108">
        <ele>850.6</ele>
        <time>2015-09-22T10:51:22Z</time>
      </trkpt>
      <trkpt lat="42.35784" lon="0.09113">
        <ele>850.7</ele>
        <time>2015-09-22T10:51:23Z</time>
      </trkpt>
      <trkpt lat="42.3578" lon="0.09118">
        <ele>850.8</ele>
        <time>2015-09-22T10:51:24Z</time>
      </trkpt>
      <trkpt lat="42.35775" lon="0.09123">
        <ele>850.9</ele>
        <time>2015-09-22T10:51:25Z</time>
      </trkpt>
      <trkpt lat="42.35769" lon="0.09126">
        <ele>851</ele>
        <time>2015-09-22T10:51:26Z</time>
      </trkpt>
      <trkpt lat="42.35763" lon="0.09129">
        <ele>851.1</ele>
        <time>2015-09-22T10:51:27Z</time>
      </trkpt>
      <trkpt lat="42.35757" lon="0.09131">
        <ele>851.1</ele>
        <time>2015-09-22T10:51:28Z</time>
      </trkpt>
      <trkpt lat="42.35751" lon="0.09133">
        <ele>851.2</ele>
        <time>2015-09-22T10:51:29Z</time>
      </trkpt>
      <trkpt lat="42.35745" lon="0.09134">
        <ele>851.2</ele>
        <time>2015-09-22T10:51:30Z</time>
      </trkpt>
      <trkpt lat="42.35739" lon="0.09136">
        <ele>851.3</ele>
        <time>2015-09-22T10:51:31Z</time>
      </trkpt>
      <trkpt lat="42.35733" lon="0.09138">
        <ele>851.4</ele>
        <time>2015-09-22T10:51:32Z</time>
      </trkpt>
      <trkpt lat="42.35727" lon="0.0914">
        <ele>851.5</ele>
        <time>2015-09-22T10:51:33Z</time>
      </trkpt>
      <trkpt lat="42.35721" lon="0.09141">
        <ele>851.5</ele>
        <time>2015-09-22T10:51:34Z</time>
      </trkpt>
      <trkpt lat="42.35715" lon="0.0914">
        <ele>851.5</ele>
        <time>2015-09-22T10:51:35Z</time>
      </trkpt>
      <trkpt lat="42.3571" lon="0.0914">
        <ele>851.5</ele>
        <time>2015-09-22T10:51:36Z</time>
      </trkpt>
      <trkpt lat="42.35704" lon="0.09138">
        <ele>851.6</ele>
        <time>2015-09-22T10:51:37Z</time>
      </trkpt>
      <trkpt lat="42.35699" lon="0.09137">
        <ele>851.7</ele>
        <time>2015-09-22T10:51:38Z</time>
      </trkpt>
      <trkpt lat="42.35694" lon="0.09136">
        <ele>851.8</ele>
        <time>2015-09-22T10:51:39Z</time>
      </trkpt>
      <trkpt lat="42.35689" lon="0.09134">
        <ele>851.8</ele>
        <time>2015-09-22T10:51:40Z</time>
      </trkpt>
      <trkpt lat="42.35685" lon="0.09133">
        <ele>851.9</ele>
        <time>2015-09-22T10:51:41Z</time>
      </trkpt>
      <trkpt lat="42.35681" lon="0.09132">
        <ele>852</ele>
        <time>2015-09-22T10:51:42Z</time>
      </trkpt>
      <trkpt lat="42.35677" lon="0.09131">
        <ele>852</ele>
        <time>2015-09-22T10:51:43Z</time>
      </trkpt>
      <trkpt lat="42.35673" lon="0.0913">
        <ele>852.1</ele>
        <time>2015-09-22T10:51:44Z</time>
      </trkpt>
      <trkpt lat="42.35668" lon="0.09125">
        <ele>852</ele>
        <time>2015-09-22T10:51:46Z</time>
      </trkpt>
      <trkpt lat="42.35667" lon="0.0912">
        <ele>851.9</ele>
        <time>2015-09-22T10:51:47Z</time>
      </trkpt>
      <trkpt lat="42.35665" lon="0.09114">
        <ele>851.9</ele>
        <time>2015-09-22T10:51:48Z</time>
      </trkpt>
      <trkpt lat="42.35662" lon="0.09108">
        <ele>851.9</ele>
        <time>2015-09-22T10:51:49Z</time>
      </trkpt>
      <trkpt lat="42.35659" lon="0.09102">
        <ele>852</ele>
        <time>2015-09-22T10:51:50Z</time>
      </trkpt>
      <trkpt lat="42.35655" lon="0.09098">
        <ele>852</ele>
        <time>2015-09-22T10:51:51Z</time>
      </trkpt>
      <trkpt lat="42.35652" lon="0.09094">
        <ele>852.1</ele>
        <time>2015-09-22T10:51:52Z</time>
      </trkpt>
      <trkpt lat="42.35647" lon="0.09093">
        <ele>852.3</ele>
        <time>2015-09-22T10:51:53Z</time>
      </trkpt>
      <trkpt lat="42.35643" lon="0.09091">
        <ele>852.4</ele>
        <time>2015-09-22T10:51:54Z</time>
      </trkpt>
      <trkpt lat="42.35639" lon="0.09089">
        <ele>852.5</ele>
        <time>2015-09-22T10:51:55Z</time>
      </trkpt>
      <trkpt lat="42.35634" lon="0.09088">
        <ele>852.7</ele>
        <time>2015-09-22T10:51:56Z</time>
      </trkpt>
      <trkpt lat="42.35629" lon="0.09086">
        <ele>852.8</ele>
        <time>2015-09-22T10:51:57Z</time>
      </trkpt>
      <trkpt lat="42.35624" lon="0.09085">
        <ele>853</ele>
        <time>2015-09-22T10:51:58Z</time>
      </trkpt>
      <trkpt lat="42.35619" lon="0.09083">
        <ele>853.1</ele>
        <time>2015-09-22T10:51:59Z</time>
      </trkpt>
      <trkpt lat="42.35613" lon="0.09082">
        <ele>853.2</ele>
        <time>2015-09-22T10:52:00Z</time>
      </trkpt>
      <trkpt lat="42.35608" lon="0.09081">
        <ele>853.3</ele>
        <time>2015-09-22T10:52:01Z</time>
      </trkpt>
      <trkpt lat="42.35603" lon="0.09081">
        <ele>853.4</ele>
        <time>2015-09-22T10:52:02Z</time>
      </trkpt>
      <trkpt lat="42.35598" lon="0.0908">
        <ele>853.5</ele>
        <time>2015-09-22T10:52:03Z</time>
      </trkpt>
      <trkpt lat="42.35593" lon="0.09081">
        <ele>853.6</ele>
        <time>2015-09-22T10:52:04Z</time>
      </trkpt>
      <trkpt lat="42.35589" lon="0.09082">
        <ele>853.6</ele>
        <time>2015-09-22T10:52:05Z</time>
      </trkpt>
      <trkpt lat="42.35584" lon="0.09083">
        <ele>853.7</ele>
        <time>2015-09-22T10:52:06Z</time>
      </trkpt>
      <trkpt lat="42.35579" lon="0.09083">
        <ele>853.8</ele>
        <time>2015-09-22T10:52:07Z</time>
      </trkpt>
      <trkpt lat="42.35574" lon="0.09084">
        <ele>853.9</ele>
        <time>2015-09-22T10:52:08Z</time>
      </trkpt>
      <trkpt lat="42.35568" lon="0.09084">
        <ele>854</ele>
        <time>2015-09-22T10:52:09Z</time>
      </trkpt>
      <trkpt lat="42.35562" lon="0.09084">
        <ele>854.1</ele>
        <time>2015-09-22T10:52:10Z</time>
      </trkpt>
      <trkpt lat="42.35556" lon="0.09084">
        <ele>854.2</ele>
        <time>2015-09-22T10:52:11Z</time>
      </trkpt>
      <trkpt lat="42.35551" lon="0.09083">
        <ele>854.3</ele>
        <time>2015-09-22T10:52:12Z</time>
      </trkpt>
      <trkpt lat="42.35545" lon="0.09081">
        <ele>854.4</ele>
        <time>2015-09-22T10:52:13Z</time>
      </trkpt>
      <trkpt lat="42.3554" lon="0.0908">
        <ele>854.6</ele>
        <time>2015-09-22T10:52:14Z</time>
      </trkpt>
      <trkpt lat="42.35534" lon="0.09075">
        <ele>854.9</ele>
        <time>2015-09-22T10:52:15Z</time>
      </trkpt>
      <trkpt lat="42.35531" lon="0.0907">
        <ele>855</ele>
        <time>2015-09-22T10:52:16Z</time>
      </trkpt>
      <trkpt lat="42.35529" lon="0.09064">
        <ele>855.1</ele>
        <time>2015-09-22T10:52:17Z</time>
      </trkpt>
      <trkpt lat="42.35528" lon="0.09058">
        <ele>855.1</ele>
        <time>2015-09-22T10:52:18Z</time>
      </trkpt>
      <trkpt lat="42.35527" lon="0.09052">
        <ele>855</ele>
        <time>2015-09-22T10:52:19Z</time>
      </trkpt>
      <trkpt lat="42.35528" lon="0.09045">
        <ele>854.9</ele>
        <time>2015-09-22T10:52:20Z</time>
      </trkpt>
      <trkpt lat="42.35529" lon="0.09039">
        <ele>854.7</ele>
        <time>2015-09-22T10:52:21Z</time>
      </trkpt>
      <trkpt lat="42.35531" lon="0.09033">
        <ele>854.6</ele>
        <time>2015-09-22T10:52:22Z</time>
      </trkpt>
      <trkpt lat="42.35533" lon="0.09026">
        <ele>854.4</ele>
        <time>2015-09-22T10:52:23Z</time>
      </trkpt>
      <trkpt lat="42.35536" lon="0.09021">
        <ele>854.1</ele>
        <time>2015-09-22T10:52:24Z</time>
      </trkpt>
      <trkpt lat="42.35539" lon="0.09016">
        <ele>853.9</ele>
        <time>2015-09-22T10:52:25Z</time>
      </trkpt>
      <trkpt lat="42.35541" lon="0.0901">
        <ele>853.7</ele>
        <time>2015-09-22T10:52:26Z</time>
      </trkpt>
      <trkpt lat="42.35545" lon="0.09004">
        <ele>853.5</ele>
        <time>2015-09-22T10:52:27Z</time>
      </trkpt>
      <trkpt lat="42.35549" lon="0.08997">
        <ele>853.3</ele>
        <time>2015-09-22T10:52:28Z</time>
      </trkpt>
      <trkpt lat="42.35552" lon="0.08991">
        <ele>853.2</ele>
        <time>2015-09-22T10:52:29Z</time>
      </trkpt>
      <trkpt lat="42.35555" lon="0.08984">
        <ele>853</ele>
        <time>2015-09-22T10:52:30Z</time>
      </trkpt>
      <trkpt lat="42.35558" lon="0.08976">
        <ele>852.9</ele>
        <time>2015-09-22T10:52:31Z</time>
      </trkpt>
      <trkpt lat="42.3556" lon="0.08969">
        <ele>852.7</ele>
        <time>2015-09-22T10:52:32Z</time>
      </trkpt>
      <trkpt lat="42.35562" lon="0.08963">
        <ele>852.6</ele>
        <time>2015-09-22T10:52:33Z</time>
      </trkpt>
      <trkpt lat="42.35562" lon="0.08958">
        <ele>852.5</ele>
        <time>2015-09-22T10:52:34Z</time>
      </trkpt>
      <trkpt lat="42.35561" lon="0.08953">
        <ele>852.4</ele>
        <time>2015-09-22T10:52:35Z</time>
      </trkpt>
      <trkpt lat="42.35561" lon="0.0895">
        <ele>852.3</ele>
        <time>2015-09-22T10:52:36Z</time>
      </trkpt>
      <trkpt lat="42.35562" lon="0.08941">
        <ele>852</ele>
        <time>2015-09-22T10:52:38Z</time>
      </trkpt>
      <trkpt lat="42.35564" lon="0.08937">
        <ele>851.7</ele>
        <time>2015-09-22T10:52:39Z</time>
      </trkpt>
      <trkpt lat="42.35566" lon="0.08932">
        <ele>851.5</ele>
        <time>2015-09-22T10:52:40Z</time>
      </trkpt>
      <trkpt lat="42.35568" lon="0.08928">
        <ele>851.3</ele>
        <time>2015-09-22T10:52:41Z</time>
      </trkpt>
      <trkpt lat="42.3557" lon="0.08923">
        <ele>851</ele>
        <time>2015-09-22T10:52:42Z</time>
      </trkpt>
      <trkpt lat="42.35572" lon="0.08918">
        <ele>850.8</ele>
        <time>2015-09-22T10:52:43Z</time>
      </trkpt>
      <trkpt lat="42.35574" lon="0.08913">
        <ele>850.5</ele>
        <time>2015-09-22T10:52:44Z</time>
      </trkpt>
      <trkpt lat="42.35576" lon="0.08908">
        <ele>850.2</ele>
        <time>2015-09-22T10:52:45Z</time>
      </trkpt>
      <trkpt lat="42.35578" lon="0.08904">
        <ele>849.9</ele>
        <time>2015-09-22T10:52:46Z</time>
      </trkpt>
      <trkpt lat="42.35581" lon="0.08899">
        <ele>849.6</ele>
        <time>2015-09-22T10:52:47Z</time>
      </trkpt>
      <trkpt lat="42.35583" lon="0.08894">
        <ele>849.3</ele>
        <time>2015-09-22T10:52:48Z</time>
      </trkpt>
      <trkpt lat="42.35587" lon="0.08889">
        <ele>848.9</ele>
        <time>2015-09-22T10:52:49Z</time>
      </trkpt>
      <trkpt lat="42.35589" lon="0.08883">
        <ele>848.5</ele>
        <time>2015-09-22T10:52:50Z</time>
      </trkpt>
      <trkpt lat="42.35591" lon="0.08877">
        <ele>848.1</ele>
        <time>2015-09-22T10:52:51Z</time>
      </trkpt>
      <trkpt lat="42.35592" lon="0.0887">
        <ele>847.8</ele>
        <time>2015-09-22T10:52:52Z</time>
      </trkpt>
      <trkpt lat="42.35592" lon="0.08861">
        <ele>847.6</ele>
        <time>2015-09-22T10:52:53Z</time>
      </trkpt>
      <trkpt lat="42.35592" lon="0.08852">
        <ele>847.3</ele>
        <time>2015-09-22T10:52:54Z</time>
      </trkpt>
      <trkpt lat="42.35589" lon="0.08843">
        <ele>847.2</ele>
        <time>2015-09-22T10:52:55Z</time>
      </trkpt>
      <trkpt lat="42.35588" lon="0.08834">
        <ele>847</ele>
        <time>2015-09-22T10:52:56Z</time>
      </trkpt>
      <trkpt lat="42.35584" lon="0.08825">
        <ele>846.9</ele>
        <time>2015-09-22T10:52:57Z</time>
      </trkpt>
      <trkpt lat="42.35582" lon="0.08817">
        <ele>846.8</ele>
        <time>2015-09-22T10:52:58Z</time>
      </trkpt>
      <trkpt lat="42.3558" lon="0.08808">
        <ele>846.7</ele>
        <time>2015-09-22T10:52:59Z</time>
      </trkpt>
      <trkpt lat="42.35578" lon="0.088">
        <ele>846.5</ele>
        <time>2015-09-22T10:53:00Z</time>
      </trkpt>
      <trkpt lat="42.35576" lon="0.08791">
        <ele>846.3</ele>
        <time>2015-09-22T10:53:01Z</time>
      </trkpt>
      <trkpt lat="42.35575" lon="0.08783">
        <ele>846.2</ele>
        <time>2015-09-22T10:53:02Z</time>
      </trkpt>
      <trkpt lat="42.35574" lon="0.08775">
        <ele>846.1</ele>
        <time>2015-09-22T10:53:03Z</time>
      </trkpt>
      <trkpt lat="42.35573" lon="0.08767">
        <ele>846</ele>
        <time>2015-09-22T10:53:04Z</time>
      </trkpt>
      <trkpt lat="42.35573" lon="0.08759">
        <ele>845.8</ele>
        <time>2015-09-22T10:53:05Z</time>
      </trkpt>
      <trkpt lat="42.35573" lon="0.08751">
        <ele>845.7</ele>
        <time>2015-09-22T10:53:06Z</time>
      </trkpt>
      <trkpt lat="42.35573" lon="0.08743">
        <ele>845.5</ele>
        <time>2015-09-22T10:53:07Z</time>
      </trkpt>
      <trkpt lat="42.35573" lon="0.08736">
        <ele>845.4</ele>
        <time>2015-09-22T10:53:08Z</time>
      </trkpt>
      <trkpt lat="42.35571" lon="0.0873">
        <ele>845.4</ele>
        <time>2015-09-22T10:53:09Z</time>
      </trkpt>
      <trkpt lat="42.35566" lon="0.08724">
        <ele>845.5</ele>
        <time>2015-09-22T10:53:10Z</time>
      </trkpt>
      <trkpt lat="42.35562" lon="0.08718">
        <ele>845.7</ele>
        <time>2015-09-22T10:53:11Z</time>
      </trkpt>
      <trkpt lat="42.35558" lon="0.08713">
        <ele>845.9</ele>
        <time>2015-09-22T10:53:12Z</time>
      </trkpt>
      <trkpt lat="42.35554" lon="0.08708">
        <ele>846.1</ele>
        <time>2015-09-22T10:53:13Z</time>
      </trkpt>
      <trkpt lat="42.35551" lon="0.08702">
        <ele>846.4</ele>
        <time>2015-09-22T10:53:14Z</time>
      </trkpt>
      <trkpt lat="42.35549" lon="0.08697">
        <ele>846.6</ele>
        <time>2015-09-22T10:53:15Z</time>
      </trkpt>
      <trkpt lat="42.35548" lon="0.08691">
        <ele>846.7</ele>
        <time>2015-09-22T10:53:17Z</time>
      </trkpt>
      <trkpt lat="42.35547" lon="0.08687">
        <ele>846.8</ele>
        <time>2015-09-22T10:53:18Z</time>
      </trkpt>
      <trkpt lat="42.35546" lon="0.08682">
        <ele>846.9</ele>
        <time>2015-09-22T10:53:19Z</time>
      </trkpt>
      <trkpt lat="42.35545" lon="0.08677">
        <ele>847.1</ele>
        <time>2015-09-22T10:53:20Z</time>
      </trkpt>
      <trkpt lat="42.35545" lon="0.08673">
        <ele>847.1</ele>
        <time>2015-09-22T10:53:21Z</time>
      </trkpt>
      <trkpt lat="42.35546" lon="0.08669">
        <ele>847.1</ele>
        <time>2015-09-22T10:53:22Z</time>
      </trkpt>
      <trkpt lat="42.35547" lon="0.08666">
        <ele>847</ele>
        <time>2015-09-22T10:53:23Z</time>
      </trkpt>
      <trkpt lat="42.35549" lon="0.08662">
        <ele>846.9</ele>
        <time>2015-09-22T10:53:24Z</time>
      </trkpt>
      <trkpt lat="42.35551" lon="0.08658">
        <ele>846.7</ele>
        <time>2015-09-22T10:53:25Z</time>
      </trkpt>
      <trkpt lat="42.35553" lon="0.08653">
        <ele>846.6</ele>
        <time>2015-09-22T10:53:26Z</time>
      </trkpt>
      <trkpt lat="42.35555" lon="0.08647">
        <ele>846.4</ele>
        <time>2015-09-22T10:53:27Z</time>
      </trkpt>
      <trkpt lat="42.35557" lon="0.08642">
        <ele>846.3</ele>
        <time>2015-09-22T10:53:28Z</time>
      </trkpt>
      <trkpt lat="42.35558" lon="0.08634">
        <ele>846.2</ele>
        <time>2015-09-22T10:53:29Z</time>
      </trkpt>
      <trkpt lat="42.35558" lon="0.08628">
        <ele>846.2</ele>
        <time>2015-09-22T10:53:30Z</time>
      </trkpt>
      <trkpt lat="42.35556" lon="0.08622">
        <ele>846.3</ele>
        <time>2015-09-22T10:53:31Z</time>
      </trkpt>
      <trkpt lat="42.35557" lon="0.08615">
        <ele>846.1</ele>
        <time>2015-09-22T10:53:32Z</time>
      </trkpt>
      <trkpt lat="42.35554" lon="0.08609">
        <ele>846.2</ele>
        <time>2015-09-22T10:53:33Z</time>
      </trkpt>
      <trkpt lat="42.35552" lon="0.08604">
        <ele>846.3</ele>
        <time>2015-09-22T10:53:34Z</time>
      </trkpt>
      <trkpt lat="42.3555" lon="0.08599">
        <ele>846.5</ele>
        <time>2015-09-22T10:53:35Z</time>
      </trkpt>
      <trkpt lat="42.35547" lon="0.08594">
        <ele>846.6</ele>
        <time>2015-09-22T10:53:36Z</time>
      </trkpt>
      <trkpt lat="42.35546" lon="0.08589">
        <ele>846.7</ele>
        <time>2015-09-22T10:53:37Z</time>
      </trkpt>
      <trkpt lat="42.35543" lon="0.08585">
        <ele>846.8</ele>
        <time>2015-09-22T10:53:38Z</time>
      </trkpt>
      <trkpt lat="42.35542" lon="0.0858">
        <ele>846.9</ele>
        <time>2015-09-22T10:53:39Z</time>
      </trkpt>
      <trkpt lat="42.35541" lon="0.08576">
        <ele>847</ele>
        <time>2015-09-22T10:53:40Z</time>
      </trkpt>
      <trkpt lat="42.35539" lon="0.08572">
        <ele>847</ele>
        <time>2015-09-22T10:53:41Z</time>
      </trkpt>
      <trkpt lat="42.35538" lon="0.08568">
        <ele>847.2</ele>
        <time>2015-09-22T10:53:42Z</time>
      </trkpt>
      <trkpt lat="42.35537" lon="0.08565">
        <ele>847.2</ele>
        <time>2015-09-22T10:53:43Z</time>
      </trkpt>
      <trkpt lat="42.35534" lon="0.08559">
        <ele>847.4</ele>
        <time>2015-09-22T10:53:45Z</time>
      </trkpt>
      <trkpt lat="42.35532" lon="0.08554">
        <ele>847.6</ele>
        <time>2015-09-22T10:53:47Z</time>
      </trkpt>
      <trkpt lat="42.35531" lon="0.08548">
        <ele>847.6</ele>
        <time>2015-09-22T10:53:49Z</time>
      </trkpt>
      <trkpt lat="42.35529" lon="0.08542">
        <ele>847.6</ele>
        <time>2015-09-22T10:53:51Z</time>
      </trkpt>
      <trkpt lat="42.35528" lon="0.08535">
        <ele>847.4</ele>
        <time>2015-09-22T10:53:53Z</time>
      </trkpt>
      <trkpt lat="42.35528" lon="0.08528">
        <ele>847.1</ele>
        <time>2015-09-22T10:53:55Z</time>
      </trkpt>
      <trkpt lat="42.35529" lon="0.08521">
        <ele>846.7</ele>
        <time>2015-09-22T10:53:57Z</time>
      </trkpt>
      <trkpt lat="42.3553" lon="0.08517">
        <ele>846.4</ele>
        <time>2015-09-22T10:54:08Z</time>
      </trkpt>
      <trkpt lat="42.35532" lon="0.08515">
        <ele>845.9</ele>
        <time>2015-09-22T10:54:13Z</time>
      </trkpt>
      <trkpt lat="42.35535" lon="0.08515">
        <ele>845.5</ele>
        <time>2015-09-22T10:54:30Z</time>
      </trkpt>
      <trkpt lat="42.35539" lon="0.08516">
        <ele>845.1</ele>
        <time>2015-09-22T10:55:48Z</time>
      </trkpt>
      <trkpt lat="42.35545" lon="0.08523">
        <ele>844.6</ele>
        <time>2015-09-22T10:56:55Z</time>
      </trkpt>
      <trkpt lat="42.3555" lon="0.08524">
        <ele>844.1</ele>
        <time>2015-09-22T10:56:57Z</time>
      </trkpt>
      <trkpt lat="42.35555" lon="0.08525">
        <ele>843.6</ele>
        <time>2015-09-22T10:56:59Z</time>
      </trkpt>
      <trkpt lat="42.35558" lon="0.08527">
        <ele>843.3</ele>
        <time>2015-09-22T10:57:01Z</time>
      </trkpt>
      <trkpt lat="42.35562" lon="0.08527">
        <ele>842.8</ele>
        <time>2015-09-22T10:57:04Z</time>
      </trkpt>
      <trkpt lat="42.35564" lon="0.0853">
        <ele>842.7</ele>
        <time>2015-09-22T10:57:07Z</time>
      </trkpt>
      <trkpt lat="42.35563" lon="0.08533">
        <ele>843</ele>
        <time>2015-09-22T10:57:13Z</time>
      </trkpt>
      <trkpt lat="42.35566" lon="0.08532">
        <ele>842.6</ele>
        <time>2015-09-22T10:57:24Z</time>
      </trkpt>
      <trkpt lat="42.35567" lon="0.08529">
        <ele>842.2</ele>
        <time>2015-09-22T10:57:29Z</time>
      </trkpt>
      <trkpt lat="42.35565" lon="0.08526">
        <ele>842.3</ele>
        <time>2015-09-22T10:58:11Z</time>
      </trkpt>
      <trkpt lat="42.35563" lon="0.08524">
        <ele>842.5</ele>
        <time>2015-09-22T10:58:36Z</time>
      </trkpt>
      <trkpt lat="42.35564" lon="0.08528">
        <ele>842.5</ele>
        <time>2015-09-22T10:58:54Z</time>
      </trkpt>
      <trkpt lat="42.35565" lon="0.08531">
        <ele>842.7</ele>
        <time>2015-09-22T10:58:57Z</time>
      </trkpt>
      <trkpt lat="42.35566" lon="0.08534">
        <ele>842.6</ele>
        <time>2015-09-22T10:59:00Z</time>
      </trkpt>
      <trkpt lat="42.35568" lon="0.08538">
        <ele>842.7</ele>
        <time>2015-09-22T10:59:03Z</time>
      </trkpt>
      <trkpt lat="42.35565" lon="0.08537">
        <ele>843</ele>
        <time>2015-09-22T10:59:18Z</time>
      </trkpt>
      <trkpt lat="42.3556" lon="0.08531">
        <ele>843.2</ele>
        <time>2015-09-22T11:00:19Z</time>
      </trkpt>
      <trkpt lat="42.35557" lon="0.08529">
        <ele>843.5</ele>
        <time>2015-09-22T11:00:21Z</time>
      </trkpt>
      <trkpt lat="42.35554" lon="0.08528">
        <ele>843.9</ele>
        <time>2015-09-22T11:00:23Z</time>
      </trkpt>
      <trkpt lat="42.35551" lon="0.08527">
        <ele>844.1</ele>
        <time>2015-09-22T11:00:24Z</time>
      </trkpt>
      <trkpt lat="42.35548" lon="0.08526">
        <ele>844.4</ele>
        <time>2015-09-22T11:00:28Z</time>
      </trkpt>
      <trkpt lat="42.35545" lon="0.08526">
        <ele>844.8</ele>
        <time>2015-09-22T11:00:31Z</time>
      </trkpt>
      <trkpt lat="42.35542" lon="0.08526">
        <ele>845.2</ele>
        <time>2015-09-22T11:00:39Z</time>
      </trkpt>
      <trkpt lat="42.35542" lon="0.08522">
        <ele>845.1</ele>
        <time>2015-09-22T11:00:53Z</time>
      </trkpt>
      <trkpt lat="42.35541" lon="0.08519">
        <ele>845</ele>
        <time>2015-09-22T11:01:05Z</time>
      </trkpt>
      <trkpt lat="42.35533" lon="0.08515">
        <ele>845.9</ele>
        <time>2015-09-22T11:01:50Z</time>
      </trkpt>
      <trkpt lat="42.3553" lon="0.08515">
        <ele>846.2</ele>
        <time>2015-09-22T11:02:03Z</time>
      </trkpt>
      <trkpt lat="42.3553" lon="0.08511">
        <ele>846.1</ele>
        <time>2015-09-22T11:02:43Z</time>
      </trkpt>
      <trkpt lat="42.35528" lon="0.08507">
        <ele>846.2</ele>
        <time>2015-09-22T11:02:47Z</time>
      </trkpt>
      <trkpt lat="42.35527" lon="0.08503">
        <ele>846.1</ele>
        <time>2015-09-22T11:02:51Z</time>
      </trkpt>
      <trkpt lat="42.35528" lon="0.08499">
        <ele>845.8</ele>
        <time>2015-09-22T11:02:55Z</time>
      </trkpt>
      <trkpt lat="42.35527" lon="0.08503">
        <ele>846</ele>
        <time>2015-09-22T11:03:08Z</time>
      </trkpt>
      <trkpt lat="42.35528" lon="0.08507">
        <ele>846.1</ele>
        <time>2015-09-22T11:03:12Z</time>
      </trkpt>
      <trkpt lat="42.3553" lon="0.0851">
        <ele>846.1</ele>
        <time>2015-09-22T11:03:16Z</time>
      </trkpt>
      <trkpt lat="42.3553" lon="0.08515">
        <ele>846.3</ele>
        <time>2015-09-22T11:03:17Z</time>
      </trkpt>
      <trkpt lat="42.3553" lon="0.08523">
        <ele>846.7</ele>
        <time>2015-09-22T11:03:19Z</time>
      </trkpt>
      <trkpt lat="42.3553" lon="0.08527">
        <ele>846.8</ele>
        <time>2015-09-22T11:03:20Z</time>
      </trkpt>
      <trkpt lat="42.3553" lon="0.08532">
        <ele>847.1</ele>
        <time>2015-09-22T11:03:21Z</time>
      </trkpt>
      <trkpt lat="42.3553" lon="0.08536">
        <ele>847.2</ele>
        <time>2015-09-22T11:03:22Z</time>
      </trkpt>
      <trkpt lat="42.35531" lon="0.0854">
        <ele>847.4</ele>
        <time>2015-09-22T11:03:23Z</time>
      </trkpt>
      <trkpt lat="42.35533" lon="0.08546">
        <ele>847.3</ele>
        <time>2015-09-22T11:03:25Z</time>
      </trkpt>
      <trkpt lat="42.35535" lon="0.0855">
        <ele>847.1</ele>
        <time>2015-09-22T11:03:28Z</time>
      </trkpt>
      <trkpt lat="42.35535" lon="0.08554">
        <ele>847.2</ele>
        <time>2015-09-22T11:04:44Z</time>
      </trkpt>
      <trkpt lat="42.35536" lon="0.08558">
        <ele>847.1</ele>
        <time>2015-09-22T11:04:45Z</time>
      </trkpt>
      <trkpt lat="42.35537" lon="0.08562">
        <ele>847.1</ele>
        <time>2015-09-22T11:04:46Z</time>
      </trkpt>
      <trkpt lat="42.35538" lon="0.08566">
        <ele>847.1</ele>
        <time>2015-09-22T11:04:47Z</time>
      </trkpt>
      <trkpt lat="42.35539" lon="0.0857">
        <ele>847</ele>
        <time>2015-09-22T11:04:48Z</time>
      </trkpt>
      <trkpt lat="42.3554" lon="0.08574">
        <ele>847</ele>
        <time>2015-09-22T11:04:49Z</time>
      </trkpt>
      <trkpt lat="42.35542" lon="0.08579">
        <ele>846.9</ele>
        <time>2015-09-22T11:04:50Z</time>
      </trkpt>
      <trkpt lat="42.35543" lon="0.08584">
        <ele>846.8</ele>
        <time>2015-09-22T11:04:51Z</time>
      </trkpt>
      <trkpt lat="42.35545" lon="0.08589">
        <ele>846.8</ele>
        <time>2015-09-22T11:04:52Z</time>
      </trkpt>
      <trkpt lat="42.35547" lon="0.08594">
        <ele>846.7</ele>
        <time>2015-09-22T11:04:53Z</time>
      </trkpt>
      <trkpt lat="42.35549" lon="0.08599">
        <ele>846.6</ele>
        <time>2015-09-22T11:04:54Z</time>
      </trkpt>
      <trkpt lat="42.35551" lon="0.08604">
        <ele>846.5</ele>
        <time>2015-09-22T11:04:55Z</time>
      </trkpt>
      <trkpt lat="42.35553" lon="0.08609">
        <ele>846.3</ele>
        <time>2015-09-22T11:04:56Z</time>
      </trkpt>
      <trkpt lat="42.35555" lon="0.08614">
        <ele>846.2</ele>
        <time>2015-09-22T11:04:57Z</time>
      </trkpt>
      <trkpt lat="42.35557" lon="0.08619">
        <ele>846.2</ele>
        <time>2015-09-22T11:04:58Z</time>
      </trkpt>
      <trkpt lat="42.35558" lon="0.08624">
        <ele>846.2</ele>
        <time>2015-09-22T11:04:59Z</time>
      </trkpt>
      <trkpt lat="42.35559" lon="0.08629">
        <ele>846.1</ele>
        <time>2015-09-22T11:05:00Z</time>
      </trkpt>
      <trkpt lat="42.3556" lon="0.08635">
        <ele>846</ele>
        <time>2015-09-22T11:05:02Z</time>
      </trkpt>
      <trkpt lat="42.35558" lon="0.08639">
        <ele>846.1</ele>
        <time>2015-09-22T11:05:03Z</time>
      </trkpt>
      <trkpt lat="42.35557" lon="0.08642">
        <ele>846.2</ele>
        <time>2015-09-22T11:05:04Z</time>
      </trkpt>
      <trkpt lat="42.35556" lon="0.08646">
        <ele>846.3</ele>
        <time>2015-09-22T11:05:05Z</time>
      </trkpt>
      <trkpt lat="42.35555" lon="0.0865">
        <ele>846.4</ele>
        <time>2015-09-22T11:05:06Z</time>
      </trkpt>
      <trkpt lat="42.35553" lon="0.08654">
        <ele>846.6</ele>
        <time>2015-09-22T11:05:07Z</time>
      </trkpt>
      <trkpt lat="42.35552" lon="0.08657">
        <ele>846.7</ele>
        <time>2015-09-22T11:05:08Z</time>
      </trkpt>
      <trkpt lat="42.3555" lon="0.0866">
        <ele>846.8</ele>
        <time>2015-09-22T11:05:09Z</time>
      </trkpt>
      <trkpt lat="42.35547" lon="0.08666">
        <ele>847</ele>
        <time>2015-09-22T11:05:11Z</time>
      </trkpt>
      <trkpt lat="42.35545" lon="0.08671">
        <ele>847.2</ele>
        <time>2015-09-22T11:05:13Z</time>
      </trkpt>
      <trkpt lat="42.35543" lon="0.08676">
        <ele>847.2</ele>
        <time>2015-09-22T11:05:15Z</time>
      </trkpt>
      <trkpt lat="42.35545" lon="0.08682">
        <ele>847</ele>
        <time>2015-09-22T11:05:17Z</time>
      </trkpt>
      <trkpt lat="42.35546" lon="0.08685">
        <ele>846.9</ele>
        <time>2015-09-22T11:05:18Z</time>
      </trkpt>
      <trkpt lat="42.35549" lon="0.0869">
        <ele>846.7</ele>
        <time>2015-09-22T11:05:20Z</time>
      </trkpt>
      <trkpt lat="42.3555" lon="0.08695">
        <ele>846.5</ele>
        <time>2015-09-22T11:05:31Z</time>
      </trkpt>
      <trkpt lat="42.35552" lon="0.08701">
        <ele>846.3</ele>
        <time>2015-09-22T11:05:33Z</time>
      </trkpt>
      <trkpt lat="42.35555" lon="0.08706">
        <ele>846</ele>
        <time>2015-09-22T11:05:35Z</time>
      </trkpt>
      <trkpt lat="42.35559" lon="0.08711">
        <ele>845.8</ele>
        <time>2015-09-22T11:05:37Z</time>
      </trkpt>
      <trkpt lat="42.35562" lon="0.08715">
        <ele>845.6</ele>
        <time>2015-09-22T11:05:39Z</time>
      </trkpt>
      <trkpt lat="42.35566" lon="0.0872">
        <ele>845.5</ele>
        <time>2015-09-22T11:05:41Z</time>
      </trkpt>
      <trkpt lat="42.3557" lon="0.08724">
        <ele>845.3</ele>
        <time>2015-09-22T11:05:43Z</time>
      </trkpt>
      <trkpt lat="42.35573" lon="0.0873">
        <ele>845.2</ele>
        <time>2015-09-22T11:05:45Z</time>
      </trkpt>
      <trkpt lat="42.35574" lon="0.08736">
        <ele>845.3</ele>
        <time>2015-09-22T11:05:47Z</time>
      </trkpt>
      <trkpt lat="42.35575" lon="0.08742">
        <ele>845.3</ele>
        <time>2015-09-22T11:05:49Z</time>
      </trkpt>
      <trkpt lat="42.35575" lon="0.08748">
        <ele>845.5</ele>
        <time>2015-09-22T11:05:51Z</time>
      </trkpt>
      <trkpt lat="42.35575" lon="0.08755">
        <ele>845.6</ele>
        <time>2015-09-22T11:05:53Z</time>
      </trkpt>
      <trkpt lat="42.35575" lon="0.08762">
        <ele>845.8</ele>
        <time>2015-09-22T11:05:55Z</time>
      </trkpt>
      <trkpt lat="42.35575" lon="0.08766">
        <ele>845.8</ele>
        <time>2015-09-22T11:05:56Z</time>
      </trkpt>
      <trkpt lat="42.35576" lon="0.0877">
        <ele>845.9</ele>
        <time>2015-09-22T11:05:57Z</time>
      </trkpt>
      <trkpt lat="42.35576" lon="0.08773">
        <ele>845.9</ele>
        <time>2015-09-22T11:05:58Z</time>
      </trkpt>
      <trkpt lat="42.35577" lon="0.08777">
        <ele>846</ele>
        <time>2015-09-22T11:05:59Z</time>
      </trkpt>
      <trkpt lat="42.35578" lon="0.08785">
        <ele>846.1</ele>
        <time>2015-09-22T11:06:01Z</time>
      </trkpt>
      <trkpt lat="42.35578" lon="0.08788">
        <ele>846.2</ele>
        <time>2015-09-22T11:06:02Z</time>
      </trkpt>
      <trkpt lat="42.35579" lon="0.08792">
        <ele>846.2</ele>
        <time>2015-09-22T11:06:03Z</time>
      </trkpt>
      <trkpt lat="42.35579" lon="0.08796">
        <ele>846.3</ele>
        <time>2015-09-22T11:06:04Z</time>
      </trkpt>
      <trkpt lat="42.35579" lon="0.08799">
        <ele>846.4</ele>
        <time>2015-09-22T11:06:05Z</time>
      </trkpt>
      <trkpt lat="42.3558" lon="0.08807">
        <ele>846.6</ele>
        <time>2015-09-22T11:06:07Z</time>
      </trkpt>
      <trkpt lat="42.35582" lon="0.08814">
        <ele>846.8</ele>
        <time>2015-09-22T11:06:09Z</time>
      </trkpt>
      <trkpt lat="42.35583" lon="0.08821">
        <ele>846.9</ele>
        <time>2015-09-22T11:06:11Z</time>
      </trkpt>
      <trkpt lat="42.35585" lon="0.08827">
        <ele>847</ele>
        <time>2015-09-22T11:06:13Z</time>
      </trkpt>
      <trkpt lat="42.35588" lon="0.08833">
        <ele>847</ele>
        <time>2015-09-22T11:06:15Z</time>
      </trkpt>
      <trkpt lat="42.35589" lon="0.0884">
        <ele>847.1</ele>
        <time>2015-09-22T11:06:17Z</time>
      </trkpt>
      <trkpt lat="42.35591" lon="0.08846">
        <ele>847.2</ele>
        <time>2015-09-22T11:06:19Z</time>
      </trkpt>
      <trkpt lat="42.35592" lon="0.08853">
        <ele>847.4</ele>
        <time>2015-09-22T11:06:21Z</time>
      </trkpt>
      <trkpt lat="42.35593" lon="0.08859">
        <ele>847.5</ele>
        <time>2015-09-22T11:06:23Z</time>
      </trkpt>
      <trkpt lat="42.35593" lon="0.08866">
        <ele>847.7</ele>
        <time>2015-09-22T11:06:25Z</time>
      </trkpt>
      <trkpt lat="42.35593" lon="0.08873">
        <ele>847.9</ele>
        <time>2015-09-22T11:06:27Z</time>
      </trkpt>
      <trkpt lat="42.35592" lon="0.08879">
        <ele>848.2</ele>
        <time>2015-09-22T11:06:29Z</time>
      </trkpt>
      <trkpt lat="42.35591" lon="0.08884">
        <ele>848.5</ele>
        <time>2015-09-22T11:06:31Z</time>
      </trkpt>
      <trkpt lat="42.3559" lon="0.08889">
        <ele>848.7</ele>
        <time>2015-09-22T11:06:33Z</time>
      </trkpt>
      <trkpt lat="42.35588" lon="0.08894">
        <ele>849</ele>
        <time>2015-09-22T11:06:35Z</time>
      </trkpt>
      <trkpt lat="42.35585" lon="0.08898">
        <ele>849.4</ele>
        <time>2015-09-22T11:06:37Z</time>
      </trkpt>
      <trkpt lat="42.35583" lon="0.08902">
        <ele>849.7</ele>
        <time>2015-09-22T11:06:39Z</time>
      </trkpt>
      <trkpt lat="42.3558" lon="0.08906">
        <ele>849.9</ele>
        <time>2015-09-22T11:06:41Z</time>
      </trkpt>
      <trkpt lat="42.35578" lon="0.0891">
        <ele>850.2</ele>
        <time>2015-09-22T11:06:43Z</time>
      </trkpt>
      <trkpt lat="42.35576" lon="0.08916">
        <ele>850.5</ele>
        <time>2015-09-22T11:06:45Z</time>
      </trkpt>
      <trkpt lat="42.35573" lon="0.08922">
        <ele>850.9</ele>
        <time>2015-09-22T11:06:47Z</time>
      </trkpt>
      <trkpt lat="42.3557" lon="0.08927">
        <ele>851.2</ele>
        <time>2015-09-22T11:06:49Z</time>
      </trkpt>
      <trkpt lat="42.35567" lon="0.08933">
        <ele>851.5</ele>
        <time>2015-09-22T11:06:51Z</time>
      </trkpt>
      <trkpt lat="42.35564" lon="0.08938">
        <ele>851.8</ele>
        <time>2015-09-22T11:06:53Z</time>
      </trkpt>
      <trkpt lat="42.35561" lon="0.08944">
        <ele>852.1</ele>
        <time>2015-09-22T11:06:55Z</time>
      </trkpt>
      <trkpt lat="42.35559" lon="0.08949">
        <ele>852.3</ele>
        <time>2015-09-22T11:06:57Z</time>
      </trkpt>
      <trkpt lat="42.35559" lon="0.08956">
        <ele>852.5</ele>
        <time>2015-09-22T11:06:59Z</time>
      </trkpt>
      <trkpt lat="42.35559" lon="0.0896">
        <ele>852.6</ele>
        <time>2015-09-22T11:07:00Z</time>
      </trkpt>
      <trkpt lat="42.35558" lon="0.08967">
        <ele>852.7</ele>
        <time>2015-09-22T11:07:01Z</time>
      </trkpt>
      <trkpt lat="42.35557" lon="0.08975">
        <ele>852.9</ele>
        <time>2015-09-22T11:07:02Z</time>
      </trkpt>
      <trkpt lat="42.35554" lon="0.08982">
        <ele>853</ele>
        <time>2015-09-22T11:07:03Z</time>
      </trkpt>
      <trkpt lat="42.35551" lon="0.08988">
        <ele>853.2</ele>
        <time>2015-09-22T11:07:04Z</time>
      </trkpt>
      <trkpt lat="42.35549" lon="0.08994">
        <ele>853.3</ele>
        <time>2015-09-22T11:07:05Z</time>
      </trkpt>
      <trkpt lat="42.35546" lon="0.08999">
        <ele>853.4</ele>
        <time>2015-09-22T11:07:06Z</time>
      </trkpt>
      <trkpt lat="42.35544" lon="0.09003">
        <ele>853.5</ele>
        <time>2015-09-22T11:07:07Z</time>
      </trkpt>
      <trkpt lat="42.35541" lon="0.09008">
        <ele>853.6</ele>
        <time>2015-09-22T11:07:08Z</time>
      </trkpt>
      <trkpt lat="42.35539" lon="0.09013">
        <ele>853.8</ele>
        <time>2015-09-22T11:07:09Z</time>
      </trkpt>
      <trkpt lat="42.35537" lon="0.09017">
        <ele>854</ele>
        <time>2015-09-22T11:07:10Z</time>
      </trkpt>
      <trkpt lat="42.35535" lon="0.09021">
        <ele>854.2</ele>
        <time>2015-09-22T11:07:11Z</time>
      </trkpt>
      <trkpt lat="42.35534" lon="0.09025">
        <ele>854.3</ele>
        <time>2015-09-22T11:07:12Z</time>
      </trkpt>
      <trkpt lat="42.35532" lon="0.09029">
        <ele>854.4</ele>
        <time>2015-09-22T11:07:13Z</time>
      </trkpt>
      <trkpt lat="42.35531" lon="0.09033">
        <ele>854.5</ele>
        <time>2015-09-22T11:07:14Z</time>
      </trkpt>
      <trkpt lat="42.3553" lon="0.09038">
        <ele>854.6</ele>
        <time>2015-09-22T11:07:16Z</time>
      </trkpt>
      <trkpt lat="42.35529" lon="0.09042">
        <ele>854.8</ele>
        <time>2015-09-22T11:07:18Z</time>
      </trkpt>
      <trkpt lat="42.35528" lon="0.09046">
        <ele>854.9</ele>
        <time>2015-09-22T11:07:20Z</time>
      </trkpt>
      <trkpt lat="42.35527" lon="0.0905">
        <ele>855</ele>
        <time>2015-09-22T11:08:27Z</time>
      </trkpt>
      <trkpt lat="42.35527" lon="0.09055">
        <ele>855</ele>
        <time>2015-09-22T11:08:28Z</time>
      </trkpt>
      <trkpt lat="42.35528" lon="0.0906">
        <ele>855.1</ele>
        <time>2015-09-22T11:08:29Z</time>
      </trkpt>
      <trkpt lat="42.35529" lon="0.09065">
        <ele>855.1</ele>
        <time>2015-09-22T11:08:30Z</time>
      </trkpt>
      <trkpt lat="42.35532" lon="0.09071">
        <ele>855</ele>
        <time>2015-09-22T11:08:31Z</time>
      </trkpt>
      <trkpt lat="42.35535" lon="0.09076">
        <ele>854.8</ele>
        <time>2015-09-22T11:08:32Z</time>
      </trkpt>
      <trkpt lat="42.35541" lon="0.09078">
        <ele>854.5</ele>
        <time>2015-09-22T11:08:33Z</time>
      </trkpt>
      <trkpt lat="42.35545" lon="0.09078">
        <ele>854.4</ele>
        <time>2015-09-22T11:08:34Z</time>
      </trkpt>
      <trkpt lat="42.35549" lon="0.09078">
        <ele>854.3</ele>
        <time>2015-09-22T11:08:35Z</time>
      </trkpt>
      <trkpt lat="42.35553" lon="0.09079">
        <ele>854.2</ele>
        <time>2015-09-22T11:08:36Z</time>
      </trkpt>
      <trkpt lat="42.35557" lon="0.09079">
        <ele>854.2</ele>
        <time>2015-09-22T11:08:37Z</time>
      </trkpt>
      <trkpt lat="42.3556" lon="0.09079">
        <ele>854.1</ele>
        <time>2015-09-22T11:08:38Z</time>
      </trkpt>
      <trkpt lat="42.35563" lon="0.09079">
        <ele>854.1</ele>
        <time>2015-09-22T11:08:39Z</time>
      </trkpt>
      <trkpt lat="42.35566" lon="0.09079">
        <ele>854</ele>
        <time>2015-09-22T11:08:40Z</time>
      </trkpt>
      <trkpt lat="42.3557" lon="0.09079">
        <ele>854</ele>
        <time>2015-09-22T11:08:41Z</time>
      </trkpt>
      <trkpt lat="42.35573" lon="0.09079">
        <ele>853.9</ele>
        <time>2015-09-22T11:08:42Z</time>
      </trkpt>
      <trkpt lat="42.35576" lon="0.09079">
        <ele>853.8</ele>
        <time>2015-09-22T11:08:43Z</time>
      </trkpt>
      <trkpt lat="42.35579" lon="0.09078">
        <ele>853.8</ele>
        <time>2015-09-22T11:08:44Z</time>
      </trkpt>
      <trkpt lat="42.35583" lon="0.09078">
        <ele>853.7</ele>
        <time>2015-09-22T11:08:45Z</time>
      </trkpt>
      <trkpt lat="42.35586" lon="0.09077">
        <ele>853.7</ele>
        <time>2015-09-22T11:08:46Z</time>
      </trkpt>
      <trkpt lat="42.35589" lon="0.09076">
        <ele>853.6</ele>
        <time>2015-09-22T11:08:47Z</time>
      </trkpt>
      <trkpt lat="42.35591" lon="0.09076">
        <ele>853.6</ele>
        <time>2015-09-22T11:08:48Z</time>
      </trkpt>
      <trkpt lat="42.35595" lon="0.09076">
        <ele>853.5</ele>
        <time>2015-09-22T11:08:49Z</time>
      </trkpt>
      <trkpt lat="42.35598" lon="0.09077">
        <ele>853.5</ele>
        <time>2015-09-22T11:08:50Z</time>
      </trkpt>
      <trkpt lat="42.35601" lon="0.09076">
        <ele>853.4</ele>
        <time>2015-09-22T11:08:51Z</time>
      </trkpt>
      <trkpt lat="42.35606" lon="0.09078">
        <ele>853.3</ele>
        <time>2015-09-22T11:08:52Z</time>
      </trkpt>
      <trkpt lat="42.3561" lon="0.09079">
        <ele>853.3</ele>
        <time>2015-09-22T11:08:53Z</time>
      </trkpt>
      <trkpt lat="42.35614" lon="0.09079">
        <ele>853.2</ele>
        <time>2015-09-22T11:08:54Z</time>
      </trkpt>
      <trkpt lat="42.35618" lon="0.0908">
        <ele>853.1</ele>
        <time>2015-09-22T11:08:55Z</time>
      </trkpt>
      <trkpt lat="42.35622" lon="0.09081">
        <ele>853.1</ele>
        <time>2015-09-22T11:08:56Z</time>
      </trkpt>
      <trkpt lat="42.35626" lon="0.09083">
        <ele>853</ele>
        <time>2015-09-22T11:08:57Z</time>
      </trkpt>
      <trkpt lat="42.35629" lon="0.09084">
        <ele>852.9</ele>
        <time>2015-09-22T11:08:58Z</time>
      </trkpt>
      <trkpt lat="42.35632" lon="0.09085">
        <ele>852.7</ele>
        <time>2015-09-22T11:08:59Z</time>
      </trkpt>
      <trkpt lat="42.35636" lon="0.09086">
        <ele>852.6</ele>
        <time>2015-09-22T11:09:00Z</time>
      </trkpt>
      <trkpt lat="42.35639" lon="0.09087">
        <ele>852.5</ele>
        <time>2015-09-22T11:09:01Z</time>
      </trkpt>
      <trkpt lat="42.35642" lon="0.09088">
        <ele>852.4</ele>
        <time>2015-09-22T11:09:02Z</time>
      </trkpt>
      <trkpt lat="42.35646" lon="0.0909">
        <ele>852.3</ele>
        <time>2015-09-22T11:09:03Z</time>
      </trkpt>
      <trkpt lat="42.35649" lon="0.09091">
        <ele>852.2</ele>
        <time>2015-09-22T11:09:04Z</time>
      </trkpt>
      <trkpt lat="42.35652" lon="0.09093">
        <ele>852.1</ele>
        <time>2015-09-22T11:09:05Z</time>
      </trkpt>
      <trkpt lat="42.35656" lon="0.09095">
        <ele>852</ele>
        <time>2015-09-22T11:09:06Z</time>
      </trkpt>
      <trkpt lat="42.35659" lon="0.09098">
        <ele>851.9</ele>
        <time>2015-09-22T11:09:07Z</time>
      </trkpt>
      <trkpt lat="42.35663" lon="0.09103">
        <ele>851.8</ele>
        <time>2015-09-22T11:09:08Z</time>
      </trkpt>
      <trkpt lat="42.35665" lon="0.09112">
        <ele>851.9</ele>
        <time>2015-09-22T11:09:09Z</time>
      </trkpt>
      <trkpt lat="42.35665" lon="0.09118">
        <ele>851.9</ele>
        <time>2015-09-22T11:09:10Z</time>
      </trkpt>
      <trkpt lat="42.35664" lon="0.09125">
        <ele>852.1</ele>
        <time>2015-09-22T11:09:11Z</time>
      </trkpt>
      <trkpt lat="42.35664" lon="0.09131">
        <ele>852.4</ele>
        <time>2015-09-22T11:09:12Z</time>
      </trkpt>
      <trkpt lat="42.35661" lon="0.09134">
        <ele>852.6</ele>
        <time>2015-09-22T11:09:13Z</time>
      </trkpt>
      <trkpt lat="42.35659" lon="0.09137">
        <ele>852.8</ele>
        <time>2015-09-22T11:09:14Z</time>
      </trkpt>
      <trkpt lat="42.35656" lon="0.0914">
        <ele>853</ele>
        <time>2015-09-22T11:09:15Z</time>
      </trkpt>
      <trkpt lat="42.35653" lon="0.09143">
        <ele>853.3</ele>
        <time>2015-09-22T11:09:16Z</time>
      </trkpt>
      <trkpt lat="42.35651" lon="0.09145">
        <ele>853.5</ele>
        <time>2015-09-22T11:09:17Z</time>
      </trkpt>
      <trkpt lat="42.35648" lon="0.09148">
        <ele>853.7</ele>
        <time>2015-09-22T11:09:18Z</time>
      </trkpt>
      <trkpt lat="42.35645" lon="0.09151">
        <ele>853.9</ele>
        <time>2015-09-22T11:09:19Z</time>
      </trkpt>
      <trkpt lat="42.35642" lon="0.09153">
        <ele>854.1</ele>
        <time>2015-09-22T11:09:20Z</time>
      </trkpt>
      <trkpt lat="42.35639" lon="0.09155">
        <ele>854.3</ele>
        <time>2015-09-22T11:09:21Z</time>
      </trkpt>
      <trkpt lat="42.35637" lon="0.09157">
        <ele>854.5</ele>
        <time>2015-09-22T11:09:22Z</time>
      </trkpt>
      <trkpt lat="42.35634" lon="0.09159">
        <ele>854.8</ele>
        <time>2015-09-22T11:09:23Z</time>
      </trkpt>
      <trkpt lat="42.35631" lon="0.09161">
        <ele>855</ele>
        <time>2015-09-22T11:09:24Z</time>
      </trkpt>
      <trkpt lat="42.35628" lon="0.09163">
        <ele>855.2</ele>
        <time>2015-09-22T11:09:25Z</time>
      </trkpt>
      <trkpt lat="42.35625" lon="0.09165">
        <ele>855.4</ele>
        <time>2015-09-22T11:09:26Z</time>
      </trkpt>
      <trkpt lat="42.35623" lon="0.09167">
        <ele>855.5</ele>
        <time>2015-09-22T11:09:27Z</time>
      </trkpt>
      <trkpt lat="42.3562" lon="0.09168">
        <ele>855.7</ele>
        <time>2015-09-22T11:09:28Z</time>
      </trkpt>
      <trkpt lat="42.35617" lon="0.09171">
        <ele>855.9</ele>
        <time>2015-09-22T11:09:29Z</time>
      </trkpt>
      <trkpt lat="42.35615" lon="0.09173">
        <ele>856</ele>
        <time>2015-09-22T11:09:30Z</time>
      </trkpt>
      <trkpt lat="42.35613" lon="0.09175">
        <ele>856.2</ele>
        <time>2015-09-22T11:09:31Z</time>
      </trkpt>
      <trkpt lat="42.3561" lon="0.09177">
        <ele>856.4</ele>
        <time>2015-09-22T11:09:32Z</time>
      </trkpt>
      <trkpt lat="42.35608" lon="0.0918">
        <ele>856.6</ele>
        <time>2015-09-22T11:09:33Z</time>
      </trkpt>
      <trkpt lat="42.35605" lon="0.09182">
        <ele>856.7</ele>
        <time>2015-09-22T11:09:34Z</time>
      </trkpt>
      <trkpt lat="42.35603" lon="0.09184">
        <ele>856.9</ele>
        <time>2015-09-22T11:09:35Z</time>
      </trkpt>
      <trkpt lat="42.35601" lon="0.09187">
        <ele>857.1</ele>
        <time>2015-09-22T11:09:36Z</time>
      </trkpt>
      <trkpt lat="42.35599" lon="0.0919">
        <ele>857.3</ele>
        <time>2015-09-22T11:09:37Z</time>
      </trkpt>
      <trkpt lat="42.35597" lon="0.09193">
        <ele>857.4</ele>
        <time>2015-09-22T11:09:38Z</time>
      </trkpt>
      <trkpt lat="42.35595" lon="0.09195">
        <ele>857.6</ele>
        <time>2015-09-22T11:09:39Z</time>
      </trkpt>
      <trkpt lat="42.35593" lon="0.09198">
        <ele>857.8</ele>
        <time>2015-09-22T11:09:40Z</time>
      </trkpt>
      <trkpt lat="42.35591" lon="0.09201">
        <ele>858</ele>
        <time>2015-09-22T11:09:41Z</time>
      </trkpt>
      <trkpt lat="42.35588" lon="0.09203">
        <ele>858.1</ele>
        <time>2015-09-22T11:09:42Z</time>
      </trkpt>
      <trkpt lat="42.35586" lon="0.09205">
        <ele>858.3</ele>
        <time>2015-09-22T11:09:43Z</time>
      </trkpt>
      <trkpt lat="42.35584" lon="0.09207">
        <ele>858.4</ele>
        <time>2015-09-22T11:09:44Z</time>
      </trkpt>
      <trkpt lat="42.35581" lon="0.09209">
        <ele>858.6</ele>
        <time>2015-09-22T11:09:45Z</time>
      </trkpt>
      <trkpt lat="42.35579" lon="0.09211">
        <ele>858.6</ele>
        <time>2015-09-22T11:09:46Z</time>
      </trkpt>
      <trkpt lat="42.35576" lon="0.09213">
        <ele>858.7</ele>
        <time>2015-09-22T11:09:47Z</time>
      </trkpt>
      <trkpt lat="42.35574" lon="0.09215">
        <ele>858.8</ele>
        <time>2015-09-22T11:09:48Z</time>
      </trkpt>
      <trkpt lat="42.35572" lon="0.09218">
        <ele>858.9</ele>
        <time>2015-09-22T11:09:49Z</time>
      </trkpt>
      <trkpt lat="42.3557" lon="0.09221">
        <ele>859</ele>
        <time>2015-09-22T11:09:50Z</time>
      </trkpt>
      <trkpt lat="42.35569" lon="0.09225">
        <ele>859.1</ele>
        <time>2015-09-22T11:09:51Z</time>
      </trkpt>
      <trkpt lat="42.35567" lon="0.09229">
        <ele>859.3</ele>
        <time>2015-09-22T11:09:52Z</time>
      </trkpt>
      <trkpt lat="42.35566" lon="0.09233">
        <ele>859.4</ele>
        <time>2015-09-22T11:09:53Z</time>
      </trkpt>
      <trkpt lat="42.35565" lon="0.09238">
        <ele>859.5</ele>
        <time>2015-09-22T11:09:54Z</time>
      </trkpt>
      <trkpt lat="42.35564" lon="0.09243">
        <ele>859.7</ele>
        <time>2015-09-22T11:09:55Z</time>
      </trkpt>
      <trkpt lat="42.35563" lon="0.09248">
        <ele>859.8</ele>
        <time>2015-09-22T11:09:56Z</time>
      </trkpt>
      <trkpt lat="42.35562" lon="0.09253">
        <ele>860</ele>
        <time>2015-09-22T11:09:57Z</time>
      </trkpt>
      <trkpt lat="42.35561" lon="0.09259">
        <ele>860.1</ele>
        <time>2015-09-22T11:09:58Z</time>
      </trkpt>
      <trkpt lat="42.3556" lon="0.09264">
        <ele>860.3</ele>
        <time>2015-09-22T11:09:59Z</time>
      </trkpt>
      <trkpt lat="42.35559" lon="0.09269">
        <ele>860.4</ele>
        <time>2015-09-22T11:10:00Z</time>
      </trkpt>
      <trkpt lat="42.35558" lon="0.09275">
        <ele>860.6</ele>
        <time>2015-09-22T11:10:01Z</time>
      </trkpt>
      <trkpt lat="42.35557" lon="0.0928">
        <ele>860.7</ele>
        <time>2015-09-22T11:10:02Z</time>
      </trkpt>
      <trkpt lat="42.35556" lon="0.09286">
        <ele>860.9</ele>
        <time>2015-09-22T11:10:03Z</time>
      </trkpt>
      <trkpt lat="42.35555" lon="0.09292">
        <ele>861</ele>
        <time>2015-09-22T11:10:04Z</time>
      </trkpt>
      <trkpt lat="42.35554" lon="0.09298">
        <ele>861.1</ele>
        <time>2015-09-22T11:10:05Z</time>
      </trkpt>
      <trkpt lat="42.35554" lon="0.09303">
        <ele>861.2</ele>
        <time>2015-09-22T11:10:06Z</time>
      </trkpt>
      <trkpt lat="42.35554" lon="0.09309">
        <ele>861.3</ele>
        <time>2015-09-22T11:10:07Z</time>
      </trkpt>
      <trkpt lat="42.35553" lon="0.09314">
        <ele>861.4</ele>
        <time>2015-09-22T11:10:08Z</time>
      </trkpt>
      <trkpt lat="42.35553" lon="0.0932">
        <ele>861.5</ele>
        <time>2015-09-22T11:10:09Z</time>
      </trkpt>
      <trkpt lat="42.35552" lon="0.09325">
        <ele>861.6</ele>
        <time>2015-09-22T11:10:10Z</time>
      </trkpt>
      <trkpt lat="42.35552" lon="0.0933">
        <ele>861.8</ele>
        <time>2015-09-22T11:10:11Z</time>
      </trkpt>
      <trkpt lat="42.35551" lon="0.09335">
        <ele>861.9</ele>
        <time>2015-09-22T11:10:12Z</time>
      </trkpt>
      <trkpt lat="42.35551" lon="0.0934">
        <ele>862</ele>
        <time>2015-09-22T11:10:13Z</time>
      </trkpt>
      <trkpt lat="42.3555" lon="0.09346">
        <ele>862.1</ele>
        <time>2015-09-22T11:10:14Z</time>
      </trkpt>
      <trkpt lat="42.35549" lon="0.09351">
        <ele>862.2</ele>
        <time>2015-09-22T11:10:15Z</time>
      </trkpt>
      <trkpt lat="42.35549" lon="0.09355">
        <ele>862.3</ele>
        <time>2015-09-22T11:10:16Z</time>
      </trkpt>
      <trkpt lat="42.35548" lon="0.09361">
        <ele>862.5</ele>
        <time>2015-09-22T11:10:17Z</time>
      </trkpt>
      <trkpt lat="42.35548" lon="0.09366">
        <ele>862.6</ele>
        <time>2015-09-22T11:10:18Z</time>
      </trkpt>
      <trkpt lat="42.35547" lon="0.09371">
        <ele>862.7</ele>
        <time>2015-09-22T11:10:19Z</time>
      </trkpt>
      <trkpt lat="42.35547" lon="0.09376">
        <ele>862.8</ele>
        <time>2015-09-22T11:10:20Z</time>
      </trkpt>
      <trkpt lat="42.35546" lon="0.09381">
        <ele>863</ele>
        <time>2015-09-22T11:10:21Z</time>
      </trkpt>
      <trkpt lat="42.35546" lon="0.09386">
        <ele>863.2</ele>
        <time>2015-09-22T11:10:22Z</time>
      </trkpt>
      <trkpt lat="42.35546" lon="0.09391">
        <ele>863.4</ele>
        <time>2015-09-22T11:10:23Z</time>
      </trkpt>
      <trkpt lat="42.35545" lon="0.09396">
        <ele>863.6</ele>
        <time>2015-09-22T11:10:24Z</time>
      </trkpt>
      <trkpt lat="42.35545" lon="0.09401">
        <ele>863.8</ele>
        <time>2015-09-22T11:10:25Z</time>
      </trkpt>
      <trkpt lat="42.35545" lon="0.09406">
        <ele>864</ele>
        <time>2015-09-22T11:10:26Z</time>
      </trkpt>
      <trkpt lat="42.35544" lon="0.0941">
        <ele>864.2</ele>
        <time>2015-09-22T11:10:27Z</time>
      </trkpt>
      <trkpt lat="42.35544" lon="0.09415">
        <ele>864.3</ele>
        <time>2015-09-22T11:10:28Z</time>
      </trkpt>
      <trkpt lat="42.35544" lon="0.09419">
        <ele>864.5</ele>
        <time>2015-09-22T11:10:29Z</time>
      </trkpt>
      <trkpt lat="42.35544" lon="0.09423">
        <ele>864.6</ele>
        <time>2015-09-22T11:10:30Z</time>
      </trkpt>
      <trkpt lat="42.35543" lon="0.09427">
        <ele>864.8</ele>
        <time>2015-09-22T11:10:31Z</time>
      </trkpt>
      <trkpt lat="42.35543" lon="0.09431">
        <ele>865</ele>
        <time>2015-09-22T11:10:32Z</time>
      </trkpt>
      <trkpt lat="42.35542" lon="0.09435">
        <ele>865.1</ele>
        <time>2015-09-22T11:10:33Z</time>
      </trkpt>
      <trkpt lat="42.35542" lon="0.09439">
        <ele>865.3</ele>
        <time>2015-09-22T11:10:34Z</time>
      </trkpt>
      <trkpt lat="42.35541" lon="0.09443">
        <ele>865.5</ele>
        <time>2015-09-22T11:10:35Z</time>
      </trkpt>
      <trkpt lat="42.3554" lon="0.09447">
        <ele>865.7</ele>
        <time>2015-09-22T11:10:36Z</time>
      </trkpt>
      <trkpt lat="42.3554" lon="0.09451">
        <ele>865.9</ele>
        <time>2015-09-22T11:10:37Z</time>
      </trkpt>
      <trkpt lat="42.35539" lon="0.09455">
        <ele>866.1</ele>
        <time>2015-09-22T11:10:38Z</time>
      </trkpt>
      <trkpt lat="42.35538" lon="0.09459">
        <ele>866.3</ele>
        <time>2015-09-22T11:10:39Z</time>
      </trkpt>
      <trkpt lat="42.35537" lon="0.09463">
        <ele>866.6</ele>
        <time>2015-09-22T11:10:40Z</time>
      </trkpt>
      <trkpt lat="42.35537" lon="0.09467">
        <ele>866.9</ele>
        <time>2015-09-22T11:10:41Z</time>
      </trkpt>
      <trkpt lat="42.35536" lon="0.09472">
        <ele>867.2</ele>
        <time>2015-09-22T11:10:42Z</time>
      </trkpt>
      <trkpt lat="42.35534" lon="0.09476">
        <ele>867.6</ele>
        <time>2015-09-22T11:10:43Z</time>
      </trkpt>
      <trkpt lat="42.35533" lon="0.0948">
        <ele>867.9</ele>
        <time>2015-09-22T11:10:44Z</time>
      </trkpt>
      <trkpt lat="42.35532" lon="0.09484">
        <ele>868.2</ele>
        <time>2015-09-22T11:10:45Z</time>
      </trkpt>
      <trkpt lat="42.3553" lon="0.09488">
        <ele>868.5</ele>
        <time>2015-09-22T11:10:46Z</time>
      </trkpt>
      <trkpt lat="42.35528" lon="0.09491">
        <ele>868.9</ele>
        <time>2015-09-22T11:10:47Z</time>
      </trkpt>
      <trkpt lat="42.35526" lon="0.09495">
        <ele>869.2</ele>
        <time>2015-09-22T11:10:48Z</time>
      </trkpt>
      <trkpt lat="42.35523" lon="0.09498">
        <ele>869.6</ele>
        <time>2015-09-22T11:10:49Z</time>
      </trkpt>
      <trkpt lat="42.35521" lon="0.09501">
        <ele>869.9</ele>
        <time>2015-09-22T11:10:50Z</time>
      </trkpt>
      <trkpt lat="42.35518" lon="0.09503">
        <ele>870.2</ele>
        <time>2015-09-22T11:10:51Z</time>
      </trkpt>
      <trkpt lat="42.35516" lon="0.09506">
        <ele>870.6</ele>
        <time>2015-09-22T11:10:52Z</time>
      </trkpt>
      <trkpt lat="42.35513" lon="0.09508">
        <ele>870.9</ele>
        <time>2015-09-22T11:10:53Z</time>
      </trkpt>
      <trkpt lat="42.3551" lon="0.09511">
        <ele>871.2</ele>
        <time>2015-09-22T11:10:54Z</time>
      </trkpt>
      <trkpt lat="42.35508" lon="0.09514">
        <ele>871.5</ele>
        <time>2015-09-22T11:10:55Z</time>
      </trkpt>
      <trkpt lat="42.35506" lon="0.09516">
        <ele>871.8</ele>
        <time>2015-09-22T11:10:56Z</time>
      </trkpt>
      <trkpt lat="42.35503" lon="0.09519">
        <ele>872.1</ele>
        <time>2015-09-22T11:10:57Z</time>
      </trkpt>
      <trkpt lat="42.35501" lon="0.09521">
        <ele>872.3</ele>
        <time>2015-09-22T11:10:58Z</time>
      </trkpt>
      <trkpt lat="42.35499" lon="0.09524">
        <ele>872.6</ele>
        <time>2015-09-22T11:10:59Z</time>
      </trkpt>
      <trkpt lat="42.35497" lon="0.09527">
        <ele>872.9</ele>
        <time>2015-09-22T11:11:00Z</time>
      </trkpt>
      <trkpt lat="42.35494" lon="0.09529">
        <ele>873.2</ele>
        <time>2015-09-22T11:11:01Z</time>
      </trkpt>
      <trkpt lat="42.35492" lon="0.09532">
        <ele>873.5</ele>
        <time>2015-09-22T11:11:02Z</time>
      </trkpt>
      <trkpt lat="42.35489" lon="0.09535">
        <ele>873.8</ele>
        <time>2015-09-22T11:11:03Z</time>
      </trkpt>
      <trkpt lat="42.35487" lon="0.09538">
        <ele>874.1</ele>
        <time>2015-09-22T11:11:04Z</time>
      </trkpt>
      <trkpt lat="42.35484" lon="0.09542">
        <ele>874.5</ele>
        <time>2015-09-22T11:11:05Z</time>
      </trkpt>
      <trkpt lat="42.35481" lon="0.09544">
        <ele>874.7</ele>
        <time>2015-09-22T11:11:06Z</time>
      </trkpt>
      <trkpt lat="42.35477" lon="0.09546">
        <ele>874.9</ele>
        <time>2015-09-22T11:11:07Z</time>
      </trkpt>
      <trkpt lat="42.35474" lon="0.09549">
        <ele>875.1</ele>
        <time>2015-09-22T11:11:08Z</time>
      </trkpt>
      <trkpt lat="42.35471" lon="0.09549">
        <ele>875.3</ele>
        <time>2015-09-22T11:11:09Z</time>
      </trkpt>
      <trkpt lat="42.35467" lon="0.0955">
        <ele>875.5</ele>
        <time>2015-09-22T11:11:10Z</time>
      </trkpt>
      <trkpt lat="42.35464" lon="0.09551">
        <ele>875.7</ele>
        <time>2015-09-22T11:11:11Z</time>
      </trkpt>
      <trkpt lat="42.35461" lon="0.09553">
        <ele>875.8</ele>
        <time>2015-09-22T11:11:12Z</time>
      </trkpt>
      <trkpt lat="42.35459" lon="0.09555">
        <ele>876</ele>
        <time>2015-09-22T11:11:13Z</time>
      </trkpt>
      <trkpt lat="42.35455" lon="0.0956">
        <ele>876.1</ele>
        <time>2015-09-22T11:11:15Z</time>
      </trkpt>
      <trkpt lat="42.35456" lon="0.09565">
        <ele>876.1</ele>
        <time>2015-09-22T11:11:16Z</time>
      </trkpt>
      <trkpt lat="42.35455" lon="0.09572">
        <ele>876.2</ele>
        <time>2015-09-22T11:11:18Z</time>
      </trkpt>
      <trkpt lat="42.35457" lon="0.09577">
        <ele>876.1</ele>
        <time>2015-09-22T11:11:20Z</time>
      </trkpt>
      <trkpt lat="42.35458" lon="0.09582">
        <ele>876</ele>
        <time>2015-09-22T11:11:22Z</time>
      </trkpt>
      <trkpt lat="42.3546" lon="0.09589">
        <ele>875.9</ele>
        <time>2015-09-22T11:11:24Z</time>
      </trkpt>
      <trkpt lat="42.35462" lon="0.09593">
        <ele>875.9</ele>
        <time>2015-09-22T11:11:25Z</time>
      </trkpt>
      <trkpt lat="42.35464" lon="0.09597">
        <ele>875.8</ele>
        <time>2015-09-22T11:11:26Z</time>
      </trkpt>
      <trkpt lat="42.35465" lon="0.09601">
        <ele>875.8</ele>
        <time>2015-09-22T11:11:27Z</time>
      </trkpt>
      <trkpt lat="42.35466" lon="0.09605">
        <ele>875.7</ele>
        <time>2015-09-22T11:11:29Z</time>
      </trkpt>
      <trkpt lat="42.35468" lon="0.09609">
        <ele>875.7</ele>
        <time>2015-09-22T11:13:47Z</time>
      </trkpt>
      <trkpt lat="42.3547" lon="0.09614">
        <ele>875.7</ele>
        <time>2015-09-22T11:13:49Z</time>
      </trkpt>
      <trkpt lat="42.35473" lon="0.0962">
        <ele>875.6</ele>
        <time>2015-09-22T11:13:51Z</time>
      </trkpt>
      <trkpt lat="42.35476" lon="0.09626">
        <ele>875.6</ele>
        <time>2015-09-22T11:13:53Z</time>
      </trkpt>
      <trkpt lat="42.35477" lon="0.0963">
        <ele>875.6</ele>
        <time>2015-09-22T11:13:54Z</time>
      </trkpt>
      <trkpt lat="42.35479" lon="0.09635">
        <ele>875.6</ele>
        <time>2015-09-22T11:13:55Z</time>
      </trkpt>
      <trkpt lat="42.35481" lon="0.09639">
        <ele>875.6</ele>
        <time>2015-09-22T11:13:56Z</time>
      </trkpt>
      <trkpt lat="42.35483" lon="0.09643">
        <ele>875.6</ele>
        <time>2015-09-22T11:13:57Z</time>
      </trkpt>
      <trkpt lat="42.35485" lon="0.09647">
        <ele>875.6</ele>
        <time>2015-09-22T11:13:58Z</time>
      </trkpt>
      <trkpt lat="42.35487" lon="0.09651">
        <ele>875.6</ele>
        <time>2015-09-22T11:13:59Z</time>
      </trkpt>
      <trkpt lat="42.35489" lon="0.09655">
        <ele>875.6</ele>
        <time>2015-09-22T11:14:00Z</time>
      </trkpt>
      <trkpt lat="42.35491" lon="0.0966">
        <ele>875.6</ele>
        <time>2015-09-22T11:14:01Z</time>
      </trkpt>
      <trkpt lat="42.35492" lon="0.09664">
        <ele>875.6</ele>
        <time>2015-09-22T11:14:02Z</time>
      </trkpt>
      <trkpt lat="42.35494" lon="0.09669">
        <ele>875.5</ele>
        <time>2015-09-22T11:14:03Z</time>
      </trkpt>
      <trkpt lat="42.35496" lon="0.09673">
        <ele>875.5</ele>
        <time>2015-09-22T11:14:04Z</time>
      </trkpt>
      <trkpt lat="42.35498" lon="0.09678">
        <ele>875.4</ele>
        <time>2015-09-22T11:14:05Z</time>
      </trkpt>
      <trkpt lat="42.355" lon="0.09682">
        <ele>875.3</ele>
        <time>2015-09-22T11:14:06Z</time>
      </trkpt>
      <trkpt lat="42.35503" lon="0.09686">
        <ele>875.2</ele>
        <time>2015-09-22T11:14:07Z</time>
      </trkpt>
      <trkpt lat="42.35505" lon="0.09691">
        <ele>875.1</ele>
        <time>2015-09-22T11:14:08Z</time>
      </trkpt>
      <trkpt lat="42.35507" lon="0.09695">
        <ele>875.1</ele>
        <time>2015-09-22T11:14:09Z</time>
      </trkpt>
      <trkpt lat="42.35509" lon="0.09699">
        <ele>874.9</ele>
        <time>2015-09-22T11:14:10Z</time>
      </trkpt>
      <trkpt lat="42.35511" lon="0.09704">
        <ele>874.8</ele>
        <time>2015-09-22T11:14:11Z</time>
      </trkpt>
      <trkpt lat="42.35514" lon="0.09709">
        <ele>874.7</ele>
        <time>2015-09-22T11:14:12Z</time>
      </trkpt>
      <trkpt lat="42.35516" lon="0.09713">
        <ele>874.7</ele>
        <time>2015-09-22T11:14:13Z</time>
      </trkpt>
      <trkpt lat="42.35518" lon="0.09718">
        <ele>874.7</ele>
        <time>2015-09-22T11:14:14Z</time>
      </trkpt>
      <trkpt lat="42.3552" lon="0.09723">
        <ele>874.7</ele>
        <time>2015-09-22T11:14:15Z</time>
      </trkpt>
      <trkpt lat="42.35521" lon="0.09727">
        <ele>874.7</ele>
        <time>2015-09-22T11:14:16Z</time>
      </trkpt>
      <trkpt lat="42.35523" lon="0.09732">
        <ele>874.7</ele>
        <time>2015-09-22T11:14:17Z</time>
      </trkpt>
      <trkpt lat="42.35525" lon="0.09736">
        <ele>874.7</ele>
        <time>2015-09-22T11:14:18Z</time>
      </trkpt>
      <trkpt lat="42.35527" lon="0.09741">
        <ele>874.7</ele>
        <time>2015-09-22T11:14:19Z</time>
      </trkpt>
      <trkpt lat="42.35529" lon="0.09745">
        <ele>874.7</ele>
        <time>2015-09-22T11:14:20Z</time>
      </trkpt>
      <trkpt lat="42.3553" lon="0.0975">
        <ele>874.8</ele>
        <time>2015-09-22T11:14:21Z</time>
      </trkpt>
      <trkpt lat="42.35532" lon="0.09755">
        <ele>874.8</ele>
        <time>2015-09-22T11:14:22Z</time>
      </trkpt>
      <trkpt lat="42.35534" lon="0.09759">
        <ele>874.8</ele>
        <time>2015-09-22T11:14:23Z</time>
      </trkpt>
      <trkpt lat="42.35535" lon="0.09764">
        <ele>874.8</ele>
        <time>2015-09-22T11:14:24Z</time>
      </trkpt>
      <trkpt lat="42.35536" lon="0.0977">
        <ele>874.9</ele>
        <time>2015-09-22T11:14:25Z</time>
      </trkpt>
      <trkpt lat="42.35536" lon="0.09775">
        <ele>875</ele>
        <time>2015-09-22T11:14:26Z</time>
      </trkpt>
      <trkpt lat="42.35535" lon="0.0978">
        <ele>875.2</ele>
        <time>2015-09-22T11:14:27Z</time>
      </trkpt>
      <trkpt lat="42.35534" lon="0.09786">
        <ele>875.4</ele>
        <time>2015-09-22T11:14:28Z</time>
      </trkpt>
      <trkpt lat="42.35533" lon="0.09792">
        <ele>875.6</ele>
        <time>2015-09-22T11:14:29Z</time>
      </trkpt>
      <trkpt lat="42.35533" lon="0.09798">
        <ele>875.8</ele>
        <time>2015-09-22T11:14:30Z</time>
      </trkpt>
      <trkpt lat="42.35532" lon="0.09804">
        <ele>876</ele>
        <time>2015-09-22T11:14:31Z</time>
      </trkpt>
      <trkpt lat="42.35533" lon="0.09812">
        <ele>876.1</ele>
        <time>2015-09-22T11:14:32Z</time>
      </trkpt>
      <trkpt lat="42.35536" lon="0.09817">
        <ele>876</ele>
        <time>2015-09-22T11:14:33Z</time>
      </trkpt>
      <trkpt lat="42.35539" lon="0.09821">
        <ele>875.9</ele>
        <time>2015-09-22T11:14:34Z</time>
      </trkpt>
      <trkpt lat="42.35542" lon="0.09827">
        <ele>875.8</ele>
        <time>2015-09-22T11:14:35Z</time>
      </trkpt>
      <trkpt lat="42.35545" lon="0.09831">
        <ele>875.9</ele>
        <time>2015-09-22T11:14:36Z</time>
      </trkpt>
      <trkpt lat="42.35547" lon="0.09835">
        <ele>875.9</ele>
        <time>2015-09-22T11:14:37Z</time>
      </trkpt>
      <trkpt lat="42.3555" lon="0.0984">
        <ele>875.9</ele>
        <time>2015-09-22T11:14:38Z</time>
      </trkpt>
      <trkpt lat="42.3555" lon="0.09846">
        <ele>876</ele>
        <time>2015-09-22T11:14:39Z</time>
      </trkpt>
      <trkpt lat="42.3555" lon="0.09851">
        <ele>876.2</ele>
        <time>2015-09-22T11:14:40Z</time>
      </trkpt>
      <trkpt lat="42.35551" lon="0.09857">
        <ele>876.3</ele>
        <time>2015-09-22T11:14:41Z</time>
      </trkpt>
      <trkpt lat="42.35551" lon="0.09861">
        <ele>876.3</ele>
        <time>2015-09-22T11:14:42Z</time>
      </trkpt>
      <trkpt lat="42.35551" lon="0.09867">
        <ele>876.5</ele>
        <time>2015-09-22T11:14:43Z</time>
      </trkpt>
      <trkpt lat="42.3555" lon="0.09871">
        <ele>876.6</ele>
        <time>2015-09-22T11:14:44Z</time>
      </trkpt>
      <trkpt lat="42.35549" lon="0.09876">
        <ele>876.8</ele>
        <time>2015-09-22T11:14:45Z</time>
      </trkpt>
      <trkpt lat="42.35547" lon="0.0988">
        <ele>877</ele>
        <time>2015-09-22T11:14:46Z</time>
      </trkpt>
      <trkpt lat="42.35544" lon="0.09883">
        <ele>877.2</ele>
        <time>2015-09-22T11:14:47Z</time>
      </trkpt>
      <trkpt lat="42.35542" lon="0.09887">
        <ele>877.4</ele>
        <time>2015-09-22T11:14:48Z</time>
      </trkpt>
      <trkpt lat="42.3554" lon="0.09891">
        <ele>877.7</ele>
        <time>2015-09-22T11:14:49Z</time>
      </trkpt>
      <trkpt lat="42.35538" lon="0.09895">
        <ele>877.9</ele>
        <time>2015-09-22T11:14:50Z</time>
      </trkpt>
      <trkpt lat="42.35536" lon="0.09901">
        <ele>878.2</ele>
        <time>2015-09-22T11:14:51Z</time>
      </trkpt>
      <trkpt lat="42.35534" lon="0.09906">
        <ele>878.5</ele>
        <time>2015-09-22T11:14:52Z</time>
      </trkpt>
      <trkpt lat="42.35533" lon="0.09912">
        <ele>878.7</ele>
        <time>2015-09-22T11:14:53Z</time>
      </trkpt>
      <trkpt lat="42.35531" lon="0.09917">
        <ele>879</ele>
        <time>2015-09-22T11:14:54Z</time>
      </trkpt>
      <trkpt lat="42.35529" lon="0.09922">
        <ele>879.2</ele>
        <time>2015-09-22T11:14:55Z</time>
      </trkpt>
      <trkpt lat="42.35528" lon="0.09928">
        <ele>879.4</ele>
        <time>2015-09-22T11:14:56Z</time>
      </trkpt>
      <trkpt lat="42.35526" lon="0.09933">
        <ele>879.6</ele>
        <time>2015-09-22T11:14:57Z</time>
      </trkpt>
      <trkpt lat="42.35525" lon="0.09938">
        <ele>879.8</ele>
        <time>2015-09-22T11:14:58Z</time>
      </trkpt>
      <trkpt lat="42.35523" lon="0.09943">
        <ele>880</ele>
        <time>2015-09-22T11:14:59Z</time>
      </trkpt>
      <trkpt lat="42.35522" lon="0.09948">
        <ele>880.2</ele>
        <time>2015-09-22T11:15:00Z</time>
      </trkpt>
      <trkpt lat="42.3552" lon="0.09953">
        <ele>880.4</ele>
        <time>2015-09-22T11:15:01Z</time>
      </trkpt>
      <trkpt lat="42.35519" lon="0.09958">
        <ele>880.5</ele>
        <time>2015-09-22T11:15:02Z</time>
      </trkpt>
      <trkpt lat="42.35518" lon="0.09963">
        <ele>880.6</ele>
        <time>2015-09-22T11:15:03Z</time>
      </trkpt>
      <trkpt lat="42.35517" lon="0.09968">
        <ele>880.7</ele>
        <time>2015-09-22T11:15:04Z</time>
      </trkpt>
      <trkpt lat="42.35517" lon="0.09973">
        <ele>880.7</ele>
        <time>2015-09-22T11:15:05Z</time>
      </trkpt>
      <trkpt lat="42.35517" lon="0.09979">
        <ele>880.8</ele>
        <time>2015-09-22T11:15:06Z</time>
      </trkpt>
      <trkpt lat="42.35517" lon="0.09984">
        <ele>880.8</ele>
        <time>2015-09-22T11:15:07Z</time>
      </trkpt>
      <trkpt lat="42.35516" lon="0.09989">
        <ele>880.9</ele>
        <time>2015-09-22T11:15:08Z</time>
      </trkpt>
      <trkpt lat="42.35516" lon="0.09994">
        <ele>880.9</ele>
        <time>2015-09-22T11:15:09Z</time>
      </trkpt>
      <trkpt lat="42.35515" lon="0.09999">
        <ele>881</ele>
        <time>2015-09-22T11:15:10Z</time>
      </trkpt>
      <trkpt lat="42.35515" lon="0.10004">
        <ele>881</ele>
        <time>2015-09-22T11:15:11Z</time>
      </trkpt>
      <trkpt lat="42.35514" lon="0.10009">
        <ele>881.1</ele>
        <time>2015-09-22T11:15:12Z</time>
      </trkpt>
      <trkpt lat="42.35513" lon="0.10014">
        <ele>881.1</ele>
        <time>2015-09-22T11:15:13Z</time>
      </trkpt>
      <trkpt lat="42.35513" lon="0.10019">
        <ele>881.2</ele>
        <time>2015-09-22T11:15:14Z</time>
      </trkpt>
      <trkpt lat="42.35512" lon="0.10023">
        <ele>881.2</ele>
        <time>2015-09-22T11:15:15Z</time>
      </trkpt>
      <trkpt lat="42.35512" lon="0.10028">
        <ele>881.3</ele>
        <time>2015-09-22T11:15:16Z</time>
      </trkpt>
      <trkpt lat="42.35511" lon="0.10033">
        <ele>881.3</ele>
        <time>2015-09-22T11:15:17Z</time>
      </trkpt>
      <trkpt lat="42.35511" lon="0.10037">
        <ele>881.3</ele>
        <time>2015-09-22T11:15:18Z</time>
      </trkpt>
      <trkpt lat="42.35511" lon="0.10041">
        <ele>881.4</ele>
        <time>2015-09-22T11:15:19Z</time>
      </trkpt>
      <trkpt lat="42.3551" lon="0.10045">
        <ele>881</ele>
        <time>2015-09-22T11:15:20Z</time>
      </trkpt>
      <trkpt lat="42.35506" lon="0.10048">
        <ele>880.7</ele>
        <time>2015-09-22T11:15:22Z</time>
      </trkpt>
      <trkpt lat="42.35502" lon="0.10051">
        <ele>880.5</ele>
        <time>2015-09-22T11:15:24Z</time>
      </trkpt>
      <trkpt lat="42.35499" lon="0.1005">
        <ele>880.5</ele>
        <time>2015-09-22T11:15:25Z</time>
      </trkpt>
      <trkpt lat="42.35494" lon="0.10052">
        <ele>880.3</ele>
        <time>2015-09-22T11:15:27Z</time>
      </trkpt>
      <trkpt lat="42.35492" lon="0.10053">
        <ele>880.2</ele>
        <time>2015-09-22T11:15:28Z</time>
      </trkpt>
      <trkpt lat="42.35488" lon="0.10054">
        <ele>880.1</ele>
        <time>2015-09-22T11:15:29Z</time>
      </trkpt>
      <trkpt lat="42.35484" lon="0.10054">
        <ele>880.1</ele>
        <time>2015-09-22T11:15:30Z</time>
      </trkpt>
      <trkpt lat="42.35481" lon="0.10054">
        <ele>880.1</ele>
        <time>2015-09-22T11:15:31Z</time>
      </trkpt>
      <trkpt lat="42.35478" lon="0.10053">
        <ele>880.2</ele>
        <time>2015-09-22T11:15:32Z</time>
      </trkpt>
      <trkpt lat="42.35475" lon="0.10053">
        <ele>880.2</ele>
        <time>2015-09-22T11:15:33Z</time>
      </trkpt>
      <trkpt lat="42.35472" lon="0.10053">
        <ele>880.3</ele>
        <time>2015-09-22T11:15:34Z</time>
      </trkpt>
      <trkpt lat="42.35469" lon="0.10053">
        <ele>880.3</ele>
        <time>2015-09-22T11:15:35Z</time>
      </trkpt>
      <trkpt lat="42.35466" lon="0.10053">
        <ele>880.3</ele>
        <time>2015-09-22T11:15:36Z</time>
      </trkpt>
      <trkpt lat="42.35461" lon="0.10052">
        <ele>880.4</ele>
        <time>2015-09-22T11:15:38Z</time>
      </trkpt>
      <trkpt lat="42.35457" lon="0.10052">
        <ele>880.3</ele>
        <time>2015-09-22T11:15:40Z</time>
      </trkpt>
      <trkpt lat="42.35453" lon="0.10051">
        <ele>880.4</ele>
        <time>2015-09-22T11:15:42Z</time>
      </trkpt>
      <trkpt lat="42.35448" lon="0.10051">
        <ele>880.2</ele>
        <time>2015-09-22T11:15:44Z</time>
      </trkpt>
      <trkpt lat="42.35444" lon="0.10053">
        <ele>879.8</ele>
        <time>2015-09-22T11:15:45Z</time>
      </trkpt>
      <trkpt lat="42.3544" lon="0.10053">
        <ele>879.7</ele>
        <time>2015-09-22T11:15:46Z</time>
      </trkpt>
      <trkpt lat="42.35436" lon="0.10053">
        <ele>879.6</ele>
        <time>2015-09-22T11:15:47Z</time>
      </trkpt>
      <trkpt lat="42.35432" lon="0.10052">
        <ele>879.6</ele>
        <time>2015-09-22T11:15:48Z</time>
      </trkpt>
      <trkpt lat="42.35427" lon="0.10052">
        <ele>879.5</ele>
        <time>2015-09-22T11:15:49Z</time>
      </trkpt>
      <trkpt lat="42.35421" lon="0.10052">
        <ele>879.3</ele>
        <time>2015-09-22T11:15:50Z</time>
      </trkpt>
      <trkpt lat="42.35415" lon="0.10051">
        <ele>879.2</ele>
        <time>2015-09-22T11:15:51Z</time>
      </trkpt>
      <trkpt lat="42.3541" lon="0.10051">
        <ele>879.1</ele>
        <time>2015-09-22T11:15:52Z</time>
      </trkpt>
      <trkpt lat="42.35406" lon="0.1005">
        <ele>879.1</ele>
        <time>2015-09-22T11:15:53Z</time>
      </trkpt>
      <trkpt lat="42.35402" lon="0.10049">
        <ele>879</ele>
        <time>2015-09-22T11:15:54Z</time>
      </trkpt>
      <trkpt lat="42.35398" lon="0.10049">
        <ele>878.9</ele>
        <time>2015-09-22T11:15:55Z</time>
      </trkpt>
      <trkpt lat="42.35395" lon="0.10051">
        <ele>878.6</ele>
        <time>2015-09-22T11:15:56Z</time>
      </trkpt>
      <trkpt lat="42.35392" lon="0.10053">
        <ele>878.3</ele>
        <time>2015-09-22T11:15:57Z</time>
      </trkpt>
      <trkpt lat="42.35387" lon="0.10054">
        <ele>878.1</ele>
        <time>2015-09-22T11:15:58Z</time>
      </trkpt>
      <trkpt lat="42.35384" lon="0.10054">
        <ele>878</ele>
        <time>2015-09-22T11:15:59Z</time>
      </trkpt>
      <trkpt lat="42.3538" lon="0.10055">
        <ele>877.8</ele>
        <time>2015-09-22T11:16:00Z</time>
      </trkpt>
      <trkpt lat="42.35377" lon="0.10056">
        <ele>877.5</ele>
        <time>2015-09-22T11:16:01Z</time>
      </trkpt>
      <trkpt lat="42.35374" lon="0.10058">
        <ele>877</ele>
        <time>2015-09-22T11:16:02Z</time>
      </trkpt>
      <trkpt lat="42.35369" lon="0.10062">
        <ele>875.9</ele>
        <time>2015-09-22T11:16:03Z</time>
      </trkpt>
      <trkpt lat="42.35365" lon="0.10065">
        <ele>875</ele>
        <time>2015-09-22T11:16:04Z</time>
      </trkpt>
      <trkpt lat="42.35359" lon="0.1007">
        <ele>873.9</ele>
        <time>2015-09-22T11:16:05Z</time>
      </trkpt>
      <trkpt lat="42.35355" lon="0.10072">
        <ele>873.1</ele>
        <time>2015-09-22T11:16:06Z</time>
      </trkpt>
      <trkpt lat="42.35351" lon="0.10074">
        <ele>872.3</ele>
        <time>2015-09-22T11:16:07Z</time>
      </trkpt>
      <trkpt lat="42.35347" lon="0.10075">
        <ele>871.8</ele>
        <time>2015-09-22T11:16:08Z</time>
      </trkpt>
      <trkpt lat="42.35344" lon="0.10075">
        <ele>871.4</ele>
        <time>2015-09-22T11:16:09Z</time>
      </trkpt>
      <trkpt lat="42.3534" lon="0.10074">
        <ele>871</ele>
        <time>2015-09-22T11:16:10Z</time>
      </trkpt>
      <trkpt lat="42.35337" lon="0.10071">
        <ele>870.8</ele>
        <time>2015-09-22T11:16:11Z</time>
      </trkpt>
      <trkpt lat="42.35335" lon="0.10069">
        <ele>870.5</ele>
        <time>2015-09-22T11:16:12Z</time>
      </trkpt>
      <trkpt lat="42.35332" lon="0.10068">
        <ele>870.2</ele>
        <time>2015-09-22T11:16:13Z</time>
      </trkpt>
      <trkpt lat="42.35328" lon="0.10063">
        <ele>869.9</ele>
        <time>2015-09-22T11:16:15Z</time>
      </trkpt>
      <trkpt lat="42.35326" lon="0.10058">
        <ele>869.7</ele>
        <time>2015-09-22T11:16:17Z</time>
      </trkpt>
      <trkpt lat="42.35324" lon="0.10055">
        <ele>869.4</ele>
        <time>2015-09-22T11:16:19Z</time>
      </trkpt>
      <trkpt lat="42.3532" lon="0.10053">
        <ele>868.8</ele>
        <time>2015-09-22T11:16:21Z</time>
      </trkpt>
      <trkpt lat="42.35317" lon="0.10051">
        <ele>868.4</ele>
        <time>2015-09-22T11:16:22Z</time>
      </trkpt>
      <trkpt lat="42.35314" lon="0.10049">
        <ele>868</ele>
        <time>2015-09-22T11:16:23Z</time>
      </trkpt>
      <trkpt lat="42.35313" lon="0.10046">
        <ele>867.7</ele>
        <time>2015-09-22T11:16:24Z</time>
      </trkpt>
      <trkpt lat="42.35311" lon="0.10043">
        <ele>867.5</ele>
        <time>2015-09-22T11:16:25Z</time>
      </trkpt>
      <trkpt lat="42.35311" lon="0.10039">
        <ele>867.5</ele>
        <time>2015-09-22T11:16:26Z</time>
      </trkpt>
      <trkpt lat="42.3531" lon="0.10034">
        <ele>867.6</ele>
        <time>2015-09-22T11:16:27Z</time>
      </trkpt>
      <trkpt lat="42.35309" lon="0.1003">
        <ele>867.7</ele>
        <time>2015-09-22T11:16:28Z</time>
      </trkpt>
      <trkpt lat="42.35308" lon="0.10024">
        <ele>867.7</ele>
        <time>2015-09-22T11:16:29Z</time>
      </trkpt>
      <trkpt lat="42.35308" lon="0.1002">
        <ele>867.8</ele>
        <time>2015-09-22T11:16:30Z</time>
      </trkpt>
      <trkpt lat="42.35307" lon="0.10014">
        <ele>867.9</ele>
        <time>2015-09-22T11:16:31Z</time>
      </trkpt>
      <trkpt lat="42.35307" lon="0.10009">
        <ele>868.1</ele>
        <time>2015-09-22T11:16:32Z</time>
      </trkpt>
      <trkpt lat="42.35306" lon="0.10004">
        <ele>868.2</ele>
        <time>2015-09-22T11:16:33Z</time>
      </trkpt>
      <trkpt lat="42.35305" lon="0.09999">
        <ele>868.3</ele>
        <time>2015-09-22T11:16:34Z</time>
      </trkpt>
      <trkpt lat="42.35304" lon="0.09993">
        <ele>868.3</ele>
        <time>2015-09-22T11:16:35Z</time>
      </trkpt>
      <trkpt lat="42.35302" lon="0.09988">
        <ele>868.3</ele>
        <time>2015-09-22T11:16:36Z</time>
      </trkpt>
      <trkpt lat="42.35301" lon="0.09983">
        <ele>868.3</ele>
        <time>2015-09-22T11:16:37Z</time>
      </trkpt>
      <trkpt lat="42.353" lon="0.09979">
        <ele>868.4</ele>
        <time>2015-09-22T11:16:38Z</time>
      </trkpt>
      <trkpt lat="42.35295" lon="0.09976">
        <ele>867.7</ele>
        <time>2015-09-22T11:16:40Z</time>
      </trkpt>
      <trkpt lat="42.35292" lon="0.09977">
        <ele>867.1</ele>
        <time>2015-09-22T11:16:41Z</time>
      </trkpt>
      <trkpt lat="42.35289" lon="0.09976">
        <ele>867</ele>
        <time>2015-09-22T11:16:42Z</time>
      </trkpt>
      <trkpt lat="42.35286" lon="0.09975">
        <ele>866.8</ele>
        <time>2015-09-22T11:16:43Z</time>
      </trkpt>
      <trkpt lat="42.35284" lon="0.09974">
        <ele>866.7</ele>
        <time>2015-09-22T11:16:44Z</time>
      </trkpt>
      <trkpt lat="42.35282" lon="0.09971">
        <ele>866.7</ele>
        <time>2015-09-22T11:16:45Z</time>
      </trkpt>
      <trkpt lat="42.35281" lon="0.09967">
        <ele>866.8</ele>
        <time>2015-09-22T11:16:46Z</time>
      </trkpt>
      <trkpt lat="42.35281" lon="0.09963">
        <ele>867</ele>
        <time>2015-09-22T11:16:47Z</time>
      </trkpt>
      <trkpt lat="42.35281" lon="0.09958">
        <ele>867.2</ele>
        <time>2015-09-22T11:16:48Z</time>
      </trkpt>
      <trkpt lat="42.3528" lon="0.0995">
        <ele>867.4</ele>
        <time>2015-09-22T11:16:49Z</time>
      </trkpt>
      <trkpt lat="42.35281" lon="0.09955">
        <ele>867.3</ele>
        <time>2015-09-22T11:17:01Z</time>
      </trkpt>
      <trkpt lat="42.35277" lon="0.09952">
        <ele>867.1</ele>
        <time>2015-09-22T11:17:30Z</time>
      </trkpt>
      <trkpt lat="42.35272" lon="0.09953">
        <ele>866.7</ele>
        <time>2015-09-22T11:17:32Z</time>
      </trkpt>
      <trkpt lat="42.35267" lon="0.09955">
        <ele>866.3</ele>
        <time>2015-09-22T11:17:34Z</time>
      </trkpt>
      <trkpt lat="42.35264" lon="0.09956">
        <ele>866.1</ele>
        <time>2015-09-22T11:17:35Z</time>
      </trkpt>
      <trkpt lat="42.3526" lon="0.09958">
        <ele>865.7</ele>
        <time>2015-09-22T11:17:36Z</time>
      </trkpt>
      <trkpt lat="42.35256" lon="0.0996">
        <ele>865.3</ele>
        <time>2015-09-22T11:17:37Z</time>
      </trkpt>
      <trkpt lat="42.35252" lon="0.09963">
        <ele>864.9</ele>
        <time>2015-09-22T11:17:38Z</time>
      </trkpt>
      <trkpt lat="42.35248" lon="0.09966">
        <ele>864.5</ele>
        <time>2015-09-22T11:17:39Z</time>
      </trkpt>
      <trkpt lat="42.35243" lon="0.09969">
        <ele>864</ele>
        <time>2015-09-22T11:17:40Z</time>
      </trkpt>
      <trkpt lat="42.3524" lon="0.0997">
        <ele>863.7</ele>
        <time>2015-09-22T11:17:41Z</time>
      </trkpt>
      <trkpt lat="42.35238" lon="0.09973">
        <ele>863.5</ele>
        <time>2015-09-22T11:17:43Z</time>
      </trkpt>
      <trkpt lat="42.35236" lon="0.09975">
        <ele>863.2</ele>
        <time>2015-09-22T11:17:45Z</time>
      </trkpt>
      <trkpt lat="42.35232" lon="0.09975">
        <ele>862.8</ele>
        <time>2015-09-22T11:17:47Z</time>
      </trkpt>
      <trkpt lat="42.35226" lon="0.09977">
        <ele>862.4</ele>
        <time>2015-09-22T11:17:49Z</time>
      </trkpt>
      <trkpt lat="42.35224" lon="0.09979">
        <ele>862.1</ele>
        <time>2015-09-22T11:17:50Z</time>
      </trkpt>
      <trkpt lat="42.35221" lon="0.0998">
        <ele>861.9</ele>
        <time>2015-09-22T11:17:51Z</time>
      </trkpt>
      <trkpt lat="42.35218" lon="0.09981">
        <ele>861.6</ele>
        <time>2015-09-22T11:17:52Z</time>
      </trkpt>
      <trkpt lat="42.35215" lon="0.09982">
        <ele>861.4</ele>
        <time>2015-09-22T11:17:53Z</time>
      </trkpt>
      <trkpt lat="42.35211" lon="0.09982">
        <ele>861.1</ele>
        <time>2015-09-22T11:17:55Z</time>
      </trkpt>
      <trkpt lat="42.35208" lon="0.09984">
        <ele>860.9</ele>
        <time>2015-09-22T11:17:57Z</time>
      </trkpt>
      <trkpt lat="42.35205" lon="0.0999">
        <ele>860.9</ele>
        <time>2015-09-22T11:17:59Z</time>
      </trkpt>
      <trkpt lat="42.35201" lon="0.09998">
        <ele>860.9</ele>
        <time>2015-09-22T11:18:01Z</time>
      </trkpt>
      <trkpt lat="42.35199" lon="0.10002">
        <ele>861</ele>
        <time>2015-09-22T11:18:02Z</time>
      </trkpt>
      <trkpt lat="42.35197" lon="0.10006">
        <ele>860.9</ele>
        <time>2015-09-22T11:18:03Z</time>
      </trkpt>
      <trkpt lat="42.35196" lon="0.10011">
        <ele>860.9</ele>
        <time>2015-09-22T11:18:04Z</time>
      </trkpt>
      <trkpt lat="42.35195" lon="0.10014">
        <ele>860.9</ele>
        <time>2015-09-22T11:18:05Z</time>
      </trkpt>
      <trkpt lat="42.35193" lon="0.10018">
        <ele>861</ele>
        <time>2015-09-22T11:18:06Z</time>
      </trkpt>
      <trkpt lat="42.35192" lon="0.10023">
        <ele>860.9</ele>
        <time>2015-09-22T11:18:09Z</time>
      </trkpt>
      <trkpt lat="42.35191" lon="0.10027">
        <ele>860.9</ele>
        <time>2015-09-22T11:18:11Z</time>
      </trkpt>
      <trkpt lat="42.35189" lon="0.10032">
        <ele>860.9</ele>
        <time>2015-09-22T11:18:13Z</time>
      </trkpt>
      <trkpt lat="42.35185" lon="0.10034">
        <ele>861.3</ele>
        <time>2015-09-22T11:18:15Z</time>
      </trkpt>
      <trkpt lat="42.35179" lon="0.10034">
        <ele>862.1</ele>
        <time>2015-09-22T11:18:17Z</time>
      </trkpt>
      <trkpt lat="42.35175" lon="0.10034">
        <ele>862.7</ele>
        <time>2015-09-22T11:18:18Z</time>
      </trkpt>
      <trkpt lat="42.3517" lon="0.10035">
        <ele>863.2</ele>
        <time>2015-09-22T11:18:19Z</time>
      </trkpt>
      <trkpt lat="42.35167" lon="0.10038">
        <ele>863.6</ele>
        <time>2015-09-22T11:18:20Z</time>
      </trkpt>
      <trkpt lat="42.35164" lon="0.10042">
        <ele>863.8</ele>
        <time>2015-09-22T11:18:21Z</time>
      </trkpt>
      <trkpt lat="42.35162" lon="0.10047">
        <ele>863.8</ele>
        <time>2015-09-22T11:18:22Z</time>
      </trkpt>
      <trkpt lat="42.3516" lon="0.10052">
        <ele>863.8</ele>
        <time>2015-09-22T11:18:23Z</time>
      </trkpt>
      <trkpt lat="42.35158" lon="0.10057">
        <ele>863.8</ele>
        <time>2015-09-22T11:18:24Z</time>
      </trkpt>
      <trkpt lat="42.35155" lon="0.1006">
        <ele>864</ele>
        <time>2015-09-22T11:18:25Z</time>
      </trkpt>
      <trkpt lat="42.35152" lon="0.10063">
        <ele>864.2</ele>
        <time>2015-09-22T11:18:26Z</time>
      </trkpt>
      <trkpt lat="42.3515" lon="0.10065">
        <ele>864.5</ele>
        <time>2015-09-22T11:18:27Z</time>
      </trkpt>
      <trkpt lat="42.35147" lon="0.10068">
        <ele>864.7</ele>
        <time>2015-09-22T11:18:28Z</time>
      </trkpt>
      <trkpt lat="42.35145" lon="0.10071">
        <ele>864.8</ele>
        <time>2015-09-22T11:18:29Z</time>
      </trkpt>
      <trkpt lat="42.35144" lon="0.10075">
        <ele>864.8</ele>
        <time>2015-09-22T11:18:30Z</time>
      </trkpt>
      <trkpt lat="42.35143" lon="0.10078">
        <ele>864.7</ele>
        <time>2015-09-22T11:18:31Z</time>
      </trkpt>
      <trkpt lat="42.35141" lon="0.10085">
        <ele>864.6</ele>
        <time>2015-09-22T11:18:33Z</time>
      </trkpt>
      <trkpt lat="42.35138" lon="0.1009">
        <ele>864.8</ele>
        <time>2015-09-22T11:18:35Z</time>
      </trkpt>
      <trkpt lat="42.35135" lon="0.10093">
        <ele>865.1</ele>
        <time>2015-09-22T11:18:37Z</time>
      </trkpt>
      <trkpt lat="42.35133" lon="0.10096">
        <ele>865.3</ele>
        <time>2015-09-22T11:18:39Z</time>
      </trkpt>
      <trkpt lat="42.35131" lon="0.10099">
        <ele>865.3</ele>
        <time>2015-09-22T11:18:41Z</time>
      </trkpt>
      <trkpt lat="42.3513" lon="0.10104">
        <ele>865.2</ele>
        <time>2015-09-22T11:18:44Z</time>
      </trkpt>
      <trkpt lat="42.35128" lon="0.10107">
        <ele>865.4</ele>
        <time>2015-09-22T11:18:48Z</time>
      </trkpt>
      <trkpt lat="42.35127" lon="0.10111">
        <ele>865.4</ele>
        <time>2015-09-22T11:18:51Z</time>
      </trkpt>
      <trkpt lat="42.35125" lon="0.10116">
        <ele>865.5</ele>
        <time>2015-09-22T11:18:53Z</time>
      </trkpt>
      <trkpt lat="42.35123" lon="0.10123">
        <ele>865.4</ele>
        <time>2015-09-22T11:18:55Z</time>
      </trkpt>
      <trkpt lat="42.35122" lon="0.1013">
        <ele>865.3</ele>
        <time>2015-09-22T11:18:57Z</time>
      </trkpt>
      <trkpt lat="42.35121" lon="0.10134">
        <ele>865.3</ele>
        <time>2015-09-22T11:18:58Z</time>
      </trkpt>
      <trkpt lat="42.3512" lon="0.10137">
        <ele>865.3</ele>
        <time>2015-09-22T11:18:59Z</time>
      </trkpt>
      <trkpt lat="42.35118" lon="0.10141">
        <ele>865.2</ele>
        <time>2015-09-22T11:19:00Z</time>
      </trkpt>
      <trkpt lat="42.35117" lon="0.10145">
        <ele>865.2</ele>
        <time>2015-09-22T11:19:01Z</time>
      </trkpt>
      <trkpt lat="42.35116" lon="0.1015">
        <ele>865.2</ele>
        <time>2015-09-22T11:19:02Z</time>
      </trkpt>
      <trkpt lat="42.35114" lon="0.10154">
        <ele>865.3</ele>
        <time>2015-09-22T11:19:03Z</time>
      </trkpt>
      <trkpt lat="42.35112" lon="0.10158">
        <ele>865.5</ele>
        <time>2015-09-22T11:19:04Z</time>
      </trkpt>
      <trkpt lat="42.35109" lon="0.10161">
        <ele>865.7</ele>
        <time>2015-09-22T11:19:05Z</time>
      </trkpt>
      <trkpt lat="42.35106" lon="0.10165">
        <ele>865.9</ele>
        <time>2015-09-22T11:19:06Z</time>
      </trkpt>
      <trkpt lat="42.35104" lon="0.10168">
        <ele>866.1</ele>
        <time>2015-09-22T11:19:07Z</time>
      </trkpt>
      <trkpt lat="42.35101" lon="0.10171">
        <ele>866.3</ele>
        <time>2015-09-22T11:19:08Z</time>
      </trkpt>
      <trkpt lat="42.35099" lon="0.10174">
        <ele>866.5</ele>
        <time>2015-09-22T11:19:09Z</time>
      </trkpt>
      <trkpt lat="42.35096" lon="0.10178">
        <ele>866.7</ele>
        <time>2015-09-22T11:19:10Z</time>
      </trkpt>
      <trkpt lat="42.35094" lon="0.10182">
        <ele>866.8</ele>
        <time>2015-09-22T11:19:11Z</time>
      </trkpt>
      <trkpt lat="42.35093" lon="0.10186">
        <ele>866.8</ele>
        <time>2015-09-22T11:19:12Z</time>
      </trkpt>
      <trkpt lat="42.35092" lon="0.10191">
        <ele>866.7</ele>
        <time>2015-09-22T11:19:13Z</time>
      </trkpt>
      <trkpt lat="42.35091" lon="0.10196">
        <ele>866.5</ele>
        <time>2015-09-22T11:19:14Z</time>
      </trkpt>
      <trkpt lat="42.3509" lon="0.10202">
        <ele>866.4</ele>
        <time>2015-09-22T11:19:15Z</time>
      </trkpt>
      <trkpt lat="42.35089" lon="0.10207">
        <ele>866.3</ele>
        <time>2015-09-22T11:19:16Z</time>
      </trkpt>
      <trkpt lat="42.35087" lon="0.10213">
        <ele>865.6</ele>
        <time>2015-09-22T11:19:17Z</time>
      </trkpt>
      <trkpt lat="42.35086" lon="0.10219">
        <ele>864.8</ele>
        <time>2015-09-22T11:19:18Z</time>
      </trkpt>
      <trkpt lat="42.35085" lon="0.10225">
        <ele>864</ele>
        <time>2015-09-22T11:19:19Z</time>
      </trkpt>
      <trkpt lat="42.35084" lon="0.1023">
        <ele>863.3</ele>
        <time>2015-09-22T11:19:20Z</time>
      </trkpt>
      <trkpt lat="42.35082" lon="0.10236">
        <ele>862.5</ele>
        <time>2015-09-22T11:19:21Z</time>
      </trkpt>
      <trkpt lat="42.3508" lon="0.10241">
        <ele>861.9</ele>
        <time>2015-09-22T11:19:22Z</time>
      </trkpt>
      <trkpt lat="42.35078" lon="0.10246">
        <ele>861.4</ele>
        <time>2015-09-22T11:19:23Z</time>
      </trkpt>
      <trkpt lat="42.35075" lon="0.1025">
        <ele>861.1</ele>
        <time>2015-09-22T11:19:24Z</time>
      </trkpt>
      <trkpt lat="42.35071" lon="0.10253">
        <ele>861.1</ele>
        <time>2015-09-22T11:19:25Z</time>
      </trkpt>
      <trkpt lat="42.35067" lon="0.10255">
        <ele>861.4</ele>
        <time>2015-09-22T11:19:26Z</time>
      </trkpt>
      <trkpt lat="42.35062" lon="0.10254">
        <ele>862.1</ele>
        <time>2015-09-22T11:19:27Z</time>
      </trkpt>
      <trkpt lat="42.35058" lon="0.10253">
        <ele>862.9</ele>
        <time>2015-09-22T11:19:28Z</time>
      </trkpt>
      <trkpt lat="42.35053" lon="0.1025">
        <ele>863.9</ele>
        <time>2015-09-22T11:19:29Z</time>
      </trkpt>
      <trkpt lat="42.35049" lon="0.10247">
        <ele>864.9</ele>
        <time>2015-09-22T11:19:30Z</time>
      </trkpt>
      <trkpt lat="42.35045" lon="0.10245">
        <ele>866</ele>
        <time>2015-09-22T11:19:31Z</time>
      </trkpt>
      <trkpt lat="42.35041" lon="0.10242">
        <ele>867</ele>
        <time>2015-09-22T11:19:32Z</time>
      </trkpt>
      <trkpt lat="42.35038" lon="0.10239">
        <ele>867.7</ele>
        <time>2015-09-22T11:19:33Z</time>
      </trkpt>
      <trkpt lat="42.35034" lon="0.10237">
        <ele>868.3</ele>
        <time>2015-09-22T11:19:34Z</time>
      </trkpt>
      <trkpt lat="42.3503" lon="0.10234">
        <ele>868.9</ele>
        <time>2015-09-22T11:19:35Z</time>
      </trkpt>
      <trkpt lat="42.35026" lon="0.10232">
        <ele>869.4</ele>
        <time>2015-09-22T11:19:36Z</time>
      </trkpt>
      <trkpt lat="42.35022" lon="0.1023">
        <ele>869.9</ele>
        <time>2015-09-22T11:19:37Z</time>
      </trkpt>
      <trkpt lat="42.35018" lon="0.10228">
        <ele>870.3</ele>
        <time>2015-09-22T11:19:38Z</time>
      </trkpt>
      <trkpt lat="42.35014" lon="0.10227">
        <ele>870.7</ele>
        <time>2015-09-22T11:19:39Z</time>
      </trkpt>
      <trkpt lat="42.35011" lon="0.10225">
        <ele>871.1</ele>
        <time>2015-09-22T11:19:40Z</time>
      </trkpt>
      <trkpt lat="42.35007" lon="0.10223">
        <ele>871.4</ele>
        <time>2015-09-22T11:19:41Z</time>
      </trkpt>
      <trkpt lat="42.35004" lon="0.10221">
        <ele>871.8</ele>
        <time>2015-09-22T11:19:42Z</time>
      </trkpt>
      <trkpt lat="42.35001" lon="0.10219">
        <ele>872.1</ele>
        <time>2015-09-22T11:19:43Z</time>
      </trkpt>
      <trkpt lat="42.34998" lon="0.10216">
        <ele>872.5</ele>
        <time>2015-09-22T11:19:44Z</time>
      </trkpt>
      <trkpt lat="42.34995" lon="0.10213">
        <ele>873</ele>
        <time>2015-09-22T11:19:45Z</time>
      </trkpt>
      <trkpt lat="42.34992" lon="0.10211">
        <ele>873.3</ele>
        <time>2015-09-22T11:19:46Z</time>
      </trkpt>
      <trkpt lat="42.34988" lon="0.10209">
        <ele>873.6</ele>
        <time>2015-09-22T11:19:47Z</time>
      </trkpt>
      <trkpt lat="42.34984" lon="0.10208">
        <ele>873.7</ele>
        <time>2015-09-22T11:19:48Z</time>
      </trkpt>
      <trkpt lat="42.3498" lon="0.10208">
        <ele>873.8</ele>
        <time>2015-09-22T11:19:49Z</time>
      </trkpt>
      <trkpt lat="42.34977" lon="0.10209">
        <ele>873.7</ele>
        <time>2015-09-22T11:19:50Z</time>
      </trkpt>
      <trkpt lat="42.34974" lon="0.10212">
        <ele>873.5</ele>
        <time>2015-09-22T11:19:51Z</time>
      </trkpt>
      <trkpt lat="42.34971" lon="0.10215">
        <ele>873.3</ele>
        <time>2015-09-22T11:19:52Z</time>
      </trkpt>
      <trkpt lat="42.34969" lon="0.10217">
        <ele>873.1</ele>
        <time>2015-09-22T11:19:53Z</time>
      </trkpt>
      <trkpt lat="42.34966" lon="0.1022">
        <ele>873</ele>
        <time>2015-09-22T11:19:54Z</time>
      </trkpt>
      <trkpt lat="42.34963" lon="0.10222">
        <ele>872.9</ele>
        <time>2015-09-22T11:19:55Z</time>
      </trkpt>
      <trkpt lat="42.34961" lon="0.10223">
        <ele>872.8</ele>
        <time>2015-09-22T11:19:56Z</time>
      </trkpt>
      <trkpt lat="42.34958" lon="0.10225">
        <ele>872.8</ele>
        <time>2015-09-22T11:19:57Z</time>
      </trkpt>
      <trkpt lat="42.34956" lon="0.10227">
        <ele>872.8</ele>
        <time>2015-09-22T11:19:58Z</time>
      </trkpt>
      <trkpt lat="42.34953" lon="0.10229">
        <ele>872.7</ele>
        <time>2015-09-22T11:19:59Z</time>
      </trkpt>
      <trkpt lat="42.34951" lon="0.10231">
        <ele>872.6</ele>
        <time>2015-09-22T11:20:00Z</time>
      </trkpt>
      <trkpt lat="42.34948" lon="0.10232">
        <ele>872.6</ele>
        <time>2015-09-22T11:20:01Z</time>
      </trkpt>
      <trkpt lat="42.34945" lon="0.10234">
        <ele>872.6</ele>
        <time>2015-09-22T11:20:02Z</time>
      </trkpt>
      <trkpt lat="42.34942" lon="0.10235">
        <ele>872.6</ele>
        <time>2015-09-22T11:20:03Z</time>
      </trkpt>
      <trkpt lat="42.3494" lon="0.10236">
        <ele>872.7</ele>
        <time>2015-09-22T11:20:04Z</time>
      </trkpt>
      <trkpt lat="42.34937" lon="0.10238">
        <ele>872.7</ele>
        <time>2015-09-22T11:20:05Z</time>
      </trkpt>
      <trkpt lat="42.34936" lon="0.10242">
        <ele>872.6</ele>
        <time>2015-09-22T11:20:06Z</time>
      </trkpt>
      <trkpt lat="42.34937" lon="0.10247">
        <ele>872.3</ele>
        <time>2015-09-22T11:20:07Z</time>
      </trkpt>
      <trkpt lat="42.34939" lon="0.10251">
        <ele>872</ele>
        <time>2015-09-22T11:20:08Z</time>
      </trkpt>
      <trkpt lat="42.34942" lon="0.10254">
        <ele>871.7</ele>
        <time>2015-09-22T11:20:09Z</time>
      </trkpt>
      <trkpt lat="42.34946" lon="0.10258">
        <ele>871.2</ele>
        <time>2015-09-22T11:20:10Z</time>
      </trkpt>
      <trkpt lat="42.3495" lon="0.10262">
        <ele>870.7</ele>
        <time>2015-09-22T11:20:11Z</time>
      </trkpt>
      <trkpt lat="42.34954" lon="0.10267">
        <ele>870.1</ele>
        <time>2015-09-22T11:20:12Z</time>
      </trkpt>
      <trkpt lat="42.34958" lon="0.10271">
        <ele>869.5</ele>
        <time>2015-09-22T11:20:13Z</time>
      </trkpt>
      <trkpt lat="42.34965" lon="0.10277">
        <ele>868.4</ele>
        <time>2015-09-22T11:20:14Z</time>
      </trkpt>
      <trkpt lat="42.3497" lon="0.10281">
        <ele>867.5</ele>
        <time>2015-09-22T11:20:15Z</time>
      </trkpt>
      <trkpt lat="42.34974" lon="0.10283">
        <ele>866.9</ele>
        <time>2015-09-22T11:20:16Z</time>
      </trkpt>
      <trkpt lat="42.3498" lon="0.10285">
        <ele>866.1</ele>
        <time>2015-09-22T11:20:17Z</time>
      </trkpt>
      <trkpt lat="42.34984" lon="0.10287">
        <ele>865.4</ele>
        <time>2015-09-22T11:20:18Z</time>
      </trkpt>
      <trkpt lat="42.34989" lon="0.10291">
        <ele>864.3</ele>
        <time>2015-09-22T11:20:19Z</time>
      </trkpt>
      <trkpt lat="42.34993" lon="0.10296">
        <ele>864</ele>
        <time>2015-09-22T11:20:20Z</time>
      </trkpt>
      <trkpt lat="42.34997" lon="0.10301">
        <ele>863.8</ele>
        <time>2015-09-22T11:20:21Z</time>
      </trkpt>
      <trkpt lat="42.34999" lon="0.10307">
        <ele>863.8</ele>
        <time>2015-09-22T11:20:22Z</time>
      </trkpt>
      <trkpt lat="42.35001" lon="0.10314">
        <ele>863.9</ele>
        <time>2015-09-22T11:20:23Z</time>
      </trkpt>
      <trkpt lat="42.35003" lon="0.10321">
        <ele>864.1</ele>
        <time>2015-09-22T11:20:24Z</time>
      </trkpt>
      <trkpt lat="42.35005" lon="0.10328">
        <ele>864.1</ele>
        <time>2015-09-22T11:20:25Z</time>
      </trkpt>
      <trkpt lat="42.35008" lon="0.10334">
        <ele>863.9</ele>
        <time>2015-09-22T11:20:26Z</time>
      </trkpt>
      <trkpt lat="42.35011" lon="0.1034">
        <ele>863.7</ele>
        <time>2015-09-22T11:20:27Z</time>
      </trkpt>
      <trkpt lat="42.35014" lon="0.10344">
        <ele>863.5</ele>
        <time>2015-09-22T11:20:28Z</time>
      </trkpt>
      <trkpt lat="42.35018" lon="0.10349">
        <ele>863.1</ele>
        <time>2015-09-22T11:20:29Z</time>
      </trkpt>
      <trkpt lat="42.35021" lon="0.10353">
        <ele>862.6</ele>
        <time>2015-09-22T11:20:30Z</time>
      </trkpt>
      <trkpt lat="42.35025" lon="0.10357">
        <ele>862.3</ele>
        <time>2015-09-22T11:20:31Z</time>
      </trkpt>
      <trkpt lat="42.35028" lon="0.10362">
        <ele>862</ele>
        <time>2015-09-22T11:20:32Z</time>
      </trkpt>
      <trkpt lat="42.3503" lon="0.10368">
        <ele>861.7</ele>
        <time>2015-09-22T11:20:33Z</time>
      </trkpt>
      <trkpt lat="42.35033" lon="0.10373">
        <ele>861.3</ele>
        <time>2015-09-22T11:20:34Z</time>
      </trkpt>
      <trkpt lat="42.35036" lon="0.1038">
        <ele>861.2</ele>
        <time>2015-09-22T11:20:35Z</time>
      </trkpt>
      <trkpt lat="42.35037" lon="0.10387">
        <ele>861.4</ele>
        <time>2015-09-22T11:20:36Z</time>
      </trkpt>
      <trkpt lat="42.35037" lon="0.10394">
        <ele>861.6</ele>
        <time>2015-09-22T11:20:37Z</time>
      </trkpt>
      <trkpt lat="42.35036" lon="0.104">
        <ele>862</ele>
        <time>2015-09-22T11:20:38Z</time>
      </trkpt>
      <trkpt lat="42.35036" lon="0.10406">
        <ele>862.3</ele>
        <time>2015-09-22T11:20:39Z</time>
      </trkpt>
      <trkpt lat="42.35036" lon="0.10412">
        <ele>862.5</ele>
        <time>2015-09-22T11:20:40Z</time>
      </trkpt>
      <trkpt lat="42.35036" lon="0.10418">
        <ele>862.8</ele>
        <time>2015-09-22T11:20:41Z</time>
      </trkpt>
      <trkpt lat="42.35036" lon="0.10424">
        <ele>863.1</ele>
        <time>2015-09-22T11:20:42Z</time>
      </trkpt>
      <trkpt lat="42.35034" lon="0.10429">
        <ele>863.5</ele>
        <time>2015-09-22T11:20:43Z</time>
      </trkpt>
      <trkpt lat="42.35033" lon="0.10433">
        <ele>863.8</ele>
        <time>2015-09-22T11:20:44Z</time>
      </trkpt>
      <trkpt lat="42.35031" lon="0.10439">
        <ele>864.2</ele>
        <time>2015-09-22T11:20:45Z</time>
      </trkpt>
      <trkpt lat="42.3503" lon="0.10444">
        <ele>864.6</ele>
        <time>2015-09-22T11:20:46Z</time>
      </trkpt>
      <trkpt lat="42.35029" lon="0.10449">
        <ele>864.9</ele>
        <time>2015-09-22T11:20:47Z</time>
      </trkpt>
      <trkpt lat="42.35028" lon="0.10453">
        <ele>865.2</ele>
        <time>2015-09-22T11:20:48Z</time>
      </trkpt>
      <trkpt lat="42.35026" lon="0.10457">
        <ele>865.5</ele>
        <time>2015-09-22T11:20:49Z</time>
      </trkpt>
      <trkpt lat="42.35024" lon="0.10461">
        <ele>865.4</ele>
        <time>2015-09-22T11:20:50Z</time>
      </trkpt>
      <trkpt lat="42.35023" lon="0.10465">
        <ele>865.1</ele>
        <time>2015-09-22T11:20:51Z</time>
      </trkpt>
      <trkpt lat="42.35023" lon="0.1047">
        <ele>864.6</ele>
        <time>2015-09-22T11:20:52Z</time>
      </trkpt>
      <trkpt lat="42.35022" lon="0.10475">
        <ele>864.1</ele>
        <time>2015-09-22T11:20:53Z</time>
      </trkpt>
      <trkpt lat="42.35021" lon="0.10484">
        <ele>863.2</ele>
        <time>2015-09-22T11:20:54Z</time>
      </trkpt>
      <trkpt lat="42.35019" lon="0.10493">
        <ele>862.4</ele>
        <time>2015-09-22T11:20:55Z</time>
      </trkpt>
      <trkpt lat="42.35018" lon="0.10501">
        <ele>861.6</ele>
        <time>2015-09-22T11:20:56Z</time>
      </trkpt>
      <trkpt lat="42.35015" lon="0.1051">
        <ele>860.8</ele>
        <time>2015-09-22T11:20:57Z</time>
      </trkpt>
      <trkpt lat="42.35014" lon="0.10518">
        <ele>860</ele>
        <time>2015-09-22T11:20:58Z</time>
      </trkpt>
      <trkpt lat="42.35012" lon="0.10525">
        <ele>859.3</ele>
        <time>2015-09-22T11:20:59Z</time>
      </trkpt>
      <trkpt lat="42.35011" lon="0.10533">
        <ele>858.5</ele>
        <time>2015-09-22T11:21:00Z</time>
      </trkpt>
      <trkpt lat="42.35009" lon="0.1054">
        <ele>857.8</ele>
        <time>2015-09-22T11:21:01Z</time>
      </trkpt>
      <trkpt lat="42.35007" lon="0.10546">
        <ele>857.2</ele>
        <time>2015-09-22T11:21:02Z</time>
      </trkpt>
      <trkpt lat="42.35003" lon="0.10551">
        <ele>856.7</ele>
        <time>2015-09-22T11:21:03Z</time>
      </trkpt>
      <trkpt lat="42.35" lon="0.10556">
        <ele>856.3</ele>
        <time>2015-09-22T11:21:04Z</time>
      </trkpt>
      <trkpt lat="42.34997" lon="0.10563">
        <ele>855.7</ele>
        <time>2015-09-22T11:21:05Z</time>
      </trkpt>
      <trkpt lat="42.34996" lon="0.10571">
        <ele>854.9</ele>
        <time>2015-09-22T11:21:06Z</time>
      </trkpt>
      <trkpt lat="42.34995" lon="0.10578">
        <ele>854.1</ele>
        <time>2015-09-22T11:21:07Z</time>
      </trkpt>
      <trkpt lat="42.34994" lon="0.10587">
        <ele>853.2</ele>
        <time>2015-09-22T11:21:08Z</time>
      </trkpt>
      <trkpt lat="42.34992" lon="0.10595">
        <ele>852.3</ele>
        <time>2015-09-22T11:21:09Z</time>
      </trkpt>
      <trkpt lat="42.34989" lon="0.10602">
        <ele>851.5</ele>
        <time>2015-09-22T11:21:10Z</time>
      </trkpt>
      <trkpt lat="42.34987" lon="0.1061">
        <ele>850.7</ele>
        <time>2015-09-22T11:21:11Z</time>
      </trkpt>
      <trkpt lat="42.34986" lon="0.10617">
        <ele>849.9</ele>
        <time>2015-09-22T11:21:12Z</time>
      </trkpt>
      <trkpt lat="42.34985" lon="0.10625">
        <ele>849</ele>
        <time>2015-09-22T11:21:13Z</time>
      </trkpt>
      <trkpt lat="42.34986" lon="0.10633">
        <ele>848.4</ele>
        <time>2015-09-22T11:21:14Z</time>
      </trkpt>
      <trkpt lat="42.34987" lon="0.10641">
        <ele>847.8</ele>
        <time>2015-09-22T11:21:15Z</time>
      </trkpt>
      <trkpt lat="42.34988" lon="0.10649">
        <ele>847.1</ele>
        <time>2015-09-22T11:21:16Z</time>
      </trkpt>
      <trkpt lat="42.34989" lon="0.10657">
        <ele>846.5</ele>
        <time>2015-09-22T11:21:17Z</time>
      </trkpt>
      <trkpt lat="42.3499" lon="0.10665">
        <ele>845.9</ele>
        <time>2015-09-22T11:21:18Z</time>
      </trkpt>
      <trkpt lat="42.34992" lon="0.10672">
        <ele>845.3</ele>
        <time>2015-09-22T11:21:19Z</time>
      </trkpt>
      <trkpt lat="42.34994" lon="0.10678">
        <ele>844.8</ele>
        <time>2015-09-22T11:21:20Z</time>
      </trkpt>
      <trkpt lat="42.34996" lon="0.10683">
        <ele>844.4</ele>
        <time>2015-09-22T11:21:21Z</time>
      </trkpt>
      <trkpt lat="42.34999" lon="0.10688">
        <ele>844</ele>
        <time>2015-09-22T11:21:22Z</time>
      </trkpt>
      <trkpt lat="42.35001" lon="0.10692">
        <ele>843.7</ele>
        <time>2015-09-22T11:21:23Z</time>
      </trkpt>
      <trkpt lat="42.35002" lon="0.10698">
        <ele>843.2</ele>
        <time>2015-09-22T11:21:24Z</time>
      </trkpt>
      <trkpt lat="42.35003" lon="0.10705">
        <ele>842.7</ele>
        <time>2015-09-22T11:21:25Z</time>
      </trkpt>
      <trkpt lat="42.35006" lon="0.10712">
        <ele>842.2</ele>
        <time>2015-09-22T11:21:26Z</time>
      </trkpt>
      <trkpt lat="42.35008" lon="0.1072">
        <ele>841.5</ele>
        <time>2015-09-22T11:21:27Z</time>
      </trkpt>
      <trkpt lat="42.35009" lon="0.10728">
        <ele>840.8</ele>
        <time>2015-09-22T11:21:28Z</time>
      </trkpt>
      <trkpt lat="42.3501" lon="0.10737">
        <ele>840.1</ele>
        <time>2015-09-22T11:21:29Z</time>
      </trkpt>
      <trkpt lat="42.3501" lon="0.10744">
        <ele>839.6</ele>
        <time>2015-09-22T11:21:30Z</time>
      </trkpt>
      <trkpt lat="42.35012" lon="0.10751">
        <ele>839</ele>
        <time>2015-09-22T11:21:31Z</time>
      </trkpt>
      <trkpt lat="42.35013" lon="0.10759">
        <ele>838.5</ele>
        <time>2015-09-22T11:21:32Z</time>
      </trkpt>
      <trkpt lat="42.35013" lon="0.10767">
        <ele>837.8</ele>
        <time>2015-09-22T11:21:33Z</time>
      </trkpt>
      <trkpt lat="42.35012" lon="0.10775">
        <ele>837.2</ele>
        <time>2015-09-22T11:21:34Z</time>
      </trkpt>
      <trkpt lat="42.3501" lon="0.10781">
        <ele>836.7</ele>
        <time>2015-09-22T11:21:35Z</time>
      </trkpt>
      <trkpt lat="42.35006" lon="0.10786">
        <ele>836.2</ele>
        <time>2015-09-22T11:21:36Z</time>
      </trkpt>
      <trkpt lat="42.35002" lon="0.10787">
        <ele>835.9</ele>
        <time>2015-09-22T11:21:37Z</time>
      </trkpt>
      <trkpt lat="42.34998" lon="0.10788">
        <ele>835.7</ele>
        <time>2015-09-22T11:21:38Z</time>
      </trkpt>
      <trkpt lat="42.34995" lon="0.10787">
        <ele>835.7</ele>
        <time>2015-09-22T11:21:39Z</time>
      </trkpt>
      <trkpt lat="42.34992" lon="0.10785">
        <ele>835.8</ele>
        <time>2015-09-22T11:21:43Z</time>
      </trkpt>
      <trkpt lat="42.34988" lon="0.10786">
        <ele>835.6</ele>
        <time>2015-09-22T11:22:11Z</time>
      </trkpt>
      <trkpt lat="42.34984" lon="0.10783">
        <ele>835.7</ele>
        <time>2015-09-22T11:22:13Z</time>
      </trkpt>
      <trkpt lat="42.34979" lon="0.1078">
        <ele>835.9</ele>
        <time>2015-09-22T11:22:15Z</time>
      </trkpt>
      <trkpt lat="42.34976" lon="0.10778">
        <ele>836</ele>
        <time>2015-09-22T11:22:16Z</time>
      </trkpt>
      <trkpt lat="42.34972" lon="0.10775">
        <ele>836.2</ele>
        <time>2015-09-22T11:22:17Z</time>
      </trkpt>
      <trkpt lat="42.34969" lon="0.10772">
        <ele>836.4</ele>
        <time>2015-09-22T11:22:18Z</time>
      </trkpt>
      <trkpt lat="42.34965" lon="0.10769">
        <ele>836.6</ele>
        <time>2015-09-22T11:22:19Z</time>
      </trkpt>
      <trkpt lat="42.34962" lon="0.10767">
        <ele>836.7</ele>
        <time>2015-09-22T11:22:20Z</time>
      </trkpt>
      <trkpt lat="42.34958" lon="0.10765">
        <ele>837</ele>
        <time>2015-09-22T11:22:21Z</time>
      </trkpt>
      <trkpt lat="42.34954" lon="0.10762">
        <ele>837.5</ele>
        <time>2015-09-22T11:22:22Z</time>
      </trkpt>
      <trkpt lat="42.34951" lon="0.10759">
        <ele>838</ele>
        <time>2015-09-22T11:22:23Z</time>
      </trkpt>
      <trkpt lat="42.34947" lon="0.10756">
        <ele>838.6</ele>
        <time>2015-09-22T11:22:24Z</time>
      </trkpt>
      <trkpt lat="42.34944" lon="0.10751">
        <ele>839.2</ele>
        <time>2015-09-22T11:22:25Z</time>
      </trkpt>
      <trkpt lat="42.34942" lon="0.10747">
        <ele>839.8</ele>
        <time>2015-09-22T11:22:26Z</time>
      </trkpt>
      <trkpt lat="42.3494" lon="0.10741">
        <ele>840.4</ele>
        <time>2015-09-22T11:22:27Z</time>
      </trkpt>
      <trkpt lat="42.34939" lon="0.10736">
        <ele>841</ele>
        <time>2015-09-22T11:22:28Z</time>
      </trkpt>
      <trkpt lat="42.34937" lon="0.10731">
        <ele>841.6</ele>
        <time>2015-09-22T11:22:29Z</time>
      </trkpt>
      <trkpt lat="42.34935" lon="0.10725">
        <ele>842.2</ele>
        <time>2015-09-22T11:22:30Z</time>
      </trkpt>
      <trkpt lat="42.34933" lon="0.1072">
        <ele>842.8</ele>
        <time>2015-09-22T11:22:31Z</time>
      </trkpt>
      <trkpt lat="42.34932" lon="0.10715">
        <ele>843.3</ele>
        <time>2015-09-22T11:22:32Z</time>
      </trkpt>
      <trkpt lat="42.3493" lon="0.1071">
        <ele>843.9</ele>
        <time>2015-09-22T11:22:33Z</time>
      </trkpt>
      <trkpt lat="42.3493" lon="0.10704">
        <ele>844.4</ele>
        <time>2015-09-22T11:22:34Z</time>
      </trkpt>
      <trkpt lat="42.34931" lon="0.10699">
        <ele>845</ele>
        <time>2015-09-22T11:22:35Z</time>
      </trkpt>
      <trkpt lat="42.34932" lon="0.10693">
        <ele>845.5</ele>
        <time>2015-09-22T11:22:36Z</time>
      </trkpt>
      <trkpt lat="42.34933" lon="0.10688">
        <ele>846</ele>
        <time>2015-09-22T11:22:37Z</time>
      </trkpt>
      <trkpt lat="42.34933" lon="0.10683">
        <ele>846.4</ele>
        <time>2015-09-22T11:22:38Z</time>
      </trkpt>
      <trkpt lat="42.34933" lon="0.10677">
        <ele>847</ele>
        <time>2015-09-22T11:22:39Z</time>
      </trkpt>
      <trkpt lat="42.34932" lon="0.10673">
        <ele>847.5</ele>
        <time>2015-09-22T11:22:40Z</time>
      </trkpt>
      <trkpt lat="42.34929" lon="0.1067">
        <ele>847.9</ele>
        <time>2015-09-22T11:22:41Z</time>
      </trkpt>
      <trkpt lat="42.34927" lon="0.10668">
        <ele>848.2</ele>
        <time>2015-09-22T11:22:42Z</time>
      </trkpt>
      <trkpt lat="42.34924" lon="0.10667">
        <ele>848.6</ele>
        <time>2015-09-22T11:22:43Z</time>
      </trkpt>
      <trkpt lat="42.3492" lon="0.10664">
        <ele>849</ele>
        <time>2015-09-22T11:22:45Z</time>
      </trkpt>
      <trkpt lat="42.34917" lon="0.10664">
        <ele>849.3</ele>
        <time>2015-09-22T11:22:46Z</time>
      </trkpt>
      <trkpt lat="42.34914" lon="0.10665">
        <ele>849.4</ele>
        <time>2015-09-22T11:22:47Z</time>
      </trkpt>
      <trkpt lat="42.34911" lon="0.10667">
        <ele>849.4</ele>
        <time>2015-09-22T11:22:48Z</time>
      </trkpt>
      <trkpt lat="42.34908" lon="0.10669">
        <ele>849.3</ele>
        <time>2015-09-22T11:22:49Z</time>
      </trkpt>
      <trkpt lat="42.34905" lon="0.10671">
        <ele>849.3</ele>
        <time>2015-09-22T11:22:50Z</time>
      </trkpt>
      <trkpt lat="42.34902" lon="0.10673">
        <ele>849.2</ele>
        <time>2015-09-22T11:22:51Z</time>
      </trkpt>
      <trkpt lat="42.349" lon="0.10676">
        <ele>849</ele>
        <time>2015-09-22T11:22:52Z</time>
      </trkpt>
      <trkpt lat="42.34898" lon="0.10679">
        <ele>848.7</ele>
        <time>2015-09-22T11:22:53Z</time>
      </trkpt>
      <trkpt lat="42.34897" lon="0.10683">
        <ele>848.3</ele>
        <time>2015-09-22T11:22:54Z</time>
      </trkpt>
      <trkpt lat="42.34895" lon="0.10687">
        <ele>847.9</ele>
        <time>2015-09-22T11:22:55Z</time>
      </trkpt>
      <trkpt lat="42.34893" lon="0.10692">
        <ele>847.4</ele>
        <time>2015-09-22T11:22:56Z</time>
      </trkpt>
      <trkpt lat="42.3489" lon="0.10697">
        <ele>846.9</ele>
        <time>2015-09-22T11:22:57Z</time>
      </trkpt>
      <trkpt lat="42.34887" lon="0.10701">
        <ele>846.4</ele>
        <time>2015-09-22T11:22:58Z</time>
      </trkpt>
      <trkpt lat="42.34884" lon="0.10706">
        <ele>845.9</ele>
        <time>2015-09-22T11:22:59Z</time>
      </trkpt>
      <trkpt lat="42.34882" lon="0.10711">
        <ele>845.6</ele>
        <time>2015-09-22T11:23:00Z</time>
      </trkpt>
      <trkpt lat="42.34879" lon="0.10715">
        <ele>845.4</ele>
        <time>2015-09-22T11:23:01Z</time>
      </trkpt>
      <trkpt lat="42.34877" lon="0.1072">
        <ele>845.2</ele>
        <time>2015-09-22T11:23:02Z</time>
      </trkpt>
      <trkpt lat="42.34875" lon="0.10724">
        <ele>845</ele>
        <time>2015-09-22T11:23:03Z</time>
      </trkpt>
      <trkpt lat="42.34874" lon="0.10729">
        <ele>844.8</ele>
        <time>2015-09-22T11:23:04Z</time>
      </trkpt>
      <trkpt lat="42.34873" lon="0.10735">
        <ele>844.4</ele>
        <time>2015-09-22T11:23:05Z</time>
      </trkpt>
      <trkpt lat="42.34873" lon="0.1074">
        <ele>844.1</ele>
        <time>2015-09-22T11:23:06Z</time>
      </trkpt>
      <trkpt lat="42.34872" lon="0.10745">
        <ele>843.9</ele>
        <time>2015-09-22T11:23:07Z</time>
      </trkpt>
      <trkpt lat="42.34871" lon="0.10749">
        <ele>843.7</ele>
        <time>2015-09-22T11:23:08Z</time>
      </trkpt>
      <trkpt lat="42.3487" lon="0.10753">
        <ele>843.4</ele>
        <time>2015-09-22T11:23:09Z</time>
      </trkpt>
      <trkpt lat="42.34869" lon="0.10758">
        <ele>843.1</ele>
        <time>2015-09-22T11:23:10Z</time>
      </trkpt>
      <trkpt lat="42.34869" lon="0.10763">
        <ele>842.8</ele>
        <time>2015-09-22T11:23:11Z</time>
      </trkpt>
      <trkpt lat="42.34869" lon="0.10768">
        <ele>842.5</ele>
        <time>2015-09-22T11:23:12Z</time>
      </trkpt>
      <trkpt lat="42.34869" lon="0.10774">
        <ele>842.2</ele>
        <time>2015-09-22T11:23:13Z</time>
      </trkpt>
      <trkpt lat="42.34869" lon="0.1078">
        <ele>841.8</ele>
        <time>2015-09-22T11:23:14Z</time>
      </trkpt>
      <trkpt lat="42.34868" lon="0.10785">
        <ele>841.5</ele>
        <time>2015-09-22T11:23:15Z</time>
      </trkpt>
      <trkpt lat="42.34866" lon="0.1079">
        <ele>841.2</ele>
        <time>2015-09-22T11:23:16Z</time>
      </trkpt>
      <trkpt lat="42.34864" lon="0.10795">
        <ele>841.1</ele>
        <time>2015-09-22T11:23:17Z</time>
      </trkpt>
      <trkpt lat="42.34862" lon="0.10798">
        <ele>841.1</ele>
        <time>2015-09-22T11:23:18Z</time>
      </trkpt>
      <trkpt lat="42.3486" lon="0.10802">
        <ele>841</ele>
        <time>2015-09-22T11:23:19Z</time>
      </trkpt>
      <trkpt lat="42.34858" lon="0.10806">
        <ele>841</ele>
        <time>2015-09-22T11:23:20Z</time>
      </trkpt>
      <trkpt lat="42.34857" lon="0.1081">
        <ele>840.9</ele>
        <time>2015-09-22T11:23:21Z</time>
      </trkpt>
      <trkpt lat="42.34856" lon="0.10815">
        <ele>840.8</ele>
        <time>2015-09-22T11:23:22Z</time>
      </trkpt>
      <trkpt lat="42.34855" lon="0.10819">
        <ele>840.8</ele>
        <time>2015-09-22T11:23:23Z</time>
      </trkpt>
      <trkpt lat="42.34854" lon="0.10823">
        <ele>840.7</ele>
        <time>2015-09-22T11:23:24Z</time>
      </trkpt>
      <trkpt lat="42.34852" lon="0.10827">
        <ele>840.6</ele>
        <time>2015-09-22T11:23:25Z</time>
      </trkpt>
      <trkpt lat="42.34851" lon="0.10832">
        <ele>840.5</ele>
        <time>2015-09-22T11:23:26Z</time>
      </trkpt>
      <trkpt lat="42.3485" lon="0.10836">
        <ele>840.4</ele>
        <time>2015-09-22T11:23:27Z</time>
      </trkpt>
      <trkpt lat="42.3485" lon="0.10841">
        <ele>840.3</ele>
        <time>2015-09-22T11:23:28Z</time>
      </trkpt>
      <trkpt lat="42.34849" lon="0.10847">
        <ele>840.2</ele>
        <time>2015-09-22T11:23:29Z</time>
      </trkpt>
      <trkpt lat="42.34849" lon="0.10852">
        <ele>840.1</ele>
        <time>2015-09-22T11:23:30Z</time>
      </trkpt>
      <trkpt lat="42.3485" lon="0.10858">
        <ele>840</ele>
        <time>2015-09-22T11:23:31Z</time>
      </trkpt>
      <trkpt lat="42.3485" lon="0.10864">
        <ele>839.9</ele>
        <time>2015-09-22T11:23:32Z</time>
      </trkpt>
      <trkpt lat="42.3485" lon="0.10872">
        <ele>839.8</ele>
        <time>2015-09-22T11:23:33Z</time>
      </trkpt>
      <trkpt lat="42.34848" lon="0.10883">
        <ele>839.3</ele>
        <time>2015-09-22T11:23:34Z</time>
      </trkpt>
      <trkpt lat="42.34848" lon="0.10887">
        <ele>839.1</ele>
        <time>2015-09-22T11:23:35Z</time>
      </trkpt>
      <trkpt lat="42.34847" lon="0.10892">
        <ele>838.8</ele>
        <time>2015-09-22T11:23:36Z</time>
      </trkpt>
      <trkpt lat="42.34847" lon="0.10898">
        <ele>838.5</ele>
        <time>2015-09-22T11:23:37Z</time>
      </trkpt>
      <trkpt lat="42.34846" lon="0.10903">
        <ele>838.2</ele>
        <time>2015-09-22T11:23:38Z</time>
      </trkpt>
      <trkpt lat="42.34845" lon="0.10907">
        <ele>838</ele>
        <time>2015-09-22T11:23:39Z</time>
      </trkpt>
      <trkpt lat="42.34843" lon="0.10912">
        <ele>837.8</ele>
        <time>2015-09-22T11:23:40Z</time>
      </trkpt>
      <trkpt lat="42.34842" lon="0.10917">
        <ele>837.6</ele>
        <time>2015-09-22T11:23:41Z</time>
      </trkpt>
      <trkpt lat="42.34841" lon="0.10924">
        <ele>837.3</ele>
        <time>2015-09-22T11:23:42Z</time>
      </trkpt>
      <trkpt lat="42.34841" lon="0.10929">
        <ele>837.1</ele>
        <time>2015-09-22T11:23:43Z</time>
      </trkpt>
      <trkpt lat="42.34839" lon="0.10933">
        <ele>836.9</ele>
        <time>2015-09-22T11:23:44Z</time>
      </trkpt>
      <trkpt lat="42.34839" lon="0.10937">
        <ele>836.7</ele>
        <time>2015-09-22T11:23:45Z</time>
      </trkpt>
      <trkpt lat="42.34838" lon="0.1094">
        <ele>836.6</ele>
        <time>2015-09-22T11:23:46Z</time>
      </trkpt>
      <trkpt lat="42.34836" lon="0.10944">
        <ele>836.5</ele>
        <time>2015-09-22T11:23:47Z</time>
      </trkpt>
      <trkpt lat="42.34835" lon="0.10949">
        <ele>836.3</ele>
        <time>2015-09-22T11:23:48Z</time>
      </trkpt>
      <trkpt lat="42.34834" lon="0.10953">
        <ele>836.2</ele>
        <time>2015-09-22T11:23:49Z</time>
      </trkpt>
      <trkpt lat="42.34833" lon="0.10957">
        <ele>836.1</ele>
        <time>2015-09-22T11:23:50Z</time>
      </trkpt>
      <trkpt lat="42.34831" lon="0.10961">
        <ele>835.8</ele>
        <time>2015-09-22T11:23:51Z</time>
      </trkpt>
      <trkpt lat="42.3483" lon="0.10965">
        <ele>835.5</ele>
        <time>2015-09-22T11:23:52Z</time>
      </trkpt>
      <trkpt lat="42.3483" lon="0.10971">
        <ele>834.9</ele>
        <time>2015-09-22T11:23:54Z</time>
      </trkpt>
      <trkpt lat="42.3483" lon="0.10978">
        <ele>834.2</ele>
        <time>2015-09-22T11:24:00Z</time>
      </trkpt>
      <trkpt lat="42.34828" lon="0.10984">
        <ele>833.7</ele>
        <time>2015-09-22T11:24:02Z</time>
      </trkpt>
      <trkpt lat="42.34827" lon="0.10988">
        <ele>833.3</ele>
        <time>2015-09-22T11:24:03Z</time>
      </trkpt>
      <trkpt lat="42.34826" lon="0.10993">
        <ele>833</ele>
        <time>2015-09-22T11:24:04Z</time>
      </trkpt>
      <trkpt lat="42.34824" lon="0.10997">
        <ele>832.7</ele>
        <time>2015-09-22T11:24:05Z</time>
      </trkpt>
      <trkpt lat="42.34823" lon="0.11001">
        <ele>832.4</ele>
        <time>2015-09-22T11:24:06Z</time>
      </trkpt>
      <trkpt lat="42.34822" lon="0.11005">
        <ele>832</ele>
        <time>2015-09-22T11:24:07Z</time>
      </trkpt>
      <trkpt lat="42.34821" lon="0.1101">
        <ele>831.6</ele>
        <time>2015-09-22T11:24:08Z</time>
      </trkpt>
      <trkpt lat="42.3482" lon="0.11015">
        <ele>831.2</ele>
        <time>2015-09-22T11:24:09Z</time>
      </trkpt>
      <trkpt lat="42.34818" lon="0.1102">
        <ele>830.8</ele>
        <time>2015-09-22T11:24:10Z</time>
      </trkpt>
      <trkpt lat="42.34817" lon="0.11025">
        <ele>830.5</ele>
        <time>2015-09-22T11:24:11Z</time>
      </trkpt>
      <trkpt lat="42.34815" lon="0.1103">
        <ele>830.1</ele>
        <time>2015-09-22T11:24:12Z</time>
      </trkpt>
      <trkpt lat="42.34813" lon="0.11035">
        <ele>829.8</ele>
        <time>2015-09-22T11:24:13Z</time>
      </trkpt>
      <trkpt lat="42.34811" lon="0.11041">
        <ele>829.5</ele>
        <time>2015-09-22T11:24:14Z</time>
      </trkpt>
      <trkpt lat="42.34807" lon="0.11046">
        <ele>829.4</ele>
        <time>2015-09-22T11:24:15Z</time>
      </trkpt>
      <trkpt lat="42.34803" lon="0.11051">
        <ele>829.4</ele>
        <time>2015-09-22T11:24:16Z</time>
      </trkpt>
      <trkpt lat="42.34797" lon="0.1106">
        <ele>829.3</ele>
        <time>2015-09-22T11:24:17Z</time>
      </trkpt>
      <trkpt lat="42.34794" lon="0.11066">
        <ele>829.3</ele>
        <time>2015-09-22T11:24:18Z</time>
      </trkpt>
      <trkpt lat="42.34792" lon="0.11072">
        <ele>829.1</ele>
        <time>2015-09-22T11:24:19Z</time>
      </trkpt>
      <trkpt lat="42.34789" lon="0.11078">
        <ele>828.8</ele>
        <time>2015-09-22T11:24:20Z</time>
      </trkpt>
      <trkpt lat="42.34786" lon="0.11085">
        <ele>828.3</ele>
        <time>2015-09-22T11:24:21Z</time>
      </trkpt>
      <trkpt lat="42.34783" lon="0.11091">
        <ele>827.8</ele>
        <time>2015-09-22T11:24:22Z</time>
      </trkpt>
      <trkpt lat="42.34781" lon="0.11097">
        <ele>827.3</ele>
        <time>2015-09-22T11:24:23Z</time>
      </trkpt>
      <trkpt lat="42.34779" lon="0.11104">
        <ele>826.7</ele>
        <time>2015-09-22T11:24:24Z</time>
      </trkpt>
      <trkpt lat="42.34777" lon="0.11111">
        <ele>826.1</ele>
        <time>2015-09-22T11:24:25Z</time>
      </trkpt>
      <trkpt lat="42.34775" lon="0.11118">
        <ele>825.5</ele>
        <time>2015-09-22T11:24:26Z</time>
      </trkpt>
      <trkpt lat="42.34772" lon="0.11124">
        <ele>824.9</ele>
        <time>2015-09-22T11:24:27Z</time>
      </trkpt>
      <trkpt lat="42.3477" lon="0.11131">
        <ele>824.3</ele>
        <time>2015-09-22T11:24:28Z</time>
      </trkpt>
      <trkpt lat="42.34769" lon="0.11137">
        <ele>823.7</ele>
        <time>2015-09-22T11:24:29Z</time>
      </trkpt>
      <trkpt lat="42.34766" lon="0.11143">
        <ele>823</ele>
        <time>2015-09-22T11:24:30Z</time>
      </trkpt>
      <trkpt lat="42.34763" lon="0.11148">
        <ele>822.4</ele>
        <time>2015-09-22T11:24:31Z</time>
      </trkpt>
      <trkpt lat="42.34759" lon="0.11151">
        <ele>821.9</ele>
        <time>2015-09-22T11:24:32Z</time>
      </trkpt>
      <trkpt lat="42.34754" lon="0.11154">
        <ele>821.4</ele>
        <time>2015-09-22T11:24:33Z</time>
      </trkpt>
      <trkpt lat="42.3475" lon="0.11156">
        <ele>820.9</ele>
        <time>2015-09-22T11:24:34Z</time>
      </trkpt>
      <trkpt lat="42.34745" lon="0.11159">
        <ele>820.3</ele>
        <time>2015-09-22T11:24:35Z</time>
      </trkpt>
      <trkpt lat="42.34741" lon="0.11163">
        <ele>819.6</ele>
        <time>2015-09-22T11:24:36Z</time>
      </trkpt>
      <trkpt lat="42.34737" lon="0.11167">
        <ele>819</ele>
        <time>2015-09-22T11:24:37Z</time>
      </trkpt>
      <trkpt lat="42.34734" lon="0.11171">
        <ele>818.5</ele>
        <time>2015-09-22T11:24:38Z</time>
      </trkpt>
      <trkpt lat="42.3473" lon="0.11174">
        <ele>817.9</ele>
        <time>2015-09-22T11:24:39Z</time>
      </trkpt>
      <trkpt lat="42.34727" lon="0.11177">
        <ele>817.4</ele>
        <time>2015-09-22T11:24:40Z</time>
      </trkpt>
      <trkpt lat="42.34724" lon="0.11181">
        <ele>816.8</ele>
        <time>2015-09-22T11:24:41Z</time>
      </trkpt>
      <trkpt lat="42.34721" lon="0.11184">
        <ele>816.3</ele>
        <time>2015-09-22T11:24:42Z</time>
      </trkpt>
      <trkpt lat="42.34717" lon="0.11187">
        <ele>815.8</ele>
        <time>2015-09-22T11:24:43Z</time>
      </trkpt>
      <trkpt lat="42.34714" lon="0.11189">
        <ele>815.3</ele>
        <time>2015-09-22T11:24:44Z</time>
      </trkpt>
      <trkpt lat="42.34712" lon="0.11194">
        <ele>814.7</ele>
        <time>2015-09-22T11:24:45Z</time>
      </trkpt>
      <trkpt lat="42.34709" lon="0.11198">
        <ele>814</ele>
        <time>2015-09-22T11:24:46Z</time>
      </trkpt>
      <trkpt lat="42.34705" lon="0.11202">
        <ele>813.4</ele>
        <time>2015-09-22T11:24:47Z</time>
      </trkpt>
      <trkpt lat="42.34701" lon="0.11205">
        <ele>812.9</ele>
        <time>2015-09-22T11:24:48Z</time>
      </trkpt>
      <trkpt lat="42.34697" lon="0.11208">
        <ele>812.2</ele>
        <time>2015-09-22T11:24:49Z</time>
      </trkpt>
      <trkpt lat="42.34693" lon="0.11212">
        <ele>811.8</ele>
        <time>2015-09-22T11:24:50Z</time>
      </trkpt>
      <trkpt lat="42.34689" lon="0.11217">
        <ele>811.3</ele>
        <time>2015-09-22T11:24:51Z</time>
      </trkpt>
      <trkpt lat="42.34686" lon="0.11222">
        <ele>810.9</ele>
        <time>2015-09-22T11:24:52Z</time>
      </trkpt>
      <trkpt lat="42.34683" lon="0.11228">
        <ele>810.3</ele>
        <time>2015-09-22T11:24:53Z</time>
      </trkpt>
      <trkpt lat="42.3468" lon="0.11233">
        <ele>809.8</ele>
        <time>2015-09-22T11:24:54Z</time>
      </trkpt>
      <trkpt lat="42.34677" lon="0.11239">
        <ele>809.2</ele>
        <time>2015-09-22T11:24:55Z</time>
      </trkpt>
      <trkpt lat="42.34675" lon="0.11244">
        <ele>808.6</ele>
        <time>2015-09-22T11:24:56Z</time>
      </trkpt>
      <trkpt lat="42.34672" lon="0.1125">
        <ele>807.9</ele>
        <time>2015-09-22T11:24:57Z</time>
      </trkpt>
      <trkpt lat="42.34668" lon="0.11255">
        <ele>807.1</ele>
        <time>2015-09-22T11:24:58Z</time>
      </trkpt>
      <trkpt lat="42.34664" lon="0.11259">
        <ele>806.2</ele>
        <time>2015-09-22T11:24:59Z</time>
      </trkpt>
      <trkpt lat="42.34659" lon="0.11262">
        <ele>805.4</ele>
        <time>2015-09-22T11:25:00Z</time>
      </trkpt>
      <trkpt lat="42.34655" lon="0.11262">
        <ele>804.8</ele>
        <time>2015-09-22T11:25:01Z</time>
      </trkpt>
      <trkpt lat="42.34652" lon="0.11264">
        <ele>804.3</ele>
        <time>2015-09-22T11:25:03Z</time>
      </trkpt>
      <trkpt lat="42.34649" lon="0.11265">
        <ele>803.7</ele>
        <time>2015-09-22T11:25:06Z</time>
      </trkpt>
      <trkpt lat="42.34652" lon="0.11267">
        <ele>803.9</ele>
        <time>2015-09-22T11:25:14Z</time>
      </trkpt>
      <trkpt lat="42.34655" lon="0.11269">
        <ele>804.2</ele>
        <time>2015-09-22T11:25:18Z</time>
      </trkpt>
      <trkpt lat="42.34657" lon="0.11272">
        <ele>804.3</ele>
        <time>2015-09-22T11:25:22Z</time>
      </trkpt>
      <trkpt lat="42.34656" lon="0.11275">
        <ele>803.9</ele>
        <time>2015-09-22T11:25:25Z</time>
      </trkpt>
      <trkpt lat="42.34652" lon="0.11276">
        <ele>803.3</ele>
        <time>2015-09-22T11:25:28Z</time>
      </trkpt>
      <trkpt lat="42.34649" lon="0.11277">
        <ele>802.6</ele>
        <time>2015-09-22T11:25:29Z</time>
      </trkpt>
      <trkpt lat="42.34645" lon="0.11277">
        <ele>802</ele>
        <time>2015-09-22T11:25:30Z</time>
      </trkpt>
      <trkpt lat="42.34641" lon="0.11276">
        <ele>801.4</ele>
        <time>2015-09-22T11:25:31Z</time>
      </trkpt>
      <trkpt lat="42.34637" lon="0.11274">
        <ele>801</ele>
        <time>2015-09-22T11:25:32Z</time>
      </trkpt>
      <trkpt lat="42.34633" lon="0.11271">
        <ele>800.6</ele>
        <time>2015-09-22T11:25:33Z</time>
      </trkpt>
      <trkpt lat="42.34629" lon="0.1127">
        <ele>800.2</ele>
        <time>2015-09-22T11:25:34Z</time>
      </trkpt>
      <trkpt lat="42.34624" lon="0.11268">
        <ele>799.7</ele>
        <time>2015-09-22T11:25:35Z</time>
      </trkpt>
      <trkpt lat="42.34621" lon="0.11266">
        <ele>799.7</ele>
        <time>2015-09-22T11:25:36Z</time>
      </trkpt>
      <trkpt lat="42.34618" lon="0.11263">
        <ele>799.7</ele>
        <time>2015-09-22T11:25:37Z</time>
      </trkpt>
      <trkpt lat="42.34614" lon="0.11261">
        <ele>799.6</ele>
        <time>2015-09-22T11:25:38Z</time>
      </trkpt>
      <trkpt lat="42.34611" lon="0.11261">
        <ele>799.3</ele>
        <time>2015-09-22T11:25:39Z</time>
      </trkpt>
      <trkpt lat="42.34608" lon="0.11262">
        <ele>798.9</ele>
        <time>2015-09-22T11:25:40Z</time>
      </trkpt>
      <trkpt lat="42.34606" lon="0.11264">
        <ele>798.5</ele>
        <time>2015-09-22T11:25:41Z</time>
      </trkpt>
      <trkpt lat="42.34602" lon="0.11269">
        <ele>797.6</ele>
        <time>2015-09-22T11:25:43Z</time>
      </trkpt>
      <trkpt lat="42.34602" lon="0.11275">
        <ele>796.9</ele>
        <time>2015-09-22T11:25:45Z</time>
      </trkpt>
      <trkpt lat="42.34604" lon="0.1128">
        <ele>796.5</ele>
        <time>2015-09-22T11:25:47Z</time>
      </trkpt>
      <trkpt lat="42.34604" lon="0.11285">
        <ele>796</ele>
        <time>2015-09-22T11:25:49Z</time>
      </trkpt>
      <trkpt lat="42.34601" lon="0.11287">
        <ele>795.5</ele>
        <time>2015-09-22T11:25:51Z</time>
      </trkpt>
      <trkpt lat="42.34597" lon="0.11289">
        <ele>795</ele>
        <time>2015-09-22T11:25:53Z</time>
      </trkpt>
      <trkpt lat="42.34593" lon="0.1129">
        <ele>794.5</ele>
        <time>2015-09-22T11:25:55Z</time>
      </trkpt>
      <trkpt lat="42.34588" lon="0.11287">
        <ele>794.4</ele>
        <time>2015-09-22T11:25:57Z</time>
      </trkpt>
      <trkpt lat="42.34583" lon="0.11285">
        <ele>794.2</ele>
        <time>2015-09-22T11:25:58Z</time>
      </trkpt>
      <trkpt lat="42.34579" lon="0.11283">
        <ele>794</ele>
        <time>2015-09-22T11:25:59Z</time>
      </trkpt>
      <trkpt lat="42.34575" lon="0.11282">
        <ele>793.8</ele>
        <time>2015-09-22T11:26:00Z</time>
      </trkpt>
      <trkpt lat="42.34572" lon="0.1128">
        <ele>793.7</ele>
        <time>2015-09-22T11:26:01Z</time>
      </trkpt>
      <trkpt lat="42.34568" lon="0.11276">
        <ele>793.7</ele>
        <time>2015-09-22T11:26:03Z</time>
      </trkpt>
      <trkpt lat="42.34564" lon="0.11272">
        <ele>793.7</ele>
        <time>2015-09-22T11:26:05Z</time>
      </trkpt>
      <trkpt lat="42.34561" lon="0.11271">
        <ele>793.5</ele>
        <time>2015-09-22T11:26:06Z</time>
      </trkpt>
      <trkpt lat="42.34557" lon="0.11271">
        <ele>793.2</ele>
        <time>2015-09-22T11:26:07Z</time>
      </trkpt>
      <trkpt lat="42.34552" lon="0.11272">
        <ele>792.7</ele>
        <time>2015-09-22T11:26:08Z</time>
      </trkpt>
      <trkpt lat="42.34548" lon="0.11274">
        <ele>792.1</ele>
        <time>2015-09-22T11:26:09Z</time>
      </trkpt>
      <trkpt lat="42.34544" lon="0.11275">
        <ele>791.7</ele>
        <time>2015-09-22T11:26:10Z</time>
      </trkpt>
      <trkpt lat="42.34542" lon="0.1128">
        <ele>791</ele>
        <time>2015-09-22T11:26:11Z</time>
      </trkpt>
      <trkpt lat="42.34539" lon="0.11282">
        <ele>790.6</ele>
        <time>2015-09-22T11:26:12Z</time>
      </trkpt>
      <trkpt lat="42.34536" lon="0.11283">
        <ele>790.2</ele>
        <time>2015-09-22T11:26:13Z</time>
      </trkpt>
      <trkpt lat="42.34533" lon="0.11284">
        <ele>789.9</ele>
        <time>2015-09-22T11:26:14Z</time>
      </trkpt>
      <trkpt lat="42.3453" lon="0.11286">
        <ele>789.6</ele>
        <time>2015-09-22T11:26:15Z</time>
      </trkpt>
      <trkpt lat="42.34528" lon="0.11292">
        <ele>788.8</ele>
        <time>2015-09-22T11:26:17Z</time>
      </trkpt>
      <trkpt lat="42.34529" lon="0.11296">
        <ele>789</ele>
        <time>2015-09-22T11:26:18Z</time>
      </trkpt>
      <trkpt lat="42.34531" lon="0.11299">
        <ele>789.2</ele>
        <time>2015-09-22T11:26:19Z</time>
      </trkpt>
      <trkpt lat="42.34533" lon="0.11303">
        <ele>789.3</ele>
        <time>2015-09-22T11:26:21Z</time>
      </trkpt>
      <trkpt lat="42.34532" lon="0.11308">
        <ele>789.3</ele>
        <time>2015-09-22T11:26:23Z</time>
      </trkpt>
      <trkpt lat="42.34527" lon="0.11313">
        <ele>789.1</ele>
        <time>2015-09-22T11:26:25Z</time>
      </trkpt>
      <trkpt lat="42.34524" lon="0.11315">
        <ele>789</ele>
        <time>2015-09-22T11:26:26Z</time>
      </trkpt>
      <trkpt lat="42.34521" lon="0.11317">
        <ele>788.9</ele>
        <time>2015-09-22T11:26:27Z</time>
      </trkpt>
      <trkpt lat="42.34519" lon="0.11321">
        <ele>788.9</ele>
        <time>2015-09-22T11:26:28Z</time>
      </trkpt>
      <trkpt lat="42.34519" lon="0.11325">
        <ele>788.9</ele>
        <time>2015-09-22T11:26:29Z</time>
      </trkpt>
      <trkpt lat="42.34518" lon="0.11329">
        <ele>789</ele>
        <time>2015-09-22T11:26:30Z</time>
      </trkpt>
      <trkpt lat="42.34518" lon="0.11334">
        <ele>789.2</ele>
        <time>2015-09-22T11:26:31Z</time>
      </trkpt>
      <trkpt lat="42.34518" lon="0.11338">
        <ele>789.3</ele>
        <time>2015-09-22T11:26:32Z</time>
      </trkpt>
      <trkpt lat="42.34518" lon="0.11342">
        <ele>789.4</ele>
        <time>2015-09-22T11:26:33Z</time>
      </trkpt>
      <trkpt lat="42.34517" lon="0.11346">
        <ele>789.5</ele>
        <time>2015-09-22T11:26:34Z</time>
      </trkpt>
      <trkpt lat="42.34515" lon="0.11349">
        <ele>789.5</ele>
        <time>2015-09-22T11:26:35Z</time>
      </trkpt>
      <trkpt lat="42.34512" lon="0.11352">
        <ele>789.6</ele>
        <time>2015-09-22T11:26:36Z</time>
      </trkpt>
      <trkpt lat="42.34508" lon="0.11355">
        <ele>789.6</ele>
        <time>2015-09-22T11:26:37Z</time>
      </trkpt>
      <trkpt lat="42.34505" lon="0.11357">
        <ele>789.7</ele>
        <time>2015-09-22T11:26:38Z</time>
      </trkpt>
      <trkpt lat="42.34501" lon="0.11359">
        <ele>789.7</ele>
        <time>2015-09-22T11:26:39Z</time>
      </trkpt>
      <trkpt lat="42.34498" lon="0.11361">
        <ele>789.8</ele>
        <time>2015-09-22T11:26:40Z</time>
      </trkpt>
      <trkpt lat="42.34494" lon="0.11365">
        <ele>790</ele>
        <time>2015-09-22T11:26:41Z</time>
      </trkpt>
      <trkpt lat="42.3449" lon="0.11368">
        <ele>790.2</ele>
        <time>2015-09-22T11:26:42Z</time>
      </trkpt>
      <trkpt lat="42.34487" lon="0.11373">
        <ele>790.5</ele>
        <time>2015-09-22T11:26:43Z</time>
      </trkpt>
      <trkpt lat="42.3448" lon="0.1138">
        <ele>790.6</ele>
        <time>2015-09-22T11:26:44Z</time>
      </trkpt>
      <trkpt lat="42.34475" lon="0.11383">
        <ele>790.7</ele>
        <time>2015-09-22T11:26:45Z</time>
      </trkpt>
      <trkpt lat="42.34472" lon="0.11387">
        <ele>790.8</ele>
        <time>2015-09-22T11:26:46Z</time>
      </trkpt>
      <trkpt lat="42.3447" lon="0.11393">
        <ele>790.9</ele>
        <time>2015-09-22T11:26:47Z</time>
      </trkpt>
      <trkpt lat="42.34467" lon="0.11399">
        <ele>791</ele>
        <time>2015-09-22T11:26:48Z</time>
      </trkpt>
      <trkpt lat="42.34463" lon="0.11404">
        <ele>791.3</ele>
        <time>2015-09-22T11:26:49Z</time>
      </trkpt>
      <trkpt lat="42.34461" lon="0.11409">
        <ele>791.6</ele>
        <time>2015-09-22T11:26:50Z</time>
      </trkpt>
      <trkpt lat="42.34458" lon="0.11414">
        <ele>791.9</ele>
        <time>2015-09-22T11:26:51Z</time>
      </trkpt>
      <trkpt lat="42.34455" lon="0.11418">
        <ele>792</ele>
        <time>2015-09-22T11:26:52Z</time>
      </trkpt>
      <trkpt lat="42.34454" lon="0.11424">
        <ele>792.2</ele>
        <time>2015-09-22T11:26:53Z</time>
      </trkpt>
      <trkpt lat="42.34453" lon="0.11432">
        <ele>792.4</ele>
        <time>2015-09-22T11:26:54Z</time>
      </trkpt>
      <trkpt lat="42.34449" lon="0.11436">
        <ele>792.6</ele>
        <time>2015-09-22T11:26:55Z</time>
      </trkpt>
      <trkpt lat="42.34446" lon="0.1144">
        <ele>792.8</ele>
        <time>2015-09-22T11:26:56Z</time>
      </trkpt>
      <trkpt lat="42.34443" lon="0.11445">
        <ele>793</ele>
        <time>2015-09-22T11:26:57Z</time>
      </trkpt>
      <trkpt lat="42.34441" lon="0.1145">
        <ele>793.3</ele>
        <time>2015-09-22T11:26:58Z</time>
      </trkpt>
      <trkpt lat="42.34438" lon="0.11455">
        <ele>793.6</ele>
        <time>2015-09-22T11:26:59Z</time>
      </trkpt>
      <trkpt lat="42.34434" lon="0.11459">
        <ele>793.7</ele>
        <time>2015-09-22T11:27:00Z</time>
      </trkpt>
      <trkpt lat="42.34431" lon="0.11464">
        <ele>792.9</ele>
        <time>2015-09-22T11:27:01Z</time>
      </trkpt>
      <trkpt lat="42.34428" lon="0.11467">
        <ele>792.4</ele>
        <time>2015-09-22T11:27:02Z</time>
      </trkpt>
      <trkpt lat="42.34425" lon="0.11471">
        <ele>791.9</ele>
        <time>2015-09-22T11:27:03Z</time>
      </trkpt>
      <trkpt lat="42.34422" lon="0.11473">
        <ele>791.6</ele>
        <time>2015-09-22T11:27:04Z</time>
      </trkpt>
      <trkpt lat="42.34419" lon="0.11475">
        <ele>791.3</ele>
        <time>2015-09-22T11:27:05Z</time>
      </trkpt>
      <trkpt lat="42.34416" lon="0.1148">
        <ele>790.7</ele>
        <time>2015-09-22T11:27:07Z</time>
      </trkpt>
      <trkpt lat="42.34413" lon="0.11486">
        <ele>789.7</ele>
        <time>2015-09-22T11:27:09Z</time>
      </trkpt>
      <trkpt lat="42.34411" lon="0.1149">
        <ele>789.1</ele>
        <time>2015-09-22T11:27:10Z</time>
      </trkpt>
      <trkpt lat="42.34409" lon="0.11496">
        <ele>788.4</ele>
        <time>2015-09-22T11:27:11Z</time>
      </trkpt>
      <trkpt lat="42.34406" lon="0.115">
        <ele>787.7</ele>
        <time>2015-09-22T11:27:12Z</time>
      </trkpt>
      <trkpt lat="42.34404" lon="0.11505">
        <ele>787.1</ele>
        <time>2015-09-22T11:27:13Z</time>
      </trkpt>
      <trkpt lat="42.344" lon="0.11509">
        <ele>786.7</ele>
        <time>2015-09-22T11:27:14Z</time>
      </trkpt>
      <trkpt lat="42.34397" lon="0.11512">
        <ele>786.5</ele>
        <time>2015-09-22T11:27:15Z</time>
      </trkpt>
      <trkpt lat="42.34394" lon="0.11515">
        <ele>786.2</ele>
        <time>2015-09-22T11:27:16Z</time>
      </trkpt>
      <trkpt lat="42.34392" lon="0.11519">
        <ele>785.8</ele>
        <time>2015-09-22T11:27:17Z</time>
      </trkpt>
      <trkpt lat="42.3439" lon="0.11525">
        <ele>785</ele>
        <time>2015-09-22T11:27:19Z</time>
      </trkpt>
      <trkpt lat="42.34388" lon="0.11529">
        <ele>784.6</ele>
        <time>2015-09-22T11:27:20Z</time>
      </trkpt>
      <trkpt lat="42.34383" lon="0.11534">
        <ele>784.4</ele>
        <time>2015-09-22T11:27:21Z</time>
      </trkpt>
      <trkpt lat="42.3438" lon="0.11538">
        <ele>784</ele>
        <time>2015-09-22T11:27:22Z</time>
      </trkpt>
      <trkpt lat="42.34375" lon="0.11541">
        <ele>784</ele>
        <time>2015-09-22T11:27:23Z</time>
      </trkpt>
      <trkpt lat="42.34371" lon="0.11546">
        <ele>782.7</ele>
        <time>2015-09-22T11:27:24Z</time>
      </trkpt>
      <trkpt lat="42.34368" lon="0.11552">
        <ele>781.3</ele>
        <time>2015-09-22T11:27:25Z</time>
      </trkpt>
      <trkpt lat="42.34364" lon="0.11554">
        <ele>780.4</ele>
        <time>2015-09-22T11:27:26Z</time>
      </trkpt>
      <trkpt lat="42.34361" lon="0.11557">
        <ele>779.6</ele>
        <time>2015-09-22T11:27:27Z</time>
      </trkpt>
      <trkpt lat="42.34358" lon="0.11563">
        <ele>778.2</ele>
        <time>2015-09-22T11:27:28Z</time>
      </trkpt>
      <trkpt lat="42.34355" lon="0.11569">
        <ele>777</ele>
        <time>2015-09-22T11:27:29Z</time>
      </trkpt>
      <trkpt lat="42.34352" lon="0.11575">
        <ele>775.7</ele>
        <time>2015-09-22T11:27:30Z</time>
      </trkpt>
      <trkpt lat="42.34348" lon="0.1158">
        <ele>774.4</ele>
        <time>2015-09-22T11:27:31Z</time>
      </trkpt>
      <trkpt lat="42.34343" lon="0.11584">
        <ele>773.2</ele>
        <time>2015-09-22T11:27:32Z</time>
      </trkpt>
      <trkpt lat="42.34338" lon="0.11587">
        <ele>772.4</ele>
        <time>2015-09-22T11:27:33Z</time>
      </trkpt>
      <trkpt lat="42.34334" lon="0.11589">
        <ele>771.7</ele>
        <time>2015-09-22T11:27:34Z</time>
      </trkpt>
      <trkpt lat="42.34329" lon="0.1159">
        <ele>771.2</ele>
        <time>2015-09-22T11:27:35Z</time>
      </trkpt>
      <trkpt lat="42.34326" lon="0.11593">
        <ele>770.5</ele>
        <time>2015-09-22T11:27:36Z</time>
      </trkpt>
      <trkpt lat="42.34324" lon="0.11598">
        <ele>769.7</ele>
        <time>2015-09-22T11:27:37Z</time>
      </trkpt>
      <trkpt lat="42.34322" lon="0.116">
        <ele>769.1</ele>
        <time>2015-09-22T11:27:38Z</time>
      </trkpt>
      <trkpt lat="42.34319" lon="0.11602">
        <ele>768.6</ele>
        <time>2015-09-22T11:27:39Z</time>
      </trkpt>
      <trkpt lat="42.34316" lon="0.11605">
        <ele>768.1</ele>
        <time>2015-09-22T11:27:40Z</time>
      </trkpt>
      <trkpt lat="42.34315" lon="0.11609">
        <ele>767.4</ele>
        <time>2015-09-22T11:27:41Z</time>
      </trkpt>
      <trkpt lat="42.34313" lon="0.11613">
        <ele>766.7</ele>
        <time>2015-09-22T11:27:42Z</time>
      </trkpt>
      <trkpt lat="42.34309" lon="0.11617">
        <ele>766.1</ele>
        <time>2015-09-22T11:27:43Z</time>
      </trkpt>
      <trkpt lat="42.34306" lon="0.1162">
        <ele>765.4</ele>
        <time>2015-09-22T11:27:44Z</time>
      </trkpt>
      <trkpt lat="42.34302" lon="0.11623">
        <ele>764.9</ele>
        <time>2015-09-22T11:27:45Z</time>
      </trkpt>
      <trkpt lat="42.34298" lon="0.11625">
        <ele>764.4</ele>
        <time>2015-09-22T11:27:46Z</time>
      </trkpt>
      <trkpt lat="42.34295" lon="0.11626">
        <ele>764.1</ele>
        <time>2015-09-22T11:27:47Z</time>
      </trkpt>
      <trkpt lat="42.34291" lon="0.11625">
        <ele>763.9</ele>
        <time>2015-09-22T11:27:48Z</time>
      </trkpt>
      <trkpt lat="42.34288" lon="0.11623">
        <ele>763.6</ele>
        <time>2015-09-22T11:27:49Z</time>
      </trkpt>
      <trkpt lat="42.34284" lon="0.11623">
        <ele>763.3</ele>
        <time>2015-09-22T11:27:50Z</time>
      </trkpt>
      <trkpt lat="42.3428" lon="0.11623">
        <ele>762.7</ele>
        <time>2015-09-22T11:27:51Z</time>
      </trkpt>
      <trkpt lat="42.34276" lon="0.11623">
        <ele>762.2</ele>
        <time>2015-09-22T11:27:52Z</time>
      </trkpt>
      <trkpt lat="42.34273" lon="0.11623">
        <ele>761.8</ele>
        <time>2015-09-22T11:27:53Z</time>
      </trkpt>
      <trkpt lat="42.3427" lon="0.1162">
        <ele>761.8</ele>
        <time>2015-09-22T11:27:54Z</time>
      </trkpt>
      <trkpt lat="42.34269" lon="0.11616">
        <ele>762.1</ele>
        <time>2015-09-22T11:27:55Z</time>
      </trkpt>
      <trkpt lat="42.34267" lon="0.11612">
        <ele>762.4</ele>
        <time>2015-09-22T11:27:56Z</time>
      </trkpt>
      <trkpt lat="42.34264" lon="0.11609">
        <ele>762.5</ele>
        <time>2015-09-22T11:27:57Z</time>
      </trkpt>
      <trkpt lat="42.34261" lon="0.11608">
        <ele>762.2</ele>
        <time>2015-09-22T11:27:58Z</time>
      </trkpt>
      <trkpt lat="42.34257" lon="0.11609">
        <ele>761.7</ele>
        <time>2015-09-22T11:27:59Z</time>
      </trkpt>
      <trkpt lat="42.34254" lon="0.11611">
        <ele>760.9</ele>
        <time>2015-09-22T11:28:00Z</time>
      </trkpt>
      <trkpt lat="42.34249" lon="0.11614">
        <ele>759.9</ele>
        <time>2015-09-22T11:28:01Z</time>
      </trkpt>
      <trkpt lat="42.34244" lon="0.11622">
        <ele>758.1</ele>
        <time>2015-09-22T11:28:02Z</time>
      </trkpt>
      <trkpt lat="42.34239" lon="0.11626">
        <ele>757.1</ele>
        <time>2015-09-22T11:28:03Z</time>
      </trkpt>
      <trkpt lat="42.34235" lon="0.11629">
        <ele>756.4</ele>
        <time>2015-09-22T11:28:04Z</time>
      </trkpt>
      <trkpt lat="42.34232" lon="0.11633">
        <ele>755.8</ele>
        <time>2015-09-22T11:28:05Z</time>
      </trkpt>
      <trkpt lat="42.3423" lon="0.11639">
        <ele>755.4</ele>
        <time>2015-09-22T11:28:06Z</time>
      </trkpt>
      <trkpt lat="42.34228" lon="0.11644">
        <ele>754.8</ele>
        <time>2015-09-22T11:28:07Z</time>
      </trkpt>
      <trkpt lat="42.34226" lon="0.1165">
        <ele>754.3</ele>
        <time>2015-09-22T11:28:08Z</time>
      </trkpt>
      <trkpt lat="42.34223" lon="0.11655">
        <ele>753.7</ele>
        <time>2015-09-22T11:28:09Z</time>
      </trkpt>
      <trkpt lat="42.34219" lon="0.1166">
        <ele>753</ele>
        <time>2015-09-22T11:28:10Z</time>
      </trkpt>
      <trkpt lat="42.34214" lon="0.11665">
        <ele>752.3</ele>
        <time>2015-09-22T11:28:11Z</time>
      </trkpt>
      <trkpt lat="42.34211" lon="0.11671">
        <ele>751.6</ele>
        <time>2015-09-22T11:28:12Z</time>
      </trkpt>
      <trkpt lat="42.34208" lon="0.11677">
        <ele>751</ele>
        <time>2015-09-22T11:28:13Z</time>
      </trkpt>
      <trkpt lat="42.34204" lon="0.11683">
        <ele>750.3</ele>
        <time>2015-09-22T11:28:14Z</time>
      </trkpt>
      <trkpt lat="42.34201" lon="0.11691">
        <ele>749.7</ele>
        <time>2015-09-22T11:28:15Z</time>
      </trkpt>
      <trkpt lat="42.34198" lon="0.11698">
        <ele>748.9</ele>
        <time>2015-09-22T11:28:16Z</time>
      </trkpt>
      <trkpt lat="42.34194" lon="0.11704">
        <ele>748.1</ele>
        <time>2015-09-22T11:28:17Z</time>
      </trkpt>
      <trkpt lat="42.34189" lon="0.1171">
        <ele>747.3</ele>
        <time>2015-09-22T11:28:18Z</time>
      </trkpt>
      <trkpt lat="42.34185" lon="0.11717">
        <ele>747.1</ele>
        <time>2015-09-22T11:28:19Z</time>
      </trkpt>
      <trkpt lat="42.3418" lon="0.11722">
        <ele>746.8</ele>
        <time>2015-09-22T11:28:20Z</time>
      </trkpt>
      <trkpt lat="42.34175" lon="0.11728">
        <ele>746.7</ele>
        <time>2015-09-22T11:28:21Z</time>
      </trkpt>
      <trkpt lat="42.34171" lon="0.11732">
        <ele>746.5</ele>
        <time>2015-09-22T11:28:22Z</time>
      </trkpt>
      <trkpt lat="42.34167" lon="0.11736">
        <ele>746.4</ele>
        <time>2015-09-22T11:28:23Z</time>
      </trkpt>
      <trkpt lat="42.34164" lon="0.1174">
        <ele>746.4</ele>
        <time>2015-09-22T11:28:24Z</time>
      </trkpt>
      <trkpt lat="42.3416" lon="0.11742">
        <ele>746.1</ele>
        <time>2015-09-22T11:28:25Z</time>
      </trkpt>
      <trkpt lat="42.34156" lon="0.11743">
        <ele>745.8</ele>
        <time>2015-09-22T11:28:26Z</time>
      </trkpt>
      <trkpt lat="42.34153" lon="0.11744">
        <ele>745.5</ele>
        <time>2015-09-22T11:28:27Z</time>
      </trkpt>
      <trkpt lat="42.34149" lon="0.11748">
        <ele>745.6</ele>
        <time>2015-09-22T11:28:28Z</time>
      </trkpt>
      <trkpt lat="42.34146" lon="0.11751">
        <ele>745.6</ele>
        <time>2015-09-22T11:28:29Z</time>
      </trkpt>
      <trkpt lat="42.34142" lon="0.11752">
        <ele>745.3</ele>
        <time>2015-09-22T11:28:30Z</time>
      </trkpt>
      <trkpt lat="42.34136" lon="0.11754">
        <ele>745.1</ele>
        <time>2015-09-22T11:28:31Z</time>
      </trkpt>
      <trkpt lat="42.34132" lon="0.11757">
        <ele>745</ele>
        <time>2015-09-22T11:28:32Z</time>
      </trkpt>
      <trkpt lat="42.34127" lon="0.1176">
        <ele>744.9</ele>
        <time>2015-09-22T11:28:33Z</time>
      </trkpt>
      <trkpt lat="42.34122" lon="0.11762">
        <ele>744.6</ele>
        <time>2015-09-22T11:28:34Z</time>
      </trkpt>
      <trkpt lat="42.34116" lon="0.11765">
        <ele>744.2</ele>
        <time>2015-09-22T11:28:35Z</time>
      </trkpt>
      <trkpt lat="42.34111" lon="0.11767">
        <ele>743.6</ele>
        <time>2015-09-22T11:28:36Z</time>
      </trkpt>
      <trkpt lat="42.34106" lon="0.11768">
        <ele>743.1</ele>
        <time>2015-09-22T11:28:37Z</time>
      </trkpt>
      <trkpt lat="42.34101" lon="0.11771">
        <ele>742.7</ele>
        <time>2015-09-22T11:28:38Z</time>
      </trkpt>
      <trkpt lat="42.34096" lon="0.11772">
        <ele>742.2</ele>
        <time>2015-09-22T11:28:39Z</time>
      </trkpt>
      <trkpt lat="42.34091" lon="0.11775">
        <ele>741.7</ele>
        <time>2015-09-22T11:28:40Z</time>
      </trkpt>
      <trkpt lat="42.34086" lon="0.11778">
        <ele>741.5</ele>
        <time>2015-09-22T11:28:41Z</time>
      </trkpt>
      <trkpt lat="42.34081" lon="0.1178">
        <ele>741</ele>
        <time>2015-09-22T11:28:42Z</time>
      </trkpt>
      <trkpt lat="42.34075" lon="0.11782">
        <ele>740.5</ele>
        <time>2015-09-22T11:28:43Z</time>
      </trkpt>
      <trkpt lat="42.34072" lon="0.11786">
        <ele>740.5</ele>
        <time>2015-09-22T11:28:44Z</time>
      </trkpt>
      <trkpt lat="42.34068" lon="0.11789">
        <ele>740.4</ele>
        <time>2015-09-22T11:28:45Z</time>
      </trkpt>
      <trkpt lat="42.34064" lon="0.11788">
        <ele>739.7</ele>
        <time>2015-09-22T11:28:46Z</time>
      </trkpt>
      <trkpt lat="42.3406" lon="0.1179">
        <ele>739.4</ele>
        <time>2015-09-22T11:28:47Z</time>
      </trkpt>
      <trkpt lat="42.34057" lon="0.11793">
        <ele>739.2</ele>
        <time>2015-09-22T11:28:48Z</time>
      </trkpt>
      <trkpt lat="42.34053" lon="0.11796">
        <ele>738.8</ele>
        <time>2015-09-22T11:28:49Z</time>
      </trkpt>
      <trkpt lat="42.34049" lon="0.11799">
        <ele>738.4</ele>
        <time>2015-09-22T11:28:50Z</time>
      </trkpt>
      <trkpt lat="42.34045" lon="0.11803">
        <ele>738</ele>
        <time>2015-09-22T11:28:51Z</time>
      </trkpt>
      <trkpt lat="42.34043" lon="0.11805">
        <ele>737.8</ele>
        <time>2015-09-22T11:28:52Z</time>
      </trkpt>
      <trkpt lat="42.34039" lon="0.11811">
        <ele>737.4</ele>
        <time>2015-09-22T11:28:53Z</time>
      </trkpt>
      <trkpt lat="42.34035" lon="0.11815">
        <ele>736.7</ele>
        <time>2015-09-22T11:28:54Z</time>
      </trkpt>
      <trkpt lat="42.34032" lon="0.11817">
        <ele>736.1</ele>
        <time>2015-09-22T11:28:55Z</time>
      </trkpt>
      <trkpt lat="42.34029" lon="0.11818">
        <ele>735.6</ele>
        <time>2015-09-22T11:28:56Z</time>
      </trkpt>
      <trkpt lat="42.34026" lon="0.1182">
        <ele>735.1</ele>
        <time>2015-09-22T11:28:57Z</time>
      </trkpt>
      <trkpt lat="42.34024" lon="0.11822">
        <ele>734.7</ele>
        <time>2015-09-22T11:28:58Z</time>
      </trkpt>
      <trkpt lat="42.34021" lon="0.11826">
        <ele>734.3</ele>
        <time>2015-09-22T11:29:00Z</time>
      </trkpt>
      <trkpt lat="42.34018" lon="0.11828">
        <ele>733.9</ele>
        <time>2015-09-22T11:29:01Z</time>
      </trkpt>
      <trkpt lat="42.34015" lon="0.11833">
        <ele>733.3</ele>
        <time>2015-09-22T11:29:02Z</time>
      </trkpt>
      <trkpt lat="42.3401" lon="0.11836">
        <ele>732.6</ele>
        <time>2015-09-22T11:29:03Z</time>
      </trkpt>
      <trkpt lat="42.34007" lon="0.1184">
        <ele>732.1</ele>
        <time>2015-09-22T11:29:04Z</time>
      </trkpt>
      <trkpt lat="42.34003" lon="0.11844">
        <ele>731.5</ele>
        <time>2015-09-22T11:29:05Z</time>
      </trkpt>
      <trkpt lat="42.33999" lon="0.11846">
        <ele>730.7</ele>
        <time>2015-09-22T11:29:06Z</time>
      </trkpt>
      <trkpt lat="42.33994" lon="0.11849">
        <ele>729.8</ele>
        <time>2015-09-22T11:29:07Z</time>
      </trkpt>
      <trkpt lat="42.33989" lon="0.11852">
        <ele>729</ele>
        <time>2015-09-22T11:29:08Z</time>
      </trkpt>
      <trkpt lat="42.33985" lon="0.11856">
        <ele>728.3</ele>
        <time>2015-09-22T11:29:09Z</time>
      </trkpt>
      <trkpt lat="42.33981" lon="0.11861">
        <ele>727.8</ele>
        <time>2015-09-22T11:29:10Z</time>
      </trkpt>
      <trkpt lat="42.33978" lon="0.11867">
        <ele>727.5</ele>
        <time>2015-09-22T11:29:11Z</time>
      </trkpt>
      <trkpt lat="42.33974" lon="0.11871">
        <ele>727</ele>
        <time>2015-09-22T11:29:12Z</time>
      </trkpt>
      <trkpt lat="42.3397" lon="0.11875">
        <ele>726.3</ele>
        <time>2015-09-22T11:29:13Z</time>
      </trkpt>
      <trkpt lat="42.33966" lon="0.11879">
        <ele>725.7</ele>
        <time>2015-09-22T11:29:14Z</time>
      </trkpt>
      <trkpt lat="42.33962" lon="0.11882">
        <ele>725.1</ele>
        <time>2015-09-22T11:29:15Z</time>
      </trkpt>
      <trkpt lat="42.33958" lon="0.11884">
        <ele>724.6</ele>
        <time>2015-09-22T11:29:16Z</time>
      </trkpt>
      <trkpt lat="42.33954" lon="0.11888">
        <ele>724.2</ele>
        <time>2015-09-22T11:29:17Z</time>
      </trkpt>
      <trkpt lat="42.3395" lon="0.11892">
        <ele>723.9</ele>
        <time>2015-09-22T11:29:18Z</time>
      </trkpt>
      <trkpt lat="42.33945" lon="0.11896">
        <ele>723.5</ele>
        <time>2015-09-22T11:29:19Z</time>
      </trkpt>
      <trkpt lat="42.33941" lon="0.119">
        <ele>723.1</ele>
        <time>2015-09-22T11:29:20Z</time>
      </trkpt>
      <trkpt lat="42.33937" lon="0.11905">
        <ele>723</ele>
        <time>2015-09-22T11:29:21Z</time>
      </trkpt>
      <trkpt lat="42.33933" lon="0.1191">
        <ele>722.8</ele>
        <time>2015-09-22T11:29:22Z</time>
      </trkpt>
      <trkpt lat="42.33928" lon="0.11914">
        <ele>722.3</ele>
        <time>2015-09-22T11:29:23Z</time>
      </trkpt>
      <trkpt lat="42.33923" lon="0.11917">
        <ele>721.9</ele>
        <time>2015-09-22T11:29:24Z</time>
      </trkpt>
      <trkpt lat="42.33918" lon="0.11917">
        <ele>721.3</ele>
        <time>2015-09-22T11:29:25Z</time>
      </trkpt>
      <trkpt lat="42.33914" lon="0.11919">
        <ele>720.8</ele>
        <time>2015-09-22T11:29:26Z</time>
      </trkpt>
      <trkpt lat="42.33909" lon="0.11921">
        <ele>720.3</ele>
        <time>2015-09-22T11:29:27Z</time>
      </trkpt>
      <trkpt lat="42.33904" lon="0.11923">
        <ele>719.7</ele>
        <time>2015-09-22T11:29:28Z</time>
      </trkpt>
      <trkpt lat="42.33899" lon="0.11925">
        <ele>719.1</ele>
        <time>2015-09-22T11:29:29Z</time>
      </trkpt>
      <trkpt lat="42.33892" lon="0.11927">
        <ele>718.4</ele>
        <time>2015-09-22T11:29:30Z</time>
      </trkpt>
      <trkpt lat="42.33888" lon="0.11929">
        <ele>718</ele>
        <time>2015-09-22T11:29:31Z</time>
      </trkpt>
      <trkpt lat="42.33884" lon="0.11934">
        <ele>717.9</ele>
        <time>2015-09-22T11:29:32Z</time>
      </trkpt>
      <trkpt lat="42.33879" lon="0.11939">
        <ele>717.7</ele>
        <time>2015-09-22T11:29:33Z</time>
      </trkpt>
      <trkpt lat="42.33875" lon="0.11944">
        <ele>717.5</ele>
        <time>2015-09-22T11:29:34Z</time>
      </trkpt>
      <trkpt lat="42.33869" lon="0.11947">
        <ele>717.2</ele>
        <time>2015-09-22T11:29:35Z</time>
      </trkpt>
      <trkpt lat="42.33865" lon="0.11951">
        <ele>717</ele>
        <time>2015-09-22T11:29:36Z</time>
      </trkpt>
      <trkpt lat="42.3386" lon="0.11955">
        <ele>716.7</ele>
        <time>2015-09-22T11:29:37Z</time>
      </trkpt>
      <trkpt lat="42.33857" lon="0.1196">
        <ele>716.5</ele>
        <time>2015-09-22T11:29:38Z</time>
      </trkpt>
      <trkpt lat="42.33853" lon="0.11963">
        <ele>716.2</ele>
        <time>2015-09-22T11:29:39Z</time>
      </trkpt>
      <trkpt lat="42.33849" lon="0.11966">
        <ele>715.9</ele>
        <time>2015-09-22T11:29:40Z</time>
      </trkpt>
      <trkpt lat="42.33843" lon="0.11968">
        <ele>715.4</ele>
        <time>2015-09-22T11:29:41Z</time>
      </trkpt>
      <trkpt lat="42.33837" lon="0.11971">
        <ele>714.9</ele>
        <time>2015-09-22T11:29:42Z</time>
      </trkpt>
      <trkpt lat="42.33831" lon="0.11974">
        <ele>714.5</ele>
        <time>2015-09-22T11:29:43Z</time>
      </trkpt>
      <trkpt lat="42.33825" lon="0.11978">
        <ele>714.2</ele>
        <time>2015-09-22T11:29:44Z</time>
      </trkpt>
      <trkpt lat="42.33819" lon="0.11981">
        <ele>713.8</ele>
        <time>2015-09-22T11:29:45Z</time>
      </trkpt>
      <trkpt lat="42.33812" lon="0.11984">
        <ele>713.4</ele>
        <time>2015-09-22T11:29:46Z</time>
      </trkpt>
      <trkpt lat="42.33806" lon="0.11987">
        <ele>713.2</ele>
        <time>2015-09-22T11:29:47Z</time>
      </trkpt>
      <trkpt lat="42.33802" lon="0.11992">
        <ele>713.4</ele>
        <time>2015-09-22T11:29:48Z</time>
      </trkpt>
      <trkpt lat="42.33797" lon="0.11998">
        <ele>713.6</ele>
        <time>2015-09-22T11:29:49Z</time>
      </trkpt>
      <trkpt lat="42.33791" lon="0.12002">
        <ele>713.7</ele>
        <time>2015-09-22T11:29:50Z</time>
      </trkpt>
      <trkpt lat="42.33786" lon="0.12004">
        <ele>713.3</ele>
        <time>2015-09-22T11:29:51Z</time>
      </trkpt>
      <trkpt lat="42.33781" lon="0.12007">
        <ele>712.9</ele>
        <time>2015-09-22T11:29:52Z</time>
      </trkpt>
      <trkpt lat="42.33776" lon="0.1201">
        <ele>712.4</ele>
        <time>2015-09-22T11:29:53Z</time>
      </trkpt>
      <trkpt lat="42.33771" lon="0.12011">
        <ele>711.9</ele>
        <time>2015-09-22T11:29:54Z</time>
      </trkpt>
      <trkpt lat="42.33766" lon="0.12011">
        <ele>710.9</ele>
        <time>2015-09-22T11:29:55Z</time>
      </trkpt>
      <trkpt lat="42.33761" lon="0.1201">
        <ele>710.1</ele>
        <time>2015-09-22T11:29:56Z</time>
      </trkpt>
      <trkpt lat="42.33757" lon="0.12011">
        <ele>709.5</ele>
        <time>2015-09-22T11:29:57Z</time>
      </trkpt>
      <trkpt lat="42.33754" lon="0.12012">
        <ele>709.1</ele>
        <time>2015-09-22T11:29:58Z</time>
      </trkpt>
      <trkpt lat="42.33751" lon="0.12016">
        <ele>708.8</ele>
        <time>2015-09-22T11:30:00Z</time>
      </trkpt>
      <trkpt lat="42.33748" lon="0.1202">
        <ele>708.5</ele>
        <time>2015-09-22T11:30:25Z</time>
      </trkpt>
      <trkpt lat="42.33743" lon="0.12024">
        <ele>707.7</ele>
        <time>2015-09-22T11:30:27Z</time>
      </trkpt>
      <trkpt lat="42.3374" lon="0.12026">
        <ele>707.2</ele>
        <time>2015-09-22T11:30:28Z</time>
      </trkpt>
      <trkpt lat="42.33737" lon="0.12029">
        <ele>706.5</ele>
        <time>2015-09-22T11:30:29Z</time>
      </trkpt>
      <trkpt lat="42.33734" lon="0.12031">
        <ele>706</ele>
        <time>2015-09-22T11:30:30Z</time>
      </trkpt>
      <trkpt lat="42.33733" lon="0.12035">
        <ele>705.7</ele>
        <time>2015-09-22T11:30:31Z</time>
      </trkpt>
      <trkpt lat="42.33732" lon="0.12038">
        <ele>705.6</ele>
        <time>2015-09-22T11:30:32Z</time>
      </trkpt>
      <trkpt lat="42.33732" lon="0.12042">
        <ele>705.6</ele>
        <time>2015-09-22T11:30:33Z</time>
      </trkpt>
      <trkpt lat="42.33731" lon="0.12046">
        <ele>705.4</ele>
        <time>2015-09-22T11:30:34Z</time>
      </trkpt>
      <trkpt lat="42.33731" lon="0.12049">
        <ele>705.3</ele>
        <time>2015-09-22T11:30:35Z</time>
      </trkpt>
      <trkpt lat="42.33731" lon="0.12053">
        <ele>705.3</ele>
        <time>2015-09-22T11:30:36Z</time>
      </trkpt>
      <trkpt lat="42.33729" lon="0.12058">
        <ele>704.9</ele>
        <time>2015-09-22T11:30:38Z</time>
      </trkpt>
      <trkpt lat="42.33725" lon="0.12058">
        <ele>704</ele>
        <time>2015-09-22T11:30:40Z</time>
      </trkpt>
      <trkpt lat="42.33721" lon="0.12055">
        <ele>703.2</ele>
        <time>2015-09-22T11:30:42Z</time>
      </trkpt>
      <trkpt lat="42.33719" lon="0.12052">
        <ele>702.6</ele>
        <time>2015-09-22T11:30:44Z</time>
      </trkpt>
      <trkpt lat="42.33717" lon="0.12047">
        <ele>702.2</ele>
        <time>2015-09-22T11:30:46Z</time>
      </trkpt>
      <trkpt lat="42.33715" lon="0.12042">
        <ele>701.7</ele>
        <time>2015-09-22T11:30:48Z</time>
      </trkpt>
      <trkpt lat="42.33712" lon="0.12041">
        <ele>700.9</ele>
        <time>2015-09-22T11:30:50Z</time>
      </trkpt>
      <trkpt lat="42.33711" lon="0.12047">
        <ele>700.7</ele>
        <time>2015-09-22T11:30:52Z</time>
      </trkpt>
      <trkpt lat="42.33711" lon="0.12051">
        <ele>700.6</ele>
        <time>2015-09-22T11:30:53Z</time>
      </trkpt>
      <trkpt lat="42.3371" lon="0.12058">
        <ele>700.5</ele>
        <time>2015-09-22T11:30:54Z</time>
      </trkpt>
      <trkpt lat="42.33709" lon="0.12064">
        <ele>700.3</ele>
        <time>2015-09-22T11:30:55Z</time>
      </trkpt>
      <trkpt lat="42.33708" lon="0.1207">
        <ele>700.3</ele>
        <time>2015-09-22T11:30:56Z</time>
      </trkpt>
      <trkpt lat="42.33706" lon="0.12076">
        <ele>700.4</ele>
        <time>2015-09-22T11:30:57Z</time>
      </trkpt>
      <trkpt lat="42.33706" lon="0.12079">
        <ele>700.4</ele>
        <time>2015-09-22T11:30:58Z</time>
      </trkpt>
      <trkpt lat="42.33705" lon="0.12083">
        <ele>700.4</ele>
        <time>2015-09-22T11:30:59Z</time>
      </trkpt>
      <trkpt lat="42.33704" lon="0.12088">
        <ele>700.4</ele>
        <time>2015-09-22T11:31:01Z</time>
      </trkpt>
      <trkpt lat="42.33703" lon="0.12092">
        <ele>700.4</ele>
        <time>2015-09-22T11:31:05Z</time>
      </trkpt>
      <trkpt lat="42.33701" lon="0.12088">
        <ele>700.3</ele>
        <time>2015-09-22T11:31:16Z</time>
      </trkpt>
      <trkpt lat="42.33698" lon="0.12091">
        <ele>700.2</ele>
        <time>2015-09-22T11:31:19Z</time>
      </trkpt>
      <trkpt lat="42.33696" lon="0.12096">
        <ele>700.1</ele>
        <time>2015-09-22T11:31:21Z</time>
      </trkpt>
      <trkpt lat="42.33694" lon="0.121">
        <ele>699.9</ele>
        <time>2015-09-22T11:31:23Z</time>
      </trkpt>
      <trkpt lat="42.3369" lon="0.12102">
        <ele>699.7</ele>
        <time>2015-09-22T11:31:25Z</time>
      </trkpt>
      <trkpt lat="42.33688" lon="0.12099">
        <ele>699.6</ele>
        <time>2015-09-22T11:31:27Z</time>
      </trkpt>
      <trkpt lat="42.33686" lon="0.12096">
        <ele>699.6</ele>
        <time>2015-09-22T11:31:29Z</time>
      </trkpt>
      <trkpt lat="42.33684" lon="0.12091">
        <ele>699.6</ele>
        <time>2015-09-22T11:31:31Z</time>
      </trkpt>
      <trkpt lat="42.33682" lon="0.12087">
        <ele>699.6</ele>
        <time>2015-09-22T11:31:33Z</time>
      </trkpt>
      <trkpt lat="42.33678" lon="0.12086">
        <ele>699.5</ele>
        <time>2015-09-22T11:31:36Z</time>
      </trkpt>
      <trkpt lat="42.33675" lon="0.12088">
        <ele>699.4</ele>
        <time>2015-09-22T11:31:38Z</time>
      </trkpt>
      <trkpt lat="42.33671" lon="0.12094">
        <ele>699</ele>
        <time>2015-09-22T11:31:40Z</time>
      </trkpt>
      <trkpt lat="42.3367" lon="0.121">
        <ele>698.7</ele>
        <time>2015-09-22T11:31:41Z</time>
      </trkpt>
      <trkpt lat="42.33669" lon="0.12106">
        <ele>698.4</ele>
        <time>2015-09-22T11:31:42Z</time>
      </trkpt>
      <trkpt lat="42.33668" lon="0.12112">
        <ele>698.1</ele>
        <time>2015-09-22T11:31:43Z</time>
      </trkpt>
      <trkpt lat="42.33667" lon="0.12118">
        <ele>697.8</ele>
        <time>2015-09-22T11:31:44Z</time>
      </trkpt>
      <trkpt lat="42.33665" lon="0.12124">
        <ele>697.4</ele>
        <time>2015-09-22T11:31:45Z</time>
      </trkpt>
      <trkpt lat="42.33663" lon="0.12132">
        <ele>696.6</ele>
        <time>2015-09-22T11:31:46Z</time>
      </trkpt>
      <trkpt lat="42.33662" lon="0.12138">
        <ele>696.1</ele>
        <time>2015-09-22T11:31:47Z</time>
      </trkpt>
      <trkpt lat="42.33662" lon="0.12143">
        <ele>695.7</ele>
        <time>2015-09-22T11:31:48Z</time>
      </trkpt>
      <trkpt lat="42.33663" lon="0.12148">
        <ele>695.4</ele>
        <time>2015-09-22T11:31:49Z</time>
      </trkpt>
      <trkpt lat="42.33664" lon="0.12152">
        <ele>695.2</ele>
        <time>2015-09-22T11:31:50Z</time>
      </trkpt>
      <trkpt lat="42.33666" lon="0.12156">
        <ele>695</ele>
        <time>2015-09-22T11:31:51Z</time>
      </trkpt>
      <trkpt lat="42.33667" lon="0.1216">
        <ele>694.8</ele>
        <time>2015-09-22T11:31:52Z</time>
      </trkpt>
      <trkpt lat="42.33666" lon="0.12166">
        <ele>694.2</ele>
        <time>2015-09-22T11:31:54Z</time>
      </trkpt>
      <trkpt lat="42.33665" lon="0.1217">
        <ele>693.8</ele>
        <time>2015-09-22T11:31:55Z</time>
      </trkpt>
      <trkpt lat="42.33662" lon="0.12174">
        <ele>693.3</ele>
        <time>2015-09-22T11:31:56Z</time>
      </trkpt>
      <trkpt lat="42.3366" lon="0.12178">
        <ele>692.7</ele>
        <time>2015-09-22T11:31:57Z</time>
      </trkpt>
      <trkpt lat="42.33656" lon="0.12182">
        <ele>692.1</ele>
        <time>2015-09-22T11:31:58Z</time>
      </trkpt>
      <trkpt lat="42.33651" lon="0.12186">
        <ele>691.2</ele>
        <time>2015-09-22T11:31:59Z</time>
      </trkpt>
      <trkpt lat="42.33646" lon="0.1219">
        <ele>690.5</ele>
        <time>2015-09-22T11:32:00Z</time>
      </trkpt>
      <trkpt lat="42.3364" lon="0.12193">
        <ele>689.7</ele>
        <time>2015-09-22T11:32:01Z</time>
      </trkpt>
      <trkpt lat="42.33635" lon="0.12195">
        <ele>689</ele>
        <time>2015-09-22T11:32:02Z</time>
      </trkpt>
      <trkpt lat="42.3363" lon="0.12196">
        <ele>688.5</ele>
        <time>2015-09-22T11:32:03Z</time>
      </trkpt>
      <trkpt lat="42.33625" lon="0.12199">
        <ele>687.8</ele>
        <time>2015-09-22T11:32:04Z</time>
      </trkpt>
      <trkpt lat="42.33619" lon="0.12204">
        <ele>687.2</ele>
        <time>2015-09-22T11:32:05Z</time>
      </trkpt>
      <trkpt lat="42.33615" lon="0.12209">
        <ele>686.7</ele>
        <time>2015-09-22T11:32:06Z</time>
      </trkpt>
      <trkpt lat="42.33611" lon="0.12212">
        <ele>686.7</ele>
        <time>2015-09-22T11:32:07Z</time>
      </trkpt>
      <trkpt lat="42.33606" lon="0.12216">
        <ele>686.8</ele>
        <time>2015-09-22T11:32:08Z</time>
      </trkpt>
      <trkpt lat="42.33601" lon="0.12221">
        <ele>686.9</ele>
        <time>2015-09-22T11:32:09Z</time>
      </trkpt>
      <trkpt lat="42.33596" lon="0.12224">
        <ele>687.1</ele>
        <time>2015-09-22T11:32:10Z</time>
      </trkpt>
      <trkpt lat="42.33591" lon="0.12225">
        <ele>687.2</ele>
        <time>2015-09-22T11:32:11Z</time>
      </trkpt>
      <trkpt lat="42.33586" lon="0.12225">
        <ele>687.1</ele>
        <time>2015-09-22T11:32:12Z</time>
      </trkpt>
      <trkpt lat="42.3358" lon="0.12225">
        <ele>687</ele>
        <time>2015-09-22T11:32:13Z</time>
      </trkpt>
      <trkpt lat="42.33574" lon="0.12225">
        <ele>687</ele>
        <time>2015-09-22T11:32:14Z</time>
      </trkpt>
      <trkpt lat="42.3357" lon="0.12224">
        <ele>686.8</ele>
        <time>2015-09-22T11:32:15Z</time>
      </trkpt>
      <trkpt lat="42.33565" lon="0.12222">
        <ele>686.6</ele>
        <time>2015-09-22T11:32:16Z</time>
      </trkpt>
      <trkpt lat="42.33561" lon="0.12222">
        <ele>686.5</ele>
        <time>2015-09-22T11:32:17Z</time>
      </trkpt>
      <trkpt lat="42.33557" lon="0.12221">
        <ele>686.3</ele>
        <time>2015-09-22T11:32:18Z</time>
      </trkpt>
      <trkpt lat="42.33553" lon="0.12219">
        <ele>686</ele>
        <time>2015-09-22T11:32:19Z</time>
      </trkpt>
      <trkpt lat="42.33549" lon="0.12219">
        <ele>685.9</ele>
        <time>2015-09-22T11:32:20Z</time>
      </trkpt>
      <trkpt lat="42.33545" lon="0.12219">
        <ele>685.9</ele>
        <time>2015-09-22T11:32:21Z</time>
      </trkpt>
      <trkpt lat="42.33541" lon="0.1222">
        <ele>685.8</ele>
        <time>2015-09-22T11:32:22Z</time>
      </trkpt>
      <trkpt lat="42.33537" lon="0.12218">
        <ele>685.1</ele>
        <time>2015-09-22T11:32:23Z</time>
      </trkpt>
      <trkpt lat="42.33533" lon="0.12216">
        <ele>684.5</ele>
        <time>2015-09-22T11:32:24Z</time>
      </trkpt>
      <trkpt lat="42.3353" lon="0.12213">
        <ele>683.6</ele>
        <time>2015-09-22T11:32:25Z</time>
      </trkpt>
      <trkpt lat="42.33527" lon="0.12212">
        <ele>683</ele>
        <time>2015-09-22T11:32:26Z</time>
      </trkpt>
      <trkpt lat="42.33523" lon="0.12211">
        <ele>682.5</ele>
        <time>2015-09-22T11:32:27Z</time>
      </trkpt>
      <trkpt lat="42.3352" lon="0.1221">
        <ele>682</ele>
        <time>2015-09-22T11:32:28Z</time>
      </trkpt>
      <trkpt lat="42.33517" lon="0.12209">
        <ele>681.4</ele>
        <time>2015-09-22T11:32:29Z</time>
      </trkpt>
      <trkpt lat="42.33514" lon="0.12208">
        <ele>681</ele>
        <time>2015-09-22T11:32:30Z</time>
      </trkpt>
      <trkpt lat="42.33509" lon="0.12207">
        <ele>680.6</ele>
        <time>2015-09-22T11:32:32Z</time>
      </trkpt>
      <trkpt lat="42.33504" lon="0.12207">
        <ele>680</ele>
        <time>2015-09-22T11:32:34Z</time>
      </trkpt>
      <trkpt lat="42.33501" lon="0.12208">
        <ele>679.7</ele>
        <time>2015-09-22T11:32:35Z</time>
      </trkpt>
      <trkpt lat="42.33499" lon="0.12209">
        <ele>679.4</ele>
        <time>2015-09-22T11:32:36Z</time>
      </trkpt>
      <trkpt lat="42.33496" lon="0.12209">
        <ele>679.2</ele>
        <time>2015-09-22T11:32:37Z</time>
      </trkpt>
      <trkpt lat="42.33492" lon="0.1221">
        <ele>679.1</ele>
        <time>2015-09-22T11:32:38Z</time>
      </trkpt>
      <trkpt lat="42.33489" lon="0.12211">
        <ele>678.9</ele>
        <time>2015-09-22T11:32:39Z</time>
      </trkpt>
      <trkpt lat="42.33485" lon="0.12212">
        <ele>678.7</ele>
        <time>2015-09-22T11:32:40Z</time>
      </trkpt>
      <trkpt lat="42.33481" lon="0.12213">
        <ele>678.5</ele>
        <time>2015-09-22T11:32:41Z</time>
      </trkpt>
      <trkpt lat="42.33477" lon="0.12215">
        <ele>678.5</ele>
        <time>2015-09-22T11:32:42Z</time>
      </trkpt>
      <trkpt lat="42.33473" lon="0.12217">
        <ele>678.7</ele>
        <time>2015-09-22T11:32:43Z</time>
      </trkpt>
      <trkpt lat="42.33469" lon="0.1222">
        <ele>679</ele>
        <time>2015-09-22T11:32:44Z</time>
      </trkpt>
      <trkpt lat="42.33465" lon="0.12223">
        <ele>679.4</ele>
        <time>2015-09-22T11:32:45Z</time>
      </trkpt>
      <trkpt lat="42.33462" lon="0.12226">
        <ele>679.8</ele>
        <time>2015-09-22T11:32:46Z</time>
      </trkpt>
      <trkpt lat="42.33458" lon="0.12229">
        <ele>680.2</ele>
        <time>2015-09-22T11:32:47Z</time>
      </trkpt>
      <trkpt lat="42.33454" lon="0.12231">
        <ele>680.5</ele>
        <time>2015-09-22T11:32:48Z</time>
      </trkpt>
      <trkpt lat="42.3345" lon="0.12232">
        <ele>680.7</ele>
        <time>2015-09-22T11:32:49Z</time>
      </trkpt>
      <trkpt lat="42.33446" lon="0.12232">
        <ele>680.6</ele>
        <time>2015-09-22T11:32:50Z</time>
      </trkpt>
      <trkpt lat="42.33442" lon="0.12231">
        <ele>680.2</ele>
        <time>2015-09-22T11:32:51Z</time>
      </trkpt>
      <trkpt lat="42.33438" lon="0.12229">
        <ele>679.7</ele>
        <time>2015-09-22T11:32:52Z</time>
      </trkpt>
      <trkpt lat="42.33434" lon="0.12228">
        <ele>679.3</ele>
        <time>2015-09-22T11:32:53Z</time>
      </trkpt>
      <trkpt lat="42.3343" lon="0.12226">
        <ele>678.9</ele>
        <time>2015-09-22T11:32:54Z</time>
      </trkpt>
      <trkpt lat="42.33427" lon="0.12226">
        <ele>678.6</ele>
        <time>2015-09-22T11:32:55Z</time>
      </trkpt>
      <trkpt lat="42.33423" lon="0.12226">
        <ele>678.6</ele>
        <time>2015-09-22T11:32:56Z</time>
      </trkpt>
      <trkpt lat="42.33419" lon="0.12228">
        <ele>678.9</ele>
        <time>2015-09-22T11:32:57Z</time>
      </trkpt>
      <trkpt lat="42.33416" lon="0.1223">
        <ele>679.4</ele>
        <time>2015-09-22T11:32:58Z</time>
      </trkpt>
      <trkpt lat="42.33412" lon="0.12232">
        <ele>679.7</ele>
        <time>2015-09-22T11:32:59Z</time>
      </trkpt>
      <trkpt lat="42.33407" lon="0.1223">
        <ele>679.2</ele>
        <time>2015-09-22T11:33:00Z</time>
      </trkpt>
      <trkpt lat="42.33403" lon="0.12229">
        <ele>679</ele>
        <time>2015-09-22T11:33:01Z</time>
      </trkpt>
      <trkpt lat="42.334" lon="0.12228">
        <ele>678.5</ele>
        <time>2015-09-22T11:33:02Z</time>
      </trkpt>
      <trkpt lat="42.33397" lon="0.12226">
        <ele>678.1</ele>
        <time>2015-09-22T11:33:03Z</time>
      </trkpt>
      <trkpt lat="42.33394" lon="0.12224">
        <ele>677.4</ele>
        <time>2015-09-22T11:33:05Z</time>
      </trkpt>
      <trkpt lat="42.33391" lon="0.12221">
        <ele>676.5</ele>
        <time>2015-09-22T11:33:07Z</time>
      </trkpt>
      <trkpt lat="42.33386" lon="0.12219">
        <ele>675.9</ele>
        <time>2015-09-22T11:33:09Z</time>
      </trkpt>
      <trkpt lat="42.33383" lon="0.12219">
        <ele>675.8</ele>
        <time>2015-09-22T11:33:10Z</time>
      </trkpt>
      <trkpt lat="42.3338" lon="0.12218">
        <ele>675.5</ele>
        <time>2015-09-22T11:33:11Z</time>
      </trkpt>
      <trkpt lat="42.33377" lon="0.12217">
        <ele>675.3</ele>
        <time>2015-09-22T11:33:12Z</time>
      </trkpt>
      <trkpt lat="42.33374" lon="0.12217">
        <ele>675</ele>
        <time>2015-09-22T11:33:13Z</time>
      </trkpt>
      <trkpt lat="42.33371" lon="0.12216">
        <ele>674.5</ele>
        <time>2015-09-22T11:33:14Z</time>
      </trkpt>
      <trkpt lat="42.33368" lon="0.12215">
        <ele>674</ele>
        <time>2015-09-22T11:33:15Z</time>
      </trkpt>
      <trkpt lat="42.33365" lon="0.12214">
        <ele>673.6</ele>
        <time>2015-09-22T11:33:16Z</time>
      </trkpt>
      <trkpt lat="42.33362" lon="0.12214">
        <ele>673.4</ele>
        <time>2015-09-22T11:33:17Z</time>
      </trkpt>
      <trkpt lat="42.33359" lon="0.12215">
        <ele>673.4</ele>
        <time>2015-09-22T11:33:18Z</time>
      </trkpt>
      <trkpt lat="42.33357" lon="0.12217">
        <ele>673.5</ele>
        <time>2015-09-22T11:33:19Z</time>
      </trkpt>
      <trkpt lat="42.33354" lon="0.12218">
        <ele>673.6</ele>
        <time>2015-09-22T11:33:20Z</time>
      </trkpt>
      <trkpt lat="42.3335" lon="0.1222">
        <ele>673.6</ele>
        <time>2015-09-22T11:33:21Z</time>
      </trkpt>
      <trkpt lat="42.33347" lon="0.12222">
        <ele>673.8</ele>
        <time>2015-09-22T11:33:22Z</time>
      </trkpt>
      <trkpt lat="42.33343" lon="0.12224">
        <ele>673.9</ele>
        <time>2015-09-22T11:33:23Z</time>
      </trkpt>
      <trkpt lat="42.3334" lon="0.12226">
        <ele>673.8</ele>
        <time>2015-09-22T11:33:24Z</time>
      </trkpt>
      <trkpt lat="42.33336" lon="0.12227">
        <ele>673.6</ele>
        <time>2015-09-22T11:33:25Z</time>
      </trkpt>
      <trkpt lat="42.33332" lon="0.12228">
        <ele>673.4</ele>
        <time>2015-09-22T11:33:26Z</time>
      </trkpt>
      <trkpt lat="42.33327" lon="0.12229">
        <ele>673</ele>
        <time>2015-09-22T11:33:27Z</time>
      </trkpt>
      <trkpt lat="42.33322" lon="0.1223">
        <ele>672.7</ele>
        <time>2015-09-22T11:33:28Z</time>
      </trkpt>
      <trkpt lat="42.33318" lon="0.12231">
        <ele>672.4</ele>
        <time>2015-09-22T11:33:29Z</time>
      </trkpt>
      <trkpt lat="42.33313" lon="0.12232">
        <ele>672</ele>
        <time>2015-09-22T11:33:30Z</time>
      </trkpt>
      <trkpt lat="42.33309" lon="0.12233">
        <ele>671.7</ele>
        <time>2015-09-22T11:33:31Z</time>
      </trkpt>
      <trkpt lat="42.33305" lon="0.12234">
        <ele>671.3</ele>
        <time>2015-09-22T11:33:32Z</time>
      </trkpt>
      <trkpt lat="42.33301" lon="0.12235">
        <ele>671</ele>
        <time>2015-09-22T11:33:33Z</time>
      </trkpt>
      <trkpt lat="42.33297" lon="0.12236">
        <ele>670.7</ele>
        <time>2015-09-22T11:33:34Z</time>
      </trkpt>
      <trkpt lat="42.33294" lon="0.12237">
        <ele>670.5</ele>
        <time>2015-09-22T11:33:35Z</time>
      </trkpt>
      <trkpt lat="42.33292" lon="0.1224">
        <ele>670.4</ele>
        <time>2015-09-22T11:33:36Z</time>
      </trkpt>
      <trkpt lat="42.33289" lon="0.12243">
        <ele>670.7</ele>
        <time>2015-09-22T11:33:37Z</time>
      </trkpt>
      <trkpt lat="42.33287" lon="0.12246">
        <ele>671</ele>
        <time>2015-09-22T11:33:38Z</time>
      </trkpt>
      <trkpt lat="42.33286" lon="0.12251">
        <ele>671.3</ele>
        <time>2015-09-22T11:33:39Z</time>
      </trkpt>
      <trkpt lat="42.33285" lon="0.12256">
        <ele>671.7</ele>
        <time>2015-09-22T11:33:40Z</time>
      </trkpt>
      <trkpt lat="42.33284" lon="0.12261">
        <ele>672.1</ele>
        <time>2015-09-22T11:33:41Z</time>
      </trkpt>
      <trkpt lat="42.33282" lon="0.12267">
        <ele>672.5</ele>
        <time>2015-09-22T11:33:42Z</time>
      </trkpt>
      <trkpt lat="42.33281" lon="0.12278">
        <ele>673.2</ele>
        <time>2015-09-22T11:33:43Z</time>
      </trkpt>
      <trkpt lat="42.3328" lon="0.12284">
        <ele>673.4</ele>
        <time>2015-09-22T11:33:44Z</time>
      </trkpt>
      <trkpt lat="42.33277" lon="0.1229">
        <ele>673.4</ele>
        <time>2015-09-22T11:33:45Z</time>
      </trkpt>
      <trkpt lat="42.33275" lon="0.12295">
        <ele>673.4</ele>
        <time>2015-09-22T11:33:46Z</time>
      </trkpt>
      <trkpt lat="42.33272" lon="0.123">
        <ele>673.3</ele>
        <time>2015-09-22T11:33:47Z</time>
      </trkpt>
      <trkpt lat="42.33269" lon="0.12306">
        <ele>673.3</ele>
        <time>2015-09-22T11:33:48Z</time>
      </trkpt>
      <trkpt lat="42.33266" lon="0.12313">
        <ele>673.3</ele>
        <time>2015-09-22T11:33:49Z</time>
      </trkpt>
      <trkpt lat="42.33264" lon="0.12319">
        <ele>673.4</ele>
        <time>2015-09-22T11:33:50Z</time>
      </trkpt>
      <trkpt lat="42.33262" lon="0.12325">
        <ele>673.5</ele>
        <time>2015-09-22T11:33:51Z</time>
      </trkpt>
      <trkpt lat="42.3326" lon="0.12331">
        <ele>673.5</ele>
        <time>2015-09-22T11:33:52Z</time>
      </trkpt>
      <trkpt lat="42.33258" lon="0.12335">
        <ele>673.3</ele>
        <time>2015-09-22T11:33:53Z</time>
      </trkpt>
      <trkpt lat="42.33256" lon="0.12339">
        <ele>673.1</ele>
        <time>2015-09-22T11:33:54Z</time>
      </trkpt>
      <trkpt lat="42.33253" lon="0.12341">
        <ele>672.7</ele>
        <time>2015-09-22T11:33:55Z</time>
      </trkpt>
      <trkpt lat="42.3325" lon="0.12347">
        <ele>672.3</ele>
        <time>2015-09-22T11:33:57Z</time>
      </trkpt>
      <trkpt lat="42.33247" lon="0.12352">
        <ele>672</ele>
        <time>2015-09-22T11:33:59Z</time>
      </trkpt>
      <trkpt lat="42.33243" lon="0.12354">
        <ele>671</ele>
        <time>2015-09-22T11:34:01Z</time>
      </trkpt>
      <trkpt lat="42.33238" lon="0.12355">
        <ele>669.8</ele>
        <time>2015-09-22T11:34:03Z</time>
      </trkpt>
      <trkpt lat="42.33233" lon="0.12352">
        <ele>668.6</ele>
        <time>2015-09-22T11:34:05Z</time>
      </trkpt>
      <trkpt lat="42.33229" lon="0.12348">
        <ele>667.4</ele>
        <time>2015-09-22T11:34:07Z</time>
      </trkpt>
      <trkpt lat="42.33226" lon="0.12347">
        <ele>666.8</ele>
        <time>2015-09-22T11:34:08Z</time>
      </trkpt>
      <trkpt lat="42.33223" lon="0.12348">
        <ele>666.1</ele>
        <time>2015-09-22T11:34:09Z</time>
      </trkpt>
      <trkpt lat="42.3322" lon="0.12349">
        <ele>665.4</ele>
        <time>2015-09-22T11:34:10Z</time>
      </trkpt>
      <trkpt lat="42.33217" lon="0.12349">
        <ele>664.7</ele>
        <time>2015-09-22T11:34:11Z</time>
      </trkpt>
      <trkpt lat="42.33214" lon="0.12348">
        <ele>664</ele>
        <time>2015-09-22T11:34:12Z</time>
      </trkpt>
      <trkpt lat="42.33211" lon="0.12346">
        <ele>663.3</ele>
        <time>2015-09-22T11:34:13Z</time>
      </trkpt>
      <trkpt lat="42.33208" lon="0.12346">
        <ele>662.6</ele>
        <time>2015-09-22T11:34:14Z</time>
      </trkpt>
      <trkpt lat="42.33204" lon="0.12347">
        <ele>662.6</ele>
        <time>2015-09-22T11:34:15Z</time>
      </trkpt>
      <trkpt lat="42.33201" lon="0.12349">
        <ele>662.5</ele>
        <time>2015-09-22T11:34:16Z</time>
      </trkpt>
      <trkpt lat="42.33199" lon="0.12351">
        <ele>662.4</ele>
        <time>2015-09-22T11:34:17Z</time>
      </trkpt>
      <trkpt lat="42.33195" lon="0.12351">
        <ele>662.3</ele>
        <time>2015-09-22T11:34:18Z</time>
      </trkpt>
      <trkpt lat="42.33191" lon="0.12351">
        <ele>662.2</ele>
        <time>2015-09-22T11:34:19Z</time>
      </trkpt>
      <trkpt lat="42.33184" lon="0.1235">
        <ele>662</ele>
        <time>2015-09-22T11:34:20Z</time>
      </trkpt>
      <trkpt lat="42.3318" lon="0.12351">
        <ele>661.8</ele>
        <time>2015-09-22T11:34:21Z</time>
      </trkpt>
      <trkpt lat="42.33177" lon="0.12354">
        <ele>661.6</ele>
        <time>2015-09-22T11:34:22Z</time>
      </trkpt>
      <trkpt lat="42.33173" lon="0.12358">
        <ele>661.3</ele>
        <time>2015-09-22T11:34:23Z</time>
      </trkpt>
      <trkpt lat="42.33169" lon="0.12361">
        <ele>660.9</ele>
        <time>2015-09-22T11:34:24Z</time>
      </trkpt>
      <trkpt lat="42.33165" lon="0.12366">
        <ele>660.4</ele>
        <time>2015-09-22T11:34:25Z</time>
      </trkpt>
      <trkpt lat="42.33161" lon="0.12371">
        <ele>659.9</ele>
        <time>2015-09-22T11:34:26Z</time>
      </trkpt>
      <trkpt lat="42.33157" lon="0.12376">
        <ele>659.3</ele>
        <time>2015-09-22T11:34:27Z</time>
      </trkpt>
      <trkpt lat="42.33153" lon="0.1238">
        <ele>659.1</ele>
        <time>2015-09-22T11:34:28Z</time>
      </trkpt>
      <trkpt lat="42.33149" lon="0.12385">
        <ele>658.9</ele>
        <time>2015-09-22T11:34:29Z</time>
      </trkpt>
      <trkpt lat="42.33145" lon="0.1239">
        <ele>658.5</ele>
        <time>2015-09-22T11:34:30Z</time>
      </trkpt>
      <trkpt lat="42.33141" lon="0.12394">
        <ele>658.1</ele>
        <time>2015-09-22T11:34:31Z</time>
      </trkpt>
      <trkpt lat="42.33137" lon="0.12398">
        <ele>657.7</ele>
        <time>2015-09-22T11:34:32Z</time>
      </trkpt>
      <trkpt lat="42.33133" lon="0.12402">
        <ele>657.2</ele>
        <time>2015-09-22T11:34:33Z</time>
      </trkpt>
      <trkpt lat="42.33129" lon="0.12407">
        <ele>656.7</ele>
        <time>2015-09-22T11:34:34Z</time>
      </trkpt>
      <trkpt lat="42.33125" lon="0.12412">
        <ele>656.1</ele>
        <time>2015-09-22T11:34:35Z</time>
      </trkpt>
      <trkpt lat="42.3312" lon="0.12417">
        <ele>656.1</ele>
        <time>2015-09-22T11:34:36Z</time>
      </trkpt>
      <trkpt lat="42.33118" lon="0.12425">
        <ele>655.9</ele>
        <time>2015-09-22T11:34:37Z</time>
      </trkpt>
      <trkpt lat="42.33113" lon="0.12431">
        <ele>655.6</ele>
        <time>2015-09-22T11:34:38Z</time>
      </trkpt>
      <trkpt lat="42.33109" lon="0.12438">
        <ele>655.3</ele>
        <time>2015-09-22T11:34:39Z</time>
      </trkpt>
      <trkpt lat="42.33106" lon="0.12444">
        <ele>654.9</ele>
        <time>2015-09-22T11:34:40Z</time>
      </trkpt>
      <trkpt lat="42.33103" lon="0.12449">
        <ele>654.5</ele>
        <time>2015-09-22T11:34:41Z</time>
      </trkpt>
      <trkpt lat="42.33099" lon="0.12455">
        <ele>654</ele>
        <time>2015-09-22T11:34:42Z</time>
      </trkpt>
      <trkpt lat="42.33095" lon="0.1246">
        <ele>653.6</ele>
        <time>2015-09-22T11:34:43Z</time>
      </trkpt>
      <trkpt lat="42.33091" lon="0.12465">
        <ele>653.6</ele>
        <time>2015-09-22T11:34:44Z</time>
      </trkpt>
      <trkpt lat="42.33086" lon="0.1247">
        <ele>653.5</ele>
        <time>2015-09-22T11:34:45Z</time>
      </trkpt>
      <trkpt lat="42.33081" lon="0.12473">
        <ele>653.5</ele>
        <time>2015-09-22T11:34:46Z</time>
      </trkpt>
      <trkpt lat="42.33076" lon="0.12476">
        <ele>653.3</ele>
        <time>2015-09-22T11:34:47Z</time>
      </trkpt>
      <trkpt lat="42.33071" lon="0.12478">
        <ele>653.2</ele>
        <time>2015-09-22T11:34:48Z</time>
      </trkpt>
      <trkpt lat="42.33065" lon="0.12479">
        <ele>653.1</ele>
        <time>2015-09-22T11:34:49Z</time>
      </trkpt>
      <trkpt lat="42.3306" lon="0.1248">
        <ele>653</ele>
        <time>2015-09-22T11:34:50Z</time>
      </trkpt>
      <trkpt lat="42.33055" lon="0.12482">
        <ele>652.9</ele>
        <time>2015-09-22T11:34:51Z</time>
      </trkpt>
      <trkpt lat="42.33052" lon="0.12486">
        <ele>652.9</ele>
        <time>2015-09-22T11:34:53Z</time>
      </trkpt>
      <trkpt lat="42.33051" lon="0.1249">
        <ele>653.2</ele>
        <time>2015-09-22T11:34:55Z</time>
      </trkpt>
      <trkpt lat="42.33051" lon="0.12496">
        <ele>653.5</ele>
        <time>2015-09-22T11:35:54Z</time>
      </trkpt>
      <trkpt lat="42.3305" lon="0.12501">
        <ele>653.7</ele>
        <time>2015-09-22T11:35:56Z</time>
      </trkpt>
      <trkpt lat="42.3305" lon="0.12505">
        <ele>654</ele>
        <time>2015-09-22T11:35:58Z</time>
      </trkpt>
      <trkpt lat="42.33051" lon="0.12509">
        <ele>654.2</ele>
        <time>2015-09-22T11:36:00Z</time>
      </trkpt>
      <trkpt lat="42.33051" lon="0.12514">
        <ele>654.5</ele>
        <time>2015-09-22T11:36:02Z</time>
      </trkpt>
      <trkpt lat="42.33052" lon="0.12519">
        <ele>654.7</ele>
        <time>2015-09-22T11:36:03Z</time>
      </trkpt>
      <trkpt lat="42.33052" lon="0.12524">
        <ele>655</ele>
        <time>2015-09-22T11:36:04Z</time>
      </trkpt>
      <trkpt lat="42.33053" lon="0.1253">
        <ele>655.4</ele>
        <time>2015-09-22T11:36:05Z</time>
      </trkpt>
      <trkpt lat="42.33052" lon="0.12536">
        <ele>655.7</ele>
        <time>2015-09-22T11:36:06Z</time>
      </trkpt>
      <trkpt lat="42.33051" lon="0.12542">
        <ele>656</ele>
        <time>2015-09-22T11:36:07Z</time>
      </trkpt>
      <trkpt lat="42.33049" lon="0.12547">
        <ele>655.5</ele>
        <time>2015-09-22T11:36:08Z</time>
      </trkpt>
      <trkpt lat="42.33047" lon="0.12553">
        <ele>654.9</ele>
        <time>2015-09-22T11:36:09Z</time>
      </trkpt>
      <trkpt lat="42.33045" lon="0.12558">
        <ele>654.4</ele>
        <time>2015-09-22T11:36:10Z</time>
      </trkpt>
      <trkpt lat="42.33043" lon="0.12563">
        <ele>654</ele>
        <time>2015-09-22T11:36:11Z</time>
      </trkpt>
      <trkpt lat="42.33041" lon="0.12568">
        <ele>653.5</ele>
        <time>2015-09-22T11:36:12Z</time>
      </trkpt>
      <trkpt lat="42.33037" lon="0.12571">
        <ele>653.3</ele>
        <time>2015-09-22T11:36:13Z</time>
      </trkpt>
      <trkpt lat="42.33034" lon="0.12574">
        <ele>653</ele>
        <time>2015-09-22T11:36:14Z</time>
      </trkpt>
      <trkpt lat="42.3303" lon="0.12578">
        <ele>652.8</ele>
        <time>2015-09-22T11:36:15Z</time>
      </trkpt>
      <trkpt lat="42.33024" lon="0.1258">
        <ele>652.8</ele>
        <time>2015-09-22T11:36:16Z</time>
      </trkpt>
      <trkpt lat="42.33022" lon="0.12584">
        <ele>652.5</ele>
        <time>2015-09-22T11:36:17Z</time>
      </trkpt>
      <trkpt lat="42.33021" lon="0.12588">
        <ele>652.3</ele>
        <time>2015-09-22T11:36:18Z</time>
      </trkpt>
      <trkpt lat="42.33021" lon="0.12593">
        <ele>651.9</ele>
        <time>2015-09-22T11:36:19Z</time>
      </trkpt>
      <trkpt lat="42.33019" lon="0.12598">
        <ele>651.6</ele>
        <time>2015-09-22T11:36:20Z</time>
      </trkpt>
      <trkpt lat="42.33018" lon="0.12603">
        <ele>651.2</ele>
        <time>2015-09-22T11:36:21Z</time>
      </trkpt>
      <trkpt lat="42.33016" lon="0.12608">
        <ele>651</ele>
        <time>2015-09-22T11:36:22Z</time>
      </trkpt>
      <trkpt lat="42.33014" lon="0.12612">
        <ele>650.9</ele>
        <time>2015-09-22T11:36:23Z</time>
      </trkpt>
      <trkpt lat="42.3301" lon="0.12616">
        <ele>650.8</ele>
        <time>2015-09-22T11:36:24Z</time>
      </trkpt>
      <trkpt lat="42.33007" lon="0.12621">
        <ele>650.8</ele>
        <time>2015-09-22T11:36:25Z</time>
      </trkpt>
      <trkpt lat="42.33004" lon="0.12625">
        <ele>650.7</ele>
        <time>2015-09-22T11:36:26Z</time>
      </trkpt>
      <trkpt lat="42.33" lon="0.12625">
        <ele>650.9</ele>
        <time>2015-09-22T11:36:27Z</time>
      </trkpt>
      <trkpt lat="42.32997" lon="0.12626">
        <ele>651</ele>
        <time>2015-09-22T11:36:28Z</time>
      </trkpt>
      <trkpt lat="42.32993" lon="0.12624">
        <ele>651.6</ele>
        <time>2015-09-22T11:36:30Z</time>
      </trkpt>
      <trkpt lat="42.32988" lon="0.12624">
        <ele>651.9</ele>
        <time>2015-09-22T11:36:32Z</time>
      </trkpt>
      <trkpt lat="42.32984" lon="0.12625">
        <ele>652.2</ele>
        <time>2015-09-22T11:36:34Z</time>
      </trkpt>
      <trkpt lat="42.3298" lon="0.12628">
        <ele>651.8</ele>
        <time>2015-09-22T11:36:36Z</time>
      </trkpt>
      <trkpt lat="42.32978" lon="0.12634">
        <ele>650.9</ele>
        <time>2015-09-22T11:36:38Z</time>
      </trkpt>
      <trkpt lat="42.32978" lon="0.1264">
        <ele>649.7</ele>
        <time>2015-09-22T11:36:40Z</time>
      </trkpt>
      <trkpt lat="42.32979" lon="0.12646">
        <ele>648.5</ele>
        <time>2015-09-22T11:36:42Z</time>
      </trkpt>
      <trkpt lat="42.32979" lon="0.12653">
        <ele>647.3</ele>
        <time>2015-09-22T11:36:44Z</time>
      </trkpt>
      <trkpt lat="42.32979" lon="0.12656">
        <ele>646.6</ele>
        <time>2015-09-22T11:36:45Z</time>
      </trkpt>
      <trkpt lat="42.3298" lon="0.12662">
        <ele>645.5</ele>
        <time>2015-09-22T11:36:46Z</time>
      </trkpt>
      <trkpt lat="42.3298" lon="0.12668">
        <ele>644.4</ele>
        <time>2015-09-22T11:36:47Z</time>
      </trkpt>
      <trkpt lat="42.32979" lon="0.12674">
        <ele>643.3</ele>
        <time>2015-09-22T11:36:48Z</time>
      </trkpt>
      <trkpt lat="42.32978" lon="0.1268">
        <ele>642.2</ele>
        <time>2015-09-22T11:36:49Z</time>
      </trkpt>
      <trkpt lat="42.32978" lon="0.12685">
        <ele>641.2</ele>
        <time>2015-09-22T11:36:50Z</time>
      </trkpt>
      <trkpt lat="42.32979" lon="0.1269">
        <ele>640.2</ele>
        <time>2015-09-22T11:36:51Z</time>
      </trkpt>
      <trkpt lat="42.32981" lon="0.12697">
        <ele>638.9</ele>
        <time>2015-09-22T11:36:53Z</time>
      </trkpt>
      <trkpt lat="42.3298" lon="0.12704">
        <ele>637.7</ele>
        <time>2015-09-22T11:36:55Z</time>
      </trkpt>
      <trkpt lat="42.32978" lon="0.12708">
        <ele>636.8</ele>
        <time>2015-09-22T11:36:57Z</time>
      </trkpt>
      <trkpt lat="42.32978" lon="0.12713">
        <ele>636.6</ele>
        <time>2015-09-22T11:36:59Z</time>
      </trkpt>
      <trkpt lat="42.32976" lon="0.12716">
        <ele>636.6</ele>
        <time>2015-09-22T11:37:01Z</time>
      </trkpt>
      <trkpt lat="42.32972" lon="0.12716">
        <ele>636.6</ele>
        <time>2015-09-22T11:37:03Z</time>
      </trkpt>
      <trkpt lat="42.32969" lon="0.12715">
        <ele>636.6</ele>
        <time>2015-09-22T11:37:05Z</time>
      </trkpt>
      <trkpt lat="42.32965" lon="0.12714">
        <ele>636.7</ele>
        <time>2015-09-22T11:37:07Z</time>
      </trkpt>
      <trkpt lat="42.32962" lon="0.12714">
        <ele>636.7</ele>
        <time>2015-09-22T11:37:09Z</time>
      </trkpt>
      <trkpt lat="42.32959" lon="0.12714">
        <ele>636.7</ele>
        <time>2015-09-22T11:37:13Z</time>
      </trkpt>
      <trkpt lat="42.32956" lon="0.12712">
        <ele>637.1</ele>
        <time>2015-09-22T11:37:28Z</time>
      </trkpt>
      <trkpt lat="42.32954" lon="0.1271">
        <ele>637.4</ele>
        <time>2015-09-22T11:37:34Z</time>
      </trkpt>
      <trkpt lat="42.32951" lon="0.12714">
        <ele>637.5</ele>
        <time>2015-09-22T11:37:38Z</time>
      </trkpt>
      <trkpt lat="42.32947" lon="0.12717">
        <ele>637.7</ele>
        <time>2015-09-22T11:37:41Z</time>
      </trkpt>
      <trkpt lat="42.32944" lon="0.1272">
        <ele>637.9</ele>
        <time>2015-09-22T11:37:43Z</time>
      </trkpt>
      <trkpt lat="42.32939" lon="0.12722">
        <ele>638</ele>
        <time>2015-09-22T11:37:45Z</time>
      </trkpt>
      <trkpt lat="42.32937" lon="0.12724">
        <ele>638.2</ele>
        <time>2015-09-22T11:37:46Z</time>
      </trkpt>
      <trkpt lat="42.32934" lon="0.12725">
        <ele>638.3</ele>
        <time>2015-09-22T11:37:47Z</time>
      </trkpt>
      <trkpt lat="42.32929" lon="0.12727">
        <ele>638.6</ele>
        <time>2015-09-22T11:37:49Z</time>
      </trkpt>
      <trkpt lat="42.32924" lon="0.12732">
        <ele>638.5</ele>
        <time>2015-09-22T11:37:51Z</time>
      </trkpt>
      <trkpt lat="42.32922" lon="0.12736">
        <ele>638.3</ele>
        <time>2015-09-22T11:37:52Z</time>
      </trkpt>
      <trkpt lat="42.3292" lon="0.12741">
        <ele>638</ele>
        <time>2015-09-22T11:37:53Z</time>
      </trkpt>
      <trkpt lat="42.32919" lon="0.12745">
        <ele>637.6</ele>
        <time>2015-09-22T11:37:54Z</time>
      </trkpt>
      <trkpt lat="42.32917" lon="0.1275">
        <ele>637.2</ele>
        <time>2015-09-22T11:37:55Z</time>
      </trkpt>
      <trkpt lat="42.32916" lon="0.12756">
        <ele>636.7</ele>
        <time>2015-09-22T11:37:56Z</time>
      </trkpt>
      <trkpt lat="42.32916" lon="0.12762">
        <ele>636.1</ele>
        <time>2015-09-22T11:37:57Z</time>
      </trkpt>
      <trkpt lat="42.32915" lon="0.12769">
        <ele>635.4</ele>
        <time>2015-09-22T11:37:58Z</time>
      </trkpt>
      <trkpt lat="42.32916" lon="0.12777">
        <ele>634.5</ele>
        <time>2015-09-22T11:37:59Z</time>
      </trkpt>
      <trkpt lat="42.32916" lon="0.12782">
        <ele>634</ele>
        <time>2015-09-22T11:38:00Z</time>
      </trkpt>
      <trkpt lat="42.32916" lon="0.12788">
        <ele>633.4</ele>
        <time>2015-09-22T11:38:01Z</time>
      </trkpt>
      <trkpt lat="42.32917" lon="0.12793">
        <ele>633</ele>
        <time>2015-09-22T11:38:02Z</time>
      </trkpt>
      <trkpt lat="42.32918" lon="0.12798">
        <ele>632.8</ele>
        <time>2015-09-22T11:38:03Z</time>
      </trkpt>
      <trkpt lat="42.32919" lon="0.12803">
        <ele>632.7</ele>
        <time>2015-09-22T11:38:04Z</time>
      </trkpt>
      <trkpt lat="42.32921" lon="0.12808">
        <ele>632.6</ele>
        <time>2015-09-22T11:38:05Z</time>
      </trkpt>
      <trkpt lat="42.32922" lon="0.12813">
        <ele>632.5</ele>
        <time>2015-09-22T11:38:06Z</time>
      </trkpt>
      <trkpt lat="42.32923" lon="0.12817">
        <ele>632.5</ele>
        <time>2015-09-22T11:38:07Z</time>
      </trkpt>
      <trkpt lat="42.32923" lon="0.12822">
        <ele>632.4</ele>
        <time>2015-09-22T11:38:08Z</time>
      </trkpt>
      <trkpt lat="42.32922" lon="0.12826">
        <ele>632.3</ele>
        <time>2015-09-22T11:38:09Z</time>
      </trkpt>
      <trkpt lat="42.32922" lon="0.12831">
        <ele>632.2</ele>
        <time>2015-09-22T11:38:10Z</time>
      </trkpt>
      <trkpt lat="42.32921" lon="0.12835">
        <ele>632</ele>
        <time>2015-09-22T11:38:11Z</time>
      </trkpt>
      <trkpt lat="42.32921" lon="0.12839">
        <ele>631.9</ele>
        <time>2015-09-22T11:38:12Z</time>
      </trkpt>
      <trkpt lat="42.3292" lon="0.12843">
        <ele>631.7</ele>
        <time>2015-09-22T11:38:13Z</time>
      </trkpt>
      <trkpt lat="42.32919" lon="0.1285">
        <ele>631.4</ele>
        <time>2015-09-22T11:38:15Z</time>
      </trkpt>
      <trkpt lat="42.32918" lon="0.12856">
        <ele>631.1</ele>
        <time>2015-09-22T11:38:17Z</time>
      </trkpt>
      <trkpt lat="42.32917" lon="0.12863">
        <ele>630.9</ele>
        <time>2015-09-22T11:38:19Z</time>
      </trkpt>
      <trkpt lat="42.32918" lon="0.1287">
        <ele>630.8</ele>
        <time>2015-09-22T11:38:21Z</time>
      </trkpt>
      <trkpt lat="42.32919" lon="0.12877">
        <ele>630.9</ele>
        <time>2015-09-22T11:38:23Z</time>
      </trkpt>
      <trkpt lat="42.32919" lon="0.12883">
        <ele>631.7</ele>
        <time>2015-09-22T11:38:25Z</time>
      </trkpt>
      <trkpt lat="42.32919" lon="0.12889">
        <ele>632.4</ele>
        <time>2015-09-22T11:38:27Z</time>
      </trkpt>
      <trkpt lat="42.32919" lon="0.12894">
        <ele>633</ele>
        <time>2015-09-22T11:38:29Z</time>
      </trkpt>
      <trkpt lat="42.32916" lon="0.12899">
        <ele>633.2</ele>
        <time>2015-09-22T11:38:32Z</time>
      </trkpt>
      <trkpt lat="42.32912" lon="0.12902">
        <ele>633.1</ele>
        <time>2015-09-22T11:38:34Z</time>
      </trkpt>
      <trkpt lat="42.32909" lon="0.12904">
        <ele>632.9</ele>
        <time>2015-09-22T11:38:35Z</time>
      </trkpt>
      <trkpt lat="42.32906" lon="0.12904">
        <ele>632.6</ele>
        <time>2015-09-22T11:38:36Z</time>
      </trkpt>
      <trkpt lat="42.32902" lon="0.12905">
        <ele>632.3</ele>
        <time>2015-09-22T11:38:37Z</time>
      </trkpt>
      <trkpt lat="42.32899" lon="0.12905">
        <ele>632</ele>
        <time>2015-09-22T11:38:38Z</time>
      </trkpt>
      <trkpt lat="42.32896" lon="0.12907">
        <ele>631.9</ele>
        <time>2015-09-22T11:38:39Z</time>
      </trkpt>
      <trkpt lat="42.32891" lon="0.1291">
        <ele>631.6</ele>
        <time>2015-09-22T11:38:41Z</time>
      </trkpt>
      <trkpt lat="42.32888" lon="0.12911">
        <ele>631.6</ele>
        <time>2015-09-22T11:38:42Z</time>
      </trkpt>
      <trkpt lat="42.32885" lon="0.12913">
        <ele>631.6</ele>
        <time>2015-09-22T11:38:43Z</time>
      </trkpt>
      <trkpt lat="42.32883" lon="0.12915">
        <ele>631.6</ele>
        <time>2015-09-22T11:38:44Z</time>
      </trkpt>
      <trkpt lat="42.3288" lon="0.12917">
        <ele>631.6</ele>
        <time>2015-09-22T11:38:45Z</time>
      </trkpt>
      <trkpt lat="42.32877" lon="0.12919">
        <ele>631.6</ele>
        <time>2015-09-22T11:38:46Z</time>
      </trkpt>
      <trkpt lat="42.32875" lon="0.12921">
        <ele>631.6</ele>
        <time>2015-09-22T11:38:47Z</time>
      </trkpt>
      <trkpt lat="42.32872" lon="0.12923">
        <ele>632.1</ele>
        <time>2015-09-22T11:38:48Z</time>
      </trkpt>
      <trkpt lat="42.3287" lon="0.12925">
        <ele>632.7</ele>
        <time>2015-09-22T11:38:49Z</time>
      </trkpt>
      <trkpt lat="42.32866" lon="0.12929">
        <ele>633.8</ele>
        <time>2015-09-22T11:38:51Z</time>
      </trkpt>
      <trkpt lat="42.32863" lon="0.12935">
        <ele>634.9</ele>
        <time>2015-09-22T11:38:53Z</time>
      </trkpt>
      <trkpt lat="42.32861" lon="0.12941">
        <ele>636.1</ele>
        <time>2015-09-22T11:38:55Z</time>
      </trkpt>
      <trkpt lat="42.32857" lon="0.12946">
        <ele>637.2</ele>
        <time>2015-09-22T11:38:57Z</time>
      </trkpt>
      <trkpt lat="42.32853" lon="0.12951">
        <ele>638.3</ele>
        <time>2015-09-22T11:38:59Z</time>
      </trkpt>
      <trkpt lat="42.32849" lon="0.12956">
        <ele>639.4</ele>
        <time>2015-09-22T11:39:01Z</time>
      </trkpt>
      <trkpt lat="42.32844" lon="0.12959">
        <ele>640.4</ele>
        <time>2015-09-22T11:39:03Z</time>
      </trkpt>
      <trkpt lat="42.32841" lon="0.12962">
        <ele>641.1</ele>
        <time>2015-09-22T11:39:05Z</time>
      </trkpt>
      <trkpt lat="42.32839" lon="0.12965">
        <ele>641.7</ele>
        <time>2015-09-22T11:39:07Z</time>
      </trkpt>
      <trkpt lat="42.32836" lon="0.12968">
        <ele>642.3</ele>
        <time>2015-09-22T11:39:09Z</time>
      </trkpt>
      <trkpt lat="42.32835" lon="0.12971">
        <ele>642.8</ele>
        <time>2015-09-22T11:39:11Z</time>
      </trkpt>
      <trkpt lat="42.32834" lon="0.12975">
        <ele>643.3</ele>
        <time>2015-09-22T11:39:13Z</time>
      </trkpt>
      <trkpt lat="42.32834" lon="0.12979">
        <ele>643.9</ele>
        <time>2015-09-22T11:39:15Z</time>
      </trkpt>
      <trkpt lat="42.32833" lon="0.12984">
        <ele>644.4</ele>
        <time>2015-09-22T11:39:17Z</time>
      </trkpt>
      <trkpt lat="42.32834" lon="0.12988">
        <ele>644.9</ele>
        <time>2015-09-22T11:39:19Z</time>
      </trkpt>
      <trkpt lat="42.32835" lon="0.12993">
        <ele>645.3</ele>
        <time>2015-09-22T11:39:21Z</time>
      </trkpt>
      <trkpt lat="42.32836" lon="0.12997">
        <ele>645.7</ele>
        <time>2015-09-22T11:39:23Z</time>
      </trkpt>
      <trkpt lat="42.32837" lon="0.13001">
        <ele>646.2</ele>
        <time>2015-09-22T11:39:25Z</time>
      </trkpt>
      <trkpt lat="42.32837" lon="0.13006">
        <ele>646.8</ele>
        <time>2015-09-22T11:39:27Z</time>
      </trkpt>
      <trkpt lat="42.32834" lon="0.13012">
        <ele>647.6</ele>
        <time>2015-09-22T11:39:29Z</time>
      </trkpt>
      <trkpt lat="42.32832" lon="0.13015">
        <ele>648</ele>
        <time>2015-09-22T11:39:30Z</time>
      </trkpt>
      <trkpt lat="42.3283" lon="0.13017">
        <ele>648.3</ele>
        <time>2015-09-22T11:39:31Z</time>
      </trkpt>
      <trkpt lat="42.32827" lon="0.13018">
        <ele>648.5</ele>
        <time>2015-09-22T11:39:32Z</time>
      </trkpt>
      <trkpt lat="42.32824" lon="0.13019">
        <ele>648.7</ele>
        <time>2015-09-22T11:39:33Z</time>
      </trkpt>
      <trkpt lat="42.32821" lon="0.1302">
        <ele>648.9</ele>
        <time>2015-09-22T11:39:34Z</time>
      </trkpt>
      <trkpt lat="42.32817" lon="0.13021">
        <ele>649.1</ele>
        <time>2015-09-22T11:39:35Z</time>
      </trkpt>
      <trkpt lat="42.32813" lon="0.13022">
        <ele>649.3</ele>
        <time>2015-09-22T11:39:36Z</time>
      </trkpt>
      <trkpt lat="42.32809" lon="0.13023">
        <ele>649.5</ele>
        <time>2015-09-22T11:39:37Z</time>
      </trkpt>
      <trkpt lat="42.32805" lon="0.13025">
        <ele>649.7</ele>
        <time>2015-09-22T11:39:38Z</time>
      </trkpt>
      <trkpt lat="42.32801" lon="0.13026">
        <ele>649.9</ele>
        <time>2015-09-22T11:39:39Z</time>
      </trkpt>
      <trkpt lat="42.32797" lon="0.13026">
        <ele>650</ele>
        <time>2015-09-22T11:39:40Z</time>
      </trkpt>
      <trkpt lat="42.32793" lon="0.13027">
        <ele>650.1</ele>
        <time>2015-09-22T11:39:41Z</time>
      </trkpt>
      <trkpt lat="42.32789" lon="0.13027">
        <ele>650.2</ele>
        <time>2015-09-22T11:39:42Z</time>
      </trkpt>
      <trkpt lat="42.32785" lon="0.13027">
        <ele>650.2</ele>
        <time>2015-09-22T11:39:43Z</time>
      </trkpt>
      <trkpt lat="42.32781" lon="0.13027">
        <ele>650.3</ele>
        <time>2015-09-22T11:39:44Z</time>
      </trkpt>
      <trkpt lat="42.32777" lon="0.13027">
        <ele>650.4</ele>
        <time>2015-09-22T11:39:45Z</time>
      </trkpt>
      <trkpt lat="42.32774" lon="0.13028">
        <ele>650.5</ele>
        <time>2015-09-22T11:39:46Z</time>
      </trkpt>
      <trkpt lat="42.32771" lon="0.1303">
        <ele>650.7</ele>
        <time>2015-09-22T11:39:47Z</time>
      </trkpt>
      <trkpt lat="42.32767" lon="0.13033">
        <ele>650.9</ele>
        <time>2015-09-22T11:39:48Z</time>
      </trkpt>
      <trkpt lat="42.32763" lon="0.13039">
        <ele>651.2</ele>
        <time>2015-09-22T11:39:49Z</time>
      </trkpt>
      <trkpt lat="42.32758" lon="0.13042">
        <ele>651.4</ele>
        <time>2015-09-22T11:39:50Z</time>
      </trkpt>
      <trkpt lat="42.32753" lon="0.13046">
        <ele>651.2</ele>
        <time>2015-09-22T11:39:51Z</time>
      </trkpt>
      <trkpt lat="42.32749" lon="0.13049">
        <ele>651.1</ele>
        <time>2015-09-22T11:39:52Z</time>
      </trkpt>
      <trkpt lat="42.32744" lon="0.13052">
        <ele>651</ele>
        <time>2015-09-22T11:39:53Z</time>
      </trkpt>
      <trkpt lat="42.32739" lon="0.13057">
        <ele>650.7</ele>
        <time>2015-09-22T11:39:54Z</time>
      </trkpt>
      <trkpt lat="42.32734" lon="0.13062">
        <ele>650.4</ele>
        <time>2015-09-22T11:39:55Z</time>
      </trkpt>
      <trkpt lat="42.32729" lon="0.13068">
        <ele>650.1</ele>
        <time>2015-09-22T11:39:56Z</time>
      </trkpt>
      <trkpt lat="42.32725" lon="0.13074">
        <ele>649.7</ele>
        <time>2015-09-22T11:39:57Z</time>
      </trkpt>
      <trkpt lat="42.32721" lon="0.13081">
        <ele>649.3</ele>
        <time>2015-09-22T11:39:58Z</time>
      </trkpt>
      <trkpt lat="42.32717" lon="0.13089">
        <ele>648.7</ele>
        <time>2015-09-22T11:39:59Z</time>
      </trkpt>
      <trkpt lat="42.32714" lon="0.13097">
        <ele>648.1</ele>
        <time>2015-09-22T11:40:00Z</time>
      </trkpt>
      <trkpt lat="42.32711" lon="0.13105">
        <ele>647.5</ele>
        <time>2015-09-22T11:40:01Z</time>
      </trkpt>
      <trkpt lat="42.32707" lon="0.13111">
        <ele>646.9</ele>
        <time>2015-09-22T11:40:02Z</time>
      </trkpt>
      <trkpt lat="42.32702" lon="0.13117">
        <ele>646</ele>
        <time>2015-09-22T11:40:03Z</time>
      </trkpt>
      <trkpt lat="42.32698" lon="0.13122">
        <ele>645.2</ele>
        <time>2015-09-22T11:40:04Z</time>
      </trkpt>
      <trkpt lat="42.32694" lon="0.13126">
        <ele>644.5</ele>
        <time>2015-09-22T11:40:05Z</time>
      </trkpt>
      <trkpt lat="42.3269" lon="0.1313">
        <ele>643.9</ele>
        <time>2015-09-22T11:40:06Z</time>
      </trkpt>
      <trkpt lat="42.32686" lon="0.13133">
        <ele>643.3</ele>
        <time>2015-09-22T11:40:07Z</time>
      </trkpt>
      <trkpt lat="42.32682" lon="0.13136">
        <ele>642.7</ele>
        <time>2015-09-22T11:40:08Z</time>
      </trkpt>
      <trkpt lat="42.32678" lon="0.13141">
        <ele>642</ele>
        <time>2015-09-22T11:40:09Z</time>
      </trkpt>
      <trkpt lat="42.32674" lon="0.13147">
        <ele>641.3</ele>
        <time>2015-09-22T11:40:10Z</time>
      </trkpt>
      <trkpt lat="42.3267" lon="0.13152">
        <ele>640.5</ele>
        <time>2015-09-22T11:40:11Z</time>
      </trkpt>
      <trkpt lat="42.32666" lon="0.13158">
        <ele>639.8</ele>
        <time>2015-09-22T11:40:12Z</time>
      </trkpt>
      <trkpt lat="42.32663" lon="0.13161">
        <ele>639.3</ele>
        <time>2015-09-22T11:40:13Z</time>
      </trkpt>
      <trkpt lat="42.3266" lon="0.13166">
        <ele>638.7</ele>
        <time>2015-09-22T11:40:14Z</time>
      </trkpt>
      <trkpt lat="42.32656" lon="0.13171">
        <ele>638.1</ele>
        <time>2015-09-22T11:40:15Z</time>
      </trkpt>
      <trkpt lat="42.32653" lon="0.13176">
        <ele>637.5</ele>
        <time>2015-09-22T11:40:16Z</time>
      </trkpt>
      <trkpt lat="42.32649" lon="0.1318">
        <ele>636.9</ele>
        <time>2015-09-22T11:40:17Z</time>
      </trkpt>
      <trkpt lat="42.32647" lon="0.13181">
        <ele>636.5</ele>
        <time>2015-09-22T11:40:18Z</time>
      </trkpt>
      <trkpt lat="42.32643" lon="0.13184">
        <ele>636</ele>
        <time>2015-09-22T11:40:20Z</time>
      </trkpt>
      <trkpt lat="42.3264" lon="0.13187">
        <ele>635.6</ele>
        <time>2015-09-22T11:40:21Z</time>
      </trkpt>
      <trkpt lat="42.32638" lon="0.1319">
        <ele>635.3</ele>
        <time>2015-09-22T11:40:22Z</time>
      </trkpt>
      <trkpt lat="42.32635" lon="0.13193">
        <ele>634.8</ele>
        <time>2015-09-22T11:40:24Z</time>
      </trkpt>
      <trkpt lat="42.32632" lon="0.13197">
        <ele>634.2</ele>
        <time>2015-09-22T11:40:26Z</time>
      </trkpt>
      <trkpt lat="42.32628" lon="0.13203">
        <ele>633.6</ele>
        <time>2015-09-22T11:40:28Z</time>
      </trkpt>
      <trkpt lat="42.32625" lon="0.13207">
        <ele>633</ele>
        <time>2015-09-22T11:40:29Z</time>
      </trkpt>
      <trkpt lat="42.32622" lon="0.13211">
        <ele>632.6</ele>
        <time>2015-09-22T11:40:30Z</time>
      </trkpt>
      <trkpt lat="42.32616" lon="0.13222">
        <ele>631.5</ele>
        <time>2015-09-22T11:40:31Z</time>
      </trkpt>
      <trkpt lat="42.32614" lon="0.13228">
        <ele>630.9</ele>
        <time>2015-09-22T11:40:32Z</time>
      </trkpt>
      <trkpt lat="42.32612" lon="0.13236">
        <ele>630.3</ele>
        <time>2015-09-22T11:40:33Z</time>
      </trkpt>
      <trkpt lat="42.32609" lon="0.13243">
        <ele>629.8</ele>
        <time>2015-09-22T11:40:34Z</time>
      </trkpt>
      <trkpt lat="42.32608" lon="0.1325">
        <ele>629.4</ele>
        <time>2015-09-22T11:40:35Z</time>
      </trkpt>
      <trkpt lat="42.32607" lon="0.13257">
        <ele>629</ele>
        <time>2015-09-22T11:40:36Z</time>
      </trkpt>
      <trkpt lat="42.32607" lon="0.13265">
        <ele>628.6</ele>
        <time>2015-09-22T11:40:37Z</time>
      </trkpt>
      <trkpt lat="42.32607" lon="0.13274">
        <ele>628.3</ele>
        <time>2015-09-22T11:40:38Z</time>
      </trkpt>
      <trkpt lat="42.32608" lon="0.13282">
        <ele>628</ele>
        <time>2015-09-22T11:40:39Z</time>
      </trkpt>
      <trkpt lat="42.3261" lon="0.1329">
        <ele>627.8</ele>
        <time>2015-09-22T11:40:40Z</time>
      </trkpt>
      <trkpt lat="42.32612" lon="0.13298">
        <ele>627.3</ele>
        <time>2015-09-22T11:40:41Z</time>
      </trkpt>
      <trkpt lat="42.32613" lon="0.13305">
        <ele>626.8</ele>
        <time>2015-09-22T11:40:42Z</time>
      </trkpt>
      <trkpt lat="42.32613" lon="0.13312">
        <ele>626.2</ele>
        <time>2015-09-22T11:40:43Z</time>
      </trkpt>
      <trkpt lat="42.32612" lon="0.13317">
        <ele>625.5</ele>
        <time>2015-09-22T11:40:44Z</time>
      </trkpt>
      <trkpt lat="42.32609" lon="0.13324">
        <ele>624.7</ele>
        <time>2015-09-22T11:40:45Z</time>
      </trkpt>
      <trkpt lat="42.32606" lon="0.13332">
        <ele>623.8</ele>
        <time>2015-09-22T11:40:46Z</time>
      </trkpt>
      <trkpt lat="42.32604" lon="0.1334">
        <ele>622.9</ele>
        <time>2015-09-22T11:40:47Z</time>
      </trkpt>
      <trkpt lat="42.32601" lon="0.13348">
        <ele>622</ele>
        <time>2015-09-22T11:40:48Z</time>
      </trkpt>
      <trkpt lat="42.32599" lon="0.13355">
        <ele>621.2</ele>
        <time>2015-09-22T11:40:49Z</time>
      </trkpt>
      <trkpt lat="42.32597" lon="0.13362">
        <ele>620.4</ele>
        <time>2015-09-22T11:40:50Z</time>
      </trkpt>
      <trkpt lat="42.32595" lon="0.13368">
        <ele>619.8</ele>
        <time>2015-09-22T11:40:51Z</time>
      </trkpt>
      <trkpt lat="42.32593" lon="0.13373">
        <ele>619.3</ele>
        <time>2015-09-22T11:40:52Z</time>
      </trkpt>
      <trkpt lat="42.3259" lon="0.13377">
        <ele>618.8</ele>
        <time>2015-09-22T11:40:53Z</time>
      </trkpt>
      <trkpt lat="42.32587" lon="0.13385">
        <ele>618</ele>
        <time>2015-09-22T11:40:55Z</time>
      </trkpt>
      <trkpt lat="42.32585" lon="0.13389">
        <ele>617.5</ele>
        <time>2015-09-22T11:40:56Z</time>
      </trkpt>
      <trkpt lat="42.3258" lon="0.13397">
        <ele>616.6</ele>
        <time>2015-09-22T11:40:57Z</time>
      </trkpt>
      <trkpt lat="42.32578" lon="0.13402">
        <ele>616.1</ele>
        <time>2015-09-22T11:40:58Z</time>
      </trkpt>
      <trkpt lat="42.32576" lon="0.13406">
        <ele>615.6</ele>
        <time>2015-09-22T11:40:59Z</time>
      </trkpt>
      <trkpt lat="42.32575" lon="0.1341">
        <ele>615.2</ele>
        <time>2015-09-22T11:41:00Z</time>
      </trkpt>
      <trkpt lat="42.32575" lon="0.13415">
        <ele>614.9</ele>
        <time>2015-09-22T11:41:01Z</time>
      </trkpt>
      <trkpt lat="42.32577" lon="0.1342">
        <ele>614.6</ele>
        <time>2015-09-22T11:41:02Z</time>
      </trkpt>
      <trkpt lat="42.3258" lon="0.13426">
        <ele>614.3</ele>
        <time>2015-09-22T11:41:03Z</time>
      </trkpt>
      <trkpt lat="42.32581" lon="0.13433">
        <ele>613.9</ele>
        <time>2015-09-22T11:41:04Z</time>
      </trkpt>
      <trkpt lat="42.32581" lon="0.13439">
        <ele>613.4</ele>
        <time>2015-09-22T11:41:05Z</time>
      </trkpt>
      <trkpt lat="42.32582" lon="0.13446">
        <ele>612.9</ele>
        <time>2015-09-22T11:41:06Z</time>
      </trkpt>
      <trkpt lat="42.32583" lon="0.13451">
        <ele>612.5</ele>
        <time>2015-09-22T11:41:07Z</time>
      </trkpt>
      <trkpt lat="42.32583" lon="0.13456">
        <ele>612.2</ele>
        <time>2015-09-22T11:41:08Z</time>
      </trkpt>
      <trkpt lat="42.32584" lon="0.13461">
        <ele>612.1</ele>
        <time>2015-09-22T11:41:09Z</time>
      </trkpt>
      <trkpt lat="42.32585" lon="0.13466">
        <ele>612.3</ele>
        <time>2015-09-22T11:41:10Z</time>
      </trkpt>
      <trkpt lat="42.32586" lon="0.13471">
        <ele>612.5</ele>
        <time>2015-09-22T11:41:11Z</time>
      </trkpt>
      <trkpt lat="42.32587" lon="0.13475">
        <ele>612.6</ele>
        <time>2015-09-22T11:41:12Z</time>
      </trkpt>
      <trkpt lat="42.32586" lon="0.13481">
        <ele>612.6</ele>
        <time>2015-09-22T11:41:14Z</time>
      </trkpt>
      <trkpt lat="42.32581" lon="0.13486">
        <ele>612.6</ele>
        <time>2015-09-22T11:41:16Z</time>
      </trkpt>
      <trkpt lat="42.32577" lon="0.1349">
        <ele>612.6</ele>
        <time>2015-09-22T11:41:18Z</time>
      </trkpt>
      <trkpt lat="42.32575" lon="0.13492">
        <ele>612.6</ele>
        <time>2015-09-22T11:41:19Z</time>
      </trkpt>
      <trkpt lat="42.32572" lon="0.13493">
        <ele>612.6</ele>
        <time>2015-09-22T11:41:20Z</time>
      </trkpt>
      <trkpt lat="42.32569" lon="0.13494">
        <ele>612.6</ele>
        <time>2015-09-22T11:41:21Z</time>
      </trkpt>
      <trkpt lat="42.32566" lon="0.13494">
        <ele>612.5</ele>
        <time>2015-09-22T11:41:22Z</time>
      </trkpt>
      <trkpt lat="42.32563" lon="0.13493">
        <ele>612.4</ele>
        <time>2015-09-22T11:41:23Z</time>
      </trkpt>
      <trkpt lat="42.3256" lon="0.13492">
        <ele>612.3</ele>
        <time>2015-09-22T11:41:24Z</time>
      </trkpt>
      <trkpt lat="42.32557" lon="0.13491">
        <ele>612.1</ele>
        <time>2015-09-22T11:41:25Z</time>
      </trkpt>
      <trkpt lat="42.32554" lon="0.13489">
        <ele>611.9</ele>
        <time>2015-09-22T11:41:26Z</time>
      </trkpt>
      <trkpt lat="42.32551" lon="0.13487">
        <ele>611.7</ele>
        <time>2015-09-22T11:41:27Z</time>
      </trkpt>
      <trkpt lat="42.32549" lon="0.13485">
        <ele>611.5</ele>
        <time>2015-09-22T11:41:28Z</time>
      </trkpt>
      <trkpt lat="42.32546" lon="0.13483">
        <ele>611.2</ele>
        <time>2015-09-22T11:41:29Z</time>
      </trkpt>
      <trkpt lat="42.32543" lon="0.13482">
        <ele>611</ele>
        <time>2015-09-22T11:41:30Z</time>
      </trkpt>
      <trkpt lat="42.3254" lon="0.1348">
        <ele>610.8</ele>
        <time>2015-09-22T11:41:31Z</time>
      </trkpt>
      <trkpt lat="42.32536" lon="0.13478">
        <ele>610.7</ele>
        <time>2015-09-22T11:41:32Z</time>
      </trkpt>
      <trkpt lat="42.32533" lon="0.13477">
        <ele>610.7</ele>
        <time>2015-09-22T11:41:33Z</time>
      </trkpt>
      <trkpt lat="42.32529" lon="0.13477">
        <ele>610.7</ele>
        <time>2015-09-22T11:41:34Z</time>
      </trkpt>
      <trkpt lat="42.32526" lon="0.13476">
        <ele>610.7</ele>
        <time>2015-09-22T11:41:35Z</time>
      </trkpt>
      <trkpt lat="42.32522" lon="0.13476">
        <ele>610.7</ele>
        <time>2015-09-22T11:41:37Z</time>
      </trkpt>
      <trkpt lat="42.32517" lon="0.13476">
        <ele>610.8</ele>
        <time>2015-09-22T11:41:39Z</time>
      </trkpt>
      <trkpt lat="42.32513" lon="0.13478">
        <ele>611</ele>
        <time>2015-09-22T11:41:41Z</time>
      </trkpt>
      <trkpt lat="42.32509" lon="0.1348">
        <ele>611.2</ele>
        <time>2015-09-22T11:41:43Z</time>
      </trkpt>
      <trkpt lat="42.32505" lon="0.13482">
        <ele>611.5</ele>
        <time>2015-09-22T11:41:45Z</time>
      </trkpt>
      <trkpt lat="42.32502" lon="0.13485">
        <ele>611.9</ele>
        <time>2015-09-22T11:41:47Z</time>
      </trkpt>
      <trkpt lat="42.325" lon="0.13489">
        <ele>612.4</ele>
        <time>2015-09-22T11:41:49Z</time>
      </trkpt>
      <trkpt lat="42.32499" lon="0.13494">
        <ele>612.8</ele>
        <time>2015-09-22T11:41:51Z</time>
      </trkpt>
      <trkpt lat="42.32498" lon="0.13497">
        <ele>613.3</ele>
        <time>2015-09-22T11:41:53Z</time>
      </trkpt>
      <trkpt lat="42.32497" lon="0.13501">
        <ele>613.7</ele>
        <time>2015-09-22T11:41:55Z</time>
      </trkpt>
      <trkpt lat="42.32496" lon="0.13505">
        <ele>614.2</ele>
        <time>2015-09-22T11:41:57Z</time>
      </trkpt>
      <trkpt lat="42.32493" lon="0.13509">
        <ele>614.7</ele>
        <time>2015-09-22T11:41:59Z</time>
      </trkpt>
      <trkpt lat="42.32491" lon="0.13514">
        <ele>615.2</ele>
        <time>2015-09-22T11:42:01Z</time>
      </trkpt>
      <trkpt lat="42.3249" lon="0.13518">
        <ele>615.8</ele>
        <time>2015-09-22T11:42:03Z</time>
      </trkpt>
      <trkpt lat="42.32488" lon="0.13523">
        <ele>616.4</ele>
        <time>2015-09-22T11:42:05Z</time>
      </trkpt>
      <trkpt lat="42.32485" lon="0.13525">
        <ele>616.8</ele>
        <time>2015-09-22T11:42:07Z</time>
      </trkpt>
      <trkpt lat="42.32483" lon="0.13528">
        <ele>617.2</ele>
        <time>2015-09-22T11:42:09Z</time>
      </trkpt>
      <trkpt lat="42.32481" lon="0.13532">
        <ele>617.7</ele>
        <time>2015-09-22T11:42:11Z</time>
      </trkpt>
      <trkpt lat="42.32478" lon="0.13535">
        <ele>618.2</ele>
        <time>2015-09-22T11:42:13Z</time>
      </trkpt>
      <trkpt lat="42.32476" lon="0.13538">
        <ele>618.7</ele>
        <time>2015-09-22T11:42:15Z</time>
      </trkpt>
      <trkpt lat="42.32474" lon="0.13541">
        <ele>619.2</ele>
        <time>2015-09-22T11:42:17Z</time>
      </trkpt>
      <trkpt lat="42.32471" lon="0.13544">
        <ele>619.6</ele>
        <time>2015-09-22T11:42:19Z</time>
      </trkpt>
      <trkpt lat="42.32468" lon="0.13546">
        <ele>620</ele>
        <time>2015-09-22T11:42:21Z</time>
      </trkpt>
      <trkpt lat="42.32465" lon="0.13549">
        <ele>620.4</ele>
        <time>2015-09-22T11:42:23Z</time>
      </trkpt>
      <trkpt lat="42.32462" lon="0.13552">
        <ele>620.8</ele>
        <time>2015-09-22T11:42:25Z</time>
      </trkpt>
      <trkpt lat="42.32459" lon="0.13556">
        <ele>621.3</ele>
        <time>2015-09-22T11:42:27Z</time>
      </trkpt>
      <trkpt lat="42.32456" lon="0.13559">
        <ele>621.6</ele>
        <time>2015-09-22T11:42:29Z</time>
      </trkpt>
      <trkpt lat="42.32454" lon="0.13562">
        <ele>621.9</ele>
        <time>2015-09-22T11:42:31Z</time>
      </trkpt>
      <trkpt lat="42.32451" lon="0.13564">
        <ele>622.1</ele>
        <time>2015-09-22T11:42:33Z</time>
      </trkpt>
      <trkpt lat="42.32447" lon="0.13564">
        <ele>622.2</ele>
        <time>2015-09-22T11:42:35Z</time>
      </trkpt>
      <trkpt lat="42.32444" lon="0.13565">
        <ele>622.2</ele>
        <time>2015-09-22T11:42:37Z</time>
      </trkpt>
      <trkpt lat="42.32441" lon="0.13564">
        <ele>622.2</ele>
        <time>2015-09-22T11:42:39Z</time>
      </trkpt>
      <trkpt lat="42.32437" lon="0.13563">
        <ele>622.1</ele>
        <time>2015-09-22T11:42:41Z</time>
      </trkpt>
      <trkpt lat="42.32434" lon="0.13563">
        <ele>622.1</ele>
        <time>2015-09-22T11:42:43Z</time>
      </trkpt>
      <trkpt lat="42.3243" lon="0.13562">
        <ele>622</ele>
        <time>2015-09-22T11:42:45Z</time>
      </trkpt>
      <trkpt lat="42.32426" lon="0.13562">
        <ele>622</ele>
        <time>2015-09-22T11:42:47Z</time>
      </trkpt>
      <trkpt lat="42.32423" lon="0.1356">
        <ele>621.8</ele>
        <time>2015-09-22T11:42:49Z</time>
      </trkpt>
      <trkpt lat="42.32419" lon="0.13558">
        <ele>621.7</ele>
        <time>2015-09-22T11:42:51Z</time>
      </trkpt>
      <trkpt lat="42.32415" lon="0.13557">
        <ele>621.5</ele>
        <time>2015-09-22T11:42:53Z</time>
      </trkpt>
      <trkpt lat="42.32412" lon="0.13556">
        <ele>621.5</ele>
        <time>2015-09-22T11:42:54Z</time>
      </trkpt>
      <trkpt lat="42.32409" lon="0.13556">
        <ele>621.4</ele>
        <time>2015-09-22T11:42:55Z</time>
      </trkpt>
      <trkpt lat="42.32406" lon="0.13555">
        <ele>621.4</ele>
        <time>2015-09-22T11:42:56Z</time>
      </trkpt>
      <trkpt lat="42.32402" lon="0.13555">
        <ele>621.3</ele>
        <time>2015-09-22T11:42:57Z</time>
      </trkpt>
      <trkpt lat="42.32398" lon="0.13554">
        <ele>621.3</ele>
        <time>2015-09-22T11:42:58Z</time>
      </trkpt>
      <trkpt lat="42.32394" lon="0.13554">
        <ele>621.3</ele>
        <time>2015-09-22T11:42:59Z</time>
      </trkpt>
      <trkpt lat="42.3239" lon="0.13554">
        <ele>621.3</ele>
        <time>2015-09-22T11:43:00Z</time>
      </trkpt>
      <trkpt lat="42.32386" lon="0.13553">
        <ele>621.2</ele>
        <time>2015-09-22T11:43:01Z</time>
      </trkpt>
      <trkpt lat="42.32383" lon="0.13553">
        <ele>621.2</ele>
        <time>2015-09-22T11:43:02Z</time>
      </trkpt>
      <trkpt lat="42.32379" lon="0.13553">
        <ele>621.2</ele>
        <time>2015-09-22T11:43:03Z</time>
      </trkpt>
      <trkpt lat="42.32375" lon="0.13554">
        <ele>621.3</ele>
        <time>2015-09-22T11:43:04Z</time>
      </trkpt>
      <trkpt lat="42.32372" lon="0.13555">
        <ele>621.1</ele>
        <time>2015-09-22T11:43:05Z</time>
      </trkpt>
      <trkpt lat="42.32369" lon="0.13557">
        <ele>621</ele>
        <time>2015-09-22T11:43:06Z</time>
      </trkpt>
      <trkpt lat="42.32366" lon="0.13558">
        <ele>621</ele>
        <time>2015-09-22T11:43:07Z</time>
      </trkpt>
      <trkpt lat="42.32363" lon="0.1356">
        <ele>620.8</ele>
        <time>2015-09-22T11:43:08Z</time>
      </trkpt>
      <trkpt lat="42.32361" lon="0.13562">
        <ele>620.8</ele>
        <time>2015-09-22T11:43:09Z</time>
      </trkpt>
      <trkpt lat="42.32358" lon="0.13563">
        <ele>620.6</ele>
        <time>2015-09-22T11:43:10Z</time>
      </trkpt>
      <trkpt lat="42.32353" lon="0.13566">
        <ele>620.3</ele>
        <time>2015-09-22T11:43:12Z</time>
      </trkpt>
      <trkpt lat="42.3235" lon="0.13568">
        <ele>620.3</ele>
        <time>2015-09-22T11:43:13Z</time>
      </trkpt>
      <trkpt lat="42.32348" lon="0.13569">
        <ele>620.1</ele>
        <time>2015-09-22T11:43:14Z</time>
      </trkpt>
      <trkpt lat="42.32346" lon="0.13573">
        <ele>620.3</ele>
        <time>2015-09-22T11:43:15Z</time>
      </trkpt>
      <trkpt lat="42.32344" lon="0.13575">
        <ele>620.3</ele>
        <time>2015-09-22T11:43:16Z</time>
      </trkpt>
      <trkpt lat="42.32342" lon="0.13582">
        <ele>620.6</ele>
        <time>2015-09-22T11:43:18Z</time>
      </trkpt>
      <trkpt lat="42.3234" lon="0.13585">
        <ele>620.6</ele>
        <time>2015-09-22T11:43:19Z</time>
      </trkpt>
      <trkpt lat="42.32338" lon="0.13587">
        <ele>620.6</ele>
        <time>2015-09-22T11:43:20Z</time>
      </trkpt>
      <trkpt lat="42.32334" lon="0.13589">
        <ele>620.3</ele>
        <time>2015-09-22T11:43:21Z</time>
      </trkpt>
      <trkpt lat="42.32331" lon="0.13591">
        <ele>620</ele>
        <time>2015-09-22T11:43:22Z</time>
      </trkpt>
      <trkpt lat="42.32327" lon="0.13593">
        <ele>619.7</ele>
        <time>2015-09-22T11:43:23Z</time>
      </trkpt>
      <trkpt lat="42.32323" lon="0.13596">
        <ele>619.5</ele>
        <time>2015-09-22T11:43:24Z</time>
      </trkpt>
      <trkpt lat="42.32319" lon="0.13598">
        <ele>619.1</ele>
        <time>2015-09-22T11:43:25Z</time>
      </trkpt>
      <trkpt lat="42.32315" lon="0.136">
        <ele>618.8</ele>
        <time>2015-09-22T11:43:26Z</time>
      </trkpt>
      <trkpt lat="42.32311" lon="0.13603">
        <ele>618.4</ele>
        <time>2015-09-22T11:43:27Z</time>
      </trkpt>
      <trkpt lat="42.32308" lon="0.13605">
        <ele>618.1</ele>
        <time>2015-09-22T11:43:28Z</time>
      </trkpt>
      <trkpt lat="42.32304" lon="0.13607">
        <ele>617.7</ele>
        <time>2015-09-22T11:43:29Z</time>
      </trkpt>
      <trkpt lat="42.323" lon="0.13609">
        <ele>617.3</ele>
        <time>2015-09-22T11:43:30Z</time>
      </trkpt>
      <trkpt lat="42.32296" lon="0.13612">
        <ele>616.9</ele>
        <time>2015-09-22T11:43:31Z</time>
      </trkpt>
      <trkpt lat="42.32292" lon="0.13614">
        <ele>616.6</ele>
        <time>2015-09-22T11:43:32Z</time>
      </trkpt>
      <trkpt lat="42.32289" lon="0.13619">
        <ele>616.4</ele>
        <time>2015-09-22T11:43:33Z</time>
      </trkpt>
      <trkpt lat="42.32286" lon="0.13622">
        <ele>616.2</ele>
        <time>2015-09-22T11:43:34Z</time>
      </trkpt>
      <trkpt lat="42.32282" lon="0.13625">
        <ele>616</ele>
        <time>2015-09-22T11:43:35Z</time>
      </trkpt>
      <trkpt lat="42.32276" lon="0.13629">
        <ele>615.7</ele>
        <time>2015-09-22T11:43:36Z</time>
      </trkpt>
      <trkpt lat="42.32271" lon="0.13632">
        <ele>615.5</ele>
        <time>2015-09-22T11:43:37Z</time>
      </trkpt>
      <trkpt lat="42.32266" lon="0.13635">
        <ele>615.3</ele>
        <time>2015-09-22T11:43:38Z</time>
      </trkpt>
      <trkpt lat="42.32261" lon="0.13638">
        <ele>615.2</ele>
        <time>2015-09-22T11:43:39Z</time>
      </trkpt>
      <trkpt lat="42.32256" lon="0.13642">
        <ele>615.1</ele>
        <time>2015-09-22T11:43:40Z</time>
      </trkpt>
      <trkpt lat="42.32251" lon="0.13646">
        <ele>615</ele>
        <time>2015-09-22T11:43:41Z</time>
      </trkpt>
      <trkpt lat="42.32246" lon="0.13649">
        <ele>615</ele>
        <time>2015-09-22T11:43:42Z</time>
      </trkpt>
      <trkpt lat="42.32241" lon="0.13653">
        <ele>614.9</ele>
        <time>2015-09-22T11:43:43Z</time>
      </trkpt>
      <trkpt lat="42.32236" lon="0.13657">
        <ele>614.9</ele>
        <time>2015-09-22T11:43:44Z</time>
      </trkpt>
      <trkpt lat="42.3223" lon="0.13661">
        <ele>614.8</ele>
        <time>2015-09-22T11:43:45Z</time>
      </trkpt>
      <trkpt lat="42.32224" lon="0.13664">
        <ele>614.7</ele>
        <time>2015-09-22T11:43:46Z</time>
      </trkpt>
      <trkpt lat="42.32219" lon="0.13668">
        <ele>614.7</ele>
        <time>2015-09-22T11:43:47Z</time>
      </trkpt>
      <trkpt lat="42.32213" lon="0.13671">
        <ele>614.5</ele>
        <time>2015-09-22T11:43:48Z</time>
      </trkpt>
      <trkpt lat="42.32207" lon="0.13673">
        <ele>614.4</ele>
        <time>2015-09-22T11:43:49Z</time>
      </trkpt>
      <trkpt lat="42.32203" lon="0.13674">
        <ele>614.6</ele>
        <time>2015-09-22T11:43:50Z</time>
      </trkpt>
      <trkpt lat="42.32199" lon="0.13673">
        <ele>614.6</ele>
        <time>2015-09-22T11:43:52Z</time>
      </trkpt>
      <trkpt lat="42.32197" lon="0.13675">
        <ele>614.9</ele>
        <time>2015-09-22T11:43:54Z</time>
      </trkpt>
      <trkpt lat="42.32196" lon="0.13679">
        <ele>615.4</ele>
        <time>2015-09-22T11:43:56Z</time>
      </trkpt>
      <trkpt lat="42.32199" lon="0.13681">
        <ele>615.6</ele>
        <time>2015-09-22T11:43:58Z</time>
      </trkpt>
      <trkpt lat="42.32203" lon="0.13685">
        <ele>616.1</ele>
        <time>2015-09-22T11:44:00Z</time>
      </trkpt>
      <trkpt lat="42.32205" lon="0.1369">
        <ele>616.7</ele>
        <time>2015-09-22T11:44:02Z</time>
      </trkpt>
      <trkpt lat="42.32207" lon="0.13695">
        <ele>617.2</ele>
        <time>2015-09-22T11:44:04Z</time>
      </trkpt>
      <trkpt lat="42.32208" lon="0.137">
        <ele>617.9</ele>
        <time>2015-09-22T11:44:06Z</time>
      </trkpt>
      <trkpt lat="42.3221" lon="0.13705">
        <ele>618.7</ele>
        <time>2015-09-22T11:44:08Z</time>
      </trkpt>
      <trkpt lat="42.32213" lon="0.13711">
        <ele>619.4</ele>
        <time>2015-09-22T11:44:10Z</time>
      </trkpt>
      <trkpt lat="42.32214" lon="0.13715">
        <ele>619.6</ele>
        <time>2015-09-22T11:44:11Z</time>
      </trkpt>
      <trkpt lat="42.32216" lon="0.13718">
        <ele>619.9</ele>
        <time>2015-09-22T11:44:12Z</time>
      </trkpt>
      <trkpt lat="42.32217" lon="0.13721">
        <ele>620.1</ele>
        <time>2015-09-22T11:44:13Z</time>
      </trkpt>
      <trkpt lat="42.32219" lon="0.13725">
        <ele>620.3</ele>
        <time>2015-09-22T11:44:14Z</time>
      </trkpt>
      <trkpt lat="42.3222" lon="0.13728">
        <ele>620.5</ele>
        <time>2015-09-22T11:44:15Z</time>
      </trkpt>
      <trkpt lat="42.32224" lon="0.13733">
        <ele>620.9</ele>
        <time>2015-09-22T11:44:17Z</time>
      </trkpt>
      <trkpt lat="42.32227" lon="0.13738">
        <ele>621.3</ele>
        <time>2015-09-22T11:44:19Z</time>
      </trkpt>
      <trkpt lat="42.32231" lon="0.13743">
        <ele>621.7</ele>
        <time>2015-09-22T11:44:21Z</time>
      </trkpt>
      <trkpt lat="42.32234" lon="0.13748">
        <ele>622.1</ele>
        <time>2015-09-22T11:44:23Z</time>
      </trkpt>
      <trkpt lat="42.32237" lon="0.13753">
        <ele>622.4</ele>
        <time>2015-09-22T11:44:25Z</time>
      </trkpt>
      <trkpt lat="42.32239" lon="0.13758">
        <ele>622.8</ele>
        <time>2015-09-22T11:44:27Z</time>
      </trkpt>
      <trkpt lat="42.32241" lon="0.13763">
        <ele>623.1</ele>
        <time>2015-09-22T11:44:29Z</time>
      </trkpt>
      <trkpt lat="42.32244" lon="0.13764">
        <ele>623.4</ele>
        <time>2015-09-22T11:44:42Z</time>
      </trkpt>
      <trkpt lat="42.32247" lon="0.13766">
        <ele>623.6</ele>
        <time>2015-09-22T11:44:47Z</time>
      </trkpt>
      <trkpt lat="42.3225" lon="0.13767">
        <ele>623.9</ele>
        <time>2015-09-22T11:44:51Z</time>
      </trkpt>
      <trkpt lat="42.32253" lon="0.1377">
        <ele>624.2</ele>
        <time>2015-09-22T11:44:55Z</time>
      </trkpt>
      <trkpt lat="42.32256" lon="0.13772">
        <ele>624.5</ele>
        <time>2015-09-22T11:44:59Z</time>
      </trkpt>
      <trkpt lat="42.32259" lon="0.13773">
        <ele>624.8</ele>
        <time>2015-09-22T11:45:03Z</time>
      </trkpt>
      <trkpt lat="42.32262" lon="0.13775">
        <ele>625.1</ele>
        <time>2015-09-22T11:45:07Z</time>
      </trkpt>
      <trkpt lat="42.32264" lon="0.13777">
        <ele>625.3</ele>
        <time>2015-09-22T11:45:14Z</time>
      </trkpt>
      <trkpt lat="42.32268" lon="0.13779">
        <ele>625.7</ele>
        <time>2015-09-22T11:45:17Z</time>
      </trkpt>
      <trkpt lat="42.32269" lon="0.13782">
        <ele>625.9</ele>
        <time>2015-09-22T11:45:19Z</time>
      </trkpt>
      <trkpt lat="42.3227" lon="0.13786">
        <ele>626.1</ele>
        <time>2015-09-22T11:45:21Z</time>
      </trkpt>
      <trkpt lat="42.32272" lon="0.13788">
        <ele>626.3</ele>
        <time>2015-09-22T11:45:23Z</time>
      </trkpt>
      <trkpt lat="42.32276" lon="0.13788">
        <ele>626.6</ele>
        <time>2015-09-22T11:45:26Z</time>
      </trkpt>
      <trkpt lat="42.32278" lon="0.13785">
        <ele>626.7</ele>
        <time>2015-09-22T11:45:28Z</time>
      </trkpt>
      <trkpt lat="42.32281" lon="0.13784">
        <ele>626.9</ele>
        <time>2015-09-22T11:45:30Z</time>
      </trkpt>
      <trkpt lat="42.32285" lon="0.13783">
        <ele>627.2</ele>
        <time>2015-09-22T11:45:32Z</time>
      </trkpt>
      <trkpt lat="42.32288" lon="0.1378">
        <ele>627.4</ele>
        <time>2015-09-22T11:45:34Z</time>
      </trkpt>
      <trkpt lat="42.32292" lon="0.13779">
        <ele>627.7</ele>
        <time>2015-09-22T11:45:36Z</time>
      </trkpt>
      <trkpt lat="42.32295" lon="0.13779">
        <ele>628.7</ele>
        <time>2015-09-22T11:45:38Z</time>
      </trkpt>
      <trkpt lat="42.32298" lon="0.13777">
        <ele>629.3</ele>
        <time>2015-09-22T11:45:46Z</time>
      </trkpt>
      <trkpt lat="42.323" lon="0.13776">
        <ele>630</ele>
        <time>2015-09-22T11:45:50Z</time>
      </trkpt>
      <trkpt lat="42.32303" lon="0.13774">
        <ele>630.8</ele>
        <time>2015-09-22T11:45:54Z</time>
      </trkpt>
      <trkpt lat="42.32306" lon="0.13775">
        <ele>631.7</ele>
        <time>2015-09-22T11:45:58Z</time>
      </trkpt>
      <trkpt lat="42.32309" lon="0.13776">
        <ele>632.6</ele>
        <time>2015-09-22T11:46:02Z</time>
      </trkpt>
      <trkpt lat="42.32312" lon="0.13777">
        <ele>633.6</ele>
        <time>2015-09-22T11:46:07Z</time>
      </trkpt>
      <trkpt lat="42.32315" lon="0.13778">
        <ele>634.4</ele>
        <time>2015-09-22T11:46:12Z</time>
      </trkpt>
      <trkpt lat="42.32317" lon="0.13782">
        <ele>635.3</ele>
        <time>2015-09-22T11:46:16Z</time>
      </trkpt>
      <trkpt lat="42.32319" lon="0.13786">
        <ele>636</ele>
        <time>2015-09-22T11:46:20Z</time>
      </trkpt>
      <trkpt lat="42.32321" lon="0.13789">
        <ele>636.6</ele>
        <time>2015-09-22T11:46:27Z</time>
      </trkpt>
      <trkpt lat="42.32323" lon="0.13792">
        <ele>637.3</ele>
        <time>2015-09-22T11:46:29Z</time>
      </trkpt>
      <trkpt lat="42.32324" lon="0.13796">
        <ele>637.2</ele>
        <time>2015-09-22T11:46:31Z</time>
      </trkpt>
      <trkpt lat="42.32325" lon="0.138">
        <ele>636.9</ele>
        <time>2015-09-22T11:46:33Z</time>
      </trkpt>
      <trkpt lat="42.32325" lon="0.13804">
        <ele>636.5</ele>
        <time>2015-09-22T11:46:35Z</time>
      </trkpt>
      <trkpt lat="42.32325" lon="0.13809">
        <ele>635.8</ele>
        <time>2015-09-22T11:46:38Z</time>
      </trkpt>
      <trkpt lat="42.32327" lon="0.13813">
        <ele>635.7</ele>
        <time>2015-09-22T11:46:41Z</time>
      </trkpt>
      <trkpt lat="42.32329" lon="0.13818">
        <ele>635.6</ele>
        <time>2015-09-22T11:46:44Z</time>
      </trkpt>
      <trkpt lat="42.3233" lon="0.13824">
        <ele>635.2</ele>
        <time>2015-09-22T11:46:46Z</time>
      </trkpt>
      <trkpt lat="42.32331" lon="0.1383">
        <ele>634.9</ele>
        <time>2015-09-22T11:46:48Z</time>
      </trkpt>
      <trkpt lat="42.32333" lon="0.13834">
        <ele>634.8</ele>
        <time>2015-09-22T11:46:50Z</time>
      </trkpt>
      <trkpt lat="42.32334" lon="0.13838">
        <ele>634.7</ele>
        <time>2015-09-22T11:46:52Z</time>
      </trkpt>
      <trkpt lat="42.32337" lon="0.13839">
        <ele>635.3</ele>
        <time>2015-09-22T11:46:55Z</time>
      </trkpt>
      <trkpt lat="42.3234" lon="0.13842">
        <ele>635.7</ele>
        <time>2015-09-22T11:46:58Z</time>
      </trkpt>
      <trkpt lat="42.32342" lon="0.13844">
        <ele>636</ele>
        <time>2015-09-22T11:47:01Z</time>
      </trkpt>
      <trkpt lat="42.32343" lon="0.13848">
        <ele>635.9</ele>
        <time>2015-09-22T11:47:06Z</time>
      </trkpt>
      <trkpt lat="42.32346" lon="0.13851">
        <ele>636.2</ele>
        <time>2015-09-22T11:47:11Z</time>
      </trkpt>
      <trkpt lat="42.32346" lon="0.13855">
        <ele>635.7</ele>
        <time>2015-09-22T11:47:19Z</time>
      </trkpt>
      <trkpt lat="42.32345" lon="0.13859">
        <ele>634.9</ele>
        <time>2015-09-22T11:47:26Z</time>
      </trkpt>
      <trkpt lat="42.32347" lon="0.13862">
        <ele>634.9</ele>
        <time>2015-09-22T11:47:31Z</time>
      </trkpt>
      <trkpt lat="42.32349" lon="0.13865">
        <ele>635.2</ele>
        <time>2015-09-22T11:47:35Z</time>
      </trkpt>
      <trkpt lat="42.32352" lon="0.13867">
        <ele>635.9</ele>
        <time>2015-09-22T11:47:39Z</time>
      </trkpt>
      <trkpt lat="42.32355" lon="0.1387">
        <ele>636.2</ele>
        <time>2015-09-22T11:47:43Z</time>
      </trkpt>
      <trkpt lat="42.32357" lon="0.13874">
        <ele>636.2</ele>
        <time>2015-09-22T11:47:47Z</time>
      </trkpt>
      <trkpt lat="42.32358" lon="0.13877">
        <ele>636</ele>
        <time>2015-09-22T11:47:50Z</time>
      </trkpt>
      <trkpt lat="42.3236" lon="0.13881">
        <ele>635.6</ele>
        <time>2015-09-22T11:47:54Z</time>
      </trkpt>
      <trkpt lat="42.32361" lon="0.13885">
        <ele>635.2</ele>
        <time>2015-09-22T11:47:58Z</time>
      </trkpt>
      <trkpt lat="42.32364" lon="0.13883">
        <ele>636.4</ele>
        <time>2015-09-22T11:48:05Z</time>
      </trkpt>
      <trkpt lat="42.32365" lon="0.13879">
        <ele>637.3</ele>
        <time>2015-09-22T11:48:09Z</time>
      </trkpt>
      <trkpt lat="42.32364" lon="0.13875">
        <ele>638</ele>
        <time>2015-09-22T11:48:13Z</time>
      </trkpt>
      <trkpt lat="42.32363" lon="0.13872">
        <ele>638</ele>
        <time>2015-09-22T11:48:17Z</time>
      </trkpt>
      <trkpt lat="42.32362" lon="0.13868">
        <ele>638.4</ele>
        <time>2015-09-22T11:48:21Z</time>
      </trkpt>
      <trkpt lat="42.32361" lon="0.13864">
        <ele>638.7</ele>
        <time>2015-09-22T11:48:25Z</time>
      </trkpt>
      <trkpt lat="42.32361" lon="0.1386">
        <ele>639.3</ele>
        <time>2015-09-22T11:48:29Z</time>
      </trkpt>
      <trkpt lat="42.32364" lon="0.13858">
        <ele>640.3</ele>
        <time>2015-09-22T11:48:33Z</time>
      </trkpt>
      <trkpt lat="42.32367" lon="0.13859">
        <ele>641</ele>
        <time>2015-09-22T11:48:37Z</time>
      </trkpt>
      <trkpt lat="42.32369" lon="0.13856">
        <ele>641.9</ele>
        <time>2015-09-22T11:48:41Z</time>
      </trkpt>
      <trkpt lat="42.32369" lon="0.13851">
        <ele>642.7</ele>
        <time>2015-09-22T11:48:45Z</time>
      </trkpt>
      <trkpt lat="42.3237" lon="0.13847">
        <ele>643.7</ele>
        <time>2015-09-22T11:48:49Z</time>
      </trkpt>
      <trkpt lat="42.32373" lon="0.13843">
        <ele>644.9</ele>
        <time>2015-09-22T11:48:54Z</time>
      </trkpt>
      <trkpt lat="42.32376" lon="0.1384">
        <ele>646.2</ele>
        <time>2015-09-22T11:48:56Z</time>
      </trkpt>
      <trkpt lat="42.32379" lon="0.13836">
        <ele>647.1</ele>
        <time>2015-09-22T11:48:58Z</time>
      </trkpt>
      <trkpt lat="42.32382" lon="0.13833">
        <ele>648.1</ele>
        <time>2015-09-22T11:49:00Z</time>
      </trkpt>
      <trkpt lat="42.32385" lon="0.1383">
        <ele>649</ele>
        <time>2015-09-22T11:49:02Z</time>
      </trkpt>
      <trkpt lat="42.32389" lon="0.13826">
        <ele>650.1</ele>
        <time>2015-09-22T11:49:04Z</time>
      </trkpt>
      <trkpt lat="42.32392" lon="0.13823">
        <ele>651</ele>
        <time>2015-09-22T11:49:06Z</time>
      </trkpt>
      <trkpt lat="42.32396" lon="0.1382">
        <ele>652</ele>
        <time>2015-09-22T11:49:08Z</time>
      </trkpt>
      <trkpt lat="42.32399" lon="0.13817">
        <ele>653</ele>
        <time>2015-09-22T11:49:10Z</time>
      </trkpt>
      <trkpt lat="42.32403" lon="0.13815">
        <ele>654</ele>
        <time>2015-09-22T11:49:12Z</time>
      </trkpt>
      <trkpt lat="42.32407" lon="0.13812">
        <ele>655.1</ele>
        <time>2015-09-22T11:49:14Z</time>
      </trkpt>
      <trkpt lat="42.32411" lon="0.13809">
        <ele>656.2</ele>
        <time>2015-09-22T11:49:16Z</time>
      </trkpt>
      <trkpt lat="42.32414" lon="0.13806">
        <ele>657.2</ele>
        <time>2015-09-22T11:49:18Z</time>
      </trkpt>
      <trkpt lat="42.32419" lon="0.13804">
        <ele>658.2</ele>
        <time>2015-09-22T11:49:20Z</time>
      </trkpt>
      <trkpt lat="42.32423" lon="0.13802">
        <ele>659.3</ele>
        <time>2015-09-22T11:49:22Z</time>
      </trkpt>
      <trkpt lat="42.32427" lon="0.13799">
        <ele>660.4</ele>
        <time>2015-09-22T11:49:24Z</time>
      </trkpt>
      <trkpt lat="42.32431" lon="0.13796">
        <ele>661.6</ele>
        <time>2015-09-22T11:49:26Z</time>
      </trkpt>
      <trkpt lat="42.32435" lon="0.13793">
        <ele>662.7</ele>
        <time>2015-09-22T11:49:28Z</time>
      </trkpt>
      <trkpt lat="42.32439" lon="0.13792">
        <ele>663.7</ele>
        <time>2015-09-22T11:49:30Z</time>
      </trkpt>
      <trkpt lat="42.32444" lon="0.13792">
        <ele>664.5</ele>
        <time>2015-09-22T11:49:32Z</time>
      </trkpt>
      <trkpt lat="42.32448" lon="0.1379">
        <ele>665</ele>
        <time>2015-09-22T11:49:34Z</time>
      </trkpt>
      <trkpt lat="42.32452" lon="0.13788">
        <ele>665.3</ele>
        <time>2015-09-22T11:49:36Z</time>
      </trkpt>
      <trkpt lat="42.32456" lon="0.13785">
        <ele>665.6</ele>
        <time>2015-09-22T11:49:38Z</time>
      </trkpt>
      <trkpt lat="42.32459" lon="0.13783">
        <ele>665.6</ele>
        <time>2015-09-22T11:49:40Z</time>
      </trkpt>
      <trkpt lat="42.32463" lon="0.13782">
        <ele>665.4</ele>
        <time>2015-09-22T11:49:42Z</time>
      </trkpt>
      <trkpt lat="42.32467" lon="0.1378">
        <ele>665.1</ele>
        <time>2015-09-22T11:49:44Z</time>
      </trkpt>
      <trkpt lat="42.3247" lon="0.13779">
        <ele>664.8</ele>
        <time>2015-09-22T11:49:46Z</time>
      </trkpt>
      <trkpt lat="42.32474" lon="0.13777">
        <ele>664.5</ele>
        <time>2015-09-22T11:49:48Z</time>
      </trkpt>
      <trkpt lat="42.32477" lon="0.13775">
        <ele>664.1</ele>
        <time>2015-09-22T11:49:50Z</time>
      </trkpt>
      <trkpt lat="42.32481" lon="0.13775">
        <ele>664</ele>
        <time>2015-09-22T11:49:52Z</time>
      </trkpt>
      <trkpt lat="42.32485" lon="0.13775">
        <ele>664.1</ele>
        <time>2015-09-22T11:49:54Z</time>
      </trkpt>
      <trkpt lat="42.32489" lon="0.13776">
        <ele>664.2</ele>
        <time>2015-09-22T11:49:56Z</time>
      </trkpt>
      <trkpt lat="42.32492" lon="0.13778">
        <ele>664.4</ele>
        <time>2015-09-22T11:49:58Z</time>
      </trkpt>
      <trkpt lat="42.32494" lon="0.13782">
        <ele>665.2</ele>
        <time>2015-09-22T11:50:03Z</time>
      </trkpt>
      <trkpt lat="42.32494" lon="0.13786">
        <ele>666</ele>
        <time>2015-09-22T11:50:07Z</time>
      </trkpt>
      <trkpt lat="42.32495" lon="0.1379">
        <ele>666.7</ele>
        <time>2015-09-22T11:50:12Z</time>
      </trkpt>
      <trkpt lat="42.32497" lon="0.13792">
        <ele>667</ele>
        <time>2015-09-22T11:50:16Z</time>
      </trkpt>
      <trkpt lat="42.325" lon="0.13792">
        <ele>667</ele>
        <time>2015-09-22T11:50:20Z</time>
      </trkpt>
      <trkpt lat="42.32504" lon="0.13792">
        <ele>666.9</ele>
        <time>2015-09-22T11:50:24Z</time>
      </trkpt>
      <trkpt lat="42.32506" lon="0.13792">
        <ele>666.9</ele>
        <time>2015-09-22T11:50:27Z</time>
      </trkpt>
      <trkpt lat="42.32509" lon="0.13792">
        <ele>667</ele>
        <time>2015-09-22T11:50:30Z</time>
      </trkpt>
      <trkpt lat="42.32513" lon="0.13792">
        <ele>667</ele>
        <time>2015-09-22T11:50:32Z</time>
      </trkpt>
      <trkpt lat="42.32517" lon="0.13791">
        <ele>666.8</ele>
        <time>2015-09-22T11:50:34Z</time>
      </trkpt>
      <trkpt lat="42.32522" lon="0.13789">
        <ele>666.4</ele>
        <time>2015-09-22T11:50:36Z</time>
      </trkpt>
      <trkpt lat="42.32526" lon="0.13788">
        <ele>666.3</ele>
        <time>2015-09-22T11:50:38Z</time>
      </trkpt>
      <trkpt lat="42.3253" lon="0.13787">
        <ele>666</ele>
        <time>2015-09-22T11:50:40Z</time>
      </trkpt>
      <trkpt lat="42.32534" lon="0.13786">
        <ele>665.7</ele>
        <time>2015-09-22T11:50:42Z</time>
      </trkpt>
      <trkpt lat="42.32537" lon="0.13785">
        <ele>665.4</ele>
        <time>2015-09-22T11:50:43Z</time>
      </trkpt>
      <trkpt lat="42.3254" lon="0.13784">
        <ele>665.2</ele>
        <time>2015-09-22T11:50:44Z</time>
      </trkpt>
      <trkpt lat="42.32543" lon="0.13783">
        <ele>665.1</ele>
        <time>2015-09-22T11:50:45Z</time>
      </trkpt>
      <trkpt lat="42.32546" lon="0.13783">
        <ele>665.1</ele>
        <time>2015-09-22T11:50:46Z</time>
      </trkpt>
      <trkpt lat="42.32549" lon="0.13783">
        <ele>665.1</ele>
        <time>2015-09-22T11:50:47Z</time>
      </trkpt>
      <trkpt lat="42.32553" lon="0.13782">
        <ele>665.1</ele>
        <time>2015-09-22T11:50:48Z</time>
      </trkpt>
      <trkpt lat="42.32556" lon="0.13782">
        <ele>665</ele>
        <time>2015-09-22T11:50:49Z</time>
      </trkpt>
      <trkpt lat="42.32559" lon="0.13781">
        <ele>664.9</ele>
        <time>2015-09-22T11:50:50Z</time>
      </trkpt>
      <trkpt lat="42.32562" lon="0.13781">
        <ele>664.8</ele>
        <time>2015-09-22T11:50:51Z</time>
      </trkpt>
      <trkpt lat="42.32565" lon="0.1378">
        <ele>664.8</ele>
        <time>2015-09-22T11:50:52Z</time>
      </trkpt>
      <trkpt lat="42.32569" lon="0.13781">
        <ele>665</ele>
        <time>2015-09-22T11:50:53Z</time>
      </trkpt>
      <trkpt lat="42.32572" lon="0.13782">
        <ele>665.4</ele>
        <time>2015-09-22T11:50:54Z</time>
      </trkpt>
      <trkpt lat="42.32576" lon="0.13784">
        <ele>665.9</ele>
        <time>2015-09-22T11:50:55Z</time>
      </trkpt>
      <trkpt lat="42.3258" lon="0.13786">
        <ele>666.5</ele>
        <time>2015-09-22T11:50:56Z</time>
      </trkpt>
      <trkpt lat="42.32583" lon="0.13788">
        <ele>667</ele>
        <time>2015-09-22T11:50:57Z</time>
      </trkpt>
      <trkpt lat="42.32586" lon="0.13789">
        <ele>667.5</ele>
        <time>2015-09-22T11:50:58Z</time>
      </trkpt>
      <trkpt lat="42.32589" lon="0.13791">
        <ele>668</ele>
        <time>2015-09-22T11:50:59Z</time>
      </trkpt>
      <trkpt lat="42.32592" lon="0.13793">
        <ele>668</ele>
        <time>2015-09-22T11:51:00Z</time>
      </trkpt>
      <trkpt lat="42.32595" lon="0.13795">
        <ele>667.8</ele>
        <time>2015-09-22T11:51:01Z</time>
      </trkpt>
      <trkpt lat="42.32598" lon="0.13796">
        <ele>667.7</ele>
        <time>2015-09-22T11:51:02Z</time>
      </trkpt>
      <trkpt lat="42.32602" lon="0.13797">
        <ele>667.5</ele>
        <time>2015-09-22T11:51:03Z</time>
      </trkpt>
      <trkpt lat="42.32604" lon="0.13799">
        <ele>667.4</ele>
        <time>2015-09-22T11:51:04Z</time>
      </trkpt>
      <trkpt lat="42.32607" lon="0.138">
        <ele>667.2</ele>
        <time>2015-09-22T11:51:05Z</time>
      </trkpt>
      <trkpt lat="42.3261" lon="0.13802">
        <ele>667.1</ele>
        <time>2015-09-22T11:51:06Z</time>
      </trkpt>
      <trkpt lat="42.32613" lon="0.13802">
        <ele>667.1</ele>
        <time>2015-09-22T11:51:07Z</time>
      </trkpt>
      <trkpt lat="42.32616" lon="0.13803">
        <ele>667</ele>
        <time>2015-09-22T11:51:08Z</time>
      </trkpt>
      <trkpt lat="42.32619" lon="0.13802">
        <ele>667.2</ele>
        <time>2015-09-22T11:51:09Z</time>
      </trkpt>
      <trkpt lat="42.32622" lon="0.13801">
        <ele>667.5</ele>
        <time>2015-09-22T11:51:10Z</time>
      </trkpt>
      <trkpt lat="42.32626" lon="0.13799">
        <ele>667.9</ele>
        <time>2015-09-22T11:51:11Z</time>
      </trkpt>
      <trkpt lat="42.32629" lon="0.13797">
        <ele>668.3</ele>
        <time>2015-09-22T11:51:12Z</time>
      </trkpt>
      <trkpt lat="42.32633" lon="0.13795">
        <ele>668.7</ele>
        <time>2015-09-22T11:51:13Z</time>
      </trkpt>
      <trkpt lat="42.32636" lon="0.13794">
        <ele>669.1</ele>
        <time>2015-09-22T11:51:14Z</time>
      </trkpt>
      <trkpt lat="42.32639" lon="0.13792">
        <ele>669.4</ele>
        <time>2015-09-22T11:51:15Z</time>
      </trkpt>
      <trkpt lat="42.32642" lon="0.13791">
        <ele>669.5</ele>
        <time>2015-09-22T11:51:16Z</time>
      </trkpt>
      <trkpt lat="42.32645" lon="0.13794">
        <ele>669.4</ele>
        <time>2015-09-22T11:51:17Z</time>
      </trkpt>
      <trkpt lat="42.32647" lon="0.13795">
        <ele>669.3</ele>
        <time>2015-09-22T11:51:18Z</time>
      </trkpt>
      <trkpt lat="42.3265" lon="0.13797">
        <ele>669.3</ele>
        <time>2015-09-22T11:51:19Z</time>
      </trkpt>
      <trkpt lat="42.32655" lon="0.13799">
        <ele>669.2</ele>
        <time>2015-09-22T11:51:21Z</time>
      </trkpt>
      <trkpt lat="42.32658" lon="0.13801">
        <ele>669.1</ele>
        <time>2015-09-22T11:51:23Z</time>
      </trkpt>
      <trkpt lat="42.32662" lon="0.13804">
        <ele>669</ele>
        <time>2015-09-22T11:51:25Z</time>
      </trkpt>
      <trkpt lat="42.32666" lon="0.13807">
        <ele>668.9</ele>
        <time>2015-09-22T11:51:27Z</time>
      </trkpt>
      <trkpt lat="42.32671" lon="0.13809">
        <ele>669</ele>
        <time>2015-09-22T11:51:29Z</time>
      </trkpt>
      <trkpt lat="42.32676" lon="0.13809">
        <ele>669.2</ele>
        <time>2015-09-22T11:51:31Z</time>
      </trkpt>
      <trkpt lat="42.32682" lon="0.13811">
        <ele>669.4</ele>
        <time>2015-09-22T11:51:33Z</time>
      </trkpt>
      <trkpt lat="42.32685" lon="0.13812">
        <ele>669.6</ele>
        <time>2015-09-22T11:51:34Z</time>
      </trkpt>
      <trkpt lat="42.32688" lon="0.13812">
        <ele>669.7</ele>
        <time>2015-09-22T11:51:35Z</time>
      </trkpt>
      <trkpt lat="42.32692" lon="0.13813">
        <ele>669.9</ele>
        <time>2015-09-22T11:51:36Z</time>
      </trkpt>
      <trkpt lat="42.32695" lon="0.13813">
        <ele>670.1</ele>
        <time>2015-09-22T11:51:37Z</time>
      </trkpt>
      <trkpt lat="42.32698" lon="0.13813">
        <ele>670.3</ele>
        <time>2015-09-22T11:51:38Z</time>
      </trkpt>
      <trkpt lat="42.32701" lon="0.13813">
        <ele>670.5</ele>
        <time>2015-09-22T11:51:39Z</time>
      </trkpt>
      <trkpt lat="42.32704" lon="0.13813">
        <ele>670.6</ele>
        <time>2015-09-22T11:51:40Z</time>
      </trkpt>
      <trkpt lat="42.32707" lon="0.13814">
        <ele>670.8</ele>
        <time>2015-09-22T11:51:41Z</time>
      </trkpt>
      <trkpt lat="42.32709" lon="0.13815">
        <ele>670.9</ele>
        <time>2015-09-22T11:51:42Z</time>
      </trkpt>
      <trkpt lat="42.32712" lon="0.13815">
        <ele>670.8</ele>
        <time>2015-09-22T11:51:43Z</time>
      </trkpt>
      <trkpt lat="42.32715" lon="0.13817">
        <ele>670.7</ele>
        <time>2015-09-22T11:51:44Z</time>
      </trkpt>
      <trkpt lat="42.32718" lon="0.13818">
        <ele>670.7</ele>
        <time>2015-09-22T11:51:45Z</time>
      </trkpt>
      <trkpt lat="42.32721" lon="0.13819">
        <ele>670.6</ele>
        <time>2015-09-22T11:51:46Z</time>
      </trkpt>
      <trkpt lat="42.32724" lon="0.1382">
        <ele>670.6</ele>
        <time>2015-09-22T11:51:47Z</time>
      </trkpt>
      <trkpt lat="42.32727" lon="0.13822">
        <ele>670.6</ele>
        <time>2015-09-22T11:51:48Z</time>
      </trkpt>
      <trkpt lat="42.3273" lon="0.13823">
        <ele>670.6</ele>
        <time>2015-09-22T11:51:49Z</time>
      </trkpt>
      <trkpt lat="42.32732" lon="0.13825">
        <ele>670.6</ele>
        <time>2015-09-22T11:51:50Z</time>
      </trkpt>
      <trkpt lat="42.32735" lon="0.13826">
        <ele>670.6</ele>
        <time>2015-09-22T11:51:51Z</time>
      </trkpt>
      <trkpt lat="42.32738" lon="0.13828">
        <ele>670.6</ele>
        <time>2015-09-22T11:51:52Z</time>
      </trkpt>
      <trkpt lat="42.32741" lon="0.13829">
        <ele>670.7</ele>
        <time>2015-09-22T11:51:53Z</time>
      </trkpt>
      <trkpt lat="42.32744" lon="0.1383">
        <ele>670.8</ele>
        <time>2015-09-22T11:51:54Z</time>
      </trkpt>
      <trkpt lat="42.32747" lon="0.13831">
        <ele>670.9</ele>
        <time>2015-09-22T11:51:55Z</time>
      </trkpt>
      <trkpt lat="42.3275" lon="0.13832">
        <ele>671</ele>
        <time>2015-09-22T11:51:56Z</time>
      </trkpt>
      <trkpt lat="42.32752" lon="0.13834">
        <ele>671.1</ele>
        <time>2015-09-22T11:51:57Z</time>
      </trkpt>
      <trkpt lat="42.32755" lon="0.13835">
        <ele>671.2</ele>
        <time>2015-09-22T11:51:58Z</time>
      </trkpt>
      <trkpt lat="42.32757" lon="0.13837">
        <ele>671.4</ele>
        <time>2015-09-22T11:51:59Z</time>
      </trkpt>
      <trkpt lat="42.32761" lon="0.13841">
        <ele>671.7</ele>
        <time>2015-09-22T11:52:01Z</time>
      </trkpt>
      <trkpt lat="42.32764" lon="0.13843">
        <ele>672</ele>
        <time>2015-09-22T11:52:03Z</time>
      </trkpt>
      <trkpt lat="42.32768" lon="0.13844">
        <ele>672.2</ele>
        <time>2015-09-22T11:52:05Z</time>
      </trkpt>
      <trkpt lat="42.32771" lon="0.13846">
        <ele>672.5</ele>
        <time>2015-09-22T11:52:07Z</time>
      </trkpt>
      <trkpt lat="42.32775" lon="0.13847">
        <ele>672.8</ele>
        <time>2015-09-22T11:52:09Z</time>
      </trkpt>
      <trkpt lat="42.3278" lon="0.13849">
        <ele>673.2</ele>
        <time>2015-09-22T11:52:11Z</time>
      </trkpt>
      <trkpt lat="42.32785" lon="0.13852">
        <ele>673.8</ele>
        <time>2015-09-22T11:52:13Z</time>
      </trkpt>
      <trkpt lat="42.3279" lon="0.13854">
        <ele>674.4</ele>
        <time>2015-09-22T11:52:15Z</time>
      </trkpt>
      <trkpt lat="42.32795" lon="0.13856">
        <ele>674.9</ele>
        <time>2015-09-22T11:52:17Z</time>
      </trkpt>
      <trkpt lat="42.32799" lon="0.13858">
        <ele>675.6</ele>
        <time>2015-09-22T11:52:19Z</time>
      </trkpt>
      <trkpt lat="42.32804" lon="0.1386">
        <ele>676.4</ele>
        <time>2015-09-22T11:52:21Z</time>
      </trkpt>
      <trkpt lat="42.32809" lon="0.13863">
        <ele>677.3</ele>
        <time>2015-09-22T11:52:23Z</time>
      </trkpt>
      <trkpt lat="42.32814" lon="0.13866">
        <ele>678.2</ele>
        <time>2015-09-22T11:52:25Z</time>
      </trkpt>
      <trkpt lat="42.32817" lon="0.13869">
        <ele>679.1</ele>
        <time>2015-09-22T11:52:27Z</time>
      </trkpt>
      <trkpt lat="42.32818" lon="0.13874">
        <ele>680</ele>
        <time>2015-09-22T11:52:29Z</time>
      </trkpt>
      <trkpt lat="42.32819" lon="0.13879">
        <ele>680.2</ele>
        <time>2015-09-22T11:52:31Z</time>
      </trkpt>
      <trkpt lat="42.3282" lon="0.13883">
        <ele>680.3</ele>
        <time>2015-09-22T11:52:34Z</time>
      </trkpt>
      <trkpt lat="42.3282" lon="0.13887">
        <ele>680.2</ele>
        <time>2015-09-22T11:52:44Z</time>
      </trkpt>
      <trkpt lat="42.32822" lon="0.1389">
        <ele>680.5</ele>
        <time>2015-09-22T11:52:53Z</time>
      </trkpt>
      <trkpt lat="42.32824" lon="0.13893">
        <ele>680.7</ele>
        <time>2015-09-22T11:52:57Z</time>
      </trkpt>
      <trkpt lat="42.32827" lon="0.13894">
        <ele>681</ele>
        <time>2015-09-22T11:53:01Z</time>
      </trkpt>
      <trkpt lat="42.32829" lon="0.13897">
        <ele>681.3</ele>
        <time>2015-09-22T11:53:05Z</time>
      </trkpt>
      <trkpt lat="42.32831" lon="0.139">
        <ele>681.5</ele>
        <time>2015-09-22T11:53:10Z</time>
      </trkpt>
      <trkpt lat="42.32833" lon="0.13902">
        <ele>681.8</ele>
        <time>2015-09-22T11:53:14Z</time>
      </trkpt>
      <trkpt lat="42.32836" lon="0.13904">
        <ele>682.2</ele>
        <time>2015-09-22T11:53:18Z</time>
      </trkpt>
      <trkpt lat="42.32839" lon="0.13904">
        <ele>682.6</ele>
        <time>2015-09-22T11:53:22Z</time>
      </trkpt>
      <trkpt lat="42.32843" lon="0.13906">
        <ele>683.1</ele>
        <time>2015-09-22T11:53:30Z</time>
      </trkpt>
      <trkpt lat="42.32848" lon="0.13906">
        <ele>683.7</ele>
        <time>2015-09-22T11:53:32Z</time>
      </trkpt>
      <trkpt lat="42.32853" lon="0.13907">
        <ele>684.4</ele>
        <time>2015-09-22T11:53:34Z</time>
      </trkpt>
      <trkpt lat="42.32858" lon="0.13909">
        <ele>685.1</ele>
        <time>2015-09-22T11:53:36Z</time>
      </trkpt>
      <trkpt lat="42.3286" lon="0.13909">
        <ele>685.4</ele>
        <time>2015-09-22T11:53:37Z</time>
      </trkpt>
      <trkpt lat="42.32866" lon="0.1391">
        <ele>686.2</ele>
        <time>2015-09-22T11:53:39Z</time>
      </trkpt>
      <trkpt lat="42.32869" lon="0.1391">
        <ele>686.6</ele>
        <time>2015-09-22T11:53:40Z</time>
      </trkpt>
      <trkpt lat="42.32872" lon="0.1391">
        <ele>687</ele>
        <time>2015-09-22T11:53:41Z</time>
      </trkpt>
      <trkpt lat="42.32877" lon="0.1391">
        <ele>687.4</ele>
        <time>2015-09-22T11:53:43Z</time>
      </trkpt>
      <trkpt lat="42.32882" lon="0.13911">
        <ele>687.5</ele>
        <time>2015-09-22T11:53:45Z</time>
      </trkpt>
      <trkpt lat="42.32887" lon="0.13913">
        <ele>687.6</ele>
        <time>2015-09-22T11:53:47Z</time>
      </trkpt>
      <trkpt lat="42.32892" lon="0.13915">
        <ele>687.8</ele>
        <time>2015-09-22T11:53:49Z</time>
      </trkpt>
      <trkpt lat="42.32897" lon="0.13918">
        <ele>687.9</ele>
        <time>2015-09-22T11:53:51Z</time>
      </trkpt>
      <trkpt lat="42.32902" lon="0.1392">
        <ele>688.1</ele>
        <time>2015-09-22T11:53:53Z</time>
      </trkpt>
      <trkpt lat="42.32907" lon="0.13921">
        <ele>688.3</ele>
        <time>2015-09-22T11:53:55Z</time>
      </trkpt>
      <trkpt lat="42.32911" lon="0.13924">
        <ele>688.5</ele>
        <time>2015-09-22T11:53:57Z</time>
      </trkpt>
      <trkpt lat="42.32914" lon="0.13927">
        <ele>688.8</ele>
        <time>2015-09-22T11:53:59Z</time>
      </trkpt>
      <trkpt lat="42.32917" lon="0.1393">
        <ele>689</ele>
        <time>2015-09-22T11:54:01Z</time>
      </trkpt>
      <trkpt lat="42.32921" lon="0.13933">
        <ele>689.3</ele>
        <time>2015-09-22T11:54:03Z</time>
      </trkpt>
      <trkpt lat="42.32923" lon="0.13936">
        <ele>689.5</ele>
        <time>2015-09-22T11:54:04Z</time>
      </trkpt>
      <trkpt lat="42.32925" lon="0.13939">
        <ele>689.8</ele>
        <time>2015-09-22T11:54:05Z</time>
      </trkpt>
      <trkpt lat="42.32928" lon="0.13941">
        <ele>690</ele>
        <time>2015-09-22T11:54:06Z</time>
      </trkpt>
      <trkpt lat="42.3293" lon="0.13943">
        <ele>690.3</ele>
        <time>2015-09-22T11:54:07Z</time>
      </trkpt>
      <trkpt lat="42.32933" lon="0.13945">
        <ele>690.5</ele>
        <time>2015-09-22T11:54:08Z</time>
      </trkpt>
      <trkpt lat="42.32935" lon="0.13946">
        <ele>690.7</ele>
        <time>2015-09-22T11:54:09Z</time>
      </trkpt>
      <trkpt lat="42.32938" lon="0.13948">
        <ele>691</ele>
        <time>2015-09-22T11:54:10Z</time>
      </trkpt>
      <trkpt lat="42.32941" lon="0.1395">
        <ele>691.3</ele>
        <time>2015-09-22T11:54:11Z</time>
      </trkpt>
      <trkpt lat="42.32943" lon="0.13951">
        <ele>691.5</ele>
        <time>2015-09-22T11:54:12Z</time>
      </trkpt>
      <trkpt lat="42.32946" lon="0.13953">
        <ele>691.8</ele>
        <time>2015-09-22T11:54:13Z</time>
      </trkpt>
      <trkpt lat="42.32948" lon="0.13955">
        <ele>692.1</ele>
        <time>2015-09-22T11:54:14Z</time>
      </trkpt>
      <trkpt lat="42.32951" lon="0.13957">
        <ele>692.4</ele>
        <time>2015-09-22T11:54:15Z</time>
      </trkpt>
      <trkpt lat="42.32953" lon="0.13959">
        <ele>692.6</ele>
        <time>2015-09-22T11:54:16Z</time>
      </trkpt>
      <trkpt lat="42.32956" lon="0.13961">
        <ele>692.7</ele>
        <time>2015-09-22T11:54:17Z</time>
      </trkpt>
      <trkpt lat="42.32958" lon="0.13963">
        <ele>692.7</ele>
        <time>2015-09-22T11:54:18Z</time>
      </trkpt>
      <trkpt lat="42.32961" lon="0.13964">
        <ele>692.7</ele>
        <time>2015-09-22T11:54:19Z</time>
      </trkpt>
      <trkpt lat="42.32964" lon="0.13964">
        <ele>692.6</ele>
        <time>2015-09-22T11:54:20Z</time>
      </trkpt>
      <trkpt lat="42.32967" lon="0.13964">
        <ele>692.6</ele>
        <time>2015-09-22T11:54:21Z</time>
      </trkpt>
      <trkpt lat="42.32971" lon="0.13965">
        <ele>692.5</ele>
        <time>2015-09-22T11:54:22Z</time>
      </trkpt>
      <trkpt lat="42.32975" lon="0.13966">
        <ele>692.5</ele>
        <time>2015-09-22T11:54:23Z</time>
      </trkpt>
      <trkpt lat="42.32978" lon="0.13967">
        <ele>692.4</ele>
        <time>2015-09-22T11:54:24Z</time>
      </trkpt>
      <trkpt lat="42.32982" lon="0.13968">
        <ele>692.4</ele>
        <time>2015-09-22T11:54:25Z</time>
      </trkpt>
      <trkpt lat="42.32985" lon="0.13969">
        <ele>692.3</ele>
        <time>2015-09-22T11:54:26Z</time>
      </trkpt>
      <trkpt lat="42.32989" lon="0.1397">
        <ele>692.3</ele>
        <time>2015-09-22T11:54:27Z</time>
      </trkpt>
      <trkpt lat="42.32992" lon="0.13971">
        <ele>692.3</ele>
        <time>2015-09-22T11:54:28Z</time>
      </trkpt>
      <trkpt lat="42.32996" lon="0.13971">
        <ele>692.3</ele>
        <time>2015-09-22T11:54:29Z</time>
      </trkpt>
      <trkpt lat="42.32999" lon="0.13972">
        <ele>692.3</ele>
        <time>2015-09-22T11:54:30Z</time>
      </trkpt>
      <trkpt lat="42.33002" lon="0.13973">
        <ele>692.2</ele>
        <time>2015-09-22T11:54:31Z</time>
      </trkpt>
      <trkpt lat="42.33004" lon="0.13974">
        <ele>692.2</ele>
        <time>2015-09-22T11:54:32Z</time>
      </trkpt>
      <trkpt lat="42.33007" lon="0.13975">
        <ele>692.2</ele>
        <time>2015-09-22T11:54:33Z</time>
      </trkpt>
      <trkpt lat="42.33012" lon="0.13977">
        <ele>692.2</ele>
        <time>2015-09-22T11:54:35Z</time>
      </trkpt>
      <trkpt lat="42.33015" lon="0.1398">
        <ele>692.3</ele>
        <time>2015-09-22T11:54:37Z</time>
      </trkpt>
      <trkpt lat="42.33019" lon="0.13983">
        <ele>692.3</ele>
        <time>2015-09-22T11:54:39Z</time>
      </trkpt>
      <trkpt lat="42.33022" lon="0.13984">
        <ele>692.3</ele>
        <time>2015-09-22T11:54:40Z</time>
      </trkpt>
      <trkpt lat="42.33025" lon="0.13985">
        <ele>692.4</ele>
        <time>2015-09-22T11:54:41Z</time>
      </trkpt>
      <trkpt lat="42.33028" lon="0.13987">
        <ele>692.4</ele>
        <time>2015-09-22T11:54:42Z</time>
      </trkpt>
      <trkpt lat="42.3303" lon="0.13989">
        <ele>692.5</ele>
        <time>2015-09-22T11:54:43Z</time>
      </trkpt>
      <trkpt lat="42.33033" lon="0.13991">
        <ele>692.6</ele>
        <time>2015-09-22T11:54:44Z</time>
      </trkpt>
      <trkpt lat="42.33035" lon="0.13993">
        <ele>692.7</ele>
        <time>2015-09-22T11:54:45Z</time>
      </trkpt>
      <trkpt lat="42.33039" lon="0.13997">
        <ele>692.9</ele>
        <time>2015-09-22T11:54:47Z</time>
      </trkpt>
      <trkpt lat="42.33041" lon="0.13999">
        <ele>693</ele>
        <time>2015-09-22T11:54:48Z</time>
      </trkpt>
      <trkpt lat="42.33043" lon="0.14002">
        <ele>692.8</ele>
        <time>2015-09-22T11:54:49Z</time>
      </trkpt>
      <trkpt lat="42.33045" lon="0.14005">
        <ele>692.7</ele>
        <time>2015-09-22T11:54:50Z</time>
      </trkpt>
      <trkpt lat="42.33047" lon="0.14008">
        <ele>692.6</ele>
        <time>2015-09-22T11:54:51Z</time>
      </trkpt>
      <trkpt lat="42.33049" lon="0.14011">
        <ele>692.5</ele>
        <time>2015-09-22T11:54:52Z</time>
      </trkpt>
      <trkpt lat="42.33051" lon="0.14014">
        <ele>692.4</ele>
        <time>2015-09-22T11:54:53Z</time>
      </trkpt>
      <trkpt lat="42.33053" lon="0.14017">
        <ele>692.3</ele>
        <time>2015-09-22T11:54:54Z</time>
      </trkpt>
      <trkpt lat="42.33054" lon="0.14021">
        <ele>692.3</ele>
        <time>2015-09-22T11:54:55Z</time>
      </trkpt>
      <trkpt lat="42.33056" lon="0.14024">
        <ele>692.4</ele>
        <time>2015-09-22T11:54:56Z</time>
      </trkpt>
      <trkpt lat="42.33057" lon="0.14027">
        <ele>692.5</ele>
        <time>2015-09-22T11:54:57Z</time>
      </trkpt>
      <trkpt lat="42.33059" lon="0.14034">
        <ele>692.7</ele>
        <time>2015-09-22T11:54:59Z</time>
      </trkpt>
      <trkpt lat="42.3306" lon="0.14037">
        <ele>692.8</ele>
        <time>2015-09-22T11:55:00Z</time>
      </trkpt>
      <trkpt lat="42.33062" lon="0.14041">
        <ele>693</ele>
        <time>2015-09-22T11:55:01Z</time>
      </trkpt>
      <trkpt lat="42.33063" lon="0.14045">
        <ele>693</ele>
        <time>2015-09-22T11:55:02Z</time>
      </trkpt>
      <trkpt lat="42.33064" lon="0.14049">
        <ele>693</ele>
        <time>2015-09-22T11:55:03Z</time>
      </trkpt>
      <trkpt lat="42.33066" lon="0.14052">
        <ele>692.9</ele>
        <time>2015-09-22T11:55:04Z</time>
      </trkpt>
      <trkpt lat="42.33068" lon="0.14055">
        <ele>692.9</ele>
        <time>2015-09-22T11:55:05Z</time>
      </trkpt>
      <trkpt lat="42.33069" lon="0.14058">
        <ele>692.9</ele>
        <time>2015-09-22T11:55:06Z</time>
      </trkpt>
      <trkpt lat="42.33071" lon="0.14061">
        <ele>693</ele>
        <time>2015-09-22T11:55:07Z</time>
      </trkpt>
      <trkpt lat="42.33073" lon="0.14067">
        <ele>693.1</ele>
        <time>2015-09-22T11:55:09Z</time>
      </trkpt>
      <trkpt lat="42.33076" lon="0.14071">
        <ele>693.2</ele>
        <time>2015-09-22T11:55:11Z</time>
      </trkpt>
      <trkpt lat="42.33078" lon="0.14077">
        <ele>693.4</ele>
        <time>2015-09-22T11:55:13Z</time>
      </trkpt>
      <trkpt lat="42.33081" lon="0.14083">
        <ele>693.7</ele>
        <time>2015-09-22T11:55:15Z</time>
      </trkpt>
      <trkpt lat="42.33084" lon="0.14089">
        <ele>694</ele>
        <time>2015-09-22T11:55:17Z</time>
      </trkpt>
      <trkpt lat="42.33085" lon="0.14092">
        <ele>694.2</ele>
        <time>2015-09-22T11:55:18Z</time>
      </trkpt>
      <trkpt lat="42.33086" lon="0.14096">
        <ele>694.4</ele>
        <time>2015-09-22T11:55:19Z</time>
      </trkpt>
      <trkpt lat="42.33087" lon="0.141">
        <ele>694.7</ele>
        <time>2015-09-22T11:55:20Z</time>
      </trkpt>
      <trkpt lat="42.33088" lon="0.14103">
        <ele>694.9</ele>
        <time>2015-09-22T11:55:21Z</time>
      </trkpt>
      <trkpt lat="42.33091" lon="0.14109">
        <ele>695.5</ele>
        <time>2015-09-22T11:55:23Z</time>
      </trkpt>
      <trkpt lat="42.33095" lon="0.14114">
        <ele>696</ele>
        <time>2015-09-22T11:55:25Z</time>
      </trkpt>
      <trkpt lat="42.33098" lon="0.14119">
        <ele>696.7</ele>
        <time>2015-09-22T11:55:27Z</time>
      </trkpt>
      <trkpt lat="42.33102" lon="0.14123">
        <ele>697.4</ele>
        <time>2015-09-22T11:55:29Z</time>
      </trkpt>
      <trkpt lat="42.33106" lon="0.14128">
        <ele>697.8</ele>
        <time>2015-09-22T11:55:31Z</time>
      </trkpt>
      <trkpt lat="42.3311" lon="0.14131">
        <ele>698.2</ele>
        <time>2015-09-22T11:55:33Z</time>
      </trkpt>
      <trkpt lat="42.33114" lon="0.14134">
        <ele>698.5</ele>
        <time>2015-09-22T11:55:34Z</time>
      </trkpt>
      <trkpt lat="42.33117" lon="0.14138">
        <ele>698.8</ele>
        <time>2015-09-22T11:55:35Z</time>
      </trkpt>
      <trkpt lat="42.3312" lon="0.14142">
        <ele>699.1</ele>
        <time>2015-09-22T11:55:36Z</time>
      </trkpt>
      <trkpt lat="42.33123" lon="0.14146">
        <ele>699.3</ele>
        <time>2015-09-22T11:55:37Z</time>
      </trkpt>
      <trkpt lat="42.33127" lon="0.14154">
        <ele>699.3</ele>
        <time>2015-09-22T11:55:38Z</time>
      </trkpt>
      <trkpt lat="42.33129" lon="0.1416">
        <ele>699.1</ele>
        <time>2015-09-22T11:55:39Z</time>
      </trkpt>
      <trkpt lat="42.33131" lon="0.14165">
        <ele>699</ele>
        <time>2015-09-22T11:55:40Z</time>
      </trkpt>
      <trkpt lat="42.33132" lon="0.1417">
        <ele>698.9</ele>
        <time>2015-09-22T11:55:41Z</time>
      </trkpt>
      <trkpt lat="42.33133" lon="0.14175">
        <ele>698.8</ele>
        <time>2015-09-22T11:55:42Z</time>
      </trkpt>
      <trkpt lat="42.33134" lon="0.14179">
        <ele>698.8</ele>
        <time>2015-09-22T11:55:43Z</time>
      </trkpt>
      <trkpt lat="42.33136" lon="0.14186">
        <ele>698.8</ele>
        <time>2015-09-22T11:55:45Z</time>
      </trkpt>
      <trkpt lat="42.33137" lon="0.1419">
        <ele>698.8</ele>
        <time>2015-09-22T11:55:46Z</time>
      </trkpt>
      <trkpt lat="42.33138" lon="0.14194">
        <ele>698.8</ele>
        <time>2015-09-22T11:55:47Z</time>
      </trkpt>
      <trkpt lat="42.33139" lon="0.14199">
        <ele>698.8</ele>
        <time>2015-09-22T11:55:48Z</time>
      </trkpt>
      <trkpt lat="42.3314" lon="0.14203">
        <ele>698.9</ele>
        <time>2015-09-22T11:55:49Z</time>
      </trkpt>
      <trkpt lat="42.33141" lon="0.14207">
        <ele>699</ele>
        <time>2015-09-22T11:55:50Z</time>
      </trkpt>
      <trkpt lat="42.33143" lon="0.14211">
        <ele>699.1</ele>
        <time>2015-09-22T11:55:51Z</time>
      </trkpt>
      <trkpt lat="42.33144" lon="0.14215">
        <ele>699.1</ele>
        <time>2015-09-22T11:55:52Z</time>
      </trkpt>
      <trkpt lat="42.33145" lon="0.14219">
        <ele>699.2</ele>
        <time>2015-09-22T11:55:53Z</time>
      </trkpt>
      <trkpt lat="42.33147" lon="0.14222">
        <ele>699.3</ele>
        <time>2015-09-22T11:55:54Z</time>
      </trkpt>
      <trkpt lat="42.33149" lon="0.14227">
        <ele>699.5</ele>
        <time>2015-09-22T11:55:56Z</time>
      </trkpt>
      <trkpt lat="42.33149" lon="0.14232">
        <ele>699.5</ele>
        <time>2015-09-22T11:55:58Z</time>
      </trkpt>
      <trkpt lat="42.33149" lon="0.14237">
        <ele>699.5</ele>
        <time>2015-09-22T11:56:00Z</time>
      </trkpt>
      <trkpt lat="42.33149" lon="0.14243">
        <ele>699.6</ele>
        <time>2015-09-22T11:56:02Z</time>
      </trkpt>
      <trkpt lat="42.33152" lon="0.14241">
        <ele>699.7</ele>
        <time>2015-09-22T11:56:14Z</time>
      </trkpt>
      <trkpt lat="42.33152" lon="0.14245">
        <ele>699.7</ele>
        <time>2015-09-22T11:56:24Z</time>
      </trkpt>
      <trkpt lat="42.33153" lon="0.14249">
        <ele>699.8</ele>
        <time>2015-09-22T11:57:39Z</time>
      </trkpt>
      <trkpt lat="42.33154" lon="0.14253">
        <ele>699.9</ele>
        <time>2015-09-22T11:57:44Z</time>
      </trkpt>
      <trkpt lat="42.33152" lon="0.14257">
        <ele>699.8</ele>
        <time>2015-09-22T11:57:48Z</time>
      </trkpt>
      <trkpt lat="42.33149" lon="0.14259">
        <ele>699.6</ele>
        <time>2015-09-22T11:57:52Z</time>
      </trkpt>
      <trkpt lat="42.3315" lon="0.14263">
        <ele>699.7</ele>
        <time>2015-09-22T11:59:20Z</time>
      </trkpt>
      <trkpt lat="42.33151" lon="0.14267">
        <ele>699.8</ele>
        <time>2015-09-22T11:59:23Z</time>
      </trkpt>
      <trkpt lat="42.33152" lon="0.14272">
        <ele>699.9</ele>
        <time>2015-09-22T11:59:26Z</time>
      </trkpt>
      <trkpt lat="42.33154" lon="0.14275">
        <ele>700</ele>
        <time>2015-09-22T11:59:28Z</time>
      </trkpt>
      <trkpt lat="42.33156" lon="0.14278">
        <ele>700.1</ele>
        <time>2015-09-22T11:59:30Z</time>
      </trkpt>
      <trkpt lat="42.33157" lon="0.14282">
        <ele>700.3</ele>
        <time>2015-09-22T11:59:32Z</time>
      </trkpt>
      <trkpt lat="42.33159" lon="0.14286">
        <ele>700.4</ele>
        <time>2015-09-22T11:59:34Z</time>
      </trkpt>
      <trkpt lat="42.3316" lon="0.14291">
        <ele>700.5</ele>
        <time>2015-09-22T11:59:36Z</time>
      </trkpt>
      <trkpt lat="42.3316" lon="0.14298">
        <ele>701.1</ele>
        <time>2015-09-22T11:59:38Z</time>
      </trkpt>
      <trkpt lat="42.33159" lon="0.14303">
        <ele>701.5</ele>
        <time>2015-09-22T11:59:39Z</time>
      </trkpt>
      <trkpt lat="42.3316" lon="0.14307">
        <ele>702</ele>
        <time>2015-09-22T11:59:40Z</time>
      </trkpt>
      <trkpt lat="42.3316" lon="0.14312">
        <ele>702.4</ele>
        <time>2015-09-22T11:59:41Z</time>
      </trkpt>
      <trkpt lat="42.3316" lon="0.14316">
        <ele>702.8</ele>
        <time>2015-09-22T11:59:42Z</time>
      </trkpt>
      <trkpt lat="42.33161" lon="0.1432">
        <ele>703.3</ele>
        <time>2015-09-22T11:59:43Z</time>
      </trkpt>
      <trkpt lat="42.33162" lon="0.14325">
        <ele>703.8</ele>
        <time>2015-09-22T11:59:44Z</time>
      </trkpt>
      <trkpt lat="42.33162" lon="0.14329">
        <ele>704.2</ele>
        <time>2015-09-22T11:59:45Z</time>
      </trkpt>
      <trkpt lat="42.33163" lon="0.14333">
        <ele>704.7</ele>
        <time>2015-09-22T11:59:46Z</time>
      </trkpt>
      <trkpt lat="42.33163" lon="0.14337">
        <ele>705.1</ele>
        <time>2015-09-22T11:59:47Z</time>
      </trkpt>
      <trkpt lat="42.33164" lon="0.14341">
        <ele>705.6</ele>
        <time>2015-09-22T11:59:48Z</time>
      </trkpt>
      <trkpt lat="42.33164" lon="0.14346">
        <ele>706</ele>
        <time>2015-09-22T11:59:49Z</time>
      </trkpt>
      <trkpt lat="42.33164" lon="0.14349">
        <ele>706.4</ele>
        <time>2015-09-22T11:59:50Z</time>
      </trkpt>
      <trkpt lat="42.33164" lon="0.14353">
        <ele>706.7</ele>
        <time>2015-09-22T11:59:51Z</time>
      </trkpt>
      <trkpt lat="42.33164" lon="0.14359">
        <ele>707.3</ele>
        <time>2015-09-22T11:59:53Z</time>
      </trkpt>
      <trkpt lat="42.33165" lon="0.14366">
        <ele>708</ele>
        <time>2015-09-22T11:59:55Z</time>
      </trkpt>
      <trkpt lat="42.33164" lon="0.1437">
        <ele>708.3</ele>
        <time>2015-09-22T11:59:56Z</time>
      </trkpt>
      <trkpt lat="42.33164" lon="0.14374">
        <ele>708.7</ele>
        <time>2015-09-22T11:59:57Z</time>
      </trkpt>
      <trkpt lat="42.33165" lon="0.1438">
        <ele>709</ele>
        <time>2015-09-22T11:59:59Z</time>
      </trkpt>
      <trkpt lat="42.33165" lon="0.14387">
        <ele>709.2</ele>
        <time>2015-09-22T12:00:01Z</time>
      </trkpt>
      <trkpt lat="42.33165" lon="0.14391">
        <ele>709.3</ele>
        <time>2015-09-22T12:00:02Z</time>
      </trkpt>
      <trkpt lat="42.33165" lon="0.14397">
        <ele>709.4</ele>
        <time>2015-09-22T12:00:03Z</time>
      </trkpt>
      <trkpt lat="42.33166" lon="0.14402">
        <ele>709.6</ele>
        <time>2015-09-22T12:00:04Z</time>
      </trkpt>
      <trkpt lat="42.33166" lon="0.14407">
        <ele>709.7</ele>
        <time>2015-09-22T12:00:05Z</time>
      </trkpt>
      <trkpt lat="42.33167" lon="0.14411">
        <ele>709.9</ele>
        <time>2015-09-22T12:00:06Z</time>
      </trkpt>
      <trkpt lat="42.33167" lon="0.14416">
        <ele>710</ele>
        <time>2015-09-22T12:00:07Z</time>
      </trkpt>
      <trkpt lat="42.33168" lon="0.1442">
        <ele>710.2</ele>
        <time>2015-09-22T12:00:08Z</time>
      </trkpt>
      <trkpt lat="42.33168" lon="0.14424">
        <ele>710.3</ele>
        <time>2015-09-22T12:00:09Z</time>
      </trkpt>
      <trkpt lat="42.33169" lon="0.14428">
        <ele>710.4</ele>
        <time>2015-09-22T12:00:10Z</time>
      </trkpt>
      <trkpt lat="42.3317" lon="0.14431">
        <ele>710.6</ele>
        <time>2015-09-22T12:00:11Z</time>
      </trkpt>
      <trkpt lat="42.3317" lon="0.14438">
        <ele>710.7</ele>
        <time>2015-09-22T12:00:13Z</time>
      </trkpt>
      <trkpt lat="42.33171" lon="0.14444">
        <ele>710.9</ele>
        <time>2015-09-22T12:00:15Z</time>
      </trkpt>
      <trkpt lat="42.33171" lon="0.1445">
        <ele>711.1</ele>
        <time>2015-09-22T12:00:17Z</time>
      </trkpt>
      <trkpt lat="42.33172" lon="0.14456">
        <ele>711.3</ele>
        <time>2015-09-22T12:00:19Z</time>
      </trkpt>
      <trkpt lat="42.33173" lon="0.14463">
        <ele>711.6</ele>
        <time>2015-09-22T12:00:21Z</time>
      </trkpt>
      <trkpt lat="42.33173" lon="0.14467">
        <ele>711.7</ele>
        <time>2015-09-22T12:00:22Z</time>
      </trkpt>
      <trkpt lat="42.33173" lon="0.1447">
        <ele>711.8</ele>
        <time>2015-09-22T12:00:23Z</time>
      </trkpt>
      <trkpt lat="42.33173" lon="0.14477">
        <ele>711.9</ele>
        <time>2015-09-22T12:00:25Z</time>
      </trkpt>
      <trkpt lat="42.33174" lon="0.14481">
        <ele>712.1</ele>
        <time>2015-09-22T12:00:27Z</time>
      </trkpt>
      <trkpt lat="42.33173" lon="0.14486">
        <ele>712.2</ele>
        <time>2015-09-22T12:00:29Z</time>
      </trkpt>
      <trkpt lat="42.33174" lon="0.1449">
        <ele>712.3</ele>
        <time>2015-09-22T12:00:31Z</time>
      </trkpt>
      <trkpt lat="42.33175" lon="0.14494">
        <ele>712.6</ele>
        <time>2015-09-22T12:00:33Z</time>
      </trkpt>
      <trkpt lat="42.33176" lon="0.14498">
        <ele>712.8</ele>
        <time>2015-09-22T12:00:35Z</time>
      </trkpt>
      <trkpt lat="42.33176" lon="0.14502">
        <ele>712.8</ele>
        <time>2015-09-22T12:00:37Z</time>
      </trkpt>
      <trkpt lat="42.33175" lon="0.14507">
        <ele>712.9</ele>
        <time>2015-09-22T12:00:40Z</time>
      </trkpt>
      <trkpt lat="42.33175" lon="0.14512">
        <ele>713</ele>
        <time>2015-09-22T12:00:42Z</time>
      </trkpt>
      <trkpt lat="42.33174" lon="0.14516">
        <ele>713</ele>
        <time>2015-09-22T12:00:44Z</time>
      </trkpt>
      <trkpt lat="42.33174" lon="0.1452">
        <ele>713.1</ele>
        <time>2015-09-22T12:00:46Z</time>
      </trkpt>
      <trkpt lat="42.33175" lon="0.14525">
        <ele>713.3</ele>
        <time>2015-09-22T12:00:48Z</time>
      </trkpt>
      <trkpt lat="42.33176" lon="0.1453">
        <ele>713.6</ele>
        <time>2015-09-22T12:00:50Z</time>
      </trkpt>
      <trkpt lat="42.33176" lon="0.14535">
        <ele>713.8</ele>
        <time>2015-09-22T12:00:52Z</time>
      </trkpt>
      <trkpt lat="42.33177" lon="0.14541">
        <ele>714.1</ele>
        <time>2015-09-22T12:00:54Z</time>
      </trkpt>
      <trkpt lat="42.33177" lon="0.14546">
        <ele>714.3</ele>
        <time>2015-09-22T12:00:56Z</time>
      </trkpt>
      <trkpt lat="42.33177" lon="0.1455">
        <ele>714.4</ele>
        <time>2015-09-22T12:00:58Z</time>
      </trkpt>
      <trkpt lat="42.33178" lon="0.14555">
        <ele>714.7</ele>
        <time>2015-09-22T12:01:00Z</time>
      </trkpt>
      <trkpt lat="42.33179" lon="0.14559">
        <ele>715</ele>
        <time>2015-09-22T12:01:02Z</time>
      </trkpt>
      <trkpt lat="42.3318" lon="0.14563">
        <ele>715.3</ele>
        <time>2015-09-22T12:01:04Z</time>
      </trkpt>
      <trkpt lat="42.33182" lon="0.14568">
        <ele>715.7</ele>
        <time>2015-09-22T12:01:06Z</time>
      </trkpt>
      <trkpt lat="42.33183" lon="0.14573">
        <ele>716</ele>
        <time>2015-09-22T12:01:08Z</time>
      </trkpt>
      <trkpt lat="42.33184" lon="0.14578">
        <ele>716.4</ele>
        <time>2015-09-22T12:01:10Z</time>
      </trkpt>
      <trkpt lat="42.33186" lon="0.14582">
        <ele>716.7</ele>
        <time>2015-09-22T12:01:12Z</time>
      </trkpt>
      <trkpt lat="42.33187" lon="0.14586">
        <ele>717</ele>
        <time>2015-09-22T12:01:14Z</time>
      </trkpt>
      <trkpt lat="42.33189" lon="0.1459">
        <ele>717.4</ele>
        <time>2015-09-22T12:01:16Z</time>
      </trkpt>
      <trkpt lat="42.3319" lon="0.14594">
        <ele>717.7</ele>
        <time>2015-09-22T12:01:18Z</time>
      </trkpt>
      <trkpt lat="42.33192" lon="0.14598">
        <ele>718</ele>
        <time>2015-09-22T12:01:20Z</time>
      </trkpt>
      <trkpt lat="42.33193" lon="0.14604">
        <ele>718.4</ele>
        <time>2015-09-22T12:01:22Z</time>
      </trkpt>
      <trkpt lat="42.33194" lon="0.14607">
        <ele>718.7</ele>
        <time>2015-09-22T12:01:23Z</time>
      </trkpt>
      <trkpt lat="42.33197" lon="0.14613">
        <ele>719.2</ele>
        <time>2015-09-22T12:01:25Z</time>
      </trkpt>
      <trkpt lat="42.332" lon="0.14618">
        <ele>719.6</ele>
        <time>2015-09-22T12:01:27Z</time>
      </trkpt>
      <trkpt lat="42.33201" lon="0.14623">
        <ele>720</ele>
        <time>2015-09-22T12:01:29Z</time>
      </trkpt>
      <trkpt lat="42.33201" lon="0.14628">
        <ele>720.1</ele>
        <time>2015-09-22T12:01:31Z</time>
      </trkpt>
      <trkpt lat="42.33202" lon="0.14634">
        <ele>720.4</ele>
        <time>2015-09-22T12:01:33Z</time>
      </trkpt>
      <trkpt lat="42.33205" lon="0.1464">
        <ele>720.9</ele>
        <time>2015-09-22T12:01:35Z</time>
      </trkpt>
      <trkpt lat="42.33208" lon="0.14644">
        <ele>721.4</ele>
        <time>2015-09-22T12:01:37Z</time>
      </trkpt>
      <trkpt lat="42.33211" lon="0.14648">
        <ele>721.8</ele>
        <time>2015-09-22T12:01:39Z</time>
      </trkpt>
      <trkpt lat="42.33213" lon="0.14652">
        <ele>722.1</ele>
        <time>2015-09-22T12:01:41Z</time>
      </trkpt>
      <trkpt lat="42.33215" lon="0.14656">
        <ele>722.4</ele>
        <time>2015-09-22T12:01:43Z</time>
      </trkpt>
      <trkpt lat="42.33216" lon="0.14659">
        <ele>722.6</ele>
        <time>2015-09-22T12:01:45Z</time>
      </trkpt>
      <trkpt lat="42.33216" lon="0.14664">
        <ele>722.7</ele>
        <time>2015-09-22T12:01:48Z</time>
      </trkpt>
      <trkpt lat="42.33218" lon="0.14668">
        <ele>723</ele>
        <time>2015-09-22T12:01:51Z</time>
      </trkpt>
      <trkpt lat="42.33218" lon="0.14673">
        <ele>723.2</ele>
        <time>2015-09-22T12:01:54Z</time>
      </trkpt>
      <trkpt lat="42.3322" lon="0.14678">
        <ele>723.5</ele>
        <time>2015-09-22T12:01:57Z</time>
      </trkpt>
      <trkpt lat="42.33221" lon="0.14683">
        <ele>723.8</ele>
        <time>2015-09-22T12:02:00Z</time>
      </trkpt>
      <trkpt lat="42.33222" lon="0.14687">
        <ele>724</ele>
        <time>2015-09-22T12:02:02Z</time>
      </trkpt>
      <trkpt lat="42.33224" lon="0.14691">
        <ele>724.2</ele>
        <time>2015-09-22T12:02:04Z</time>
      </trkpt>
      <trkpt lat="42.33227" lon="0.14695">
        <ele>724.6</ele>
        <time>2015-09-22T12:02:07Z</time>
      </trkpt>
      <trkpt lat="42.33228" lon="0.14699">
        <ele>724.8</ele>
        <time>2015-09-22T12:02:09Z</time>
      </trkpt>
      <trkpt lat="42.33229" lon="0.14703">
        <ele>725.1</ele>
        <time>2015-09-22T12:02:11Z</time>
      </trkpt>
      <trkpt lat="42.3323" lon="0.14707">
        <ele>725.3</ele>
        <time>2015-09-22T12:02:13Z</time>
      </trkpt>
      <trkpt lat="42.3323" lon="0.14711">
        <ele>725.7</ele>
        <time>2015-09-22T12:02:15Z</time>
      </trkpt>
      <trkpt lat="42.33231" lon="0.14716">
        <ele>726.2</ele>
        <time>2015-09-22T12:02:17Z</time>
      </trkpt>
      <trkpt lat="42.33233" lon="0.14721">
        <ele>726.9</ele>
        <time>2015-09-22T12:02:19Z</time>
      </trkpt>
      <trkpt lat="42.33235" lon="0.14726">
        <ele>727.5</ele>
        <time>2015-09-22T12:02:21Z</time>
      </trkpt>
      <trkpt lat="42.33237" lon="0.14729">
        <ele>728</ele>
        <time>2015-09-22T12:02:23Z</time>
      </trkpt>
      <trkpt lat="42.33236" lon="0.14734">
        <ele>728.3</ele>
        <time>2015-09-22T12:02:28Z</time>
      </trkpt>
      <trkpt lat="42.33235" lon="0.14738">
        <ele>728.6</ele>
        <time>2015-09-22T12:02:31Z</time>
      </trkpt>
      <trkpt lat="42.33235" lon="0.14743">
        <ele>729</ele>
        <time>2015-09-22T12:02:33Z</time>
      </trkpt>
      <trkpt lat="42.33234" lon="0.14747">
        <ele>729.4</ele>
        <time>2015-09-22T12:02:35Z</time>
      </trkpt>
      <trkpt lat="42.33234" lon="0.14752">
        <ele>729.9</ele>
        <time>2015-09-22T12:02:37Z</time>
      </trkpt>
      <trkpt lat="42.33234" lon="0.14757">
        <ele>730.3</ele>
        <time>2015-09-22T12:02:39Z</time>
      </trkpt>
      <trkpt lat="42.33234" lon="0.14761">
        <ele>730.7</ele>
        <time>2015-09-22T12:02:41Z</time>
      </trkpt>
      <trkpt lat="42.33233" lon="0.14766">
        <ele>731.1</ele>
        <time>2015-09-22T12:02:43Z</time>
      </trkpt>
      <trkpt lat="42.33232" lon="0.1477">
        <ele>731.4</ele>
        <time>2015-09-22T12:02:45Z</time>
      </trkpt>
      <trkpt lat="42.3323" lon="0.14775">
        <ele>731.7</ele>
        <time>2015-09-22T12:02:47Z</time>
      </trkpt>
      <trkpt lat="42.33229" lon="0.14779">
        <ele>732</ele>
        <time>2015-09-22T12:02:49Z</time>
      </trkpt>
      <trkpt lat="42.33228" lon="0.14783">
        <ele>732.3</ele>
        <time>2015-09-22T12:02:51Z</time>
      </trkpt>
      <trkpt lat="42.33227" lon="0.14787">
        <ele>732.6</ele>
        <time>2015-09-22T12:02:53Z</time>
      </trkpt>
      <trkpt lat="42.33228" lon="0.14791">
        <ele>733.1</ele>
        <time>2015-09-22T12:02:55Z</time>
      </trkpt>
      <trkpt lat="42.33229" lon="0.14795">
        <ele>733.5</ele>
        <time>2015-09-22T12:02:57Z</time>
      </trkpt>
      <trkpt lat="42.3323" lon="0.14799">
        <ele>733.9</ele>
        <time>2015-09-22T12:02:59Z</time>
      </trkpt>
      <trkpt lat="42.3323" lon="0.14803">
        <ele>734.3</ele>
        <time>2015-09-22T12:03:01Z</time>
      </trkpt>
      <trkpt lat="42.33229" lon="0.14808">
        <ele>734.6</ele>
        <time>2015-09-22T12:03:03Z</time>
      </trkpt>
      <trkpt lat="42.33229" lon="0.14812">
        <ele>734.9</ele>
        <time>2015-09-22T12:03:05Z</time>
      </trkpt>
      <trkpt lat="42.33229" lon="0.14817">
        <ele>735.3</ele>
        <time>2015-09-22T12:03:07Z</time>
      </trkpt>
      <trkpt lat="42.33229" lon="0.14822">
        <ele>735.7</ele>
        <time>2015-09-22T12:03:09Z</time>
      </trkpt>
      <trkpt lat="42.3323" lon="0.14827">
        <ele>736.1</ele>
        <time>2015-09-22T12:03:11Z</time>
      </trkpt>
      <trkpt lat="42.33231" lon="0.14832">
        <ele>736.6</ele>
        <time>2015-09-22T12:03:13Z</time>
      </trkpt>
      <trkpt lat="42.33231" lon="0.14837">
        <ele>737</ele>
        <time>2015-09-22T12:03:15Z</time>
      </trkpt>
      <trkpt lat="42.33231" lon="0.14843">
        <ele>737.5</ele>
        <time>2015-09-22T12:03:17Z</time>
      </trkpt>
      <trkpt lat="42.33233" lon="0.14849">
        <ele>738.1</ele>
        <time>2015-09-22T12:03:19Z</time>
      </trkpt>
      <trkpt lat="42.33233" lon="0.14856">
        <ele>738.7</ele>
        <time>2015-09-22T12:03:21Z</time>
      </trkpt>
      <trkpt lat="42.33233" lon="0.14862">
        <ele>739.2</ele>
        <time>2015-09-22T12:03:23Z</time>
      </trkpt>
      <trkpt lat="42.33233" lon="0.14868">
        <ele>739.7</ele>
        <time>2015-09-22T12:03:25Z</time>
      </trkpt>
      <trkpt lat="42.33233" lon="0.14874">
        <ele>740.1</ele>
        <time>2015-09-22T12:03:27Z</time>
      </trkpt>
      <trkpt lat="42.33233" lon="0.1488">
        <ele>740.3</ele>
        <time>2015-09-22T12:03:29Z</time>
      </trkpt>
      <trkpt lat="42.33234" lon="0.14886">
        <ele>740.5</ele>
        <time>2015-09-22T12:03:31Z</time>
      </trkpt>
      <trkpt lat="42.33235" lon="0.14891">
        <ele>740.7</ele>
        <time>2015-09-22T12:03:33Z</time>
      </trkpt>
      <trkpt lat="42.33236" lon="0.14897">
        <ele>740.9</ele>
        <time>2015-09-22T12:03:35Z</time>
      </trkpt>
      <trkpt lat="42.33237" lon="0.14905">
        <ele>741.1</ele>
        <time>2015-09-22T12:03:37Z</time>
      </trkpt>
      <trkpt lat="42.33238" lon="0.14909">
        <ele>741.2</ele>
        <time>2015-09-22T12:03:38Z</time>
      </trkpt>
      <trkpt lat="42.33238" lon="0.14914">
        <ele>741.3</ele>
        <time>2015-09-22T12:03:39Z</time>
      </trkpt>
      <trkpt lat="42.33239" lon="0.14918">
        <ele>741.3</ele>
        <time>2015-09-22T12:03:40Z</time>
      </trkpt>
      <trkpt lat="42.33239" lon="0.14923">
        <ele>741.4</ele>
        <time>2015-09-22T12:03:41Z</time>
      </trkpt>
      <trkpt lat="42.33239" lon="0.14927">
        <ele>741.5</ele>
        <time>2015-09-22T12:03:42Z</time>
      </trkpt>
      <trkpt lat="42.3324" lon="0.14931">
        <ele>741.6</ele>
        <time>2015-09-22T12:03:43Z</time>
      </trkpt>
      <trkpt lat="42.33241" lon="0.14935">
        <ele>741.6</ele>
        <time>2015-09-22T12:03:44Z</time>
      </trkpt>
      <trkpt lat="42.33242" lon="0.14939">
        <ele>741.7</ele>
        <time>2015-09-22T12:03:45Z</time>
      </trkpt>
      <trkpt lat="42.33243" lon="0.14944">
        <ele>741.7</ele>
        <time>2015-09-22T12:03:46Z</time>
      </trkpt>
      <trkpt lat="42.33245" lon="0.14949">
        <ele>741.7</ele>
        <time>2015-09-22T12:03:47Z</time>
      </trkpt>
      <trkpt lat="42.33246" lon="0.14955">
        <ele>741.7</ele>
        <time>2015-09-22T12:03:48Z</time>
      </trkpt>
      <trkpt lat="42.33248" lon="0.1496">
        <ele>741.6</ele>
        <time>2015-09-22T12:03:49Z</time>
      </trkpt>
      <trkpt lat="42.3325" lon="0.14966">
        <ele>741.4</ele>
        <time>2015-09-22T12:03:50Z</time>
      </trkpt>
      <trkpt lat="42.33251" lon="0.14973">
        <ele>741.1</ele>
        <time>2015-09-22T12:03:51Z</time>
      </trkpt>
      <trkpt lat="42.33253" lon="0.14978">
        <ele>740.9</ele>
        <time>2015-09-22T12:03:52Z</time>
      </trkpt>
      <trkpt lat="42.33254" lon="0.14983">
        <ele>740.7</ele>
        <time>2015-09-22T12:03:53Z</time>
      </trkpt>
      <trkpt lat="42.33255" lon="0.14988">
        <ele>740.4</ele>
        <time>2015-09-22T12:03:54Z</time>
      </trkpt>
      <trkpt lat="42.33257" lon="0.14991">
        <ele>740.1</ele>
        <time>2015-09-22T12:03:55Z</time>
      </trkpt>
      <trkpt lat="42.33259" lon="0.14994">
        <ele>739.8</ele>
        <time>2015-09-22T12:03:56Z</time>
      </trkpt>
      <trkpt lat="42.33261" lon="0.14998">
        <ele>739.5</ele>
        <time>2015-09-22T12:03:57Z</time>
      </trkpt>
      <trkpt lat="42.33263" lon="0.15001">
        <ele>739.1</ele>
        <time>2015-09-22T12:03:58Z</time>
      </trkpt>
      <trkpt lat="42.33265" lon="0.15005">
        <ele>738.7</ele>
        <time>2015-09-22T12:03:59Z</time>
      </trkpt>
      <trkpt lat="42.33267" lon="0.15009">
        <ele>738.3</ele>
        <time>2015-09-22T12:04:00Z</time>
      </trkpt>
      <trkpt lat="42.33268" lon="0.15012">
        <ele>737.9</ele>
        <time>2015-09-22T12:04:01Z</time>
      </trkpt>
      <trkpt lat="42.33272" lon="0.15014">
        <ele>737.3</ele>
        <time>2015-09-22T12:04:03Z</time>
      </trkpt>
      <trkpt lat="42.33276" lon="0.15014">
        <ele>736.7</ele>
        <time>2015-09-22T12:04:05Z</time>
      </trkpt>
      <trkpt lat="42.33281" lon="0.15012">
        <ele>736.1</ele>
        <time>2015-09-22T12:04:07Z</time>
      </trkpt>
      <trkpt lat="42.33284" lon="0.15011">
        <ele>735.7</ele>
        <time>2015-09-22T12:04:08Z</time>
      </trkpt>
      <trkpt lat="42.33287" lon="0.15009">
        <ele>735.4</ele>
        <time>2015-09-22T12:04:09Z</time>
      </trkpt>
      <trkpt lat="42.33291" lon="0.15007">
        <ele>734.9</ele>
        <time>2015-09-22T12:04:11Z</time>
      </trkpt>
      <trkpt lat="42.33295" lon="0.15008">
        <ele>734.5</ele>
        <time>2015-09-22T12:04:13Z</time>
      </trkpt>
      <trkpt lat="42.33298" lon="0.15009">
        <ele>734</ele>
        <time>2015-09-22T12:04:15Z</time>
      </trkpt>
      <trkpt lat="42.33302" lon="0.15011">
        <ele>733.3</ele>
        <time>2015-09-22T12:04:17Z</time>
      </trkpt>
      <trkpt lat="42.33307" lon="0.15015">
        <ele>732.4</ele>
        <time>2015-09-22T12:04:19Z</time>
      </trkpt>
      <trkpt lat="42.3331" lon="0.15017">
        <ele>732</ele>
        <time>2015-09-22T12:04:20Z</time>
      </trkpt>
      <trkpt lat="42.33312" lon="0.15018">
        <ele>731.5</ele>
        <time>2015-09-22T12:04:21Z</time>
      </trkpt>
      <trkpt lat="42.33316" lon="0.1502">
        <ele>730.9</ele>
        <time>2015-09-22T12:04:22Z</time>
      </trkpt>
      <trkpt lat="42.33319" lon="0.15022">
        <ele>730.3</ele>
        <time>2015-09-22T12:04:23Z</time>
      </trkpt>
      <trkpt lat="42.33322" lon="0.15024">
        <ele>729.8</ele>
        <time>2015-09-22T12:04:24Z</time>
      </trkpt>
      <trkpt lat="42.33326" lon="0.15027">
        <ele>729.2</ele>
        <time>2015-09-22T12:04:25Z</time>
      </trkpt>
      <trkpt lat="42.33329" lon="0.15029">
        <ele>728.5</ele>
        <time>2015-09-22T12:04:26Z</time>
      </trkpt>
      <trkpt lat="42.33334" lon="0.15031">
        <ele>727.8</ele>
        <time>2015-09-22T12:04:27Z</time>
      </trkpt>
      <trkpt lat="42.3334" lon="0.15032">
        <ele>727</ele>
        <time>2015-09-22T12:04:28Z</time>
      </trkpt>
      <trkpt lat="42.33345" lon="0.15033">
        <ele>726.3</ele>
        <time>2015-09-22T12:04:29Z</time>
      </trkpt>
      <trkpt lat="42.3335" lon="0.15035">
        <ele>725.5</ele>
        <time>2015-09-22T12:04:30Z</time>
      </trkpt>
      <trkpt lat="42.33356" lon="0.15038">
        <ele>724.6</ele>
        <time>2015-09-22T12:04:31Z</time>
      </trkpt>
      <trkpt lat="42.33362" lon="0.1504">
        <ele>723.7</ele>
        <time>2015-09-22T12:04:32Z</time>
      </trkpt>
      <trkpt lat="42.33367" lon="0.15044">
        <ele>723.1</ele>
        <time>2015-09-22T12:04:33Z</time>
      </trkpt>
      <trkpt lat="42.33372" lon="0.1505">
        <ele>722.7</ele>
        <time>2015-09-22T12:04:34Z</time>
      </trkpt>
      <trkpt lat="42.33375" lon="0.15057">
        <ele>722.5</ele>
        <time>2015-09-22T12:04:35Z</time>
      </trkpt>
      <trkpt lat="42.33378" lon="0.15063">
        <ele>722.6</ele>
        <time>2015-09-22T12:04:36Z</time>
      </trkpt>
      <trkpt lat="42.33381" lon="0.1507">
        <ele>722.6</ele>
        <time>2015-09-22T12:04:37Z</time>
      </trkpt>
      <trkpt lat="42.33384" lon="0.15076">
        <ele>722.6</ele>
        <time>2015-09-22T12:04:38Z</time>
      </trkpt>
      <trkpt lat="42.33388" lon="0.15082">
        <ele>722.6</ele>
        <time>2015-09-22T12:04:39Z</time>
      </trkpt>
      <trkpt lat="42.33391" lon="0.15088">
        <ele>722.6</ele>
        <time>2015-09-22T12:04:40Z</time>
      </trkpt>
      <trkpt lat="42.33394" lon="0.15095">
        <ele>722.6</ele>
        <time>2015-09-22T12:04:41Z</time>
      </trkpt>
      <trkpt lat="42.33396" lon="0.15101">
        <ele>722.6</ele>
        <time>2015-09-22T12:04:42Z</time>
      </trkpt>
      <trkpt lat="42.334" lon="0.15107">
        <ele>722.5</ele>
        <time>2015-09-22T12:04:43Z</time>
      </trkpt>
      <trkpt lat="42.33404" lon="0.15113">
        <ele>722.3</ele>
        <time>2015-09-22T12:04:44Z</time>
      </trkpt>
      <trkpt lat="42.33407" lon="0.15117">
        <ele>722.1</ele>
        <time>2015-09-22T12:04:45Z</time>
      </trkpt>
      <trkpt lat="42.33411" lon="0.15121">
        <ele>721.9</ele>
        <time>2015-09-22T12:04:46Z</time>
      </trkpt>
      <trkpt lat="42.33413" lon="0.15124">
        <ele>721.8</ele>
        <time>2015-09-22T12:04:47Z</time>
      </trkpt>
      <trkpt lat="42.33417" lon="0.15126">
        <ele>721.5</ele>
        <time>2015-09-22T12:04:48Z</time>
      </trkpt>
      <trkpt lat="42.3342" lon="0.15129">
        <ele>721.1</ele>
        <time>2015-09-22T12:04:49Z</time>
      </trkpt>
      <trkpt lat="42.33423" lon="0.15132">
        <ele>720.8</ele>
        <time>2015-09-22T12:04:50Z</time>
      </trkpt>
      <trkpt lat="42.33426" lon="0.15136">
        <ele>720.4</ele>
        <time>2015-09-22T12:04:51Z</time>
      </trkpt>
      <trkpt lat="42.3343" lon="0.15139">
        <ele>720</ele>
        <time>2015-09-22T12:04:52Z</time>
      </trkpt>
      <trkpt lat="42.33433" lon="0.15143">
        <ele>719.5</ele>
        <time>2015-09-22T12:04:53Z</time>
      </trkpt>
      <trkpt lat="42.33436" lon="0.15148">
        <ele>719</ele>
        <time>2015-09-22T12:04:54Z</time>
      </trkpt>
      <trkpt lat="42.33439" lon="0.15154">
        <ele>718.5</ele>
        <time>2015-09-22T12:04:55Z</time>
      </trkpt>
      <trkpt lat="42.33442" lon="0.15158">
        <ele>718.1</ele>
        <time>2015-09-22T12:04:56Z</time>
      </trkpt>
      <trkpt lat="42.33446" lon="0.15163">
        <ele>717.4</ele>
        <time>2015-09-22T12:04:57Z</time>
      </trkpt>
      <trkpt lat="42.3345" lon="0.15167">
        <ele>716.9</ele>
        <time>2015-09-22T12:04:58Z</time>
      </trkpt>
      <trkpt lat="42.33453" lon="0.15171">
        <ele>716.3</ele>
        <time>2015-09-22T12:04:59Z</time>
      </trkpt>
      <trkpt lat="42.33456" lon="0.15175">
        <ele>715.8</ele>
        <time>2015-09-22T12:05:00Z</time>
      </trkpt>
      <trkpt lat="42.33459" lon="0.15178">
        <ele>715.4</ele>
        <time>2015-09-22T12:05:01Z</time>
      </trkpt>
      <trkpt lat="42.3346" lon="0.15184">
        <ele>715</ele>
        <time>2015-09-22T12:05:03Z</time>
      </trkpt>
      <trkpt lat="42.33463" lon="0.15189">
        <ele>714.7</ele>
        <time>2015-09-22T12:05:05Z</time>
      </trkpt>
      <trkpt lat="42.33465" lon="0.1519">
        <ele>714.4</ele>
        <time>2015-09-22T12:05:06Z</time>
      </trkpt>
      <trkpt lat="42.33469" lon="0.15194">
        <ele>714</ele>
        <time>2015-09-22T12:05:08Z</time>
      </trkpt>
      <trkpt lat="42.33473" lon="0.15199">
        <ele>713.5</ele>
        <time>2015-09-22T12:05:10Z</time>
      </trkpt>
      <trkpt lat="42.33475" lon="0.15202">
        <ele>713.3</ele>
        <time>2015-09-22T12:05:11Z</time>
      </trkpt>
      <trkpt lat="42.33478" lon="0.15204">
        <ele>713</ele>
        <time>2015-09-22T12:05:12Z</time>
      </trkpt>
      <trkpt lat="42.33481" lon="0.15208">
        <ele>712.7</ele>
        <time>2015-09-22T12:05:13Z</time>
      </trkpt>
      <trkpt lat="42.33485" lon="0.1521">
        <ele>712.4</ele>
        <time>2015-09-22T12:05:14Z</time>
      </trkpt>
      <trkpt lat="42.33488" lon="0.15212">
        <ele>712.1</ele>
        <time>2015-09-22T12:05:15Z</time>
      </trkpt>
      <trkpt lat="42.33492" lon="0.15214">
        <ele>711.9</ele>
        <time>2015-09-22T12:05:16Z</time>
      </trkpt>
      <trkpt lat="42.33495" lon="0.15215">
        <ele>711.6</ele>
        <time>2015-09-22T12:05:17Z</time>
      </trkpt>
      <trkpt lat="42.33499" lon="0.15217">
        <ele>711.4</ele>
        <time>2015-09-22T12:05:18Z</time>
      </trkpt>
      <trkpt lat="42.33503" lon="0.15217">
        <ele>711.1</ele>
        <time>2015-09-22T12:05:19Z</time>
      </trkpt>
      <trkpt lat="42.33506" lon="0.15217">
        <ele>710.9</ele>
        <time>2015-09-22T12:05:20Z</time>
      </trkpt>
      <trkpt lat="42.33509" lon="0.15218">
        <ele>710.7</ele>
        <time>2015-09-22T12:05:21Z</time>
      </trkpt>
      <trkpt lat="42.33512" lon="0.15222">
        <ele>710.4</ele>
        <time>2015-09-22T12:05:23Z</time>
      </trkpt>
      <trkpt lat="42.33513" lon="0.15225">
        <ele>710.2</ele>
        <time>2015-09-22T12:05:24Z</time>
      </trkpt>
      <trkpt lat="42.33515" lon="0.15231">
        <ele>710</ele>
        <time>2015-09-22T12:05:26Z</time>
      </trkpt>
      <trkpt lat="42.33516" lon="0.15238">
        <ele>709.7</ele>
        <time>2015-09-22T12:05:28Z</time>
      </trkpt>
      <trkpt lat="42.33517" lon="0.15242">
        <ele>709.5</ele>
        <time>2015-09-22T12:05:29Z</time>
      </trkpt>
      <trkpt lat="42.33519" lon="0.15248">
        <ele>709.2</ele>
        <time>2015-09-22T12:05:30Z</time>
      </trkpt>
      <trkpt lat="42.33521" lon="0.15253">
        <ele>708.9</ele>
        <time>2015-09-22T12:05:31Z</time>
      </trkpt>
      <trkpt lat="42.33523" lon="0.15259">
        <ele>708.6</ele>
        <time>2015-09-22T12:05:32Z</time>
      </trkpt>
      <trkpt lat="42.33525" lon="0.15264">
        <ele>708.3</ele>
        <time>2015-09-22T12:05:33Z</time>
      </trkpt>
      <trkpt lat="42.33526" lon="0.15269">
        <ele>708.1</ele>
        <time>2015-09-22T12:05:34Z</time>
      </trkpt>
      <trkpt lat="42.33526" lon="0.15274">
        <ele>707.9</ele>
        <time>2015-09-22T12:05:36Z</time>
      </trkpt>
      <trkpt lat="42.33527" lon="0.15279">
        <ele>707.6</ele>
        <time>2015-09-22T12:05:38Z</time>
      </trkpt>
      <trkpt lat="42.33528" lon="0.15285">
        <ele>707.4</ele>
        <time>2015-09-22T12:05:40Z</time>
      </trkpt>
      <trkpt lat="42.3353" lon="0.15291">
        <ele>707</ele>
        <time>2015-09-22T12:05:42Z</time>
      </trkpt>
      <trkpt lat="42.33532" lon="0.15294">
        <ele>706.7</ele>
        <time>2015-09-22T12:05:43Z</time>
      </trkpt>
      <trkpt lat="42.33534" lon="0.15297">
        <ele>706.3</ele>
        <time>2015-09-22T12:05:44Z</time>
      </trkpt>
      <trkpt lat="42.33536" lon="0.15301">
        <ele>705.9</ele>
        <time>2015-09-22T12:05:45Z</time>
      </trkpt>
      <trkpt lat="42.33538" lon="0.15304">
        <ele>705.4</ele>
        <time>2015-09-22T12:05:46Z</time>
      </trkpt>
      <trkpt lat="42.33541" lon="0.15307">
        <ele>704.9</ele>
        <time>2015-09-22T12:05:47Z</time>
      </trkpt>
      <trkpt lat="42.33544" lon="0.15311">
        <ele>704.6</ele>
        <time>2015-09-22T12:05:48Z</time>
      </trkpt>
      <trkpt lat="42.33548" lon="0.15315">
        <ele>704.2</ele>
        <time>2015-09-22T12:05:49Z</time>
      </trkpt>
      <trkpt lat="42.33552" lon="0.15322">
        <ele>703.7</ele>
        <time>2015-09-22T12:05:50Z</time>
      </trkpt>
      <trkpt lat="42.33555" lon="0.15325">
        <ele>703.3</ele>
        <time>2015-09-22T12:05:51Z</time>
      </trkpt>
      <trkpt lat="42.33557" lon="0.15328">
        <ele>703.1</ele>
        <time>2015-09-22T12:05:52Z</time>
      </trkpt>
      <trkpt lat="42.33561" lon="0.15332">
        <ele>702.6</ele>
        <time>2015-09-22T12:05:54Z</time>
      </trkpt>
      <trkpt lat="42.33563" lon="0.15335">
        <ele>702.3</ele>
        <time>2015-09-22T12:05:56Z</time>
      </trkpt>
      <trkpt lat="42.33566" lon="0.15338">
        <ele>702</ele>
        <time>2015-09-22T12:05:59Z</time>
      </trkpt>
      <trkpt lat="42.33569" lon="0.15339">
        <ele>701.8</ele>
        <time>2015-09-22T12:06:02Z</time>
      </trkpt>
      <trkpt lat="42.33573" lon="0.15342">
        <ele>701.4</ele>
        <time>2015-09-22T12:06:05Z</time>
      </trkpt>
      <trkpt lat="42.33575" lon="0.15345">
        <ele>701.1</ele>
        <time>2015-09-22T12:06:07Z</time>
      </trkpt>
      <trkpt lat="42.33578" lon="0.15347">
        <ele>700.7</ele>
        <time>2015-09-22T12:06:10Z</time>
      </trkpt>
      <trkpt lat="42.33582" lon="0.15344">
        <ele>700.9</ele>
        <time>2015-09-22T12:06:13Z</time>
      </trkpt>
      <trkpt lat="42.33584" lon="0.15341">
        <ele>701.1</ele>
        <time>2015-09-22T12:06:15Z</time>
      </trkpt>
      <trkpt lat="42.33586" lon="0.15338">
        <ele>701.4</ele>
        <time>2015-09-22T12:06:16Z</time>
      </trkpt>
      <trkpt lat="42.33589" lon="0.15334">
        <ele>701.8</ele>
        <time>2015-09-22T12:06:17Z</time>
      </trkpt>
      <trkpt lat="42.33593" lon="0.15332">
        <ele>702</ele>
        <time>2015-09-22T12:06:18Z</time>
      </trkpt>
      <trkpt lat="42.33596" lon="0.15329">
        <ele>702.2</ele>
        <time>2015-09-22T12:06:19Z</time>
      </trkpt>
      <trkpt lat="42.33599" lon="0.15327">
        <ele>702.5</ele>
        <time>2015-09-22T12:06:20Z</time>
      </trkpt>
      <trkpt lat="42.33601" lon="0.15324">
        <ele>702.8</ele>
        <time>2015-09-22T12:06:21Z</time>
      </trkpt>
      <trkpt lat="42.33603" lon="0.15321">
        <ele>703</ele>
        <time>2015-09-22T12:06:23Z</time>
      </trkpt>
      <trkpt lat="42.33606" lon="0.15318">
        <ele>703.4</ele>
        <time>2015-09-22T12:06:26Z</time>
      </trkpt>
      <trkpt lat="42.33609" lon="0.15314">
        <ele>703.9</ele>
        <time>2015-09-22T12:06:29Z</time>
      </trkpt>
      <trkpt lat="42.33611" lon="0.15312">
        <ele>704.2</ele>
        <time>2015-09-22T12:06:31Z</time>
      </trkpt>
      <trkpt lat="42.33613" lon="0.15309">
        <ele>704.6</ele>
        <time>2015-09-22T12:06:33Z</time>
      </trkpt>
      <trkpt lat="42.33616" lon="0.15306">
        <ele>704.9</ele>
        <time>2015-09-22T12:06:35Z</time>
      </trkpt>
      <trkpt lat="42.3362" lon="0.15303">
        <ele>705.3</ele>
        <time>2015-09-22T12:06:37Z</time>
      </trkpt>
      <trkpt lat="42.33623" lon="0.153">
        <ele>705.8</ele>
        <time>2015-09-22T12:06:39Z</time>
      </trkpt>
      <trkpt lat="42.33626" lon="0.15298">
        <ele>706</ele>
        <time>2015-09-22T12:06:41Z</time>
      </trkpt>
      <trkpt lat="42.33628" lon="0.15299">
        <ele>705</ele>
        <time>2015-09-22T12:06:54Z</time>
      </trkpt>
      <trkpt lat="42.33628" lon="0.15304">
        <ele>704.5</ele>
        <time>2015-09-22T12:07:13Z</time>
      </trkpt>
      <trkpt lat="42.33626" lon="0.15307">
        <ele>704.5</ele>
        <time>2015-09-22T12:07:15Z</time>
      </trkpt>
      <trkpt lat="42.33623" lon="0.15311">
        <ele>704.2</ele>
        <time>2015-09-22T12:07:17Z</time>
      </trkpt>
      <trkpt lat="42.33622" lon="0.15314">
        <ele>703.8</ele>
        <time>2015-09-22T12:07:18Z</time>
      </trkpt>
      <trkpt lat="42.3362" lon="0.15318">
        <ele>703.3</ele>
        <time>2015-09-22T12:07:19Z</time>
      </trkpt>
      <trkpt lat="42.33619" lon="0.15323">
        <ele>702.6</ele>
        <time>2015-09-22T12:07:21Z</time>
      </trkpt>
      <trkpt lat="42.33622" lon="0.15322">
        <ele>702.7</ele>
        <time>2015-09-22T12:07:31Z</time>
      </trkpt>
      <trkpt lat="42.33624" lon="0.15317">
        <ele>703.4</ele>
        <time>2015-09-22T12:07:34Z</time>
      </trkpt>
      <trkpt lat="42.33627" lon="0.15312">
        <ele>703.3</ele>
        <time>2015-09-22T12:07:36Z</time>
      </trkpt>
      <trkpt lat="42.33631" lon="0.15309">
        <ele>702.7</ele>
        <time>2015-09-22T12:07:38Z</time>
      </trkpt>
      <trkpt lat="42.33634" lon="0.15306">
        <ele>702</ele>
        <time>2015-09-22T12:07:40Z</time>
      </trkpt>
      <trkpt lat="42.33637" lon="0.15305">
        <ele>701.2</ele>
        <time>2015-09-22T12:07:42Z</time>
      </trkpt>
      <trkpt lat="42.3364" lon="0.15305">
        <ele>700.4</ele>
        <time>2015-09-22T12:07:44Z</time>
      </trkpt>
      <trkpt lat="42.33643" lon="0.15303">
        <ele>699.8</ele>
        <time>2015-09-22T12:07:46Z</time>
      </trkpt>
      <trkpt lat="42.33646" lon="0.15301">
        <ele>699.4</ele>
        <time>2015-09-22T12:07:48Z</time>
      </trkpt>
      <trkpt lat="42.33648" lon="0.15298">
        <ele>699.1</ele>
        <time>2015-09-22T12:07:50Z</time>
      </trkpt>
      <trkpt lat="42.33651" lon="0.15296">
        <ele>698.7</ele>
        <time>2015-09-22T12:07:52Z</time>
      </trkpt>
      <trkpt lat="42.33655" lon="0.15296">
        <ele>697.7</ele>
        <time>2015-09-22T12:07:54Z</time>
      </trkpt>
      <trkpt lat="42.33658" lon="0.15297">
        <ele>696.6</ele>
        <time>2015-09-22T12:08:04Z</time>
      </trkpt>
      <trkpt lat="42.3366" lon="0.15293">
        <ele>696.6</ele>
        <time>2015-09-22T12:08:13Z</time>
      </trkpt>
      <trkpt lat="42.33663" lon="0.15292">
        <ele>696.2</ele>
        <time>2015-09-22T12:08:15Z</time>
      </trkpt>
      <trkpt lat="42.33666" lon="0.15291">
        <ele>695.3</ele>
        <time>2015-09-22T12:08:17Z</time>
      </trkpt>
      <trkpt lat="42.33668" lon="0.1529">
        <ele>694.9</ele>
        <time>2015-09-22T12:08:19Z</time>
      </trkpt>
      <trkpt lat="42.33671" lon="0.15287">
        <ele>694.5</ele>
        <time>2015-09-22T12:08:21Z</time>
      </trkpt>
      <trkpt lat="42.33673" lon="0.15283">
        <ele>694.6</ele>
        <time>2015-09-22T12:08:23Z</time>
      </trkpt>
      <trkpt lat="42.33676" lon="0.15279">
        <ele>694.7</ele>
        <time>2015-09-22T12:08:26Z</time>
      </trkpt>
      <trkpt lat="42.33678" lon="0.15276">
        <ele>694.6</ele>
        <time>2015-09-22T12:08:28Z</time>
      </trkpt>
      <trkpt lat="42.33681" lon="0.15273">
        <ele>694.4</ele>
        <time>2015-09-22T12:08:30Z</time>
      </trkpt>
      <trkpt lat="42.33684" lon="0.15269">
        <ele>694.4</ele>
        <time>2015-09-22T12:08:32Z</time>
      </trkpt>
      <trkpt lat="42.33687" lon="0.15265">
        <ele>694.5</ele>
        <time>2015-09-22T12:08:34Z</time>
      </trkpt>
      <trkpt lat="42.3369" lon="0.15261">
        <ele>694.6</ele>
        <time>2015-09-22T12:08:36Z</time>
      </trkpt>
      <trkpt lat="42.33692" lon="0.15257">
        <ele>694.8</ele>
        <time>2015-09-22T12:08:38Z</time>
      </trkpt>
      <trkpt lat="42.33694" lon="0.15253">
        <ele>695.4</ele>
        <time>2015-09-22T12:08:40Z</time>
      </trkpt>
      <trkpt lat="42.33696" lon="0.15249">
        <ele>695.9</ele>
        <time>2015-09-22T12:08:41Z</time>
      </trkpt>
      <trkpt lat="42.33697" lon="0.15245">
        <ele>696.5</ele>
        <time>2015-09-22T12:08:42Z</time>
      </trkpt>
      <trkpt lat="42.33698" lon="0.15241">
        <ele>697.1</ele>
        <time>2015-09-22T12:08:43Z</time>
      </trkpt>
      <trkpt lat="42.33699" lon="0.15238">
        <ele>697.6</ele>
        <time>2015-09-22T12:08:44Z</time>
      </trkpt>
      <trkpt lat="42.33701" lon="0.15235">
        <ele>697.8</ele>
        <time>2015-09-22T12:08:45Z</time>
      </trkpt>
      <trkpt lat="42.33705" lon="0.15234">
        <ele>697.4</ele>
        <time>2015-09-22T12:08:46Z</time>
      </trkpt>
      <trkpt lat="42.33709" lon="0.15234">
        <ele>696.7</ele>
        <time>2015-09-22T12:08:47Z</time>
      </trkpt>
      <trkpt lat="42.33713" lon="0.15234">
        <ele>695.8</ele>
        <time>2015-09-22T12:08:48Z</time>
      </trkpt>
      <trkpt lat="42.33717" lon="0.15234">
        <ele>694.9</ele>
        <time>2015-09-22T12:08:49Z</time>
      </trkpt>
      <trkpt lat="42.33721" lon="0.15234">
        <ele>694</ele>
        <time>2015-09-22T12:08:50Z</time>
      </trkpt>
      <trkpt lat="42.33725" lon="0.15234">
        <ele>693.2</ele>
        <time>2015-09-22T12:08:51Z</time>
      </trkpt>
      <trkpt lat="42.33728" lon="0.15235">
        <ele>692.3</ele>
        <time>2015-09-22T12:08:52Z</time>
      </trkpt>
      <trkpt lat="42.33731" lon="0.15235">
        <ele>691.5</ele>
        <time>2015-09-22T12:08:53Z</time>
      </trkpt>
      <trkpt lat="42.33729" lon="0.15235">
        <ele>692.3</ele>
        <time>2015-09-22T12:09:02Z</time>
      </trkpt>
      <trkpt lat="42.33731" lon="0.15232">
        <ele>692.6</ele>
        <time>2015-09-22T12:09:22Z</time>
      </trkpt>
      <trkpt lat="42.33734" lon="0.15233">
        <ele>691.8</ele>
        <time>2015-09-22T12:09:24Z</time>
      </trkpt>
      <trkpt lat="42.33737" lon="0.15234">
        <ele>690.5</ele>
        <time>2015-09-22T12:09:26Z</time>
      </trkpt>
      <trkpt lat="42.33743" lon="0.15235">
        <ele>689.1</ele>
        <time>2015-09-22T12:09:28Z</time>
      </trkpt>
      <trkpt lat="42.33747" lon="0.15234">
        <ele>688.5</ele>
        <time>2015-09-22T12:09:29Z</time>
      </trkpt>
      <trkpt lat="42.33751" lon="0.15233">
        <ele>688.1</ele>
        <time>2015-09-22T12:09:30Z</time>
      </trkpt>
      <trkpt lat="42.33754" lon="0.15231">
        <ele>687.7</ele>
        <time>2015-09-22T12:09:31Z</time>
      </trkpt>
      <trkpt lat="42.33758" lon="0.1523">
        <ele>687.6</ele>
        <time>2015-09-22T12:09:32Z</time>
      </trkpt>
      <trkpt lat="42.33763" lon="0.15227">
        <ele>687.5</ele>
        <time>2015-09-22T12:09:33Z</time>
      </trkpt>
      <trkpt lat="42.33766" lon="0.15225">
        <ele>687.4</ele>
        <time>2015-09-22T12:09:34Z</time>
      </trkpt>
      <trkpt lat="42.33769" lon="0.15223">
        <ele>687.5</ele>
        <time>2015-09-22T12:09:35Z</time>
      </trkpt>
      <trkpt lat="42.33772" lon="0.15221">
        <ele>687.7</ele>
        <time>2015-09-22T12:09:36Z</time>
      </trkpt>
      <trkpt lat="42.33776" lon="0.1522">
        <ele>687.6</ele>
        <time>2015-09-22T12:09:38Z</time>
      </trkpt>
      <trkpt lat="42.3378" lon="0.15219">
        <ele>686.9</ele>
        <time>2015-09-22T12:09:40Z</time>
      </trkpt>
      <trkpt lat="42.33785" lon="0.15223">
        <ele>684.6</ele>
        <time>2015-09-22T12:09:42Z</time>
      </trkpt>
      <trkpt lat="42.33788" lon="0.15225">
        <ele>683</ele>
        <time>2015-09-22T12:09:43Z</time>
      </trkpt>
      <trkpt lat="42.33792" lon="0.15229">
        <ele>680.8</ele>
        <time>2015-09-22T12:09:45Z</time>
      </trkpt>
      <trkpt lat="42.33795" lon="0.15234">
        <ele>678.4</ele>
        <time>2015-09-22T12:09:47Z</time>
      </trkpt>
      <trkpt lat="42.33796" lon="0.15238">
        <ele>677</ele>
        <time>2015-09-22T12:09:48Z</time>
      </trkpt>
      <trkpt lat="42.33798" lon="0.15243">
        <ele>674.9</ele>
        <time>2015-09-22T12:09:49Z</time>
      </trkpt>
      <trkpt lat="42.33801" lon="0.15246">
        <ele>673.4</ele>
        <time>2015-09-22T12:09:50Z</time>
      </trkpt>
      <trkpt lat="42.33804" lon="0.15248">
        <ele>672.4</ele>
        <time>2015-09-22T12:09:51Z</time>
      </trkpt>
      <trkpt lat="42.33807" lon="0.15249">
        <ele>671.8</ele>
        <time>2015-09-22T12:09:52Z</time>
      </trkpt>
      <trkpt lat="42.3381" lon="0.15249">
        <ele>671.5</ele>
        <time>2015-09-22T12:09:54Z</time>
      </trkpt>
      <trkpt lat="42.33813" lon="0.15249">
        <ele>671.2</ele>
        <time>2015-09-22T12:09:57Z</time>
      </trkpt>
      <trkpt lat="42.33817" lon="0.1525">
        <ele>670.5</ele>
        <time>2015-09-22T12:10:00Z</time>
      </trkpt>
      <trkpt lat="42.33822" lon="0.15251">
        <ele>669.7</ele>
        <time>2015-09-22T12:10:02Z</time>
      </trkpt>
      <trkpt lat="42.33825" lon="0.15251">
        <ele>669.3</ele>
        <time>2015-09-22T12:10:03Z</time>
      </trkpt>
      <trkpt lat="42.33827" lon="0.15253">
        <ele>668.4</ele>
        <time>2015-09-22T12:10:04Z</time>
      </trkpt>
      <trkpt lat="42.3383" lon="0.15256">
        <ele>666.9</ele>
        <time>2015-09-22T12:10:05Z</time>
      </trkpt>
      <trkpt lat="42.33832" lon="0.1526">
        <ele>665.3</ele>
        <time>2015-09-22T12:10:06Z</time>
      </trkpt>
      <trkpt lat="42.33835" lon="0.15263">
        <ele>663.8</ele>
        <time>2015-09-22T12:10:07Z</time>
      </trkpt>
      <trkpt lat="42.33837" lon="0.15267">
        <ele>662.4</ele>
        <time>2015-09-22T12:10:08Z</time>
      </trkpt>
      <trkpt lat="42.33839" lon="0.1527">
        <ele>661</ele>
        <time>2015-09-22T12:10:09Z</time>
      </trkpt>
      <trkpt lat="42.33841" lon="0.15273">
        <ele>659.5</ele>
        <time>2015-09-22T12:10:10Z</time>
      </trkpt>
      <trkpt lat="42.33842" lon="0.15279">
        <ele>657.1</ele>
        <time>2015-09-22T12:10:12Z</time>
      </trkpt>
      <trkpt lat="42.33843" lon="0.15285">
        <ele>654.7</ele>
        <time>2015-09-22T12:10:14Z</time>
      </trkpt>
      <trkpt lat="42.33844" lon="0.1529">
        <ele>652.7</ele>
        <time>2015-09-22T12:10:16Z</time>
      </trkpt>
      <trkpt lat="42.33846" lon="0.15293">
        <ele>651.6</ele>
        <time>2015-09-22T12:10:18Z</time>
      </trkpt>
      <trkpt lat="42.33849" lon="0.15296">
        <ele>650.4</ele>
        <time>2015-09-22T12:10:20Z</time>
      </trkpt>
      <trkpt lat="42.33853" lon="0.15302">
        <ele>648.3</ele>
        <time>2015-09-22T12:10:22Z</time>
      </trkpt>
      <trkpt lat="42.33855" lon="0.15305">
        <ele>647.1</ele>
        <time>2015-09-22T12:10:23Z</time>
      </trkpt>
      <trkpt lat="42.33859" lon="0.1531">
        <ele>645.2</ele>
        <time>2015-09-22T12:10:25Z</time>
      </trkpt>
      <trkpt lat="42.33863" lon="0.15311">
        <ele>644.6</ele>
        <time>2015-09-22T12:10:27Z</time>
      </trkpt>
      <trkpt lat="42.33868" lon="0.1531">
        <ele>644.6</ele>
        <time>2015-09-22T12:10:29Z</time>
      </trkpt>
      <trkpt lat="42.33873" lon="0.1531">
        <ele>644.2</ele>
        <time>2015-09-22T12:10:31Z</time>
      </trkpt>
      <trkpt lat="42.33876" lon="0.15316">
        <ele>642.1</ele>
        <time>2015-09-22T12:10:33Z</time>
      </trkpt>
      <trkpt lat="42.33877" lon="0.1532">
        <ele>640.8</ele>
        <time>2015-09-22T12:10:34Z</time>
      </trkpt>
      <trkpt lat="42.33878" lon="0.15324">
        <ele>639.6</ele>
        <time>2015-09-22T12:10:35Z</time>
      </trkpt>
      <trkpt lat="42.3388" lon="0.15328">
        <ele>638.2</ele>
        <time>2015-09-22T12:10:36Z</time>
      </trkpt>
      <trkpt lat="42.33882" lon="0.15334">
        <ele>636.1</ele>
        <time>2015-09-22T12:10:37Z</time>
      </trkpt>
      <trkpt lat="42.33884" lon="0.1534">
        <ele>634.2</ele>
        <time>2015-09-22T12:10:38Z</time>
      </trkpt>
      <trkpt lat="42.33885" lon="0.15346">
        <ele>632.1</ele>
        <time>2015-09-22T12:10:39Z</time>
      </trkpt>
      <trkpt lat="42.33888" lon="0.15355">
        <ele>629.2</ele>
        <time>2015-09-22T12:10:40Z</time>
      </trkpt>
      <trkpt lat="42.33891" lon="0.15362">
        <ele>626.9</ele>
        <time>2015-09-22T12:10:41Z</time>
      </trkpt>
      <trkpt lat="42.33893" lon="0.15367">
        <ele>625.5</ele>
        <time>2015-09-22T12:10:42Z</time>
      </trkpt>
      <trkpt lat="42.33896" lon="0.15372">
        <ele>623.9</ele>
        <time>2015-09-22T12:10:43Z</time>
      </trkpt>
      <trkpt lat="42.33898" lon="0.15376">
        <ele>622.8</ele>
        <time>2015-09-22T12:10:44Z</time>
      </trkpt>
      <trkpt lat="42.33901" lon="0.15381">
        <ele>621.9</ele>
        <time>2015-09-22T12:10:45Z</time>
      </trkpt>
      <trkpt lat="42.33904" lon="0.15384">
        <ele>621.5</ele>
        <time>2015-09-22T12:10:46Z</time>
      </trkpt>
      <trkpt lat="42.33908" lon="0.15388">
        <ele>620.8</ele>
        <time>2015-09-22T12:10:47Z</time>
      </trkpt>
      <trkpt lat="42.33912" lon="0.15392">
        <ele>620.1</ele>
        <time>2015-09-22T12:10:48Z</time>
      </trkpt>
      <trkpt lat="42.33916" lon="0.15396">
        <ele>619.5</ele>
        <time>2015-09-22T12:10:49Z</time>
      </trkpt>
      <trkpt lat="42.33921" lon="0.154">
        <ele>618.9</ele>
        <time>2015-09-22T12:10:50Z</time>
      </trkpt>
      <trkpt lat="42.33927" lon="0.15404">
        <ele>618.4</ele>
        <time>2015-09-22T12:10:51Z</time>
      </trkpt>
      <trkpt lat="42.33932" lon="0.15407">
        <ele>618.1</ele>
        <time>2015-09-22T12:10:52Z</time>
      </trkpt>
      <trkpt lat="42.33937" lon="0.15413">
        <ele>617.4</ele>
        <time>2015-09-22T12:10:53Z</time>
      </trkpt>
      <trkpt lat="42.33942" lon="0.15418">
        <ele>616.7</ele>
        <time>2015-09-22T12:10:54Z</time>
      </trkpt>
      <trkpt lat="42.33947" lon="0.15423">
        <ele>616.2</ele>
        <time>2015-09-22T12:10:55Z</time>
      </trkpt>
      <trkpt lat="42.33952" lon="0.15426">
        <ele>615.9</ele>
        <time>2015-09-22T12:10:56Z</time>
      </trkpt>
      <trkpt lat="42.33957" lon="0.15429">
        <ele>615.9</ele>
        <time>2015-09-22T12:10:57Z</time>
      </trkpt>
      <trkpt lat="42.33962" lon="0.15431">
        <ele>614.8</ele>
        <time>2015-09-22T12:10:58Z</time>
      </trkpt>
      <trkpt lat="42.33967" lon="0.15434">
        <ele>613.4</ele>
        <time>2015-09-22T12:10:59Z</time>
      </trkpt>
      <trkpt lat="42.33971" lon="0.15436">
        <ele>612.4</ele>
        <time>2015-09-22T12:11:00Z</time>
      </trkpt>
      <trkpt lat="42.33975" lon="0.15438">
        <ele>611.4</ele>
        <time>2015-09-22T12:11:01Z</time>
      </trkpt>
      <trkpt lat="42.33978" lon="0.1544">
        <ele>610.6</ele>
        <time>2015-09-22T12:11:02Z</time>
      </trkpt>
      <trkpt lat="42.33981" lon="0.15442">
        <ele>609.7</ele>
        <time>2015-09-22T12:11:03Z</time>
      </trkpt>
      <trkpt lat="42.33985" lon="0.15443">
        <ele>608.9</ele>
        <time>2015-09-22T12:11:04Z</time>
      </trkpt>
      <trkpt lat="42.33988" lon="0.15444">
        <ele>608.2</ele>
        <time>2015-09-22T12:11:05Z</time>
      </trkpt>
      <trkpt lat="42.33992" lon="0.15446">
        <ele>607.4</ele>
        <time>2015-09-22T12:11:06Z</time>
      </trkpt>
      <trkpt lat="42.33995" lon="0.15448">
        <ele>606.6</ele>
        <time>2015-09-22T12:11:07Z</time>
      </trkpt>
      <trkpt lat="42.33999" lon="0.1545">
        <ele>605.7</ele>
        <time>2015-09-22T12:11:08Z</time>
      </trkpt>
      <trkpt lat="42.34003" lon="0.15452">
        <ele>604.9</ele>
        <time>2015-09-22T12:11:09Z</time>
      </trkpt>
      <trkpt lat="42.34007" lon="0.15453">
        <ele>604.1</ele>
        <time>2015-09-22T12:11:10Z</time>
      </trkpt>
      <trkpt lat="42.34011" lon="0.15453">
        <ele>603.5</ele>
        <time>2015-09-22T12:11:11Z</time>
      </trkpt>
      <trkpt lat="42.34014" lon="0.15453">
        <ele>602.9</ele>
        <time>2015-09-22T12:11:12Z</time>
      </trkpt>
      <trkpt lat="42.34016" lon="0.1545">
        <ele>602.6</ele>
        <time>2015-09-22T12:11:13Z</time>
      </trkpt>
      <trkpt lat="42.34017" lon="0.15444">
        <ele>602.8</ele>
        <time>2015-09-22T12:11:15Z</time>
      </trkpt>
      <trkpt lat="42.34016" lon="0.15439">
        <ele>603.2</ele>
        <time>2015-09-22T12:11:17Z</time>
      </trkpt>
      <trkpt lat="42.34015" lon="0.15435">
        <ele>603.4</ele>
        <time>2015-09-22T12:11:19Z</time>
      </trkpt>
      <trkpt lat="42.34019" lon="0.15435">
        <ele>602.7</ele>
        <time>2015-09-22T12:11:40Z</time>
      </trkpt>
      <trkpt lat="42.34022" lon="0.15434">
        <ele>602</ele>
        <time>2015-09-22T12:11:41Z</time>
      </trkpt>
      <trkpt lat="42.34026" lon="0.15434">
        <ele>601.3</ele>
        <time>2015-09-22T12:11:42Z</time>
      </trkpt>
      <trkpt lat="42.34028" lon="0.15435">
        <ele>600.7</ele>
        <time>2015-09-22T12:11:43Z</time>
      </trkpt>
      <trkpt lat="42.34033" lon="0.15438">
        <ele>599.7</ele>
        <time>2015-09-22T12:11:45Z</time>
      </trkpt>
      <trkpt lat="42.34038" lon="0.1544">
        <ele>598.7</ele>
        <time>2015-09-22T12:11:47Z</time>
      </trkpt>
      <trkpt lat="42.34041" lon="0.15439">
        <ele>598.2</ele>
        <time>2015-09-22T12:11:48Z</time>
      </trkpt>
      <trkpt lat="42.34044" lon="0.15439">
        <ele>597.6</ele>
        <time>2015-09-22T12:11:49Z</time>
      </trkpt>
      <trkpt lat="42.34047" lon="0.15437">
        <ele>597.1</ele>
        <time>2015-09-22T12:11:50Z</time>
      </trkpt>
      <trkpt lat="42.34049" lon="0.15437">
        <ele>596.6</ele>
        <time>2015-09-22T12:11:51Z</time>
      </trkpt>
      <trkpt lat="42.34055" lon="0.15436">
        <ele>595.7</ele>
        <time>2015-09-22T12:11:53Z</time>
      </trkpt>
      <trkpt lat="42.3406" lon="0.15436">
        <ele>594.7</ele>
        <time>2015-09-22T12:11:55Z</time>
      </trkpt>
      <trkpt lat="42.34063" lon="0.15437">
        <ele>594.2</ele>
        <time>2015-09-22T12:11:56Z</time>
      </trkpt>
      <trkpt lat="42.34066" lon="0.15439">
        <ele>593.5</ele>
        <time>2015-09-22T12:11:57Z</time>
      </trkpt>
      <trkpt lat="42.3407" lon="0.15443">
        <ele>592.8</ele>
        <time>2015-09-22T12:11:58Z</time>
      </trkpt>
      <trkpt lat="42.34073" lon="0.15448">
        <ele>592.2</ele>
        <time>2015-09-22T12:11:59Z</time>
      </trkpt>
      <trkpt lat="42.34076" lon="0.15454">
        <ele>591.5</ele>
        <time>2015-09-22T12:12:00Z</time>
      </trkpt>
      <trkpt lat="42.34081" lon="0.15458">
        <ele>590.4</ele>
        <time>2015-09-22T12:12:01Z</time>
      </trkpt>
      <trkpt lat="42.34085" lon="0.15459">
        <ele>589.6</ele>
        <time>2015-09-22T12:12:02Z</time>
      </trkpt>
      <trkpt lat="42.34089" lon="0.15458">
        <ele>589</ele>
        <time>2015-09-22T12:12:03Z</time>
      </trkpt>
      <trkpt lat="42.34093" lon="0.15458">
        <ele>588.2</ele>
        <time>2015-09-22T12:12:04Z</time>
      </trkpt>
      <trkpt lat="42.34096" lon="0.15459">
        <ele>587.5</ele>
        <time>2015-09-22T12:12:06Z</time>
      </trkpt>
      <trkpt lat="42.341" lon="0.15462">
        <ele>586.5</ele>
        <time>2015-09-22T12:12:08Z</time>
      </trkpt>
      <trkpt lat="42.34105" lon="0.15466">
        <ele>585.3</ele>
        <time>2015-09-22T12:12:10Z</time>
      </trkpt>
      <trkpt lat="42.34108" lon="0.15467">
        <ele>584.6</ele>
        <time>2015-09-22T12:12:11Z</time>
      </trkpt>
      <trkpt lat="42.34111" lon="0.15467">
        <ele>584</ele>
        <time>2015-09-22T12:12:12Z</time>
      </trkpt>
      <trkpt lat="42.34114" lon="0.15467">
        <ele>583.4</ele>
        <time>2015-09-22T12:12:13Z</time>
      </trkpt>
      <trkpt lat="42.34117" lon="0.15467">
        <ele>582.8</ele>
        <time>2015-09-22T12:12:14Z</time>
      </trkpt>
      <trkpt lat="42.34121" lon="0.15467">
        <ele>582.1</ele>
        <time>2015-09-22T12:12:15Z</time>
      </trkpt>
      <trkpt lat="42.34124" lon="0.15468">
        <ele>581.3</ele>
        <time>2015-09-22T12:12:16Z</time>
      </trkpt>
      <trkpt lat="42.34127" lon="0.15471">
        <ele>580.8</ele>
        <time>2015-09-22T12:12:17Z</time>
      </trkpt>
      <trkpt lat="42.3413" lon="0.15474">
        <ele>580.4</ele>
        <time>2015-09-22T12:12:18Z</time>
      </trkpt>
      <trkpt lat="42.34132" lon="0.15477">
        <ele>580</ele>
        <time>2015-09-22T12:12:19Z</time>
      </trkpt>
      <trkpt lat="42.34135" lon="0.15479">
        <ele>579.7</ele>
        <time>2015-09-22T12:12:20Z</time>
      </trkpt>
      <trkpt lat="42.34138" lon="0.15481">
        <ele>579.3</ele>
        <time>2015-09-22T12:12:26Z</time>
      </trkpt>
      <trkpt lat="42.34142" lon="0.15483">
        <ele>578.8</ele>
        <time>2015-09-22T12:12:28Z</time>
      </trkpt>
      <trkpt lat="42.34146" lon="0.15486">
        <ele>578.4</ele>
        <time>2015-09-22T12:12:30Z</time>
      </trkpt>
      <trkpt lat="42.34149" lon="0.15489">
        <ele>577.9</ele>
        <time>2015-09-22T12:12:32Z</time>
      </trkpt>
      <trkpt lat="42.34151" lon="0.15491">
        <ele>577.6</ele>
        <time>2015-09-22T12:12:34Z</time>
      </trkpt>
      <trkpt lat="42.34154" lon="0.1549">
        <ele>577.5</ele>
        <time>2015-09-22T12:12:36Z</time>
      </trkpt>
      <trkpt lat="42.34157" lon="0.15489">
        <ele>577.4</ele>
        <time>2015-09-22T12:12:38Z</time>
      </trkpt>
      <trkpt lat="42.3416" lon="0.15489">
        <ele>577.1</ele>
        <time>2015-09-22T12:12:40Z</time>
      </trkpt>
      <trkpt lat="42.34163" lon="0.15492">
        <ele>576.8</ele>
        <time>2015-09-22T12:12:41Z</time>
      </trkpt>
      <trkpt lat="42.34166" lon="0.15494">
        <ele>576.4</ele>
        <time>2015-09-22T12:12:42Z</time>
      </trkpt>
      <trkpt lat="42.34168" lon="0.15496">
        <ele>576</ele>
        <time>2015-09-22T12:12:43Z</time>
      </trkpt>
      <trkpt lat="42.3417" lon="0.15498">
        <ele>575.7</ele>
        <time>2015-09-22T12:12:44Z</time>
      </trkpt>
      <trkpt lat="42.34173" lon="0.15499">
        <ele>575.4</ele>
        <time>2015-09-22T12:12:45Z</time>
      </trkpt>
      <trkpt lat="42.34178" lon="0.155">
        <ele>575</ele>
        <time>2015-09-22T12:12:47Z</time>
      </trkpt>
      <trkpt lat="42.34182" lon="0.15499">
        <ele>574.9</ele>
        <time>2015-09-22T12:12:51Z</time>
      </trkpt>
      <trkpt lat="42.34186" lon="0.15498">
        <ele>574.6</ele>
        <time>2015-09-22T12:12:53Z</time>
      </trkpt>
      <trkpt lat="42.34191" lon="0.15498">
        <ele>574.4</ele>
        <time>2015-09-22T12:12:55Z</time>
      </trkpt>
      <trkpt lat="42.34196" lon="0.15497">
        <ele>574.1</ele>
        <time>2015-09-22T12:12:57Z</time>
      </trkpt>
      <trkpt lat="42.342" lon="0.15497">
        <ele>573.8</ele>
        <time>2015-09-22T12:12:59Z</time>
      </trkpt>
      <trkpt lat="42.34204" lon="0.15498">
        <ele>573.5</ele>
        <time>2015-09-22T12:13:01Z</time>
      </trkpt>
      <trkpt lat="42.34208" lon="0.15499">
        <ele>573.1</ele>
        <time>2015-09-22T12:13:03Z</time>
      </trkpt>
      <trkpt lat="42.34212" lon="0.15503">
        <ele>572.1</ele>
        <time>2015-09-22T12:13:05Z</time>
      </trkpt>
      <trkpt lat="42.34215" lon="0.15506">
        <ele>571.6</ele>
        <time>2015-09-22T12:13:06Z</time>
      </trkpt>
      <trkpt lat="42.34217" lon="0.15509">
        <ele>571</ele>
        <time>2015-09-22T12:13:07Z</time>
      </trkpt>
      <trkpt lat="42.34221" lon="0.15512">
        <ele>570.2</ele>
        <time>2015-09-22T12:13:09Z</time>
      </trkpt>
      <trkpt lat="42.34224" lon="0.15514">
        <ele>569.6</ele>
        <time>2015-09-22T12:13:12Z</time>
      </trkpt>
      <trkpt lat="42.34227" lon="0.15514">
        <ele>569.2</ele>
        <time>2015-09-22T12:13:16Z</time>
      </trkpt>
      <trkpt lat="42.34229" lon="0.15517">
        <ele>568.7</ele>
        <time>2015-09-22T12:13:24Z</time>
      </trkpt>
      <trkpt lat="42.34232" lon="0.15518">
        <ele>568.3</ele>
        <time>2015-09-22T12:13:29Z</time>
      </trkpt>
      <trkpt lat="42.34234" lon="0.15518">
        <ele>568</ele>
        <time>2015-09-22T12:13:34Z</time>
      </trkpt>
      <trkpt lat="42.34236" lon="0.1552">
        <ele>567.5</ele>
        <time>2015-09-22T12:13:41Z</time>
      </trkpt>
      <trkpt lat="42.34236" lon="0.15524">
        <ele>567.2</ele>
        <time>2015-09-22T12:13:50Z</time>
      </trkpt>
      <trkpt lat="42.34239" lon="0.1553">
        <ele>566.5</ele>
        <time>2015-09-22T12:13:52Z</time>
      </trkpt>
      <trkpt lat="42.34242" lon="0.15536">
        <ele>565.8</ele>
        <time>2015-09-22T12:13:54Z</time>
      </trkpt>
      <trkpt lat="42.34244" lon="0.15542">
        <ele>565.1</ele>
        <time>2015-09-22T12:13:56Z</time>
      </trkpt>
      <trkpt lat="42.34247" lon="0.15547">
        <ele>564.7</ele>
        <time>2015-09-22T12:13:58Z</time>
      </trkpt>
      <trkpt lat="42.34251" lon="0.15549">
        <ele>564.2</ele>
        <time>2015-09-22T12:14:00Z</time>
      </trkpt>
      <trkpt lat="42.34254" lon="0.1555">
        <ele>563.9</ele>
        <time>2015-09-22T12:14:01Z</time>
      </trkpt>
      <trkpt lat="42.34257" lon="0.15551">
        <ele>563.6</ele>
        <time>2015-09-22T12:14:02Z</time>
      </trkpt>
      <trkpt lat="42.34262" lon="0.15552">
        <ele>563.1</ele>
        <time>2015-09-22T12:14:04Z</time>
      </trkpt>
      <trkpt lat="42.34265" lon="0.15554">
        <ele>562.8</ele>
        <time>2015-09-22T12:14:06Z</time>
      </trkpt>
      <trkpt lat="42.34268" lon="0.15556">
        <ele>562.5</ele>
        <time>2015-09-22T12:14:08Z</time>
      </trkpt>
      <trkpt lat="42.34271" lon="0.15562">
        <ele>562.2</ele>
        <time>2015-09-22T12:14:10Z</time>
      </trkpt>
      <trkpt lat="42.34274" lon="0.15565">
        <ele>561.9</ele>
        <time>2015-09-22T12:14:11Z</time>
      </trkpt>
      <trkpt lat="42.34277" lon="0.15568">
        <ele>561.6</ele>
        <time>2015-09-22T12:14:12Z</time>
      </trkpt>
      <trkpt lat="42.34282" lon="0.15571">
        <ele>561.2</ele>
        <time>2015-09-22T12:14:13Z</time>
      </trkpt>
      <trkpt lat="42.34288" lon="0.15574">
        <ele>560.7</ele>
        <time>2015-09-22T12:14:14Z</time>
      </trkpt>
      <trkpt lat="42.34292" lon="0.15577">
        <ele>560.4</ele>
        <time>2015-09-22T12:14:15Z</time>
      </trkpt>
      <trkpt lat="42.34296" lon="0.1558">
        <ele>560.6</ele>
        <time>2015-09-22T12:14:16Z</time>
      </trkpt>
      <trkpt lat="42.34299" lon="0.15585">
        <ele>560.7</ele>
        <time>2015-09-22T12:14:17Z</time>
      </trkpt>
      <trkpt lat="42.34301" lon="0.15589">
        <ele>560.7</ele>
        <time>2015-09-22T12:14:18Z</time>
      </trkpt>
      <trkpt lat="42.34302" lon="0.15595">
        <ele>560.8</ele>
        <time>2015-09-22T12:14:19Z</time>
      </trkpt>
      <trkpt lat="42.34303" lon="0.156">
        <ele>560.8</ele>
        <time>2015-09-22T12:14:20Z</time>
      </trkpt>
      <trkpt lat="42.34304" lon="0.15604">
        <ele>560.8</ele>
        <time>2015-09-22T12:14:21Z</time>
      </trkpt>
      <trkpt lat="42.34306" lon="0.15609">
        <ele>560.8</ele>
        <time>2015-09-22T12:14:22Z</time>
      </trkpt>
      <trkpt lat="42.34308" lon="0.15613">
        <ele>560.8</ele>
        <time>2015-09-22T12:14:23Z</time>
      </trkpt>
      <trkpt lat="42.3431" lon="0.15617">
        <ele>560.8</ele>
        <time>2015-09-22T12:14:24Z</time>
      </trkpt>
      <trkpt lat="42.34312" lon="0.1562">
        <ele>560.8</ele>
        <time>2015-09-22T12:14:25Z</time>
      </trkpt>
      <trkpt lat="42.34316" lon="0.15625">
        <ele>560.7</ele>
        <time>2015-09-22T12:14:27Z</time>
      </trkpt>
      <trkpt lat="42.34319" lon="0.15631">
        <ele>560.5</ele>
        <time>2015-09-22T12:14:29Z</time>
      </trkpt>
      <trkpt lat="42.34321" lon="0.15636">
        <ele>560.3</ele>
        <time>2015-09-22T12:14:31Z</time>
      </trkpt>
      <trkpt lat="42.34323" lon="0.15641">
        <ele>560.1</ele>
        <time>2015-09-22T12:14:33Z</time>
      </trkpt>
      <trkpt lat="42.34326" lon="0.15647">
        <ele>559.9</ele>
        <time>2015-09-22T12:14:35Z</time>
      </trkpt>
      <trkpt lat="42.34329" lon="0.1565">
        <ele>559.7</ele>
        <time>2015-09-22T12:14:36Z</time>
      </trkpt>
      <trkpt lat="42.34332" lon="0.15653">
        <ele>559.5</ele>
        <time>2015-09-22T12:14:37Z</time>
      </trkpt>
      <trkpt lat="42.34335" lon="0.15657">
        <ele>559.3</ele>
        <time>2015-09-22T12:14:38Z</time>
      </trkpt>
      <trkpt lat="42.34338" lon="0.1566">
        <ele>559.1</ele>
        <time>2015-09-22T12:14:39Z</time>
      </trkpt>
      <trkpt lat="42.34341" lon="0.15664">
        <ele>558.8</ele>
        <time>2015-09-22T12:14:40Z</time>
      </trkpt>
      <trkpt lat="42.34344" lon="0.15668">
        <ele>558.6</ele>
        <time>2015-09-22T12:14:41Z</time>
      </trkpt>
      <trkpt lat="42.34346" lon="0.15673">
        <ele>558.3</ele>
        <time>2015-09-22T12:14:42Z</time>
      </trkpt>
      <trkpt lat="42.34347" lon="0.15678">
        <ele>558</ele>
        <time>2015-09-22T12:14:43Z</time>
      </trkpt>
      <trkpt lat="42.34347" lon="0.15683">
        <ele>557.8</ele>
        <time>2015-09-22T12:14:44Z</time>
      </trkpt>
      <trkpt lat="42.34347" lon="0.15688">
        <ele>557.6</ele>
        <time>2015-09-22T12:14:45Z</time>
      </trkpt>
      <trkpt lat="42.34347" lon="0.15692">
        <ele>557.4</ele>
        <time>2015-09-22T12:14:46Z</time>
      </trkpt>
      <trkpt lat="42.34348" lon="0.15697">
        <ele>557.1</ele>
        <time>2015-09-22T12:14:47Z</time>
      </trkpt>
      <trkpt lat="42.3435" lon="0.157">
        <ele>556.9</ele>
        <time>2015-09-22T12:14:48Z</time>
      </trkpt>
      <trkpt lat="42.34352" lon="0.15703">
        <ele>556.6</ele>
        <time>2015-09-22T12:14:49Z</time>
      </trkpt>
      <trkpt lat="42.34355" lon="0.15705">
        <ele>556.3</ele>
        <time>2015-09-22T12:14:50Z</time>
      </trkpt>
      <trkpt lat="42.34358" lon="0.15708">
        <ele>556.1</ele>
        <time>2015-09-22T12:14:51Z</time>
      </trkpt>
      <trkpt lat="42.3436" lon="0.1571">
        <ele>555.8</ele>
        <time>2015-09-22T12:14:52Z</time>
      </trkpt>
      <trkpt lat="42.34363" lon="0.15713">
        <ele>555.5</ele>
        <time>2015-09-22T12:14:53Z</time>
      </trkpt>
      <trkpt lat="42.34365" lon="0.15716">
        <ele>555.2</ele>
        <time>2015-09-22T12:14:54Z</time>
      </trkpt>
      <trkpt lat="42.34367" lon="0.1572">
        <ele>554.9</ele>
        <time>2015-09-22T12:14:55Z</time>
      </trkpt>
      <trkpt lat="42.3437" lon="0.15723">
        <ele>554.6</ele>
        <time>2015-09-22T12:14:56Z</time>
      </trkpt>
      <trkpt lat="42.34371" lon="0.15727">
        <ele>554.3</ele>
        <time>2015-09-22T12:14:57Z</time>
      </trkpt>
      <trkpt lat="42.34373" lon="0.15731">
        <ele>554</ele>
        <time>2015-09-22T12:14:58Z</time>
      </trkpt>
      <trkpt lat="42.34375" lon="0.15735">
        <ele>553.7</ele>
        <time>2015-09-22T12:14:59Z</time>
      </trkpt>
      <trkpt lat="42.34377" lon="0.15739">
        <ele>553.7</ele>
        <time>2015-09-22T12:15:00Z</time>
      </trkpt>
      <trkpt lat="42.34379" lon="0.15743">
        <ele>553.7</ele>
        <time>2015-09-22T12:15:01Z</time>
      </trkpt>
      <trkpt lat="42.3438" lon="0.15748">
        <ele>553.7</ele>
        <time>2015-09-22T12:15:02Z</time>
      </trkpt>
      <trkpt lat="42.34382" lon="0.15752">
        <ele>553.7</ele>
        <time>2015-09-22T12:15:03Z</time>
      </trkpt>
      <trkpt lat="42.34384" lon="0.15756">
        <ele>553.7</ele>
        <time>2015-09-22T12:15:04Z</time>
      </trkpt>
      <trkpt lat="42.34386" lon="0.1576">
        <ele>553.7</ele>
        <time>2015-09-22T12:15:05Z</time>
      </trkpt>
      <trkpt lat="42.34388" lon="0.15764">
        <ele>553.7</ele>
        <time>2015-09-22T12:15:06Z</time>
      </trkpt>
      <trkpt lat="42.3439" lon="0.15769">
        <ele>553.6</ele>
        <time>2015-09-22T12:15:07Z</time>
      </trkpt>
      <trkpt lat="42.34391" lon="0.15773">
        <ele>553.6</ele>
        <time>2015-09-22T12:15:08Z</time>
      </trkpt>
      <trkpt lat="42.34392" lon="0.15779">
        <ele>553.4</ele>
        <time>2015-09-22T12:15:10Z</time>
      </trkpt>
      <trkpt lat="42.3439" lon="0.15785">
        <ele>552.9</ele>
        <time>2015-09-22T12:15:12Z</time>
      </trkpt>
      <trkpt lat="42.34388" lon="0.1579">
        <ele>552.5</ele>
        <time>2015-09-22T12:15:14Z</time>
      </trkpt>
      <trkpt lat="42.34386" lon="0.15794">
        <ele>552.3</ele>
        <time>2015-09-22T12:15:16Z</time>
      </trkpt>
      <trkpt lat="42.34385" lon="0.15798">
        <ele>552.2</ele>
        <time>2015-09-22T12:15:18Z</time>
      </trkpt>
      <trkpt lat="42.34386" lon="0.15803">
        <ele>552.3</ele>
        <time>2015-09-22T12:15:20Z</time>
      </trkpt>
      <trkpt lat="42.34389" lon="0.15807">
        <ele>552.7</ele>
        <time>2015-09-22T12:15:22Z</time>
      </trkpt>
      <trkpt lat="42.34393" lon="0.15808">
        <ele>553.2</ele>
        <time>2015-09-22T12:15:24Z</time>
      </trkpt>
      <trkpt lat="42.34396" lon="0.15807">
        <ele>553.6</ele>
        <time>2015-09-22T12:15:26Z</time>
      </trkpt>
      <trkpt lat="42.344" lon="0.15805">
        <ele>553.9</ele>
        <time>2015-09-22T12:15:28Z</time>
      </trkpt>
      <trkpt lat="42.34402" lon="0.15802">
        <ele>554.2</ele>
        <time>2015-09-22T12:15:30Z</time>
      </trkpt>
      <trkpt lat="42.34405" lon="0.158">
        <ele>554.5</ele>
        <time>2015-09-22T12:15:32Z</time>
      </trkpt>
      <trkpt lat="42.34409" lon="0.15799">
        <ele>554.9</ele>
        <time>2015-09-22T12:15:34Z</time>
      </trkpt>
      <trkpt lat="42.34413" lon="0.15799">
        <ele>555.3</ele>
        <time>2015-09-22T12:15:36Z</time>
      </trkpt>
      <trkpt lat="42.34416" lon="0.158">
        <ele>555.7</ele>
        <time>2015-09-22T12:15:38Z</time>
      </trkpt>
      <trkpt lat="42.3442" lon="0.15801">
        <ele>556.2</ele>
        <time>2015-09-22T12:15:40Z</time>
      </trkpt>
      <trkpt lat="42.34423" lon="0.15802">
        <ele>556.6</ele>
        <time>2015-09-22T12:15:42Z</time>
      </trkpt>
      <trkpt lat="42.34426" lon="0.15801">
        <ele>557</ele>
        <time>2015-09-22T12:15:44Z</time>
      </trkpt>
      <trkpt lat="42.3443" lon="0.15801">
        <ele>557.4</ele>
        <time>2015-09-22T12:15:46Z</time>
      </trkpt>
      <trkpt lat="42.34433" lon="0.15801">
        <ele>557.8</ele>
        <time>2015-09-22T12:15:48Z</time>
      </trkpt>
      <trkpt lat="42.34437" lon="0.15802">
        <ele>558.2</ele>
        <time>2015-09-22T12:15:50Z</time>
      </trkpt>
      <trkpt lat="42.3444" lon="0.15802">
        <ele>558.6</ele>
        <time>2015-09-22T12:15:52Z</time>
      </trkpt>
      <trkpt lat="42.34444" lon="0.15801">
        <ele>559</ele>
        <time>2015-09-22T12:15:54Z</time>
      </trkpt>
      <trkpt lat="42.34447" lon="0.158">
        <ele>559.3</ele>
        <time>2015-09-22T12:15:56Z</time>
      </trkpt>
      <trkpt lat="42.34451" lon="0.15799">
        <ele>559.6</ele>
        <time>2015-09-22T12:15:58Z</time>
      </trkpt>
      <trkpt lat="42.34454" lon="0.15798">
        <ele>560</ele>
        <time>2015-09-22T12:16:00Z</time>
      </trkpt>
      <trkpt lat="42.34457" lon="0.15799">
        <ele>560.4</ele>
        <time>2015-09-22T12:16:02Z</time>
      </trkpt>
      <trkpt lat="42.3446" lon="0.15802">
        <ele>560.9</ele>
        <time>2015-09-22T12:16:04Z</time>
      </trkpt>
      <trkpt lat="42.34463" lon="0.15805">
        <ele>561.4</ele>
        <time>2015-09-22T12:16:06Z</time>
      </trkpt>
      <trkpt lat="42.34465" lon="0.15807">
        <ele>561.8</ele>
        <time>2015-09-22T12:16:08Z</time>
      </trkpt>
      <trkpt lat="42.34468" lon="0.15809">
        <ele>562.2</ele>
        <time>2015-09-22T12:16:10Z</time>
      </trkpt>
      <trkpt lat="42.34471" lon="0.15812">
        <ele>562.7</ele>
        <time>2015-09-22T12:16:12Z</time>
      </trkpt>
      <trkpt lat="42.34475" lon="0.15814">
        <ele>563.2</ele>
        <time>2015-09-22T12:16:14Z</time>
      </trkpt>
      <trkpt lat="42.34479" lon="0.15816">
        <ele>563.8</ele>
        <time>2015-09-22T12:16:16Z</time>
      </trkpt>
      <trkpt lat="42.34483" lon="0.15818">
        <ele>564.3</ele>
        <time>2015-09-22T12:16:18Z</time>
      </trkpt>
      <trkpt lat="42.34487" lon="0.15821">
        <ele>564.9</ele>
        <time>2015-09-22T12:16:20Z</time>
      </trkpt>
      <trkpt lat="42.34491" lon="0.15824">
        <ele>565.4</ele>
        <time>2015-09-22T12:16:22Z</time>
      </trkpt>
      <trkpt lat="42.34495" lon="0.15826">
        <ele>566</ele>
        <time>2015-09-22T12:16:24Z</time>
      </trkpt>
      <trkpt lat="42.345" lon="0.15828">
        <ele>566.6</ele>
        <time>2015-09-22T12:16:26Z</time>
      </trkpt>
      <trkpt lat="42.34503" lon="0.1583">
        <ele>567.1</ele>
        <time>2015-09-22T12:16:28Z</time>
      </trkpt>
      <trkpt lat="42.34507" lon="0.15832">
        <ele>567.6</ele>
        <time>2015-09-22T12:16:30Z</time>
      </trkpt>
      <trkpt lat="42.34511" lon="0.15834">
        <ele>568.1</ele>
        <time>2015-09-22T12:16:32Z</time>
      </trkpt>
      <trkpt lat="42.34516" lon="0.15835">
        <ele>568.6</ele>
        <time>2015-09-22T12:16:34Z</time>
      </trkpt>
      <trkpt lat="42.3452" lon="0.15837">
        <ele>569.1</ele>
        <time>2015-09-22T12:16:36Z</time>
      </trkpt>
      <trkpt lat="42.34524" lon="0.15838">
        <ele>569.6</ele>
        <time>2015-09-22T12:16:38Z</time>
      </trkpt>
      <trkpt lat="42.34528" lon="0.1584">
        <ele>570.2</ele>
        <time>2015-09-22T12:16:40Z</time>
      </trkpt>
      <trkpt lat="42.34532" lon="0.15842">
        <ele>570.7</ele>
        <time>2015-09-22T12:16:42Z</time>
      </trkpt>
      <trkpt lat="42.34536" lon="0.15844">
        <ele>571.2</ele>
        <time>2015-09-22T12:16:44Z</time>
      </trkpt>
      <trkpt lat="42.34539" lon="0.15847">
        <ele>571.7</ele>
        <time>2015-09-22T12:16:46Z</time>
      </trkpt>
      <trkpt lat="42.34542" lon="0.15851">
        <ele>572.3</ele>
        <time>2015-09-22T12:16:48Z</time>
      </trkpt>
      <trkpt lat="42.34544" lon="0.15856">
        <ele>572.8</ele>
        <time>2015-09-22T12:16:50Z</time>
      </trkpt>
      <trkpt lat="42.34546" lon="0.15862">
        <ele>573.3</ele>
        <time>2015-09-22T12:16:52Z</time>
      </trkpt>
      <trkpt lat="42.34545" lon="0.15868">
        <ele>573.8</ele>
        <time>2015-09-22T12:16:54Z</time>
      </trkpt>
      <trkpt lat="42.34544" lon="0.15876">
        <ele>574.2</ele>
        <time>2015-09-22T12:16:56Z</time>
      </trkpt>
      <trkpt lat="42.34543" lon="0.1588">
        <ele>574.1</ele>
        <time>2015-09-22T12:16:57Z</time>
      </trkpt>
      <trkpt lat="42.34543" lon="0.15884">
        <ele>574.1</ele>
        <time>2015-09-22T12:16:58Z</time>
      </trkpt>
      <trkpt lat="42.34543" lon="0.15889">
        <ele>574.1</ele>
        <time>2015-09-22T12:16:59Z</time>
      </trkpt>
      <trkpt lat="42.34543" lon="0.15893">
        <ele>574.1</ele>
        <time>2015-09-22T12:17:00Z</time>
      </trkpt>
      <trkpt lat="42.34543" lon="0.15897">
        <ele>574.1</ele>
        <time>2015-09-22T12:17:01Z</time>
      </trkpt>
      <trkpt lat="42.34544" lon="0.15901">
        <ele>574.1</ele>
        <time>2015-09-22T12:17:02Z</time>
      </trkpt>
      <trkpt lat="42.34545" lon="0.15905">
        <ele>574.2</ele>
        <time>2015-09-22T12:17:03Z</time>
      </trkpt>
      <trkpt lat="42.34547" lon="0.15909">
        <ele>574.3</ele>
        <time>2015-09-22T12:17:04Z</time>
      </trkpt>
      <trkpt lat="42.34548" lon="0.15912">
        <ele>574.4</ele>
        <time>2015-09-22T12:17:05Z</time>
      </trkpt>
      <trkpt lat="42.34551" lon="0.15915">
        <ele>574.5</ele>
        <time>2015-09-22T12:17:42Z</time>
      </trkpt>
      <trkpt lat="42.34553" lon="0.15918">
        <ele>574.7</ele>
        <time>2015-09-22T12:17:44Z</time>
      </trkpt>
      <trkpt lat="42.34556" lon="0.15921">
        <ele>574.8</ele>
        <time>2015-09-22T12:17:46Z</time>
      </trkpt>
      <trkpt lat="42.34558" lon="0.15925">
        <ele>575</ele>
        <time>2015-09-22T12:17:48Z</time>
      </trkpt>
      <trkpt lat="42.34562" lon="0.15928">
        <ele>575.1</ele>
        <time>2015-09-22T12:17:50Z</time>
      </trkpt>
      <trkpt lat="42.34565" lon="0.1593">
        <ele>575.3</ele>
        <time>2015-09-22T12:17:52Z</time>
      </trkpt>
      <trkpt lat="42.34569" lon="0.15932">
        <ele>575.5</ele>
        <time>2015-09-22T12:17:54Z</time>
      </trkpt>
      <trkpt lat="42.34572" lon="0.15933">
        <ele>575.7</ele>
        <time>2015-09-22T12:17:56Z</time>
      </trkpt>
      <trkpt lat="42.34576" lon="0.15935">
        <ele>575.9</ele>
        <time>2015-09-22T12:17:58Z</time>
      </trkpt>
      <trkpt lat="42.3458" lon="0.15937">
        <ele>576.1</ele>
        <time>2015-09-22T12:18:00Z</time>
      </trkpt>
      <trkpt lat="42.34583" lon="0.15942">
        <ele>576.2</ele>
        <time>2015-09-22T12:18:02Z</time>
      </trkpt>
      <trkpt lat="42.34584" lon="0.15947">
        <ele>576.2</ele>
        <time>2015-09-22T12:18:04Z</time>
      </trkpt>
      <trkpt lat="42.34584" lon="0.15951">
        <ele>576.1</ele>
        <time>2015-09-22T12:18:06Z</time>
      </trkpt>
      <trkpt lat="42.34582" lon="0.15954">
        <ele>576</ele>
        <time>2015-09-22T12:18:08Z</time>
      </trkpt>
      <trkpt lat="42.34579" lon="0.15955">
        <ele>575.8</ele>
        <time>2015-09-22T12:18:11Z</time>
      </trkpt>
      <trkpt lat="42.34576" lon="0.15954">
        <ele>575.7</ele>
        <time>2015-09-22T12:18:14Z</time>
      </trkpt>
      <trkpt lat="42.34576" lon="0.15959">
        <ele>575.6</ele>
        <time>2015-09-22T12:18:19Z</time>
      </trkpt>
      <trkpt lat="42.34579" lon="0.15956">
        <ele>575.8</ele>
        <time>2015-09-22T12:18:23Z</time>
      </trkpt>
      <trkpt lat="42.34582" lon="0.15958">
        <ele>575.9</ele>
        <time>2015-09-22T12:18:27Z</time>
      </trkpt>
      <trkpt lat="42.34584" lon="0.15961">
        <ele>576.1</ele>
        <time>2015-09-22T12:18:34Z</time>
      </trkpt>
      <trkpt lat="42.34587" lon="0.15968">
        <ele>576.3</ele>
        <time>2015-09-22T12:19:24Z</time>
      </trkpt>
      <trkpt lat="42.34586" lon="0.15972">
        <ele>576.4</ele>
        <time>2015-09-22T12:19:26Z</time>
      </trkpt>
      <trkpt lat="42.34584" lon="0.15979">
        <ele>576.4</ele>
        <time>2015-09-22T12:19:28Z</time>
      </trkpt>
      <trkpt lat="42.34584" lon="0.15982">
        <ele>576.5</ele>
        <time>2015-09-22T12:19:29Z</time>
      </trkpt>
      <trkpt lat="42.34585" lon="0.1599">
        <ele>576.6</ele>
        <time>2015-09-22T12:19:31Z</time>
      </trkpt>
      <trkpt lat="42.34586" lon="0.15996">
        <ele>576.8</ele>
        <time>2015-09-22T12:19:33Z</time>
      </trkpt>
      <trkpt lat="42.34586" lon="0.16003">
        <ele>576.9</ele>
        <time>2015-09-22T12:19:35Z</time>
      </trkpt>
      <trkpt lat="42.34586" lon="0.16007">
        <ele>576.9</ele>
        <time>2015-09-22T12:19:36Z</time>
      </trkpt>
      <trkpt lat="42.34585" lon="0.1601">
        <ele>577</ele>
        <time>2015-09-22T12:19:37Z</time>
      </trkpt>
      <trkpt lat="42.34583" lon="0.16016">
        <ele>577</ele>
        <time>2015-09-22T12:19:39Z</time>
      </trkpt>
      <trkpt lat="42.34581" lon="0.1602">
        <ele>577.1</ele>
        <time>2015-09-22T12:19:41Z</time>
      </trkpt>
      <trkpt lat="42.34579" lon="0.16023">
        <ele>577.1</ele>
        <time>2015-09-22T12:19:43Z</time>
      </trkpt>
      <trkpt lat="42.34579" lon="0.16028">
        <ele>577.2</ele>
        <time>2015-09-22T12:19:46Z</time>
      </trkpt>
      <trkpt lat="42.34582" lon="0.1603">
        <ele>577.3</ele>
        <time>2015-09-22T12:19:48Z</time>
      </trkpt>
      <trkpt lat="42.34585" lon="0.16032">
        <ele>577.4</ele>
        <time>2015-09-22T12:19:49Z</time>
      </trkpt>
      <trkpt lat="42.34588" lon="0.16034">
        <ele>577.4</ele>
        <time>2015-09-22T12:19:50Z</time>
      </trkpt>
      <trkpt lat="42.34591" lon="0.16036">
        <ele>577.5</ele>
        <time>2015-09-22T12:19:51Z</time>
      </trkpt>
      <trkpt lat="42.34594" lon="0.16036">
        <ele>577.5</ele>
        <time>2015-09-22T12:19:52Z</time>
      </trkpt>
      <trkpt lat="42.34598" lon="0.16035">
        <ele>577.6</ele>
        <time>2015-09-22T12:19:54Z</time>
      </trkpt>
      <trkpt lat="42.34602" lon="0.16034">
        <ele>577.7</ele>
        <time>2015-09-22T12:19:56Z</time>
      </trkpt>
      <trkpt lat="42.34605" lon="0.16033">
        <ele>577.7</ele>
        <time>2015-09-22T12:19:58Z</time>
      </trkpt>
      <trkpt lat="42.34605" lon="0.16029">
        <ele>577.6</ele>
        <time>2015-09-22T12:20:00Z</time>
      </trkpt>
      <trkpt lat="42.34602" lon="0.1603">
        <ele>577.6</ele>
        <time>2015-09-22T12:20:03Z</time>
      </trkpt>
      <trkpt lat="42.34599" lon="0.16034">
        <ele>577.6</ele>
        <time>2015-09-22T12:20:09Z</time>
      </trkpt>
      <trkpt lat="42.34596" lon="0.16036">
        <ele>577.6</ele>
        <time>2015-09-22T12:20:11Z</time>
      </trkpt>
      <trkpt lat="42.34593" lon="0.16036">
        <ele>577.5</ele>
        <time>2015-09-22T12:20:13Z</time>
      </trkpt>
      <trkpt lat="42.3459" lon="0.16034">
        <ele>577.5</ele>
        <time>2015-09-22T12:20:15Z</time>
      </trkpt>
      <trkpt lat="42.34587" lon="0.16032">
        <ele>577.4</ele>
        <time>2015-09-22T12:20:17Z</time>
      </trkpt>
      <trkpt lat="42.34583" lon="0.1603">
        <ele>577.3</ele>
        <time>2015-09-22T12:20:19Z</time>
      </trkpt>
      <trkpt lat="42.34581" lon="0.16027">
        <ele>577.2</ele>
        <time>2015-09-22T12:20:21Z</time>
      </trkpt>
      <trkpt lat="42.34578" lon="0.16024">
        <ele>577.1</ele>
        <time>2015-09-22T12:20:23Z</time>
      </trkpt>
      <trkpt lat="42.34575" lon="0.16023">
        <ele>577</ele>
        <time>2015-09-22T12:20:25Z</time>
      </trkpt>
      <trkpt lat="42.34572" lon="0.16026">
        <ele>577</ele>
        <time>2015-09-22T12:20:27Z</time>
      </trkpt>
      <trkpt lat="42.3457" lon="0.1603">
        <ele>577.1</ele>
        <time>2015-09-22T12:20:29Z</time>
      </trkpt>
      <trkpt lat="42.34568" lon="0.16037">
        <ele>577.2</ele>
        <time>2015-09-22T12:20:31Z</time>
      </trkpt>
      <trkpt lat="42.34568" lon="0.16041">
        <ele>577.3</ele>
        <time>2015-09-22T12:20:32Z</time>
      </trkpt>
      <trkpt lat="42.34567" lon="0.16047">
        <ele>577.2</ele>
        <time>2015-09-22T12:20:34Z</time>
      </trkpt>
      <trkpt lat="42.34564" lon="0.16053">
        <ele>577.1</ele>
        <time>2015-09-22T12:20:36Z</time>
      </trkpt>
      <trkpt lat="42.34562" lon="0.16056">
        <ele>577</ele>
        <time>2015-09-22T12:20:37Z</time>
      </trkpt>
      <trkpt lat="42.34559" lon="0.16059">
        <ele>576.9</ele>
        <time>2015-09-22T12:20:38Z</time>
      </trkpt>
      <trkpt lat="42.34556" lon="0.16061">
        <ele>576.9</ele>
        <time>2015-09-22T12:20:39Z</time>
      </trkpt>
      <trkpt lat="42.34553" lon="0.16064">
        <ele>576.8</ele>
        <time>2015-09-22T12:20:40Z</time>
      </trkpt>
      <trkpt lat="42.34551" lon="0.16066">
        <ele>576.8</ele>
        <time>2015-09-22T12:20:41Z</time>
      </trkpt>
      <trkpt lat="42.34547" lon="0.16071">
        <ele>576.7</ele>
        <time>2015-09-22T12:20:43Z</time>
      </trkpt>
      <trkpt lat="42.34543" lon="0.16075">
        <ele>576.6</ele>
        <time>2015-09-22T12:20:45Z</time>
      </trkpt>
      <trkpt lat="42.34539" lon="0.1608">
        <ele>576.2</ele>
        <time>2015-09-22T12:20:47Z</time>
      </trkpt>
      <trkpt lat="42.34536" lon="0.16084">
        <ele>575.7</ele>
        <time>2015-09-22T12:20:49Z</time>
      </trkpt>
      <trkpt lat="42.34532" lon="0.16088">
        <ele>575.1</ele>
        <time>2015-09-22T12:20:51Z</time>
      </trkpt>
      <trkpt lat="42.34528" lon="0.16091">
        <ele>574.5</ele>
        <time>2015-09-22T12:20:53Z</time>
      </trkpt>
      <trkpt lat="42.34525" lon="0.16096">
        <ele>574.1</ele>
        <time>2015-09-22T12:20:55Z</time>
      </trkpt>
      <trkpt lat="42.34523" lon="0.161">
        <ele>573.8</ele>
        <time>2015-09-22T12:20:56Z</time>
      </trkpt>
      <trkpt lat="42.34521" lon="0.16105">
        <ele>573.5</ele>
        <time>2015-09-22T12:20:58Z</time>
      </trkpt>
      <trkpt lat="42.3452" lon="0.16108">
        <ele>573.3</ele>
        <time>2015-09-22T12:21:00Z</time>
      </trkpt>
      <trkpt lat="42.34518" lon="0.16113">
        <ele>573.1</ele>
        <time>2015-09-22T12:21:03Z</time>
      </trkpt>
      <trkpt lat="42.34519" lon="0.16119">
        <ele>573.2</ele>
        <time>2015-09-22T12:21:05Z</time>
      </trkpt>
      <trkpt lat="42.3452" lon="0.16124">
        <ele>573.4</ele>
        <time>2015-09-22T12:21:07Z</time>
      </trkpt>
      <trkpt lat="42.34523" lon="0.16127">
        <ele>573.6</ele>
        <time>2015-09-22T12:21:09Z</time>
      </trkpt>
      <trkpt lat="42.34525" lon="0.1613">
        <ele>573.8</ele>
        <time>2015-09-22T12:21:11Z</time>
      </trkpt>
      <trkpt lat="42.34526" lon="0.16134">
        <ele>573.8</ele>
        <time>2015-09-22T12:21:13Z</time>
      </trkpt>
      <trkpt lat="42.34524" lon="0.16139">
        <ele>573.4</ele>
        <time>2015-09-22T12:21:15Z</time>
      </trkpt>
      <trkpt lat="42.34522" lon="0.16142">
        <ele>573</ele>
        <time>2015-09-22T12:21:17Z</time>
      </trkpt>
      <trkpt lat="42.34521" lon="0.16145">
        <ele>572.7</ele>
        <time>2015-09-22T12:21:29Z</time>
      </trkpt>
      <trkpt lat="42.3452" lon="0.16149">
        <ele>572.4</ele>
        <time>2015-09-22T12:21:37Z</time>
      </trkpt>
      <trkpt lat="42.34517" lon="0.16149">
        <ele>572</ele>
        <time>2015-09-22T12:21:47Z</time>
      </trkpt>
      <trkpt lat="42.3452" lon="0.16149">
        <ele>572.4</ele>
        <time>2015-09-22T12:22:06Z</time>
      </trkpt>
    </trkseg>
  </trk>
</gpx>